<?xml version='1.0' encoding='UTF-8'?><gpx version="1.1" creator="JPX - https://github.com/jenetics/jpx" xmlns="http://www.topografix.com/GPX/1/1"><trk><trkseg><trkpt lat="46.2615485" lon="9.8466098"><ele>977.1999999999999</ele><time>2026-05-03T11:14:28.215Z</time></trkpt><trkpt lat="46.2614325" lon="9.8466086"><ele>978.3999999999999</ele><time>2026-05-03T11:14:30.237Z</time></trkpt><trkpt lat="46.2613405" lon="9.8466289"><ele>979.6</ele><time>2026-05-03T11:14:34.227Z</time></trkpt><trkpt lat="46.2613776" lon="9.8467359"><ele>980.8</ele><time>2026-05-03T11:14:39.251Z</time></trkpt><trkpt lat="46.2614281" lon="9.8468303"><ele>982.0</ele><time>2026-05-03T11:14:42.347Z</time></trkpt><trkpt lat="46.2613361" lon="9.8470299"><ele>978.0</ele><time>2026-05-03T11:15:15.558Z</time></trkpt><trkpt lat="46.2611991" lon="9.8470902"><ele>974.0</ele><time>2026-05-03T11:15:17.544Z</time></trkpt><trkpt lat="46.2611091" lon="9.8471182"><ele>970.0</ele><time>2026-05-03T11:15:18.545Z</time></trkpt><trkpt lat="46.2610269" lon="9.8471569"><ele>966.0</ele><time>2026-05-03T11:15:19.563Z</time></trkpt><trkpt lat="46.2609461" lon="9.8472055"><ele>962.0</ele><time>2026-05-03T11:15:20.543Z</time></trkpt><trkpt lat="46.2608614" lon="9.8472665"><ele>962.0000000000001</ele><time>2026-05-03T11:15:21.541Z</time></trkpt><trkpt lat="46.2607736" lon="9.8473386"><ele>962.0</ele><time>2026-05-03T11:15:22.543Z</time></trkpt><trkpt lat="46.2606951" lon="9.8474037"><ele>962.0</ele><time>2026-05-03T11:15:23.54Z</time></trkpt><trkpt lat="46.2606227" lon="9.8474644"><ele>962.0</ele><time>2026-05-03T11:15:24.545Z</time></trkpt><trkpt lat="46.2605482" lon="9.847495"><ele>962.0000000000001</ele><time>2026-05-03T11:15:25.543Z</time></trkpt><trkpt lat="46.2604593" lon="9.847498"><ele>962.0</ele><time>2026-05-03T11:15:26.541Z</time></trkpt><trkpt lat="46.2603732" lon="9.8474923"><ele>960.6666666666667</ele><time>2026-05-03T11:15:27.545Z</time></trkpt><trkpt lat="46.2602887" lon="9.8474758"><ele>959.3333333333334</ele><time>2026-05-03T11:15:28.534Z</time></trkpt><trkpt lat="46.2602129" lon="9.8474406"><ele>958.0</ele><time>2026-05-03T11:15:29.538Z</time></trkpt><trkpt lat="46.2601447" lon="9.8473748"><ele>956.6666666666667</ele><time>2026-05-03T11:15:30.537Z</time></trkpt><trkpt lat="46.2600849" lon="9.8472911"><ele>955.3333333333334</ele><time>2026-05-03T11:15:31.54Z</time></trkpt><trkpt lat="46.2600384" lon="9.8471845"><ele>954.0</ele><time>2026-05-03T11:15:32.535Z</time></trkpt><trkpt lat="46.2599908" lon="9.8470752"><ele>954.0</ele><time>2026-05-03T11:15:33.537Z</time></trkpt><trkpt lat="46.2599434" lon="9.8469715"><ele>954.0000000000001</ele><time>2026-05-03T11:15:34.538Z</time></trkpt><trkpt lat="46.25992" lon="9.8468526"><ele>954.0000000000001</ele><time>2026-05-03T11:15:35.536Z</time></trkpt><trkpt lat="46.2599067" lon="9.8467186"><ele>954.0</ele><time>2026-05-03T11:15:36.525Z</time></trkpt><trkpt lat="46.2598916" lon="9.8465595"><ele>954.0</ele><time>2026-05-03T11:15:37.527Z</time></trkpt><trkpt lat="46.2598696" lon="9.846413"><ele>952.0</ele><time>2026-05-03T11:15:38.541Z</time></trkpt><trkpt lat="46.2598529" lon="9.8462743"><ele>950.0000000000001</ele><time>2026-05-03T11:15:39.538Z</time></trkpt><trkpt lat="46.2598287" lon="9.8461468"><ele>948.0000000000001</ele><time>2026-05-03T11:15:40.617Z</time></trkpt><trkpt lat="46.259771" lon="9.8460306"><ele>946.0</ele><time>2026-05-03T11:15:41.538Z</time></trkpt><trkpt lat="46.2596941" lon="9.8459419"><ele>944.0</ele><time>2026-05-03T11:15:42.543Z</time></trkpt><trkpt lat="46.2596008" lon="9.845883"><ele>951.25</ele><time>2026-05-03T11:15:43.541Z</time></trkpt><trkpt lat="46.2594951" lon="9.8458372"><ele>958.5</ele><time>2026-05-03T11:15:44.54Z</time></trkpt><trkpt lat="46.2593773" lon="9.8457948"><ele>965.75</ele><time>2026-05-03T11:15:45.543Z</time></trkpt><trkpt lat="46.259264" lon="9.8457608"><ele>973.0</ele><time>2026-05-03T11:15:46.776Z</time></trkpt><trkpt lat="46.2591514" lon="9.8457323"><ele>972.3333333333333</ele><time>2026-05-03T11:15:47.857Z</time></trkpt><trkpt lat="46.2589291" lon="9.845769"><ele>971.6666666666667</ele><time>2026-05-03T11:15:49.699Z</time></trkpt><trkpt lat="46.2588217" lon="9.8458313"><ele>971.0</ele><time>2026-05-03T11:15:50.701Z</time></trkpt><trkpt lat="46.2586972" lon="9.8458926"><ele>971.0</ele><time>2026-05-03T11:15:51.696Z</time></trkpt><trkpt lat="46.2585624" lon="9.8459197"><ele>971.0</ele><time>2026-05-03T11:15:52.697Z</time></trkpt><trkpt lat="46.2582961" lon="9.8459412"><ele>971.0</ele><time>2026-05-03T11:15:54.701Z</time></trkpt><trkpt lat="46.2581654" lon="9.845934"><ele>965.3333333333334</ele><time>2026-05-03T11:15:55.865Z</time></trkpt><trkpt lat="46.2579212" lon="9.8458471"><ele>959.6666666666667</ele><time>2026-05-03T11:15:57.54Z</time></trkpt><trkpt lat="46.257802" lon="9.8457839"><ele>954.0</ele><time>2026-05-03T11:15:58.543Z</time></trkpt><trkpt lat="46.2576745" lon="9.845724"><ele>954.0</ele><time>2026-05-03T11:15:59.538Z</time></trkpt><trkpt lat="46.2575543" lon="9.8456481"><ele>954.0</ele><time>2026-05-03T11:16:00.54Z</time></trkpt><trkpt lat="46.2574336" lon="9.8455738"><ele>954.0</ele><time>2026-05-03T11:16:01.54Z</time></trkpt><trkpt lat="46.2573079" lon="9.8454967"><ele>954.0</ele><time>2026-05-03T11:16:02.544Z</time></trkpt><trkpt lat="46.2571799" lon="9.8454232"><ele>955.5</ele><time>2026-05-03T11:16:03.544Z</time></trkpt><trkpt lat="46.2570614" lon="9.845334"><ele>957.0</ele><time>2026-05-03T11:16:04.539Z</time></trkpt><trkpt lat="46.2569507" lon="9.845249"><ele>958.5</ele><time>2026-05-03T11:16:05.545Z</time></trkpt><trkpt lat="46.2568232" lon="9.8451847"><ele>960.0</ele><time>2026-05-03T11:16:06.54Z</time></trkpt><trkpt lat="46.2567157" lon="9.8451202"><ele>960.0</ele><time>2026-05-03T11:16:07.538Z</time></trkpt><trkpt lat="46.2565956" lon="9.8450809"><ele>960.0</ele><time>2026-05-03T11:16:08.541Z</time></trkpt><trkpt lat="46.2564605" lon="9.8450744"><ele>960.0</ele><time>2026-05-03T11:16:09.541Z</time></trkpt><trkpt lat="46.2563078" lon="9.845078"><ele>960.0</ele><time>2026-05-03T11:16:10.547Z</time></trkpt><trkpt lat="46.2561734" lon="9.8451137"><ele>959.5</ele><time>2026-05-03T11:16:11.541Z</time></trkpt><trkpt lat="46.2560563" lon="9.8451817"><ele>959.0</ele><time>2026-05-03T11:16:12.544Z</time></trkpt><trkpt lat="46.2559291" lon="9.8452325"><ele>958.5</ele><time>2026-05-03T11:16:13.541Z</time></trkpt><trkpt lat="46.2558071" lon="9.8453025"><ele>958.0</ele><time>2026-05-03T11:16:14.856Z</time></trkpt><trkpt lat="46.2555802" lon="9.8454994"><ele>958.0</ele><time>2026-05-03T11:16:16.855Z</time></trkpt><trkpt lat="46.2554616" lon="9.8455975"><ele>958.0</ele><time>2026-05-03T11:16:17.853Z</time></trkpt><trkpt lat="46.2553335" lon="9.8456868"><ele>958.0</ele><time>2026-05-03T11:16:18.849Z</time></trkpt><trkpt lat="46.2551096" lon="9.8458639"><ele>951.0</ele><time>2026-05-03T11:16:20.851Z</time></trkpt><trkpt lat="46.2550108" lon="9.8459717"><ele>944.0</ele><time>2026-05-03T11:16:21.853Z</time></trkpt><trkpt lat="46.2549081" lon="9.8460735"><ele>937.0</ele><time>2026-05-03T11:16:22.851Z</time></trkpt><trkpt lat="46.2547067" lon="9.8462156"><ele>935.5</ele><time>2026-05-03T11:16:24.667Z</time></trkpt><trkpt lat="46.2545947" lon="9.8462825"><ele>934.0</ele><time>2026-05-03T11:16:25.693Z</time></trkpt><trkpt lat="46.2544837" lon="9.8463576"><ele>932.5</ele><time>2026-05-03T11:16:26.695Z</time></trkpt><trkpt lat="46.2543599" lon="9.8463934"><ele>931.0</ele><time>2026-05-03T11:16:27.695Z</time></trkpt><trkpt lat="46.254233" lon="9.8463949"><ele>931.0</ele><time>2026-05-03T11:16:28.697Z</time></trkpt><trkpt lat="46.2540975" lon="9.8463741"><ele>931.0</ele><time>2026-05-03T11:16:29.693Z</time></trkpt><trkpt lat="46.2537484" lon="9.8462631"><ele>924.6666666666666</ele><time>2026-05-03T11:16:31.538Z</time></trkpt><trkpt lat="46.2535765" lon="9.8462079"><ele>918.3333333333333</ele><time>2026-05-03T11:16:32.54Z</time></trkpt><trkpt lat="46.2534114" lon="9.8461722"><ele>912.0</ele><time>2026-05-03T11:16:33.54Z</time></trkpt><trkpt lat="46.2532375" lon="9.8461344"><ele>911.3333333333333</ele><time>2026-05-03T11:16:34.539Z</time></trkpt><trkpt lat="46.2530556" lon="9.8461224"><ele>910.6666666666666</ele><time>2026-05-03T11:16:35.538Z</time></trkpt><trkpt lat="46.2528839" lon="9.8461387"><ele>910.0</ele><time>2026-05-03T11:16:36.543Z</time></trkpt><trkpt lat="46.2527212" lon="9.8461372"><ele>910.0</ele><time>2026-05-03T11:16:37.563Z</time></trkpt><trkpt lat="46.2525634" lon="9.8461454"><ele>910.0</ele><time>2026-05-03T11:16:38.535Z</time></trkpt><trkpt lat="46.252415" lon="9.8461396"><ele>910.0</ele><time>2026-05-03T11:16:39.55Z</time></trkpt><trkpt lat="46.2522709" lon="9.8461546"><ele>910.0</ele><time>2026-05-03T11:16:40.537Z</time></trkpt><trkpt lat="46.2521275" lon="9.8461774"><ele>910.0</ele><time>2026-05-03T11:16:41.523Z</time></trkpt><trkpt lat="46.2519859" lon="9.8462061"><ele>910.0</ele><time>2026-05-03T11:16:42.518Z</time></trkpt><trkpt lat="46.2518483" lon="9.846252"><ele>910.0</ele><time>2026-05-03T11:16:43.532Z</time></trkpt><trkpt lat="46.2517029" lon="9.8462786"><ele>910.0</ele><time>2026-05-03T11:16:44.563Z</time></trkpt><trkpt lat="46.2515955" lon="9.8463841"><ele>910.0</ele><time>2026-05-03T11:16:45.541Z</time></trkpt><trkpt lat="46.2514686" lon="9.8464746"><ele>910.0</ele><time>2026-05-03T11:16:46.544Z</time></trkpt><trkpt lat="46.2513483" lon="9.8465526"><ele>910.0</ele><time>2026-05-03T11:16:47.558Z</time></trkpt><trkpt lat="46.2512197" lon="9.8466159"><ele>909.5</ele><time>2026-05-03T11:16:48.537Z</time></trkpt><trkpt lat="46.251093" lon="9.8466388"><ele>909.0</ele><time>2026-05-03T11:16:49.544Z</time></trkpt><trkpt lat="46.2509687" lon="9.8466482"><ele>908.5</ele><time>2026-05-03T11:16:50.54Z</time></trkpt><trkpt lat="46.2508547" lon="9.8466715"><ele>908.0</ele><time>2026-05-03T11:16:51.536Z</time></trkpt><trkpt lat="46.2507538" lon="9.8466801"><ele>908.0000000000001</ele><time>2026-05-03T11:16:52.536Z</time></trkpt><trkpt lat="46.2506736" lon="9.8467361"><ele>908.0</ele><time>2026-05-03T11:16:53.537Z</time></trkpt><trkpt lat="46.2505925" lon="9.8467879"><ele>908.0</ele><time>2026-05-03T11:16:54.534Z</time></trkpt><trkpt lat="46.2505058" lon="9.8468192"><ele>908.0</ele><time>2026-05-03T11:16:55.544Z</time></trkpt><trkpt lat="46.2504262" lon="9.8468429"><ele>908.0000000000001</ele><time>2026-05-03T11:16:56.538Z</time></trkpt><trkpt lat="46.2503469" lon="9.8468685"><ele>908.0</ele><time>2026-05-03T11:16:57.54Z</time></trkpt><trkpt lat="46.2503373" lon="9.846962"><ele>901.6666666666667</ele><time>2026-05-03T11:16:59.539Z</time></trkpt><trkpt lat="46.2504178" lon="9.8469905"><ele>895.3333333333334</ele><time>2026-05-03T11:17:00.543Z</time></trkpt><trkpt lat="46.2505033" lon="9.8469864"><ele>889.0</ele><time>2026-05-03T11:17:01.543Z</time></trkpt><trkpt lat="46.2505882" lon="9.8469403"><ele>882.6666666666667</ele><time>2026-05-03T11:17:02.54Z</time></trkpt><trkpt lat="46.2506674" lon="9.8468732"><ele>876.3333333333334</ele><time>2026-05-03T11:17:03.561Z</time></trkpt><trkpt lat="46.2507578" lon="9.8468406"><ele>870.0</ele><time>2026-05-03T11:17:04.538Z</time></trkpt><trkpt lat="46.2508627" lon="9.8468435"><ele>870.0</ele><time>2026-05-03T11:17:05.547Z</time></trkpt><trkpt lat="46.2509841" lon="9.8468708"><ele>870.0</ele><time>2026-05-03T11:17:06.537Z</time></trkpt><trkpt lat="46.2511165" lon="9.8468928"><ele>870.0</ele><time>2026-05-03T11:17:07.541Z</time></trkpt><trkpt lat="46.2512395" lon="9.8469136"><ele>870.0</ele><time>2026-05-03T11:17:08.541Z</time></trkpt><trkpt lat="46.2513605" lon="9.8469294"><ele>872.0</ele><time>2026-05-03T11:17:09.538Z</time></trkpt><trkpt lat="46.251481" lon="9.8469415"><ele>874.0</ele><time>2026-05-03T11:17:10.543Z</time></trkpt><trkpt lat="46.2516024" lon="9.8469554"><ele>876.0</ele><time>2026-05-03T11:17:11.537Z</time></trkpt><trkpt lat="46.2517215" lon="9.8469948"><ele>878.0</ele><time>2026-05-03T11:17:12.539Z</time></trkpt><trkpt lat="46.2518413" lon="9.8470644"><ele>878.0</ele><time>2026-05-03T11:17:13.543Z</time></trkpt><trkpt lat="46.2519644" lon="9.8471603"><ele>878.0</ele><time>2026-05-03T11:17:14.539Z</time></trkpt><trkpt lat="46.2520737" lon="9.8472602"><ele>878.0</ele><time>2026-05-03T11:17:15.539Z</time></trkpt><trkpt lat="46.25217" lon="9.8473562"><ele>878.0</ele><time>2026-05-03T11:17:16.539Z</time></trkpt><trkpt lat="46.2522566" lon="9.8474453"><ele>879.8333333333334</ele><time>2026-05-03T11:17:17.538Z</time></trkpt><trkpt lat="46.2523412" lon="9.84752"><ele>881.6666666666667</ele><time>2026-05-03T11:17:18.543Z</time></trkpt><trkpt lat="46.2524167" lon="9.8475833"><ele>883.5</ele><time>2026-05-03T11:17:19.539Z</time></trkpt><trkpt lat="46.2524797" lon="9.8476436"><ele>885.3333333333333</ele><time>2026-05-03T11:17:20.539Z</time></trkpt><trkpt lat="46.2525251" lon="9.8477079"><ele>887.1666666666666</ele><time>2026-05-03T11:17:21.544Z</time></trkpt><trkpt lat="46.2525414" lon="9.8478252"><ele>889.0</ele><time>2026-05-03T11:17:23.567Z</time></trkpt><trkpt lat="46.2524797" lon="9.8478037"><ele>886.25</ele><time>2026-05-03T11:17:25.551Z</time></trkpt><trkpt lat="46.2524092" lon="9.8477482"><ele>883.5</ele><time>2026-05-03T11:17:26.543Z</time></trkpt><trkpt lat="46.2523102" lon="9.8476837"><ele>880.75</ele><time>2026-05-03T11:17:27.537Z</time></trkpt><trkpt lat="46.2521781" lon="9.8476114"><ele>878.0</ele><time>2026-05-03T11:17:28.536Z</time></trkpt><trkpt lat="46.2520358" lon="9.847542"><ele>878.0</ele><time>2026-05-03T11:17:29.541Z</time></trkpt><trkpt lat="46.2518704" lon="9.8474655"><ele>878.0</ele><time>2026-05-03T11:17:30.534Z</time></trkpt><trkpt lat="46.2516973" lon="9.8474107"><ele>878.0</ele><time>2026-05-03T11:17:31.536Z</time></trkpt><trkpt lat="46.2515061" lon="9.8473838"><ele>875.3333333333334</ele><time>2026-05-03T11:17:32.559Z</time></trkpt><trkpt lat="46.2513079" lon="9.8473489"><ele>872.6666666666667</ele><time>2026-05-03T11:17:33.56Z</time></trkpt><trkpt lat="46.2511106" lon="9.8473525"><ele>870.0</ele><time>2026-05-03T11:17:34.56Z</time></trkpt><trkpt lat="46.2509293" lon="9.8473519"><ele>870.0</ele><time>2026-05-03T11:17:35.537Z</time></trkpt><trkpt lat="46.2507617" lon="9.8473433"><ele>870.0</ele><time>2026-05-03T11:17:36.537Z</time></trkpt><trkpt lat="46.2505978" lon="9.8473485"><ele>870.0</ele><time>2026-05-03T11:17:37.536Z</time></trkpt><trkpt lat="46.2504421" lon="9.8473726"><ele>868.75</ele><time>2026-05-03T11:17:38.533Z</time></trkpt><trkpt lat="46.2502882" lon="9.8474083"><ele>867.5</ele><time>2026-05-03T11:17:39.541Z</time></trkpt><trkpt lat="46.2501576" lon="9.8474288"><ele>866.25</ele><time>2026-05-03T11:17:40.548Z</time></trkpt><trkpt lat="46.2500351" lon="9.8474354"><ele>865.0</ele><time>2026-05-03T11:17:41.541Z</time></trkpt><trkpt lat="46.2499086" lon="9.8474183"><ele>863.5</ele><time>2026-05-03T11:17:42.542Z</time></trkpt><trkpt lat="46.249771" lon="9.8473546"><ele>862.0</ele><time>2026-05-03T11:17:43.544Z</time></trkpt><trkpt lat="46.2496402" lon="9.8472854"><ele>860.5</ele><time>2026-05-03T11:17:44.542Z</time></trkpt><trkpt lat="46.2495147" lon="9.8472226"><ele>859.0</ele><time>2026-05-03T11:17:45.542Z</time></trkpt><trkpt lat="46.2493942" lon="9.8471839"><ele>859.0</ele><time>2026-05-03T11:17:46.541Z</time></trkpt><trkpt lat="46.2492709" lon="9.84717"><ele>859.0</ele><time>2026-05-03T11:17:47.54Z</time></trkpt><trkpt lat="46.2491391" lon="9.8471798"><ele>859.0</ele><time>2026-05-03T11:17:48.536Z</time></trkpt><trkpt lat="46.2490129" lon="9.8472055"><ele>859.0</ele><time>2026-05-03T11:17:49.541Z</time></trkpt><trkpt lat="46.2488882" lon="9.8472551"><ele>862.25</ele><time>2026-05-03T11:17:50.542Z</time></trkpt><trkpt lat="46.248766" lon="9.8473409"><ele>865.5</ele><time>2026-05-03T11:17:51.536Z</time></trkpt><trkpt lat="46.2486523" lon="9.8474894"><ele>868.75</ele><time>2026-05-03T11:17:52.532Z</time></trkpt><trkpt lat="46.2485681" lon="9.847647"><ele>872.0</ele><time>2026-05-03T11:17:53.531Z</time></trkpt><trkpt lat="46.2484717" lon="9.8478095"><ele>866.75</ele><time>2026-05-03T11:17:54.533Z</time></trkpt><trkpt lat="46.2483874" lon="9.8479689"><ele>861.5</ele><time>2026-05-03T11:17:55.54Z</time></trkpt><trkpt lat="46.248294" lon="9.8481102"><ele>856.25</ele><time>2026-05-03T11:17:56.533Z</time></trkpt><trkpt lat="46.2481879" lon="9.8482346"><ele>851.0</ele><time>2026-05-03T11:17:57.537Z</time></trkpt><trkpt lat="46.2480582" lon="9.8483044"><ele>851.0</ele><time>2026-05-03T11:17:58.536Z</time></trkpt><trkpt lat="46.2478397" lon="9.848314"><ele>851.0</ele><time>2026-05-03T11:17:59.533Z</time></trkpt><trkpt lat="46.2476588" lon="9.8483611"><ele>851.0</ele><time>2026-05-03T11:18:00.52Z</time></trkpt><trkpt lat="46.2474874" lon="9.8483946"><ele>851.0</ele><time>2026-05-03T11:18:01.549Z</time></trkpt><trkpt lat="46.2473043" lon="9.8484254"><ele>851.0</ele><time>2026-05-03T11:18:02.532Z</time></trkpt><trkpt lat="46.2471291" lon="9.8484299"><ele>851.0</ele><time>2026-05-03T11:18:03.532Z</time></trkpt><trkpt lat="46.2469627" lon="9.8484018"><ele>850.3333333333334</ele><time>2026-05-03T11:18:04.532Z</time></trkpt><trkpt lat="46.2468014" lon="9.8483827"><ele>849.6666666666667</ele><time>2026-05-03T11:18:05.533Z</time></trkpt><trkpt lat="46.246646" lon="9.8483683"><ele>849.0</ele><time>2026-05-03T11:18:06.533Z</time></trkpt><trkpt lat="46.2464987" lon="9.8483637"><ele>849.75</ele><time>2026-05-03T11:18:07.535Z</time></trkpt><trkpt lat="46.246364" lon="9.848363"><ele>850.5</ele><time>2026-05-03T11:18:08.538Z</time></trkpt><trkpt lat="46.2462354" lon="9.8484077"><ele>851.25</ele><time>2026-05-03T11:18:09.535Z</time></trkpt><trkpt lat="46.246112" lon="9.8485202"><ele>852.0</ele><time>2026-05-03T11:18:10.541Z</time></trkpt><trkpt lat="46.2459984" lon="9.8486639"><ele>847.0</ele><time>2026-05-03T11:18:11.534Z</time></trkpt><trkpt lat="46.2458758" lon="9.8488099"><ele>842.0</ele><time>2026-05-03T11:18:12.534Z</time></trkpt><trkpt lat="46.2457726" lon="9.8489483"><ele>837.0</ele><time>2026-05-03T11:18:13.54Z</time></trkpt><trkpt lat="46.2456735" lon="9.8490492"><ele>832.0</ele><time>2026-05-03T11:18:14.538Z</time></trkpt><trkpt lat="46.2455314" lon="9.8491017"><ele>832.0</ele><time>2026-05-03T11:18:15.541Z</time></trkpt><trkpt lat="46.245367" lon="9.8491311"><ele>832.0</ele><time>2026-05-03T11:18:16.543Z</time></trkpt><trkpt lat="46.2452051" lon="9.8491225"><ele>832.0</ele><time>2026-05-03T11:18:17.547Z</time></trkpt><trkpt lat="46.2450367" lon="9.8491086"><ele>832.0</ele><time>2026-05-03T11:18:18.537Z</time></trkpt><trkpt lat="46.2448697" lon="9.8490738"><ele>832.0</ele><time>2026-05-03T11:18:19.537Z</time></trkpt><trkpt lat="46.2446991" lon="9.8490578"><ele>832.0</ele><time>2026-05-03T11:18:20.537Z</time></trkpt><trkpt lat="46.2445286" lon="9.849069"><ele>833.0</ele><time>2026-05-03T11:18:21.534Z</time></trkpt><trkpt lat="46.2443911" lon="9.8491285"><ele>834.0</ele><time>2026-05-03T11:18:22.535Z</time></trkpt><trkpt lat="46.2442661" lon="9.8492088"><ele>835.0</ele><time>2026-05-03T11:18:23.536Z</time></trkpt><trkpt lat="46.2441576" lon="9.8493338"><ele>836.0</ele><time>2026-05-03T11:18:24.536Z</time></trkpt><trkpt lat="46.2440299" lon="9.8494219"><ele>831.5</ele><time>2026-05-03T11:18:25.542Z</time></trkpt><trkpt lat="46.2438916" lon="9.8494788"><ele>827.0</ele><time>2026-05-03T11:18:26.534Z</time></trkpt><trkpt lat="46.2437548" lon="9.8495455"><ele>822.5</ele><time>2026-05-03T11:18:27.543Z</time></trkpt><trkpt lat="46.2436243" lon="9.8495887"><ele>818.0</ele><time>2026-05-03T11:18:28.536Z</time></trkpt><trkpt lat="46.243494" lon="9.8496157"><ele>818.0</ele><time>2026-05-03T11:18:29.535Z</time></trkpt><trkpt lat="46.2433755" lon="9.8496728"><ele>818.0</ele><time>2026-05-03T11:18:30.535Z</time></trkpt><trkpt lat="46.2432522" lon="9.8497077"><ele>818.0</ele><time>2026-05-03T11:18:31.537Z</time></trkpt><trkpt lat="46.2431257" lon="9.8496993"><ele>818.0</ele><time>2026-05-03T11:18:32.536Z</time></trkpt><trkpt lat="46.243001" lon="9.8496922"><ele>817.25</ele><time>2026-05-03T11:18:33.533Z</time></trkpt><trkpt lat="46.2428752" lon="9.8496329"><ele>816.5</ele><time>2026-05-03T11:18:34.536Z</time></trkpt><trkpt lat="46.2427509" lon="9.8495609"><ele>815.75</ele><time>2026-05-03T11:18:35.62Z</time></trkpt><trkpt lat="46.242625" lon="9.8494713"><ele>815.0</ele><time>2026-05-03T11:18:36.533Z</time></trkpt><trkpt lat="46.2424784" lon="9.8494141"><ele>815.0</ele><time>2026-05-03T11:18:37.536Z</time></trkpt><trkpt lat="46.2423376" lon="9.8493297"><ele>815.0</ele><time>2026-05-03T11:18:38.557Z</time></trkpt><trkpt lat="46.2421991" lon="9.8492448"><ele>815.0</ele><time>2026-05-03T11:18:39.533Z</time></trkpt><trkpt lat="46.2420546" lon="9.8491875"><ele>816.75</ele><time>2026-05-03T11:18:40.534Z</time></trkpt><trkpt lat="46.2419043" lon="9.8491786"><ele>818.5</ele><time>2026-05-03T11:18:41.537Z</time></trkpt><trkpt lat="46.2417564" lon="9.8491548"><ele>820.25</ele><time>2026-05-03T11:18:42.567Z</time></trkpt><trkpt lat="46.2416082" lon="9.8491413"><ele>822.0</ele><time>2026-05-03T11:18:43.562Z</time></trkpt><trkpt lat="46.2414602" lon="9.8491432"><ele>822.0</ele><time>2026-05-03T11:18:44.541Z</time></trkpt><trkpt lat="46.2413214" lon="9.8491453"><ele>822.0</ele><time>2026-05-03T11:18:45.541Z</time></trkpt><trkpt lat="46.241195" lon="9.8491361"><ele>822.0</ele><time>2026-05-03T11:18:46.541Z</time></trkpt><trkpt lat="46.2410723" lon="9.8491562"><ele>822.0</ele><time>2026-05-03T11:18:47.536Z</time></trkpt><trkpt lat="46.2409573" lon="9.8491644"><ele>822.0</ele><time>2026-05-03T11:18:48.54Z</time></trkpt><trkpt lat="46.2408521" lon="9.8491639"><ele>822.0</ele><time>2026-05-03T11:18:49.54Z</time></trkpt><trkpt lat="46.2407504" lon="9.8491786"><ele>822.0</ele><time>2026-05-03T11:18:50.539Z</time></trkpt><trkpt lat="46.2406423" lon="9.8492047"><ele>822.0</ele><time>2026-05-03T11:18:51.541Z</time></trkpt><trkpt lat="46.2405268" lon="9.8492441"><ele>822.0</ele><time>2026-05-03T11:18:52.547Z</time></trkpt><trkpt lat="46.2404001" lon="9.8492916"><ele>815.0</ele><time>2026-05-03T11:18:53.542Z</time></trkpt><trkpt lat="46.2402584" lon="9.8493525"><ele>808.0</ele><time>2026-05-03T11:18:54.54Z</time></trkpt><trkpt lat="46.2401019" lon="9.8494113"><ele>801.0</ele><time>2026-05-03T11:18:55.546Z</time></trkpt><trkpt lat="46.2399479" lon="9.8494562"><ele>801.0</ele><time>2026-05-03T11:18:56.542Z</time></trkpt><trkpt lat="46.239807" lon="9.8494979"><ele>801.0</ele><time>2026-05-03T11:18:57.543Z</time></trkpt><trkpt lat="46.2396851" lon="9.849538"><ele>801.0</ele><time>2026-05-03T11:18:58.54Z</time></trkpt><trkpt lat="46.2395593" lon="9.8496"><ele>801.0</ele><time>2026-05-03T11:18:59.541Z</time></trkpt><trkpt lat="46.2394387" lon="9.8496406"><ele>802.0</ele><time>2026-05-03T11:19:00.563Z</time></trkpt><trkpt lat="46.2393326" lon="9.8496419"><ele>803.0</ele><time>2026-05-03T11:19:01.542Z</time></trkpt><trkpt lat="46.2392335" lon="9.8496497"><ele>804.0</ele><time>2026-05-03T11:19:02.546Z</time></trkpt><trkpt lat="46.2391272" lon="9.8496763"><ele>805.0</ele><time>2026-05-03T11:19:03.54Z</time></trkpt><trkpt lat="46.2390138" lon="9.8497348"><ele>806.0</ele><time>2026-05-03T11:19:04.542Z</time></trkpt><trkpt lat="46.2389011" lon="9.8498163"><ele>809.0</ele><time>2026-05-03T11:19:05.542Z</time></trkpt><trkpt lat="46.238791" lon="9.8499295"><ele>812.0</ele><time>2026-05-03T11:19:06.542Z</time></trkpt><trkpt lat="46.2386777" lon="9.8500909"><ele>815.0</ele><time>2026-05-03T11:19:07.542Z</time></trkpt><trkpt lat="46.2385779" lon="9.8502235"><ele>818.0</ele><time>2026-05-03T11:19:08.539Z</time></trkpt><trkpt lat="46.2384854" lon="9.8503591"><ele>811.75</ele><time>2026-05-03T11:19:09.54Z</time></trkpt><trkpt lat="46.2384019" lon="9.8505005"><ele>805.5</ele><time>2026-05-03T11:19:10.541Z</time></trkpt><trkpt lat="46.238325" lon="9.8506261"><ele>799.25</ele><time>2026-05-03T11:19:11.537Z</time></trkpt><trkpt lat="46.2382478" lon="9.8507485"><ele>793.0</ele><time>2026-05-03T11:19:12.538Z</time></trkpt><trkpt lat="46.2381732" lon="9.8508861"><ele>790.5</ele><time>2026-05-03T11:19:13.539Z</time></trkpt><trkpt lat="46.2380614" lon="9.8509884"><ele>788.0</ele><time>2026-05-03T11:19:14.538Z</time></trkpt><trkpt lat="46.2379264" lon="9.8510589"><ele>785.5</ele><time>2026-05-03T11:19:15.537Z</time></trkpt><trkpt lat="46.2377951" lon="9.8511095"><ele>783.0</ele><time>2026-05-03T11:19:16.531Z</time></trkpt><trkpt lat="46.2376525" lon="9.8511968"><ele>783.0</ele><time>2026-05-03T11:19:17.514Z</time></trkpt><trkpt lat="46.2375114" lon="9.85128"><ele>783.0</ele><time>2026-05-03T11:19:18.514Z</time></trkpt><trkpt lat="46.2373545" lon="9.8513603"><ele>783.0</ele><time>2026-05-03T11:19:19.517Z</time></trkpt><trkpt lat="46.2371987" lon="9.8514283"><ele>788.0</ele><time>2026-05-03T11:19:20.515Z</time></trkpt><trkpt lat="46.2370626" lon="9.8515158"><ele>793.0</ele><time>2026-05-03T11:19:21.515Z</time></trkpt><trkpt lat="46.2368847" lon="9.8515721"><ele>798.0</ele><time>2026-05-03T11:19:22.53Z</time></trkpt><trkpt lat="46.2367532" lon="9.8516711"><ele>798.0</ele><time>2026-05-03T11:19:23.541Z</time></trkpt><trkpt lat="46.2366715" lon="9.851748"><ele>798.0</ele><time>2026-05-03T11:19:24.536Z</time></trkpt><trkpt lat="46.2365983" lon="9.8517961"><ele>798.0</ele><time>2026-05-03T11:19:25.549Z</time></trkpt><trkpt lat="46.2365168" lon="9.8518412"><ele>798.0</ele><time>2026-05-03T11:19:26.539Z</time></trkpt><trkpt lat="46.2364292" lon="9.8518704"><ele>798.0</ele><time>2026-05-03T11:19:27.536Z</time></trkpt><trkpt lat="46.2363449" lon="9.8518856"><ele>798.0</ele><time>2026-05-03T11:19:28.54Z</time></trkpt><trkpt lat="46.236252" lon="9.8519504"><ele>793.0</ele><time>2026-05-03T11:19:29.539Z</time></trkpt><trkpt lat="46.2361563" lon="9.8519794"><ele>788.0</ele><time>2026-05-03T11:19:30.535Z</time></trkpt><trkpt lat="46.2360627" lon="9.8520015"><ele>783.0</ele><time>2026-05-03T11:19:31.539Z</time></trkpt><trkpt lat="46.2359786" lon="9.8520268"><ele>778.0</ele><time>2026-05-03T11:19:32.536Z</time></trkpt><trkpt lat="46.2359021" lon="9.8520354"><ele>773.0</ele><time>2026-05-03T11:19:33.544Z</time></trkpt><trkpt lat="46.2358093" lon="9.8520165"><ele>768.0</ele><time>2026-05-03T11:19:35.539Z</time></trkpt><trkpt lat="46.2357832" lon="9.8521118"><ele>768.0</ele><time>2026-05-03T11:19:37.539Z</time></trkpt><trkpt lat="46.2358572" lon="9.8522907"><ele>768.0</ele><time>2026-05-03T11:19:39.54Z</time></trkpt><trkpt lat="46.2359388" lon="9.8523961"><ele>768.0</ele><time>2026-05-03T11:19:40.54Z</time></trkpt><trkpt lat="46.2360189" lon="9.8525034"><ele>768.0</ele><time>2026-05-03T11:19:41.543Z</time></trkpt><trkpt lat="46.2360828" lon="9.852619"><ele>767.0</ele><time>2026-05-03T11:19:42.541Z</time></trkpt><trkpt lat="46.2361374" lon="9.8527406"><ele>766.0</ele><time>2026-05-03T11:19:43.541Z</time></trkpt><trkpt lat="46.2361914" lon="9.8528513"><ele>765.0</ele><time>2026-05-03T11:19:44.541Z</time></trkpt><trkpt lat="46.2362458" lon="9.8529683"><ele>764.0</ele><time>2026-05-03T11:19:45.539Z</time></trkpt><trkpt lat="46.2362983" lon="9.8530731"><ele>763.0</ele><time>2026-05-03T11:19:46.544Z</time></trkpt><trkpt lat="46.2363342" lon="9.8531828"><ele>763.0</ele><time>2026-05-03T11:19:47.539Z</time></trkpt><trkpt lat="46.2363453" lon="9.8532982"><ele>763.0</ele><time>2026-05-03T11:19:48.542Z</time></trkpt><trkpt lat="46.2363365" lon="9.8534134"><ele>763.0</ele><time>2026-05-03T11:19:49.54Z</time></trkpt><trkpt lat="46.2363081" lon="9.8535131"><ele>763.0</ele><time>2026-05-03T11:19:50.562Z</time></trkpt><trkpt lat="46.2362503" lon="9.8536161"><ele>763.0</ele><time>2026-05-03T11:19:51.555Z</time></trkpt><trkpt lat="46.2361747" lon="9.8537329"><ele>763.0</ele><time>2026-05-03T11:19:52.535Z</time></trkpt><trkpt lat="46.2360895" lon="9.8538602"><ele>765.5</ele><time>2026-05-03T11:19:53.54Z</time></trkpt><trkpt lat="46.2359949" lon="9.8539917"><ele>768.0</ele><time>2026-05-03T11:19:54.536Z</time></trkpt><trkpt lat="46.2358921" lon="9.854112"><ele>770.5</ele><time>2026-05-03T11:19:55.55Z</time></trkpt><trkpt lat="46.2357759" lon="9.8542213"><ele>773.0</ele><time>2026-05-03T11:19:56.539Z</time></trkpt><trkpt lat="46.2356423" lon="9.8542941"><ele>772.0</ele><time>2026-05-03T11:19:57.541Z</time></trkpt><trkpt lat="46.2355215" lon="9.8543706"><ele>771.0</ele><time>2026-05-03T11:19:58.533Z</time></trkpt><trkpt lat="46.2354035" lon="9.8544898"><ele>770.0</ele><time>2026-05-03T11:19:59.523Z</time></trkpt><trkpt lat="46.2352907" lon="9.8546047"><ele>769.0</ele><time>2026-05-03T11:20:00.515Z</time></trkpt><trkpt lat="46.2351765" lon="9.8547168"><ele>769.0</ele><time>2026-05-03T11:20:01.517Z</time></trkpt><trkpt lat="46.2350613" lon="9.8548301"><ele>769.0</ele><time>2026-05-03T11:20:02.515Z</time></trkpt><trkpt lat="46.2349437" lon="9.8549371"><ele>769.0</ele><time>2026-05-03T11:20:03.514Z</time></trkpt><trkpt lat="46.2348206" lon="9.8550338"><ele>769.0</ele><time>2026-05-03T11:20:04.523Z</time></trkpt><trkpt lat="46.2346957" lon="9.8551265"><ele>771.75</ele><time>2026-05-03T11:20:05.513Z</time></trkpt><trkpt lat="46.234571" lon="9.8552219"><ele>774.5</ele><time>2026-05-03T11:20:06.515Z</time></trkpt><trkpt lat="46.2344457" lon="9.855314"><ele>777.25</ele><time>2026-05-03T11:20:07.514Z</time></trkpt><trkpt lat="46.2343202" lon="9.8554049"><ele>780.0</ele><time>2026-05-03T11:20:08.514Z</time></trkpt><trkpt lat="46.2341934" lon="9.8554976"><ele>780.0</ele><time>2026-05-03T11:20:09.519Z</time></trkpt><trkpt lat="46.234067" lon="9.8555878"><ele>780.0</ele><time>2026-05-03T11:20:10.516Z</time></trkpt><trkpt lat="46.2339359" lon="9.855669"><ele>780.0</ele><time>2026-05-03T11:20:11.532Z</time></trkpt><trkpt lat="46.233794" lon="9.8556884"><ele>780.0</ele><time>2026-05-03T11:20:12.538Z</time></trkpt><trkpt lat="46.2336748" lon="9.8556592"><ele>774.25</ele><time>2026-05-03T11:20:13.537Z</time></trkpt><trkpt lat="46.2335412" lon="9.8556426"><ele>768.5</ele><time>2026-05-03T11:20:14.536Z</time></trkpt><trkpt lat="46.2334067" lon="9.855637"><ele>762.75</ele><time>2026-05-03T11:20:15.538Z</time></trkpt><trkpt lat="46.2332852" lon="9.8556574"><ele>757.0</ele><time>2026-05-03T11:20:16.536Z</time></trkpt><trkpt lat="46.2331704" lon="9.8556705"><ele>752.5</ele><time>2026-05-03T11:20:17.537Z</time></trkpt><trkpt lat="46.2330488" lon="9.8556837"><ele>748.0</ele><time>2026-05-03T11:20:18.537Z</time></trkpt><trkpt lat="46.2329049" lon="9.8556392"><ele>743.5</ele><time>2026-05-03T11:20:19.541Z</time></trkpt><trkpt lat="46.2327759" lon="9.8556116"><ele>739.0</ele><time>2026-05-03T11:20:20.538Z</time></trkpt><trkpt lat="46.2326426" lon="9.8556184"><ele>739.0</ele><time>2026-05-03T11:20:21.538Z</time></trkpt><trkpt lat="46.2325054" lon="9.8556546"><ele>739.0</ele><time>2026-05-03T11:20:22.544Z</time></trkpt><trkpt lat="46.2323784" lon="9.8556917"><ele>739.0</ele><time>2026-05-03T11:20:23.538Z</time></trkpt><trkpt lat="46.2322534" lon="9.8557662"><ele>739.0</ele><time>2026-05-03T11:20:24.547Z</time></trkpt><trkpt lat="46.2321417" lon="9.8558337"><ele>740.2</ele><time>2026-05-03T11:20:25.547Z</time></trkpt><trkpt lat="46.2320389" lon="9.8559099"><ele>741.4000000000001</ele><time>2026-05-03T11:20:26.517Z</time></trkpt><trkpt lat="46.2319363" lon="9.855984"><ele>742.6</ele><time>2026-05-03T11:20:27.52Z</time></trkpt><trkpt lat="46.2318318" lon="9.856033"><ele>743.8</ele><time>2026-05-03T11:20:28.516Z</time></trkpt><trkpt lat="46.2317313" lon="9.8560631"><ele>745.0</ele><time>2026-05-03T11:20:29.517Z</time></trkpt><trkpt lat="46.2316321" lon="9.8560512"><ele>745.0</ele><time>2026-05-03T11:20:30.512Z</time></trkpt><trkpt lat="46.2315336" lon="9.8559878"><ele>745.0</ele><time>2026-05-03T11:20:31.517Z</time></trkpt><trkpt lat="46.2314715" lon="9.8559199"><ele>745.0</ele><time>2026-05-03T11:20:32.513Z</time></trkpt><trkpt lat="46.2314664" lon="9.8558065"><ele>745.0</ele><time>2026-05-03T11:20:33.53Z</time></trkpt><trkpt lat="46.2314429" lon="9.8556908"><ele>745.0</ele><time>2026-05-03T11:20:34.535Z</time></trkpt><trkpt lat="46.2313922" lon="9.855554"><ele>739.6</ele><time>2026-05-03T11:20:35.531Z</time></trkpt><trkpt lat="46.2313425" lon="9.8554187"><ele>734.2</ele><time>2026-05-03T11:20:36.536Z</time></trkpt><trkpt lat="46.2312921" lon="9.8552806"><ele>728.8</ele><time>2026-05-03T11:20:37.531Z</time></trkpt><trkpt lat="46.2312386" lon="9.8551408"><ele>723.4</ele><time>2026-05-03T11:20:38.533Z</time></trkpt><trkpt lat="46.2311736" lon="9.8550088"><ele>718.0</ele><time>2026-05-03T11:20:39.535Z</time></trkpt><trkpt lat="46.2310898" lon="9.8548911"><ele>718.0</ele><time>2026-05-03T11:20:40.54Z</time></trkpt><trkpt lat="46.2309896" lon="9.8548006"><ele>718.0</ele><time>2026-05-03T11:20:41.535Z</time></trkpt><trkpt lat="46.2308745" lon="9.8547454"><ele>718.0</ele><time>2026-05-03T11:20:42.539Z</time></trkpt><trkpt lat="46.2307557" lon="9.8547233"><ele>718.0</ele><time>2026-05-03T11:20:43.536Z</time></trkpt><trkpt lat="46.2306402" lon="9.8547186"><ele>718.3333333333334</ele><time>2026-05-03T11:20:44.538Z</time></trkpt><trkpt lat="46.2305368" lon="9.8547241"><ele>718.6666666666667</ele><time>2026-05-03T11:20:45.538Z</time></trkpt><trkpt lat="46.2304393" lon="9.8547407"><ele>719.0</ele><time>2026-05-03T11:20:46.539Z</time></trkpt><trkpt lat="46.2303546" lon="9.8547605"><ele>719.3333333333334</ele><time>2026-05-03T11:20:47.539Z</time></trkpt><trkpt lat="46.2302787" lon="9.8547911"><ele>719.6666666666666</ele><time>2026-05-03T11:20:48.537Z</time></trkpt><trkpt lat="46.230212" lon="9.8548218"><ele>720.0</ele><time>2026-05-03T11:20:49.538Z</time></trkpt><trkpt lat="46.2301497" lon="9.8548526"><ele>720.0</ele><time>2026-05-03T11:20:50.542Z</time></trkpt><trkpt lat="46.2300915" lon="9.8548881"><ele>720.0</ele><time>2026-05-03T11:20:51.539Z</time></trkpt><trkpt lat="46.2299548" lon="9.8549424"><ele>720.0</ele><time>2026-05-03T11:20:53.539Z</time></trkpt><trkpt lat="46.2298561" lon="9.8549665"><ele>720.0</ele><time>2026-05-03T11:20:54.54Z</time></trkpt><trkpt lat="46.2297392" lon="9.8549885"><ele>720.0</ele><time>2026-05-03T11:20:55.542Z</time></trkpt><trkpt lat="46.2296114" lon="9.8549939"><ele>719.75</ele><time>2026-05-03T11:20:56.536Z</time></trkpt><trkpt lat="46.2294845" lon="9.8549976"><ele>719.5</ele><time>2026-05-03T11:20:57.538Z</time></trkpt><trkpt lat="46.2293571" lon="9.8550165"><ele>719.25</ele><time>2026-05-03T11:20:58.545Z</time></trkpt><trkpt lat="46.2292247" lon="9.8550438"><ele>719.0</ele><time>2026-05-03T11:20:59.543Z</time></trkpt><trkpt lat="46.2290902" lon="9.855076"><ele>719.75</ele><time>2026-05-03T11:21:00.543Z</time></trkpt><trkpt lat="46.2289559" lon="9.8551104"><ele>720.5</ele><time>2026-05-03T11:21:01.539Z</time></trkpt><trkpt lat="46.2288209" lon="9.8551615"><ele>721.25</ele><time>2026-05-03T11:21:02.537Z</time></trkpt><trkpt lat="46.2286925" lon="9.8552432"><ele>722.0</ele><time>2026-05-03T11:21:03.537Z</time></trkpt><trkpt lat="46.2285746" lon="9.8553378"><ele>719.0</ele><time>2026-05-03T11:21:04.541Z</time></trkpt><trkpt lat="46.2284747" lon="9.8554718"><ele>716.0</ele><time>2026-05-03T11:21:05.543Z</time></trkpt><trkpt lat="46.2283792" lon="9.8556048"><ele>713.0</ele><time>2026-05-03T11:21:06.539Z</time></trkpt><trkpt lat="46.2282822" lon="9.8557119"><ele>710.0</ele><time>2026-05-03T11:21:07.536Z</time></trkpt><trkpt lat="46.2282032" lon="9.8558373"><ele>711.0</ele><time>2026-05-03T11:21:08.538Z</time></trkpt><trkpt lat="46.2281146" lon="9.85595"><ele>712.0</ele><time>2026-05-03T11:21:09.534Z</time></trkpt><trkpt lat="46.2280263" lon="9.8560625"><ele>713.0</ele><time>2026-05-03T11:21:10.543Z</time></trkpt><trkpt lat="46.227941" lon="9.8561712"><ele>714.0</ele><time>2026-05-03T11:21:11.536Z</time></trkpt><trkpt lat="46.2278587" lon="9.856275"><ele>710.75</ele><time>2026-05-03T11:21:12.537Z</time></trkpt><trkpt lat="46.2277758" lon="9.8563749"><ele>707.5</ele><time>2026-05-03T11:21:13.541Z</time></trkpt><trkpt lat="46.227689" lon="9.8564778"><ele>704.25</ele><time>2026-05-03T11:21:14.537Z</time></trkpt><trkpt lat="46.2275889" lon="9.8565565"><ele>701.0</ele><time>2026-05-03T11:21:15.542Z</time></trkpt><trkpt lat="46.2274774" lon="9.8566102"><ele>701.0</ele><time>2026-05-03T11:21:16.542Z</time></trkpt><trkpt lat="46.2273613" lon="9.856631"><ele>701.0</ele><time>2026-05-03T11:21:17.546Z</time></trkpt><trkpt lat="46.227247" lon="9.8566393"><ele>701.0</ele><time>2026-05-03T11:21:18.537Z</time></trkpt><trkpt lat="46.2271332" lon="9.8566442"><ele>701.0</ele><time>2026-05-03T11:21:19.538Z</time></trkpt><trkpt lat="46.2270212" lon="9.8566444"><ele>701.0</ele><time>2026-05-03T11:21:20.541Z</time></trkpt><trkpt lat="46.2269046" lon="9.8566497"><ele>701.0</ele><time>2026-05-03T11:21:21.541Z</time></trkpt><trkpt lat="46.2267811" lon="9.8566678"><ele>701.0</ele><time>2026-05-03T11:21:22.537Z</time></trkpt><trkpt lat="46.2266606" lon="9.8567191"><ele>701.0</ele><time>2026-05-03T11:21:23.537Z</time></trkpt><trkpt lat="46.2265443" lon="9.856804"><ele>701.75</ele><time>2026-05-03T11:21:24.541Z</time></trkpt><trkpt lat="46.2264313" lon="9.8569193"><ele>702.5</ele><time>2026-05-03T11:21:25.544Z</time></trkpt><trkpt lat="46.2263049" lon="9.8570462"><ele>703.25</ele><time>2026-05-03T11:21:26.534Z</time></trkpt><trkpt lat="46.2261841" lon="9.8571666"><ele>704.0</ele><time>2026-05-03T11:21:27.544Z</time></trkpt><trkpt lat="46.2260645" lon="9.857302"><ele>704.0</ele><time>2026-05-03T11:21:28.54Z</time></trkpt><trkpt lat="46.2259515" lon="9.8574376"><ele>704.0</ele><time>2026-05-03T11:21:29.538Z</time></trkpt><trkpt lat="46.2258386" lon="9.857574"><ele>704.0</ele><time>2026-05-03T11:21:30.542Z</time></trkpt><trkpt lat="46.2257359" lon="9.8576811"><ele>704.0</ele><time>2026-05-03T11:21:31.536Z</time></trkpt><trkpt lat="46.2256239" lon="9.8577791"><ele>702.5</ele><time>2026-05-03T11:21:32.526Z</time></trkpt><trkpt lat="46.2255068" lon="9.8578885"><ele>701.0</ele><time>2026-05-03T11:21:33.519Z</time></trkpt><trkpt lat="46.2253908" lon="9.8580217"><ele>699.5</ele><time>2026-05-03T11:21:34.515Z</time></trkpt><trkpt lat="46.2252595" lon="9.8581525"><ele>698.0</ele><time>2026-05-03T11:21:35.509Z</time></trkpt><trkpt lat="46.2251455" lon="9.8583134"><ele>696.0</ele><time>2026-05-03T11:21:36.526Z</time></trkpt><trkpt lat="46.2250114" lon="9.8584594"><ele>694.0</ele><time>2026-05-03T11:21:37.539Z</time></trkpt><trkpt lat="46.2248553" lon="9.8585801"><ele>692.0</ele><time>2026-05-03T11:21:38.526Z</time></trkpt><trkpt lat="46.224687" lon="9.8587019"><ele>689.5</ele><time>2026-05-03T11:21:39.545Z</time></trkpt><trkpt lat="46.2244889" lon="9.8588618"><ele>687.0</ele><time>2026-05-03T11:21:40.506Z</time></trkpt><trkpt lat="46.2242208" lon="9.8590351"><ele>685.0</ele><time>2026-05-03T11:21:41.528Z</time></trkpt><trkpt lat="46.2239723" lon="9.8591921"><ele>683.0</ele><time>2026-05-03T11:21:42.534Z</time></trkpt><trkpt lat="46.2237317" lon="9.8593324"><ele>683.0</ele><time>2026-05-03T11:21:43.534Z</time></trkpt><trkpt lat="46.2234797" lon="9.859441"><ele>683.0</ele><time>2026-05-03T11:21:44.531Z</time></trkpt><trkpt lat="46.2232423" lon="9.8595349"><ele>682.0</ele><time>2026-05-03T11:21:45.537Z</time></trkpt><trkpt lat="46.2230033" lon="9.8596553"><ele>681.0</ele><time>2026-05-03T11:21:46.533Z</time></trkpt><trkpt lat="46.2227556" lon="9.8597683"><ele>681.0</ele><time>2026-05-03T11:21:47.537Z</time></trkpt><trkpt lat="46.2225137" lon="9.8598712"><ele>681.0</ele><time>2026-05-03T11:21:48.524Z</time></trkpt><trkpt lat="46.2222861" lon="9.8599722"><ele>685.3333333333334</ele><time>2026-05-03T11:21:49.511Z</time></trkpt><trkpt lat="46.2220831" lon="9.8600584"><ele>689.6666666666667</ele><time>2026-05-03T11:21:50.514Z</time></trkpt><trkpt lat="46.2218819" lon="9.8601425"><ele>694.0</ele><time>2026-05-03T11:21:51.511Z</time></trkpt><trkpt lat="46.2216792" lon="9.860226"><ele>685.6666666666667</ele><time>2026-05-03T11:21:52.507Z</time></trkpt><trkpt lat="46.2214789" lon="9.860314"><ele>677.3333333333334</ele><time>2026-05-03T11:21:53.509Z</time></trkpt><trkpt lat="46.2212773" lon="9.8604054"><ele>669.0</ele><time>2026-05-03T11:21:54.514Z</time></trkpt><trkpt lat="46.2210767" lon="9.8604941"><ele>669.0</ele><time>2026-05-03T11:21:55.514Z</time></trkpt><trkpt lat="46.2208767" lon="9.8605871"><ele>669.0</ele><time>2026-05-03T11:21:56.512Z</time></trkpt><trkpt lat="46.2207038" lon="9.8606719"><ele>669.0</ele><time>2026-05-03T11:21:57.508Z</time></trkpt><trkpt lat="46.2205303" lon="9.8607616"><ele>669.5</ele><time>2026-05-03T11:21:58.514Z</time></trkpt><trkpt lat="46.2203865" lon="9.8608576"><ele>670.0</ele><time>2026-05-03T11:21:59.517Z</time></trkpt><trkpt lat="46.2202544" lon="9.8608953"><ele>670.5</ele><time>2026-05-03T11:22:00.517Z</time></trkpt><trkpt lat="46.2201273" lon="9.8609198"><ele>671.0</ele><time>2026-05-03T11:22:01.513Z</time></trkpt><trkpt lat="46.2200638" lon="9.8608963"><ele>668.1999999999999</ele><time>2026-05-03T11:22:02.527Z</time></trkpt><trkpt lat="46.2199263" lon="9.8609628"><ele>665.4</ele><time>2026-05-03T11:22:03.535Z</time></trkpt><trkpt lat="46.2198415" lon="9.8609705"><ele>662.6</ele><time>2026-05-03T11:22:04.537Z</time></trkpt><trkpt lat="46.2197548" lon="9.8610274"><ele>659.8</ele><time>2026-05-03T11:22:05.539Z</time></trkpt><trkpt lat="46.2196442" lon="9.8611066"><ele>657.0</ele><time>2026-05-03T11:22:06.538Z</time></trkpt><trkpt lat="46.2195132" lon="9.8611337"><ele>656.5</ele><time>2026-05-03T11:22:07.538Z</time></trkpt><trkpt lat="46.2193892" lon="9.8611309"><ele>656.0</ele><time>2026-05-03T11:22:08.535Z</time></trkpt><trkpt lat="46.2192727" lon="9.8610996"><ele>655.5</ele><time>2026-05-03T11:22:09.541Z</time></trkpt><trkpt lat="46.2191629" lon="9.8610962"><ele>655.0</ele><time>2026-05-03T11:22:10.539Z</time></trkpt><trkpt lat="46.2190429" lon="9.8610979"><ele>658.25</ele><time>2026-05-03T11:22:11.537Z</time></trkpt><trkpt lat="46.2189222" lon="9.8610819"><ele>661.5</ele><time>2026-05-03T11:22:12.537Z</time></trkpt><trkpt lat="46.2188079" lon="9.8610959"><ele>664.75</ele><time>2026-05-03T11:22:13.542Z</time></trkpt><trkpt lat="46.218686" lon="9.8611339"><ele>668.0</ele><time>2026-05-03T11:22:14.539Z</time></trkpt><trkpt lat="46.2185681" lon="9.8612012"><ele>668.0</ele><time>2026-05-03T11:22:15.533Z</time></trkpt><trkpt lat="46.2184333" lon="9.861301"><ele>668.0</ele><time>2026-05-03T11:22:16.532Z</time></trkpt><trkpt lat="46.218267" lon="9.8614754"><ele>668.0</ele><time>2026-05-03T11:22:17.534Z</time></trkpt><trkpt lat="46.218096" lon="9.8616753"><ele>665.3333333333333</ele><time>2026-05-03T11:22:18.533Z</time></trkpt><trkpt lat="46.2179613" lon="9.8618601"><ele>662.6666666666666</ele><time>2026-05-03T11:22:19.533Z</time></trkpt><trkpt lat="46.2178653" lon="9.8620302"><ele>660.0</ele><time>2026-05-03T11:22:20.534Z</time></trkpt><trkpt lat="46.2177739" lon="9.8622142"><ele>660.0</ele><time>2026-05-03T11:22:21.522Z</time></trkpt><trkpt lat="46.2176758" lon="9.8623761"><ele>660.0</ele><time>2026-05-03T11:22:22.512Z</time></trkpt><trkpt lat="46.2175365" lon="9.8625086"><ele>660.0</ele><time>2026-05-03T11:22:23.531Z</time></trkpt><trkpt lat="46.2173664" lon="9.8625897"><ele>654.6666666666666</ele><time>2026-05-03T11:22:24.531Z</time></trkpt><trkpt lat="46.2172212" lon="9.8626927"><ele>649.3333333333333</ele><time>2026-05-03T11:22:25.538Z</time></trkpt><trkpt lat="46.2170687" lon="9.8627549"><ele>644.0</ele><time>2026-05-03T11:22:26.535Z</time></trkpt><trkpt lat="46.2169223" lon="9.8628411"><ele>644.0</ele><time>2026-05-03T11:22:27.539Z</time></trkpt><trkpt lat="46.2167874" lon="9.8629167"><ele>644.0</ele><time>2026-05-03T11:22:28.537Z</time></trkpt><trkpt lat="46.2166405" lon="9.8629597"><ele>644.0</ele><time>2026-05-03T11:22:29.534Z</time></trkpt><trkpt lat="46.2164943" lon="9.8629947"><ele>644.0</ele><time>2026-05-03T11:22:30.54Z</time></trkpt><trkpt lat="46.2163434" lon="9.8630457"><ele>648.3333333333333</ele><time>2026-05-03T11:22:31.534Z</time></trkpt><trkpt lat="46.2161855" lon="9.8631313"><ele>652.6666666666666</ele><time>2026-05-03T11:22:32.537Z</time></trkpt><trkpt lat="46.2160226" lon="9.8632159"><ele>657.0</ele><time>2026-05-03T11:22:33.538Z</time></trkpt><trkpt lat="46.2158617" lon="9.8632955"><ele>657.0</ele><time>2026-05-03T11:22:34.534Z</time></trkpt><trkpt lat="46.2157048" lon="9.8633709"><ele>657.0</ele><time>2026-05-03T11:22:35.535Z</time></trkpt><trkpt lat="46.2155466" lon="9.863461"><ele>657.0</ele><time>2026-05-03T11:22:36.533Z</time></trkpt><trkpt lat="46.2154019" lon="9.8635617"><ele>653.6666666666666</ele><time>2026-05-03T11:22:37.534Z</time></trkpt><trkpt lat="46.2152481" lon="9.863671"><ele>650.3333333333333</ele><time>2026-05-03T11:22:38.54Z</time></trkpt><trkpt lat="46.2151079" lon="9.8637998"><ele>647.0</ele><time>2026-05-03T11:22:39.541Z</time></trkpt><trkpt lat="46.2149857" lon="9.863927"><ele>647.0</ele><time>2026-05-03T11:22:40.534Z</time></trkpt><trkpt lat="46.2148426" lon="9.8640721"><ele>647.0</ele><time>2026-05-03T11:22:41.525Z</time></trkpt><trkpt lat="46.2147186" lon="9.8642418"><ele>647.0</ele><time>2026-05-03T11:22:42.528Z</time></trkpt><trkpt lat="46.2145519" lon="9.8643909"><ele>649.3333333333333</ele><time>2026-05-03T11:22:43.54Z</time></trkpt><trkpt lat="46.2143869" lon="9.8645418"><ele>651.6666666666666</ele><time>2026-05-03T11:22:44.541Z</time></trkpt><trkpt lat="46.2142375" lon="9.8647015"><ele>654.0</ele><time>2026-05-03T11:22:45.539Z</time></trkpt><trkpt lat="46.2140699" lon="9.8648419"><ele>652.0</ele><time>2026-05-03T11:22:46.543Z</time></trkpt><trkpt lat="46.2139081" lon="9.8649976"><ele>650.0</ele><time>2026-05-03T11:22:47.544Z</time></trkpt><trkpt lat="46.2137664" lon="9.865171"><ele>648.0</ele><time>2026-05-03T11:22:48.612Z</time></trkpt><trkpt lat="46.2135826" lon="9.8653025"><ele>648.0</ele><time>2026-05-03T11:22:49.536Z</time></trkpt><trkpt lat="46.2133842" lon="9.8654258"><ele>648.0</ele><time>2026-05-03T11:22:50.696Z</time></trkpt><trkpt lat="46.213" lon="9.8656595"><ele>646.0</ele><time>2026-05-03T11:22:52.693Z</time></trkpt><trkpt lat="46.2128144" lon="9.8657553"><ele>644.0</ele><time>2026-05-03T11:22:53.698Z</time></trkpt><trkpt lat="46.212624" lon="9.8658467"><ele>642.0</ele><time>2026-05-03T11:22:54.693Z</time></trkpt><trkpt lat="46.2124419" lon="9.865958"><ele>645.3333333333334</ele><time>2026-05-03T11:22:55.697Z</time></trkpt><trkpt lat="46.2122691" lon="9.8660626"><ele>648.6666666666667</ele><time>2026-05-03T11:22:56.693Z</time></trkpt><trkpt lat="46.2121042" lon="9.8661588"><ele>652.0</ele><time>2026-05-03T11:22:57.696Z</time></trkpt><trkpt lat="46.2119007" lon="9.8662409"><ele>652.0</ele><time>2026-05-03T11:22:58.695Z</time></trkpt><trkpt lat="46.2116851" lon="9.8663083"><ele>652.0</ele><time>2026-05-03T11:22:59.697Z</time></trkpt><trkpt lat="46.2114782" lon="9.8663699"><ele>652.0</ele><time>2026-05-03T11:23:00.696Z</time></trkpt><trkpt lat="46.2110875" lon="9.8664825"><ele>655.6666666666667</ele><time>2026-05-03T11:23:02.541Z</time></trkpt><trkpt lat="46.2108807" lon="9.866537"><ele>659.3333333333334</ele><time>2026-05-03T11:23:03.536Z</time></trkpt><trkpt lat="46.2106926" lon="9.866611"><ele>663.0</ele><time>2026-05-03T11:23:04.536Z</time></trkpt><trkpt lat="46.210501" lon="9.8666821"><ele>652.0</ele><time>2026-05-03T11:23:05.692Z</time></trkpt><trkpt lat="46.210098" lon="9.8668114"><ele>641.0</ele><time>2026-05-03T11:23:07.54Z</time></trkpt><trkpt lat="46.2099031" lon="9.8668778"><ele>647.0</ele><time>2026-05-03T11:23:08.546Z</time></trkpt><trkpt lat="46.2096974" lon="9.8669566"><ele>653.0</ele><time>2026-05-03T11:23:09.536Z</time></trkpt><trkpt lat="46.2095019" lon="9.867047"><ele>659.0</ele><time>2026-05-03T11:23:10.541Z</time></trkpt><trkpt lat="46.2093121" lon="9.8670988"><ele>659.0</ele><time>2026-05-03T11:23:11.537Z</time></trkpt><trkpt lat="46.2091326" lon="9.8671456"><ele>659.0</ele><time>2026-05-03T11:23:12.536Z</time></trkpt><trkpt lat="46.2089698" lon="9.8671847"><ele>659.0</ele><time>2026-05-03T11:23:13.537Z</time></trkpt><trkpt lat="46.2088002" lon="9.8672411"><ele>660.6666666666666</ele><time>2026-05-03T11:23:14.537Z</time></trkpt><trkpt lat="46.2086407" lon="9.8672902"><ele>662.3333333333334</ele><time>2026-05-03T11:23:15.697Z</time></trkpt><trkpt lat="46.2084479" lon="9.8673174"><ele>664.0</ele><time>2026-05-03T11:23:16.692Z</time></trkpt><trkpt lat="46.2082793" lon="9.867305"><ele>666.0</ele><time>2026-05-03T11:23:17.759Z</time></trkpt><trkpt lat="46.2079793" lon="9.8673194"><ele>668.0</ele><time>2026-05-03T11:23:19.562Z</time></trkpt><trkpt lat="46.2078219" lon="9.8673101"><ele>668.0</ele><time>2026-05-03T11:23:20.543Z</time></trkpt><trkpt lat="46.2076567" lon="9.8673688"><ele>668.0</ele><time>2026-05-03T11:23:21.543Z</time></trkpt><trkpt lat="46.2074871" lon="9.8674217"><ele>668.0</ele><time>2026-05-03T11:23:22.544Z</time></trkpt><trkpt lat="46.2073281" lon="9.8675295"><ele>659.5</ele><time>2026-05-03T11:23:23.544Z</time></trkpt><trkpt lat="46.2071583" lon="9.8676435"><ele>651.0</ele><time>2026-05-03T11:23:24.694Z</time></trkpt><trkpt lat="46.2068708" lon="9.8678687"><ele>651.0</ele><time>2026-05-03T11:23:26.55Z</time></trkpt><trkpt lat="46.2066918" lon="9.867959"><ele>651.0</ele><time>2026-05-03T11:23:27.694Z</time></trkpt><trkpt lat="46.2063866" lon="9.8681584"><ele>653.0</ele><time>2026-05-03T11:23:29.547Z</time></trkpt><trkpt lat="46.2062543" lon="9.8682463"><ele>655.0</ele><time>2026-05-03T11:23:30.542Z</time></trkpt><trkpt lat="46.2061331" lon="9.8683435"><ele>657.0</ele><time>2026-05-03T11:23:31.547Z</time></trkpt><trkpt lat="46.2059926" lon="9.8684448"><ele>659.0</ele><time>2026-05-03T11:23:32.693Z</time></trkpt><trkpt lat="46.2058534" lon="9.868536"><ele>654.0</ele><time>2026-05-03T11:23:33.695Z</time></trkpt><trkpt lat="46.2056948" lon="9.8686309"><ele>649.0</ele><time>2026-05-03T11:23:34.7Z</time></trkpt><trkpt lat="46.2055339" lon="9.868746"><ele>644.0</ele><time>2026-05-03T11:23:35.696Z</time></trkpt><trkpt lat="46.2053839" lon="9.8688342"><ele>644.0</ele><time>2026-05-03T11:23:36.699Z</time></trkpt><trkpt lat="46.2052306" lon="9.8689471"><ele>644.0</ele><time>2026-05-03T11:23:37.698Z</time></trkpt><trkpt lat="46.2050947" lon="9.8690322"><ele>644.0</ele><time>2026-05-03T11:23:38.701Z</time></trkpt><trkpt lat="46.2049605" lon="9.8690794"><ele>644.0</ele><time>2026-05-03T11:23:39.698Z</time></trkpt><trkpt lat="46.2048497" lon="9.8691928"><ele>644.0</ele><time>2026-05-03T11:23:40.704Z</time></trkpt><trkpt lat="46.2047361" lon="9.869311"><ele>644.0</ele><time>2026-05-03T11:23:41.703Z</time></trkpt><trkpt lat="46.204625" lon="9.8694027"><ele>644.0</ele><time>2026-05-03T11:23:42.702Z</time></trkpt><trkpt lat="46.2045123" lon="9.8694604"><ele>643.5</ele><time>2026-05-03T11:23:43.706Z</time></trkpt><trkpt lat="46.2044264" lon="9.8695262"><ele>643.0</ele><time>2026-05-03T11:23:44.699Z</time></trkpt><trkpt lat="46.2043435" lon="9.8696132"><ele>642.5</ele><time>2026-05-03T11:23:45.693Z</time></trkpt><trkpt lat="46.2041048" lon="9.8696478"><ele>642.0</ele><time>2026-05-03T11:23:47.543Z</time></trkpt><trkpt lat="46.2039794" lon="9.8696175"><ele>638.25</ele><time>2026-05-03T11:23:48.542Z</time></trkpt><trkpt lat="46.2038475" lon="9.8695608"><ele>634.5</ele><time>2026-05-03T11:23:49.539Z</time></trkpt><trkpt lat="46.2037329" lon="9.8694982"><ele>630.75</ele><time>2026-05-03T11:23:50.553Z</time></trkpt><trkpt lat="46.2035962" lon="9.869415"><ele>627.0</ele><time>2026-05-03T11:23:51.569Z</time></trkpt><trkpt lat="46.2034598" lon="9.8693445"><ele>627.0</ele><time>2026-05-03T11:23:52.574Z</time></trkpt><trkpt lat="46.2033115" lon="9.8693041"><ele>627.0</ele><time>2026-05-03T11:23:53.571Z</time></trkpt><trkpt lat="46.203203" lon="9.8692529"><ele>627.0</ele><time>2026-05-03T11:23:54.549Z</time></trkpt><trkpt lat="46.2030804" lon="9.8691851"><ele>627.0</ele><time>2026-05-03T11:23:55.557Z</time></trkpt><trkpt lat="46.2029461" lon="9.8690708"><ele>615.3333333333334</ele><time>2026-05-03T11:23:56.548Z</time></trkpt><trkpt lat="46.2028235" lon="9.868942"><ele>603.6666666666667</ele><time>2026-05-03T11:23:57.548Z</time></trkpt><trkpt lat="46.202682" lon="9.8688213"><ele>592.0</ele><time>2026-05-03T11:23:58.557Z</time></trkpt><trkpt lat="46.2025391" lon="9.8686816"><ele>592.0</ele><time>2026-05-03T11:23:59.549Z</time></trkpt><trkpt lat="46.2023875" lon="9.8685267"><ele>592.0</ele><time>2026-05-03T11:24:00.558Z</time></trkpt><trkpt lat="46.2022217" lon="9.868414"><ele>592.0</ele><time>2026-05-03T11:24:01.55Z</time></trkpt><trkpt lat="46.202069" lon="9.8682663"><ele>592.3333333333334</ele><time>2026-05-03T11:24:02.552Z</time></trkpt><trkpt lat="46.2019065" lon="9.8681274"><ele>592.6666666666666</ele><time>2026-05-03T11:24:03.551Z</time></trkpt><trkpt lat="46.2017423" lon="9.8679896"><ele>593.0</ele><time>2026-05-03T11:24:04.548Z</time></trkpt><trkpt lat="46.2015891" lon="9.8678616"><ele>595.6666666666666</ele><time>2026-05-03T11:24:05.553Z</time></trkpt><trkpt lat="46.2014406" lon="9.8677233"><ele>598.3333333333334</ele><time>2026-05-03T11:24:06.553Z</time></trkpt><trkpt lat="46.2012817" lon="9.8675785"><ele>601.0</ele><time>2026-05-03T11:24:07.552Z</time></trkpt><trkpt lat="46.2011257" lon="9.8674098"><ele>607.3333333333334</ele><time>2026-05-03T11:24:08.552Z</time></trkpt><trkpt lat="46.2009603" lon="9.8672838"><ele>613.6666666666666</ele><time>2026-05-03T11:24:09.553Z</time></trkpt><trkpt lat="46.2008184" lon="9.8671434"><ele>620.0</ele><time>2026-05-03T11:24:10.551Z</time></trkpt><trkpt lat="46.2006794" lon="9.8670181"><ele>619.0</ele><time>2026-05-03T11:24:11.552Z</time></trkpt><trkpt lat="46.2005447" lon="9.8669115"><ele>618.0</ele><time>2026-05-03T11:24:12.55Z</time></trkpt><trkpt lat="46.2004292" lon="9.8668082"><ele>617.0</ele><time>2026-05-03T11:24:13.548Z</time></trkpt><trkpt lat="46.2003116" lon="9.8667055"><ele>616.0</ele><time>2026-05-03T11:24:14.554Z</time></trkpt><trkpt lat="46.2001934" lon="9.8665954"><ele>616.0</ele><time>2026-05-03T11:24:15.548Z</time></trkpt><trkpt lat="46.2000807" lon="9.8664967"><ele>616.0</ele><time>2026-05-03T11:24:16.559Z</time></trkpt><trkpt lat="46.1999493" lon="9.8664046"><ele>616.0</ele><time>2026-05-03T11:24:17.549Z</time></trkpt><trkpt lat="46.1998053" lon="9.8663401"><ele>616.0</ele><time>2026-05-03T11:24:18.547Z</time></trkpt><trkpt lat="46.1996452" lon="9.8663042"><ele>610.6666666666667</ele><time>2026-05-03T11:24:19.554Z</time></trkpt><trkpt lat="46.1994807" lon="9.8663048"><ele>605.3333333333334</ele><time>2026-05-03T11:24:20.541Z</time></trkpt><trkpt lat="46.1993265" lon="9.8663067"><ele>600.0</ele><time>2026-05-03T11:24:21.551Z</time></trkpt><trkpt lat="46.1991707" lon="9.8663048"><ele>600.0</ele><time>2026-05-03T11:24:22.547Z</time></trkpt><trkpt lat="46.1990309" lon="9.8663082"><ele>600.0</ele><time>2026-05-03T11:24:23.546Z</time></trkpt><trkpt lat="46.1988992" lon="9.8662717"><ele>600.0</ele><time>2026-05-03T11:24:24.551Z</time></trkpt><trkpt lat="46.1987691" lon="9.8662063"><ele>600.0</ele><time>2026-05-03T11:24:25.552Z</time></trkpt><trkpt lat="46.1986275" lon="9.8661461"><ele>602.0</ele><time>2026-05-03T11:24:26.55Z</time></trkpt><trkpt lat="46.1984776" lon="9.866109"><ele>604.0</ele><time>2026-05-03T11:24:27.549Z</time></trkpt><trkpt lat="46.1983499" lon="9.8660227"><ele>606.0</ele><time>2026-05-03T11:24:28.552Z</time></trkpt><trkpt lat="46.1982145" lon="9.8659473"><ele>608.0</ele><time>2026-05-03T11:24:29.551Z</time></trkpt><trkpt lat="46.1980964" lon="9.8658749"><ele>608.0</ele><time>2026-05-03T11:24:30.553Z</time></trkpt><trkpt lat="46.1979612" lon="9.8658279"><ele>608.0</ele><time>2026-05-03T11:24:31.547Z</time></trkpt><trkpt lat="46.1978101" lon="9.8657912"><ele>608.0</ele><time>2026-05-03T11:24:32.548Z</time></trkpt><trkpt lat="46.1976524" lon="9.8657735"><ele>608.0</ele><time>2026-05-03T11:24:33.548Z</time></trkpt><trkpt lat="46.1975015" lon="9.8657276"><ele>608.0</ele><time>2026-05-03T11:24:34.548Z</time></trkpt><trkpt lat="46.1973669" lon="9.8656764"><ele>608.0</ele><time>2026-05-03T11:24:35.549Z</time></trkpt><trkpt lat="46.1972401" lon="9.86566"><ele>608.0</ele><time>2026-05-03T11:24:36.551Z</time></trkpt><trkpt lat="46.1971093" lon="9.8656905"><ele>607.5</ele><time>2026-05-03T11:24:37.548Z</time></trkpt><trkpt lat="46.1969862" lon="9.8657661"><ele>607.0</ele><time>2026-05-03T11:24:38.57Z</time></trkpt><trkpt lat="46.1968693" lon="9.8658499"><ele>606.5</ele><time>2026-05-03T11:24:39.573Z</time></trkpt><trkpt lat="46.1967751" lon="9.8659531"><ele>606.0</ele><time>2026-05-03T11:24:40.551Z</time></trkpt><trkpt lat="46.1966882" lon="9.8660417"><ele>600.6</ele><time>2026-05-03T11:24:41.552Z</time></trkpt><trkpt lat="46.1966101" lon="9.8661293"><ele>595.2</ele><time>2026-05-03T11:24:42.551Z</time></trkpt><trkpt lat="46.1965208" lon="9.8661924"><ele>589.8</ele><time>2026-05-03T11:24:43.545Z</time></trkpt><trkpt lat="46.1964251" lon="9.8662224"><ele>584.4</ele><time>2026-05-03T11:24:44.545Z</time></trkpt><trkpt lat="46.1963264" lon="9.8662094"><ele>579.0</ele><time>2026-05-03T11:24:45.543Z</time></trkpt><trkpt lat="46.1962308" lon="9.8661667"><ele>577.5</ele><time>2026-05-03T11:24:46.544Z</time></trkpt><trkpt lat="46.1961466" lon="9.8660998"><ele>576.0</ele><time>2026-05-03T11:24:47.546Z</time></trkpt><trkpt lat="46.1960712" lon="9.8660321"><ele>574.5</ele><time>2026-05-03T11:24:48.546Z</time></trkpt><trkpt lat="46.196004" lon="9.8659708"><ele>573.0</ele><time>2026-05-03T11:24:49.549Z</time></trkpt><trkpt lat="46.195936" lon="9.8659582"><ele>571.5</ele><time>2026-05-03T11:24:50.547Z</time></trkpt><trkpt lat="46.195859" lon="9.8659927"><ele>570.0</ele><time>2026-05-03T11:24:51.544Z</time></trkpt><trkpt lat="46.1957706" lon="9.866094"><ele>569.5</ele><time>2026-05-03T11:24:52.548Z</time></trkpt><trkpt lat="46.1956683" lon="9.8661712"><ele>569.0</ele><time>2026-05-03T11:24:53.54Z</time></trkpt><trkpt lat="46.1955547" lon="9.8662371"><ele>568.5</ele><time>2026-05-03T11:24:54.538Z</time></trkpt><trkpt lat="46.1954466" lon="9.8662768"><ele>568.0</ele><time>2026-05-03T11:24:55.55Z</time></trkpt><trkpt lat="46.1953437" lon="9.8662869"><ele>568.0</ele><time>2026-05-03T11:24:56.545Z</time></trkpt><trkpt lat="46.1952476" lon="9.8662676"><ele>568.0</ele><time>2026-05-03T11:24:57.542Z</time></trkpt><trkpt lat="46.1951698" lon="9.8661536"><ele>568.0</ele><time>2026-05-03T11:24:58.547Z</time></trkpt><trkpt lat="46.1950756" lon="9.866056"><ele>568.0</ele><time>2026-05-03T11:24:59.542Z</time></trkpt><trkpt lat="46.1949618" lon="9.8659656"><ele>573.5</ele><time>2026-05-03T11:25:00.549Z</time></trkpt><trkpt lat="46.1948326" lon="9.865886"><ele>579.0</ele><time>2026-05-03T11:25:01.544Z</time></trkpt><trkpt lat="46.194693" lon="9.865842"><ele>584.5</ele><time>2026-05-03T11:25:02.542Z</time></trkpt><trkpt lat="46.1945304" lon="9.8658666"><ele>590.0</ele><time>2026-05-03T11:25:03.544Z</time></trkpt><trkpt lat="46.1943605" lon="9.865942"><ele>581.0</ele><time>2026-05-03T11:25:04.55Z</time></trkpt><trkpt lat="46.1942116" lon="9.8660097"><ele>572.0</ele><time>2026-05-03T11:25:05.55Z</time></trkpt><trkpt lat="46.1940761" lon="9.8660989"><ele>563.0</ele><time>2026-05-03T11:25:06.547Z</time></trkpt><trkpt lat="46.1939309" lon="9.8661952"><ele>561.6666666666666</ele><time>2026-05-03T11:25:07.552Z</time></trkpt><trkpt lat="46.1937764" lon="9.8662508"><ele>560.3333333333334</ele><time>2026-05-03T11:25:08.547Z</time></trkpt><trkpt lat="46.1936201" lon="9.8662825"><ele>559.0</ele><time>2026-05-03T11:25:09.546Z</time></trkpt><trkpt lat="46.1934594" lon="9.8663056"><ele>559.0</ele><time>2026-05-03T11:25:10.555Z</time></trkpt><trkpt lat="46.1933118" lon="9.8663151"><ele>559.0</ele><time>2026-05-03T11:25:11.55Z</time></trkpt><trkpt lat="46.1931846" lon="9.8663036"><ele>559.0</ele><time>2026-05-03T11:25:12.557Z</time></trkpt><trkpt lat="46.1930787" lon="9.8662749"><ele>559.0</ele><time>2026-05-03T11:25:13.546Z</time></trkpt><trkpt lat="46.1929885" lon="9.8662074"><ele>561.6</ele><time>2026-05-03T11:25:14.547Z</time></trkpt><trkpt lat="46.1929017" lon="9.8661226"><ele>564.2</ele><time>2026-05-03T11:25:15.543Z</time></trkpt><trkpt lat="46.1928495" lon="9.8660013"><ele>566.8000000000001</ele><time>2026-05-03T11:25:16.545Z</time></trkpt><trkpt lat="46.192808" lon="9.8658417"><ele>569.4</ele><time>2026-05-03T11:25:17.547Z</time></trkpt><trkpt lat="46.1927815" lon="9.8656905"><ele>572.0</ele><time>2026-05-03T11:25:18.544Z</time></trkpt><trkpt lat="46.192747" lon="9.86555"><ele>572.0</ele><time>2026-05-03T11:25:19.538Z</time></trkpt><trkpt lat="46.1926968" lon="9.8654232"><ele>572.0</ele><time>2026-05-03T11:25:20.529Z</time></trkpt><trkpt lat="46.1926315" lon="9.8653074"><ele>572.0</ele><time>2026-05-03T11:25:21.534Z</time></trkpt><trkpt lat="46.1925482" lon="9.8652466"><ele>572.0</ele><time>2026-05-03T11:25:22.549Z</time></trkpt><trkpt lat="46.1924515" lon="9.8652294"><ele>572.0</ele><time>2026-05-03T11:25:23.549Z</time></trkpt><trkpt lat="46.1923432" lon="9.8652729"><ele>572.6666666666666</ele><time>2026-05-03T11:25:24.544Z</time></trkpt><trkpt lat="46.1922095" lon="9.8653482"><ele>573.3333333333334</ele><time>2026-05-03T11:25:25.549Z</time></trkpt><trkpt lat="46.1920481" lon="9.8654773"><ele>574.0</ele><time>2026-05-03T11:25:26.547Z</time></trkpt><trkpt lat="46.1918783" lon="9.8656011"><ele>574.0</ele><time>2026-05-03T11:25:27.547Z</time></trkpt><trkpt lat="46.1916612" lon="9.865693"><ele>574.0</ele><time>2026-05-03T11:25:28.555Z</time></trkpt><trkpt lat="46.1914691" lon="9.8657601"><ele>574.0</ele><time>2026-05-03T11:25:29.546Z</time></trkpt><trkpt lat="46.1912836" lon="9.8658284"><ele>574.0</ele><time>2026-05-03T11:25:30.548Z</time></trkpt><trkpt lat="46.1911153" lon="9.8658801"><ele>574.0</ele><time>2026-05-03T11:25:31.545Z</time></trkpt><trkpt lat="46.1909611" lon="9.8659331"><ele>574.0</ele><time>2026-05-03T11:25:32.546Z</time></trkpt><trkpt lat="46.1908123" lon="9.8659615"><ele>562.0</ele><time>2026-05-03T11:25:33.543Z</time></trkpt><trkpt lat="46.1906541" lon="9.8659979"><ele>550.0</ele><time>2026-05-03T11:25:34.547Z</time></trkpt><trkpt lat="46.1905029" lon="9.8660149"><ele>538.0</ele><time>2026-05-03T11:25:35.547Z</time></trkpt><trkpt lat="46.1903523" lon="9.8660434"><ele>538.0</ele><time>2026-05-03T11:25:36.548Z</time></trkpt><trkpt lat="46.1901901" lon="9.8660345"><ele>538.0</ele><time>2026-05-03T11:25:37.55Z</time></trkpt><trkpt lat="46.1900167" lon="9.8659779"><ele>538.0</ele><time>2026-05-03T11:25:38.55Z</time></trkpt><trkpt lat="46.189839" lon="9.865957"><ele>533.6666666666667</ele><time>2026-05-03T11:25:39.546Z</time></trkpt><trkpt lat="46.189674" lon="9.8659545"><ele>529.3333333333334</ele><time>2026-05-03T11:25:40.549Z</time></trkpt><trkpt lat="46.1895193" lon="9.8659169"><ele>525.0</ele><time>2026-05-03T11:25:41.55Z</time></trkpt><trkpt lat="46.1893641" lon="9.8658669"><ele>529.5</ele><time>2026-05-03T11:25:42.554Z</time></trkpt><trkpt lat="46.1892232" lon="9.865826"><ele>534.0</ele><time>2026-05-03T11:25:43.559Z</time></trkpt><trkpt lat="46.1890895" lon="9.8657561"><ele>538.5</ele><time>2026-05-03T11:25:44.552Z</time></trkpt><trkpt lat="46.1889722" lon="9.8656666"><ele>543.0</ele><time>2026-05-03T11:25:45.548Z</time></trkpt><trkpt lat="46.1888481" lon="9.8655764"><ele>543.0</ele><time>2026-05-03T11:25:46.551Z</time></trkpt><trkpt lat="46.188714" lon="9.8655101"><ele>543.0</ele><time>2026-05-03T11:25:47.55Z</time></trkpt><trkpt lat="46.1885805" lon="9.8655164"><ele>543.0</ele><time>2026-05-03T11:25:48.554Z</time></trkpt><trkpt lat="46.1884457" lon="9.8655343"><ele>543.0</ele><time>2026-05-03T11:25:49.552Z</time></trkpt><trkpt lat="46.1882884" lon="9.8655837"><ele>540.75</ele><time>2026-05-03T11:25:50.549Z</time></trkpt><trkpt lat="46.1881284" lon="9.8656273"><ele>538.5</ele><time>2026-05-03T11:25:51.547Z</time></trkpt><trkpt lat="46.1879825" lon="9.865666"><ele>536.25</ele><time>2026-05-03T11:25:52.551Z</time></trkpt><trkpt lat="46.1878474" lon="9.8656957"><ele>534.0</ele><time>2026-05-03T11:25:53.548Z</time></trkpt><trkpt lat="46.1877167" lon="9.865727"><ele>534.0</ele><time>2026-05-03T11:25:54.547Z</time></trkpt><trkpt lat="46.1875918" lon="9.8657494"><ele>534.0</ele><time>2026-05-03T11:25:55.557Z</time></trkpt><trkpt lat="46.1874669" lon="9.8656996"><ele>534.0</ele><time>2026-05-03T11:25:56.549Z</time></trkpt><trkpt lat="46.1873387" lon="9.8656535"><ele>534.0</ele><time>2026-05-03T11:25:57.554Z</time></trkpt><trkpt lat="46.187227" lon="9.8656002"><ele>531.5</ele><time>2026-05-03T11:25:58.549Z</time></trkpt><trkpt lat="46.1871108" lon="9.8655752"><ele>529.0</ele><time>2026-05-03T11:25:59.548Z</time></trkpt><trkpt lat="46.1869922" lon="9.8656088"><ele>526.5</ele><time>2026-05-03T11:26:00.545Z</time></trkpt><trkpt lat="46.1868659" lon="9.865649"><ele>524.0</ele><time>2026-05-03T11:26:01.548Z</time></trkpt><trkpt lat="46.1867457" lon="9.8656767"><ele>524.0</ele><time>2026-05-03T11:26:02.549Z</time></trkpt><trkpt lat="46.1866183" lon="9.8656602"><ele>524.0</ele><time>2026-05-03T11:26:03.555Z</time></trkpt><trkpt lat="46.1864855" lon="9.8656135"><ele>524.0</ele><time>2026-05-03T11:26:04.559Z</time></trkpt><trkpt lat="46.1863461" lon="9.8655429"><ele>524.0</ele><time>2026-05-03T11:26:05.554Z</time></trkpt><trkpt lat="46.186185" lon="9.8654331"><ele>520.3333333333333</ele><time>2026-05-03T11:26:06.556Z</time></trkpt><trkpt lat="46.1860156" lon="9.8653799"><ele>516.6666666666666</ele><time>2026-05-03T11:26:07.551Z</time></trkpt><trkpt lat="46.1858557" lon="9.8653561"><ele>513.0</ele><time>2026-05-03T11:26:08.552Z</time></trkpt><trkpt lat="46.1857117" lon="9.8653418"><ele>512.0</ele><time>2026-05-03T11:26:09.552Z</time></trkpt><trkpt lat="46.185575" lon="9.8653654"><ele>511.0</ele><time>2026-05-03T11:26:10.569Z</time></trkpt><trkpt lat="46.1854328" lon="9.8654195"><ele>510.0</ele><time>2026-05-03T11:26:11.551Z</time></trkpt><trkpt lat="46.1853014" lon="9.865496"><ele>509.0</ele><time>2026-05-03T11:26:12.55Z</time></trkpt><trkpt lat="46.1851593" lon="9.8655694"><ele>509.0</ele><time>2026-05-03T11:26:13.556Z</time></trkpt><trkpt lat="46.1850148" lon="9.8656037"><ele>509.0</ele><time>2026-05-03T11:26:14.553Z</time></trkpt><trkpt lat="46.1848632" lon="9.8656071"><ele>509.0</ele><time>2026-05-03T11:26:15.555Z</time></trkpt><trkpt lat="46.1847253" lon="9.8656133"><ele>509.0</ele><time>2026-05-03T11:26:16.553Z</time></trkpt><trkpt lat="46.1845754" lon="9.865609"><ele>504.3333333333333</ele><time>2026-05-03T11:26:17.555Z</time></trkpt><trkpt lat="46.1844258" lon="9.8656008"><ele>499.66666666666663</ele><time>2026-05-03T11:26:18.55Z</time></trkpt><trkpt lat="46.1842839" lon="9.8655814"><ele>495.0</ele><time>2026-05-03T11:26:19.556Z</time></trkpt><trkpt lat="46.1841269" lon="9.8655463"><ele>491.66666666666663</ele><time>2026-05-03T11:26:20.549Z</time></trkpt><trkpt lat="46.1839701" lon="9.865513"><ele>488.3333333333333</ele><time>2026-05-03T11:26:21.548Z</time></trkpt><trkpt lat="46.1838114" lon="9.8654651"><ele>485.0</ele><time>2026-05-03T11:26:22.553Z</time></trkpt><trkpt lat="46.1836649" lon="9.8654079"><ele>485.0</ele><time>2026-05-03T11:26:23.553Z</time></trkpt><trkpt lat="46.1835229" lon="9.8653618"><ele>485.0</ele><time>2026-05-03T11:26:24.574Z</time></trkpt><trkpt lat="46.1833915" lon="9.8653213"><ele>485.0</ele><time>2026-05-03T11:26:25.586Z</time></trkpt><trkpt lat="46.183258" lon="9.8652964"><ele>485.0</ele><time>2026-05-03T11:26:26.599Z</time></trkpt><trkpt lat="46.1831316" lon="9.8652775"><ele>483.5</ele><time>2026-05-03T11:26:27.577Z</time></trkpt><trkpt lat="46.1830149" lon="9.865254"><ele>482.0</ele><time>2026-05-03T11:26:28.551Z</time></trkpt><trkpt lat="46.1828911" lon="9.8652567"><ele>480.5</ele><time>2026-05-03T11:26:29.558Z</time></trkpt><trkpt lat="46.182781" lon="9.8652526"><ele>479.0</ele><time>2026-05-03T11:26:30.573Z</time></trkpt><trkpt lat="46.1826758" lon="9.8652348"><ele>479.0</ele><time>2026-05-03T11:26:31.556Z</time></trkpt><trkpt lat="46.1825504" lon="9.8652036"><ele>479.0</ele><time>2026-05-03T11:26:32.557Z</time></trkpt><trkpt lat="46.1824405" lon="9.8651966"><ele>479.0</ele><time>2026-05-03T11:26:33.552Z</time></trkpt><trkpt lat="46.1823279" lon="9.8651871"><ele>479.0</ele><time>2026-05-03T11:26:34.555Z</time></trkpt><trkpt lat="46.182211" lon="9.8651837"><ele>477.25</ele><time>2026-05-03T11:26:35.556Z</time></trkpt><trkpt lat="46.1820857" lon="9.8651887"><ele>475.5</ele><time>2026-05-03T11:26:36.554Z</time></trkpt><trkpt lat="46.1819534" lon="9.8651859"><ele>473.75</ele><time>2026-05-03T11:26:37.557Z</time></trkpt><trkpt lat="46.1818163" lon="9.8651807"><ele>472.0</ele><time>2026-05-03T11:26:38.557Z</time></trkpt><trkpt lat="46.1816737" lon="9.8651686"><ele>472.0</ele><time>2026-05-03T11:26:39.556Z</time></trkpt><trkpt lat="46.1815204" lon="9.865138"><ele>472.0</ele><time>2026-05-03T11:26:40.557Z</time></trkpt><trkpt lat="46.1813753" lon="9.8651127"><ele>472.0</ele><time>2026-05-03T11:26:41.553Z</time></trkpt><trkpt lat="46.1812277" lon="9.8650664"><ele>471.5</ele><time>2026-05-03T11:26:42.555Z</time></trkpt><trkpt lat="46.1810812" lon="9.8650248"><ele>471.0</ele><time>2026-05-03T11:26:43.553Z</time></trkpt><trkpt lat="46.1809377" lon="9.8649527"><ele>470.5</ele><time>2026-05-03T11:26:44.552Z</time></trkpt><trkpt lat="46.1807981" lon="9.8648872"><ele>470.0</ele><time>2026-05-03T11:26:45.55Z</time></trkpt><trkpt lat="46.1806739" lon="9.8648272"><ele>470.0</ele><time>2026-05-03T11:26:46.553Z</time></trkpt><trkpt lat="46.1805443" lon="9.8647539"><ele>470.0</ele><time>2026-05-03T11:26:47.557Z</time></trkpt><trkpt lat="46.1804412" lon="9.8646703"><ele>470.0</ele><time>2026-05-03T11:26:48.557Z</time></trkpt><trkpt lat="46.180331" lon="9.8645566"><ele>470.0</ele><time>2026-05-03T11:26:49.554Z</time></trkpt><trkpt lat="46.1802247" lon="9.8644137"><ele>472.0</ele><time>2026-05-03T11:26:50.555Z</time></trkpt><trkpt lat="46.1801181" lon="9.8642576"><ele>474.0</ele><time>2026-05-03T11:26:51.556Z</time></trkpt><trkpt lat="46.1799976" lon="9.8640638"><ele>476.0</ele><time>2026-05-03T11:26:52.556Z</time></trkpt><trkpt lat="46.1798938" lon="9.8638846"><ele>472.5</ele><time>2026-05-03T11:26:53.55Z</time></trkpt><trkpt lat="46.1797921" lon="9.8637032"><ele>469.0</ele><time>2026-05-03T11:26:54.556Z</time></trkpt><trkpt lat="46.1796938" lon="9.8635502"><ele>465.5</ele><time>2026-05-03T11:26:55.562Z</time></trkpt><trkpt lat="46.1795868" lon="9.8634191"><ele>462.0</ele><time>2026-05-03T11:26:56.553Z</time></trkpt><trkpt lat="46.1794722" lon="9.863284"><ele>462.0</ele><time>2026-05-03T11:26:57.553Z</time></trkpt><trkpt lat="46.1793625" lon="9.8631711"><ele>462.0</ele><time>2026-05-03T11:26:58.556Z</time></trkpt><trkpt lat="46.1792569" lon="9.8630404"><ele>462.0</ele><time>2026-05-03T11:26:59.554Z</time></trkpt><trkpt lat="46.1791578" lon="9.8629287"><ele>462.0</ele><time>2026-05-03T11:27:00.553Z</time></trkpt><trkpt lat="46.1790583" lon="9.8628005"><ele>459.0</ele><time>2026-05-03T11:27:01.556Z</time></trkpt><trkpt lat="46.1789379" lon="9.8626657"><ele>456.0</ele><time>2026-05-03T11:27:02.556Z</time></trkpt><trkpt lat="46.1788168" lon="9.8625257"><ele>453.0</ele><time>2026-05-03T11:27:03.555Z</time></trkpt><trkpt lat="46.1786828" lon="9.8624098"><ele>453.0</ele><time>2026-05-03T11:27:04.555Z</time></trkpt><trkpt lat="46.1785536" lon="9.8622802"><ele>453.0</ele><time>2026-05-03T11:27:05.555Z</time></trkpt><trkpt lat="46.178423" lon="9.8621542"><ele>453.0</ele><time>2026-05-03T11:27:06.55Z</time></trkpt><trkpt lat="46.1783063" lon="9.8620328"><ele>453.0</ele><time>2026-05-03T11:27:07.552Z</time></trkpt><trkpt lat="46.1781916" lon="9.861903"><ele>453.0</ele><time>2026-05-03T11:27:08.555Z</time></trkpt><trkpt lat="46.1780733" lon="9.8617631"><ele>453.0</ele><time>2026-05-03T11:27:09.555Z</time></trkpt><trkpt lat="46.1779647" lon="9.8616167"><ele>453.0</ele><time>2026-05-03T11:27:10.553Z</time></trkpt><trkpt lat="46.1778443" lon="9.861475"><ele>453.5</ele><time>2026-05-03T11:27:11.556Z</time></trkpt><trkpt lat="46.1777377" lon="9.8613333"><ele>454.0</ele><time>2026-05-03T11:27:12.555Z</time></trkpt><trkpt lat="46.1776314" lon="9.8611814"><ele>454.5</ele><time>2026-05-03T11:27:13.555Z</time></trkpt><trkpt lat="46.1775385" lon="9.8610292"><ele>455.0</ele><time>2026-05-03T11:27:14.555Z</time></trkpt><trkpt lat="46.1774416" lon="9.8608709"><ele>455.0</ele><time>2026-05-03T11:27:15.554Z</time></trkpt><trkpt lat="46.1773569" lon="9.8606763"><ele>455.0</ele><time>2026-05-03T11:27:16.559Z</time></trkpt><trkpt lat="46.1772659" lon="9.860504"><ele>455.0</ele><time>2026-05-03T11:27:17.555Z</time></trkpt><trkpt lat="46.177169" lon="9.8603275"><ele>448.66666666666663</ele><time>2026-05-03T11:27:18.557Z</time></trkpt><trkpt lat="46.1770842" lon="9.8601418"><ele>442.33333333333337</ele><time>2026-05-03T11:27:19.553Z</time></trkpt><trkpt lat="46.1769998" lon="9.8599456"><ele>436.0</ele><time>2026-05-03T11:27:20.55Z</time></trkpt><trkpt lat="46.1769287" lon="9.8597611"><ele>436.0</ele><time>2026-05-03T11:27:21.552Z</time></trkpt><trkpt lat="46.1768594" lon="9.8595891"><ele>436.0</ele><time>2026-05-03T11:27:22.556Z</time></trkpt><trkpt lat="46.1767915" lon="9.8594338"><ele>436.0</ele><time>2026-05-03T11:27:23.557Z</time></trkpt><trkpt lat="46.1767263" lon="9.8592677"><ele>436.0</ele><time>2026-05-03T11:27:24.556Z</time></trkpt><trkpt lat="46.1766523" lon="9.8591082"><ele>435.5</ele><time>2026-05-03T11:27:25.561Z</time></trkpt><trkpt lat="46.1765628" lon="9.8589668"><ele>435.0</ele><time>2026-05-03T11:27:26.555Z</time></trkpt><trkpt lat="46.1764653" lon="9.8588373"><ele>434.5</ele><time>2026-05-03T11:27:27.558Z</time></trkpt><trkpt lat="46.1763576" lon="9.8587284"><ele>434.0</ele><time>2026-05-03T11:27:28.553Z</time></trkpt><trkpt lat="46.1762381" lon="9.8586419"><ele>434.0</ele><time>2026-05-03T11:27:29.559Z</time></trkpt><trkpt lat="46.1761118" lon="9.8585818"><ele>434.0</ele><time>2026-05-03T11:27:30.556Z</time></trkpt><trkpt lat="46.1759844" lon="9.8585289"><ele>434.0</ele><time>2026-05-03T11:27:31.552Z</time></trkpt><trkpt lat="46.1758647" lon="9.8585063"><ele>434.0</ele><time>2026-05-03T11:27:32.557Z</time></trkpt><trkpt lat="46.1757584" lon="9.8584646"><ele>437.8333333333333</ele><time>2026-05-03T11:27:33.554Z</time></trkpt><trkpt lat="46.1756596" lon="9.8584018"><ele>441.66666666666663</ele><time>2026-05-03T11:27:34.554Z</time></trkpt><trkpt lat="46.175563" lon="9.8583613"><ele>445.5</ele><time>2026-05-03T11:27:35.568Z</time></trkpt><trkpt lat="46.1754847" lon="9.8583286"><ele>449.33333333333337</ele><time>2026-05-03T11:27:36.556Z</time></trkpt><trkpt lat="46.1754138" lon="9.8583206"><ele>453.1666666666667</ele><time>2026-05-03T11:27:37.555Z</time></trkpt><trkpt lat="46.1753521" lon="9.8583677"><ele>457.0</ele><time>2026-05-03T11:27:38.552Z</time></trkpt><trkpt lat="46.1752978" lon="9.8584373"><ele>455.8</ele><time>2026-05-03T11:27:39.549Z</time></trkpt><trkpt lat="46.1752632" lon="9.8585366"><ele>454.6</ele><time>2026-05-03T11:27:40.557Z</time></trkpt><trkpt lat="46.175243" lon="9.858648"><ele>453.40000000000003</ele><time>2026-05-03T11:27:41.554Z</time></trkpt><trkpt lat="46.175288" lon="9.8587619"><ele>452.20000000000005</ele><time>2026-05-03T11:27:42.557Z</time></trkpt><trkpt lat="46.1753555" lon="9.8588514"><ele>451.0</ele><time>2026-05-03T11:27:43.55Z</time></trkpt><trkpt lat="46.1754615" lon="9.8589156"><ele>451.0</ele><time>2026-05-03T11:27:44.558Z</time></trkpt><trkpt lat="46.1755654" lon="9.8589553"><ele>451.0</ele><time>2026-05-03T11:27:45.554Z</time></trkpt><trkpt lat="46.1756976" lon="9.8590399"><ele>451.0</ele><time>2026-05-03T11:27:46.559Z</time></trkpt><trkpt lat="46.1758094" lon="9.8591876"><ele>451.0</ele><time>2026-05-03T11:27:47.556Z</time></trkpt><trkpt lat="46.1759332" lon="9.8594323"><ele>441.6666666666667</ele><time>2026-05-03T11:27:48.566Z</time></trkpt><trkpt lat="46.1760441" lon="9.8596506"><ele>432.33333333333337</ele><time>2026-05-03T11:27:49.56Z</time></trkpt><trkpt lat="46.1761423" lon="9.8598447"><ele>423.0</ele><time>2026-05-03T11:27:50.558Z</time></trkpt><trkpt lat="46.1762422" lon="9.8600141"><ele>422.0</ele><time>2026-05-03T11:27:51.56Z</time></trkpt><trkpt lat="46.1763422" lon="9.8601507"><ele>421.0</ele><time>2026-05-03T11:27:52.559Z</time></trkpt><trkpt lat="46.1764107" lon="9.8602956"><ele>420.0</ele><time>2026-05-03T11:27:53.565Z</time></trkpt><trkpt lat="46.1764566" lon="9.8604607"><ele>419.0</ele><time>2026-05-03T11:27:54.562Z</time></trkpt><trkpt lat="46.1764969" lon="9.8606466"><ele>419.0</ele><time>2026-05-03T11:27:55.563Z</time></trkpt><trkpt lat="46.176519" lon="9.8608254"><ele>419.0</ele><time>2026-05-03T11:27:56.556Z</time></trkpt><trkpt lat="46.1765307" lon="9.8610133"><ele>419.0</ele><time>2026-05-03T11:27:57.582Z</time></trkpt><trkpt lat="46.1764875" lon="9.8611535"><ele>419.0</ele><time>2026-05-03T11:27:58.564Z</time></trkpt><trkpt lat="46.1764411" lon="9.861325"><ele>418.25</ele><time>2026-05-03T11:27:59.583Z</time></trkpt><trkpt lat="46.1763921" lon="9.8614985"><ele>417.5</ele><time>2026-05-03T11:28:00.554Z</time></trkpt><trkpt lat="46.1763404" lon="9.8616789"><ele>416.75</ele><time>2026-05-03T11:28:01.56Z</time></trkpt><trkpt lat="46.1762944" lon="9.8618574"><ele>416.0</ele><time>2026-05-03T11:28:02.579Z</time></trkpt><trkpt lat="46.1762614" lon="9.8620491"><ele>415.75</ele><time>2026-05-03T11:28:03.561Z</time></trkpt><trkpt lat="46.1762395" lon="9.8622476"><ele>415.5</ele><time>2026-05-03T11:28:04.587Z</time></trkpt><trkpt lat="46.1762524" lon="9.8624429"><ele>415.25</ele><time>2026-05-03T11:28:05.562Z</time></trkpt><trkpt lat="46.1762557" lon="9.862628"><ele>415.0</ele><time>2026-05-03T11:28:06.564Z</time></trkpt><trkpt lat="46.1762753" lon="9.8628174"><ele>414.25</ele><time>2026-05-03T11:28:07.568Z</time></trkpt><trkpt lat="46.1763027" lon="9.8630122"><ele>413.5</ele><time>2026-05-03T11:28:08.56Z</time></trkpt><trkpt lat="46.1763072" lon="9.8632392"><ele>412.75</ele><time>2026-05-03T11:28:09.568Z</time></trkpt><trkpt lat="46.1763145" lon="9.8634532"><ele>412.0</ele><time>2026-05-03T11:28:10.566Z</time></trkpt><trkpt lat="46.1762981" lon="9.8636531"><ele>411.40000000000003</ele><time>2026-05-03T11:28:11.564Z</time></trkpt><trkpt lat="46.1762716" lon="9.8638262"><ele>410.8</ele><time>2026-05-03T11:28:12.562Z</time></trkpt><trkpt lat="46.1762398" lon="9.863961"><ele>410.2</ele><time>2026-05-03T11:28:13.553Z</time></trkpt><trkpt lat="46.1761959" lon="9.8640791"><ele>409.6</ele><time>2026-05-03T11:28:14.557Z</time></trkpt><trkpt lat="46.1761243" lon="9.8641634"><ele>409.0</ele><time>2026-05-03T11:28:15.55Z</time></trkpt><trkpt lat="46.1760231" lon="9.8642225"><ele>409.0</ele><time>2026-05-03T11:28:16.557Z</time></trkpt><trkpt lat="46.1759233" lon="9.8642546"><ele>409.0</ele><time>2026-05-03T11:28:17.552Z</time></trkpt><trkpt lat="46.175814" lon="9.8642578"><ele>409.0</ele><time>2026-05-03T11:28:18.557Z</time></trkpt><trkpt lat="46.1757051" lon="9.8642818"><ele>409.0</ele><time>2026-05-03T11:28:19.56Z</time></trkpt><trkpt lat="46.1755922" lon="9.8643378"><ele>409.0</ele><time>2026-05-03T11:28:20.558Z</time></trkpt><trkpt lat="46.1754848" lon="9.8644247"><ele>408.5</ele><time>2026-05-03T11:28:21.55Z</time></trkpt><trkpt lat="46.175383" lon="9.8645481"><ele>408.0</ele><time>2026-05-03T11:28:22.554Z</time></trkpt><trkpt lat="46.1752972" lon="9.8647078"><ele>407.5</ele><time>2026-05-03T11:28:23.553Z</time></trkpt><trkpt lat="46.1752052" lon="9.8649149"><ele>407.0</ele><time>2026-05-03T11:28:24.552Z</time></trkpt><trkpt lat="46.1751109" lon="9.8651135"><ele>407.0</ele><time>2026-05-03T11:28:25.56Z</time></trkpt><trkpt lat="46.1750395" lon="9.8652788"><ele>407.0</ele><time>2026-05-03T11:28:26.558Z</time></trkpt><trkpt lat="46.1749755" lon="9.8654247"><ele>407.0</ele><time>2026-05-03T11:28:27.556Z</time></trkpt><trkpt lat="46.1749221" lon="9.8655631"><ele>407.0</ele><time>2026-05-03T11:28:28.56Z</time></trkpt><trkpt lat="46.1748655" lon="9.8656538"><ele>407.0</ele><time>2026-05-03T11:28:29.555Z</time></trkpt><trkpt lat="46.1747928" lon="9.8657271"><ele>405.0</ele><time>2026-05-03T11:28:30.554Z</time></trkpt><trkpt lat="46.1747141" lon="9.8657708"><ele>403.0</ele><time>2026-05-03T11:28:31.557Z</time></trkpt><trkpt lat="46.1746289" lon="9.8657861"><ele>401.0</ele><time>2026-05-03T11:28:32.56Z</time></trkpt><trkpt lat="46.1745342" lon="9.8657609"><ele>399.0</ele><time>2026-05-03T11:28:33.555Z</time></trkpt><trkpt lat="46.1744362" lon="9.8657109"><ele>397.0</ele><time>2026-05-03T11:28:34.558Z</time></trkpt><trkpt lat="46.1743285" lon="9.8656495"><ele>397.0</ele><time>2026-05-03T11:28:35.554Z</time></trkpt><trkpt lat="46.1742256" lon="9.8655909"><ele>397.0</ele><time>2026-05-03T11:28:36.56Z</time></trkpt><trkpt lat="46.1741358" lon="9.8655332"><ele>397.0</ele><time>2026-05-03T11:28:37.556Z</time></trkpt><trkpt lat="46.1740571" lon="9.865465"><ele>397.0</ele><time>2026-05-03T11:28:38.557Z</time></trkpt><trkpt lat="46.1739867" lon="9.8653623"><ele>397.0</ele><time>2026-05-03T11:28:39.56Z</time></trkpt><trkpt lat="46.1739175" lon="9.8652272"><ele>390.0</ele><time>2026-05-03T11:28:40.557Z</time></trkpt><trkpt lat="46.1738545" lon="9.8650677"><ele>383.0</ele><time>2026-05-03T11:28:41.555Z</time></trkpt><trkpt lat="46.173784" lon="9.8649079"><ele>376.0</ele><time>2026-05-03T11:28:42.577Z</time></trkpt><trkpt lat="46.1737071" lon="9.8647732"><ele>369.0</ele><time>2026-05-03T11:28:43.552Z</time></trkpt><trkpt lat="46.1736269" lon="9.864674"><ele>369.0</ele><time>2026-05-03T11:28:44.558Z</time></trkpt><trkpt lat="46.1735487" lon="9.8645997"><ele>369.0</ele><time>2026-05-03T11:28:45.56Z</time></trkpt><trkpt lat="46.1734793" lon="9.8645347"><ele>369.0</ele><time>2026-05-03T11:28:46.584Z</time></trkpt><trkpt lat="46.1734184" lon="9.8644622"><ele>369.0</ele><time>2026-05-03T11:28:47.551Z</time></trkpt><trkpt lat="46.1733777" lon="9.8643801"><ele>369.0</ele><time>2026-05-03T11:28:48.558Z</time></trkpt><trkpt lat="46.1733535" lon="9.8642623"><ele>369.0</ele><time>2026-05-03T11:28:49.556Z</time></trkpt><trkpt lat="46.1733414" lon="9.864103"><ele>372.3333333333333</ele><time>2026-05-03T11:28:50.561Z</time></trkpt><trkpt lat="46.1733544" lon="9.863852"><ele>375.66666666666663</ele><time>2026-05-03T11:28:51.559Z</time></trkpt><trkpt lat="46.1733601" lon="9.8636245"><ele>379.0</ele><time>2026-05-03T11:28:52.558Z</time></trkpt><trkpt lat="46.1733487" lon="9.8634302"><ele>379.6</ele><time>2026-05-03T11:28:53.556Z</time></trkpt><trkpt lat="46.1733263" lon="9.8632548"><ele>380.2</ele><time>2026-05-03T11:28:54.557Z</time></trkpt><trkpt lat="46.1733183" lon="9.8630735"><ele>380.8</ele><time>2026-05-03T11:28:55.564Z</time></trkpt><trkpt lat="46.173309" lon="9.862916"><ele>381.40000000000003</ele><time>2026-05-03T11:28:56.562Z</time></trkpt><trkpt lat="46.173284" lon="9.8628034"><ele>382.0</ele><time>2026-05-03T11:28:57.557Z</time></trkpt><trkpt lat="46.1732455" lon="9.8627191"><ele>382.0</ele><time>2026-05-03T11:28:58.561Z</time></trkpt><trkpt lat="46.1731324" lon="9.8627191"><ele>382.0</ele><time>2026-05-03T11:29:00.572Z</time></trkpt><trkpt lat="46.1731095" lon="9.8629165"><ele>382.0</ele><time>2026-05-03T11:29:02.598Z</time></trkpt><trkpt lat="46.1731552" lon="9.86308"><ele>382.0</ele><time>2026-05-03T11:29:03.568Z</time></trkpt><trkpt lat="46.1732213" lon="9.863284"><ele>381.25</ele><time>2026-05-03T11:29:04.572Z</time></trkpt><trkpt lat="46.1732655" lon="9.8634797"><ele>380.5</ele><time>2026-05-03T11:29:05.563Z</time></trkpt><trkpt lat="46.1733043" lon="9.8636903"><ele>379.75</ele><time>2026-05-03T11:29:06.567Z</time></trkpt><trkpt lat="46.1733289" lon="9.8638893"><ele>379.0</ele><time>2026-05-03T11:29:07.566Z</time></trkpt><trkpt lat="46.173321" lon="9.8641015"><ele>375.66666666666663</ele><time>2026-05-03T11:29:08.568Z</time></trkpt><trkpt lat="46.1732939" lon="9.8643206"><ele>372.3333333333333</ele><time>2026-05-03T11:29:09.591Z</time></trkpt><trkpt lat="46.1732829" lon="9.8645634"><ele>369.0</ele><time>2026-05-03T11:29:10.57Z</time></trkpt><trkpt lat="46.1732599" lon="9.8648539"><ele>369.0</ele><time>2026-05-03T11:29:11.564Z</time></trkpt><trkpt lat="46.1732635" lon="9.8651063"><ele>369.0</ele><time>2026-05-03T11:29:12.574Z</time></trkpt><trkpt lat="46.1732678" lon="9.8653346"><ele>369.0</ele><time>2026-05-03T11:29:13.567Z</time></trkpt><trkpt lat="46.1733" lon="9.8655638"><ele>367.25</ele><time>2026-05-03T11:29:14.574Z</time></trkpt><trkpt lat="46.1733335" lon="9.8657589"><ele>365.5</ele><time>2026-05-03T11:29:15.568Z</time></trkpt><trkpt lat="46.1733815" lon="9.8659789"><ele>363.75</ele><time>2026-05-03T11:29:16.575Z</time></trkpt><trkpt lat="46.1734118" lon="9.8661854"><ele>362.0</ele><time>2026-05-03T11:29:17.562Z</time></trkpt><trkpt lat="46.1734282" lon="9.8663911"><ele>362.0</ele><time>2026-05-03T11:29:18.571Z</time></trkpt><trkpt lat="46.1734194" lon="9.8665723"><ele>362.0</ele><time>2026-05-03T11:29:19.559Z</time></trkpt><trkpt lat="46.1734259" lon="9.8667858"><ele>362.0</ele><time>2026-05-03T11:29:20.569Z</time></trkpt><trkpt lat="46.1734327" lon="9.8669898"><ele>362.0</ele><time>2026-05-03T11:29:21.569Z</time></trkpt><trkpt lat="46.1734319" lon="9.8672129"><ele>361.0</ele><time>2026-05-03T11:29:22.581Z</time></trkpt><trkpt lat="46.1734177" lon="9.8674307"><ele>360.0</ele><time>2026-05-03T11:29:23.563Z</time></trkpt><trkpt lat="46.1733803" lon="9.8676186"><ele>359.0</ele><time>2026-05-03T11:29:24.561Z</time></trkpt><trkpt lat="46.1732996" lon="9.867787"><ele>358.0</ele><time>2026-05-03T11:29:25.577Z</time></trkpt><trkpt lat="46.1732137" lon="9.8679538"><ele>350.25</ele><time>2026-05-03T11:29:26.561Z</time></trkpt><trkpt lat="46.1731178" lon="9.8681348"><ele>342.5</ele><time>2026-05-03T11:29:27.564Z</time></trkpt><trkpt lat="46.1730566" lon="9.8683076"><ele>334.75</ele><time>2026-05-03T11:29:28.571Z</time></trkpt><trkpt lat="46.1730066" lon="9.8684584"><ele>327.0</ele><time>2026-05-03T11:29:29.563Z</time></trkpt><trkpt lat="46.1729612" lon="9.8685882"><ele>327.0</ele><time>2026-05-03T11:29:30.568Z</time></trkpt><trkpt lat="46.172949" lon="9.8686912"><ele>327.0</ele><time>2026-05-03T11:29:31.559Z</time></trkpt><trkpt lat="46.1728801" lon="9.868796"><ele>327.0</ele><time>2026-05-03T11:29:33.561Z</time></trkpt><trkpt lat="46.1727827" lon="9.8687313"><ele>327.0</ele><time>2026-05-03T11:29:35.562Z</time></trkpt><trkpt lat="46.17275" lon="9.8686434"><ele>327.0</ele><time>2026-05-03T11:29:36.567Z</time></trkpt><trkpt lat="46.1727107" lon="9.8685379"><ele>327.0</ele><time>2026-05-03T11:29:37.569Z</time></trkpt><trkpt lat="46.1726661" lon="9.8683989"><ele>327.0</ele><time>2026-05-03T11:29:38.565Z</time></trkpt><trkpt lat="46.1726283" lon="9.8682387"><ele>327.0</ele><time>2026-05-03T11:29:39.567Z</time></trkpt><trkpt lat="46.1726063" lon="9.8680626"><ele>327.0</ele><time>2026-05-03T11:29:40.567Z</time></trkpt><trkpt lat="46.1725939" lon="9.867873"><ele>327.0</ele><time>2026-05-03T11:29:41.565Z</time></trkpt><trkpt lat="46.1725958" lon="9.8676464"><ele>328.3333333333333</ele><time>2026-05-03T11:29:42.563Z</time></trkpt><trkpt lat="46.1726014" lon="9.8673617"><ele>329.66666666666663</ele><time>2026-05-03T11:29:43.563Z</time></trkpt><trkpt lat="46.1725902" lon="9.8670989"><ele>331.0</ele><time>2026-05-03T11:29:44.562Z</time></trkpt><trkpt lat="46.1725833" lon="9.8668374"><ele>331.25</ele><time>2026-05-03T11:29:45.569Z</time></trkpt><trkpt lat="46.172547" lon="9.8666232"><ele>331.5</ele><time>2026-05-03T11:29:46.562Z</time></trkpt><trkpt lat="46.172515" lon="9.8664302"><ele>331.75</ele><time>2026-05-03T11:29:47.567Z</time></trkpt><trkpt lat="46.1724957" lon="9.8662577"><ele>332.0</ele><time>2026-05-03T11:29:48.563Z</time></trkpt><trkpt lat="46.1724939" lon="9.866099"><ele>332.0</ele><time>2026-05-03T11:29:49.561Z</time></trkpt><trkpt lat="46.1725169" lon="9.8659554"><ele>332.0</ele><time>2026-05-03T11:29:50.563Z</time></trkpt><trkpt lat="46.1725661" lon="9.8658382"><ele>332.0</ele><time>2026-05-03T11:29:51.56Z</time></trkpt><trkpt lat="46.1726274" lon="9.8657258"><ele>332.0</ele><time>2026-05-03T11:29:52.56Z</time></trkpt><trkpt lat="46.1726613" lon="9.8655872"><ele>332.0</ele><time>2026-05-03T11:29:53.565Z</time></trkpt><trkpt lat="46.1726655" lon="9.8654426"><ele>330.5</ele><time>2026-05-03T11:29:54.561Z</time></trkpt><trkpt lat="46.1726407" lon="9.8652922"><ele>329.0</ele><time>2026-05-03T11:29:55.564Z</time></trkpt><trkpt lat="46.1725766" lon="9.8651482"><ele>327.5</ele><time>2026-05-03T11:29:56.561Z</time></trkpt><trkpt lat="46.1724986" lon="9.8650175"><ele>326.0</ele><time>2026-05-03T11:29:57.57Z</time></trkpt><trkpt lat="46.1724374" lon="9.8648694"><ele>325.5</ele><time>2026-05-03T11:29:58.564Z</time></trkpt><trkpt lat="46.172387" lon="9.8647108"><ele>325.0</ele><time>2026-05-03T11:29:59.568Z</time></trkpt><trkpt lat="46.1723445" lon="9.864543"><ele>324.5</ele><time>2026-05-03T11:30:00.567Z</time></trkpt><trkpt lat="46.1722998" lon="9.8643742"><ele>324.0</ele><time>2026-05-03T11:30:01.564Z</time></trkpt><trkpt lat="46.1722507" lon="9.8642067"><ele>319.0</ele><time>2026-05-03T11:30:02.568Z</time></trkpt><trkpt lat="46.1721988" lon="9.8640478"><ele>314.0</ele><time>2026-05-03T11:30:03.565Z</time></trkpt><trkpt lat="46.1721478" lon="9.8639007"><ele>309.0</ele><time>2026-05-03T11:30:04.57Z</time></trkpt><trkpt lat="46.1721019" lon="9.8637584"><ele>304.0</ele><time>2026-05-03T11:30:05.568Z</time></trkpt><trkpt lat="46.172054" lon="9.8636225"><ele>304.0</ele><time>2026-05-03T11:30:06.562Z</time></trkpt><trkpt lat="46.1720072" lon="9.8634923"><ele>304.0</ele><time>2026-05-03T11:30:07.574Z</time></trkpt><trkpt lat="46.1719619" lon="9.8633618"><ele>304.0</ele><time>2026-05-03T11:30:08.562Z</time></trkpt><trkpt lat="46.1719175" lon="9.863244"><ele>304.0</ele><time>2026-05-03T11:30:09.573Z</time></trkpt><trkpt lat="46.1718715" lon="9.8631239"><ele>304.0</ele><time>2026-05-03T11:30:10.567Z</time></trkpt><trkpt lat="46.1718278" lon="9.8630107"><ele>304.16666666666663</ele><time>2026-05-03T11:30:11.565Z</time></trkpt><trkpt lat="46.1717936" lon="9.8628902"><ele>304.3333333333333</ele><time>2026-05-03T11:30:12.567Z</time></trkpt><trkpt lat="46.1717579" lon="9.862774"><ele>304.5</ele><time>2026-05-03T11:30:13.563Z</time></trkpt><trkpt lat="46.1717314" lon="9.8626629"><ele>304.6666666666667</ele><time>2026-05-03T11:30:14.565Z</time></trkpt><trkpt lat="46.1717041" lon="9.8625518"><ele>304.83333333333337</ele><time>2026-05-03T11:30:15.564Z</time></trkpt><trkpt lat="46.171674" lon="9.862451"><ele>305.0</ele><time>2026-05-03T11:30:16.569Z</time></trkpt><trkpt lat="46.1716396" lon="9.8623484"><ele>306.0</ele><time>2026-05-03T11:30:17.569Z</time></trkpt><trkpt lat="46.1716085" lon="9.8622329"><ele>307.0</ele><time>2026-05-03T11:30:18.568Z</time></trkpt><trkpt lat="46.171584" lon="9.8621027"><ele>308.0</ele><time>2026-05-03T11:30:19.565Z</time></trkpt><trkpt lat="46.17156" lon="9.861981"><ele>309.0</ele><time>2026-05-03T11:30:20.588Z</time></trkpt><trkpt lat="46.1715427" lon="9.8618536"><ele>310.0</ele><time>2026-05-03T11:30:21.562Z</time></trkpt><trkpt lat="46.1715363" lon="9.8617222"><ele>311.0</ele><time>2026-05-03T11:30:22.57Z</time></trkpt><trkpt lat="46.1715257" lon="9.8615923"><ele>308.83333333333337</ele><time>2026-05-03T11:30:23.57Z</time></trkpt><trkpt lat="46.1715049" lon="9.8614762"><ele>306.6666666666667</ele><time>2026-05-03T11:30:24.565Z</time></trkpt><trkpt lat="46.1714608" lon="9.8613764"><ele>304.5</ele><time>2026-05-03T11:30:25.572Z</time></trkpt><trkpt lat="46.1713965" lon="9.8612978"><ele>302.3333333333333</ele><time>2026-05-03T11:30:26.56Z</time></trkpt><trkpt lat="46.17132" lon="9.8612401"><ele>300.16666666666663</ele><time>2026-05-03T11:30:27.562Z</time></trkpt><trkpt lat="46.1712351" lon="9.8612082"><ele>298.0</ele><time>2026-05-03T11:30:28.564Z</time></trkpt><trkpt lat="46.1711445" lon="9.8612073"><ele>298.0</ele><time>2026-05-03T11:30:29.564Z</time></trkpt><trkpt lat="46.1710595" lon="9.8612149"><ele>298.0</ele><time>2026-05-03T11:30:30.57Z</time></trkpt><trkpt lat="46.1709851" lon="9.8612243"><ele>298.0</ele><time>2026-05-03T11:30:31.569Z</time></trkpt><trkpt lat="46.1709147" lon="9.8612291"><ele>298.0</ele><time>2026-05-03T11:30:32.574Z</time></trkpt><trkpt lat="46.1707957" lon="9.8612295"><ele>298.0</ele><time>2026-05-03T11:30:34.565Z</time></trkpt><trkpt lat="46.1706928" lon="9.8612441"><ele>298.0</ele><time>2026-05-03T11:30:36.583Z</time></trkpt><trkpt lat="46.1706175" lon="9.8612488"><ele>298.0</ele><time>2026-05-03T11:30:38.564Z</time></trkpt><trkpt lat="46.1705294" lon="9.8612571"><ele>298.0</ele><time>2026-05-03T11:30:40.596Z</time></trkpt><trkpt lat="46.1704406" lon="9.861262"><ele>298.0</ele><time>2026-05-03T11:30:42.568Z</time></trkpt><trkpt lat="46.1703431" lon="9.8612625"><ele>298.0</ele><time>2026-05-03T11:30:44.562Z</time></trkpt><trkpt lat="46.1702141" lon="9.8612594"><ele>298.0</ele><time>2026-05-03T11:30:46.559Z</time></trkpt><trkpt lat="46.1701417" lon="9.8612479"><ele>298.0</ele><time>2026-05-03T11:30:47.566Z</time></trkpt><trkpt lat="46.1700661" lon="9.861242"><ele>298.0</ele><time>2026-05-03T11:30:48.57Z</time></trkpt><trkpt lat="46.16999" lon="9.8612336"><ele>298.0</ele><time>2026-05-03T11:30:49.565Z</time></trkpt><trkpt lat="46.1699149" lon="9.8612224"><ele>298.0</ele><time>2026-05-03T11:30:50.574Z</time></trkpt><trkpt lat="46.1698465" lon="9.8612112"><ele>298.0</ele><time>2026-05-03T11:30:51.568Z</time></trkpt><trkpt lat="46.1697807" lon="9.8612011"><ele>298.0</ele><time>2026-05-03T11:30:52.563Z</time></trkpt><trkpt lat="46.1696629" lon="9.8611995"><ele>298.0</ele><time>2026-05-03T11:30:54.558Z</time></trkpt><trkpt lat="46.1695593" lon="9.8611949"><ele>298.0</ele><time>2026-05-03T11:30:56.555Z</time></trkpt><trkpt lat="46.1694714" lon="9.861201"><ele>298.0</ele><time>2026-05-03T11:30:58.569Z</time></trkpt><trkpt lat="46.1693856" lon="9.8612121"><ele>298.0</ele><time>2026-05-03T11:31:00.577Z</time></trkpt><trkpt lat="46.169286" lon="9.8612143"><ele>298.0</ele><time>2026-05-03T11:31:02.584Z</time></trkpt><trkpt lat="46.1691761" lon="9.8612119"><ele>298.0</ele><time>2026-05-03T11:31:04.559Z</time></trkpt><trkpt lat="46.1691109" lon="9.8611994"><ele>298.0</ele><time>2026-05-03T11:31:05.562Z</time></trkpt><trkpt lat="46.1690588" lon="9.8611433"><ele>298.0</ele><time>2026-05-03T11:31:06.557Z</time></trkpt><trkpt lat="46.1690094" lon="9.8610703"><ele>298.0</ele><time>2026-05-03T11:31:07.583Z</time></trkpt><trkpt lat="46.1689593" lon="9.860971"><ele>298.0</ele><time>2026-05-03T11:31:08.563Z</time></trkpt><trkpt lat="46.1689186" lon="9.860844"><ele>298.0</ele><time>2026-05-03T11:31:09.559Z</time></trkpt><trkpt lat="46.1688838" lon="9.8607175"><ele>297.8333333333333</ele><time>2026-05-03T11:31:10.569Z</time></trkpt><trkpt lat="46.1688545" lon="9.8605871"><ele>297.66666666666663</ele><time>2026-05-03T11:31:11.556Z</time></trkpt><trkpt lat="46.1688209" lon="9.8604559"><ele>297.5</ele><time>2026-05-03T11:31:12.564Z</time></trkpt><trkpt lat="46.1687851" lon="9.8603299"><ele>297.3333333333333</ele><time>2026-05-03T11:31:13.555Z</time></trkpt><trkpt lat="46.1687498" lon="9.8602172"><ele>297.1666666666667</ele><time>2026-05-03T11:31:14.567Z</time></trkpt><trkpt lat="46.1687162" lon="9.8601238"><ele>297.0</ele><time>2026-05-03T11:31:15.557Z</time></trkpt><trkpt lat="46.1686712" lon="9.8599766"><ele>297.0</ele><time>2026-05-03T11:31:17.555Z</time></trkpt><trkpt lat="46.1686312" lon="9.8598455"><ele>297.0</ele><time>2026-05-03T11:31:19.582Z</time></trkpt><trkpt lat="46.1685834" lon="9.8597764"><ele>297.0</ele><time>2026-05-03T11:31:21.569Z</time></trkpt><trkpt lat="46.1685464" lon="9.8596831"><ele>297.0</ele><time>2026-05-03T11:31:24.565Z</time></trkpt><trkpt lat="46.1684516" lon="9.8595747"><ele>297.0</ele><time>2026-05-03T11:31:26.566Z</time></trkpt><trkpt lat="46.1683751" lon="9.8595121"><ele>297.0</ele><time>2026-05-03T11:31:27.565Z</time></trkpt><trkpt lat="46.1683171" lon="9.8594116"><ele>297.0</ele><time>2026-05-03T11:31:28.565Z</time></trkpt><trkpt lat="46.1682726" lon="9.8592676"><ele>297.0</ele><time>2026-05-03T11:31:29.569Z</time></trkpt><trkpt lat="46.1682381" lon="9.8590873"><ele>297.0</ele><time>2026-05-03T11:31:30.565Z</time></trkpt><trkpt lat="46.1682001" lon="9.8589046"><ele>296.0</ele><time>2026-05-03T11:31:31.597Z</time></trkpt><trkpt lat="46.1681511" lon="9.8587238"><ele>295.0</ele><time>2026-05-03T11:31:32.594Z</time></trkpt><trkpt lat="46.1680932" lon="9.8585412"><ele>294.0</ele><time>2026-05-03T11:31:33.574Z</time></trkpt><trkpt lat="46.1680326" lon="9.8583648"><ele>293.0</ele><time>2026-05-03T11:31:34.569Z</time></trkpt><trkpt lat="46.1679727" lon="9.8581935"><ele>293.0</ele><time>2026-05-03T11:31:35.572Z</time></trkpt><trkpt lat="46.1679114" lon="9.858022"><ele>293.0</ele><time>2026-05-03T11:31:36.573Z</time></trkpt><trkpt lat="46.1678477" lon="9.8578513"><ele>293.0</ele><time>2026-05-03T11:31:37.573Z</time></trkpt><trkpt lat="46.1677885" lon="9.8576821"><ele>293.0</ele><time>2026-05-03T11:31:38.575Z</time></trkpt><trkpt lat="46.1677241" lon="9.8575028"><ele>293.33333333333337</ele><time>2026-05-03T11:31:39.578Z</time></trkpt><trkpt lat="46.16765" lon="9.857313"><ele>293.6666666666667</ele><time>2026-05-03T11:31:40.565Z</time></trkpt><trkpt lat="46.1675618" lon="9.8571004"><ele>294.0</ele><time>2026-05-03T11:31:41.573Z</time></trkpt><trkpt lat="46.1674818" lon="9.8568835"><ele>293.6666666666667</ele><time>2026-05-03T11:31:42.566Z</time></trkpt><trkpt lat="46.1674002" lon="9.856686"><ele>293.33333333333337</ele><time>2026-05-03T11:31:43.571Z</time></trkpt><trkpt lat="46.1673262" lon="9.8564688"><ele>293.0</ele><time>2026-05-03T11:31:44.568Z</time></trkpt><trkpt lat="46.1672428" lon="9.8562393"><ele>292.6666666666667</ele><time>2026-05-03T11:31:45.572Z</time></trkpt><trkpt lat="46.1671659" lon="9.8560312"><ele>292.3333333333333</ele><time>2026-05-03T11:31:46.568Z</time></trkpt><trkpt lat="46.1670978" lon="9.8558374"><ele>292.0</ele><time>2026-05-03T11:31:47.572Z</time></trkpt><trkpt lat="46.1670392" lon="9.8556489"><ele>291.66666666666663</ele><time>2026-05-03T11:31:48.568Z</time></trkpt><trkpt lat="46.1669819" lon="9.8554586"><ele>291.3333333333333</ele><time>2026-05-03T11:31:49.567Z</time></trkpt><trkpt lat="46.1669203" lon="9.8552411"><ele>291.0</ele><time>2026-05-03T11:31:50.564Z</time></trkpt><trkpt lat="46.1668534" lon="9.8550308"><ele>291.0</ele><time>2026-05-03T11:31:51.59Z</time></trkpt><trkpt lat="46.1668007" lon="9.8548007"><ele>291.0</ele><time>2026-05-03T11:31:52.567Z</time></trkpt><trkpt lat="46.166742" lon="9.8545723"><ele>291.0</ele><time>2026-05-03T11:31:53.572Z</time></trkpt><trkpt lat="46.1666792" lon="9.8543346"><ele>290.6666666666667</ele><time>2026-05-03T11:31:54.565Z</time></trkpt><trkpt lat="46.1666026" lon="9.8541109"><ele>290.33333333333337</ele><time>2026-05-03T11:31:55.576Z</time></trkpt><trkpt lat="46.1665437" lon="9.8539015"><ele>290.0</ele><time>2026-05-03T11:31:56.569Z</time></trkpt><trkpt lat="46.1664977" lon="9.8536947"><ele>290.0</ele><time>2026-05-03T11:31:57.562Z</time></trkpt><trkpt lat="46.1664335" lon="9.8534923"><ele>290.0</ele><time>2026-05-03T11:31:58.566Z</time></trkpt><trkpt lat="46.1663832" lon="9.853298"><ele>290.0</ele><time>2026-05-03T11:31:59.571Z</time></trkpt><trkpt lat="46.1663285" lon="9.8531"><ele>290.0</ele><time>2026-05-03T11:32:00.563Z</time></trkpt><trkpt lat="46.1662777" lon="9.8529088"><ele>289.0</ele><time>2026-05-03T11:32:01.569Z</time></trkpt><trkpt lat="46.1662318" lon="9.8527047"><ele>288.0</ele><time>2026-05-03T11:32:02.563Z</time></trkpt><trkpt lat="46.1661848" lon="9.8524982"><ele>287.0</ele><time>2026-05-03T11:32:03.568Z</time></trkpt><trkpt lat="46.1661362" lon="9.8522903"><ele>286.6666666666667</ele><time>2026-05-03T11:32:04.574Z</time></trkpt><trkpt lat="46.1660816" lon="9.8520798"><ele>286.3333333333333</ele><time>2026-05-03T11:32:05.568Z</time></trkpt><trkpt lat="46.1660075" lon="9.8518613"><ele>286.0</ele><time>2026-05-03T11:32:06.59Z</time></trkpt><trkpt lat="46.1659436" lon="9.8516339"><ele>286.0</ele><time>2026-05-03T11:32:07.592Z</time></trkpt><trkpt lat="46.1658674" lon="9.8513869"><ele>286.0</ele><time>2026-05-03T11:32:08.586Z</time></trkpt><trkpt lat="46.1658072" lon="9.8511207"><ele>286.0</ele><time>2026-05-03T11:32:09.605Z</time></trkpt><trkpt lat="46.1657399" lon="9.8508566"><ele>286.3333333333333</ele><time>2026-05-03T11:32:10.571Z</time></trkpt><trkpt lat="46.1656754" lon="9.850615"><ele>286.6666666666667</ele><time>2026-05-03T11:32:11.602Z</time></trkpt><trkpt lat="46.1656079" lon="9.8503796"><ele>287.0</ele><time>2026-05-03T11:32:12.593Z</time></trkpt><trkpt lat="46.1655476" lon="9.850151"><ele>286.33333333333337</ele><time>2026-05-03T11:32:13.597Z</time></trkpt><trkpt lat="46.1654869" lon="9.849917"><ele>285.6666666666667</ele><time>2026-05-03T11:32:14.591Z</time></trkpt><trkpt lat="46.1654285" lon="9.8496905"><ele>285.0</ele><time>2026-05-03T11:32:15.574Z</time></trkpt><trkpt lat="46.165373" lon="9.8494524"><ele>284.6666666666667</ele><time>2026-05-03T11:32:16.568Z</time></trkpt><trkpt lat="46.1653131" lon="9.8492222"><ele>284.33333333333337</ele><time>2026-05-03T11:32:17.572Z</time></trkpt><trkpt lat="46.1652421" lon="9.8489908"><ele>284.0</ele><time>2026-05-03T11:32:18.573Z</time></trkpt><trkpt lat="46.1651721" lon="9.8487522"><ele>284.0</ele><time>2026-05-03T11:32:19.597Z</time></trkpt><trkpt lat="46.1650968" lon="9.8484805"><ele>284.0</ele><time>2026-05-03T11:32:20.57Z</time></trkpt><trkpt lat="46.1650156" lon="9.8481816"><ele>284.0</ele><time>2026-05-03T11:32:21.578Z</time></trkpt><trkpt lat="46.1649421" lon="9.8478918"><ele>284.6666666666667</ele><time>2026-05-03T11:32:22.595Z</time></trkpt><trkpt lat="46.1648629" lon="9.8476187"><ele>285.3333333333333</ele><time>2026-05-03T11:32:23.606Z</time></trkpt><trkpt lat="46.1647963" lon="9.8473563"><ele>286.0</ele><time>2026-05-03T11:32:24.601Z</time></trkpt><trkpt lat="46.1647262" lon="9.8471039"><ele>286.0</ele><time>2026-05-03T11:32:25.619Z</time></trkpt><trkpt lat="46.1646601" lon="9.8468608"><ele>286.0</ele><time>2026-05-03T11:32:26.611Z</time></trkpt><trkpt lat="46.1646134" lon="9.846634"><ele>286.0</ele><time>2026-05-03T11:32:27.584Z</time></trkpt><trkpt lat="46.1645606" lon="9.8464087"><ele>286.3333333333333</ele><time>2026-05-03T11:32:28.587Z</time></trkpt><trkpt lat="46.1644922" lon="9.8461749"><ele>286.6666666666667</ele><time>2026-05-03T11:32:29.591Z</time></trkpt><trkpt lat="46.1644491" lon="9.845943"><ele>287.0</ele><time>2026-05-03T11:32:30.585Z</time></trkpt><trkpt lat="46.1644184" lon="9.8457153"><ele>287.33333333333337</ele><time>2026-05-03T11:32:31.591Z</time></trkpt><trkpt lat="46.1643854" lon="9.8454905"><ele>287.6666666666667</ele><time>2026-05-03T11:32:32.584Z</time></trkpt><trkpt lat="46.1643868" lon="9.8452606"><ele>288.0</ele><time>2026-05-03T11:32:33.588Z</time></trkpt><trkpt lat="46.1644137" lon="9.8450523"><ele>287.0</ele><time>2026-05-03T11:32:34.586Z</time></trkpt><trkpt lat="46.1644262" lon="9.844841"><ele>286.0</ele><time>2026-05-03T11:32:35.592Z</time></trkpt><trkpt lat="46.1644026" lon="9.8446154"><ele>285.0</ele><time>2026-05-03T11:32:36.588Z</time></trkpt><trkpt lat="46.1643671" lon="9.8443871"><ele>286.3333333333333</ele><time>2026-05-03T11:32:37.589Z</time></trkpt><trkpt lat="46.1642971" lon="9.8441732"><ele>287.66666666666663</ele><time>2026-05-03T11:32:38.584Z</time></trkpt><trkpt lat="46.1642218" lon="9.8439545"><ele>289.0</ele><time>2026-05-03T11:32:39.582Z</time></trkpt><trkpt lat="46.1641399" lon="9.8437404"><ele>289.0</ele><time>2026-05-03T11:32:40.597Z</time></trkpt><trkpt lat="46.1640653" lon="9.8435522"><ele>289.0</ele><time>2026-05-03T11:32:41.584Z</time></trkpt><trkpt lat="46.1639656" lon="9.8433772"><ele>289.0</ele><time>2026-05-03T11:32:42.589Z</time></trkpt><trkpt lat="46.1638894" lon="9.8431933"><ele>289.25</ele><time>2026-05-03T11:32:43.602Z</time></trkpt><trkpt lat="46.1637963" lon="9.8430261"><ele>289.5</ele><time>2026-05-03T11:32:44.584Z</time></trkpt><trkpt lat="46.1637155" lon="9.8428491"><ele>289.75</ele><time>2026-05-03T11:32:45.585Z</time></trkpt><trkpt lat="46.1636344" lon="9.8426791"><ele>290.0</ele><time>2026-05-03T11:32:46.585Z</time></trkpt><trkpt lat="46.1635585" lon="9.8425165"><ele>290.0</ele><time>2026-05-03T11:32:47.585Z</time></trkpt><trkpt lat="46.1634914" lon="9.8423454"><ele>290.0</ele><time>2026-05-03T11:32:48.583Z</time></trkpt><trkpt lat="46.1634316" lon="9.8421618"><ele>290.0</ele><time>2026-05-03T11:32:49.585Z</time></trkpt><trkpt lat="46.1633645" lon="9.8419643"><ele>290.0</ele><time>2026-05-03T11:32:50.583Z</time></trkpt><trkpt lat="46.1633124" lon="9.8417555"><ele>291.33333333333337</ele><time>2026-05-03T11:32:51.588Z</time></trkpt><trkpt lat="46.1632585" lon="9.8415546"><ele>292.6666666666667</ele><time>2026-05-03T11:32:52.585Z</time></trkpt><trkpt lat="46.1631939" lon="9.841317"><ele>294.0</ele><time>2026-05-03T11:32:53.586Z</time></trkpt><trkpt lat="46.1631235" lon="9.841055"><ele>289.6666666666667</ele><time>2026-05-03T11:32:54.58Z</time></trkpt><trkpt lat="46.1630624" lon="9.8407768"><ele>285.33333333333337</ele><time>2026-05-03T11:32:55.591Z</time></trkpt><trkpt lat="46.1630096" lon="9.8404865"><ele>281.0</ele><time>2026-05-03T11:32:56.581Z</time></trkpt><trkpt lat="46.1629559" lon="9.8402138"><ele>281.6666666666667</ele><time>2026-05-03T11:32:57.588Z</time></trkpt><trkpt lat="46.1628997" lon="9.8399427"><ele>282.3333333333333</ele><time>2026-05-03T11:32:58.59Z</time></trkpt><trkpt lat="46.1628504" lon="9.8396689"><ele>283.0</ele><time>2026-05-03T11:32:59.592Z</time></trkpt><trkpt lat="46.1627911" lon="9.8393972"><ele>283.3333333333333</ele><time>2026-05-03T11:33:00.585Z</time></trkpt><trkpt lat="46.1627415" lon="9.839126"><ele>283.6666666666667</ele><time>2026-05-03T11:33:01.584Z</time></trkpt><trkpt lat="46.1626873" lon="9.8388423"><ele>284.0</ele><time>2026-05-03T11:33:02.581Z</time></trkpt><trkpt lat="46.1626309" lon="9.8385592"><ele>284.6666666666667</ele><time>2026-05-03T11:33:03.607Z</time></trkpt><trkpt lat="46.1625675" lon="9.8382702"><ele>285.3333333333333</ele><time>2026-05-03T11:33:04.582Z</time></trkpt><trkpt lat="46.1625139" lon="9.837981"><ele>286.0</ele><time>2026-05-03T11:33:05.586Z</time></trkpt><trkpt lat="46.1624567" lon="9.8376922"><ele>286.3333333333333</ele><time>2026-05-03T11:33:06.615Z</time></trkpt><trkpt lat="46.1624075" lon="9.8373971"><ele>286.6666666666667</ele><time>2026-05-03T11:33:07.611Z</time></trkpt><trkpt lat="46.1623503" lon="9.837103"><ele>287.0</ele><time>2026-05-03T11:33:08.616Z</time></trkpt><trkpt lat="46.1622863" lon="9.8368129"><ele>285.0</ele><time>2026-05-03T11:33:09.615Z</time></trkpt><trkpt lat="46.1622259" lon="9.8365142"><ele>283.0</ele><time>2026-05-03T11:33:10.584Z</time></trkpt><trkpt lat="46.162171" lon="9.8362147"><ele>281.0</ele><time>2026-05-03T11:33:11.61Z</time></trkpt><trkpt lat="46.1621206" lon="9.835927"><ele>281.0</ele><time>2026-05-03T11:33:12.606Z</time></trkpt><trkpt lat="46.1620761" lon="9.835662"><ele>281.0</ele><time>2026-05-03T11:33:13.592Z</time></trkpt><trkpt lat="46.1620289" lon="9.8354114"><ele>281.0</ele><time>2026-05-03T11:33:14.589Z</time></trkpt><trkpt lat="46.1619801" lon="9.8351655"><ele>281.33333333333337</ele><time>2026-05-03T11:33:15.587Z</time></trkpt><trkpt lat="46.161943" lon="9.8349196"><ele>281.6666666666667</ele><time>2026-05-03T11:33:16.592Z</time></trkpt><trkpt lat="46.1619082" lon="9.8346814"><ele>282.0</ele><time>2026-05-03T11:33:17.606Z</time></trkpt><trkpt lat="46.1618902" lon="9.8344447"><ele>281.6666666666667</ele><time>2026-05-03T11:33:18.614Z</time></trkpt><trkpt lat="46.1618741" lon="9.8342155"><ele>281.33333333333337</ele><time>2026-05-03T11:33:19.614Z</time></trkpt><trkpt lat="46.1618618" lon="9.8339797"><ele>281.0</ele><time>2026-05-03T11:33:20.619Z</time></trkpt><trkpt lat="46.161846" lon="9.833728"><ele>281.0</ele><time>2026-05-03T11:33:21.609Z</time></trkpt><trkpt lat="46.1618373" lon="9.8334749"><ele>281.0</ele><time>2026-05-03T11:33:22.596Z</time></trkpt><trkpt lat="46.1618417" lon="9.8332222"><ele>281.0</ele><time>2026-05-03T11:33:23.611Z</time></trkpt><trkpt lat="46.1618379" lon="9.8329691"><ele>280.33333333333337</ele><time>2026-05-03T11:33:24.593Z</time></trkpt><trkpt lat="46.1618279" lon="9.8327273"><ele>279.6666666666667</ele><time>2026-05-03T11:33:25.596Z</time></trkpt><trkpt lat="46.161839" lon="9.8324965"><ele>279.0</ele><time>2026-05-03T11:33:26.593Z</time></trkpt><trkpt lat="46.1618382" lon="9.8322718"><ele>278.6666666666667</ele><time>2026-05-03T11:33:27.59Z</time></trkpt><trkpt lat="46.1618487" lon="9.8320483"><ele>278.33333333333337</ele><time>2026-05-03T11:33:28.59Z</time></trkpt><trkpt lat="46.1618496" lon="9.8318288"><ele>278.0</ele><time>2026-05-03T11:33:29.588Z</time></trkpt><trkpt lat="46.1618473" lon="9.8316198"><ele>277.75</ele><time>2026-05-03T11:33:30.609Z</time></trkpt><trkpt lat="46.1618523" lon="9.8314242"><ele>277.5</ele><time>2026-05-03T11:33:31.587Z</time></trkpt><trkpt lat="46.1618608" lon="9.8312299"><ele>277.25</ele><time>2026-05-03T11:33:32.591Z</time></trkpt><trkpt lat="46.1618583" lon="9.831051"><ele>277.0</ele><time>2026-05-03T11:33:33.585Z</time></trkpt><trkpt lat="46.1618529" lon="9.8308863"><ele>277.4</ele><time>2026-05-03T11:33:34.59Z</time></trkpt><trkpt lat="46.1618558" lon="9.8307204"><ele>277.79999999999995</ele><time>2026-05-03T11:33:35.585Z</time></trkpt><trkpt lat="46.1618605" lon="9.8305737"><ele>278.2</ele><time>2026-05-03T11:33:36.585Z</time></trkpt><trkpt lat="46.1618762" lon="9.8304422"><ele>278.59999999999997</ele><time>2026-05-03T11:33:37.586Z</time></trkpt><trkpt lat="46.1618948" lon="9.8303214"><ele>279.0</ele><time>2026-05-03T11:33:38.585Z</time></trkpt><trkpt lat="46.1619172" lon="9.8302067"><ele>279.3333333333333</ele><time>2026-05-03T11:33:39.611Z</time></trkpt><trkpt lat="46.1619415" lon="9.8301059"><ele>279.6666666666667</ele><time>2026-05-03T11:33:40.606Z</time></trkpt><trkpt lat="46.161973" lon="9.8300163"><ele>280.0</ele><time>2026-05-03T11:33:41.583Z</time></trkpt><trkpt lat="46.1620245" lon="9.8299298"><ele>280.33333333333337</ele><time>2026-05-03T11:33:42.587Z</time></trkpt><trkpt lat="46.1620808" lon="9.8298324"><ele>280.6666666666667</ele><time>2026-05-03T11:33:43.58Z</time></trkpt><trkpt lat="46.1620982" lon="9.829729"><ele>281.0</ele><time>2026-05-03T11:33:44.59Z</time></trkpt><trkpt lat="46.1620663" lon="9.8296238"><ele>281.0</ele><time>2026-05-03T11:33:45.581Z</time></trkpt><trkpt lat="46.1620079" lon="9.8295297"><ele>281.0</ele><time>2026-05-03T11:33:46.586Z</time></trkpt><trkpt lat="46.1619477" lon="9.8294192"><ele>281.0</ele><time>2026-05-03T11:33:47.58Z</time></trkpt><trkpt lat="46.1619097" lon="9.8292737"><ele>281.0</ele><time>2026-05-03T11:33:48.59Z</time></trkpt><trkpt lat="46.1618867" lon="9.8291113"><ele>281.0</ele><time>2026-05-03T11:33:49.586Z</time></trkpt><trkpt lat="46.161867" lon="9.8289296"><ele>280.6666666666667</ele><time>2026-05-03T11:33:50.591Z</time></trkpt><trkpt lat="46.1618552" lon="9.8287282"><ele>280.3333333333333</ele><time>2026-05-03T11:33:51.586Z</time></trkpt><trkpt lat="46.1618523" lon="9.8284888"><ele>280.0</ele><time>2026-05-03T11:33:52.599Z</time></trkpt><trkpt lat="46.1618493" lon="9.8282521"><ele>280.0</ele><time>2026-05-03T11:33:53.589Z</time></trkpt><trkpt lat="46.1618482" lon="9.828006"><ele>280.0</ele><time>2026-05-03T11:33:54.588Z</time></trkpt><trkpt lat="46.1618441" lon="9.8277587"><ele>280.0</ele><time>2026-05-03T11:33:55.597Z</time></trkpt><trkpt lat="46.1618408" lon="9.8275092"><ele>279.66666666666663</ele><time>2026-05-03T11:33:56.585Z</time></trkpt><trkpt lat="46.161839" lon="9.8272369"><ele>279.3333333333333</ele><time>2026-05-03T11:33:57.59Z</time></trkpt><trkpt lat="46.161835" lon="9.8269412"><ele>279.0</ele><time>2026-05-03T11:33:58.586Z</time></trkpt><trkpt lat="46.1618261" lon="9.8266153"><ele>279.0</ele><time>2026-05-03T11:33:59.583Z</time></trkpt><trkpt lat="46.1618268" lon="9.8262856"><ele>279.0</ele><time>2026-05-03T11:34:00.59Z</time></trkpt><trkpt lat="46.1618373" lon="9.8259462"><ele>279.3333333333333</ele><time>2026-05-03T11:34:01.588Z</time></trkpt><trkpt lat="46.1618298" lon="9.8256263"><ele>279.66666666666663</ele><time>2026-05-03T11:34:02.586Z</time></trkpt><trkpt lat="46.1618205" lon="9.8252982"><ele>280.0</ele><time>2026-05-03T11:34:03.588Z</time></trkpt><trkpt lat="46.1618161" lon="9.8249539"><ele>280.0</ele><time>2026-05-03T11:34:04.589Z</time></trkpt><trkpt lat="46.161805" lon="9.8246177"><ele>280.0</ele><time>2026-05-03T11:34:05.585Z</time></trkpt><trkpt lat="46.1617997" lon="9.824281"><ele>279.0</ele><time>2026-05-03T11:34:06.587Z</time></trkpt><trkpt lat="46.1617983" lon="9.8239413"><ele>278.0</ele><time>2026-05-03T11:34:07.585Z</time></trkpt><trkpt lat="46.161801" lon="9.8235937"><ele>278.0</ele><time>2026-05-03T11:34:08.59Z</time></trkpt><trkpt lat="46.1618026" lon="9.8232447"><ele>278.0</ele><time>2026-05-03T11:34:09.591Z</time></trkpt><trkpt lat="46.1618045" lon="9.8228927"><ele>278.5</ele><time>2026-05-03T11:34:10.614Z</time></trkpt><trkpt lat="46.1617948" lon="9.8225315"><ele>279.0</ele><time>2026-05-03T11:34:11.61Z</time></trkpt><trkpt lat="46.1617861" lon="9.8221603"><ele>279.0</ele><time>2026-05-03T11:34:12.63Z</time></trkpt><trkpt lat="46.1617785" lon="9.8217897"><ele>279.0</ele><time>2026-05-03T11:34:13.633Z</time></trkpt><trkpt lat="46.1617903" lon="9.8214308"><ele>279.0</ele><time>2026-05-03T11:34:14.603Z</time></trkpt><trkpt lat="46.1618021" lon="9.8210921"><ele>279.0</ele><time>2026-05-03T11:34:15.612Z</time></trkpt><trkpt lat="46.161812" lon="9.8207443"><ele>279.0</ele><time>2026-05-03T11:34:16.608Z</time></trkpt><trkpt lat="46.1618113" lon="9.8204173"><ele>279.0</ele><time>2026-05-03T11:34:17.612Z</time></trkpt><trkpt lat="46.161815" lon="9.8200869"><ele>279.0</ele><time>2026-05-03T11:34:18.611Z</time></trkpt><trkpt lat="46.1618193" lon="9.8197739"><ele>279.0</ele><time>2026-05-03T11:34:19.608Z</time></trkpt><trkpt lat="46.1618298" lon="9.8194568"><ele>279.0</ele><time>2026-05-03T11:34:20.613Z</time></trkpt><trkpt lat="46.161828" lon="9.8191445"><ele>279.0</ele><time>2026-05-03T11:34:21.61Z</time></trkpt><trkpt lat="46.1618244" lon="9.8188308"><ele>279.0</ele><time>2026-05-03T11:34:22.613Z</time></trkpt><trkpt lat="46.1618298" lon="9.8185134"><ele>279.0</ele><time>2026-05-03T11:34:23.612Z</time></trkpt><trkpt lat="46.1618357" lon="9.8182033"><ele>278.6666666666667</ele><time>2026-05-03T11:34:24.61Z</time></trkpt><trkpt lat="46.1618388" lon="9.817904"><ele>278.33333333333337</ele><time>2026-05-03T11:34:25.613Z</time></trkpt><trkpt lat="46.1618368" lon="9.8175906"><ele>278.0</ele><time>2026-05-03T11:34:26.614Z</time></trkpt><trkpt lat="46.1618333" lon="9.8172847"><ele>277.6666666666667</ele><time>2026-05-03T11:34:27.61Z</time></trkpt><trkpt lat="46.1618217" lon="9.8169909"><ele>277.3333333333333</ele><time>2026-05-03T11:34:28.609Z</time></trkpt><trkpt lat="46.1618205" lon="9.8166758"><ele>277.0</ele><time>2026-05-03T11:34:29.614Z</time></trkpt><trkpt lat="46.1618233" lon="9.8163591"><ele>277.0</ele><time>2026-05-03T11:34:30.635Z</time></trkpt><trkpt lat="46.1618192" lon="9.8160392"><ele>277.0</ele><time>2026-05-03T11:34:31.609Z</time></trkpt><trkpt lat="46.1618158" lon="9.8157207"><ele>277.0</ele><time>2026-05-03T11:34:32.612Z</time></trkpt><trkpt lat="46.161805" lon="9.8154052"><ele>276.66666666666663</ele><time>2026-05-03T11:34:33.61Z</time></trkpt><trkpt lat="46.1617921" lon="9.8150938"><ele>276.3333333333333</ele><time>2026-05-03T11:34:34.628Z</time></trkpt><trkpt lat="46.1617976" lon="9.8147749"><ele>276.0</ele><time>2026-05-03T11:34:35.609Z</time></trkpt><trkpt lat="46.1617977" lon="9.8144636"><ele>276.0</ele><time>2026-05-03T11:34:36.608Z</time></trkpt><trkpt lat="46.1617971" lon="9.8141429"><ele>276.0</ele><time>2026-05-03T11:34:37.612Z</time></trkpt><trkpt lat="46.1618003" lon="9.8138279"><ele>276.0</ele><time>2026-05-03T11:34:38.61Z</time></trkpt><trkpt lat="46.1618014" lon="9.8135068"><ele>275.6666666666667</ele><time>2026-05-03T11:34:39.632Z</time></trkpt><trkpt lat="46.1617933" lon="9.8131897"><ele>275.33333333333337</ele><time>2026-05-03T11:34:40.61Z</time></trkpt><trkpt lat="46.1617856" lon="9.8128764"><ele>275.0</ele><time>2026-05-03T11:34:41.588Z</time></trkpt><trkpt lat="46.1617763" lon="9.8125685"><ele>275.0</ele><time>2026-05-03T11:34:42.608Z</time></trkpt><trkpt lat="46.1617756" lon="9.8122703"><ele>275.0</ele><time>2026-05-03T11:34:43.61Z</time></trkpt><trkpt lat="46.1617663" lon="9.8119785"><ele>275.0</ele><time>2026-05-03T11:34:44.611Z</time></trkpt><trkpt lat="46.1617704" lon="9.8117029"><ele>275.33333333333337</ele><time>2026-05-03T11:34:45.585Z</time></trkpt><trkpt lat="46.161779" lon="9.8114208"><ele>275.6666666666667</ele><time>2026-05-03T11:34:46.614Z</time></trkpt><trkpt lat="46.1617796" lon="9.8111579"><ele>276.0</ele><time>2026-05-03T11:34:47.61Z</time></trkpt><trkpt lat="46.1617724" lon="9.8108997"><ele>276.0</ele><time>2026-05-03T11:34:48.606Z</time></trkpt><trkpt lat="46.1617694" lon="9.8106368"><ele>276.0</ele><time>2026-05-03T11:34:49.61Z</time></trkpt><trkpt lat="46.1617752" lon="9.8103715"><ele>276.0</ele><time>2026-05-03T11:34:50.614Z</time></trkpt><trkpt lat="46.1617778" lon="9.8101236"><ele>276.0</ele><time>2026-05-03T11:34:51.629Z</time></trkpt><trkpt lat="46.1617708" lon="9.8098754"><ele>276.0</ele><time>2026-05-03T11:34:52.611Z</time></trkpt><trkpt lat="46.1617738" lon="9.8096158"><ele>276.0</ele><time>2026-05-03T11:34:53.618Z</time></trkpt><trkpt lat="46.1617698" lon="9.8093534"><ele>276.3333333333333</ele><time>2026-05-03T11:34:54.607Z</time></trkpt><trkpt lat="46.1617714" lon="9.8090765"><ele>276.66666666666663</ele><time>2026-05-03T11:34:55.617Z</time></trkpt><trkpt lat="46.1617698" lon="9.8088119"><ele>277.0</ele><time>2026-05-03T11:34:56.612Z</time></trkpt><trkpt lat="46.1617744" lon="9.8085388"><ele>277.0</ele><time>2026-05-03T11:34:57.611Z</time></trkpt><trkpt lat="46.1617649" lon="9.8082679"><ele>277.0</ele><time>2026-05-03T11:34:58.611Z</time></trkpt><trkpt lat="46.1617644" lon="9.8079877"><ele>277.0</ele><time>2026-05-03T11:34:59.611Z</time></trkpt><trkpt lat="46.1617629" lon="9.8077201"><ele>277.0</ele><time>2026-05-03T11:35:00.608Z</time></trkpt><trkpt lat="46.161763" lon="9.8074411"><ele>277.0</ele><time>2026-05-03T11:35:01.611Z</time></trkpt><trkpt lat="46.1617685" lon="9.8071844"><ele>277.0</ele><time>2026-05-03T11:35:02.634Z</time></trkpt><trkpt lat="46.1617699" lon="9.8069548"><ele>276.66666666666663</ele><time>2026-05-03T11:35:03.629Z</time></trkpt><trkpt lat="46.1617605" lon="9.8067208"><ele>276.3333333333333</ele><time>2026-05-03T11:35:04.636Z</time></trkpt><trkpt lat="46.1617648" lon="9.8065045"><ele>276.0</ele><time>2026-05-03T11:35:05.632Z</time></trkpt><trkpt lat="46.1617624" lon="9.8062926"><ele>276.0</ele><time>2026-05-03T11:35:06.628Z</time></trkpt><trkpt lat="46.1617616" lon="9.8060913"><ele>276.0</ele><time>2026-05-03T11:35:07.632Z</time></trkpt><trkpt lat="46.1617658" lon="9.8059075"><ele>276.0</ele><time>2026-05-03T11:35:08.634Z</time></trkpt><trkpt lat="46.1617693" lon="9.8057391"><ele>276.0</ele><time>2026-05-03T11:35:09.626Z</time></trkpt><trkpt lat="46.161781" lon="9.8056179"><ele>275.8333333333333</ele><time>2026-05-03T11:35:10.629Z</time></trkpt><trkpt lat="46.1617952" lon="9.8054787"><ele>275.6666666666667</ele><time>2026-05-03T11:35:12.627Z</time></trkpt><trkpt lat="46.1618353" lon="9.8053843"><ele>275.5</ele><time>2026-05-03T11:35:14.635Z</time></trkpt><trkpt lat="46.1619324" lon="9.8052881"><ele>275.33333333333337</ele><time>2026-05-03T11:35:16.607Z</time></trkpt><trkpt lat="46.1619962" lon="9.8052314"><ele>275.1666666666667</ele><time>2026-05-03T11:35:17.584Z</time></trkpt><trkpt lat="46.1620479" lon="9.8051511"><ele>275.0</ele><time>2026-05-03T11:35:18.602Z</time></trkpt><trkpt lat="46.1620617" lon="9.8050513"><ele>275.0</ele><time>2026-05-03T11:35:19.605Z</time></trkpt><trkpt lat="46.1620309" lon="9.8049492"><ele>275.0</ele><time>2026-05-03T11:35:20.606Z</time></trkpt><trkpt lat="46.1619697" lon="9.8048691"><ele>275.0</ele><time>2026-05-03T11:35:21.611Z</time></trkpt><trkpt lat="46.1618988" lon="9.8047927"><ele>275.0</ele><time>2026-05-03T11:35:22.608Z</time></trkpt><trkpt lat="46.16184" lon="9.8046907"><ele>275.0</ele><time>2026-05-03T11:35:23.588Z</time></trkpt><trkpt lat="46.1617952" lon="9.8045575"><ele>275.0</ele><time>2026-05-03T11:35:24.586Z</time></trkpt><trkpt lat="46.1617666" lon="9.8044154"><ele>275.0</ele><time>2026-05-03T11:35:25.599Z</time></trkpt><trkpt lat="46.1617573" lon="9.8042623"><ele>275.0</ele><time>2026-05-03T11:35:26.608Z</time></trkpt><trkpt lat="46.161753" lon="9.8040982"><ele>275.0</ele><time>2026-05-03T11:35:27.611Z</time></trkpt><trkpt lat="46.1617488" lon="9.8039195"><ele>275.0</ele><time>2026-05-03T11:35:28.611Z</time></trkpt><trkpt lat="46.1617463" lon="9.8037272"><ele>275.0</ele><time>2026-05-03T11:35:29.61Z</time></trkpt><trkpt lat="46.161748" lon="9.8035157"><ele>275.0</ele><time>2026-05-03T11:35:30.606Z</time></trkpt><trkpt lat="46.1617578" lon="9.8032628"><ele>275.0</ele><time>2026-05-03T11:35:31.613Z</time></trkpt><trkpt lat="46.1617569" lon="9.8030152"><ele>275.0</ele><time>2026-05-03T11:35:32.607Z</time></trkpt><trkpt lat="46.1617501" lon="9.8027699"><ele>275.0</ele><time>2026-05-03T11:35:33.612Z</time></trkpt><trkpt lat="46.1617412" lon="9.8025334"><ele>275.0</ele><time>2026-05-03T11:35:34.61Z</time></trkpt><trkpt lat="46.1617386" lon="9.8022966"><ele>275.0</ele><time>2026-05-03T11:35:35.608Z</time></trkpt><trkpt lat="46.1617314" lon="9.8020563"><ele>275.0</ele><time>2026-05-03T11:35:36.61Z</time></trkpt><trkpt lat="46.1617313" lon="9.801838"><ele>275.0</ele><time>2026-05-03T11:35:37.608Z</time></trkpt><trkpt lat="46.1617364" lon="9.8016187"><ele>274.6666666666667</ele><time>2026-05-03T11:35:38.61Z</time></trkpt><trkpt lat="46.161742" lon="9.8013667"><ele>274.3333333333333</ele><time>2026-05-03T11:35:39.603Z</time></trkpt><trkpt lat="46.1617478" lon="9.801097"><ele>274.0</ele><time>2026-05-03T11:35:40.593Z</time></trkpt><trkpt lat="46.1617389" lon="9.8008312"><ele>274.0</ele><time>2026-05-03T11:35:41.589Z</time></trkpt><trkpt lat="46.161741" lon="9.8005743"><ele>274.0</ele><time>2026-05-03T11:35:42.612Z</time></trkpt><trkpt lat="46.1617255" lon="9.8003504"><ele>274.0</ele><time>2026-05-03T11:35:43.612Z</time></trkpt><trkpt lat="46.1617247" lon="9.800128"><ele>274.25</ele><time>2026-05-03T11:35:44.609Z</time></trkpt><trkpt lat="46.1617327" lon="9.7999109"><ele>274.5</ele><time>2026-05-03T11:35:45.612Z</time></trkpt><trkpt lat="46.1617307" lon="9.7996947"><ele>274.75</ele><time>2026-05-03T11:35:46.633Z</time></trkpt><trkpt lat="46.1617207" lon="9.7994886"><ele>275.0</ele><time>2026-05-03T11:35:47.609Z</time></trkpt><trkpt lat="46.1617173" lon="9.7992713"><ele>275.33333333333337</ele><time>2026-05-03T11:35:48.613Z</time></trkpt><trkpt lat="46.1617134" lon="9.7990459"><ele>275.6666666666667</ele><time>2026-05-03T11:35:49.611Z</time></trkpt><trkpt lat="46.1617198" lon="9.7988107"><ele>276.0</ele><time>2026-05-03T11:35:50.608Z</time></trkpt><trkpt lat="46.1617239" lon="9.7985835"><ele>276.0</ele><time>2026-05-03T11:35:51.588Z</time></trkpt><trkpt lat="46.1617269" lon="9.7983449"><ele>276.0</ele><time>2026-05-03T11:35:52.611Z</time></trkpt><trkpt lat="46.1617177" lon="9.7981169"><ele>276.0</ele><time>2026-05-03T11:35:53.59Z</time></trkpt><trkpt lat="46.1617152" lon="9.7978877"><ele>276.3333333333333</ele><time>2026-05-03T11:35:54.633Z</time></trkpt><trkpt lat="46.1617099" lon="9.7976509"><ele>276.66666666666663</ele><time>2026-05-03T11:35:55.637Z</time></trkpt><trkpt lat="46.1617057" lon="9.7974175"><ele>277.0</ele><time>2026-05-03T11:35:56.632Z</time></trkpt><trkpt lat="46.1617078" lon="9.7971888"><ele>277.0</ele><time>2026-05-03T11:35:57.632Z</time></trkpt><trkpt lat="46.1617116" lon="9.7969453"><ele>277.0</ele><time>2026-05-03T11:35:58.615Z</time></trkpt><trkpt lat="46.1617042" lon="9.7967079"><ele>277.0</ele><time>2026-05-03T11:35:59.637Z</time></trkpt><trkpt lat="46.1617026" lon="9.7964772"><ele>276.66666666666663</ele><time>2026-05-03T11:36:00.634Z</time></trkpt><trkpt lat="46.1617076" lon="9.7962332"><ele>276.3333333333333</ele><time>2026-05-03T11:36:01.608Z</time></trkpt><trkpt lat="46.1617069" lon="9.795992"><ele>276.0</ele><time>2026-05-03T11:36:02.633Z</time></trkpt><trkpt lat="46.1617032" lon="9.7957262"><ele>275.6666666666667</ele><time>2026-05-03T11:36:03.63Z</time></trkpt><trkpt lat="46.1617045" lon="9.7954693"><ele>275.33333333333337</ele><time>2026-05-03T11:36:04.635Z</time></trkpt><trkpt lat="46.1617047" lon="9.7952226"><ele>275.0</ele><time>2026-05-03T11:36:05.612Z</time></trkpt><trkpt lat="46.1616992" lon="9.7949705"><ele>275.0</ele><time>2026-05-03T11:36:06.611Z</time></trkpt><trkpt lat="46.1617007" lon="9.794737"><ele>275.0</ele><time>2026-05-03T11:36:07.607Z</time></trkpt><trkpt lat="46.1617027" lon="9.7944945"><ele>275.0</ele><time>2026-05-03T11:36:08.611Z</time></trkpt><trkpt lat="46.161703" lon="9.7942584"><ele>274.6666666666667</ele><time>2026-05-03T11:36:09.607Z</time></trkpt><trkpt lat="46.1617084" lon="9.7940149"><ele>274.3333333333333</ele><time>2026-05-03T11:36:10.61Z</time></trkpt><trkpt lat="46.1617112" lon="9.7937711"><ele>274.0</ele><time>2026-05-03T11:36:11.607Z</time></trkpt><trkpt lat="46.1617051" lon="9.7935255"><ele>274.0</ele><time>2026-05-03T11:36:12.61Z</time></trkpt><trkpt lat="46.1617048" lon="9.7932782"><ele>274.0</ele><time>2026-05-03T11:36:13.632Z</time></trkpt><trkpt lat="46.1616914" lon="9.7930077"><ele>274.0</ele><time>2026-05-03T11:36:14.628Z</time></trkpt><trkpt lat="46.1616966" lon="9.7927068"><ele>274.3333333333333</ele><time>2026-05-03T11:36:15.635Z</time></trkpt><trkpt lat="46.1617054" lon="9.7924059"><ele>274.6666666666667</ele><time>2026-05-03T11:36:16.631Z</time></trkpt><trkpt lat="46.1617067" lon="9.7920993"><ele>275.0</ele><time>2026-05-03T11:36:17.633Z</time></trkpt><trkpt lat="46.1617104" lon="9.7917949"><ele>275.0</ele><time>2026-05-03T11:36:18.634Z</time></trkpt><trkpt lat="46.1617134" lon="9.7915265"><ele>275.0</ele><time>2026-05-03T11:36:19.632Z</time></trkpt><trkpt lat="46.161706" lon="9.7912648"><ele>275.0</ele><time>2026-05-03T11:36:20.63Z</time></trkpt><trkpt lat="46.1617087" lon="9.7909982"><ele>275.33333333333337</ele><time>2026-05-03T11:36:21.638Z</time></trkpt><trkpt lat="46.1617074" lon="9.7907387"><ele>275.6666666666667</ele><time>2026-05-03T11:36:22.609Z</time></trkpt><trkpt lat="46.1616971" lon="9.7904881"><ele>276.0</ele><time>2026-05-03T11:36:23.614Z</time></trkpt><trkpt lat="46.1616627" lon="9.7902498"><ele>276.3333333333333</ele><time>2026-05-03T11:36:24.651Z</time></trkpt><trkpt lat="46.1616139" lon="9.7900192"><ele>276.66666666666663</ele><time>2026-05-03T11:36:25.657Z</time></trkpt><trkpt lat="46.1615472" lon="9.7897879"><ele>277.0</ele><time>2026-05-03T11:36:26.583Z</time></trkpt><trkpt lat="46.161482" lon="9.7895631"><ele>276.0</ele><time>2026-05-03T11:36:27.587Z</time></trkpt><trkpt lat="46.1614371" lon="9.7893448"><ele>275.0</ele><time>2026-05-03T11:36:28.587Z</time></trkpt><trkpt lat="46.1613918" lon="9.7891256"><ele>274.0</ele><time>2026-05-03T11:36:29.588Z</time></trkpt><trkpt lat="46.1613344" lon="9.788941"><ele>274.0</ele><time>2026-05-03T11:36:30.592Z</time></trkpt><trkpt lat="46.1612918" lon="9.7887369"><ele>274.0</ele><time>2026-05-03T11:36:31.585Z</time></trkpt><trkpt lat="46.1612511" lon="9.788523"><ele>274.0</ele><time>2026-05-03T11:36:32.588Z</time></trkpt><trkpt lat="46.1611922" lon="9.7882871"><ele>274.0</ele><time>2026-05-03T11:36:33.587Z</time></trkpt><trkpt lat="46.1611369" lon="9.788035"><ele>274.0</ele><time>2026-05-03T11:36:34.594Z</time></trkpt><trkpt lat="46.1610761" lon="9.7877721"><ele>274.0</ele><time>2026-05-03T11:36:35.586Z</time></trkpt><trkpt lat="46.1610291" lon="9.7874996"><ele>275.0</ele><time>2026-05-03T11:36:36.586Z</time></trkpt><trkpt lat="46.16097" lon="9.7872059"><ele>276.0</ele><time>2026-05-03T11:36:37.578Z</time></trkpt><trkpt lat="46.1608952" lon="9.7868872"><ele>277.0</ele><time>2026-05-03T11:36:38.589Z</time></trkpt><trkpt lat="46.160831" lon="9.7865684"><ele>276.66666666666663</ele><time>2026-05-03T11:36:39.585Z</time></trkpt><trkpt lat="46.1607618" lon="9.7862602"><ele>276.3333333333333</ele><time>2026-05-03T11:36:40.589Z</time></trkpt><trkpt lat="46.160692" lon="9.7859642"><ele>276.0</ele><time>2026-05-03T11:36:41.58Z</time></trkpt><trkpt lat="46.1606216" lon="9.7856739"><ele>276.0</ele><time>2026-05-03T11:36:42.587Z</time></trkpt><trkpt lat="46.160565" lon="9.785387"><ele>276.0</ele><time>2026-05-03T11:36:43.586Z</time></trkpt><trkpt lat="46.1605038" lon="9.7851074"><ele>276.0</ele><time>2026-05-03T11:36:44.585Z</time></trkpt><trkpt lat="46.1604421" lon="9.7848441"><ele>276.6666666666667</ele><time>2026-05-03T11:36:45.585Z</time></trkpt><trkpt lat="46.1603954" lon="9.7845955"><ele>277.33333333333337</ele><time>2026-05-03T11:36:46.587Z</time></trkpt><trkpt lat="46.1603489" lon="9.7843548"><ele>278.0</ele><time>2026-05-03T11:36:47.588Z</time></trkpt><trkpt lat="46.1602959" lon="9.784123"><ele>278.6666666666667</ele><time>2026-05-03T11:36:48.581Z</time></trkpt><trkpt lat="46.1602491" lon="9.7838938"><ele>279.3333333333333</ele><time>2026-05-03T11:36:49.593Z</time></trkpt><trkpt lat="46.1602016" lon="9.7836643"><ele>280.0</ele><time>2026-05-03T11:36:50.586Z</time></trkpt><trkpt lat="46.1601393" lon="9.7834492"><ele>280.66666666666663</ele><time>2026-05-03T11:36:51.589Z</time></trkpt><trkpt lat="46.16009" lon="9.7832152"><ele>281.3333333333333</ele><time>2026-05-03T11:36:52.59Z</time></trkpt><trkpt lat="46.1600412" lon="9.7829694"><ele>282.0</ele><time>2026-05-03T11:36:53.59Z</time></trkpt><trkpt lat="46.1599963" lon="9.7827278"><ele>283.3333333333333</ele><time>2026-05-03T11:36:54.584Z</time></trkpt><trkpt lat="46.1599571" lon="9.7824811"><ele>284.66666666666663</ele><time>2026-05-03T11:36:55.593Z</time></trkpt><trkpt lat="46.1599154" lon="9.7822269"><ele>286.0</ele><time>2026-05-03T11:36:56.584Z</time></trkpt><trkpt lat="46.1598581" lon="9.7819482"><ele>283.0</ele><time>2026-05-03T11:36:57.586Z</time></trkpt><trkpt lat="46.1597904" lon="9.7816632"><ele>280.0</ele><time>2026-05-03T11:36:58.584Z</time></trkpt><trkpt lat="46.1597156" lon="9.7813581"><ele>277.0</ele><time>2026-05-03T11:36:59.587Z</time></trkpt><trkpt lat="46.1596499" lon="9.7810319"><ele>278.0</ele><time>2026-05-03T11:37:00.604Z</time></trkpt><trkpt lat="46.1595934" lon="9.7807034"><ele>279.0</ele><time>2026-05-03T11:37:01.589Z</time></trkpt><trkpt lat="46.1595218" lon="9.780386"><ele>279.5</ele><time>2026-05-03T11:37:02.585Z</time></trkpt><trkpt lat="46.1594428" lon="9.780073"><ele>280.0</ele><time>2026-05-03T11:37:03.588Z</time></trkpt><trkpt lat="46.1593859" lon="9.7797655"><ele>280.0</ele><time>2026-05-03T11:37:04.586Z</time></trkpt><trkpt lat="46.1592995" lon="9.7794716"><ele>280.0</ele><time>2026-05-03T11:37:05.592Z</time></trkpt><trkpt lat="46.1592269" lon="9.7791895"><ele>280.0</ele><time>2026-05-03T11:37:06.584Z</time></trkpt><trkpt lat="46.159161" lon="9.778912"><ele>279.66666666666663</ele><time>2026-05-03T11:37:07.587Z</time></trkpt><trkpt lat="46.1590925" lon="9.7786326"><ele>279.3333333333333</ele><time>2026-05-03T11:37:08.586Z</time></trkpt><trkpt lat="46.1590311" lon="9.778364"><ele>279.0</ele><time>2026-05-03T11:37:09.586Z</time></trkpt><trkpt lat="46.1589792" lon="9.7780907"><ele>277.6666666666667</ele><time>2026-05-03T11:37:10.591Z</time></trkpt><trkpt lat="46.1589149" lon="9.777824"><ele>276.33333333333337</ele><time>2026-05-03T11:37:11.587Z</time></trkpt><trkpt lat="46.1588533" lon="9.7775643"><ele>275.0</ele><time>2026-05-03T11:37:12.586Z</time></trkpt><trkpt lat="46.1587855" lon="9.7773045"><ele>275.0</ele><time>2026-05-03T11:37:13.589Z</time></trkpt><trkpt lat="46.1587334" lon="9.7770491"><ele>275.0</ele><time>2026-05-03T11:37:14.584Z</time></trkpt><trkpt lat="46.1586756" lon="9.7767901"><ele>275.0</ele><time>2026-05-03T11:37:15.587Z</time></trkpt><trkpt lat="46.1586244" lon="9.7765334"><ele>276.0</ele><time>2026-05-03T11:37:16.58Z</time></trkpt><trkpt lat="46.1585695" lon="9.7762878"><ele>277.0</ele><time>2026-05-03T11:37:17.59Z</time></trkpt><trkpt lat="46.1585166" lon="9.7760344"><ele>278.0</ele><time>2026-05-03T11:37:18.584Z</time></trkpt><trkpt lat="46.1584616" lon="9.7757855"><ele>278.33333333333337</ele><time>2026-05-03T11:37:19.587Z</time></trkpt><trkpt lat="46.1584101" lon="9.7755195"><ele>278.6666666666667</ele><time>2026-05-03T11:37:20.606Z</time></trkpt><trkpt lat="46.1583629" lon="9.7752512"><ele>279.0</ele><time>2026-05-03T11:37:21.609Z</time></trkpt><trkpt lat="46.1583102" lon="9.7749907"><ele>279.0</ele><time>2026-05-03T11:37:22.584Z</time></trkpt><trkpt lat="46.1582567" lon="9.77472"><ele>279.0</ele><time>2026-05-03T11:37:23.591Z</time></trkpt><trkpt lat="46.1581935" lon="9.7744602"><ele>279.0</ele><time>2026-05-03T11:37:24.59Z</time></trkpt><trkpt lat="46.1581339" lon="9.7741942"><ele>278.3333333333333</ele><time>2026-05-03T11:37:25.589Z</time></trkpt><trkpt lat="46.158062" lon="9.7739325"><ele>277.66666666666663</ele><time>2026-05-03T11:37:26.584Z</time></trkpt><trkpt lat="46.1579977" lon="9.7736823"><ele>277.0</ele><time>2026-05-03T11:37:27.587Z</time></trkpt><trkpt lat="46.1579361" lon="9.7734153"><ele>277.0</ele><time>2026-05-03T11:37:28.591Z</time></trkpt><trkpt lat="46.1578743" lon="9.7731618"><ele>277.0</ele><time>2026-05-03T11:37:29.61Z</time></trkpt><trkpt lat="46.1578351" lon="9.7729121"><ele>277.0</ele><time>2026-05-03T11:37:30.607Z</time></trkpt><trkpt lat="46.1577883" lon="9.7726473"><ele>277.0</ele><time>2026-05-03T11:37:31.593Z</time></trkpt><trkpt lat="46.157744" lon="9.7723827"><ele>277.0</ele><time>2026-05-03T11:37:32.584Z</time></trkpt><trkpt lat="46.1576957" lon="9.7721192"><ele>277.0</ele><time>2026-05-03T11:37:33.609Z</time></trkpt><trkpt lat="46.1576551" lon="9.7718477"><ele>277.0</ele><time>2026-05-03T11:37:34.606Z</time></trkpt><trkpt lat="46.157622" lon="9.7715703"><ele>277.0</ele><time>2026-05-03T11:37:35.608Z</time></trkpt><trkpt lat="46.1576187" lon="9.7713023"><ele>277.0</ele><time>2026-05-03T11:37:36.61Z</time></trkpt><trkpt lat="46.1576194" lon="9.771028"><ele>277.0</ele><time>2026-05-03T11:37:37.608Z</time></trkpt><trkpt lat="46.1576355" lon="9.7707565"><ele>277.0</ele><time>2026-05-03T11:37:38.615Z</time></trkpt><trkpt lat="46.1576632" lon="9.7704682"><ele>277.0</ele><time>2026-05-03T11:37:39.607Z</time></trkpt><trkpt lat="46.1576928" lon="9.7701799"><ele>276.66666666666663</ele><time>2026-05-03T11:37:40.61Z</time></trkpt><trkpt lat="46.1577205" lon="9.769896"><ele>276.3333333333333</ele><time>2026-05-03T11:37:41.607Z</time></trkpt><trkpt lat="46.1577454" lon="9.7696246"><ele>276.0</ele><time>2026-05-03T11:37:42.611Z</time></trkpt><trkpt lat="46.1577811" lon="9.7693299"><ele>275.6666666666667</ele><time>2026-05-03T11:37:43.606Z</time></trkpt><trkpt lat="46.157809" lon="9.7690388"><ele>275.33333333333337</ele><time>2026-05-03T11:37:44.611Z</time></trkpt><trkpt lat="46.1578382" lon="9.768754"><ele>275.0</ele><time>2026-05-03T11:37:45.607Z</time></trkpt><trkpt lat="46.1578812" lon="9.7684609"><ele>274.6666666666667</ele><time>2026-05-03T11:37:46.614Z</time></trkpt><trkpt lat="46.1579184" lon="9.7681635"><ele>274.3333333333333</ele><time>2026-05-03T11:37:47.608Z</time></trkpt><trkpt lat="46.1579672" lon="9.767879"><ele>274.0</ele><time>2026-05-03T11:37:48.609Z</time></trkpt><trkpt lat="46.1579984" lon="9.7676002"><ele>273.3333333333333</ele><time>2026-05-03T11:37:49.607Z</time></trkpt><trkpt lat="46.1580408" lon="9.7672986"><ele>272.6666666666667</ele><time>2026-05-03T11:37:50.611Z</time></trkpt><trkpt lat="46.1580876" lon="9.7669754"><ele>272.0</ele><time>2026-05-03T11:37:51.605Z</time></trkpt><trkpt lat="46.1581274" lon="9.7666512"><ele>271.5</ele><time>2026-05-03T11:37:52.611Z</time></trkpt><trkpt lat="46.1581767" lon="9.7663194"><ele>271.0</ele><time>2026-05-03T11:37:53.613Z</time></trkpt><trkpt lat="46.1582177" lon="9.765985"><ele>272.5</ele><time>2026-05-03T11:37:54.61Z</time></trkpt><trkpt lat="46.1582549" lon="9.765664"><ele>274.0</ele><time>2026-05-03T11:37:55.616Z</time></trkpt><trkpt lat="46.1583118" lon="9.7653389"><ele>273.66666666666663</ele><time>2026-05-03T11:37:56.611Z</time></trkpt><trkpt lat="46.1583586" lon="9.7650283"><ele>273.3333333333333</ele><time>2026-05-03T11:37:57.606Z</time></trkpt><trkpt lat="46.1583995" lon="9.7647075"><ele>273.0</ele><time>2026-05-03T11:37:58.615Z</time></trkpt><trkpt lat="46.1584446" lon="9.7643977"><ele>273.0</ele><time>2026-05-03T11:37:59.612Z</time></trkpt><trkpt lat="46.1584814" lon="9.7640867"><ele>273.0</ele><time>2026-05-03T11:38:00.595Z</time></trkpt><trkpt lat="46.1585248" lon="9.7638005"><ele>273.0</ele><time>2026-05-03T11:38:01.588Z</time></trkpt><trkpt lat="46.1585699" lon="9.7635245"><ele>273.3333333333333</ele><time>2026-05-03T11:38:02.593Z</time></trkpt><trkpt lat="46.1586096" lon="9.7632446"><ele>273.66666666666663</ele><time>2026-05-03T11:38:03.609Z</time></trkpt><trkpt lat="46.1586555" lon="9.7629515"><ele>274.0</ele><time>2026-05-03T11:38:04.616Z</time></trkpt><trkpt lat="46.1586848" lon="9.7626475"><ele>273.3333333333333</ele><time>2026-05-03T11:38:05.608Z</time></trkpt><trkpt lat="46.1587219" lon="9.7623385"><ele>272.6666666666667</ele><time>2026-05-03T11:38:06.615Z</time></trkpt><trkpt lat="46.1587695" lon="9.7620243"><ele>272.0</ele><time>2026-05-03T11:38:07.587Z</time></trkpt><trkpt lat="46.158815" lon="9.7616974"><ele>271.5</ele><time>2026-05-03T11:38:08.592Z</time></trkpt><trkpt lat="46.1588608" lon="9.7613771"><ele>271.0</ele><time>2026-05-03T11:38:09.588Z</time></trkpt><trkpt lat="46.1589084" lon="9.7610593"><ele>270.66666666666663</ele><time>2026-05-03T11:38:10.591Z</time></trkpt><trkpt lat="46.1589534" lon="9.7607518"><ele>270.3333333333333</ele><time>2026-05-03T11:38:11.61Z</time></trkpt><trkpt lat="46.1589915" lon="9.7604456"><ele>270.0</ele><time>2026-05-03T11:38:12.609Z</time></trkpt><trkpt lat="46.1590343" lon="9.7601454"><ele>270.3333333333333</ele><time>2026-05-03T11:38:13.61Z</time></trkpt><trkpt lat="46.1590844" lon="9.7598473"><ele>270.66666666666663</ele><time>2026-05-03T11:38:14.591Z</time></trkpt><trkpt lat="46.1591199" lon="9.7595595"><ele>271.0</ele><time>2026-05-03T11:38:15.588Z</time></trkpt><trkpt lat="46.1591546" lon="9.759275"><ele>271.0</ele><time>2026-05-03T11:38:16.589Z</time></trkpt><trkpt lat="46.1591903" lon="9.758997"><ele>271.0</ele><time>2026-05-03T11:38:17.586Z</time></trkpt><trkpt lat="46.159229" lon="9.7587249"><ele>271.0</ele><time>2026-05-03T11:38:18.587Z</time></trkpt><trkpt lat="46.1592628" lon="9.7584599"><ele>271.0</ele><time>2026-05-03T11:38:19.589Z</time></trkpt><trkpt lat="46.159302" lon="9.7581975"><ele>271.0</ele><time>2026-05-03T11:38:20.589Z</time></trkpt><trkpt lat="46.1593299" lon="9.75793"><ele>271.0</ele><time>2026-05-03T11:38:21.586Z</time></trkpt><trkpt lat="46.1593743" lon="9.7576593"><ele>271.0</ele><time>2026-05-03T11:38:22.592Z</time></trkpt><trkpt lat="46.159416" lon="9.7573858"><ele>271.0</ele><time>2026-05-03T11:38:23.587Z</time></trkpt><trkpt lat="46.1594462" lon="9.757113"><ele>271.0</ele><time>2026-05-03T11:38:24.61Z</time></trkpt><trkpt lat="46.1594778" lon="9.7568361"><ele>270.3333333333333</ele><time>2026-05-03T11:38:25.618Z</time></trkpt><trkpt lat="46.1595173" lon="9.7565647"><ele>269.6666666666667</ele><time>2026-05-03T11:38:26.59Z</time></trkpt><trkpt lat="46.1595638" lon="9.7562949"><ele>269.0</ele><time>2026-05-03T11:38:27.588Z</time></trkpt><trkpt lat="46.1595946" lon="9.7560386"><ele>269.0</ele><time>2026-05-03T11:38:28.589Z</time></trkpt><trkpt lat="46.1596229" lon="9.7557921"><ele>269.0</ele><time>2026-05-03T11:38:29.585Z</time></trkpt><trkpt lat="46.1596636" lon="9.7555293"><ele>269.0</ele><time>2026-05-03T11:38:30.595Z</time></trkpt><trkpt lat="46.1597034" lon="9.7552557"><ele>269.0</ele><time>2026-05-03T11:38:31.613Z</time></trkpt><trkpt lat="46.1597321" lon="9.7549638"><ele>269.0</ele><time>2026-05-03T11:38:32.611Z</time></trkpt><trkpt lat="46.1597653" lon="9.7546565"><ele>269.0</ele><time>2026-05-03T11:38:33.611Z</time></trkpt><trkpt lat="46.159806" lon="9.7543464"><ele>269.0</ele><time>2026-05-03T11:38:34.612Z</time></trkpt><trkpt lat="46.1598556" lon="9.7540192"><ele>269.0</ele><time>2026-05-03T11:38:35.608Z</time></trkpt><trkpt lat="46.1599033" lon="9.753686"><ele>269.5</ele><time>2026-05-03T11:38:36.615Z</time></trkpt><trkpt lat="46.1599578" lon="9.7533611"><ele>270.0</ele><time>2026-05-03T11:38:37.611Z</time></trkpt><trkpt lat="46.1600171" lon="9.7530245"><ele>269.5</ele><time>2026-05-03T11:38:38.617Z</time></trkpt><trkpt lat="46.1600607" lon="9.7526749"><ele>269.0</ele><time>2026-05-03T11:38:39.608Z</time></trkpt><trkpt lat="46.1601049" lon="9.7523353"><ele>269.0</ele><time>2026-05-03T11:38:40.615Z</time></trkpt><trkpt lat="46.1601465" lon="9.7520048"><ele>269.0</ele><time>2026-05-03T11:38:41.608Z</time></trkpt><trkpt lat="46.1601982" lon="9.7516695"><ele>269.0</ele><time>2026-05-03T11:38:42.591Z</time></trkpt><trkpt lat="46.1602487" lon="9.7513435"><ele>269.0</ele><time>2026-05-03T11:38:43.587Z</time></trkpt><trkpt lat="46.1602931" lon="9.7510137"><ele>269.0</ele><time>2026-05-03T11:38:44.59Z</time></trkpt><trkpt lat="46.1603272" lon="9.7507076"><ele>269.0</ele><time>2026-05-03T11:38:45.607Z</time></trkpt><trkpt lat="46.1603721" lon="9.7503985"><ele>269.0</ele><time>2026-05-03T11:38:46.61Z</time></trkpt><trkpt lat="46.1604253" lon="9.7500905"><ele>269.0</ele><time>2026-05-03T11:38:47.586Z</time></trkpt><trkpt lat="46.1604579" lon="9.7498009"><ele>269.0</ele><time>2026-05-03T11:38:48.59Z</time></trkpt><trkpt lat="46.1604984" lon="9.7494978"><ele>269.0</ele><time>2026-05-03T11:38:49.588Z</time></trkpt><trkpt lat="46.1605384" lon="9.7492087"><ele>269.0</ele><time>2026-05-03T11:38:50.615Z</time></trkpt><trkpt lat="46.1605691" lon="9.7489358"><ele>269.0</ele><time>2026-05-03T11:38:51.588Z</time></trkpt><trkpt lat="46.1606137" lon="9.7486687"><ele>269.0</ele><time>2026-05-03T11:38:52.592Z</time></trkpt><trkpt lat="46.1606533" lon="9.7483847"><ele>269.0</ele><time>2026-05-03T11:38:53.591Z</time></trkpt><trkpt lat="46.1606834" lon="9.7481114"><ele>269.0</ele><time>2026-05-03T11:38:54.61Z</time></trkpt><trkpt lat="46.1607226" lon="9.7478446"><ele>269.0</ele><time>2026-05-03T11:38:55.619Z</time></trkpt><trkpt lat="46.1607543" lon="9.747574"><ele>269.33333333333337</ele><time>2026-05-03T11:38:56.609Z</time></trkpt><trkpt lat="46.160789" lon="9.74731"><ele>269.6666666666667</ele><time>2026-05-03T11:38:57.635Z</time></trkpt><trkpt lat="46.1608231" lon="9.7470493"><ele>270.0</ele><time>2026-05-03T11:38:58.614Z</time></trkpt><trkpt lat="46.1608649" lon="9.7467738"><ele>270.3333333333333</ele><time>2026-05-03T11:38:59.614Z</time></trkpt><trkpt lat="46.1609009" lon="9.7465118"><ele>270.66666666666663</ele><time>2026-05-03T11:39:00.61Z</time></trkpt><trkpt lat="46.1609208" lon="9.7462594"><ele>271.0</ele><time>2026-05-03T11:39:01.614Z</time></trkpt><trkpt lat="46.1609621" lon="9.7459976"><ele>271.3333333333333</ele><time>2026-05-03T11:39:02.629Z</time></trkpt><trkpt lat="46.1610015" lon="9.7457163"><ele>271.6666666666667</ele><time>2026-05-03T11:39:03.639Z</time></trkpt><trkpt lat="46.1610273" lon="9.7454379"><ele>272.0</ele><time>2026-05-03T11:39:04.634Z</time></trkpt><trkpt lat="46.161041" lon="9.7451642"><ele>271.33333333333337</ele><time>2026-05-03T11:39:05.639Z</time></trkpt><trkpt lat="46.161065" lon="9.7448818"><ele>270.6666666666667</ele><time>2026-05-03T11:39:06.631Z</time></trkpt><trkpt lat="46.1610958" lon="9.7446212"><ele>270.0</ele><time>2026-05-03T11:39:07.635Z</time></trkpt><trkpt lat="46.1611132" lon="9.7443506"><ele>270.0</ele><time>2026-05-03T11:39:08.632Z</time></trkpt><trkpt lat="46.1611416" lon="9.7440839"><ele>270.0</ele><time>2026-05-03T11:39:09.64Z</time></trkpt><trkpt lat="46.1611521" lon="9.7438142"><ele>270.0</ele><time>2026-05-03T11:39:10.588Z</time></trkpt><trkpt lat="46.1611593" lon="9.7435532"><ele>270.0</ele><time>2026-05-03T11:39:11.592Z</time></trkpt><trkpt lat="46.1611689" lon="9.7432932"><ele>270.0</ele><time>2026-05-03T11:39:12.611Z</time></trkpt><trkpt lat="46.1611826" lon="9.7430463"><ele>270.0</ele><time>2026-05-03T11:39:13.611Z</time></trkpt><trkpt lat="46.1612074" lon="9.742825"><ele>270.0</ele><time>2026-05-03T11:39:14.612Z</time></trkpt><trkpt lat="46.1612121" lon="9.7426153"><ele>270.0</ele><time>2026-05-03T11:39:15.616Z</time></trkpt><trkpt lat="46.161227" lon="9.7424227"><ele>270.0</ele><time>2026-05-03T11:39:16.609Z</time></trkpt><trkpt lat="46.1612604" lon="9.7422208"><ele>270.0</ele><time>2026-05-03T11:39:17.63Z</time></trkpt><trkpt lat="46.1612624" lon="9.7420406"><ele>269.75</ele><time>2026-05-03T11:39:18.63Z</time></trkpt><trkpt lat="46.1612827" lon="9.7418521"><ele>269.5</ele><time>2026-05-03T11:39:19.601Z</time></trkpt><trkpt lat="46.1612864" lon="9.7416499"><ele>269.25</ele><time>2026-05-03T11:39:20.589Z</time></trkpt><trkpt lat="46.1613011" lon="9.7414538"><ele>269.0</ele><time>2026-05-03T11:39:21.586Z</time></trkpt><trkpt lat="46.1613075" lon="9.7412799"><ele>269.0</ele><time>2026-05-03T11:39:22.589Z</time></trkpt><trkpt lat="46.1613239" lon="9.7410981"><ele>269.0</ele><time>2026-05-03T11:39:23.609Z</time></trkpt><trkpt lat="46.1613434" lon="9.7409274"><ele>269.0</ele><time>2026-05-03T11:39:24.584Z</time></trkpt><trkpt lat="46.1613539" lon="9.7407595"><ele>269.0</ele><time>2026-05-03T11:39:25.596Z</time></trkpt><trkpt lat="46.1613787" lon="9.7405855"><ele>269.25</ele><time>2026-05-03T11:39:26.587Z</time></trkpt><trkpt lat="46.1613977" lon="9.7404098"><ele>269.5</ele><time>2026-05-03T11:39:27.585Z</time></trkpt><trkpt lat="46.1614123" lon="9.740239"><ele>269.75</ele><time>2026-05-03T11:39:28.586Z</time></trkpt><trkpt lat="46.1614267" lon="9.7400589"><ele>270.0</ele><time>2026-05-03T11:39:29.589Z</time></trkpt><trkpt lat="46.1614397" lon="9.7398695"><ele>270.0</ele><time>2026-05-03T11:39:30.582Z</time></trkpt><trkpt lat="46.1614515" lon="9.7396618"><ele>270.0</ele><time>2026-05-03T11:39:31.59Z</time></trkpt><trkpt lat="46.1614636" lon="9.7394362"><ele>270.0</ele><time>2026-05-03T11:39:32.605Z</time></trkpt><trkpt lat="46.1614899" lon="9.7391809"><ele>270.0</ele><time>2026-05-03T11:39:33.587Z</time></trkpt><trkpt lat="46.1615127" lon="9.7389074"><ele>270.0</ele><time>2026-05-03T11:39:34.592Z</time></trkpt><trkpt lat="46.1615411" lon="9.738633"><ele>270.0</ele><time>2026-05-03T11:39:35.59Z</time></trkpt><trkpt lat="46.1615591" lon="9.7383381"><ele>269.6666666666667</ele><time>2026-05-03T11:39:36.583Z</time></trkpt><trkpt lat="46.1615756" lon="9.7380361"><ele>269.33333333333337</ele><time>2026-05-03T11:39:37.59Z</time></trkpt><trkpt lat="46.1616014" lon="9.7377319"><ele>269.0</ele><time>2026-05-03T11:39:38.582Z</time></trkpt><trkpt lat="46.1616241" lon="9.7374087"><ele>268.0</ele><time>2026-05-03T11:39:39.587Z</time></trkpt><trkpt lat="46.161656" lon="9.7370966"><ele>267.0</ele><time>2026-05-03T11:39:40.588Z</time></trkpt><trkpt lat="46.1616866" lon="9.7367564"><ele>267.0</ele><time>2026-05-03T11:39:41.582Z</time></trkpt><trkpt lat="46.1617079" lon="9.7364221"><ele>267.0</ele><time>2026-05-03T11:39:42.589Z</time></trkpt><trkpt lat="46.1617282" lon="9.7360846"><ele>267.0</ele><time>2026-05-03T11:39:43.585Z</time></trkpt><trkpt lat="46.1617605" lon="9.7357437"><ele>267.0</ele><time>2026-05-03T11:39:44.583Z</time></trkpt><trkpt lat="46.1617868" lon="9.7354145"><ele>267.0</ele><time>2026-05-03T11:39:45.583Z</time></trkpt><trkpt lat="46.1618146" lon="9.7350587"><ele>267.0</ele><time>2026-05-03T11:39:46.583Z</time></trkpt><trkpt lat="46.161848" lon="9.7347074"><ele>267.5</ele><time>2026-05-03T11:39:47.582Z</time></trkpt><trkpt lat="46.1618884" lon="9.7343642"><ele>268.0</ele><time>2026-05-03T11:39:48.581Z</time></trkpt><trkpt lat="46.1619262" lon="9.7340049"><ele>268.0</ele><time>2026-05-03T11:39:49.584Z</time></trkpt><trkpt lat="46.1619621" lon="9.7336491"><ele>268.0</ele><time>2026-05-03T11:39:50.583Z</time></trkpt><trkpt lat="46.1619888" lon="9.7332961"><ele>268.0</ele><time>2026-05-03T11:39:51.581Z</time></trkpt><trkpt lat="46.1620202" lon="9.7329684"><ele>268.0</ele><time>2026-05-03T11:39:52.587Z</time></trkpt><trkpt lat="46.1620371" lon="9.7326543"><ele>268.0</ele><time>2026-05-03T11:39:53.584Z</time></trkpt><trkpt lat="46.1620673" lon="9.7323414"><ele>267.66666666666663</ele><time>2026-05-03T11:39:54.615Z</time></trkpt><trkpt lat="46.1620945" lon="9.7320344"><ele>267.3333333333333</ele><time>2026-05-03T11:39:55.612Z</time></trkpt><trkpt lat="46.1621223" lon="9.7317362"><ele>267.0</ele><time>2026-05-03T11:39:56.587Z</time></trkpt><trkpt lat="46.1621397" lon="9.7314554"><ele>267.0</ele><time>2026-05-03T11:39:57.613Z</time></trkpt><trkpt lat="46.1621679" lon="9.7311774"><ele>267.0</ele><time>2026-05-03T11:39:58.607Z</time></trkpt><trkpt lat="46.1621828" lon="9.73091"><ele>267.0</ele><time>2026-05-03T11:39:59.609Z</time></trkpt><trkpt lat="46.1622117" lon="9.7306283"><ele>267.0</ele><time>2026-05-03T11:40:00.605Z</time></trkpt><trkpt lat="46.1622349" lon="9.7303345"><ele>267.0</ele><time>2026-05-03T11:40:01.611Z</time></trkpt><trkpt lat="46.1622589" lon="9.7300473"><ele>267.0</ele><time>2026-05-03T11:40:02.605Z</time></trkpt><trkpt lat="46.1622804" lon="9.7297726"><ele>267.0</ele><time>2026-05-03T11:40:03.61Z</time></trkpt><trkpt lat="46.1622996" lon="9.7294914"><ele>267.0</ele><time>2026-05-03T11:40:04.602Z</time></trkpt><trkpt lat="46.1623134" lon="9.729208"><ele>267.0</ele><time>2026-05-03T11:40:05.609Z</time></trkpt><trkpt lat="46.162331" lon="9.7289241"><ele>267.0</ele><time>2026-05-03T11:40:06.586Z</time></trkpt><trkpt lat="46.1623495" lon="9.7286564"><ele>267.0</ele><time>2026-05-03T11:40:07.588Z</time></trkpt><trkpt lat="46.1623804" lon="9.7283762"><ele>267.0</ele><time>2026-05-03T11:40:08.584Z</time></trkpt><trkpt lat="46.1624065" lon="9.7280885"><ele>267.0</ele><time>2026-05-03T11:40:09.587Z</time></trkpt><trkpt lat="46.1624314" lon="9.7277999"><ele>267.0</ele><time>2026-05-03T11:40:10.591Z</time></trkpt><trkpt lat="46.1624495" lon="9.7275302"><ele>267.0</ele><time>2026-05-03T11:40:11.585Z</time></trkpt><trkpt lat="46.1624672" lon="9.727261"><ele>267.0</ele><time>2026-05-03T11:40:12.589Z</time></trkpt><trkpt lat="46.1624824" lon="9.7269962"><ele>267.0</ele><time>2026-05-03T11:40:13.582Z</time></trkpt><trkpt lat="46.1624953" lon="9.7267194"><ele>267.0</ele><time>2026-05-03T11:40:14.585Z</time></trkpt><trkpt lat="46.1625101" lon="9.7264505"><ele>266.6666666666667</ele><time>2026-05-03T11:40:15.585Z</time></trkpt><trkpt lat="46.1625317" lon="9.7261807"><ele>266.33333333333337</ele><time>2026-05-03T11:40:16.586Z</time></trkpt><trkpt lat="46.162544" lon="9.7259082"><ele>266.0</ele><time>2026-05-03T11:40:17.582Z</time></trkpt><trkpt lat="46.1625536" lon="9.7256161"><ele>266.0</ele><time>2026-05-03T11:40:18.585Z</time></trkpt><trkpt lat="46.1625578" lon="9.7253016"><ele>266.0</ele><time>2026-05-03T11:40:19.58Z</time></trkpt><trkpt lat="46.1625655" lon="9.7249765"><ele>266.0</ele><time>2026-05-03T11:40:20.602Z</time></trkpt><trkpt lat="46.1625674" lon="9.7246397"><ele>266.5</ele><time>2026-05-03T11:40:21.588Z</time></trkpt><trkpt lat="46.1625714" lon="9.7243068"><ele>267.0</ele><time>2026-05-03T11:40:22.58Z</time></trkpt><trkpt lat="46.1625975" lon="9.7239496"><ele>267.0</ele><time>2026-05-03T11:40:23.593Z</time></trkpt><trkpt lat="46.1626232" lon="9.7235728"><ele>267.0</ele><time>2026-05-03T11:40:24.583Z</time></trkpt><trkpt lat="46.1626306" lon="9.723205"><ele>267.0</ele><time>2026-05-03T11:40:25.621Z</time></trkpt><trkpt lat="46.1626461" lon="9.7228547"><ele>267.0</ele><time>2026-05-03T11:40:26.583Z</time></trkpt><trkpt lat="46.1626476" lon="9.7224891"><ele>266.5</ele><time>2026-05-03T11:40:27.588Z</time></trkpt><trkpt lat="46.1626575" lon="9.7221295"><ele>266.0</ele><time>2026-05-03T11:40:28.591Z</time></trkpt><trkpt lat="46.1626597" lon="9.7217621"><ele>266.0</ele><time>2026-05-03T11:40:29.585Z</time></trkpt><trkpt lat="46.1626755" lon="9.7214109"><ele>266.0</ele><time>2026-05-03T11:40:30.593Z</time></trkpt><trkpt lat="46.1626868" lon="9.721065"><ele>266.0</ele><time>2026-05-03T11:40:31.584Z</time></trkpt><trkpt lat="46.1627028" lon="9.7207154"><ele>266.0</ele><time>2026-05-03T11:40:32.583Z</time></trkpt><trkpt lat="46.1627133" lon="9.7203825"><ele>267.0</ele><time>2026-05-03T11:40:33.583Z</time></trkpt><trkpt lat="46.1627245" lon="9.720048"><ele>268.0</ele><time>2026-05-03T11:40:34.588Z</time></trkpt><trkpt lat="46.1627307" lon="9.7197033"><ele>268.0</ele><time>2026-05-03T11:40:35.584Z</time></trkpt><trkpt lat="46.1627398" lon="9.7193716"><ele>268.0</ele><time>2026-05-03T11:40:36.593Z</time></trkpt><trkpt lat="46.1627478" lon="9.7190425"><ele>268.0</ele><time>2026-05-03T11:40:37.588Z</time></trkpt><trkpt lat="46.1627688" lon="9.7187455"><ele>268.0</ele><time>2026-05-03T11:40:38.595Z</time></trkpt><trkpt lat="46.1627891" lon="9.7184392"><ele>268.0</ele><time>2026-05-03T11:40:39.591Z</time></trkpt><trkpt lat="46.1627967" lon="9.7181379"><ele>267.3333333333333</ele><time>2026-05-03T11:40:40.584Z</time></trkpt><trkpt lat="46.1628077" lon="9.7178436"><ele>266.6666666666667</ele><time>2026-05-03T11:40:41.589Z</time></trkpt><trkpt lat="46.162824" lon="9.7175675"><ele>266.0</ele><time>2026-05-03T11:40:42.585Z</time></trkpt><trkpt lat="46.1628328" lon="9.7172888"><ele>266.0</ele><time>2026-05-03T11:40:43.592Z</time></trkpt><trkpt lat="46.1628506" lon="9.7170182"><ele>266.0</ele><time>2026-05-03T11:40:44.583Z</time></trkpt><trkpt lat="46.1628578" lon="9.716747"><ele>266.0</ele><time>2026-05-03T11:40:45.589Z</time></trkpt><trkpt lat="46.1628784" lon="9.7164643"><ele>266.0</ele><time>2026-05-03T11:40:46.589Z</time></trkpt><trkpt lat="46.1628879" lon="9.7161875"><ele>266.0</ele><time>2026-05-03T11:40:47.587Z</time></trkpt><trkpt lat="46.1628969" lon="9.7158711"><ele>266.0</ele><time>2026-05-03T11:40:48.59Z</time></trkpt><trkpt lat="46.1629033" lon="9.7155525"><ele>265.6666666666667</ele><time>2026-05-03T11:40:49.587Z</time></trkpt><trkpt lat="46.1629083" lon="9.7152541"><ele>265.3333333333333</ele><time>2026-05-03T11:40:50.586Z</time></trkpt><trkpt lat="46.1629137" lon="9.7149824"><ele>265.0</ele><time>2026-05-03T11:40:51.594Z</time></trkpt><trkpt lat="46.1629257" lon="9.7147027"><ele>264.66666666666663</ele><time>2026-05-03T11:40:52.586Z</time></trkpt><trkpt lat="46.1629399" lon="9.7144219"><ele>264.3333333333333</ele><time>2026-05-03T11:40:53.593Z</time></trkpt><trkpt lat="46.1629447" lon="9.7141526"><ele>264.0</ele><time>2026-05-03T11:40:54.584Z</time></trkpt><trkpt lat="46.1629539" lon="9.7138854"><ele>264.0</ele><time>2026-05-03T11:40:55.596Z</time></trkpt><trkpt lat="46.1629621" lon="9.7136011"><ele>264.0</ele><time>2026-05-03T11:40:56.588Z</time></trkpt><trkpt lat="46.1629725" lon="9.7133114"><ele>264.0</ele><time>2026-05-03T11:40:57.587Z</time></trkpt><trkpt lat="46.1629799" lon="9.713004"><ele>264.3333333333333</ele><time>2026-05-03T11:40:58.582Z</time></trkpt><trkpt lat="46.1629913" lon="9.7126958"><ele>264.66666666666663</ele><time>2026-05-03T11:40:59.587Z</time></trkpt><trkpt lat="46.1630054" lon="9.7123712"><ele>265.0</ele><time>2026-05-03T11:41:00.586Z</time></trkpt><trkpt lat="46.1630138" lon="9.7120365"><ele>265.5</ele><time>2026-05-03T11:41:01.59Z</time></trkpt><trkpt lat="46.1630292" lon="9.7117031"><ele>266.0</ele><time>2026-05-03T11:41:02.593Z</time></trkpt><trkpt lat="46.1630476" lon="9.7113553"><ele>266.0</ele><time>2026-05-03T11:41:03.591Z</time></trkpt><trkpt lat="46.1630625" lon="9.7110029"><ele>266.0</ele><time>2026-05-03T11:41:04.589Z</time></trkpt><trkpt lat="46.1630762" lon="9.7106597"><ele>266.0</ele><time>2026-05-03T11:41:05.589Z</time></trkpt><trkpt lat="46.1630925" lon="9.7103176"><ele>266.0</ele><time>2026-05-03T11:41:06.589Z</time></trkpt><trkpt lat="46.1631014" lon="9.7099691"><ele>266.0</ele><time>2026-05-03T11:41:07.587Z</time></trkpt><trkpt lat="46.1631198" lon="9.7096265"><ele>266.0</ele><time>2026-05-03T11:41:08.593Z</time></trkpt><trkpt lat="46.1631322" lon="9.7092941"><ele>266.0</ele><time>2026-05-03T11:41:09.586Z</time></trkpt><trkpt lat="46.1631438" lon="9.7089626"><ele>266.0</ele><time>2026-05-03T11:41:10.587Z</time></trkpt><trkpt lat="46.163156" lon="9.70862"><ele>266.0</ele><time>2026-05-03T11:41:11.585Z</time></trkpt><trkpt lat="46.1631804" lon="9.7082819"><ele>266.0</ele><time>2026-05-03T11:41:12.584Z</time></trkpt><trkpt lat="46.1631873" lon="9.7079587"><ele>266.5</ele><time>2026-05-03T11:41:13.583Z</time></trkpt><trkpt lat="46.1631976" lon="9.7076355"><ele>267.0</ele><time>2026-05-03T11:41:14.587Z</time></trkpt><trkpt lat="46.163205" lon="9.7073037"><ele>267.0</ele><time>2026-05-03T11:41:15.585Z</time></trkpt><trkpt lat="46.1632189" lon="9.7069879"><ele>267.0</ele><time>2026-05-03T11:41:16.59Z</time></trkpt><trkpt lat="46.1632379" lon="9.7066597"><ele>267.0</ele><time>2026-05-03T11:41:17.586Z</time></trkpt><trkpt lat="46.1632505" lon="9.706351"><ele>266.3333333333333</ele><time>2026-05-03T11:41:18.594Z</time></trkpt><trkpt lat="46.1632647" lon="9.7060366"><ele>265.66666666666663</ele><time>2026-05-03T11:41:19.588Z</time></trkpt><trkpt lat="46.1632754" lon="9.7057236"><ele>265.0</ele><time>2026-05-03T11:41:20.582Z</time></trkpt><trkpt lat="46.163295" lon="9.7054032"><ele>265.0</ele><time>2026-05-03T11:41:21.591Z</time></trkpt><trkpt lat="46.1633163" lon="9.7050847"><ele>265.0</ele><time>2026-05-03T11:41:22.583Z</time></trkpt><trkpt lat="46.1633236" lon="9.7047812"><ele>265.0</ele><time>2026-05-03T11:41:23.595Z</time></trkpt><trkpt lat="46.1633318" lon="9.7044777"><ele>265.0</ele><time>2026-05-03T11:41:24.584Z</time></trkpt><trkpt lat="46.1633404" lon="9.7041707"><ele>265.0</ele><time>2026-05-03T11:41:25.599Z</time></trkpt><trkpt lat="46.1633489" lon="9.7038502"><ele>265.0</ele><time>2026-05-03T11:41:26.587Z</time></trkpt><trkpt lat="46.1633593" lon="9.7035582"><ele>264.66666666666663</ele><time>2026-05-03T11:41:27.587Z</time></trkpt><trkpt lat="46.1633655" lon="9.7032834"><ele>264.3333333333333</ele><time>2026-05-03T11:41:28.583Z</time></trkpt><trkpt lat="46.1633806" lon="9.7030254"><ele>264.0</ele><time>2026-05-03T11:41:29.585Z</time></trkpt><trkpt lat="46.1633846" lon="9.7027727"><ele>264.6666666666667</ele><time>2026-05-03T11:41:30.588Z</time></trkpt><trkpt lat="46.1633949" lon="9.7025464"><ele>265.33333333333337</ele><time>2026-05-03T11:41:31.587Z</time></trkpt><trkpt lat="46.16341" lon="9.7022914"><ele>266.0</ele><time>2026-05-03T11:41:32.59Z</time></trkpt><trkpt lat="46.1634175" lon="9.70204"><ele>266.33333333333337</ele><time>2026-05-03T11:41:33.58Z</time></trkpt><trkpt lat="46.1634295" lon="9.7017554"><ele>266.6666666666667</ele><time>2026-05-03T11:41:34.587Z</time></trkpt><trkpt lat="46.1634314" lon="9.7014771"><ele>267.0</ele><time>2026-05-03T11:41:35.585Z</time></trkpt><trkpt lat="46.1634385" lon="9.7011868"><ele>266.6666666666667</ele><time>2026-05-03T11:41:36.588Z</time></trkpt><trkpt lat="46.1634559" lon="9.7008937"><ele>266.33333333333337</ele><time>2026-05-03T11:41:37.58Z</time></trkpt><trkpt lat="46.1634594" lon="9.7005999"><ele>266.0</ele><time>2026-05-03T11:41:38.584Z</time></trkpt><trkpt lat="46.1634647" lon="9.7003235"><ele>266.0</ele><time>2026-05-03T11:41:39.58Z</time></trkpt><trkpt lat="46.1634734" lon="9.7000573"><ele>266.0</ele><time>2026-05-03T11:41:40.585Z</time></trkpt><trkpt lat="46.1634718" lon="9.6998087"><ele>266.0</ele><time>2026-05-03T11:41:41.586Z</time></trkpt><trkpt lat="46.163467" lon="9.6995794"><ele>266.0</ele><time>2026-05-03T11:41:42.588Z</time></trkpt><trkpt lat="46.1634789" lon="9.6993538"><ele>266.0</ele><time>2026-05-03T11:41:43.586Z</time></trkpt><trkpt lat="46.1634796" lon="9.6991291"><ele>266.0</ele><time>2026-05-03T11:41:44.59Z</time></trkpt><trkpt lat="46.1634816" lon="9.698899"><ele>266.0</ele><time>2026-05-03T11:41:45.583Z</time></trkpt><trkpt lat="46.1634822" lon="9.698664"><ele>266.0</ele><time>2026-05-03T11:41:46.594Z</time></trkpt><trkpt lat="46.163492" lon="9.698424"><ele>266.0</ele><time>2026-05-03T11:41:47.589Z</time></trkpt><trkpt lat="46.163501" lon="9.6981703"><ele>266.0</ele><time>2026-05-03T11:41:48.583Z</time></trkpt><trkpt lat="46.1635172" lon="9.6978982"><ele>266.0</ele><time>2026-05-03T11:41:49.584Z</time></trkpt><trkpt lat="46.1635383" lon="9.6976133"><ele>266.0</ele><time>2026-05-03T11:41:50.589Z</time></trkpt><trkpt lat="46.1635541" lon="9.6972971"><ele>266.0</ele><time>2026-05-03T11:41:51.585Z</time></trkpt><trkpt lat="46.1635712" lon="9.696969"><ele>266.0</ele><time>2026-05-03T11:41:52.593Z</time></trkpt><trkpt lat="46.163585" lon="9.6966269"><ele>266.0</ele><time>2026-05-03T11:41:53.584Z</time></trkpt><trkpt lat="46.1635997" lon="9.6962857"><ele>266.0</ele><time>2026-05-03T11:41:54.588Z</time></trkpt><trkpt lat="46.1636144" lon="9.6959554"><ele>266.0</ele><time>2026-05-03T11:41:55.589Z</time></trkpt><trkpt lat="46.1636217" lon="9.6956107"><ele>266.0</ele><time>2026-05-03T11:41:56.589Z</time></trkpt><trkpt lat="46.1636191" lon="9.6952861"><ele>266.0</ele><time>2026-05-03T11:41:57.582Z</time></trkpt><trkpt lat="46.1636299" lon="9.6949455"><ele>266.0</ele><time>2026-05-03T11:41:58.594Z</time></trkpt><trkpt lat="46.163654" lon="9.6945996"><ele>265.5</ele><time>2026-05-03T11:41:59.589Z</time></trkpt><trkpt lat="46.1636768" lon="9.6942698"><ele>265.0</ele><time>2026-05-03T11:42:00.586Z</time></trkpt><trkpt lat="46.1636936" lon="9.6939361"><ele>265.0</ele><time>2026-05-03T11:42:01.584Z</time></trkpt><trkpt lat="46.1637074" lon="9.6935926"><ele>265.0</ele><time>2026-05-03T11:42:02.586Z</time></trkpt><trkpt lat="46.163725" lon="9.6932513"><ele>265.0</ele><time>2026-05-03T11:42:03.584Z</time></trkpt><trkpt lat="46.1637352" lon="9.6929092"><ele>265.0</ele><time>2026-05-03T11:42:04.59Z</time></trkpt><trkpt lat="46.1637467" lon="9.6925625"><ele>265.0</ele><time>2026-05-03T11:42:05.587Z</time></trkpt><trkpt lat="46.163764" lon="9.692224"><ele>265.0</ele><time>2026-05-03T11:42:06.588Z</time></trkpt><trkpt lat="46.1637763" lon="9.691894"><ele>265.5</ele><time>2026-05-03T11:42:07.584Z</time></trkpt><trkpt lat="46.1637825" lon="9.6915649"><ele>266.0</ele><time>2026-05-03T11:42:08.586Z</time></trkpt><trkpt lat="46.1637994" lon="9.6912438"><ele>265.6666666666667</ele><time>2026-05-03T11:42:09.585Z</time></trkpt><trkpt lat="46.1638153" lon="9.6909263"><ele>265.3333333333333</ele><time>2026-05-03T11:42:10.589Z</time></trkpt><trkpt lat="46.1638329" lon="9.6906196"><ele>265.0</ele><time>2026-05-03T11:42:11.581Z</time></trkpt><trkpt lat="46.1638551" lon="9.69031"><ele>265.0</ele><time>2026-05-03T11:42:12.586Z</time></trkpt><trkpt lat="46.1638796" lon="9.6899941"><ele>265.0</ele><time>2026-05-03T11:42:13.583Z</time></trkpt><trkpt lat="46.1638882" lon="9.6896887"><ele>265.0</ele><time>2026-05-03T11:42:14.589Z</time></trkpt><trkpt lat="46.1638886" lon="9.689383"><ele>265.0</ele><time>2026-05-03T11:42:15.587Z</time></trkpt><trkpt lat="46.1638919" lon="9.6890821"><ele>265.0</ele><time>2026-05-03T11:42:16.592Z</time></trkpt><trkpt lat="46.1638947" lon="9.6887835"><ele>265.0</ele><time>2026-05-03T11:42:17.584Z</time></trkpt><trkpt lat="46.1639048" lon="9.6884909"><ele>265.0</ele><time>2026-05-03T11:42:18.587Z</time></trkpt><trkpt lat="46.1639158" lon="9.6881869"><ele>265.0</ele><time>2026-05-03T11:42:19.584Z</time></trkpt><trkpt lat="46.1639279" lon="9.6878759"><ele>265.0</ele><time>2026-05-03T11:42:20.59Z</time></trkpt><trkpt lat="46.1639387" lon="9.687561"><ele>264.5</ele><time>2026-05-03T11:42:21.584Z</time></trkpt><trkpt lat="46.1639461" lon="9.6872225"><ele>264.0</ele><time>2026-05-03T11:42:22.587Z</time></trkpt><trkpt lat="46.1639614" lon="9.6868739"><ele>264.0</ele><time>2026-05-03T11:42:23.582Z</time></trkpt><trkpt lat="46.1639723" lon="9.6865328"><ele>264.0</ele><time>2026-05-03T11:42:24.584Z</time></trkpt><trkpt lat="46.1639756" lon="9.6861881"><ele>265.0</ele><time>2026-05-03T11:42:25.585Z</time></trkpt><trkpt lat="46.1639838" lon="9.6858483"><ele>266.0</ele><time>2026-05-03T11:42:26.582Z</time></trkpt><trkpt lat="46.1639965" lon="9.6855107"><ele>266.0</ele><time>2026-05-03T11:42:27.587Z</time></trkpt><trkpt lat="46.1640038" lon="9.6851753"><ele>266.0</ele><time>2026-05-03T11:42:28.586Z</time></trkpt><trkpt lat="46.1640143" lon="9.6848438"><ele>265.6666666666667</ele><time>2026-05-03T11:42:29.581Z</time></trkpt><trkpt lat="46.164034" lon="9.6845132"><ele>265.3333333333333</ele><time>2026-05-03T11:42:30.583Z</time></trkpt><trkpt lat="46.1640533" lon="9.6841979"><ele>265.0</ele><time>2026-05-03T11:42:31.579Z</time></trkpt><trkpt lat="46.1640625" lon="9.6838954"><ele>265.0</ele><time>2026-05-03T11:42:32.584Z</time></trkpt><trkpt lat="46.1640641" lon="9.6836114"><ele>265.0</ele><time>2026-05-03T11:42:33.582Z</time></trkpt><trkpt lat="46.1640699" lon="9.683321"><ele>265.0</ele><time>2026-05-03T11:42:34.594Z</time></trkpt><trkpt lat="46.1640791" lon="9.6830376"><ele>265.0</ele><time>2026-05-03T11:42:35.582Z</time></trkpt><trkpt lat="46.1640922" lon="9.6827549"><ele>265.0</ele><time>2026-05-03T11:42:36.605Z</time></trkpt><trkpt lat="46.1641127" lon="9.6824815"><ele>265.0</ele><time>2026-05-03T11:42:37.603Z</time></trkpt><trkpt lat="46.1641282" lon="9.6822273"><ele>265.0</ele><time>2026-05-03T11:42:38.606Z</time></trkpt><trkpt lat="46.1641412" lon="9.6819708"><ele>265.0</ele><time>2026-05-03T11:42:39.604Z</time></trkpt><trkpt lat="46.1641529" lon="9.6817267"><ele>265.0</ele><time>2026-05-03T11:42:40.608Z</time></trkpt><trkpt lat="46.1641708" lon="9.6814642"><ele>264.66666666666663</ele><time>2026-05-03T11:42:41.598Z</time></trkpt><trkpt lat="46.1641735" lon="9.6811987"><ele>264.3333333333333</ele><time>2026-05-03T11:42:42.608Z</time></trkpt><trkpt lat="46.1641742" lon="9.6809175"><ele>264.0</ele><time>2026-05-03T11:42:43.599Z</time></trkpt><trkpt lat="46.1641765" lon="9.6806308"><ele>263.6666666666667</ele><time>2026-05-03T11:42:44.582Z</time></trkpt><trkpt lat="46.164175" lon="9.680327"><ele>263.33333333333337</ele><time>2026-05-03T11:42:45.58Z</time></trkpt><trkpt lat="46.1641821" lon="9.6800194"><ele>263.0</ele><time>2026-05-03T11:42:46.582Z</time></trkpt><trkpt lat="46.1641921" lon="9.6797125"><ele>263.0</ele><time>2026-05-03T11:42:47.581Z</time></trkpt><trkpt lat="46.1641957" lon="9.6794378"><ele>263.0</ele><time>2026-05-03T11:42:48.584Z</time></trkpt><trkpt lat="46.1642024" lon="9.6791685"><ele>263.0</ele><time>2026-05-03T11:42:49.58Z</time></trkpt><trkpt lat="46.1642148" lon="9.6789264"><ele>263.33333333333337</ele><time>2026-05-03T11:42:50.585Z</time></trkpt><trkpt lat="46.1642351" lon="9.6786752"><ele>263.6666666666667</ele><time>2026-05-03T11:42:51.581Z</time></trkpt><trkpt lat="46.1642501" lon="9.6784095"><ele>264.0</ele><time>2026-05-03T11:42:52.591Z</time></trkpt><trkpt lat="46.164261" lon="9.6781445"><ele>264.0</ele><time>2026-05-03T11:42:53.579Z</time></trkpt><trkpt lat="46.1642647" lon="9.6778487"><ele>264.0</ele><time>2026-05-03T11:42:54.581Z</time></trkpt><trkpt lat="46.1642729" lon="9.6775596"><ele>264.0</ele><time>2026-05-03T11:42:55.584Z</time></trkpt><trkpt lat="46.1642786" lon="9.6772566"><ele>263.3333333333333</ele><time>2026-05-03T11:42:56.583Z</time></trkpt><trkpt lat="46.164275" lon="9.6769611"><ele>262.66666666666663</ele><time>2026-05-03T11:42:57.58Z</time></trkpt><trkpt lat="46.1642847" lon="9.6766974"><ele>262.0</ele><time>2026-05-03T11:42:58.583Z</time></trkpt><trkpt lat="46.1643014" lon="9.6764581"><ele>262.0</ele><time>2026-05-03T11:42:59.579Z</time></trkpt><trkpt lat="46.164317" lon="9.6762142"><ele>262.0</ele><time>2026-05-03T11:43:00.578Z</time></trkpt><trkpt lat="46.1643344" lon="9.6759803"><ele>262.0</ele><time>2026-05-03T11:43:01.58Z</time></trkpt><trkpt lat="46.1643414" lon="9.675735"><ele>262.0</ele><time>2026-05-03T11:43:02.578Z</time></trkpt><trkpt lat="46.1643555" lon="9.675486"><ele>262.0</ele><time>2026-05-03T11:43:03.581Z</time></trkpt><trkpt lat="46.1643684" lon="9.6752355"><ele>262.0</ele><time>2026-05-03T11:43:04.578Z</time></trkpt><trkpt lat="46.1643753" lon="9.6749545"><ele>262.0</ele><time>2026-05-03T11:43:05.577Z</time></trkpt><trkpt lat="46.1643861" lon="9.6746548"><ele>262.0</ele><time>2026-05-03T11:43:06.579Z</time></trkpt><trkpt lat="46.1643941" lon="9.6743302"><ele>262.0</ele><time>2026-05-03T11:43:07.579Z</time></trkpt><trkpt lat="46.16441" lon="9.6739982"><ele>262.3333333333333</ele><time>2026-05-03T11:43:08.58Z</time></trkpt><trkpt lat="46.164415" lon="9.6736737"><ele>262.6666666666667</ele><time>2026-05-03T11:43:09.585Z</time></trkpt><trkpt lat="46.1644229" lon="9.6733603"><ele>263.0</ele><time>2026-05-03T11:43:10.581Z</time></trkpt><trkpt lat="46.1644298" lon="9.6730484"><ele>263.0</ele><time>2026-05-03T11:43:11.59Z</time></trkpt><trkpt lat="46.1644404" lon="9.6727249"><ele>263.0</ele><time>2026-05-03T11:43:12.578Z</time></trkpt><trkpt lat="46.164451" lon="9.6723987"><ele>263.0</ele><time>2026-05-03T11:43:13.582Z</time></trkpt><trkpt lat="46.1644561" lon="9.6720942"><ele>263.0</ele><time>2026-05-03T11:43:14.579Z</time></trkpt><trkpt lat="46.1644672" lon="9.6717961"><ele>263.0</ele><time>2026-05-03T11:43:15.583Z</time></trkpt><trkpt lat="46.1644847" lon="9.671508"><ele>263.0</ele><time>2026-05-03T11:43:16.58Z</time></trkpt><trkpt lat="46.1644997" lon="9.6712225"><ele>263.0</ele><time>2026-05-03T11:43:17.582Z</time></trkpt><trkpt lat="46.1644985" lon="9.6709498"><ele>263.0</ele><time>2026-05-03T11:43:18.574Z</time></trkpt><trkpt lat="46.1645075" lon="9.6706799"><ele>263.0</ele><time>2026-05-03T11:43:19.581Z</time></trkpt><trkpt lat="46.1645188" lon="9.6704057"><ele>263.0</ele><time>2026-05-03T11:43:20.581Z</time></trkpt><trkpt lat="46.1645282" lon="9.6701384"><ele>263.0</ele><time>2026-05-03T11:43:21.582Z</time></trkpt><trkpt lat="46.1645351" lon="9.6698703"><ele>263.0</ele><time>2026-05-03T11:43:22.579Z</time></trkpt><trkpt lat="46.1645501" lon="9.6695951"><ele>263.0</ele><time>2026-05-03T11:43:23.582Z</time></trkpt><trkpt lat="46.1645639" lon="9.6693396"><ele>263.0</ele><time>2026-05-03T11:43:24.577Z</time></trkpt><trkpt lat="46.1645714" lon="9.6690837"><ele>263.0</ele><time>2026-05-03T11:43:25.587Z</time></trkpt><trkpt lat="46.1645831" lon="9.6688408"><ele>263.0</ele><time>2026-05-03T11:43:26.582Z</time></trkpt><trkpt lat="46.1645941" lon="9.6686141"><ele>263.0</ele><time>2026-05-03T11:43:27.582Z</time></trkpt><trkpt lat="46.1646097" lon="9.668389"><ele>263.33333333333337</ele><time>2026-05-03T11:43:28.588Z</time></trkpt><trkpt lat="46.1646149" lon="9.6681699"><ele>263.6666666666667</ele><time>2026-05-03T11:43:29.584Z</time></trkpt><trkpt lat="46.1646245" lon="9.6679508"><ele>264.0</ele><time>2026-05-03T11:43:30.579Z</time></trkpt><trkpt lat="46.1646324" lon="9.667725"><ele>264.0</ele><time>2026-05-03T11:43:31.577Z</time></trkpt><trkpt lat="46.1646347" lon="9.6674875"><ele>264.0</ele><time>2026-05-03T11:43:32.579Z</time></trkpt><trkpt lat="46.1646518" lon="9.6672205"><ele>264.0</ele><time>2026-05-03T11:43:33.58Z</time></trkpt><trkpt lat="46.1646789" lon="9.666928"><ele>263.0</ele><time>2026-05-03T11:43:34.577Z</time></trkpt><trkpt lat="46.1646897" lon="9.666613"><ele>262.0</ele><time>2026-05-03T11:43:35.591Z</time></trkpt><trkpt lat="46.1646987" lon="9.6663019"><ele>261.0</ele><time>2026-05-03T11:43:36.581Z</time></trkpt><trkpt lat="46.1646867" lon="9.6660121"><ele>261.0</ele><time>2026-05-03T11:43:37.584Z</time></trkpt><trkpt lat="46.1647038" lon="9.6657263"><ele>261.0</ele><time>2026-05-03T11:43:38.582Z</time></trkpt><trkpt lat="46.1647141" lon="9.6654222"><ele>261.0</ele><time>2026-05-03T11:43:39.58Z</time></trkpt><trkpt lat="46.1647241" lon="9.6650826"><ele>261.5</ele><time>2026-05-03T11:43:40.582Z</time></trkpt><trkpt lat="46.1647361" lon="9.6647427"><ele>262.0</ele><time>2026-05-03T11:43:41.581Z</time></trkpt><trkpt lat="46.1647609" lon="9.6644055"><ele>262.0</ele><time>2026-05-03T11:43:42.581Z</time></trkpt><trkpt lat="46.1647718" lon="9.6640859"><ele>262.0</ele><time>2026-05-03T11:43:43.589Z</time></trkpt><trkpt lat="46.1647916" lon="9.6638011"><ele>262.0</ele><time>2026-05-03T11:43:44.579Z</time></trkpt><trkpt lat="46.1647951" lon="9.6635056"><ele>261.66666666666663</ele><time>2026-05-03T11:43:45.582Z</time></trkpt><trkpt lat="46.1647973" lon="9.6632234"><ele>261.3333333333333</ele><time>2026-05-03T11:43:46.586Z</time></trkpt><trkpt lat="46.1647991" lon="9.6629474"><ele>261.0</ele><time>2026-05-03T11:43:47.582Z</time></trkpt><trkpt lat="46.1648158" lon="9.6626769"><ele>261.6666666666667</ele><time>2026-05-03T11:43:48.582Z</time></trkpt><trkpt lat="46.1648301" lon="9.6624225"><ele>262.33333333333337</ele><time>2026-05-03T11:43:49.585Z</time></trkpt><trkpt lat="46.1648343" lon="9.6621771"><ele>263.0</ele><time>2026-05-03T11:43:50.584Z</time></trkpt><trkpt lat="46.1648356" lon="9.6619375"><ele>263.0</ele><time>2026-05-03T11:43:51.584Z</time></trkpt><trkpt lat="46.1648379" lon="9.6616955"><ele>263.0</ele><time>2026-05-03T11:43:52.582Z</time></trkpt><trkpt lat="46.1648333" lon="9.6614599"><ele>263.0</ele><time>2026-05-03T11:43:53.586Z</time></trkpt><trkpt lat="46.16482" lon="9.6612209"><ele>262.6666666666667</ele><time>2026-05-03T11:43:54.581Z</time></trkpt><trkpt lat="46.1648092" lon="9.6609767"><ele>262.3333333333333</ele><time>2026-05-03T11:43:55.593Z</time></trkpt><trkpt lat="46.1647838" lon="9.6607344"><ele>262.0</ele><time>2026-05-03T11:43:56.581Z</time></trkpt><trkpt lat="46.1647491" lon="9.6605042"><ele>262.0</ele><time>2026-05-03T11:43:57.585Z</time></trkpt><trkpt lat="46.1647075" lon="9.6602611"><ele>262.0</ele><time>2026-05-03T11:43:58.582Z</time></trkpt><trkpt lat="46.1646583" lon="9.6600244"><ele>262.0</ele><time>2026-05-03T11:43:59.586Z</time></trkpt><trkpt lat="46.1645854" lon="9.659766"><ele>262.0</ele><time>2026-05-03T11:44:00.577Z</time></trkpt><trkpt lat="46.1645015" lon="9.6595013"><ele>262.0</ele><time>2026-05-03T11:44:01.581Z</time></trkpt><trkpt lat="46.164412" lon="9.659217"><ele>262.0</ele><time>2026-05-03T11:44:02.578Z</time></trkpt><trkpt lat="46.16432" lon="9.6589192"><ele>261.5</ele><time>2026-05-03T11:44:03.584Z</time></trkpt><trkpt lat="46.1642235" lon="9.6586062"><ele>261.0</ele><time>2026-05-03T11:44:04.583Z</time></trkpt><trkpt lat="46.1641189" lon="9.6582939"><ele>261.0</ele><time>2026-05-03T11:44:05.584Z</time></trkpt><trkpt lat="46.1640263" lon="9.6579844"><ele>261.0</ele><time>2026-05-03T11:44:06.579Z</time></trkpt><trkpt lat="46.1639363" lon="9.6576661"><ele>261.5</ele><time>2026-05-03T11:44:07.581Z</time></trkpt><trkpt lat="46.1638495" lon="9.6573646"><ele>262.0</ele><time>2026-05-03T11:44:08.603Z</time></trkpt><trkpt lat="46.1637523" lon="9.6570725"><ele>262.66666666666663</ele><time>2026-05-03T11:44:09.586Z</time></trkpt><trkpt lat="46.1636566" lon="9.6567907"><ele>263.3333333333333</ele><time>2026-05-03T11:44:10.582Z</time></trkpt><trkpt lat="46.1635718" lon="9.656515"><ele>264.0</ele><time>2026-05-03T11:44:11.581Z</time></trkpt><trkpt lat="46.1634874" lon="9.6562368"><ele>264.0</ele><time>2026-05-03T11:44:12.578Z</time></trkpt><trkpt lat="46.1634133" lon="9.6559829"><ele>264.0</ele><time>2026-05-03T11:44:13.584Z</time></trkpt><trkpt lat="46.1633308" lon="9.6557007"><ele>264.0</ele><time>2026-05-03T11:44:14.58Z</time></trkpt><trkpt lat="46.1632477" lon="9.6554002"><ele>262.5</ele><time>2026-05-03T11:44:15.583Z</time></trkpt><trkpt lat="46.1631605" lon="9.655096"><ele>261.0</ele><time>2026-05-03T11:44:16.584Z</time></trkpt><trkpt lat="46.1630596" lon="9.6547926"><ele>261.0</ele><time>2026-05-03T11:44:17.582Z</time></trkpt><trkpt lat="46.1629721" lon="9.6544795"><ele>261.0</ele><time>2026-05-03T11:44:18.585Z</time></trkpt><trkpt lat="46.162889" lon="9.6541954"><ele>261.0</ele><time>2026-05-03T11:44:19.58Z</time></trkpt><trkpt lat="46.1628067" lon="9.6539303"><ele>261.3333333333333</ele><time>2026-05-03T11:44:20.581Z</time></trkpt><trkpt lat="46.162731" lon="9.6536919"><ele>261.66666666666663</ele><time>2026-05-03T11:44:21.581Z</time></trkpt><trkpt lat="46.1626703" lon="9.6534641"><ele>262.0</ele><time>2026-05-03T11:44:22.585Z</time></trkpt><trkpt lat="46.1626182" lon="9.6532347"><ele>262.3333333333333</ele><time>2026-05-03T11:44:23.585Z</time></trkpt><trkpt lat="46.1625495" lon="9.6529988"><ele>262.6666666666667</ele><time>2026-05-03T11:44:24.583Z</time></trkpt><trkpt lat="46.162484" lon="9.6527714"><ele>263.0</ele><time>2026-05-03T11:44:25.597Z</time></trkpt><trkpt lat="46.1624074" lon="9.6525456"><ele>262.6666666666667</ele><time>2026-05-03T11:44:26.583Z</time></trkpt><trkpt lat="46.162341" lon="9.6523164"><ele>262.3333333333333</ele><time>2026-05-03T11:44:27.592Z</time></trkpt><trkpt lat="46.1622791" lon="9.6520886"><ele>262.0</ele><time>2026-05-03T11:44:28.583Z</time></trkpt><trkpt lat="46.1622165" lon="9.6518605"><ele>262.66666666666663</ele><time>2026-05-03T11:44:29.587Z</time></trkpt><trkpt lat="46.1621506" lon="9.6516205"><ele>263.3333333333333</ele><time>2026-05-03T11:44:30.581Z</time></trkpt><trkpt lat="46.1620769" lon="9.6513884"><ele>264.0</ele><time>2026-05-03T11:44:31.585Z</time></trkpt><trkpt lat="46.1620041" lon="9.6511447"><ele>264.0</ele><time>2026-05-03T11:44:32.58Z</time></trkpt><trkpt lat="46.1619339" lon="9.6509206"><ele>264.0</ele><time>2026-05-03T11:44:33.584Z</time></trkpt><trkpt lat="46.161863" lon="9.6506903"><ele>264.0</ele><time>2026-05-03T11:44:34.581Z</time></trkpt><trkpt lat="46.1617928" lon="9.6504695"><ele>264.0</ele><time>2026-05-03T11:44:35.584Z</time></trkpt><trkpt lat="46.1617323" lon="9.6502533"><ele>264.0</ele><time>2026-05-03T11:44:36.58Z</time></trkpt><trkpt lat="46.1616678" lon="9.6500325"><ele>264.0</ele><time>2026-05-03T11:44:37.59Z</time></trkpt><trkpt lat="46.1616005" lon="9.6498054"><ele>263.6666666666667</ele><time>2026-05-03T11:44:38.58Z</time></trkpt><trkpt lat="46.1615301" lon="9.6495695"><ele>263.33333333333337</ele><time>2026-05-03T11:44:39.585Z</time></trkpt><trkpt lat="46.1614538" lon="9.6493338"><ele>263.0</ele><time>2026-05-03T11:44:40.586Z</time></trkpt><trkpt lat="46.1613717" lon="9.6491055"><ele>263.0</ele><time>2026-05-03T11:44:41.585Z</time></trkpt><trkpt lat="46.1612998" lon="9.6488864"><ele>263.0</ele><time>2026-05-03T11:44:42.587Z</time></trkpt><trkpt lat="46.1612278" lon="9.6486606"><ele>263.0</ele><time>2026-05-03T11:44:43.585Z</time></trkpt><trkpt lat="46.1611587" lon="9.6484273"><ele>263.33333333333337</ele><time>2026-05-03T11:44:44.586Z</time></trkpt><trkpt lat="46.1610853" lon="9.6481872"><ele>263.6666666666667</ele><time>2026-05-03T11:44:45.584Z</time></trkpt><trkpt lat="46.1610198" lon="9.6479624"><ele>264.0</ele><time>2026-05-03T11:44:46.58Z</time></trkpt><trkpt lat="46.1609489" lon="9.6477305"><ele>264.6666666666667</ele><time>2026-05-03T11:44:47.592Z</time></trkpt><trkpt lat="46.1608692" lon="9.6474927"><ele>265.33333333333337</ele><time>2026-05-03T11:44:48.581Z</time></trkpt><trkpt lat="46.1607834" lon="9.6472588"><ele>266.0</ele><time>2026-05-03T11:44:49.585Z</time></trkpt><trkpt lat="46.1607224" lon="9.6470275"><ele>265.33333333333337</ele><time>2026-05-03T11:44:50.581Z</time></trkpt><trkpt lat="46.160654" lon="9.6467895"><ele>264.6666666666667</ele><time>2026-05-03T11:44:51.584Z</time></trkpt><trkpt lat="46.1605839" lon="9.6465777"><ele>264.0</ele><time>2026-05-03T11:44:52.582Z</time></trkpt><trkpt lat="46.1605215" lon="9.6463479"><ele>264.3333333333333</ele><time>2026-05-03T11:44:53.585Z</time></trkpt><trkpt lat="46.1604572" lon="9.6461189"><ele>264.66666666666663</ele><time>2026-05-03T11:44:54.58Z</time></trkpt><trkpt lat="46.1603887" lon="9.6458849"><ele>265.0</ele><time>2026-05-03T11:44:55.589Z</time></trkpt><trkpt lat="46.1603172" lon="9.6456525"><ele>265.0</ele><time>2026-05-03T11:44:56.575Z</time></trkpt><trkpt lat="46.1602452" lon="9.6454348"><ele>265.0</ele><time>2026-05-03T11:44:57.585Z</time></trkpt><trkpt lat="46.1601735" lon="9.6452406"><ele>265.0</ele><time>2026-05-03T11:44:58.585Z</time></trkpt><trkpt lat="46.1601222" lon="9.6450528"><ele>265.75</ele><time>2026-05-03T11:44:59.588Z</time></trkpt><trkpt lat="46.1600732" lon="9.6448767"><ele>266.5</ele><time>2026-05-03T11:45:00.583Z</time></trkpt><trkpt lat="46.1600221" lon="9.6447216"><ele>267.25</ele><time>2026-05-03T11:45:01.605Z</time></trkpt><trkpt lat="46.159979" lon="9.64458"><ele>268.0</ele><time>2026-05-03T11:45:02.581Z</time></trkpt><trkpt lat="46.1599313" lon="9.6444461"><ele>268.4</ele><time>2026-05-03T11:45:03.582Z</time></trkpt><trkpt lat="46.1598932" lon="9.6443352"><ele>268.8</ele><time>2026-05-03T11:45:04.58Z</time></trkpt><trkpt lat="46.1598672" lon="9.644245"><ele>269.2</ele><time>2026-05-03T11:45:05.581Z</time></trkpt><trkpt lat="46.1598406" lon="9.644094"><ele>269.6</ele><time>2026-05-03T11:45:07.608Z</time></trkpt><trkpt lat="46.1598053" lon="9.6439738"><ele>270.0</ele><time>2026-05-03T11:45:09.604Z</time></trkpt><trkpt lat="46.1597519" lon="9.6438198"><ele>269.6666666666667</ele><time>2026-05-03T11:45:13.587Z</time></trkpt><trkpt lat="46.1597064" lon="9.6436955"><ele>269.3333333333333</ele><time>2026-05-03T11:45:15.585Z</time></trkpt><trkpt lat="46.1596841" lon="9.6436082"><ele>269.0</ele><time>2026-05-03T11:45:16.586Z</time></trkpt><trkpt lat="46.1596585" lon="9.6434988"><ele>268.66666666666663</ele><time>2026-05-03T11:45:17.606Z</time></trkpt><trkpt lat="46.1596197" lon="9.6433694"><ele>268.3333333333333</ele><time>2026-05-03T11:45:18.602Z</time></trkpt><trkpt lat="46.1595837" lon="9.6432394"><ele>268.0</ele><time>2026-05-03T11:45:19.584Z</time></trkpt><trkpt lat="46.1595526" lon="9.6431152"><ele>268.0</ele><time>2026-05-03T11:45:20.605Z</time></trkpt><trkpt lat="46.1595149" lon="9.6429807"><ele>268.0</ele><time>2026-05-03T11:45:21.602Z</time></trkpt><trkpt lat="46.1594646" lon="9.6428196"><ele>268.0</ele><time>2026-05-03T11:45:22.602Z</time></trkpt><trkpt lat="46.1594049" lon="9.642617"><ele>268.0</ele><time>2026-05-03T11:45:23.604Z</time></trkpt><trkpt lat="46.1593295" lon="9.6423536"><ele>268.66666666666663</ele><time>2026-05-03T11:45:24.601Z</time></trkpt><trkpt lat="46.1592745" lon="9.6421355"><ele>269.3333333333333</ele><time>2026-05-03T11:45:25.61Z</time></trkpt><trkpt lat="46.1592096" lon="9.6419183"><ele>270.0</ele><time>2026-05-03T11:45:26.6Z</time></trkpt><trkpt lat="46.1591566" lon="9.6417262"><ele>270.0</ele><time>2026-05-03T11:45:27.601Z</time></trkpt><trkpt lat="46.1591123" lon="9.6415491"><ele>270.0</ele><time>2026-05-03T11:45:28.6Z</time></trkpt><trkpt lat="46.1590783" lon="9.64138"><ele>270.0</ele><time>2026-05-03T11:45:29.605Z</time></trkpt><trkpt lat="46.1590564" lon="9.6412314"><ele>270.0</ele><time>2026-05-03T11:45:30.605Z</time></trkpt><trkpt lat="46.1590427" lon="9.6410794"><ele>270.0</ele><time>2026-05-03T11:45:31.601Z</time></trkpt><trkpt lat="46.1590378" lon="9.640939"><ele>270.0</ele><time>2026-05-03T11:45:32.606Z</time></trkpt><trkpt lat="46.159028" lon="9.6408057"><ele>270.0</ele><time>2026-05-03T11:45:33.605Z</time></trkpt><trkpt lat="46.1590285" lon="9.6406686"><ele>270.0</ele><time>2026-05-03T11:45:34.605Z</time></trkpt><trkpt lat="46.1590387" lon="9.6405275"><ele>270.0</ele><time>2026-05-03T11:45:35.609Z</time></trkpt><trkpt lat="46.1590529" lon="9.6403831"><ele>270.0</ele><time>2026-05-03T11:45:36.602Z</time></trkpt><trkpt lat="46.1590727" lon="9.6402374"><ele>270.0</ele><time>2026-05-03T11:45:37.603Z</time></trkpt><trkpt lat="46.1590966" lon="9.6400813"><ele>270.0</ele><time>2026-05-03T11:45:38.577Z</time></trkpt><trkpt lat="46.1591164" lon="9.6399273"><ele>270.0</ele><time>2026-05-03T11:45:39.578Z</time></trkpt><trkpt lat="46.1591364" lon="9.6397861"><ele>270.0</ele><time>2026-05-03T11:45:40.576Z</time></trkpt><trkpt lat="46.1591545" lon="9.639652"><ele>270.0</ele><time>2026-05-03T11:45:41.598Z</time></trkpt><trkpt lat="46.159167" lon="9.6395311"><ele>270.0</ele><time>2026-05-03T11:45:42.6Z</time></trkpt><trkpt lat="46.1591796" lon="9.6394225"><ele>270.0</ele><time>2026-05-03T11:45:43.577Z</time></trkpt><trkpt lat="46.1591936" lon="9.6393173"><ele>270.0</ele><time>2026-05-03T11:45:44.586Z</time></trkpt><trkpt lat="46.1592058" lon="9.6392056"><ele>270.0</ele><time>2026-05-03T11:45:45.574Z</time></trkpt><trkpt lat="46.1592224" lon="9.6390829"><ele>270.0</ele><time>2026-05-03T11:45:46.578Z</time></trkpt><trkpt lat="46.1592302" lon="9.6389428"><ele>270.2</ele><time>2026-05-03T11:45:47.573Z</time></trkpt><trkpt lat="46.159227" lon="9.6387791"><ele>270.4</ele><time>2026-05-03T11:45:48.578Z</time></trkpt><trkpt lat="46.1592096" lon="9.6386265"><ele>270.6</ele><time>2026-05-03T11:45:49.575Z</time></trkpt><trkpt lat="46.1591783" lon="9.6384906"><ele>270.8</ele><time>2026-05-03T11:45:50.578Z</time></trkpt><trkpt lat="46.1591335" lon="9.6383744"><ele>271.0</ele><time>2026-05-03T11:45:51.581Z</time></trkpt><trkpt lat="46.1590785" lon="9.6382705"><ele>270.6</ele><time>2026-05-03T11:45:52.581Z</time></trkpt><trkpt lat="46.1590081" lon="9.6381643"><ele>270.20000000000005</ele><time>2026-05-03T11:45:53.574Z</time></trkpt><trkpt lat="46.1589214" lon="9.6380723"><ele>269.79999999999995</ele><time>2026-05-03T11:45:54.581Z</time></trkpt><trkpt lat="46.1588266" lon="9.6379911"><ele>269.4</ele><time>2026-05-03T11:45:55.583Z</time></trkpt><trkpt lat="46.1587257" lon="9.637926"><ele>269.0</ele><time>2026-05-03T11:45:56.572Z</time></trkpt><trkpt lat="46.1586223" lon="9.6378821"><ele>269.0</ele><time>2026-05-03T11:45:57.58Z</time></trkpt><trkpt lat="46.1585082" lon="9.6378523"><ele>269.0</ele><time>2026-05-03T11:45:58.578Z</time></trkpt><trkpt lat="46.1583892" lon="9.6378241"><ele>269.0</ele><time>2026-05-03T11:45:59.574Z</time></trkpt><trkpt lat="46.1582655" lon="9.6377928"><ele>269.0</ele><time>2026-05-03T11:46:00.577Z</time></trkpt><trkpt lat="46.1581395" lon="9.6377496"><ele>269.25</ele><time>2026-05-03T11:46:01.572Z</time></trkpt><trkpt lat="46.1580135" lon="9.6376993"><ele>269.5</ele><time>2026-05-03T11:46:02.58Z</time></trkpt><trkpt lat="46.1578883" lon="9.6376541"><ele>269.75</ele><time>2026-05-03T11:46:03.571Z</time></trkpt><trkpt lat="46.1577645" lon="9.6376105"><ele>270.0</ele><time>2026-05-03T11:46:04.573Z</time></trkpt><trkpt lat="46.157644" lon="9.6375578"><ele>270.0</ele><time>2026-05-03T11:46:05.582Z</time></trkpt><trkpt lat="46.15752" lon="9.637509"><ele>270.0</ele><time>2026-05-03T11:46:06.572Z</time></trkpt><trkpt lat="46.1573975" lon="9.6374642"><ele>270.0</ele><time>2026-05-03T11:46:07.583Z</time></trkpt><trkpt lat="46.1572668" lon="9.6374162"><ele>270.0</ele><time>2026-05-03T11:46:08.573Z</time></trkpt><trkpt lat="46.1571381" lon="9.6373662"><ele>269.0</ele><time>2026-05-03T11:46:09.578Z</time></trkpt><trkpt lat="46.1570173" lon="9.6373314"><ele>268.0</ele><time>2026-05-03T11:46:10.576Z</time></trkpt><trkpt lat="46.1569085" lon="9.6372864"><ele>267.0</ele><time>2026-05-03T11:46:11.577Z</time></trkpt><trkpt lat="46.1568004" lon="9.6372354"><ele>266.0</ele><time>2026-05-03T11:46:12.571Z</time></trkpt><trkpt lat="46.1566973" lon="9.6371963"><ele>266.0</ele><time>2026-05-03T11:46:13.581Z</time></trkpt><trkpt lat="46.1566038" lon="9.6371304"><ele>266.0</ele><time>2026-05-03T11:46:14.574Z</time></trkpt><trkpt lat="46.1565101" lon="9.6370633"><ele>266.0</ele><time>2026-05-03T11:46:15.574Z</time></trkpt><trkpt lat="46.1564114" lon="9.6370118"><ele>266.0</ele><time>2026-05-03T11:46:16.594Z</time></trkpt><trkpt lat="46.1563175" lon="9.6369621"><ele>266.0</ele><time>2026-05-03T11:46:17.571Z</time></trkpt><trkpt lat="46.1562279" lon="9.6369152"><ele>266.0</ele><time>2026-05-03T11:46:18.575Z</time></trkpt><trkpt lat="46.1561431" lon="9.6368673"><ele>266.0</ele><time>2026-05-03T11:46:19.572Z</time></trkpt><trkpt lat="46.1560635" lon="9.6368241"><ele>266.0</ele><time>2026-05-03T11:46:20.604Z</time></trkpt><trkpt lat="46.1559886" lon="9.6367773"><ele>266.0</ele><time>2026-05-03T11:46:21.595Z</time></trkpt><trkpt lat="46.1559048" lon="9.6367133"><ele>266.0</ele><time>2026-05-03T11:46:22.577Z</time></trkpt><trkpt lat="46.155819" lon="9.6366389"><ele>266.0</ele><time>2026-05-03T11:46:23.579Z</time></trkpt><trkpt lat="46.1557428" lon="9.6365605"><ele>266.0</ele><time>2026-05-03T11:46:24.573Z</time></trkpt><trkpt lat="46.155673" lon="9.6364802"><ele>266.0</ele><time>2026-05-03T11:46:25.584Z</time></trkpt><trkpt lat="46.155612" lon="9.6364021"><ele>266.0</ele><time>2026-05-03T11:46:26.573Z</time></trkpt><trkpt lat="46.1555619" lon="9.6363342"><ele>266.0</ele><time>2026-05-03T11:46:27.582Z</time></trkpt><trkpt lat="46.155518" lon="9.6362663"><ele>266.0</ele><time>2026-05-03T11:46:28.581Z</time></trkpt><trkpt lat="46.1554739" lon="9.6362008"><ele>265.2</ele><time>2026-05-03T11:46:29.572Z</time></trkpt><trkpt lat="46.1554254" lon="9.6361074"><ele>264.40000000000003</ele><time>2026-05-03T11:46:30.593Z</time></trkpt><trkpt lat="46.1553661" lon="9.6359942"><ele>263.6</ele><time>2026-05-03T11:46:31.572Z</time></trkpt><trkpt lat="46.1553043" lon="9.6358606"><ele>262.8</ele><time>2026-05-03T11:46:32.579Z</time></trkpt><trkpt lat="46.1552474" lon="9.6357127"><ele>262.0</ele><time>2026-05-03T11:46:33.573Z</time></trkpt><trkpt lat="46.1552006" lon="9.6355545"><ele>262.0</ele><time>2026-05-03T11:46:34.571Z</time></trkpt><trkpt lat="46.1551611" lon="9.6353994"><ele>262.0</ele><time>2026-05-03T11:46:35.593Z</time></trkpt><trkpt lat="46.1551218" lon="9.6352407"><ele>262.0</ele><time>2026-05-03T11:46:36.597Z</time></trkpt><trkpt lat="46.1550765" lon="9.6350608"><ele>262.0</ele><time>2026-05-03T11:46:37.593Z</time></trkpt><trkpt lat="46.1550233" lon="9.6348869"><ele>262.0</ele><time>2026-05-03T11:46:38.571Z</time></trkpt><trkpt lat="46.154972" lon="9.6347259"><ele>262.0</ele><time>2026-05-03T11:46:39.578Z</time></trkpt><trkpt lat="46.1549149" lon="9.6345821"><ele>262.0</ele><time>2026-05-03T11:46:40.572Z</time></trkpt><trkpt lat="46.1548495" lon="9.6344562"><ele>262.0</ele><time>2026-05-03T11:46:41.568Z</time></trkpt><trkpt lat="46.1547691" lon="9.634335"><ele>261.75</ele><time>2026-05-03T11:46:42.568Z</time></trkpt><trkpt lat="46.1546709" lon="9.6342149"><ele>261.5</ele><time>2026-05-03T11:46:43.568Z</time></trkpt><trkpt lat="46.1545611" lon="9.6341005"><ele>261.25</ele><time>2026-05-03T11:46:44.577Z</time></trkpt><trkpt lat="46.1544465" lon="9.6339972"><ele>261.0</ele><time>2026-05-03T11:46:45.569Z</time></trkpt><trkpt lat="46.1543249" lon="9.6339217"><ele>261.0</ele><time>2026-05-03T11:46:46.577Z</time></trkpt><trkpt lat="46.1541952" lon="9.6338561"><ele>261.0</ele><time>2026-05-03T11:46:47.567Z</time></trkpt><trkpt lat="46.1540482" lon="9.6337966"><ele>261.0</ele><time>2026-05-03T11:46:48.567Z</time></trkpt><trkpt lat="46.1538445" lon="9.633741"><ele>260.3333333333333</ele><time>2026-05-03T11:46:49.571Z</time></trkpt><trkpt lat="46.1536745" lon="9.6336908"><ele>259.66666666666663</ele><time>2026-05-03T11:46:50.572Z</time></trkpt><trkpt lat="46.1535155" lon="9.6336237"><ele>259.0</ele><time>2026-05-03T11:46:51.581Z</time></trkpt><trkpt lat="46.153357" lon="9.6335718"><ele>260.3333333333333</ele><time>2026-05-03T11:46:52.575Z</time></trkpt><trkpt lat="46.1531912" lon="9.6335071"><ele>261.6666666666667</ele><time>2026-05-03T11:46:53.576Z</time></trkpt><trkpt lat="46.1530253" lon="9.6334485"><ele>263.0</ele><time>2026-05-03T11:46:54.571Z</time></trkpt><trkpt lat="46.1528487" lon="9.6333826"><ele>263.0</ele><time>2026-05-03T11:46:55.575Z</time></trkpt><trkpt lat="46.1526937" lon="9.6333025"><ele>263.0</ele><time>2026-05-03T11:46:56.571Z</time></trkpt><trkpt lat="46.1525277" lon="9.6332308"><ele>263.0</ele><time>2026-05-03T11:46:57.572Z</time></trkpt><trkpt lat="46.1523524" lon="9.6331734"><ele>264.0</ele><time>2026-05-03T11:46:58.572Z</time></trkpt><trkpt lat="46.1521925" lon="9.6330956"><ele>265.0</ele><time>2026-05-03T11:46:59.573Z</time></trkpt><trkpt lat="46.1520379" lon="9.6330376"><ele>266.0</ele><time>2026-05-03T11:47:00.573Z</time></trkpt><trkpt lat="46.1518964" lon="9.6329919"><ele>266.0</ele><time>2026-05-03T11:47:01.572Z</time></trkpt><trkpt lat="46.1517811" lon="9.6329357"><ele>266.0</ele><time>2026-05-03T11:47:02.571Z</time></trkpt><trkpt lat="46.1516711" lon="9.6328902"><ele>266.0</ele><time>2026-05-03T11:47:03.572Z</time></trkpt><trkpt lat="46.1515718" lon="9.6328428"><ele>266.0</ele><time>2026-05-03T11:47:04.577Z</time></trkpt><trkpt lat="46.1514626" lon="9.6328075"><ele>266.8</ele><time>2026-05-03T11:47:05.57Z</time></trkpt><trkpt lat="46.1513498" lon="9.6327577"><ele>267.6</ele><time>2026-05-03T11:47:06.58Z</time></trkpt><trkpt lat="46.1512528" lon="9.6327143"><ele>268.4</ele><time>2026-05-03T11:47:07.569Z</time></trkpt><trkpt lat="46.1511704" lon="9.6326668"><ele>269.2</ele><time>2026-05-03T11:47:08.57Z</time></trkpt><trkpt lat="46.1510935" lon="9.6326113"><ele>270.0</ele><time>2026-05-03T11:47:09.569Z</time></trkpt><trkpt lat="46.1510154" lon="9.6325389"><ele>270.0</ele><time>2026-05-03T11:47:10.567Z</time></trkpt><trkpt lat="46.1509462" lon="9.6324488"><ele>270.0</ele><time>2026-05-03T11:47:11.572Z</time></trkpt><trkpt lat="46.1508874" lon="9.6323329"><ele>270.0</ele><time>2026-05-03T11:47:12.57Z</time></trkpt><trkpt lat="46.1508302" lon="9.6321975"><ele>270.0</ele><time>2026-05-03T11:47:13.568Z</time></trkpt><trkpt lat="46.1507771" lon="9.6320416"><ele>270.0</ele><time>2026-05-03T11:47:14.573Z</time></trkpt><trkpt lat="46.1507326" lon="9.6318646"><ele>269.25</ele><time>2026-05-03T11:47:15.567Z</time></trkpt><trkpt lat="46.150698" lon="9.6316697"><ele>268.5</ele><time>2026-05-03T11:47:16.569Z</time></trkpt><trkpt lat="46.150679" lon="9.631462"><ele>267.75</ele><time>2026-05-03T11:47:17.567Z</time></trkpt><trkpt lat="46.1506762" lon="9.6312246"><ele>267.0</ele><time>2026-05-03T11:47:18.574Z</time></trkpt><trkpt lat="46.1506649" lon="9.6309916"><ele>266.75</ele><time>2026-05-03T11:47:19.572Z</time></trkpt><trkpt lat="46.1506578" lon="9.6307727"><ele>266.5</ele><time>2026-05-03T11:47:20.572Z</time></trkpt><trkpt lat="46.1506483" lon="9.630563"><ele>266.25</ele><time>2026-05-03T11:47:21.571Z</time></trkpt><trkpt lat="46.1506353" lon="9.6303689"><ele>266.0</ele><time>2026-05-03T11:47:22.579Z</time></trkpt><trkpt lat="46.1506291" lon="9.6301571"><ele>264.5</ele><time>2026-05-03T11:47:23.572Z</time></trkpt><trkpt lat="46.150628" lon="9.6299461"><ele>263.0</ele><time>2026-05-03T11:47:24.579Z</time></trkpt><trkpt lat="46.1506166" lon="9.6297328"><ele>261.5</ele><time>2026-05-03T11:47:25.579Z</time></trkpt><trkpt lat="46.1506085" lon="9.6295113"><ele>260.0</ele><time>2026-05-03T11:47:26.568Z</time></trkpt><trkpt lat="46.1505998" lon="9.6292962"><ele>265.0</ele><time>2026-05-03T11:47:27.574Z</time></trkpt><trkpt lat="46.150588" lon="9.6290835"><ele>270.0</ele><time>2026-05-03T11:47:28.568Z</time></trkpt><trkpt lat="46.150575" lon="9.62886"><ele>275.0</ele><time>2026-05-03T11:47:29.571Z</time></trkpt><trkpt lat="46.1505632" lon="9.6286177"><ele>297.0</ele><time>2026-05-03T11:47:30.565Z</time></trkpt><trkpt lat="46.1505589" lon="9.6283808"><ele>319.0</ele><time>2026-05-03T11:47:31.562Z</time></trkpt><trkpt lat="46.1505634" lon="9.6281422"><ele>341.0</ele><time>2026-05-03T11:47:32.561Z</time></trkpt><trkpt lat="46.1505848" lon="9.627909"><ele>371.5</ele><time>2026-05-03T11:47:33.551Z</time></trkpt><trkpt lat="46.1505573" lon="9.6274514"><ele>402.0</ele><time>2026-05-03T11:47:35.509Z</time></trkpt><trkpt lat="46.1467311" lon="9.5989262"><ele>352.3333333333333</ele><time>2026-05-03T11:49:20.575Z</time></trkpt><trkpt lat="46.1468071" lon="9.5987051"><ele>302.66666666666663</ele><time>2026-05-03T11:49:21.578Z</time></trkpt><trkpt lat="46.1468497" lon="9.5984376"><ele>253.0</ele><time>2026-05-03T11:49:22.582Z</time></trkpt><trkpt lat="46.1469064" lon="9.5982"><ele>251.66666666666666</ele><time>2026-05-03T11:49:23.578Z</time></trkpt><trkpt lat="46.1469567" lon="9.5979463"><ele>250.33333333333331</ele><time>2026-05-03T11:49:24.587Z</time></trkpt><trkpt lat="46.1470086" lon="9.5976996"><ele>249.0</ele><time>2026-05-03T11:49:25.592Z</time></trkpt><trkpt lat="46.1470572" lon="9.59744"><ele>249.0</ele><time>2026-05-03T11:49:26.583Z</time></trkpt><trkpt lat="46.1471136" lon="9.5971644"><ele>249.0</ele><time>2026-05-03T11:49:27.587Z</time></trkpt><trkpt lat="46.1471634" lon="9.5968841"><ele>249.0</ele><time>2026-05-03T11:49:28.584Z</time></trkpt><trkpt lat="46.1472209" lon="9.59661"><ele>249.66666666666669</ele><time>2026-05-03T11:49:29.587Z</time></trkpt><trkpt lat="46.1472845" lon="9.5963451"><ele>250.33333333333334</ele><time>2026-05-03T11:49:30.594Z</time></trkpt><trkpt lat="46.1473486" lon="9.5960861"><ele>251.0</ele><time>2026-05-03T11:49:31.581Z</time></trkpt><trkpt lat="46.1474125" lon="9.5958181"><ele>259.0</ele><time>2026-05-03T11:49:32.589Z</time></trkpt><trkpt lat="46.1474904" lon="9.5955473"><ele>267.0</ele><time>2026-05-03T11:49:33.583Z</time></trkpt><trkpt lat="46.1475804" lon="9.595264"><ele>275.0</ele><time>2026-05-03T11:49:34.578Z</time></trkpt><trkpt lat="46.1476599" lon="9.5949718"><ele>275.0</ele><time>2026-05-03T11:49:35.583Z</time></trkpt><trkpt lat="46.1477511" lon="9.5946576"><ele>275.0</ele><time>2026-05-03T11:49:36.579Z</time></trkpt><trkpt lat="46.1478352" lon="9.5943503"><ele>273.5</ele><time>2026-05-03T11:49:37.609Z</time></trkpt><trkpt lat="46.1479283" lon="9.5940427"><ele>272.0</ele><time>2026-05-03T11:49:38.582Z</time></trkpt><trkpt lat="46.1480261" lon="9.5937195"><ele>270.5</ele><time>2026-05-03T11:49:39.578Z</time></trkpt><trkpt lat="46.1481213" lon="9.5933959"><ele>269.0</ele><time>2026-05-03T11:49:40.583Z</time></trkpt><trkpt lat="46.1482324" lon="9.5930647"><ele>283.0</ele><time>2026-05-03T11:49:41.578Z</time></trkpt><trkpt lat="46.1483238" lon="9.5927318"><ele>297.0</ele><time>2026-05-03T11:49:42.571Z</time></trkpt><trkpt lat="46.1484292" lon="9.5923831"><ele>297.0</ele><time>2026-05-03T11:49:43.563Z</time></trkpt><trkpt lat="46.1485022" lon="9.5920843"><ele>297.0</ele><time>2026-05-03T11:49:44.563Z</time></trkpt><trkpt lat="46.1486265" lon="9.591723"><ele>303.5</ele><time>2026-05-03T11:49:45.559Z</time></trkpt><trkpt lat="46.1487578" lon="9.5913682"><ele>310.0</ele><time>2026-05-03T11:49:46.554Z</time></trkpt><trkpt lat="46.148855" lon="9.5910356"><ele>227.0</ele><time>2026-05-03T11:49:47.526Z</time></trkpt><trkpt lat="46.1449027" lon="9.5582505"><ele>225.0</ele><time>2026-05-03T11:52:03.579Z</time></trkpt><trkpt lat="46.1447506" lon="9.5581029"><ele>223.0</ele><time>2026-05-03T11:52:04.572Z</time></trkpt><trkpt lat="46.1446" lon="9.5579427"><ele>221.0</ele><time>2026-05-03T11:52:05.59Z</time></trkpt><trkpt lat="46.1444546" lon="9.5577896"><ele>220.66666666666669</ele><time>2026-05-03T11:52:06.588Z</time></trkpt><trkpt lat="46.144277" lon="9.557605"><ele>220.33333333333331</ele><time>2026-05-03T11:52:07.58Z</time></trkpt><trkpt lat="46.1440982" lon="9.5574261"><ele>220.0</ele><time>2026-05-03T11:52:08.593Z</time></trkpt><trkpt lat="46.1439244" lon="9.5572318"><ele>220.0</ele><time>2026-05-03T11:52:09.591Z</time></trkpt><trkpt lat="46.1437506" lon="9.5570265"><ele>220.0</ele><time>2026-05-03T11:52:10.585Z</time></trkpt><trkpt lat="46.1435962" lon="9.5568355"><ele>220.0</ele><time>2026-05-03T11:52:11.592Z</time></trkpt><trkpt lat="46.1434456" lon="9.5566397"><ele>220.0</ele><time>2026-05-03T11:52:12.592Z</time></trkpt><trkpt lat="46.1432978" lon="9.5564362"><ele>220.0</ele><time>2026-05-03T11:52:13.582Z</time></trkpt><trkpt lat="46.1431614" lon="9.5562463"><ele>220.0</ele><time>2026-05-03T11:52:14.595Z</time></trkpt><trkpt lat="46.1430341" lon="9.556061"><ele>219.66666666666666</ele><time>2026-05-03T11:52:15.59Z</time></trkpt><trkpt lat="46.1429023" lon="9.5558429"><ele>219.33333333333331</ele><time>2026-05-03T11:52:16.583Z</time></trkpt><trkpt lat="46.1427686" lon="9.5556354"><ele>219.0</ele><time>2026-05-03T11:52:17.592Z</time></trkpt><trkpt lat="46.1426332" lon="9.5554019"><ele>219.33333333333331</ele><time>2026-05-03T11:52:18.589Z</time></trkpt><trkpt lat="46.1424972" lon="9.5551693"><ele>219.66666666666666</ele><time>2026-05-03T11:52:19.58Z</time></trkpt><trkpt lat="46.142368" lon="9.5549404"><ele>220.0</ele><time>2026-05-03T11:52:20.593Z</time></trkpt><trkpt lat="46.1422383" lon="9.5547017"><ele>220.66666666666666</ele><time>2026-05-03T11:52:21.59Z</time></trkpt><trkpt lat="46.1421095" lon="9.5544571"><ele>221.33333333333331</ele><time>2026-05-03T11:52:22.584Z</time></trkpt><trkpt lat="46.1419943" lon="9.5542143"><ele>222.0</ele><time>2026-05-03T11:52:23.587Z</time></trkpt><trkpt lat="46.141874" lon="9.5539658"><ele>222.0</ele><time>2026-05-03T11:52:24.591Z</time></trkpt><trkpt lat="46.1417519" lon="9.553709"><ele>222.0</ele><time>2026-05-03T11:52:25.587Z</time></trkpt><trkpt lat="46.1416285" lon="9.5534256"><ele>222.0</ele><time>2026-05-03T11:52:26.662Z</time></trkpt><trkpt lat="46.1415063" lon="9.5531455"><ele>222.0</ele><time>2026-05-03T11:52:27.594Z</time></trkpt><trkpt lat="46.1414087" lon="9.5528561"><ele>222.0</ele><time>2026-05-03T11:52:28.587Z</time></trkpt><trkpt lat="46.1413161" lon="9.5525808"><ele>222.0</ele><time>2026-05-03T11:52:29.62Z</time></trkpt><trkpt lat="46.1412397" lon="9.5523013"><ele>221.33333333333331</ele><time>2026-05-03T11:52:30.589Z</time></trkpt><trkpt lat="46.1411658" lon="9.5520316"><ele>220.66666666666666</ele><time>2026-05-03T11:52:31.59Z</time></trkpt><trkpt lat="46.141101" lon="9.5517511"><ele>220.0</ele><time>2026-05-03T11:52:32.588Z</time></trkpt><trkpt lat="46.1410326" lon="9.5514741"><ele>218.66666666666666</ele><time>2026-05-03T11:52:33.589Z</time></trkpt><trkpt lat="46.140977" lon="9.5511927"><ele>217.33333333333331</ele><time>2026-05-03T11:52:34.581Z</time></trkpt><trkpt lat="46.1409135" lon="9.5509286"><ele>216.0</ele><time>2026-05-03T11:52:35.589Z</time></trkpt><trkpt lat="46.1408477" lon="9.550663"><ele>216.0</ele><time>2026-05-03T11:52:36.592Z</time></trkpt><trkpt lat="46.1407798" lon="9.5504108"><ele>216.0</ele><time>2026-05-03T11:52:37.582Z</time></trkpt><trkpt lat="46.1407126" lon="9.5501598"><ele>216.0</ele><time>2026-05-03T11:52:38.596Z</time></trkpt><trkpt lat="46.1406549" lon="9.5498823"><ele>216.33333333333331</ele><time>2026-05-03T11:52:39.597Z</time></trkpt><trkpt lat="46.1405776" lon="9.5496161"><ele>216.66666666666666</ele><time>2026-05-03T11:52:40.591Z</time></trkpt><trkpt lat="46.1405049" lon="9.5493529"><ele>217.0</ele><time>2026-05-03T11:52:41.597Z</time></trkpt><trkpt lat="46.140425" lon="9.5490983"><ele>217.0</ele><time>2026-05-03T11:52:42.592Z</time></trkpt><trkpt lat="46.1403489" lon="9.5488566"><ele>217.0</ele><time>2026-05-03T11:52:43.591Z</time></trkpt><trkpt lat="46.1402671" lon="9.5486188"><ele>217.0</ele><time>2026-05-03T11:52:44.593Z</time></trkpt><trkpt lat="46.1401924" lon="9.5483798"><ele>217.33333333333331</ele><time>2026-05-03T11:52:45.592Z</time></trkpt><trkpt lat="46.1401039" lon="9.5481375"><ele>217.66666666666669</ele><time>2026-05-03T11:52:46.599Z</time></trkpt><trkpt lat="46.1400056" lon="9.5478852"><ele>218.0</ele><time>2026-05-03T11:52:47.589Z</time></trkpt><trkpt lat="46.1398777" lon="9.5476242"><ele>218.5</ele><time>2026-05-03T11:52:48.597Z</time></trkpt><trkpt lat="46.1397497" lon="9.5473494"><ele>219.0</ele><time>2026-05-03T11:52:49.588Z</time></trkpt><trkpt lat="46.1396131" lon="9.5470619"><ele>218.0</ele><time>2026-05-03T11:52:50.595Z</time></trkpt><trkpt lat="46.1394725" lon="9.5467542"><ele>217.0</ele><time>2026-05-03T11:52:51.593Z</time></trkpt><trkpt lat="46.1393305" lon="9.5464442"><ele>217.0</ele><time>2026-05-03T11:52:52.592Z</time></trkpt><trkpt lat="46.1391939" lon="9.5461301"><ele>217.0</ele><time>2026-05-03T11:52:53.598Z</time></trkpt><trkpt lat="46.1390545" lon="9.5458155"><ele>217.5</ele><time>2026-05-03T11:52:54.59Z</time></trkpt><trkpt lat="46.138946" lon="9.5455263"><ele>218.0</ele><time>2026-05-03T11:52:55.595Z</time></trkpt><trkpt lat="46.1388333" lon="9.54525"><ele>217.33333333333334</ele><time>2026-05-03T11:52:56.591Z</time></trkpt><trkpt lat="46.1387124" lon="9.5449903"><ele>216.66666666666669</ele><time>2026-05-03T11:52:57.596Z</time></trkpt><trkpt lat="46.1385923" lon="9.5447204"><ele>216.0</ele><time>2026-05-03T11:52:58.595Z</time></trkpt><trkpt lat="46.1384813" lon="9.5444456"><ele>215.66666666666669</ele><time>2026-05-03T11:52:59.595Z</time></trkpt><trkpt lat="46.1383864" lon="9.5441731"><ele>215.33333333333334</ele><time>2026-05-03T11:53:00.596Z</time></trkpt><trkpt lat="46.1382905" lon="9.5438996"><ele>215.0</ele><time>2026-05-03T11:53:01.59Z</time></trkpt><trkpt lat="46.1382065" lon="9.5436296"><ele>215.0</ele><time>2026-05-03T11:53:02.594Z</time></trkpt><trkpt lat="46.1381137" lon="9.5433419"><ele>215.0</ele><time>2026-05-03T11:53:03.592Z</time></trkpt><trkpt lat="46.1380377" lon="9.5430467"><ele>215.0</ele><time>2026-05-03T11:53:04.596Z</time></trkpt><trkpt lat="46.1379529" lon="9.5427279"><ele>215.0</ele><time>2026-05-03T11:53:05.593Z</time></trkpt><trkpt lat="46.1378725" lon="9.5424057"><ele>215.0</ele><time>2026-05-03T11:53:06.589Z</time></trkpt><trkpt lat="46.1377989" lon="9.5420601"><ele>213.5</ele><time>2026-05-03T11:53:07.592Z</time></trkpt><trkpt lat="46.1377195" lon="9.5417106"><ele>212.0</ele><time>2026-05-03T11:53:08.595Z</time></trkpt><trkpt lat="46.1376558" lon="9.541357"><ele>212.5</ele><time>2026-05-03T11:53:09.597Z</time></trkpt><trkpt lat="46.1375974" lon="9.5410001"><ele>213.0</ele><time>2026-05-03T11:53:10.588Z</time></trkpt><trkpt lat="46.1375346" lon="9.5406543"><ele>213.0</ele><time>2026-05-03T11:53:11.586Z</time></trkpt><trkpt lat="46.1374862" lon="9.5403133"><ele>213.0</ele><time>2026-05-03T11:53:12.582Z</time></trkpt><trkpt lat="46.1374434" lon="9.5399854"><ele>213.0</ele><time>2026-05-03T11:53:13.583Z</time></trkpt><trkpt lat="46.1374105" lon="9.5396483"><ele>213.0</ele><time>2026-05-03T11:53:14.585Z</time></trkpt><trkpt lat="46.1373882" lon="9.5393178"><ele>213.33333333333331</ele><time>2026-05-03T11:53:15.583Z</time></trkpt><trkpt lat="46.1373632" lon="9.5389991"><ele>213.66666666666666</ele><time>2026-05-03T11:53:16.589Z</time></trkpt><trkpt lat="46.1373494" lon="9.5386807"><ele>214.0</ele><time>2026-05-03T11:53:17.586Z</time></trkpt><trkpt lat="46.1373415" lon="9.5383587"><ele>214.0</ele><time>2026-05-03T11:53:18.586Z</time></trkpt><trkpt lat="46.13733" lon="9.5380496"><ele>214.0</ele><time>2026-05-03T11:53:19.577Z</time></trkpt><trkpt lat="46.1373261" lon="9.5377467"><ele>214.0</ele><time>2026-05-03T11:53:20.585Z</time></trkpt><trkpt lat="46.1373338" lon="9.5374319"><ele>213.66666666666666</ele><time>2026-05-03T11:53:21.583Z</time></trkpt><trkpt lat="46.1373378" lon="9.5371113"><ele>213.33333333333331</ele><time>2026-05-03T11:53:22.586Z</time></trkpt><trkpt lat="46.1373592" lon="9.5367988"><ele>213.0</ele><time>2026-05-03T11:53:23.58Z</time></trkpt><trkpt lat="46.137364" lon="9.5364889"><ele>213.0</ele><time>2026-05-03T11:53:24.584Z</time></trkpt><trkpt lat="46.1373721" lon="9.5361775"><ele>213.0</ele><time>2026-05-03T11:53:25.587Z</time></trkpt><trkpt lat="46.1373831" lon="9.5358648"><ele>213.0</ele><time>2026-05-03T11:53:26.587Z</time></trkpt><trkpt lat="46.1373957" lon="9.5355436"><ele>215.0</ele><time>2026-05-03T11:53:27.582Z</time></trkpt><trkpt lat="46.1374068" lon="9.5352318"><ele>217.0</ele><time>2026-05-03T11:53:28.588Z</time></trkpt><trkpt lat="46.1374264" lon="9.5349161"><ele>219.0</ele><time>2026-05-03T11:53:29.583Z</time></trkpt><trkpt lat="46.13746" lon="9.5345903"><ele>218.0</ele><time>2026-05-03T11:53:30.589Z</time></trkpt><trkpt lat="46.1375007" lon="9.5342773"><ele>217.0</ele><time>2026-05-03T11:53:31.588Z</time></trkpt><trkpt lat="46.1375434" lon="9.5339502"><ele>215.66666666666666</ele><time>2026-05-03T11:53:32.585Z</time></trkpt><trkpt lat="46.1375666" lon="9.5336286"><ele>214.33333333333331</ele><time>2026-05-03T11:53:33.585Z</time></trkpt><trkpt lat="46.1375742" lon="9.5333295"><ele>213.0</ele><time>2026-05-03T11:53:34.582Z</time></trkpt><trkpt lat="46.1375956" lon="9.5330262"><ele>213.66666666666669</ele><time>2026-05-03T11:53:35.582Z</time></trkpt><trkpt lat="46.1376409" lon="9.5327149"><ele>214.33333333333334</ele><time>2026-05-03T11:53:36.584Z</time></trkpt><trkpt lat="46.1376607" lon="9.5324108"><ele>215.0</ele><time>2026-05-03T11:53:37.582Z</time></trkpt><trkpt lat="46.1377004" lon="9.5320923"><ele>215.5</ele><time>2026-05-03T11:53:38.579Z</time></trkpt><trkpt lat="46.1377388" lon="9.5317705"><ele>216.0</ele><time>2026-05-03T11:53:39.593Z</time></trkpt><trkpt lat="46.1377669" lon="9.5314459"><ele>216.0</ele><time>2026-05-03T11:53:40.589Z</time></trkpt><trkpt lat="46.1377864" lon="9.5311079"><ele>216.0</ele><time>2026-05-03T11:53:41.592Z</time></trkpt><trkpt lat="46.1378065" lon="9.5307626"><ele>216.0</ele><time>2026-05-03T11:53:42.593Z</time></trkpt><trkpt lat="46.1378277" lon="9.5304166"><ele>216.0</ele><time>2026-05-03T11:53:43.585Z</time></trkpt><trkpt lat="46.1378507" lon="9.5300786"><ele>215.0</ele><time>2026-05-03T11:53:44.592Z</time></trkpt><trkpt lat="46.1378615" lon="9.5297327"><ele>214.0</ele><time>2026-05-03T11:53:45.591Z</time></trkpt><trkpt lat="46.137863" lon="9.5293998"><ele>213.0</ele><time>2026-05-03T11:53:46.591Z</time></trkpt><trkpt lat="46.1378723" lon="9.5290669"><ele>212.0</ele><time>2026-05-03T11:53:47.594Z</time></trkpt><trkpt lat="46.1378812" lon="9.5287402"><ele>212.0</ele><time>2026-05-03T11:53:48.592Z</time></trkpt><trkpt lat="46.137885" lon="9.528427"><ele>212.0</ele><time>2026-05-03T11:53:49.596Z</time></trkpt><trkpt lat="46.1378919" lon="9.5281198"><ele>212.0</ele><time>2026-05-03T11:53:50.59Z</time></trkpt><trkpt lat="46.1378807" lon="9.5278094"><ele>212.0</ele><time>2026-05-03T11:53:51.594Z</time></trkpt><trkpt lat="46.1378814" lon="9.5274964"><ele>212.0</ele><time>2026-05-03T11:53:52.587Z</time></trkpt><trkpt lat="46.1378817" lon="9.5271988"><ele>212.0</ele><time>2026-05-03T11:53:53.594Z</time></trkpt><trkpt lat="46.1378654" lon="9.5268903"><ele>211.33333333333334</ele><time>2026-05-03T11:53:54.59Z</time></trkpt><trkpt lat="46.1378544" lon="9.526586"><ele>210.66666666666669</ele><time>2026-05-03T11:53:55.598Z</time></trkpt><trkpt lat="46.1378437" lon="9.5262925"><ele>210.0</ele><time>2026-05-03T11:53:56.59Z</time></trkpt><trkpt lat="46.1378361" lon="9.5259914"><ele>209.66666666666669</ele><time>2026-05-03T11:53:57.596Z</time></trkpt><trkpt lat="46.1378269" lon="9.525702"><ele>209.33333333333334</ele><time>2026-05-03T11:53:58.588Z</time></trkpt><trkpt lat="46.1378238" lon="9.5254038"><ele>209.0</ele><time>2026-05-03T11:53:59.592Z</time></trkpt><trkpt lat="46.1378129" lon="9.5251012"><ele>208.66666666666669</ele><time>2026-05-03T11:54:00.587Z</time></trkpt><trkpt lat="46.1378086" lon="9.5248113"><ele>208.33333333333331</ele><time>2026-05-03T11:54:01.594Z</time></trkpt><trkpt lat="46.1377976" lon="9.5245052"><ele>208.0</ele><time>2026-05-03T11:54:02.593Z</time></trkpt><trkpt lat="46.1377981" lon="9.5241917"><ele>208.66666666666666</ele><time>2026-05-03T11:54:03.591Z</time></trkpt><trkpt lat="46.1377989" lon="9.5238877"><ele>209.33333333333331</ele><time>2026-05-03T11:54:04.585Z</time></trkpt><trkpt lat="46.1378024" lon="9.5235925"><ele>210.0</ele><time>2026-05-03T11:54:05.588Z</time></trkpt><trkpt lat="46.1378061" lon="9.5233086"><ele>210.0</ele><time>2026-05-03T11:54:06.586Z</time></trkpt><trkpt lat="46.137815" lon="9.5230111"><ele>210.0</ele><time>2026-05-03T11:54:07.592Z</time></trkpt><trkpt lat="46.1378215" lon="9.5227049"><ele>210.0</ele><time>2026-05-03T11:54:08.586Z</time></trkpt><trkpt lat="46.1378448" lon="9.5223883"><ele>208.5</ele><time>2026-05-03T11:54:09.593Z</time></trkpt><trkpt lat="46.1378636" lon="9.5220565"><ele>207.0</ele><time>2026-05-03T11:54:10.586Z</time></trkpt><trkpt lat="46.1378726" lon="9.5217236"><ele>207.0</ele><time>2026-05-03T11:54:11.595Z</time></trkpt><trkpt lat="46.1378981" lon="9.5213916"><ele>207.0</ele><time>2026-05-03T11:54:12.586Z</time></trkpt><trkpt lat="46.1379148" lon="9.5210364"><ele>208.0</ele><time>2026-05-03T11:54:13.588Z</time></trkpt><trkpt lat="46.1379517" lon="9.5206883"><ele>209.0</ele><time>2026-05-03T11:54:14.589Z</time></trkpt><trkpt lat="46.1379872" lon="9.5203161"><ele>209.0</ele><time>2026-05-03T11:54:15.593Z</time></trkpt><trkpt lat="46.1380207" lon="9.5199543"><ele>209.0</ele><time>2026-05-03T11:54:16.589Z</time></trkpt><trkpt lat="46.1380681" lon="9.5195899"><ele>209.0</ele><time>2026-05-03T11:54:17.589Z</time></trkpt><trkpt lat="46.1381272" lon="9.5192312"><ele>209.0</ele><time>2026-05-03T11:54:18.612Z</time></trkpt><trkpt lat="46.138185" lon="9.5188655"><ele>209.0</ele><time>2026-05-03T11:54:19.605Z</time></trkpt><trkpt lat="46.1382308" lon="9.5185202"><ele>209.0</ele><time>2026-05-03T11:54:20.617Z</time></trkpt><trkpt lat="46.1383053" lon="9.5181754"><ele>209.5</ele><time>2026-05-03T11:54:21.586Z</time></trkpt><trkpt lat="46.1383786" lon="9.5178308"><ele>210.0</ele><time>2026-05-03T11:54:22.608Z</time></trkpt><trkpt lat="46.1384491" lon="9.5174998"><ele>210.0</ele><time>2026-05-03T11:54:23.591Z</time></trkpt><trkpt lat="46.1385562" lon="9.5171605"><ele>210.0</ele><time>2026-05-03T11:54:24.591Z</time></trkpt><trkpt lat="46.1386706" lon="9.5168341"><ele>210.5</ele><time>2026-05-03T11:54:25.59Z</time></trkpt><trkpt lat="46.138782" lon="9.5165038"><ele>211.0</ele><time>2026-05-03T11:54:26.59Z</time></trkpt><trkpt lat="46.1388907" lon="9.5162032"><ele>209.5</ele><time>2026-05-03T11:54:27.584Z</time></trkpt><trkpt lat="46.1390265" lon="9.5158809"><ele>208.0</ele><time>2026-05-03T11:54:28.586Z</time></trkpt><trkpt lat="46.1391596" lon="9.5155687"><ele>208.0</ele><time>2026-05-03T11:54:29.586Z</time></trkpt><trkpt lat="46.1392871" lon="9.5152492"><ele>208.0</ele><time>2026-05-03T11:54:30.586Z</time></trkpt><trkpt lat="46.1394071" lon="9.5149464"><ele>208.0</ele><time>2026-05-03T11:54:31.587Z</time></trkpt><trkpt lat="46.1395402" lon="9.5146561"><ele>208.0</ele><time>2026-05-03T11:54:32.589Z</time></trkpt><trkpt lat="46.1396935" lon="9.5143534"><ele>208.0</ele><time>2026-05-03T11:54:33.584Z</time></trkpt><trkpt lat="46.1398479" lon="9.5140644"><ele>208.0</ele><time>2026-05-03T11:54:34.594Z</time></trkpt><trkpt lat="46.1400169" lon="9.5137751"><ele>209.0</ele><time>2026-05-03T11:54:35.588Z</time></trkpt><trkpt lat="46.1401866" lon="9.5134891"><ele>210.0</ele><time>2026-05-03T11:54:36.589Z</time></trkpt><trkpt lat="46.140352" lon="9.513196"><ele>210.0</ele><time>2026-05-03T11:54:37.588Z</time></trkpt><trkpt lat="46.1405227" lon="9.5129064"><ele>210.0</ele><time>2026-05-03T11:54:38.588Z</time></trkpt><trkpt lat="46.1406995" lon="9.5126345"><ele>208.0</ele><time>2026-05-03T11:54:39.59Z</time></trkpt><trkpt lat="46.1408819" lon="9.5123838"><ele>206.0</ele><time>2026-05-03T11:54:40.584Z</time></trkpt><trkpt lat="46.1410385" lon="9.512159"><ele>206.33333333333334</ele><time>2026-05-03T11:54:41.595Z</time></trkpt><trkpt lat="46.1411971" lon="9.5119376"><ele>206.66666666666669</ele><time>2026-05-03T11:54:42.587Z</time></trkpt><trkpt lat="46.1413506" lon="9.5117339"><ele>207.0</ele><time>2026-05-03T11:54:43.588Z</time></trkpt><trkpt lat="46.1414919" lon="9.5115256"><ele>207.33333333333331</ele><time>2026-05-03T11:54:44.587Z</time></trkpt><trkpt lat="46.1416348" lon="9.5113206"><ele>207.66666666666666</ele><time>2026-05-03T11:54:45.593Z</time></trkpt><trkpt lat="46.1417786" lon="9.5111178"><ele>208.0</ele><time>2026-05-03T11:54:46.589Z</time></trkpt><trkpt lat="46.1419218" lon="9.5109075"><ele>208.0</ele><time>2026-05-03T11:54:47.599Z</time></trkpt><trkpt lat="46.1420695" lon="9.5106949"><ele>208.0</ele><time>2026-05-03T11:54:48.599Z</time></trkpt><trkpt lat="46.14222" lon="9.5104763"><ele>208.0</ele><time>2026-05-03T11:54:49.601Z</time></trkpt><trkpt lat="46.1423585" lon="9.5102546"><ele>207.66666666666666</ele><time>2026-05-03T11:54:50.592Z</time></trkpt><trkpt lat="46.142513" lon="9.5100479"><ele>207.33333333333331</ele><time>2026-05-03T11:54:51.603Z</time></trkpt><trkpt lat="46.1426672" lon="9.5098391"><ele>207.0</ele><time>2026-05-03T11:54:52.594Z</time></trkpt><trkpt lat="46.1428168" lon="9.5096315"><ele>207.33333333333331</ele><time>2026-05-03T11:54:53.599Z</time></trkpt><trkpt lat="46.1429741" lon="9.5094284"><ele>207.66666666666666</ele><time>2026-05-03T11:54:54.598Z</time></trkpt><trkpt lat="46.1431246" lon="9.5092186"><ele>208.0</ele><time>2026-05-03T11:54:55.607Z</time></trkpt><trkpt lat="46.1432495" lon="9.509001"><ele>208.0</ele><time>2026-05-03T11:54:56.601Z</time></trkpt><trkpt lat="46.1433842" lon="9.508778"><ele>208.0</ele><time>2026-05-03T11:54:57.608Z</time></trkpt><trkpt lat="46.1435282" lon="9.5085736"><ele>208.0</ele><time>2026-05-03T11:54:58.598Z</time></trkpt><trkpt lat="46.1436722" lon="9.5083608"><ele>207.66666666666666</ele><time>2026-05-03T11:54:59.603Z</time></trkpt><trkpt lat="46.1438136" lon="9.5081584"><ele>207.33333333333331</ele><time>2026-05-03T11:55:00.602Z</time></trkpt><trkpt lat="46.1439625" lon="9.5079395"><ele>207.0</ele><time>2026-05-03T11:55:01.603Z</time></trkpt><trkpt lat="46.1441053" lon="9.507714"><ele>207.0</ele><time>2026-05-03T11:55:02.599Z</time></trkpt><trkpt lat="46.144249" lon="9.5074779"><ele>207.0</ele><time>2026-05-03T11:55:03.616Z</time></trkpt><trkpt lat="46.1443956" lon="9.5072511"><ele>207.0</ele><time>2026-05-03T11:55:04.599Z</time></trkpt><trkpt lat="46.1445413" lon="9.5070179"><ele>208.0</ele><time>2026-05-03T11:55:05.606Z</time></trkpt><trkpt lat="46.1446873" lon="9.5067678"><ele>209.0</ele><time>2026-05-03T11:55:06.603Z</time></trkpt><trkpt lat="46.1448279" lon="9.5065117"><ele>209.0</ele><time>2026-05-03T11:55:07.605Z</time></trkpt><trkpt lat="46.1449733" lon="9.5062507"><ele>209.0</ele><time>2026-05-03T11:55:08.607Z</time></trkpt><trkpt lat="46.1451184" lon="9.5059805"><ele>209.0</ele><time>2026-05-03T11:55:09.605Z</time></trkpt><trkpt lat="46.1452531" lon="9.5057299"><ele>209.0</ele><time>2026-05-03T11:55:10.607Z</time></trkpt><trkpt lat="46.1453912" lon="9.5054599"><ele>207.5</ele><time>2026-05-03T11:55:11.6Z</time></trkpt><trkpt lat="46.1455415" lon="9.5051845"><ele>206.0</ele><time>2026-05-03T11:55:12.602Z</time></trkpt><trkpt lat="46.1456802" lon="9.5048997"><ele>206.0</ele><time>2026-05-03T11:55:13.599Z</time></trkpt><trkpt lat="46.1457978" lon="9.5046243"><ele>206.0</ele><time>2026-05-03T11:55:14.601Z</time></trkpt><trkpt lat="46.1458998" lon="9.5043518"><ele>206.0</ele><time>2026-05-03T11:55:15.595Z</time></trkpt><trkpt lat="46.146016" lon="9.5040547"><ele>207.0</ele><time>2026-05-03T11:55:16.601Z</time></trkpt><trkpt lat="46.1461109" lon="9.5037341"><ele>208.0</ele><time>2026-05-03T11:55:17.606Z</time></trkpt><trkpt lat="46.146237" lon="9.5033842"><ele>208.0</ele><time>2026-05-03T11:55:18.604Z</time></trkpt><trkpt lat="46.1463562" lon="9.5030262"><ele>208.0</ele><time>2026-05-03T11:55:19.604Z</time></trkpt><trkpt lat="46.1464786" lon="9.502671"><ele>207.5</ele><time>2026-05-03T11:55:20.608Z</time></trkpt><trkpt lat="46.1465914" lon="9.5022947"><ele>207.0</ele><time>2026-05-03T11:55:21.606Z</time></trkpt><trkpt lat="46.1467034" lon="9.5019176"><ele>207.0</ele><time>2026-05-03T11:55:22.606Z</time></trkpt><trkpt lat="46.1468026" lon="9.501536"><ele>207.0</ele><time>2026-05-03T11:55:23.605Z</time></trkpt><trkpt lat="46.1468811" lon="9.5011662"><ele>207.0</ele><time>2026-05-03T11:55:24.61Z</time></trkpt><trkpt lat="46.1469796" lon="9.5007727"><ele>207.0</ele><time>2026-05-03T11:55:25.604Z</time></trkpt><trkpt lat="46.1470469" lon="9.5003833"><ele>207.0</ele><time>2026-05-03T11:55:26.609Z</time></trkpt><trkpt lat="46.1471129" lon="9.4999857"><ele>207.0</ele><time>2026-05-03T11:55:27.608Z</time></trkpt><trkpt lat="46.1471837" lon="9.4995917"><ele>208.5</ele><time>2026-05-03T11:55:28.608Z</time></trkpt><trkpt lat="46.147246" lon="9.4992032"><ele>210.0</ele><time>2026-05-03T11:55:29.608Z</time></trkpt><trkpt lat="46.1472911" lon="9.4988219"><ele>210.0</ele><time>2026-05-03T11:55:30.62Z</time></trkpt><trkpt lat="46.1473402" lon="9.4984172"><ele>210.0</ele><time>2026-05-03T11:55:31.606Z</time></trkpt><trkpt lat="46.1473809" lon="9.4980193"><ele>208.0</ele><time>2026-05-03T11:55:32.609Z</time></trkpt><trkpt lat="46.1474135" lon="9.4976185"><ele>206.0</ele><time>2026-05-03T11:55:33.608Z</time></trkpt><trkpt lat="46.1474387" lon="9.4972234"><ele>206.0</ele><time>2026-05-03T11:55:34.625Z</time></trkpt><trkpt lat="46.1474571" lon="9.4968264"><ele>206.0</ele><time>2026-05-03T11:55:35.605Z</time></trkpt><trkpt lat="46.1474684" lon="9.4964387"><ele>206.0</ele><time>2026-05-03T11:55:36.614Z</time></trkpt><trkpt lat="46.1474688" lon="9.4960478"><ele>206.0</ele><time>2026-05-03T11:55:37.6Z</time></trkpt><trkpt lat="46.1474662" lon="9.4956669"><ele>206.0</ele><time>2026-05-03T11:55:38.61Z</time></trkpt><trkpt lat="46.1474471" lon="9.4952783"><ele>206.0</ele><time>2026-05-03T11:55:39.603Z</time></trkpt><trkpt lat="46.1474315" lon="9.4949045"><ele>206.0</ele><time>2026-05-03T11:55:40.6Z</time></trkpt><trkpt lat="46.1474071" lon="9.4945325"><ele>206.0</ele><time>2026-05-03T11:55:41.605Z</time></trkpt><trkpt lat="46.1473742" lon="9.4941617"><ele>206.0</ele><time>2026-05-03T11:55:42.611Z</time></trkpt><trkpt lat="46.1473285" lon="9.4937863"><ele>206.0</ele><time>2026-05-03T11:55:43.606Z</time></trkpt><trkpt lat="46.1472781" lon="9.4934196"><ele>206.5</ele><time>2026-05-03T11:55:44.613Z</time></trkpt><trkpt lat="46.1472112" lon="9.4930512"><ele>207.0</ele><time>2026-05-03T11:55:45.607Z</time></trkpt><trkpt lat="46.1471457" lon="9.492691"><ele>208.0</ele><time>2026-05-03T11:55:46.611Z</time></trkpt><trkpt lat="46.1470812" lon="9.4923279"><ele>209.0</ele><time>2026-05-03T11:55:47.605Z</time></trkpt><trkpt lat="46.1470157" lon="9.4919644"><ele>209.0</ele><time>2026-05-03T11:55:48.612Z</time></trkpt><trkpt lat="46.1469402" lon="9.4916137"><ele>209.0</ele><time>2026-05-03T11:55:49.602Z</time></trkpt><trkpt lat="46.1468602" lon="9.4912543"><ele>208.0</ele><time>2026-05-03T11:55:50.613Z</time></trkpt><trkpt lat="46.1467742" lon="9.4909014"><ele>207.0</ele><time>2026-05-03T11:55:51.614Z</time></trkpt><trkpt lat="46.1467132" lon="9.4905541"><ele>207.5</ele><time>2026-05-03T11:55:52.606Z</time></trkpt><trkpt lat="46.1466304" lon="9.4901918"><ele>208.0</ele><time>2026-05-03T11:55:53.611Z</time></trkpt><trkpt lat="46.1465533" lon="9.4898367"><ele>207.5</ele><time>2026-05-03T11:55:54.609Z</time></trkpt><trkpt lat="46.1464663" lon="9.4894926"><ele>207.0</ele><time>2026-05-03T11:55:55.616Z</time></trkpt><trkpt lat="46.1463769" lon="9.4891495"><ele>207.0</ele><time>2026-05-03T11:55:56.607Z</time></trkpt><trkpt lat="46.1462906" lon="9.4888006"><ele>207.0</ele><time>2026-05-03T11:55:57.609Z</time></trkpt><trkpt lat="46.1462122" lon="9.4884532"><ele>206.5</ele><time>2026-05-03T11:55:58.609Z</time></trkpt><trkpt lat="46.1461274" lon="9.4881058"><ele>206.0</ele><time>2026-05-03T11:55:59.609Z</time></trkpt><trkpt lat="46.1460447" lon="9.4877478"><ele>206.0</ele><time>2026-05-03T11:56:00.614Z</time></trkpt><trkpt lat="46.1459679" lon="9.4873904"><ele>206.0</ele><time>2026-05-03T11:56:01.61Z</time></trkpt><trkpt lat="46.1458909" lon="9.4870304"><ele>205.5</ele><time>2026-05-03T11:56:02.619Z</time></trkpt><trkpt lat="46.1458221" lon="9.4866684"><ele>205.0</ele><time>2026-05-03T11:56:03.613Z</time></trkpt><trkpt lat="46.1457451" lon="9.4863073"><ele>205.5</ele><time>2026-05-03T11:56:04.607Z</time></trkpt><trkpt lat="46.145683" lon="9.4859423"><ele>206.0</ele><time>2026-05-03T11:56:05.611Z</time></trkpt><trkpt lat="46.1456273" lon="9.4855796"><ele>205.5</ele><time>2026-05-03T11:56:06.609Z</time></trkpt><trkpt lat="46.1455636" lon="9.4852197"><ele>205.0</ele><time>2026-05-03T11:56:07.607Z</time></trkpt><trkpt lat="46.1455218" lon="9.4848615"><ele>203.5</ele><time>2026-05-03T11:56:08.609Z</time></trkpt><trkpt lat="46.1454722" lon="9.4845234"><ele>202.0</ele><time>2026-05-03T11:56:09.612Z</time></trkpt><trkpt lat="46.1454258" lon="9.4841914"><ele>202.0</ele><time>2026-05-03T11:56:10.612Z</time></trkpt><trkpt lat="46.1453916" lon="9.4838503"><ele>202.0</ele><time>2026-05-03T11:56:11.613Z</time></trkpt><trkpt lat="46.1453614" lon="9.4835149"><ele>202.0</ele><time>2026-05-03T11:56:12.61Z</time></trkpt><trkpt lat="46.1453398" lon="9.4831817"><ele>202.0</ele><time>2026-05-03T11:56:13.601Z</time></trkpt><trkpt lat="46.1453278" lon="9.4828441"><ele>202.5</ele><time>2026-05-03T11:56:14.606Z</time></trkpt><trkpt lat="46.1453117" lon="9.482507"><ele>203.0</ele><time>2026-05-03T11:56:15.61Z</time></trkpt><trkpt lat="46.1452913" lon="9.4821696"><ele>203.0</ele><time>2026-05-03T11:56:16.597Z</time></trkpt><trkpt lat="46.1452733" lon="9.481831"><ele>203.0</ele><time>2026-05-03T11:56:17.615Z</time></trkpt><trkpt lat="46.1452653" lon="9.4815011"><ele>203.5</ele><time>2026-05-03T11:56:18.611Z</time></trkpt><trkpt lat="46.145264" lon="9.4811555"><ele>204.0</ele><time>2026-05-03T11:56:19.6Z</time></trkpt><trkpt lat="46.1452542" lon="9.4808149"><ele>204.0</ele><time>2026-05-03T11:56:20.611Z</time></trkpt><trkpt lat="46.1452432" lon="9.4804771"><ele>204.0</ele><time>2026-05-03T11:56:21.601Z</time></trkpt><trkpt lat="46.1452223" lon="9.4801307"><ele>204.0</ele><time>2026-05-03T11:56:22.617Z</time></trkpt><trkpt lat="46.1452169" lon="9.4797947"><ele>204.0</ele><time>2026-05-03T11:56:23.602Z</time></trkpt><trkpt lat="46.1452072" lon="9.4794497"><ele>204.0</ele><time>2026-05-03T11:56:24.595Z</time></trkpt><trkpt lat="46.1452001" lon="9.4791145"><ele>204.0</ele><time>2026-05-03T11:56:25.617Z</time></trkpt><trkpt lat="46.1451899" lon="9.478776"><ele>204.5</ele><time>2026-05-03T11:56:26.611Z</time></trkpt><trkpt lat="46.1451792" lon="9.4784162"><ele>205.0</ele><time>2026-05-03T11:56:27.614Z</time></trkpt><trkpt lat="46.1451811" lon="9.4780604"><ele>205.0</ele><time>2026-05-03T11:56:28.603Z</time></trkpt><trkpt lat="46.145177" lon="9.4777009"><ele>205.0</ele><time>2026-05-03T11:56:29.606Z</time></trkpt><trkpt lat="46.1451676" lon="9.4773467"><ele>207.0</ele><time>2026-05-03T11:56:30.606Z</time></trkpt><trkpt lat="46.1451622" lon="9.4769962"><ele>209.0</ele><time>2026-05-03T11:56:31.608Z</time></trkpt><trkpt lat="46.1451512" lon="9.4766458"><ele>209.0</ele><time>2026-05-03T11:56:32.608Z</time></trkpt><trkpt lat="46.1451466" lon="9.4762872"><ele>209.0</ele><time>2026-05-03T11:56:33.609Z</time></trkpt><trkpt lat="46.1451373" lon="9.4759239"><ele>211.5</ele><time>2026-05-03T11:56:34.606Z</time></trkpt><trkpt lat="46.1451169" lon="9.4755631"><ele>214.0</ele><time>2026-05-03T11:56:35.611Z</time></trkpt><trkpt lat="46.1451052" lon="9.4752108"><ele>214.0</ele><time>2026-05-03T11:56:36.606Z</time></trkpt><trkpt lat="46.1450991" lon="9.4748543"><ele>214.0</ele><time>2026-05-03T11:56:37.615Z</time></trkpt><trkpt lat="46.145096" lon="9.4745018"><ele>212.5</ele><time>2026-05-03T11:56:38.608Z</time></trkpt><trkpt lat="46.1450844" lon="9.474145"><ele>211.0</ele><time>2026-05-03T11:56:39.615Z</time></trkpt><trkpt lat="46.1450743" lon="9.4738083"><ele>211.5</ele><time>2026-05-03T11:56:40.607Z</time></trkpt><trkpt lat="46.1450769" lon="9.4734664"><ele>212.0</ele><time>2026-05-03T11:56:41.609Z</time></trkpt><trkpt lat="46.145069" lon="9.4731326"><ele>210.5</ele><time>2026-05-03T11:56:42.604Z</time></trkpt><trkpt lat="46.1450613" lon="9.4727941"><ele>209.0</ele><time>2026-05-03T11:56:43.603Z</time></trkpt><trkpt lat="46.1450516" lon="9.4724596"><ele>209.0</ele><time>2026-05-03T11:56:44.605Z</time></trkpt><trkpt lat="46.1450443" lon="9.4721277"><ele>209.0</ele><time>2026-05-03T11:56:45.605Z</time></trkpt><trkpt lat="46.1450353" lon="9.4718045"><ele>209.0</ele><time>2026-05-03T11:56:46.604Z</time></trkpt><trkpt lat="46.1450241" lon="9.4714778"><ele>209.0</ele><time>2026-05-03T11:56:47.604Z</time></trkpt><trkpt lat="46.145002" lon="9.471148"><ele>207.5</ele><time>2026-05-03T11:56:48.601Z</time></trkpt><trkpt lat="46.1449996" lon="9.4708031"><ele>206.0</ele><time>2026-05-03T11:56:49.604Z</time></trkpt><trkpt lat="46.1449938" lon="9.4704689"><ele>204.5</ele><time>2026-05-03T11:56:50.603Z</time></trkpt><trkpt lat="46.1449833" lon="9.4701334"><ele>203.0</ele><time>2026-05-03T11:56:51.604Z</time></trkpt><trkpt lat="46.1449831" lon="9.4698078"><ele>203.5</ele><time>2026-05-03T11:56:52.596Z</time></trkpt><trkpt lat="46.1449858" lon="9.4694741"><ele>204.0</ele><time>2026-05-03T11:56:53.605Z</time></trkpt><trkpt lat="46.1449703" lon="9.4691452"><ele>204.0</ele><time>2026-05-03T11:56:54.602Z</time></trkpt><trkpt lat="46.1449506" lon="9.4688071"><ele>204.0</ele><time>2026-05-03T11:56:55.612Z</time></trkpt><trkpt lat="46.1449413" lon="9.4684811"><ele>204.0</ele><time>2026-05-03T11:56:56.602Z</time></trkpt><trkpt lat="46.1449268" lon="9.4681575"><ele>204.0</ele><time>2026-05-03T11:56:57.605Z</time></trkpt><trkpt lat="46.1449123" lon="9.4678177"><ele>204.0</ele><time>2026-05-03T11:56:58.605Z</time></trkpt><trkpt lat="46.144897" lon="9.4674887"><ele>204.0</ele><time>2026-05-03T11:56:59.607Z</time></trkpt><trkpt lat="46.1448864" lon="9.4671598"><ele>204.0</ele><time>2026-05-03T11:57:00.61Z</time></trkpt><trkpt lat="46.1448795" lon="9.4668175"><ele>204.0</ele><time>2026-05-03T11:57:01.613Z</time></trkpt><trkpt lat="46.1448489" lon="9.4664852"><ele>204.5</ele><time>2026-05-03T11:57:02.604Z</time></trkpt><trkpt lat="46.1448364" lon="9.4661574"><ele>205.0</ele><time>2026-05-03T11:57:03.614Z</time></trkpt><trkpt lat="46.1448201" lon="9.4658166"><ele>205.0</ele><time>2026-05-03T11:57:04.604Z</time></trkpt><trkpt lat="46.1447969" lon="9.4654738"><ele>205.0</ele><time>2026-05-03T11:57:05.606Z</time></trkpt><trkpt lat="46.1447696" lon="9.465138"><ele>205.0</ele><time>2026-05-03T11:57:06.607Z</time></trkpt><trkpt lat="46.1447407" lon="9.4648041"><ele>205.0</ele><time>2026-05-03T11:57:07.603Z</time></trkpt><trkpt lat="46.1447033" lon="9.4644632"><ele>204.5</ele><time>2026-05-03T11:57:08.62Z</time></trkpt><trkpt lat="46.1446522" lon="9.4641185"><ele>204.0</ele><time>2026-05-03T11:57:09.604Z</time></trkpt><trkpt lat="46.144611" lon="9.4637711"><ele>203.0</ele><time>2026-05-03T11:57:10.631Z</time></trkpt><trkpt lat="46.1445705" lon="9.4634215"><ele>202.0</ele><time>2026-05-03T11:57:11.61Z</time></trkpt><trkpt lat="46.1445313" lon="9.4630765"><ele>202.5</ele><time>2026-05-03T11:57:12.612Z</time></trkpt><trkpt lat="46.1444769" lon="9.4627336"><ele>203.0</ele><time>2026-05-03T11:57:13.604Z</time></trkpt><trkpt lat="46.1444247" lon="9.4623951"><ele>202.5</ele><time>2026-05-03T11:57:14.612Z</time></trkpt><trkpt lat="46.1443546" lon="9.4620561"><ele>202.0</ele><time>2026-05-03T11:57:15.609Z</time></trkpt><trkpt lat="46.1442862" lon="9.4617238"><ele>202.0</ele><time>2026-05-03T11:57:16.615Z</time></trkpt><trkpt lat="46.1442097" lon="9.4613729"><ele>202.0</ele><time>2026-05-03T11:57:17.606Z</time></trkpt><trkpt lat="46.1441363" lon="9.4610453"><ele>202.0</ele><time>2026-05-03T11:57:18.61Z</time></trkpt><trkpt lat="46.1440679" lon="9.4607035"><ele>202.0</ele><time>2026-05-03T11:57:19.607Z</time></trkpt><trkpt lat="46.1439846" lon="9.460365"><ele>203.0</ele><time>2026-05-03T11:57:20.609Z</time></trkpt><trkpt lat="46.1439006" lon="9.4600283"><ele>204.0</ele><time>2026-05-03T11:57:21.606Z</time></trkpt><trkpt lat="46.1438167" lon="9.4596946"><ele>205.0</ele><time>2026-05-03T11:57:22.61Z</time></trkpt><trkpt lat="46.1437296" lon="9.4593406"><ele>206.0</ele><time>2026-05-03T11:57:23.612Z</time></trkpt><trkpt lat="46.1436452" lon="9.4590078"><ele>205.0</ele><time>2026-05-03T11:57:24.605Z</time></trkpt><trkpt lat="46.1435558" lon="9.4586617"><ele>204.0</ele><time>2026-05-03T11:57:25.619Z</time></trkpt><trkpt lat="46.1434569" lon="9.4583171"><ele>204.0</ele><time>2026-05-03T11:57:26.612Z</time></trkpt><trkpt lat="46.1433557" lon="9.4579739"><ele>204.0</ele><time>2026-05-03T11:57:27.606Z</time></trkpt><trkpt lat="46.1432494" lon="9.4576244"><ele>203.5</ele><time>2026-05-03T11:57:28.606Z</time></trkpt><trkpt lat="46.1431468" lon="9.4572798"><ele>203.0</ele><time>2026-05-03T11:57:29.608Z</time></trkpt><trkpt lat="46.1430667" lon="9.4569385"><ele>203.0</ele><time>2026-05-03T11:57:30.613Z</time></trkpt><trkpt lat="46.1429844" lon="9.456586"><ele>203.0</ele><time>2026-05-03T11:57:31.615Z</time></trkpt><trkpt lat="46.1428952" lon="9.4562464"><ele>203.0</ele><time>2026-05-03T11:57:32.61Z</time></trkpt><trkpt lat="46.1428125" lon="9.4558965"><ele>203.0</ele><time>2026-05-03T11:57:33.618Z</time></trkpt><trkpt lat="46.1427348" lon="9.455558"><ele>203.0</ele><time>2026-05-03T11:57:34.616Z</time></trkpt><trkpt lat="46.1426645" lon="9.455217"><ele>203.0</ele><time>2026-05-03T11:57:35.617Z</time></trkpt><trkpt lat="46.1425919" lon="9.4548713"><ele>202.5</ele><time>2026-05-03T11:57:36.622Z</time></trkpt><trkpt lat="46.1425159" lon="9.4545241"><ele>202.0</ele><time>2026-05-03T11:57:37.607Z</time></trkpt><trkpt lat="46.1424319" lon="9.4541707"><ele>203.0</ele><time>2026-05-03T11:57:38.615Z</time></trkpt><trkpt lat="46.1423625" lon="9.4538164"><ele>204.0</ele><time>2026-05-03T11:57:39.619Z</time></trkpt><trkpt lat="46.1423057" lon="9.4534601"><ele>204.0</ele><time>2026-05-03T11:57:40.611Z</time></trkpt><trkpt lat="46.1422518" lon="9.4531029"><ele>204.0</ele><time>2026-05-03T11:57:41.619Z</time></trkpt><trkpt lat="46.1422071" lon="9.4527433"><ele>203.5</ele><time>2026-05-03T11:57:42.618Z</time></trkpt><trkpt lat="46.1421634" lon="9.4523918"><ele>203.0</ele><time>2026-05-03T11:57:43.611Z</time></trkpt><trkpt lat="46.1421091" lon="9.4520324"><ele>203.0</ele><time>2026-05-03T11:57:44.619Z</time></trkpt><trkpt lat="46.1420705" lon="9.4516751"><ele>203.0</ele><time>2026-05-03T11:57:45.614Z</time></trkpt><trkpt lat="46.1420445" lon="9.4513191"><ele>203.0</ele><time>2026-05-03T11:57:46.618Z</time></trkpt><trkpt lat="46.1420226" lon="9.4509423"><ele>203.0</ele><time>2026-05-03T11:57:47.615Z</time></trkpt><trkpt lat="46.1419967" lon="9.4505716"><ele>202.5</ele><time>2026-05-03T11:57:48.622Z</time></trkpt><trkpt lat="46.1419812" lon="9.450198"><ele>202.0</ele><time>2026-05-03T11:57:49.605Z</time></trkpt><trkpt lat="46.1419631" lon="9.4498455"><ele>202.0</ele><time>2026-05-03T11:57:50.619Z</time></trkpt><trkpt lat="46.1419537" lon="9.4494765"><ele>202.0</ele><time>2026-05-03T11:57:51.621Z</time></trkpt><trkpt lat="46.1419526" lon="9.449112"><ele>201.5</ele><time>2026-05-03T11:57:52.621Z</time></trkpt><trkpt lat="46.1419522" lon="9.448728"><ele>201.0</ele><time>2026-05-03T11:57:53.621Z</time></trkpt><trkpt lat="46.1419524" lon="9.4483665"><ele>201.0</ele><time>2026-05-03T11:57:54.615Z</time></trkpt><trkpt lat="46.1419668" lon="9.4480072"><ele>201.0</ele><time>2026-05-03T11:57:55.619Z</time></trkpt><trkpt lat="46.1419846" lon="9.4476407"><ele>201.0</ele><time>2026-05-03T11:57:56.615Z</time></trkpt><trkpt lat="46.1419985" lon="9.4472784"><ele>201.0</ele><time>2026-05-03T11:57:57.608Z</time></trkpt><trkpt lat="46.142022" lon="9.4469109"><ele>201.0</ele><time>2026-05-03T11:57:58.618Z</time></trkpt><trkpt lat="46.1420469" lon="9.4465483"><ele>201.0</ele><time>2026-05-03T11:57:59.613Z</time></trkpt><trkpt lat="46.1420836" lon="9.4461778"><ele>201.5</ele><time>2026-05-03T11:58:00.62Z</time></trkpt><trkpt lat="46.1421149" lon="9.4458179"><ele>202.0</ele><time>2026-05-03T11:58:01.615Z</time></trkpt><trkpt lat="46.1421514" lon="9.4454571"><ele>202.0</ele><time>2026-05-03T11:58:02.618Z</time></trkpt><trkpt lat="46.1421919" lon="9.4451089"><ele>202.0</ele><time>2026-05-03T11:58:03.613Z</time></trkpt><trkpt lat="46.1422551" lon="9.4447502"><ele>201.5</ele><time>2026-05-03T11:58:04.607Z</time></trkpt><trkpt lat="46.1423111" lon="9.4443915"><ele>201.0</ele><time>2026-05-03T11:58:05.614Z</time></trkpt><trkpt lat="46.1423674" lon="9.4440391"><ele>201.5</ele><time>2026-05-03T11:58:06.61Z</time></trkpt><trkpt lat="46.142435" lon="9.4436844"><ele>202.0</ele><time>2026-05-03T11:58:07.605Z</time></trkpt><trkpt lat="46.1425047" lon="9.4433242"><ele>202.0</ele><time>2026-05-03T11:58:08.612Z</time></trkpt><trkpt lat="46.1425728" lon="9.4429735"><ele>202.0</ele><time>2026-05-03T11:58:09.61Z</time></trkpt><trkpt lat="46.1426454" lon="9.4426305"><ele>201.5</ele><time>2026-05-03T11:58:10.615Z</time></trkpt><trkpt lat="46.1427117" lon="9.442278"><ele>201.0</ele><time>2026-05-03T11:58:11.614Z</time></trkpt><trkpt lat="46.1427862" lon="9.4419214"><ele>201.0</ele><time>2026-05-03T11:58:12.608Z</time></trkpt><trkpt lat="46.142871" lon="9.4415688"><ele>201.0</ele><time>2026-05-03T11:58:13.615Z</time></trkpt><trkpt lat="46.1429504" lon="9.4412272"><ele>200.5</ele><time>2026-05-03T11:58:14.607Z</time></trkpt><trkpt lat="46.1430343" lon="9.4408746"><ele>200.0</ele><time>2026-05-03T11:58:15.611Z</time></trkpt><trkpt lat="46.1431084" lon="9.4405228"><ele>200.0</ele><time>2026-05-03T11:58:16.612Z</time></trkpt><trkpt lat="46.143186" lon="9.4401706"><ele>200.0</ele><time>2026-05-03T11:58:17.615Z</time></trkpt><trkpt lat="46.1432707" lon="9.4398231"><ele>201.0</ele><time>2026-05-03T11:58:18.612Z</time></trkpt><trkpt lat="46.1433485" lon="9.43948"><ele>202.0</ele><time>2026-05-03T11:58:19.621Z</time></trkpt><trkpt lat="46.1434306" lon="9.4391182"><ele>201.0</ele><time>2026-05-03T11:58:20.607Z</time></trkpt><trkpt lat="46.1435216" lon="9.4387682"><ele>200.0</ele><time>2026-05-03T11:58:21.614Z</time></trkpt><trkpt lat="46.1436197" lon="9.4384068"><ele>200.0</ele><time>2026-05-03T11:58:22.615Z</time></trkpt><trkpt lat="46.1437019" lon="9.4380483"><ele>200.0</ele><time>2026-05-03T11:58:23.614Z</time></trkpt><trkpt lat="46.1437713" lon="9.4377024"><ele>200.0</ele><time>2026-05-03T11:58:24.622Z</time></trkpt><trkpt lat="46.1438524" lon="9.4373535"><ele>200.0</ele><time>2026-05-03T11:58:25.617Z</time></trkpt><trkpt lat="46.1439328" lon="9.4369941"><ele>200.0</ele><time>2026-05-03T11:58:26.617Z</time></trkpt><trkpt lat="46.1440089" lon="9.4366286"><ele>200.0</ele><time>2026-05-03T11:58:27.612Z</time></trkpt><trkpt lat="46.1440848" lon="9.4362704"><ele>200.5</ele><time>2026-05-03T11:58:28.618Z</time></trkpt><trkpt lat="46.1441628" lon="9.4359143"><ele>201.0</ele><time>2026-05-03T11:58:29.613Z</time></trkpt><trkpt lat="46.1442527" lon="9.4355582"><ele>201.0</ele><time>2026-05-03T11:58:30.617Z</time></trkpt><trkpt lat="46.1443425" lon="9.4352036"><ele>201.0</ele><time>2026-05-03T11:58:31.611Z</time></trkpt><trkpt lat="46.1444221" lon="9.4348702"><ele>201.0</ele><time>2026-05-03T11:58:32.62Z</time></trkpt><trkpt lat="46.1444821" lon="9.4345356"><ele>201.0</ele><time>2026-05-03T11:58:33.61Z</time></trkpt><trkpt lat="46.1445425" lon="9.4342147"><ele>201.0</ele><time>2026-05-03T11:58:34.612Z</time></trkpt><trkpt lat="46.1446201" lon="9.4338902"><ele>201.0</ele><time>2026-05-03T11:58:35.613Z</time></trkpt><trkpt lat="46.1446915" lon="9.4335783"><ele>200.5</ele><time>2026-05-03T11:58:36.617Z</time></trkpt><trkpt lat="46.1447445" lon="9.4332563"><ele>200.0</ele><time>2026-05-03T11:58:37.619Z</time></trkpt><trkpt lat="46.1448026" lon="9.432941"><ele>199.5</ele><time>2026-05-03T11:58:38.615Z</time></trkpt><trkpt lat="46.1448559" lon="9.432622"><ele>199.0</ele><time>2026-05-03T11:58:39.623Z</time></trkpt><trkpt lat="46.144899" lon="9.4323014"><ele>200.0</ele><time>2026-05-03T11:58:40.611Z</time></trkpt><trkpt lat="46.1449531" lon="9.4319827"><ele>201.0</ele><time>2026-05-03T11:58:41.616Z</time></trkpt><trkpt lat="46.1450173" lon="9.431655"><ele>201.0</ele><time>2026-05-03T11:58:42.612Z</time></trkpt><trkpt lat="46.1450518" lon="9.4313151"><ele>201.0</ele><time>2026-05-03T11:58:43.611Z</time></trkpt><trkpt lat="46.1451087" lon="9.4309883"><ele>201.0</ele><time>2026-05-03T11:58:44.615Z</time></trkpt><trkpt lat="46.1451354" lon="9.4306541"><ele>201.0</ele><time>2026-05-03T11:58:45.617Z</time></trkpt><trkpt lat="46.1451767" lon="9.4303177"><ele>200.5</ele><time>2026-05-03T11:58:46.612Z</time></trkpt><trkpt lat="46.1452176" lon="9.4299758"><ele>200.0</ele><time>2026-05-03T11:58:47.625Z</time></trkpt><trkpt lat="46.1452376" lon="9.4296299"><ele>200.0</ele><time>2026-05-03T11:58:48.615Z</time></trkpt><trkpt lat="46.1452524" lon="9.4292861"><ele>200.0</ele><time>2026-05-03T11:58:49.617Z</time></trkpt><trkpt lat="46.1452609" lon="9.4289228"><ele>200.5</ele><time>2026-05-03T11:58:50.62Z</time></trkpt><trkpt lat="46.1452682" lon="9.4285604"><ele>201.0</ele><time>2026-05-03T11:58:51.62Z</time></trkpt><trkpt lat="46.1452707" lon="9.4282114"><ele>201.5</ele><time>2026-05-03T11:58:52.612Z</time></trkpt><trkpt lat="46.1452664" lon="9.4278503"><ele>202.0</ele><time>2026-05-03T11:58:53.623Z</time></trkpt><trkpt lat="46.1452672" lon="9.4274998"><ele>202.0</ele><time>2026-05-03T11:58:54.614Z</time></trkpt><trkpt lat="46.1452539" lon="9.427149"><ele>202.0</ele><time>2026-05-03T11:58:55.623Z</time></trkpt><trkpt lat="46.1452344" lon="9.4267962"><ele>201.5</ele><time>2026-05-03T11:58:56.616Z</time></trkpt><trkpt lat="46.1452034" lon="9.426452"><ele>201.0</ele><time>2026-05-03T11:58:57.623Z</time></trkpt><trkpt lat="46.1451768" lon="9.4261096"><ele>200.5</ele><time>2026-05-03T11:58:58.616Z</time></trkpt><trkpt lat="46.145158" lon="9.4257662"><ele>200.0</ele><time>2026-05-03T11:58:59.619Z</time></trkpt><trkpt lat="46.1451182" lon="9.4254242"><ele>200.0</ele><time>2026-05-03T11:59:00.616Z</time></trkpt><trkpt lat="46.1450944" lon="9.4250895"><ele>200.0</ele><time>2026-05-03T11:59:01.622Z</time></trkpt><trkpt lat="46.1450535" lon="9.4247673"><ele>201.0</ele><time>2026-05-03T11:59:02.627Z</time></trkpt><trkpt lat="46.1450175" lon="9.4244392"><ele>202.0</ele><time>2026-05-03T11:59:03.624Z</time></trkpt><trkpt lat="46.1449773" lon="9.4241147"><ele>201.5</ele><time>2026-05-03T11:59:04.617Z</time></trkpt><trkpt lat="46.1449235" lon="9.4237919"><ele>201.0</ele><time>2026-05-03T11:59:05.623Z</time></trkpt><trkpt lat="46.1448883" lon="9.4234736"><ele>200.66666666666669</ele><time>2026-05-03T11:59:06.624Z</time></trkpt><trkpt lat="46.1448472" lon="9.4231513"><ele>200.33333333333334</ele><time>2026-05-03T11:59:07.619Z</time></trkpt><trkpt lat="46.1448104" lon="9.4228347"><ele>200.0</ele><time>2026-05-03T11:59:08.623Z</time></trkpt><trkpt lat="46.1447589" lon="9.4225116"><ele>200.0</ele><time>2026-05-03T11:59:09.629Z</time></trkpt><trkpt lat="46.1447099" lon="9.42219"><ele>200.0</ele><time>2026-05-03T11:59:10.622Z</time></trkpt><trkpt lat="46.144674" lon="9.4218756"><ele>200.0</ele><time>2026-05-03T11:59:11.631Z</time></trkpt><trkpt lat="46.1446352" lon="9.4215539"><ele>199.33333333333334</ele><time>2026-05-03T11:59:12.626Z</time></trkpt><trkpt lat="46.1446038" lon="9.4212417"><ele>198.66666666666669</ele><time>2026-05-03T11:59:13.617Z</time></trkpt><trkpt lat="46.1445617" lon="9.4209381"><ele>198.0</ele><time>2026-05-03T11:59:14.625Z</time></trkpt><trkpt lat="46.1445082" lon="9.4206186"><ele>198.33333333333331</ele><time>2026-05-03T11:59:15.626Z</time></trkpt><trkpt lat="46.1444545" lon="9.4203085"><ele>198.66666666666666</ele><time>2026-05-03T11:59:16.617Z</time></trkpt><trkpt lat="46.1443993" lon="9.4200015"><ele>199.0</ele><time>2026-05-03T11:59:17.63Z</time></trkpt><trkpt lat="46.1443578" lon="9.4196959"><ele>199.33333333333331</ele><time>2026-05-03T11:59:18.618Z</time></trkpt><trkpt lat="46.1443182" lon="9.4193834"><ele>199.66666666666669</ele><time>2026-05-03T11:59:19.613Z</time></trkpt><trkpt lat="46.1442814" lon="9.4190818"><ele>200.0</ele><time>2026-05-03T11:59:20.63Z</time></trkpt><trkpt lat="46.1442337" lon="9.4187754"><ele>200.0</ele><time>2026-05-03T11:59:21.627Z</time></trkpt><trkpt lat="46.1441835" lon="9.4184569"><ele>200.0</ele><time>2026-05-03T11:59:22.623Z</time></trkpt><trkpt lat="46.1441419" lon="9.4181531"><ele>200.0</ele><time>2026-05-03T11:59:23.626Z</time></trkpt><trkpt lat="46.1441053" lon="9.4178525"><ele>199.66666666666669</ele><time>2026-05-03T11:59:24.624Z</time></trkpt><trkpt lat="46.1440875" lon="9.4175544"><ele>199.33333333333331</ele><time>2026-05-03T11:59:25.633Z</time></trkpt><trkpt lat="46.1440617" lon="9.4172613"><ele>199.0</ele><time>2026-05-03T11:59:26.621Z</time></trkpt><trkpt lat="46.1440308" lon="9.4169792"><ele>199.0</ele><time>2026-05-03T11:59:27.621Z</time></trkpt><trkpt lat="46.1439754" lon="9.4167012"><ele>199.0</ele><time>2026-05-03T11:59:28.624Z</time></trkpt><trkpt lat="46.1439422" lon="9.416425"><ele>199.0</ele><time>2026-05-03T11:59:29.619Z</time></trkpt><trkpt lat="46.143879" lon="9.4161638"><ele>199.66666666666666</ele><time>2026-05-03T11:59:30.631Z</time></trkpt><trkpt lat="46.1438145" lon="9.4159117"><ele>200.33333333333331</ele><time>2026-05-03T11:59:31.624Z</time></trkpt><trkpt lat="46.1437703" lon="9.415644"><ele>201.0</ele><time>2026-05-03T11:59:32.624Z</time></trkpt><trkpt lat="46.1437262" lon="9.4153816"><ele>201.0</ele><time>2026-05-03T11:59:33.613Z</time></trkpt><trkpt lat="46.1436875" lon="9.4151235"><ele>201.0</ele><time>2026-05-03T11:59:34.619Z</time></trkpt><trkpt lat="46.1436511" lon="9.4148823"><ele>201.0</ele><time>2026-05-03T11:59:35.625Z</time></trkpt><trkpt lat="46.1436198" lon="9.4146524"><ele>201.33333333333331</ele><time>2026-05-03T11:59:36.621Z</time></trkpt><trkpt lat="46.1435709" lon="9.4144373"><ele>201.66666666666666</ele><time>2026-05-03T11:59:37.627Z</time></trkpt><trkpt lat="46.143526" lon="9.4142292"><ele>202.0</ele><time>2026-05-03T11:59:38.62Z</time></trkpt><trkpt lat="46.1434628" lon="9.4140329"><ele>202.0</ele><time>2026-05-03T11:59:39.622Z</time></trkpt><trkpt lat="46.1433977" lon="9.4138368"><ele>202.0</ele><time>2026-05-03T11:59:40.616Z</time></trkpt><trkpt lat="46.1433248" lon="9.4136583"><ele>202.0</ele><time>2026-05-03T11:59:41.621Z</time></trkpt><trkpt lat="46.1432522" lon="9.4134933"><ele>202.0</ele><time>2026-05-03T11:59:42.622Z</time></trkpt><trkpt lat="46.1431807" lon="9.4133461"><ele>202.0</ele><time>2026-05-03T11:59:43.617Z</time></trkpt><trkpt lat="46.1431015" lon="9.4132177"><ele>202.0</ele><time>2026-05-03T11:59:44.614Z</time></trkpt><trkpt lat="46.1430571" lon="9.4130835"><ele>202.0</ele><time>2026-05-03T11:59:45.605Z</time></trkpt><trkpt lat="46.143046" lon="9.4129682"><ele>202.0</ele><time>2026-05-03T11:59:46.608Z</time></trkpt><trkpt lat="46.1430344" lon="9.4127997"><ele>202.0</ele><time>2026-05-03T11:59:48.604Z</time></trkpt><trkpt lat="46.1431001" lon="9.4126473"><ele>201.6</ele><time>2026-05-03T11:59:50.619Z</time></trkpt><trkpt lat="46.1431484" lon="9.4125584"><ele>201.2</ele><time>2026-05-03T11:59:51.604Z</time></trkpt><trkpt lat="46.1431973" lon="9.4124451"><ele>200.8</ele><time>2026-05-03T11:59:52.607Z</time></trkpt><trkpt lat="46.143254" lon="9.4123107"><ele>200.4</ele><time>2026-05-03T11:59:53.607Z</time></trkpt><trkpt lat="46.1433083" lon="9.4121557"><ele>200.0</ele><time>2026-05-03T11:59:54.603Z</time></trkpt><trkpt lat="46.1433394" lon="9.4119867"><ele>200.75</ele><time>2026-05-03T11:59:55.613Z</time></trkpt><trkpt lat="46.1433566" lon="9.4118081"><ele>201.5</ele><time>2026-05-03T11:59:56.59Z</time></trkpt><trkpt lat="46.1433647" lon="9.4116197"><ele>202.25</ele><time>2026-05-03T11:59:57.604Z</time></trkpt><trkpt lat="46.1433566" lon="9.4114254"><ele>203.0</ele><time>2026-05-03T11:59:58.599Z</time></trkpt><trkpt lat="46.1433206" lon="9.4112301"><ele>203.0</ele><time>2026-05-03T11:59:59.611Z</time></trkpt><trkpt lat="46.1432641" lon="9.4110442"><ele>203.0</ele><time>2026-05-03T12:00:00.606Z</time></trkpt><trkpt lat="46.1431606" lon="9.4108605"><ele>203.0</ele><time>2026-05-03T12:00:01.602Z</time></trkpt><trkpt lat="46.1431204" lon="9.4106982"><ele>203.0</ele><time>2026-05-03T12:00:02.606Z</time></trkpt><trkpt lat="46.1431214" lon="9.4105361"><ele>203.0</ele><time>2026-05-03T12:00:03.601Z</time></trkpt><trkpt lat="46.1431674" lon="9.4103542"><ele>203.0</ele><time>2026-05-03T12:00:04.6Z</time></trkpt><trkpt lat="46.1432481" lon="9.4101337"><ele>203.0</ele><time>2026-05-03T12:00:05.612Z</time></trkpt><trkpt lat="46.1432983" lon="9.4098979"><ele>203.0</ele><time>2026-05-03T12:00:06.606Z</time></trkpt><trkpt lat="46.1433637" lon="9.4096618"><ele>203.0</ele><time>2026-05-03T12:00:07.615Z</time></trkpt><trkpt lat="46.1434258" lon="9.4094253"><ele>203.0</ele><time>2026-05-03T12:00:08.61Z</time></trkpt><trkpt lat="46.1434747" lon="9.4091931"><ele>202.66666666666669</ele><time>2026-05-03T12:00:09.612Z</time></trkpt><trkpt lat="46.1435046" lon="9.4089705"><ele>202.33333333333331</ele><time>2026-05-03T12:00:10.618Z</time></trkpt><trkpt lat="46.1435444" lon="9.4087365"><ele>202.0</ele><time>2026-05-03T12:00:11.622Z</time></trkpt><trkpt lat="46.1435855" lon="9.4085091"><ele>202.0</ele><time>2026-05-03T12:00:12.61Z</time></trkpt><trkpt lat="46.1436403" lon="9.4083198"><ele>202.0</ele><time>2026-05-03T12:00:13.624Z</time></trkpt><trkpt lat="46.1436848" lon="9.4081361"><ele>202.0</ele><time>2026-05-03T12:00:14.611Z</time></trkpt><trkpt lat="46.1437292" lon="9.4079679"><ele>202.0</ele><time>2026-05-03T12:00:15.613Z</time></trkpt><trkpt lat="46.1437785" lon="9.4078088"><ele>202.0</ele><time>2026-05-03T12:00:16.61Z</time></trkpt><trkpt lat="46.1438371" lon="9.407692"><ele>202.0</ele><time>2026-05-03T12:00:17.609Z</time></trkpt><trkpt lat="46.1439253" lon="9.4076079"><ele>202.0</ele><time>2026-05-03T12:00:18.604Z</time></trkpt><trkpt lat="46.1439988" lon="9.4075088"><ele>202.0</ele><time>2026-05-03T12:00:19.61Z</time></trkpt><trkpt lat="46.1440379" lon="9.4073872"><ele>202.0</ele><time>2026-05-03T12:00:20.608Z</time></trkpt><trkpt lat="46.1440349" lon="9.4072499"><ele>202.0</ele><time>2026-05-03T12:00:21.61Z</time></trkpt><trkpt lat="46.1440035" lon="9.4071198"><ele>202.0</ele><time>2026-05-03T12:00:22.613Z</time></trkpt><trkpt lat="46.1439369" lon="9.4070181"><ele>202.0</ele><time>2026-05-03T12:00:23.625Z</time></trkpt><trkpt lat="46.1438315" lon="9.4069496"><ele>202.0</ele><time>2026-05-03T12:00:24.611Z</time></trkpt><trkpt lat="46.1437311" lon="9.4068824"><ele>202.0</ele><time>2026-05-03T12:00:25.621Z</time></trkpt><trkpt lat="46.1436484" lon="9.4067835"><ele>202.0</ele><time>2026-05-03T12:00:26.619Z</time></trkpt><trkpt lat="46.1436036" lon="9.4066075"><ele>202.0</ele><time>2026-05-03T12:00:27.619Z</time></trkpt><trkpt lat="46.1435985" lon="9.4063795"><ele>202.0</ele><time>2026-05-03T12:00:28.613Z</time></trkpt><trkpt lat="46.1436079" lon="9.4060846"><ele>202.0</ele><time>2026-05-03T12:00:29.607Z</time></trkpt><trkpt lat="46.1435954" lon="9.4058185"><ele>202.0</ele><time>2026-05-03T12:00:30.615Z</time></trkpt><trkpt lat="46.1435799" lon="9.4055542"><ele>202.0</ele><time>2026-05-03T12:00:31.61Z</time></trkpt><trkpt lat="46.1435783" lon="9.4052816"><ele>202.66666666666666</ele><time>2026-05-03T12:00:32.611Z</time></trkpt><trkpt lat="46.1435745" lon="9.4050062"><ele>203.33333333333331</ele><time>2026-05-03T12:00:33.612Z</time></trkpt><trkpt lat="46.1435502" lon="9.404737"><ele>204.0</ele><time>2026-05-03T12:00:34.61Z</time></trkpt><trkpt lat="46.1435261" lon="9.4044643"><ele>204.0</ele><time>2026-05-03T12:00:35.615Z</time></trkpt><trkpt lat="46.1434936" lon="9.4041926"><ele>204.0</ele><time>2026-05-03T12:00:36.615Z</time></trkpt><trkpt lat="46.1434609" lon="9.403908"><ele>204.0</ele><time>2026-05-03T12:00:37.607Z</time></trkpt><trkpt lat="46.1434121" lon="9.4036307"><ele>204.0</ele><time>2026-05-03T12:00:38.627Z</time></trkpt><trkpt lat="46.1433655" lon="9.4033338"><ele>204.0</ele><time>2026-05-03T12:00:39.628Z</time></trkpt><trkpt lat="46.1433107" lon="9.4030486"><ele>204.0</ele><time>2026-05-03T12:00:40.617Z</time></trkpt><trkpt lat="46.1432575" lon="9.4027574"><ele>203.33333333333331</ele><time>2026-05-03T12:00:41.625Z</time></trkpt><trkpt lat="46.143204" lon="9.4024614"><ele>202.66666666666666</ele><time>2026-05-03T12:00:42.62Z</time></trkpt><trkpt lat="46.1431269" lon="9.4021824"><ele>202.0</ele><time>2026-05-03T12:00:43.621Z</time></trkpt><trkpt lat="46.1430515" lon="9.4018932"><ele>202.0</ele><time>2026-05-03T12:00:44.625Z</time></trkpt><trkpt lat="46.1429681" lon="9.4016048"><ele>202.0</ele><time>2026-05-03T12:00:45.613Z</time></trkpt><trkpt lat="46.142893" lon="9.4013261"><ele>202.0</ele><time>2026-05-03T12:00:46.622Z</time></trkpt><trkpt lat="46.142805" lon="9.4010652"><ele>202.33333333333331</ele><time>2026-05-03T12:00:47.62Z</time></trkpt><trkpt lat="46.1426895" lon="9.4008196"><ele>202.66666666666669</ele><time>2026-05-03T12:00:48.627Z</time></trkpt><trkpt lat="46.1425794" lon="9.4005665"><ele>203.0</ele><time>2026-05-03T12:00:49.613Z</time></trkpt><trkpt lat="46.142486" lon="9.4003522"><ele>203.0</ele><time>2026-05-03T12:00:50.619Z</time></trkpt><trkpt lat="46.1423982" lon="9.4001307"><ele>203.0</ele><time>2026-05-03T12:00:51.62Z</time></trkpt><trkpt lat="46.1423211" lon="9.3999179"><ele>203.0</ele><time>2026-05-03T12:00:52.612Z</time></trkpt><trkpt lat="46.1422312" lon="9.3997146"><ele>203.33333333333334</ele><time>2026-05-03T12:00:53.627Z</time></trkpt><trkpt lat="46.1421493" lon="9.399505"><ele>203.66666666666669</ele><time>2026-05-03T12:00:54.625Z</time></trkpt><trkpt lat="46.1420726" lon="9.3993054"><ele>204.0</ele><time>2026-05-03T12:00:55.621Z</time></trkpt><trkpt lat="46.1419988" lon="9.3991326"><ele>204.0</ele><time>2026-05-03T12:00:56.625Z</time></trkpt><trkpt lat="46.1419202" lon="9.3989485"><ele>204.0</ele><time>2026-05-03T12:00:57.622Z</time></trkpt><trkpt lat="46.1418318" lon="9.3987455"><ele>204.0</ele><time>2026-05-03T12:00:58.62Z</time></trkpt><trkpt lat="46.1417535" lon="9.3985371"><ele>204.66666666666669</ele><time>2026-05-03T12:00:59.617Z</time></trkpt><trkpt lat="46.1416608" lon="9.3983285"><ele>205.33333333333334</ele><time>2026-05-03T12:01:00.614Z</time></trkpt><trkpt lat="46.1415746" lon="9.3981198"><ele>206.0</ele><time>2026-05-03T12:01:01.62Z</time></trkpt><trkpt lat="46.1415001" lon="9.397903"><ele>206.66666666666669</ele><time>2026-05-03T12:01:02.623Z</time></trkpt><trkpt lat="46.1414325" lon="9.3976892"><ele>207.33333333333331</ele><time>2026-05-03T12:01:03.609Z</time></trkpt><trkpt lat="46.1413448" lon="9.3974658"><ele>208.0</ele><time>2026-05-03T12:01:04.624Z</time></trkpt><trkpt lat="46.1412612" lon="9.3972405"><ele>208.33333333333331</ele><time>2026-05-03T12:01:05.618Z</time></trkpt><trkpt lat="46.1411738" lon="9.3970176"><ele>208.66666666666669</ele><time>2026-05-03T12:01:06.613Z</time></trkpt><trkpt lat="46.1410921" lon="9.3967848"><ele>209.0</ele><time>2026-05-03T12:01:07.621Z</time></trkpt><trkpt lat="46.1409872" lon="9.3965553"><ele>208.66666666666669</ele><time>2026-05-03T12:01:08.62Z</time></trkpt><trkpt lat="46.1408932" lon="9.3963104"><ele>208.33333333333331</ele><time>2026-05-03T12:01:09.62Z</time></trkpt><trkpt lat="46.1408111" lon="9.396077"><ele>208.0</ele><time>2026-05-03T12:01:10.62Z</time></trkpt><trkpt lat="46.1407176" lon="9.3958351"><ele>209.0</ele><time>2026-05-03T12:01:11.616Z</time></trkpt><trkpt lat="46.1406326" lon="9.3955854"><ele>210.0</ele><time>2026-05-03T12:01:12.61Z</time></trkpt><trkpt lat="46.1405379" lon="9.3953553"><ele>211.0</ele><time>2026-05-03T12:01:13.613Z</time></trkpt><trkpt lat="46.1404547" lon="9.3951496"><ele>211.66666666666666</ele><time>2026-05-03T12:01:14.613Z</time></trkpt><trkpt lat="46.1403702" lon="9.3949653"><ele>212.33333333333331</ele><time>2026-05-03T12:01:15.615Z</time></trkpt><trkpt lat="46.140294" lon="9.394782"><ele>213.0</ele><time>2026-05-03T12:01:16.618Z</time></trkpt><trkpt lat="46.1402252" lon="9.394588"><ele>213.66666666666669</ele><time>2026-05-03T12:01:17.616Z</time></trkpt><trkpt lat="46.1401756" lon="9.3943944"><ele>214.33333333333334</ele><time>2026-05-03T12:01:18.608Z</time></trkpt><trkpt lat="46.1401436" lon="9.3941859"><ele>215.0</ele><time>2026-05-03T12:01:19.609Z</time></trkpt><trkpt lat="46.1401293" lon="9.3939428"><ele>216.0</ele><time>2026-05-03T12:01:20.611Z</time></trkpt><trkpt lat="46.140121" lon="9.393708"><ele>217.0</ele><time>2026-05-03T12:01:21.607Z</time></trkpt><trkpt lat="46.1401143" lon="9.3934666"><ele>218.0</ele><time>2026-05-03T12:01:22.622Z</time></trkpt><trkpt lat="46.1401099" lon="9.3932266"><ele>218.33333333333334</ele><time>2026-05-03T12:01:23.617Z</time></trkpt><trkpt lat="46.1401082" lon="9.3929819"><ele>218.66666666666669</ele><time>2026-05-03T12:01:24.624Z</time></trkpt><trkpt lat="46.140116" lon="9.392736"><ele>219.0</ele><time>2026-05-03T12:01:25.621Z</time></trkpt><trkpt lat="46.1401134" lon="9.3924877"><ele>219.0</ele><time>2026-05-03T12:01:26.621Z</time></trkpt><trkpt lat="46.1400924" lon="9.3922474"><ele>219.0</ele><time>2026-05-03T12:01:27.616Z</time></trkpt><trkpt lat="46.1400691" lon="9.3920088"><ele>219.0</ele><time>2026-05-03T12:01:28.615Z</time></trkpt><trkpt lat="46.1400508" lon="9.3917664"><ele>219.0</ele><time>2026-05-03T12:01:29.62Z</time></trkpt><trkpt lat="46.1400548" lon="9.3915186"><ele>219.0</ele><time>2026-05-03T12:01:30.612Z</time></trkpt><trkpt lat="46.140044" lon="9.3912714"><ele>219.0</ele><time>2026-05-03T12:01:31.618Z</time></trkpt><trkpt lat="46.1400251" lon="9.3910171"><ele>219.0</ele><time>2026-05-03T12:01:32.62Z</time></trkpt><trkpt lat="46.1400059" lon="9.3907488"><ele>219.0</ele><time>2026-05-03T12:01:33.611Z</time></trkpt><trkpt lat="46.1400055" lon="9.3904996"><ele>219.0</ele><time>2026-05-03T12:01:34.621Z</time></trkpt><trkpt lat="46.1400003" lon="9.3902424"><ele>218.66666666666669</ele><time>2026-05-03T12:01:35.61Z</time></trkpt><trkpt lat="46.1399858" lon="9.3899716"><ele>218.33333333333334</ele><time>2026-05-03T12:01:36.605Z</time></trkpt><trkpt lat="46.1399591" lon="9.3896999"><ele>218.0</ele><time>2026-05-03T12:01:37.611Z</time></trkpt><trkpt lat="46.139937" lon="9.3894604"><ele>218.0</ele><time>2026-05-03T12:01:38.617Z</time></trkpt><trkpt lat="46.1399212" lon="9.3892173"><ele>218.0</ele><time>2026-05-03T12:01:39.629Z</time></trkpt><trkpt lat="46.1399094" lon="9.3889875"><ele>218.0</ele><time>2026-05-03T12:01:40.617Z</time></trkpt><trkpt lat="46.1398992" lon="9.3887607"><ele>218.0</ele><time>2026-05-03T12:01:41.621Z</time></trkpt><trkpt lat="46.1398836" lon="9.3885507"><ele>218.0</ele><time>2026-05-03T12:01:42.61Z</time></trkpt><trkpt lat="46.1398524" lon="9.3883581"><ele>218.0</ele><time>2026-05-03T12:01:43.621Z</time></trkpt><trkpt lat="46.1398409" lon="9.3881502"><ele>218.0</ele><time>2026-05-03T12:01:44.619Z</time></trkpt><trkpt lat="46.1398305" lon="9.3879523"><ele>218.5</ele><time>2026-05-03T12:01:45.615Z</time></trkpt><trkpt lat="46.1398272" lon="9.3877548"><ele>219.0</ele><time>2026-05-03T12:01:46.615Z</time></trkpt><trkpt lat="46.1398151" lon="9.3875402"><ele>219.5</ele><time>2026-05-03T12:01:47.626Z</time></trkpt><trkpt lat="46.1398058" lon="9.3873379"><ele>220.0</ele><time>2026-05-03T12:01:48.627Z</time></trkpt><trkpt lat="46.139782" lon="9.3871362"><ele>220.25</ele><time>2026-05-03T12:01:49.627Z</time></trkpt><trkpt lat="46.1397713" lon="9.3869425"><ele>220.5</ele><time>2026-05-03T12:01:50.62Z</time></trkpt><trkpt lat="46.1397584" lon="9.3867465"><ele>220.75</ele><time>2026-05-03T12:01:51.612Z</time></trkpt><trkpt lat="46.1397311" lon="9.3865453"><ele>221.0</ele><time>2026-05-03T12:01:52.618Z</time></trkpt><trkpt lat="46.1397226" lon="9.3863421"><ele>221.0</ele><time>2026-05-03T12:01:53.619Z</time></trkpt><trkpt lat="46.1397129" lon="9.3861566"><ele>221.0</ele><time>2026-05-03T12:01:54.608Z</time></trkpt><trkpt lat="46.1397141" lon="9.3859845"><ele>221.0</ele><time>2026-05-03T12:01:55.61Z</time></trkpt><trkpt lat="46.1396949" lon="9.3858025"><ele>221.0</ele><time>2026-05-03T12:01:56.617Z</time></trkpt><trkpt lat="46.1396811" lon="9.3856433"><ele>220.8</ele><time>2026-05-03T12:01:57.607Z</time></trkpt><trkpt lat="46.1396554" lon="9.3854933"><ele>220.60000000000002</ele><time>2026-05-03T12:01:58.614Z</time></trkpt><trkpt lat="46.1396536" lon="9.3853474"><ele>220.4</ele><time>2026-05-03T12:01:59.615Z</time></trkpt><trkpt lat="46.1396516" lon="9.3852244"><ele>220.2</ele><time>2026-05-03T12:02:00.614Z</time></trkpt><trkpt lat="46.1396505" lon="9.385105"><ele>220.0</ele><time>2026-05-03T12:02:01.62Z</time></trkpt><trkpt lat="46.1396443" lon="9.3849947"><ele>219.99999999999997</ele><time>2026-05-03T12:02:02.614Z</time></trkpt><trkpt lat="46.1396397" lon="9.3848937"><ele>220.0</ele><time>2026-05-03T12:02:03.613Z</time></trkpt><trkpt lat="46.1396375" lon="9.3847912"><ele>220.0</ele><time>2026-05-03T12:02:04.61Z</time></trkpt><trkpt lat="46.1396305" lon="9.3846844"><ele>220.0</ele><time>2026-05-03T12:02:05.617Z</time></trkpt><trkpt lat="46.139627" lon="9.3845734"><ele>220.0</ele><time>2026-05-03T12:02:06.605Z</time></trkpt><trkpt lat="46.1396203" lon="9.3844601"><ele>219.99999999999997</ele><time>2026-05-03T12:02:07.608Z</time></trkpt><trkpt lat="46.1396137" lon="9.3843492"><ele>220.0</ele><time>2026-05-03T12:02:08.618Z</time></trkpt><trkpt lat="46.1396187" lon="9.3842307"><ele>220.0</ele><time>2026-05-03T12:02:09.601Z</time></trkpt><trkpt lat="46.1396285" lon="9.3841115"><ele>220.0</ele><time>2026-05-03T12:02:10.617Z</time></trkpt><trkpt lat="46.139627" lon="9.3839852"><ele>220.0</ele><time>2026-05-03T12:02:11.609Z</time></trkpt><trkpt lat="46.1396025" lon="9.3838635"><ele>220.0</ele><time>2026-05-03T12:02:12.613Z</time></trkpt><trkpt lat="46.1395648" lon="9.3837342"><ele>220.0</ele><time>2026-05-03T12:02:13.614Z</time></trkpt><trkpt lat="46.1395401" lon="9.3835937"><ele>220.0</ele><time>2026-05-03T12:02:14.603Z</time></trkpt><trkpt lat="46.1395322" lon="9.383438"><ele>220.0</ele><time>2026-05-03T12:02:15.616Z</time></trkpt><trkpt lat="46.1395175" lon="9.3832773"><ele>220.0</ele><time>2026-05-03T12:02:16.61Z</time></trkpt><trkpt lat="46.1395097" lon="9.3831039"><ele>220.0</ele><time>2026-05-03T12:02:17.613Z</time></trkpt><trkpt lat="46.1395023" lon="9.3829275"><ele>219.75</ele><time>2026-05-03T12:02:18.613Z</time></trkpt><trkpt lat="46.1394927" lon="9.3827426"><ele>219.5</ele><time>2026-05-03T12:02:19.617Z</time></trkpt><trkpt lat="46.1394814" lon="9.3825551"><ele>219.25</ele><time>2026-05-03T12:02:20.618Z</time></trkpt><trkpt lat="46.1394661" lon="9.3823566"><ele>219.0</ele><time>2026-05-03T12:02:21.613Z</time></trkpt><trkpt lat="46.1394505" lon="9.3821484"><ele>218.66666666666669</ele><time>2026-05-03T12:02:22.621Z</time></trkpt><trkpt lat="46.1394458" lon="9.3819051"><ele>218.33333333333334</ele><time>2026-05-03T12:02:23.613Z</time></trkpt><trkpt lat="46.1394313" lon="9.3816643"><ele>218.0</ele><time>2026-05-03T12:02:24.606Z</time></trkpt><trkpt lat="46.1394089" lon="9.3814"><ele>217.33333333333334</ele><time>2026-05-03T12:02:25.615Z</time></trkpt><trkpt lat="46.139392" lon="9.3811474"><ele>216.66666666666669</ele><time>2026-05-03T12:02:26.622Z</time></trkpt><trkpt lat="46.1393775" lon="9.3809122"><ele>216.0</ele><time>2026-05-03T12:02:27.608Z</time></trkpt><trkpt lat="46.1393677" lon="9.3806685"><ele>215.25</ele><time>2026-05-03T12:02:28.629Z</time></trkpt><trkpt lat="46.1393552" lon="9.3804615"><ele>214.5</ele><time>2026-05-03T12:02:29.62Z</time></trkpt><trkpt lat="46.139345" lon="9.3802713"><ele>213.75</ele><time>2026-05-03T12:02:30.612Z</time></trkpt><trkpt lat="46.1393339" lon="9.3800776"><ele>213.0</ele><time>2026-05-03T12:02:31.609Z</time></trkpt><trkpt lat="46.1393078" lon="9.3798906"><ele>213.0</ele><time>2026-05-03T12:02:32.599Z</time></trkpt><trkpt lat="46.13928" lon="9.3797091"><ele>213.0</ele><time>2026-05-03T12:02:33.603Z</time></trkpt><trkpt lat="46.13925" lon="9.3795418"><ele>213.0</ele><time>2026-05-03T12:02:34.612Z</time></trkpt><trkpt lat="46.1392169" lon="9.3793846"><ele>213.0</ele><time>2026-05-03T12:02:35.622Z</time></trkpt><trkpt lat="46.139182" lon="9.3792219"><ele>213.25</ele><time>2026-05-03T12:02:36.617Z</time></trkpt><trkpt lat="46.1391527" lon="9.3790587"><ele>213.5</ele><time>2026-05-03T12:02:37.624Z</time></trkpt><trkpt lat="46.1391078" lon="9.3789023"><ele>213.75</ele><time>2026-05-03T12:02:38.619Z</time></trkpt><trkpt lat="46.1390606" lon="9.3787458"><ele>214.0</ele><time>2026-05-03T12:02:39.624Z</time></trkpt><trkpt lat="46.1390125" lon="9.3785979"><ele>214.0</ele><time>2026-05-03T12:02:40.618Z</time></trkpt><trkpt lat="46.1389598" lon="9.3784482"><ele>214.0</ele><time>2026-05-03T12:02:41.615Z</time></trkpt><trkpt lat="46.1388997" lon="9.3783035"><ele>214.0</ele><time>2026-05-03T12:02:42.617Z</time></trkpt><trkpt lat="46.1388389" lon="9.3781542"><ele>214.0</ele><time>2026-05-03T12:02:43.609Z</time></trkpt><trkpt lat="46.1387763" lon="9.3780127"><ele>213.39999999999998</ele><time>2026-05-03T12:02:44.624Z</time></trkpt><trkpt lat="46.1387154" lon="9.3778754"><ele>212.79999999999998</ele><time>2026-05-03T12:02:45.61Z</time></trkpt><trkpt lat="46.1386547" lon="9.3777465"><ele>212.2</ele><time>2026-05-03T12:02:46.615Z</time></trkpt><trkpt lat="46.1386021" lon="9.37763"><ele>211.60000000000002</ele><time>2026-05-03T12:02:47.61Z</time></trkpt><trkpt lat="46.1385535" lon="9.3775261"><ele>211.0</ele><time>2026-05-03T12:02:48.613Z</time></trkpt><trkpt lat="46.1385024" lon="9.377428"><ele>211.0</ele><time>2026-05-03T12:02:49.614Z</time></trkpt><trkpt lat="46.1384509" lon="9.3773187"><ele>211.0</ele><time>2026-05-03T12:02:50.613Z</time></trkpt><trkpt lat="46.1383985" lon="9.3771945"><ele>211.0</ele><time>2026-05-03T12:02:51.614Z</time></trkpt><trkpt lat="46.1383424" lon="9.3770628"><ele>211.0</ele><time>2026-05-03T12:02:52.618Z</time></trkpt><trkpt lat="46.1382846" lon="9.3769375"><ele>211.0</ele><time>2026-05-03T12:02:53.611Z</time></trkpt><trkpt lat="46.138229" lon="9.3768264"><ele>211.16666666666666</ele><time>2026-05-03T12:02:54.613Z</time></trkpt><trkpt lat="46.1381846" lon="9.3767314"><ele>211.33333333333331</ele><time>2026-05-03T12:02:55.615Z</time></trkpt><trkpt lat="46.1381436" lon="9.3766385"><ele>211.5</ele><time>2026-05-03T12:02:56.613Z</time></trkpt><trkpt lat="46.138104" lon="9.3765464"><ele>211.66666666666669</ele><time>2026-05-03T12:02:57.624Z</time></trkpt><trkpt lat="46.1380605" lon="9.3764544"><ele>211.83333333333334</ele><time>2026-05-03T12:02:58.621Z</time></trkpt><trkpt lat="46.1380193" lon="9.376357"><ele>212.0</ele><time>2026-05-03T12:02:59.617Z</time></trkpt><trkpt lat="46.1379797" lon="9.3762664"><ele>212.00000000000003</ele><time>2026-05-03T12:03:00.613Z</time></trkpt><trkpt lat="46.1379427" lon="9.3761895"><ele>212.0</ele><time>2026-05-03T12:03:01.614Z</time></trkpt><trkpt lat="46.1378934" lon="9.3760926"><ele>212.0</ele><time>2026-05-03T12:03:03.61Z</time></trkpt><trkpt lat="46.1378575" lon="9.3760106"><ele>212.0</ele><time>2026-05-03T12:03:05.614Z</time></trkpt><trkpt lat="46.1378128" lon="9.3759103"><ele>212.00000000000003</ele><time>2026-05-03T12:03:08.622Z</time></trkpt><trkpt lat="46.1377819" lon="9.3758258"><ele>212.0</ele><time>2026-05-03T12:03:11.624Z</time></trkpt><trkpt lat="46.1377429" lon="9.3757117"><ele>212.00000000000003</ele><time>2026-05-03T12:03:14.632Z</time></trkpt><trkpt lat="46.1377034" lon="9.3756098"><ele>212.0</ele><time>2026-05-03T12:03:16.625Z</time></trkpt><trkpt lat="46.1376598" lon="9.3755112"><ele>212.0</ele><time>2026-05-03T12:03:18.632Z</time></trkpt><trkpt lat="46.137619" lon="9.3754188"><ele>212.0</ele><time>2026-05-03T12:03:24.621Z</time></trkpt><trkpt lat="46.1375823" lon="9.3753177"><ele>212.00000000000003</ele><time>2026-05-03T12:03:28.633Z</time></trkpt><trkpt lat="46.1375299" lon="9.375193"><ele>212.0</ele><time>2026-05-03T12:03:31.621Z</time></trkpt><trkpt lat="46.1374558" lon="9.3750773"><ele>211.83333333333334</ele><time>2026-05-03T12:03:33.605Z</time></trkpt><trkpt lat="46.1374189" lon="9.3749998"><ele>211.66666666666669</ele><time>2026-05-03T12:03:34.602Z</time></trkpt><trkpt lat="46.1373934" lon="9.3749086"><ele>211.5</ele><time>2026-05-03T12:03:35.602Z</time></trkpt><trkpt lat="46.1373551" lon="9.3748057"><ele>211.33333333333331</ele><time>2026-05-03T12:03:36.607Z</time></trkpt><trkpt lat="46.1373157" lon="9.3746974"><ele>211.16666666666666</ele><time>2026-05-03T12:03:37.6Z</time></trkpt><trkpt lat="46.1372657" lon="9.3745861"><ele>211.0</ele><time>2026-05-03T12:03:38.614Z</time></trkpt><trkpt lat="46.137213" lon="9.3744731"><ele>211.60000000000002</ele><time>2026-05-03T12:03:39.598Z</time></trkpt><trkpt lat="46.1371554" lon="9.3743568"><ele>212.2</ele><time>2026-05-03T12:03:40.595Z</time></trkpt><trkpt lat="46.1370935" lon="9.3742329"><ele>212.79999999999998</ele><time>2026-05-03T12:03:41.608Z</time></trkpt><trkpt lat="46.1370338" lon="9.3741131"><ele>213.39999999999998</ele><time>2026-05-03T12:03:42.611Z</time></trkpt><trkpt lat="46.1369832" lon="9.3740079"><ele>214.0</ele><time>2026-05-03T12:03:43.61Z</time></trkpt><trkpt lat="46.1369341" lon="9.3739083"><ele>213.71428571428572</ele><time>2026-05-03T12:03:44.601Z</time></trkpt><trkpt lat="46.1368885" lon="9.3738107"><ele>213.42857142857144</ele><time>2026-05-03T12:03:45.609Z</time></trkpt><trkpt lat="46.1368488" lon="9.3737215"><ele>213.14285714285717</ele><time>2026-05-03T12:03:46.616Z</time></trkpt><trkpt lat="46.1368126" lon="9.3736422"><ele>212.85714285714286</ele><time>2026-05-03T12:03:47.605Z</time></trkpt><trkpt lat="46.1367789" lon="9.3735644"><ele>212.57142857142856</ele><time>2026-05-03T12:03:48.616Z</time></trkpt><trkpt lat="46.1367373" lon="9.3734912"><ele>212.2857142857143</ele><time>2026-05-03T12:03:49.603Z</time></trkpt><trkpt lat="46.1366938" lon="9.3734196"><ele>212.0</ele><time>2026-05-03T12:03:50.604Z</time></trkpt><trkpt lat="46.1366507" lon="9.3733402"><ele>212.00000000000003</ele><time>2026-05-03T12:03:51.591Z</time></trkpt><trkpt lat="46.1366097" lon="9.3732531"><ele>212.0</ele><time>2026-05-03T12:03:52.595Z</time></trkpt><trkpt lat="46.1365755" lon="9.3731715"><ele>212.0</ele><time>2026-05-03T12:03:53.599Z</time></trkpt><trkpt lat="46.1364965" lon="9.3730438"><ele>212.0</ele><time>2026-05-03T12:03:55.604Z</time></trkpt><trkpt lat="46.1364501" lon="9.3729823"><ele>212.00000000000003</ele><time>2026-05-03T12:03:56.599Z</time></trkpt><trkpt lat="46.1364143" lon="9.3729075"><ele>212.0</ele><time>2026-05-03T12:03:57.599Z</time></trkpt><trkpt lat="46.1363729" lon="9.372822"><ele>212.16666666666669</ele><time>2026-05-03T12:03:58.605Z</time></trkpt><trkpt lat="46.1363328" lon="9.372729"><ele>212.33333333333334</ele><time>2026-05-03T12:03:59.603Z</time></trkpt><trkpt lat="46.1362851" lon="9.3726335"><ele>212.5</ele><time>2026-05-03T12:04:00.608Z</time></trkpt><trkpt lat="46.1362367" lon="9.372528"><ele>212.66666666666669</ele><time>2026-05-03T12:04:01.594Z</time></trkpt><trkpt lat="46.1361876" lon="9.3724213"><ele>212.83333333333334</ele><time>2026-05-03T12:04:02.605Z</time></trkpt><trkpt lat="46.1361451" lon="9.3723122"><ele>213.0</ele><time>2026-05-03T12:04:03.601Z</time></trkpt><trkpt lat="46.1361056" lon="9.3722009"><ele>212.83333333333334</ele><time>2026-05-03T12:04:04.598Z</time></trkpt><trkpt lat="46.136065" lon="9.3720809"><ele>212.66666666666669</ele><time>2026-05-03T12:04:05.6Z</time></trkpt><trkpt lat="46.1360236" lon="9.3719739"><ele>212.5</ele><time>2026-05-03T12:04:06.617Z</time></trkpt><trkpt lat="46.1359846" lon="9.3718765"><ele>212.33333333333334</ele><time>2026-05-03T12:04:07.616Z</time></trkpt><trkpt lat="46.1359497" lon="9.3717898"><ele>212.16666666666669</ele><time>2026-05-03T12:04:08.612Z</time></trkpt><trkpt lat="46.1359139" lon="9.3716976"><ele>212.0</ele><time>2026-05-03T12:04:09.615Z</time></trkpt><trkpt lat="46.1358781" lon="9.371606"><ele>212.00000000000003</ele><time>2026-05-03T12:04:10.604Z</time></trkpt><trkpt lat="46.1358397" lon="9.37152"><ele>212.0</ele><time>2026-05-03T12:04:11.614Z</time></trkpt><trkpt lat="46.1357938" lon="9.3714376"><ele>212.0</ele><time>2026-05-03T12:04:12.61Z</time></trkpt><trkpt lat="46.1357453" lon="9.3713461"><ele>212.0</ele><time>2026-05-03T12:04:13.603Z</time></trkpt><trkpt lat="46.1357049" lon="9.3712504"><ele>212.00000000000003</ele><time>2026-05-03T12:04:14.612Z</time></trkpt><trkpt lat="46.1356681" lon="9.3711637"><ele>212.0</ele><time>2026-05-03T12:04:15.61Z</time></trkpt><trkpt lat="46.1356088" lon="9.3710257"><ele>212.2</ele><time>2026-05-03T12:04:17.611Z</time></trkpt><trkpt lat="46.1355731" lon="9.3709434"><ele>212.39999999999998</ele><time>2026-05-03T12:04:21.63Z</time></trkpt><trkpt lat="46.135529" lon="9.3708445"><ele>212.60000000000002</ele><time>2026-05-03T12:04:24.623Z</time></trkpt><trkpt lat="46.1354874" lon="9.37072"><ele>212.8</ele><time>2026-05-03T12:04:26.621Z</time></trkpt><trkpt lat="46.1354337" lon="9.3706029"><ele>213.0</ele><time>2026-05-03T12:04:28.618Z</time></trkpt><trkpt lat="46.1353435" lon="9.3704592"><ele>213.0</ele><time>2026-05-03T12:04:30.621Z</time></trkpt><trkpt lat="46.1352956" lon="9.3703617"><ele>213.0</ele><time>2026-05-03T12:04:31.601Z</time></trkpt><trkpt lat="46.1352536" lon="9.3702563"><ele>213.0</ele><time>2026-05-03T12:04:32.618Z</time></trkpt><trkpt lat="46.1352054" lon="9.3701559"><ele>213.0</ele><time>2026-05-03T12:04:33.616Z</time></trkpt><trkpt lat="46.1351539" lon="9.3700536"><ele>213.0</ele><time>2026-05-03T12:04:34.611Z</time></trkpt><trkpt lat="46.1350904" lon="9.3699243"><ele>213.0</ele><time>2026-05-03T12:04:35.613Z</time></trkpt><trkpt lat="46.1350123" lon="9.3697753"><ele>212.75</ele><time>2026-05-03T12:04:36.609Z</time></trkpt><trkpt lat="46.1349323" lon="9.3696146"><ele>212.5</ele><time>2026-05-03T12:04:37.62Z</time></trkpt><trkpt lat="46.1348556" lon="9.3694538"><ele>212.25</ele><time>2026-05-03T12:04:38.616Z</time></trkpt><trkpt lat="46.134783" lon="9.3693039"><ele>212.0</ele><time>2026-05-03T12:04:39.613Z</time></trkpt><trkpt lat="46.1347167" lon="9.3691835"><ele>212.00000000000003</ele><time>2026-05-03T12:04:40.609Z</time></trkpt><trkpt lat="46.1346554" lon="9.3690841"><ele>212.0</ele><time>2026-05-03T12:04:41.615Z</time></trkpt><trkpt lat="46.134601" lon="9.3689913"><ele>212.0</ele><time>2026-05-03T12:04:42.607Z</time></trkpt><trkpt lat="46.1345442" lon="9.3689013"><ele>212.0</ele><time>2026-05-03T12:04:43.601Z</time></trkpt><trkpt lat="46.1344852" lon="9.3688039"><ele>212.00000000000003</ele><time>2026-05-03T12:04:44.612Z</time></trkpt><trkpt lat="46.1344239" lon="9.3687023"><ele>212.0</ele><time>2026-05-03T12:04:45.602Z</time></trkpt><trkpt lat="46.1343536" lon="9.3685815"><ele>212.0</ele><time>2026-05-03T12:04:46.604Z</time></trkpt><trkpt lat="46.1342693" lon="9.3684376"><ele>212.0</ele><time>2026-05-03T12:04:47.603Z</time></trkpt><trkpt lat="46.1341735" lon="9.3682752"><ele>212.0</ele><time>2026-05-03T12:04:48.608Z</time></trkpt><trkpt lat="46.1340686" lon="9.3681003"><ele>212.0</ele><time>2026-05-03T12:04:49.607Z</time></trkpt><trkpt lat="46.1339668" lon="9.3679455"><ele>213.25</ele><time>2026-05-03T12:04:50.616Z</time></trkpt><trkpt lat="46.1338763" lon="9.3677887"><ele>214.5</ele><time>2026-05-03T12:04:51.617Z</time></trkpt><trkpt lat="46.1337922" lon="9.3676369"><ele>215.75</ele><time>2026-05-03T12:04:52.609Z</time></trkpt><trkpt lat="46.1337023" lon="9.3674898"><ele>217.0</ele><time>2026-05-03T12:04:53.616Z</time></trkpt><trkpt lat="46.1336148" lon="9.3673486"><ele>217.0</ele><time>2026-05-03T12:04:54.612Z</time></trkpt><trkpt lat="46.1335429" lon="9.367208"><ele>217.0</ele><time>2026-05-03T12:04:55.606Z</time></trkpt><trkpt lat="46.1334523" lon="9.3670672"><ele>217.0</ele><time>2026-05-03T12:04:56.611Z</time></trkpt><trkpt lat="46.1333747" lon="9.3669162"><ele>217.0</ele><time>2026-05-03T12:04:57.612Z</time></trkpt><trkpt lat="46.1332912" lon="9.3667801"><ele>217.25</ele><time>2026-05-03T12:04:58.61Z</time></trkpt><trkpt lat="46.133206" lon="9.3666429"><ele>217.5</ele><time>2026-05-03T12:04:59.614Z</time></trkpt><trkpt lat="46.1331256" lon="9.3664904"><ele>217.75</ele><time>2026-05-03T12:05:00.608Z</time></trkpt><trkpt lat="46.1330435" lon="9.3663337"><ele>218.0</ele><time>2026-05-03T12:05:01.608Z</time></trkpt><trkpt lat="46.1329724" lon="9.3661667"><ele>217.5</ele><time>2026-05-03T12:05:02.605Z</time></trkpt><trkpt lat="46.1329087" lon="9.3659911"><ele>217.0</ele><time>2026-05-03T12:05:03.602Z</time></trkpt><trkpt lat="46.1328389" lon="9.365813"><ele>216.5</ele><time>2026-05-03T12:05:04.602Z</time></trkpt><trkpt lat="46.1327564" lon="9.3656377"><ele>216.0</ele><time>2026-05-03T12:05:05.602Z</time></trkpt><trkpt lat="46.1327014" lon="9.3654761"><ele>215.8</ele><time>2026-05-03T12:05:06.615Z</time></trkpt><trkpt lat="46.1326396" lon="9.36532"><ele>215.60000000000002</ele><time>2026-05-03T12:05:07.609Z</time></trkpt><trkpt lat="46.1326057" lon="9.3651779"><ele>215.4</ele><time>2026-05-03T12:05:08.617Z</time></trkpt><trkpt lat="46.1325605" lon="9.3650353"><ele>215.2</ele><time>2026-05-03T12:05:09.612Z</time></trkpt><trkpt lat="46.1325142" lon="9.3648995"><ele>215.0</ele><time>2026-05-03T12:05:10.609Z</time></trkpt><trkpt lat="46.1324832" lon="9.3647695"><ele>214.75</ele><time>2026-05-03T12:05:11.606Z</time></trkpt><trkpt lat="46.1324629" lon="9.3646211"><ele>214.5</ele><time>2026-05-03T12:05:12.604Z</time></trkpt><trkpt lat="46.1324229" lon="9.3644761"><ele>214.25</ele><time>2026-05-03T12:05:13.596Z</time></trkpt><trkpt lat="46.1323593" lon="9.3643521"><ele>214.0</ele><time>2026-05-03T12:05:14.602Z</time></trkpt><trkpt lat="46.1322718" lon="9.3642114"><ele>213.66666666666666</ele><time>2026-05-03T12:05:15.598Z</time></trkpt><trkpt lat="46.1321903" lon="9.3640431"><ele>213.33333333333331</ele><time>2026-05-03T12:05:16.593Z</time></trkpt><trkpt lat="46.1321135" lon="9.3638403"><ele>213.0</ele><time>2026-05-03T12:05:17.611Z</time></trkpt><trkpt lat="46.1320085" lon="9.3636235"><ele>213.0</ele><time>2026-05-03T12:05:18.602Z</time></trkpt><trkpt lat="46.1319274" lon="9.3634003"><ele>213.0</ele><time>2026-05-03T12:05:19.599Z</time></trkpt><trkpt lat="46.1318584" lon="9.3631789"><ele>213.0</ele><time>2026-05-03T12:05:20.608Z</time></trkpt><trkpt lat="46.1317704" lon="9.3629731"><ele>213.0</ele><time>2026-05-03T12:05:21.606Z</time></trkpt><trkpt lat="46.1316905" lon="9.362765"><ele>213.0</ele><time>2026-05-03T12:05:22.603Z</time></trkpt><trkpt lat="46.1315999" lon="9.3625442"><ele>213.0</ele><time>2026-05-03T12:05:23.609Z</time></trkpt><trkpt lat="46.1315255" lon="9.3623097"><ele>214.66666666666669</ele><time>2026-05-03T12:05:24.605Z</time></trkpt><trkpt lat="46.1314458" lon="9.3620672"><ele>216.33333333333334</ele><time>2026-05-03T12:05:25.606Z</time></trkpt><trkpt lat="46.1313654" lon="9.3618182"><ele>218.0</ele><time>2026-05-03T12:05:26.606Z</time></trkpt><trkpt lat="46.1312867" lon="9.3615684"><ele>218.33333333333334</ele><time>2026-05-03T12:05:27.605Z</time></trkpt><trkpt lat="46.1312094" lon="9.361325"><ele>218.66666666666669</ele><time>2026-05-03T12:05:28.608Z</time></trkpt><trkpt lat="46.1311223" lon="9.3610875"><ele>219.0</ele><time>2026-05-03T12:05:29.607Z</time></trkpt><trkpt lat="46.1310205" lon="9.3608425"><ele>219.0</ele><time>2026-05-03T12:05:30.603Z</time></trkpt><trkpt lat="46.130925" lon="9.3606111"><ele>219.0</ele><time>2026-05-03T12:05:31.603Z</time></trkpt><trkpt lat="46.130847" lon="9.3603728"><ele>219.0</ele><time>2026-05-03T12:05:32.61Z</time></trkpt><trkpt lat="46.1307836" lon="9.3601628"><ele>219.5</ele><time>2026-05-03T12:05:33.61Z</time></trkpt><trkpt lat="46.130721" lon="9.3599663"><ele>220.0</ele><time>2026-05-03T12:05:34.599Z</time></trkpt><trkpt lat="46.1306513" lon="9.3597935"><ele>220.5</ele><time>2026-05-03T12:05:35.605Z</time></trkpt><trkpt lat="46.1305879" lon="9.3596331"><ele>221.0</ele><time>2026-05-03T12:05:36.603Z</time></trkpt><trkpt lat="46.1305335" lon="9.3594779"><ele>220.0</ele><time>2026-05-03T12:05:37.603Z</time></trkpt><trkpt lat="46.130472" lon="9.3593232"><ele>219.0</ele><time>2026-05-03T12:05:38.606Z</time></trkpt><trkpt lat="46.1304168" lon="9.3591576"><ele>218.0</ele><time>2026-05-03T12:05:39.61Z</time></trkpt><trkpt lat="46.1303521" lon="9.3589983"><ele>217.0</ele><time>2026-05-03T12:05:40.607Z</time></trkpt><trkpt lat="46.1302945" lon="9.3588416"><ele>216.75</ele><time>2026-05-03T12:05:41.609Z</time></trkpt><trkpt lat="46.1302403" lon="9.3586826"><ele>216.5</ele><time>2026-05-03T12:05:42.613Z</time></trkpt><trkpt lat="46.1301835" lon="9.3585185"><ele>216.25</ele><time>2026-05-03T12:05:43.607Z</time></trkpt><trkpt lat="46.1301252" lon="9.3583532"><ele>216.0</ele><time>2026-05-03T12:05:44.618Z</time></trkpt><trkpt lat="46.1300644" lon="9.3581901"><ele>215.75</ele><time>2026-05-03T12:05:45.61Z</time></trkpt><trkpt lat="46.1300007" lon="9.3580265"><ele>215.5</ele><time>2026-05-03T12:05:46.608Z</time></trkpt><trkpt lat="46.1299411" lon="9.3578631"><ele>215.25</ele><time>2026-05-03T12:05:47.607Z</time></trkpt><trkpt lat="46.129881" lon="9.3576998"><ele>215.0</ele><time>2026-05-03T12:05:48.608Z</time></trkpt><trkpt lat="46.1298146" lon="9.3575388"><ele>216.0</ele><time>2026-05-03T12:05:49.603Z</time></trkpt><trkpt lat="46.1297455" lon="9.3573779"><ele>217.0</ele><time>2026-05-03T12:05:50.614Z</time></trkpt><trkpt lat="46.1296686" lon="9.3572202"><ele>218.0</ele><time>2026-05-03T12:05:51.611Z</time></trkpt><trkpt lat="46.1295842" lon="9.3570591"><ele>219.0</ele><time>2026-05-03T12:05:52.615Z</time></trkpt><trkpt lat="46.1294966" lon="9.3568972"><ele>219.0</ele><time>2026-05-03T12:05:53.615Z</time></trkpt><trkpt lat="46.1294055" lon="9.3567411"><ele>219.0</ele><time>2026-05-03T12:05:54.609Z</time></trkpt><trkpt lat="46.1293232" lon="9.3565878"><ele>219.0</ele><time>2026-05-03T12:05:55.613Z</time></trkpt><trkpt lat="46.1292295" lon="9.3564221"><ele>219.0</ele><time>2026-05-03T12:05:56.611Z</time></trkpt><trkpt lat="46.129135" lon="9.3562894"><ele>219.5</ele><time>2026-05-03T12:05:57.617Z</time></trkpt><trkpt lat="46.1290334" lon="9.3561397"><ele>220.0</ele><time>2026-05-03T12:05:58.603Z</time></trkpt><trkpt lat="46.1288971" lon="9.3560072"><ele>220.5</ele><time>2026-05-03T12:05:59.607Z</time></trkpt><trkpt lat="46.1288073" lon="9.3558721"><ele>221.0</ele><time>2026-05-03T12:06:00.604Z</time></trkpt><trkpt lat="46.1287179" lon="9.3557351"><ele>221.0</ele><time>2026-05-03T12:06:01.603Z</time></trkpt><trkpt lat="46.1286171" lon="9.3556076"><ele>221.0</ele><time>2026-05-03T12:06:02.604Z</time></trkpt><trkpt lat="46.1285199" lon="9.35549"><ele>221.0</ele><time>2026-05-03T12:06:03.605Z</time></trkpt><trkpt lat="46.1284095" lon="9.3553726"><ele>221.0</ele><time>2026-05-03T12:06:04.602Z</time></trkpt><trkpt lat="46.1283126" lon="9.3552375"><ele>221.0</ele><time>2026-05-03T12:06:05.608Z</time></trkpt><trkpt lat="46.1282187" lon="9.3550958"><ele>221.0</ele><time>2026-05-03T12:06:06.61Z</time></trkpt><trkpt lat="46.1281165" lon="9.3549541"><ele>221.0</ele><time>2026-05-03T12:06:07.602Z</time></trkpt><trkpt lat="46.1280077" lon="9.3548138"><ele>221.0</ele><time>2026-05-03T12:06:08.603Z</time></trkpt><trkpt lat="46.1279099" lon="9.3546697"><ele>220.0</ele><time>2026-05-03T12:06:09.609Z</time></trkpt><trkpt lat="46.1277868" lon="9.3545377"><ele>219.0</ele><time>2026-05-03T12:06:10.602Z</time></trkpt><trkpt lat="46.1276893" lon="9.3544067"><ele>218.0</ele><time>2026-05-03T12:06:11.612Z</time></trkpt><trkpt lat="46.1275986" lon="9.3542698"><ele>217.0</ele><time>2026-05-03T12:06:12.601Z</time></trkpt><trkpt lat="46.1274883" lon="9.3541427"><ele>217.5</ele><time>2026-05-03T12:06:13.607Z</time></trkpt><trkpt lat="46.1273915" lon="9.3540208"><ele>218.0</ele><time>2026-05-03T12:06:14.608Z</time></trkpt><trkpt lat="46.1272948" lon="9.3539037"><ele>218.5</ele><time>2026-05-03T12:06:15.605Z</time></trkpt><trkpt lat="46.1272065" lon="9.353785"><ele>219.0</ele><time>2026-05-03T12:06:16.605Z</time></trkpt><trkpt lat="46.1271082" lon="9.3536447"><ele>218.0</ele><time>2026-05-03T12:06:17.608Z</time></trkpt><trkpt lat="46.1270089" lon="9.3535053"><ele>217.0</ele><time>2026-05-03T12:06:18.614Z</time></trkpt><trkpt lat="46.1269211" lon="9.3533827"><ele>216.0</ele><time>2026-05-03T12:06:19.611Z</time></trkpt><trkpt lat="46.1268253" lon="9.3532645"><ele>215.0</ele><time>2026-05-03T12:06:20.607Z</time></trkpt><trkpt lat="46.1267289" lon="9.3531399"><ele>214.5</ele><time>2026-05-03T12:06:21.608Z</time></trkpt><trkpt lat="46.1266244" lon="9.3530242"><ele>214.0</ele><time>2026-05-03T12:06:22.606Z</time></trkpt><trkpt lat="46.1265316" lon="9.3528922"><ele>213.5</ele><time>2026-05-03T12:06:23.609Z</time></trkpt><trkpt lat="46.1264237" lon="9.3527598"><ele>213.0</ele><time>2026-05-03T12:06:24.604Z</time></trkpt><trkpt lat="46.1263192" lon="9.352622"><ele>213.0</ele><time>2026-05-03T12:06:25.608Z</time></trkpt><trkpt lat="46.1262194" lon="9.3524926"><ele>213.0</ele><time>2026-05-03T12:06:26.609Z</time></trkpt><trkpt lat="46.1261186" lon="9.3523616"><ele>213.0</ele><time>2026-05-03T12:06:27.607Z</time></trkpt><trkpt lat="46.126002" lon="9.352233"><ele>213.0</ele><time>2026-05-03T12:06:28.609Z</time></trkpt><trkpt lat="46.1258909" lon="9.3520958"><ele>212.75</ele><time>2026-05-03T12:06:29.61Z</time></trkpt><trkpt lat="46.1257824" lon="9.3519636"><ele>212.5</ele><time>2026-05-03T12:06:30.602Z</time></trkpt><trkpt lat="46.1256747" lon="9.3518251"><ele>212.25</ele><time>2026-05-03T12:06:31.616Z</time></trkpt><trkpt lat="46.1255707" lon="9.351695"><ele>212.0</ele><time>2026-05-03T12:06:32.607Z</time></trkpt><trkpt lat="46.1254639" lon="9.3515649"><ele>212.0</ele><time>2026-05-03T12:06:33.606Z</time></trkpt><trkpt lat="46.1253582" lon="9.3514433"><ele>212.0</ele><time>2026-05-03T12:06:34.604Z</time></trkpt><trkpt lat="46.125265" lon="9.3513229"><ele>212.0</ele><time>2026-05-03T12:06:35.608Z</time></trkpt><trkpt lat="46.1251696" lon="9.3512113"><ele>212.0</ele><time>2026-05-03T12:06:36.601Z</time></trkpt><trkpt lat="46.125086" lon="9.3510963"><ele>212.0</ele><time>2026-05-03T12:06:37.612Z</time></trkpt><trkpt lat="46.1249647" lon="9.3510151"><ele>212.0</ele><time>2026-05-03T12:06:38.601Z</time></trkpt><trkpt lat="46.1248365" lon="9.3509532"><ele>212.0</ele><time>2026-05-03T12:06:39.598Z</time></trkpt><trkpt lat="46.1247061" lon="9.3509054"><ele>212.0</ele><time>2026-05-03T12:06:40.605Z</time></trkpt><trkpt lat="46.1245674" lon="9.3508634"><ele>212.25</ele><time>2026-05-03T12:06:41.604Z</time></trkpt><trkpt lat="46.1244208" lon="9.3508202"><ele>212.5</ele><time>2026-05-03T12:06:42.601Z</time></trkpt><trkpt lat="46.1242691" lon="9.350776"><ele>212.75</ele><time>2026-05-03T12:06:43.6Z</time></trkpt><trkpt lat="46.1241404" lon="9.3507224"><ele>213.0</ele><time>2026-05-03T12:06:44.598Z</time></trkpt><trkpt lat="46.1240145" lon="9.3506723"><ele>213.25</ele><time>2026-05-03T12:06:45.601Z</time></trkpt><trkpt lat="46.1238934" lon="9.3506216"><ele>213.5</ele><time>2026-05-03T12:06:46.606Z</time></trkpt><trkpt lat="46.123771" lon="9.3505708"><ele>213.75</ele><time>2026-05-03T12:06:47.61Z</time></trkpt><trkpt lat="46.123638" lon="9.3505255"><ele>214.0</ele><time>2026-05-03T12:06:48.602Z</time></trkpt><trkpt lat="46.1235146" lon="9.3504737"><ele>213.5</ele><time>2026-05-03T12:06:49.613Z</time></trkpt><trkpt lat="46.1233868" lon="9.350425"><ele>213.0</ele><time>2026-05-03T12:06:50.61Z</time></trkpt><trkpt lat="46.1232521" lon="9.3503823"><ele>212.5</ele><time>2026-05-03T12:06:51.601Z</time></trkpt><trkpt lat="46.123105" lon="9.3503288"><ele>212.0</ele><time>2026-05-03T12:06:52.607Z</time></trkpt><trkpt lat="46.1229554" lon="9.350265"><ele>212.0</ele><time>2026-05-03T12:06:53.609Z</time></trkpt><trkpt lat="46.122813" lon="9.3502266"><ele>212.0</ele><time>2026-05-03T12:06:54.604Z</time></trkpt><trkpt lat="46.1226478" lon="9.3501669"><ele>212.0</ele><time>2026-05-03T12:06:55.607Z</time></trkpt><trkpt lat="46.1225049" lon="9.3501057"><ele>212.25</ele><time>2026-05-03T12:06:56.602Z</time></trkpt><trkpt lat="46.1223737" lon="9.3500429"><ele>212.5</ele><time>2026-05-03T12:06:57.607Z</time></trkpt><trkpt lat="46.1222244" lon="9.3499902"><ele>212.75</ele><time>2026-05-03T12:06:58.61Z</time></trkpt><trkpt lat="46.1220911" lon="9.3499344"><ele>213.0</ele><time>2026-05-03T12:06:59.606Z</time></trkpt><trkpt lat="46.1219587" lon="9.3498891"><ele>213.0</ele><time>2026-05-03T12:07:00.611Z</time></trkpt><trkpt lat="46.1218066" lon="9.3498213"><ele>213.0</ele><time>2026-05-03T12:07:01.605Z</time></trkpt><trkpt lat="46.1216519" lon="9.3497696"><ele>213.0</ele><time>2026-05-03T12:07:02.602Z</time></trkpt><trkpt lat="46.1215152" lon="9.3497165"><ele>212.25</ele><time>2026-05-03T12:07:03.601Z</time></trkpt><trkpt lat="46.1213786" lon="9.3496496"><ele>211.5</ele><time>2026-05-03T12:07:04.605Z</time></trkpt><trkpt lat="46.1212403" lon="9.3496022"><ele>210.75</ele><time>2026-05-03T12:07:05.603Z</time></trkpt><trkpt lat="46.1211092" lon="9.3495462"><ele>210.0</ele><time>2026-05-03T12:07:06.596Z</time></trkpt><trkpt lat="46.12098" lon="9.3494892"><ele>210.0</ele><time>2026-05-03T12:07:07.609Z</time></trkpt><trkpt lat="46.1208496" lon="9.3494408"><ele>210.0</ele><time>2026-05-03T12:07:08.604Z</time></trkpt><trkpt lat="46.120728" lon="9.349398"><ele>210.0</ele><time>2026-05-03T12:07:09.607Z</time></trkpt><trkpt lat="46.1205958" lon="9.3493328"><ele>210.0</ele><time>2026-05-03T12:07:10.606Z</time></trkpt><trkpt lat="46.1204767" lon="9.3492743"><ele>210.6</ele><time>2026-05-03T12:07:11.604Z</time></trkpt><trkpt lat="46.1203623" lon="9.3492272"><ele>211.2</ele><time>2026-05-03T12:07:12.602Z</time></trkpt><trkpt lat="46.1202563" lon="9.3491803"><ele>211.8</ele><time>2026-05-03T12:07:13.609Z</time></trkpt><trkpt lat="46.1201485" lon="9.349137"><ele>212.4</ele><time>2026-05-03T12:07:14.607Z</time></trkpt><trkpt lat="46.120047" lon="9.3491132"><ele>213.0</ele><time>2026-05-03T12:07:15.599Z</time></trkpt><trkpt lat="46.1199502" lon="9.3490907"><ele>213.0</ele><time>2026-05-03T12:07:16.602Z</time></trkpt><trkpt lat="46.1198641" lon="9.3490687"><ele>213.0</ele><time>2026-05-03T12:07:17.605Z</time></trkpt><trkpt lat="46.1197831" lon="9.3490478"><ele>213.0</ele><time>2026-05-03T12:07:18.609Z</time></trkpt><trkpt lat="46.1197093" lon="9.3490287"><ele>213.0</ele><time>2026-05-03T12:07:19.606Z</time></trkpt><trkpt lat="46.1196445" lon="9.3490132"><ele>213.0</ele><time>2026-05-03T12:07:20.606Z</time></trkpt><trkpt lat="46.1195773" lon="9.348981"><ele>213.0</ele><time>2026-05-03T12:07:21.601Z</time></trkpt><trkpt lat="46.1195059" lon="9.3489419"><ele>213.0</ele><time>2026-05-03T12:07:22.607Z</time></trkpt><trkpt lat="46.1194288" lon="9.3489013"><ele>213.0</ele><time>2026-05-03T12:07:23.607Z</time></trkpt><trkpt lat="46.1193389" lon="9.3488631"><ele>213.0</ele><time>2026-05-03T12:07:24.601Z</time></trkpt><trkpt lat="46.1192357" lon="9.3488222"><ele>213.0</ele><time>2026-05-03T12:07:25.603Z</time></trkpt><trkpt lat="46.1191273" lon="9.3487698"><ele>213.0</ele><time>2026-05-03T12:07:26.603Z</time></trkpt><trkpt lat="46.1190158" lon="9.3487147"><ele>212.25</ele><time>2026-05-03T12:07:27.609Z</time></trkpt><trkpt lat="46.1188958" lon="9.3486579"><ele>211.5</ele><time>2026-05-03T12:07:28.607Z</time></trkpt><trkpt lat="46.1187726" lon="9.3486044"><ele>210.75</ele><time>2026-05-03T12:07:29.599Z</time></trkpt><trkpt lat="46.1186422" lon="9.3485595"><ele>210.0</ele><time>2026-05-03T12:07:30.591Z</time></trkpt><trkpt lat="46.1185115" lon="9.3485289"><ele>210.0</ele><time>2026-05-03T12:07:31.597Z</time></trkpt><trkpt lat="46.118389" lon="9.348509"><ele>210.0</ele><time>2026-05-03T12:07:32.591Z</time></trkpt><trkpt lat="46.1182722" lon="9.3484939"><ele>210.0</ele><time>2026-05-03T12:07:33.591Z</time></trkpt><trkpt lat="46.1181498" lon="9.3484802"><ele>210.0</ele><time>2026-05-03T12:07:34.599Z</time></trkpt><trkpt lat="46.1180285" lon="9.348467"><ele>211.0</ele><time>2026-05-03T12:07:35.594Z</time></trkpt><trkpt lat="46.1179153" lon="9.3484542"><ele>212.0</ele><time>2026-05-03T12:07:36.593Z</time></trkpt><trkpt lat="46.1178085" lon="9.3484448"><ele>213.0</ele><time>2026-05-03T12:07:37.588Z</time></trkpt><trkpt lat="46.1177131" lon="9.3484427"><ele>214.0</ele><time>2026-05-03T12:07:38.596Z</time></trkpt><trkpt lat="46.1176211" lon="9.3484395"><ele>215.0</ele><time>2026-05-03T12:07:39.589Z</time></trkpt><trkpt lat="46.1175323" lon="9.3484256"><ele>215.00000000000003</ele><time>2026-05-03T12:07:40.587Z</time></trkpt><trkpt lat="46.1174474" lon="9.3484085"><ele>215.0</ele><time>2026-05-03T12:07:41.59Z</time></trkpt><trkpt lat="46.1173683" lon="9.3483611"><ele>215.0</ele><time>2026-05-03T12:07:42.597Z</time></trkpt><trkpt lat="46.1172939" lon="9.3482973"><ele>215.0</ele><time>2026-05-03T12:07:43.585Z</time></trkpt><trkpt lat="46.1172278" lon="9.3482041"><ele>215.00000000000003</ele><time>2026-05-03T12:07:44.607Z</time></trkpt><trkpt lat="46.1171821" lon="9.3480922"><ele>215.0</ele><time>2026-05-03T12:07:45.589Z</time></trkpt><trkpt lat="46.1171542" lon="9.3479493"><ele>216.8</ele><time>2026-05-03T12:07:46.597Z</time></trkpt><trkpt lat="46.1171491" lon="9.3477977"><ele>218.6</ele><time>2026-05-03T12:07:47.592Z</time></trkpt><trkpt lat="46.1171634" lon="9.3476415"><ele>220.39999999999998</ele><time>2026-05-03T12:07:48.588Z</time></trkpt><trkpt lat="46.1171912" lon="9.3474836"><ele>222.2</ele><time>2026-05-03T12:07:49.592Z</time></trkpt><trkpt lat="46.1172186" lon="9.3473336"><ele>224.0</ele><time>2026-05-03T12:07:50.599Z</time></trkpt><trkpt lat="46.1172319" lon="9.3471838"><ele>224.0</ele><time>2026-05-03T12:07:51.588Z</time></trkpt><trkpt lat="46.1172339" lon="9.3470408"><ele>223.99999999999997</ele><time>2026-05-03T12:07:52.602Z</time></trkpt><trkpt lat="46.1172205" lon="9.3469119"><ele>223.99999999999997</ele><time>2026-05-03T12:07:53.598Z</time></trkpt><trkpt lat="46.1171816" lon="9.346788"><ele>224.0</ele><time>2026-05-03T12:07:54.592Z</time></trkpt><trkpt lat="46.1171089" lon="9.3466372"><ele>224.0</ele><time>2026-05-03T12:07:55.594Z</time></trkpt><trkpt lat="46.1170089" lon="9.3464588"><ele>218.66666666666669</ele><time>2026-05-03T12:07:56.592Z</time></trkpt><trkpt lat="46.1168749" lon="9.3462273"><ele>213.33333333333331</ele><time>2026-05-03T12:07:57.592Z</time></trkpt><trkpt lat="46.1167315" lon="9.3460375"><ele>208.0</ele><time>2026-05-03T12:07:58.598Z</time></trkpt><trkpt lat="46.1166238" lon="9.3458731"><ele>216.0</ele><time>2026-05-03T12:07:59.596Z</time></trkpt><trkpt lat="46.1165353" lon="9.3456985"><ele>224.0</ele><time>2026-05-03T12:08:00.594Z</time></trkpt><trkpt lat="46.1164751" lon="9.3455292"><ele>232.0</ele><time>2026-05-03T12:08:01.59Z</time></trkpt><trkpt lat="46.116415" lon="9.3453444"><ele>240.0</ele><time>2026-05-03T12:08:02.593Z</time></trkpt><trkpt lat="46.1163544" lon="9.3451371"><ele>240.0</ele><time>2026-05-03T12:08:03.587Z</time></trkpt><trkpt lat="46.1163269" lon="9.3449096"><ele>240.0</ele><time>2026-05-03T12:08:04.593Z</time></trkpt><trkpt lat="46.1163264" lon="9.3446841"><ele>240.0</ele><time>2026-05-03T12:08:05.583Z</time></trkpt><trkpt lat="46.1163323" lon="9.3444619"><ele>237.66666666666669</ele><time>2026-05-03T12:08:06.584Z</time></trkpt><trkpt lat="46.1163368" lon="9.3442343"><ele>235.33333333333334</ele><time>2026-05-03T12:08:07.587Z</time></trkpt><trkpt lat="46.1163388" lon="9.3440039"><ele>233.0</ele><time>2026-05-03T12:08:08.589Z</time></trkpt><trkpt lat="46.1163204" lon="9.3437591"><ele>233.0</ele><time>2026-05-03T12:08:09.588Z</time></trkpt><trkpt lat="46.1162857" lon="9.3434984"><ele>233.0</ele><time>2026-05-03T12:08:10.593Z</time></trkpt><trkpt lat="46.1162658" lon="9.3432581"><ele>233.0</ele><time>2026-05-03T12:08:11.589Z</time></trkpt><trkpt lat="46.1162517" lon="9.3430112"><ele>236.0</ele><time>2026-05-03T12:08:12.594Z</time></trkpt><trkpt lat="46.1162189" lon="9.3427522"><ele>239.0</ele><time>2026-05-03T12:08:13.589Z</time></trkpt><trkpt lat="46.1162265" lon="9.3424953"><ele>242.0</ele><time>2026-05-03T12:08:14.587Z</time></trkpt><trkpt lat="46.1162674" lon="9.3422252"><ele>245.0</ele><time>2026-05-03T12:08:15.587Z</time></trkpt><trkpt lat="46.1163147" lon="9.34197"><ele>248.0</ele><time>2026-05-03T12:08:16.587Z</time></trkpt><trkpt lat="46.1163822" lon="9.3417237"><ele>251.0</ele><time>2026-05-03T12:08:17.587Z</time></trkpt><trkpt lat="46.1164604" lon="9.3414922"><ele>257.33333333333337</ele><time>2026-05-03T12:08:18.585Z</time></trkpt><trkpt lat="46.1165178" lon="9.3412468"><ele>263.6666666666667</ele><time>2026-05-03T12:08:19.582Z</time></trkpt><trkpt lat="46.1165712" lon="9.3409934"><ele>270.0</ele><time>2026-05-03T12:08:20.583Z</time></trkpt><trkpt lat="46.1166293" lon="9.3407457"><ele>255.0</ele><time>2026-05-03T12:08:21.582Z</time></trkpt><trkpt lat="46.1166956" lon="9.3404934"><ele>240.0</ele><time>2026-05-03T12:08:22.583Z</time></trkpt><trkpt lat="46.1167552" lon="9.3402452"><ele>225.0</ele><time>2026-05-03T12:08:23.59Z</time></trkpt><trkpt lat="46.1168251" lon="9.3399807"><ele>229.0</ele><time>2026-05-03T12:08:24.583Z</time></trkpt><trkpt lat="46.1168962" lon="9.3397166"><ele>233.0</ele><time>2026-05-03T12:08:25.58Z</time></trkpt><trkpt lat="46.116928" lon="9.3394641"><ele>237.0</ele><time>2026-05-03T12:08:26.589Z</time></trkpt><trkpt lat="46.1169578" lon="9.3392229"><ele>237.0</ele><time>2026-05-03T12:08:27.587Z</time></trkpt><trkpt lat="46.1169831" lon="9.3389541"><ele>237.0</ele><time>2026-05-03T12:08:28.59Z</time></trkpt><trkpt lat="46.1169955" lon="9.3386953"><ele>237.0</ele><time>2026-05-03T12:08:29.596Z</time></trkpt><trkpt lat="46.1169964" lon="9.3384365"><ele>238.0</ele><time>2026-05-03T12:08:30.588Z</time></trkpt><trkpt lat="46.1169864" lon="9.3381919"><ele>239.0</ele><time>2026-05-03T12:08:31.602Z</time></trkpt><trkpt lat="46.1169998" lon="9.3379796"><ele>240.0</ele><time>2026-05-03T12:08:32.589Z</time></trkpt><trkpt lat="46.1169723" lon="9.3377575"><ele>238.0</ele><time>2026-05-03T12:08:33.588Z</time></trkpt><trkpt lat="46.1169563" lon="9.3375345"><ele>236.0</ele><time>2026-05-03T12:08:34.592Z</time></trkpt><trkpt lat="46.1168994" lon="9.3372972"><ele>234.0</ele><time>2026-05-03T12:08:35.588Z</time></trkpt><trkpt lat="46.1168222" lon="9.3370981"><ele>230.0</ele><time>2026-05-03T12:08:36.601Z</time></trkpt><trkpt lat="46.1167454" lon="9.336879"><ele>226.0</ele><time>2026-05-03T12:08:37.592Z</time></trkpt><trkpt lat="46.1166674" lon="9.3366512"><ele>222.0</ele><time>2026-05-03T12:08:38.583Z</time></trkpt><trkpt lat="46.1165763" lon="9.3364312"><ele>235.66666666666669</ele><time>2026-05-03T12:08:39.587Z</time></trkpt><trkpt lat="46.1164705" lon="9.336195"><ele>249.33333333333334</ele><time>2026-05-03T12:08:40.584Z</time></trkpt><trkpt lat="46.1163671" lon="9.3359836"><ele>263.0</ele><time>2026-05-03T12:08:41.588Z</time></trkpt><trkpt lat="46.1162691" lon="9.3357872"><ele>263.0</ele><time>2026-05-03T12:08:42.587Z</time></trkpt><trkpt lat="46.1161633" lon="9.3355907"><ele>263.0</ele><time>2026-05-03T12:08:43.584Z</time></trkpt><trkpt lat="46.1160768" lon="9.3353842"><ele>263.0</ele><time>2026-05-03T12:08:44.584Z</time></trkpt><trkpt lat="46.1159837" lon="9.3351936"><ele>256.0</ele><time>2026-05-03T12:08:45.591Z</time></trkpt><trkpt lat="46.1159163" lon="9.334991"><ele>249.0</ele><time>2026-05-03T12:08:46.588Z</time></trkpt><trkpt lat="46.1158676" lon="9.3347716"><ele>242.0</ele><time>2026-05-03T12:08:47.595Z</time></trkpt><trkpt lat="46.1158585" lon="9.3345303"><ele>236.0</ele><time>2026-05-03T12:08:48.593Z</time></trkpt><trkpt lat="46.1158503" lon="9.3343148"><ele>230.0</ele><time>2026-05-03T12:08:49.586Z</time></trkpt><trkpt lat="46.115781" lon="9.3341189"><ele>224.0</ele><time>2026-05-03T12:08:50.591Z</time></trkpt><trkpt lat="46.1157049" lon="9.3339275"><ele>231.66666666666669</ele><time>2026-05-03T12:08:51.593Z</time></trkpt><trkpt lat="46.1156182" lon="9.3337218"><ele>239.33333333333331</ele><time>2026-05-03T12:08:52.591Z</time></trkpt><trkpt lat="46.1155191" lon="9.3335229"><ele>247.0</ele><time>2026-05-03T12:08:53.596Z</time></trkpt><trkpt lat="46.1154067" lon="9.333337"><ele>247.0</ele><time>2026-05-03T12:08:54.592Z</time></trkpt><trkpt lat="46.1153237" lon="9.3331745"><ele>247.0</ele><time>2026-05-03T12:08:55.597Z</time></trkpt><trkpt lat="46.1152445" lon="9.3330092"><ele>247.0</ele><time>2026-05-03T12:08:56.593Z</time></trkpt><trkpt lat="46.1151699" lon="9.3328306"><ele>247.0</ele><time>2026-05-03T12:08:57.6Z</time></trkpt><trkpt lat="46.1150889" lon="9.3326367"><ele>248.66666666666666</ele><time>2026-05-03T12:08:58.596Z</time></trkpt><trkpt lat="46.1149981" lon="9.3324283"><ele>250.33333333333331</ele><time>2026-05-03T12:08:59.595Z</time></trkpt><trkpt lat="46.114925" lon="9.3322323"><ele>252.0</ele><time>2026-05-03T12:09:00.597Z</time></trkpt><trkpt lat="46.1148345" lon="9.3320258"><ele>252.0</ele><time>2026-05-03T12:09:01.591Z</time></trkpt><trkpt lat="46.1147483" lon="9.3318238"><ele>252.0</ele><time>2026-05-03T12:09:02.601Z</time></trkpt><trkpt lat="46.1146757" lon="9.3316329"><ele>252.0</ele><time>2026-05-03T12:09:03.593Z</time></trkpt><trkpt lat="46.114622" lon="9.3314488"><ele>250.25</ele><time>2026-05-03T12:09:04.591Z</time></trkpt><trkpt lat="46.1145765" lon="9.3312576"><ele>248.5</ele><time>2026-05-03T12:09:05.589Z</time></trkpt><trkpt lat="46.1145011" lon="9.3310898"><ele>246.75</ele><time>2026-05-03T12:09:06.593Z</time></trkpt><trkpt lat="46.1144327" lon="9.3309073"><ele>245.0</ele><time>2026-05-03T12:09:07.589Z</time></trkpt><trkpt lat="46.1144043" lon="9.3307223"><ele>243.0</ele><time>2026-05-03T12:09:08.587Z</time></trkpt><trkpt lat="46.1143828" lon="9.3305323"><ele>241.0</ele><time>2026-05-03T12:09:09.583Z</time></trkpt><trkpt lat="46.1143681" lon="9.3303352"><ele>239.0</ele><time>2026-05-03T12:09:10.585Z</time></trkpt><trkpt lat="46.1143599" lon="9.3301044"><ele>237.0</ele><time>2026-05-03T12:09:11.59Z</time></trkpt><trkpt lat="46.114357" lon="9.3298606"><ele>236.25</ele><time>2026-05-03T12:09:12.591Z</time></trkpt><trkpt lat="46.114392" lon="9.3296385"><ele>235.5</ele><time>2026-05-03T12:09:13.587Z</time></trkpt><trkpt lat="46.1144104" lon="9.3294232"><ele>234.75</ele><time>2026-05-03T12:09:14.599Z</time></trkpt><trkpt lat="46.114406" lon="9.3292222"><ele>234.0</ele><time>2026-05-03T12:09:15.592Z</time></trkpt><trkpt lat="46.1144062" lon="9.3290415"><ele>234.0</ele><time>2026-05-03T12:09:16.584Z</time></trkpt><trkpt lat="46.1144006" lon="9.3288926"><ele>234.0</ele><time>2026-05-03T12:09:17.589Z</time></trkpt><trkpt lat="46.1143739" lon="9.3287756"><ele>234.0</ele><time>2026-05-03T12:09:18.595Z</time></trkpt><trkpt lat="46.114352" lon="9.3286897"><ele>234.0</ele><time>2026-05-03T12:09:19.592Z</time></trkpt><trkpt lat="46.1143249" lon="9.3285796"><ele>234.0</ele><time>2026-05-03T12:09:20.594Z</time></trkpt><trkpt lat="46.1142807" lon="9.3284736"><ele>234.0</ele><time>2026-05-03T12:09:21.595Z</time></trkpt><trkpt lat="46.1142136" lon="9.3283606"><ele>232.6</ele><time>2026-05-03T12:09:22.59Z</time></trkpt><trkpt lat="46.1141393" lon="9.3282461"><ele>231.2</ele><time>2026-05-03T12:09:23.595Z</time></trkpt><trkpt lat="46.1140724" lon="9.3281354"><ele>229.79999999999998</ele><time>2026-05-03T12:09:24.593Z</time></trkpt><trkpt lat="46.114027" lon="9.3280147"><ele>228.39999999999998</ele><time>2026-05-03T12:09:25.587Z</time></trkpt><trkpt lat="46.1139933" lon="9.327891"><ele>227.0</ele><time>2026-05-03T12:09:26.591Z</time></trkpt><trkpt lat="46.1139751" lon="9.327757"><ele>241.25</ele><time>2026-05-03T12:09:27.587Z</time></trkpt><trkpt lat="46.1139676" lon="9.3275962"><ele>255.5</ele><time>2026-05-03T12:09:28.585Z</time></trkpt><trkpt lat="46.1139617" lon="9.3274186"><ele>269.75</ele><time>2026-05-03T12:09:29.592Z</time></trkpt><trkpt lat="46.1139526" lon="9.3272147"><ele>284.0</ele><time>2026-05-03T12:09:30.59Z</time></trkpt><trkpt lat="46.1139843" lon="9.3269921"><ele>284.5</ele><time>2026-05-03T12:09:31.586Z</time></trkpt><trkpt lat="46.1140001" lon="9.3268026"><ele>285.0</ele><time>2026-05-03T12:09:32.591Z</time></trkpt><trkpt lat="46.1140122" lon="9.3266346"><ele>285.5</ele><time>2026-05-03T12:09:33.587Z</time></trkpt><trkpt lat="46.1140612" lon="9.3264593"><ele>286.0</ele><time>2026-05-03T12:09:34.585Z</time></trkpt><trkpt lat="46.1140921" lon="9.3262814"><ele>274.0</ele><time>2026-05-03T12:09:35.581Z</time></trkpt><trkpt lat="46.1141392" lon="9.3261003"><ele>262.0</ele><time>2026-05-03T12:09:36.583Z</time></trkpt><trkpt lat="46.1141892" lon="9.3259201"><ele>250.0</ele><time>2026-05-03T12:09:37.583Z</time></trkpt><trkpt lat="46.1142331" lon="9.3257419"><ele>238.0</ele><time>2026-05-03T12:09:38.59Z</time></trkpt><trkpt lat="46.1142803" lon="9.3255793"><ele>242.0</ele><time>2026-05-03T12:09:39.579Z</time></trkpt><trkpt lat="46.1143225" lon="9.325427"><ele>246.0</ele><time>2026-05-03T12:09:40.581Z</time></trkpt><trkpt lat="46.1143738" lon="9.3252795"><ele>250.0</ele><time>2026-05-03T12:09:41.58Z</time></trkpt><trkpt lat="46.1144346" lon="9.3251443"><ele>254.0</ele><time>2026-05-03T12:09:42.581Z</time></trkpt><trkpt lat="46.1145085" lon="9.3250269"><ele>254.0</ele><time>2026-05-03T12:09:43.583Z</time></trkpt><trkpt lat="46.1145784" lon="9.3249142"><ele>253.99999999999997</ele><time>2026-05-03T12:09:44.584Z</time></trkpt><trkpt lat="46.1146454" lon="9.3247827"><ele>253.99999999999997</ele><time>2026-05-03T12:09:45.581Z</time></trkpt><trkpt lat="46.114704" lon="9.3246384"><ele>254.0</ele><time>2026-05-03T12:09:46.586Z</time></trkpt><trkpt lat="46.1147469" lon="9.3244859"><ele>254.0</ele><time>2026-05-03T12:09:47.576Z</time></trkpt><trkpt lat="46.1147682" lon="9.3243233"><ele>257.0</ele><time>2026-05-03T12:09:48.588Z</time></trkpt><trkpt lat="46.1147752" lon="9.3241624"><ele>260.0</ele><time>2026-05-03T12:09:49.593Z</time></trkpt><trkpt lat="46.1147728" lon="9.3240101"><ele>263.0</ele><time>2026-05-03T12:09:50.593Z</time></trkpt><trkpt lat="46.1147577" lon="9.3238657"><ele>266.0</ele><time>2026-05-03T12:09:51.588Z</time></trkpt><trkpt lat="46.1147339" lon="9.3237188"><ele>269.0</ele><time>2026-05-03T12:09:52.603Z</time></trkpt><trkpt lat="46.1147041" lon="9.3235693"><ele>269.2</ele><time>2026-05-03T12:09:53.59Z</time></trkpt><trkpt lat="46.1146638" lon="9.323431"><ele>269.4</ele><time>2026-05-03T12:09:54.588Z</time></trkpt><trkpt lat="46.1146152" lon="9.3232992"><ele>269.6</ele><time>2026-05-03T12:09:55.596Z</time></trkpt><trkpt lat="46.1145698" lon="9.3231585"><ele>269.8</ele><time>2026-05-03T12:09:56.588Z</time></trkpt><trkpt lat="46.1145409" lon="9.3230004"><ele>270.0</ele><time>2026-05-03T12:09:57.586Z</time></trkpt><trkpt lat="46.1145123" lon="9.3228187"><ele>270.0</ele><time>2026-05-03T12:09:58.597Z</time></trkpt><trkpt lat="46.1144957" lon="9.3226047"><ele>270.0</ele><time>2026-05-03T12:09:59.591Z</time></trkpt><trkpt lat="46.1144748" lon="9.3223472"><ele>270.0</ele><time>2026-05-03T12:10:00.596Z</time></trkpt><trkpt lat="46.1144702" lon="9.3221097"><ele>269.75</ele><time>2026-05-03T12:10:01.589Z</time></trkpt><trkpt lat="46.1144755" lon="9.3218978"><ele>269.5</ele><time>2026-05-03T12:10:02.585Z</time></trkpt><trkpt lat="46.1144817" lon="9.3217038"><ele>269.25</ele><time>2026-05-03T12:10:03.589Z</time></trkpt><trkpt lat="46.1144985" lon="9.3215203"><ele>269.0</ele><time>2026-05-03T12:10:04.589Z</time></trkpt><trkpt lat="46.1145044" lon="9.32132"><ele>268.33333333333337</ele><time>2026-05-03T12:10:05.588Z</time></trkpt><trkpt lat="46.1144941" lon="9.3210813"><ele>267.6666666666667</ele><time>2026-05-03T12:10:06.598Z</time></trkpt><trkpt lat="46.1145216" lon="9.3208201"><ele>267.0</ele><time>2026-05-03T12:10:07.585Z</time></trkpt><trkpt lat="46.114543" lon="9.3205634"><ele>266.0</ele><time>2026-05-03T12:10:08.592Z</time></trkpt><trkpt lat="46.1145533" lon="9.3202987"><ele>265.0</ele><time>2026-05-03T12:10:09.588Z</time></trkpt><trkpt lat="46.1145611" lon="9.3200483"><ele>264.0</ele><time>2026-05-03T12:10:10.593Z</time></trkpt><trkpt lat="46.1145683" lon="9.3198046"><ele>264.6666666666667</ele><time>2026-05-03T12:10:11.592Z</time></trkpt><trkpt lat="46.1145787" lon="9.3195687"><ele>265.33333333333337</ele><time>2026-05-03T12:10:12.59Z</time></trkpt><trkpt lat="46.1145915" lon="9.3193455"><ele>266.0</ele><time>2026-05-03T12:10:13.597Z</time></trkpt><trkpt lat="46.1146037" lon="9.3191234"><ele>266.0</ele><time>2026-05-03T12:10:14.598Z</time></trkpt><trkpt lat="46.1145977" lon="9.3189216"><ele>266.0</ele><time>2026-05-03T12:10:15.594Z</time></trkpt><trkpt lat="46.114593" lon="9.3187159"><ele>266.0</ele><time>2026-05-03T12:10:16.602Z</time></trkpt><trkpt lat="46.1145779" lon="9.3185143"><ele>266.0</ele><time>2026-05-03T12:10:17.591Z</time></trkpt><trkpt lat="46.1145511" lon="9.318311"><ele>264.25</ele><time>2026-05-03T12:10:18.59Z</time></trkpt><trkpt lat="46.1145051" lon="9.3181138"><ele>262.5</ele><time>2026-05-03T12:10:19.594Z</time></trkpt><trkpt lat="46.114454" lon="9.317915"><ele>260.75</ele><time>2026-05-03T12:10:20.596Z</time></trkpt><trkpt lat="46.1143857" lon="9.3177386"><ele>259.0</ele><time>2026-05-03T12:10:21.588Z</time></trkpt><trkpt lat="46.1143186" lon="9.3175633"><ele>258.0</ele><time>2026-05-03T12:10:22.605Z</time></trkpt><trkpt lat="46.1142268" lon="9.3173969"><ele>257.0</ele><time>2026-05-03T12:10:23.592Z</time></trkpt><trkpt lat="46.1141143" lon="9.3172542"><ele>256.0</ele><time>2026-05-03T12:10:24.596Z</time></trkpt><trkpt lat="46.1139916" lon="9.3171255"><ele>255.0</ele><time>2026-05-03T12:10:25.595Z</time></trkpt><trkpt lat="46.1138895" lon="9.316999"><ele>254.75</ele><time>2026-05-03T12:10:26.583Z</time></trkpt><trkpt lat="46.1137805" lon="9.3168761"><ele>254.5</ele><time>2026-05-03T12:10:27.593Z</time></trkpt><trkpt lat="46.113667" lon="9.3167627"><ele>254.25</ele><time>2026-05-03T12:10:28.588Z</time></trkpt><trkpt lat="46.1135335" lon="9.316675"><ele>254.0</ele><time>2026-05-03T12:10:29.617Z</time></trkpt><trkpt lat="46.1133948" lon="9.3166235"><ele>254.0</ele><time>2026-05-03T12:10:30.591Z</time></trkpt><trkpt lat="46.1132582" lon="9.3166176"><ele>254.0</ele><time>2026-05-03T12:10:31.595Z</time></trkpt><trkpt lat="46.1131107" lon="9.316634"><ele>254.0</ele><time>2026-05-03T12:10:32.591Z</time></trkpt><trkpt lat="46.1129461" lon="9.3166879"><ele>253.0</ele><time>2026-05-03T12:10:33.594Z</time></trkpt><trkpt lat="46.1128001" lon="9.3167173"><ele>252.0</ele><time>2026-05-03T12:10:34.587Z</time></trkpt><trkpt lat="46.1126555" lon="9.3167718"><ele>251.0</ele><time>2026-05-03T12:10:35.598Z</time></trkpt><trkpt lat="46.1125161" lon="9.3168038"><ele>250.0</ele><time>2026-05-03T12:10:36.591Z</time></trkpt><trkpt lat="46.1123744" lon="9.31681"><ele>246.75</ele><time>2026-05-03T12:10:37.589Z</time></trkpt><trkpt lat="46.1122328" lon="9.3167889"><ele>243.5</ele><time>2026-05-03T12:10:38.595Z</time></trkpt><trkpt lat="46.1120843" lon="9.3167968"><ele>240.25</ele><time>2026-05-03T12:10:39.597Z</time></trkpt><trkpt lat="46.1119434" lon="9.3168325"><ele>237.0</ele><time>2026-05-03T12:10:40.592Z</time></trkpt><trkpt lat="46.1117901" lon="9.3169179"><ele>237.0</ele><time>2026-05-03T12:10:41.6Z</time></trkpt><trkpt lat="46.111647" lon="9.3170421"><ele>237.0</ele><time>2026-05-03T12:10:42.596Z</time></trkpt><trkpt lat="46.1115304" lon="9.3171949"><ele>237.0</ele><time>2026-05-03T12:10:43.595Z</time></trkpt><trkpt lat="46.1114035" lon="9.3173647"><ele>235.66666666666669</ele><time>2026-05-03T12:10:44.6Z</time></trkpt><trkpt lat="46.1112676" lon="9.3175199"><ele>234.33333333333334</ele><time>2026-05-03T12:10:45.597Z</time></trkpt><trkpt lat="46.111115" lon="9.3176771"><ele>233.0</ele><time>2026-05-03T12:10:46.602Z</time></trkpt><trkpt lat="46.1109791" lon="9.3178315"><ele>233.0</ele><time>2026-05-03T12:10:47.598Z</time></trkpt><trkpt lat="46.1108516" lon="9.3180006"><ele>233.0</ele><time>2026-05-03T12:10:48.595Z</time></trkpt><trkpt lat="46.1107332" lon="9.3181484"><ele>233.0</ele><time>2026-05-03T12:10:49.602Z</time></trkpt><trkpt lat="46.1106092" lon="9.3182644"><ele>230.5</ele><time>2026-05-03T12:10:50.598Z</time></trkpt><trkpt lat="46.1104716" lon="9.3183021"><ele>228.0</ele><time>2026-05-03T12:10:51.593Z</time></trkpt><trkpt lat="46.1103262" lon="9.3183093"><ele>225.5</ele><time>2026-05-03T12:10:52.592Z</time></trkpt><trkpt lat="46.1101638" lon="9.3183162"><ele>223.0</ele><time>2026-05-03T12:10:53.594Z</time></trkpt><trkpt lat="46.1100163" lon="9.318361"><ele>218.5</ele><time>2026-05-03T12:10:54.59Z</time></trkpt><trkpt lat="46.1098883" lon="9.3184436"><ele>214.0</ele><time>2026-05-03T12:10:55.599Z</time></trkpt><trkpt lat="46.1097788" lon="9.3185892"><ele>209.5</ele><time>2026-05-03T12:10:56.587Z</time></trkpt><trkpt lat="46.1096525" lon="9.3187188"><ele>205.0</ele><time>2026-05-03T12:10:57.6Z</time></trkpt><trkpt lat="46.1095573" lon="9.3188997"><ele>212.33333333333331</ele><time>2026-05-03T12:10:58.598Z</time></trkpt><trkpt lat="46.1094545" lon="9.3190726"><ele>219.66666666666669</ele><time>2026-05-03T12:10:59.596Z</time></trkpt><trkpt lat="46.1093444" lon="9.3192307"><ele>227.0</ele><time>2026-05-03T12:11:00.604Z</time></trkpt><trkpt lat="46.1092433" lon="9.3193793"><ele>227.0</ele><time>2026-05-03T12:11:01.592Z</time></trkpt><trkpt lat="46.1091448" lon="9.3194947"><ele>227.0</ele><time>2026-05-03T12:11:02.598Z</time></trkpt><trkpt lat="46.109028" lon="9.3195862"><ele>227.0</ele><time>2026-05-03T12:11:03.59Z</time></trkpt><trkpt lat="46.1089079" lon="9.3196528"><ele>227.0</ele><time>2026-05-03T12:11:04.58Z</time></trkpt><trkpt lat="46.1087375" lon="9.3196646"><ele>222.33333333333334</ele><time>2026-05-03T12:11:05.6Z</time></trkpt><trkpt lat="46.1085562" lon="9.3196779"><ele>217.66666666666669</ele><time>2026-05-03T12:11:06.593Z</time></trkpt><trkpt lat="46.1083707" lon="9.3196852"><ele>213.0</ele><time>2026-05-03T12:11:07.594Z</time></trkpt><trkpt lat="46.1081922" lon="9.3197187"><ele>217.66666666666669</ele><time>2026-05-03T12:11:08.588Z</time></trkpt><trkpt lat="46.108017" lon="9.3197516"><ele>222.33333333333334</ele><time>2026-05-03T12:11:09.598Z</time></trkpt><trkpt lat="46.1078669" lon="9.3198082"><ele>227.0</ele><time>2026-05-03T12:11:10.595Z</time></trkpt><trkpt lat="46.1077119" lon="9.3198537"><ele>227.0</ele><time>2026-05-03T12:11:11.599Z</time></trkpt><trkpt lat="46.1075485" lon="9.319874"><ele>227.0</ele><time>2026-05-03T12:11:12.598Z</time></trkpt><trkpt lat="46.107381" lon="9.3199161"><ele>227.0</ele><time>2026-05-03T12:11:13.596Z</time></trkpt><trkpt lat="46.107222" lon="9.3199602"><ele>222.66666666666669</ele><time>2026-05-03T12:11:14.599Z</time></trkpt><trkpt lat="46.1070712" lon="9.3200025"><ele>218.33333333333331</ele><time>2026-05-03T12:11:15.6Z</time></trkpt><trkpt lat="46.1069136" lon="9.3200661"><ele>214.0</ele><time>2026-05-03T12:11:16.593Z</time></trkpt><trkpt lat="46.1067653" lon="9.3201503"><ele>214.0</ele><time>2026-05-03T12:11:17.601Z</time></trkpt><trkpt lat="46.1066376" lon="9.3202767"><ele>214.0</ele><time>2026-05-03T12:11:18.598Z</time></trkpt><trkpt lat="46.1065172" lon="9.3204076"><ele>214.0</ele><time>2026-05-03T12:11:19.594Z</time></trkpt><trkpt lat="46.1063905" lon="9.3205225"><ele>214.25</ele><time>2026-05-03T12:11:20.598Z</time></trkpt><trkpt lat="46.1062536" lon="9.32061"><ele>214.5</ele><time>2026-05-03T12:11:21.595Z</time></trkpt><trkpt lat="46.1061217" lon="9.3206846"><ele>214.75</ele><time>2026-05-03T12:11:22.598Z</time></trkpt><trkpt lat="46.1059921" lon="9.3207395"><ele>215.0</ele><time>2026-05-03T12:11:23.597Z</time></trkpt><trkpt lat="46.1058509" lon="9.3207727"><ele>216.66666666666669</ele><time>2026-05-03T12:11:24.587Z</time></trkpt><trkpt lat="46.1056999" lon="9.3208139"><ele>218.33333333333331</ele><time>2026-05-03T12:11:25.596Z</time></trkpt><trkpt lat="46.1055312" lon="9.320886"><ele>220.0</ele><time>2026-05-03T12:11:26.587Z</time></trkpt><trkpt lat="46.105358" lon="9.3209449"><ele>220.0</ele><time>2026-05-03T12:11:27.591Z</time></trkpt><trkpt lat="46.1052096" lon="9.3209973"><ele>220.0</ele><time>2026-05-03T12:11:28.599Z</time></trkpt><trkpt lat="46.105061" lon="9.3210411"><ele>220.0</ele><time>2026-05-03T12:11:29.603Z</time></trkpt><trkpt lat="46.1049421" lon="9.3210903"><ele>220.0</ele><time>2026-05-03T12:11:30.594Z</time></trkpt><trkpt lat="46.1048017" lon="9.3210975"><ele>220.25</ele><time>2026-05-03T12:11:31.595Z</time></trkpt><trkpt lat="46.1046724" lon="9.3210677"><ele>220.5</ele><time>2026-05-03T12:11:32.597Z</time></trkpt><trkpt lat="46.1045282" lon="9.3210125"><ele>220.75</ele><time>2026-05-03T12:11:33.589Z</time></trkpt><trkpt lat="46.1043878" lon="9.320946"><ele>221.0</ele><time>2026-05-03T12:11:34.594Z</time></trkpt><trkpt lat="46.1042338" lon="9.3208652"><ele>221.0</ele><time>2026-05-03T12:11:35.597Z</time></trkpt><trkpt lat="46.1040879" lon="9.3207677"><ele>221.0</ele><time>2026-05-03T12:11:36.596Z</time></trkpt><trkpt lat="46.1039481" lon="9.3206626"><ele>221.0</ele><time>2026-05-03T12:11:37.603Z</time></trkpt><trkpt lat="46.1038331" lon="9.320547"><ele>218.33333333333334</ele><time>2026-05-03T12:11:38.599Z</time></trkpt><trkpt lat="46.103719" lon="9.3204271"><ele>215.66666666666669</ele><time>2026-05-03T12:11:39.586Z</time></trkpt><trkpt lat="46.1035845" lon="9.3203014"><ele>213.0</ele><time>2026-05-03T12:11:40.595Z</time></trkpt><trkpt lat="46.1034594" lon="9.3201846"><ele>213.0</ele><time>2026-05-03T12:11:41.595Z</time></trkpt><trkpt lat="46.1033369" lon="9.3200778"><ele>213.0</ele><time>2026-05-03T12:11:42.598Z</time></trkpt><trkpt lat="46.1032096" lon="9.3199639"><ele>213.0</ele><time>2026-05-03T12:11:43.59Z</time></trkpt><trkpt lat="46.1031019" lon="9.3198603"><ele>213.0</ele><time>2026-05-03T12:11:44.593Z</time></trkpt><trkpt lat="46.1029951" lon="9.3197566"><ele>214.5</ele><time>2026-05-03T12:11:45.59Z</time></trkpt><trkpt lat="46.1028867" lon="9.3196547"><ele>216.0</ele><time>2026-05-03T12:11:46.591Z</time></trkpt><trkpt lat="46.1027768" lon="9.3195689"><ele>217.5</ele><time>2026-05-03T12:11:47.592Z</time></trkpt><trkpt lat="46.1026585" lon="9.3194876"><ele>219.0</ele><time>2026-05-03T12:11:48.588Z</time></trkpt><trkpt lat="46.1025527" lon="9.3193996"><ele>219.0</ele><time>2026-05-03T12:11:49.594Z</time></trkpt><trkpt lat="46.1024485" lon="9.3193069"><ele>219.0</ele><time>2026-05-03T12:11:50.592Z</time></trkpt><trkpt lat="46.1023515" lon="9.3192055"><ele>219.0</ele><time>2026-05-03T12:11:51.585Z</time></trkpt><trkpt lat="46.1022603" lon="9.3191061"><ele>219.0</ele><time>2026-05-03T12:11:52.59Z</time></trkpt><trkpt lat="46.1021645" lon="9.3189533"><ele>219.0</ele><time>2026-05-03T12:11:53.586Z</time></trkpt><trkpt lat="46.1020721" lon="9.318809"><ele>219.0</ele><time>2026-05-03T12:11:54.598Z</time></trkpt><trkpt lat="46.1019856" lon="9.3186726"><ele>219.0</ele><time>2026-05-03T12:11:55.601Z</time></trkpt><trkpt lat="46.1019004" lon="9.3185397"><ele>219.0</ele><time>2026-05-03T12:11:56.596Z</time></trkpt><trkpt lat="46.1018058" lon="9.3184262"><ele>219.0</ele><time>2026-05-03T12:11:57.602Z</time></trkpt><trkpt lat="46.1017032" lon="9.3183222"><ele>219.0</ele><time>2026-05-03T12:11:58.601Z</time></trkpt><trkpt lat="46.1015884" lon="9.3182288"><ele>219.0</ele><time>2026-05-03T12:11:59.591Z</time></trkpt><trkpt lat="46.1014595" lon="9.318141"><ele>219.0</ele><time>2026-05-03T12:12:00.597Z</time></trkpt><trkpt lat="46.1013113" lon="9.3180673"><ele>218.75</ele><time>2026-05-03T12:12:01.598Z</time></trkpt><trkpt lat="46.101175" lon="9.3179799"><ele>218.5</ele><time>2026-05-03T12:12:02.595Z</time></trkpt><trkpt lat="46.1010575" lon="9.3179069"><ele>218.25</ele><time>2026-05-03T12:12:03.595Z</time></trkpt><trkpt lat="46.1009262" lon="9.3178179"><ele>218.0</ele><time>2026-05-03T12:12:04.6Z</time></trkpt><trkpt lat="46.1008196" lon="9.3177207"><ele>220.0</ele><time>2026-05-03T12:12:05.598Z</time></trkpt><trkpt lat="46.100698" lon="9.3176471"><ele>222.0</ele><time>2026-05-03T12:12:06.597Z</time></trkpt><trkpt lat="46.1005835" lon="9.3175676"><ele>224.0</ele><time>2026-05-03T12:12:07.601Z</time></trkpt><trkpt lat="46.1004701" lon="9.3174969"><ele>226.0</ele><time>2026-05-03T12:12:08.593Z</time></trkpt><trkpt lat="46.1003556" lon="9.3174113"><ele>226.0</ele><time>2026-05-03T12:12:09.608Z</time></trkpt><trkpt lat="46.1002501" lon="9.31733"><ele>226.0</ele><time>2026-05-03T12:12:10.593Z</time></trkpt><trkpt lat="46.100116" lon="9.317266"><ele>226.0</ele><time>2026-05-03T12:12:11.594Z</time></trkpt><trkpt lat="46.0999804" lon="9.3172066"><ele>226.0</ele><time>2026-05-03T12:12:12.595Z</time></trkpt><trkpt lat="46.0998338" lon="9.3171452"><ele>221.0</ele><time>2026-05-03T12:12:13.591Z</time></trkpt><trkpt lat="46.0996897" lon="9.3171307"><ele>216.0</ele><time>2026-05-03T12:12:14.589Z</time></trkpt><trkpt lat="46.0995485" lon="9.3171153"><ele>211.0</ele><time>2026-05-03T12:12:15.593Z</time></trkpt><trkpt lat="46.0993894" lon="9.3171261"><ele>206.0</ele><time>2026-05-03T12:12:16.588Z</time></trkpt><trkpt lat="46.0992316" lon="9.3171249"><ele>207.0</ele><time>2026-05-03T12:12:17.604Z</time></trkpt><trkpt lat="46.0990744" lon="9.3171303"><ele>208.0</ele><time>2026-05-03T12:12:18.593Z</time></trkpt><trkpt lat="46.0989067" lon="9.3171274"><ele>209.0</ele><time>2026-05-03T12:12:19.593Z</time></trkpt><trkpt lat="46.0987552" lon="9.3171251"><ele>209.0</ele><time>2026-05-03T12:12:20.595Z</time></trkpt><trkpt lat="46.0986215" lon="9.3171243"><ele>209.0</ele><time>2026-05-03T12:12:21.599Z</time></trkpt><trkpt lat="46.0984999" lon="9.3171266"><ele>209.0</ele><time>2026-05-03T12:12:22.594Z</time></trkpt><trkpt lat="46.0983844" lon="9.3171266"><ele>209.0</ele><time>2026-05-03T12:12:23.59Z</time></trkpt><trkpt lat="46.0982844" lon="9.3171274"><ele>210.6</ele><time>2026-05-03T12:12:24.59Z</time></trkpt><trkpt lat="46.0981936" lon="9.3171262"><ele>212.2</ele><time>2026-05-03T12:12:25.59Z</time></trkpt><trkpt lat="46.0980973" lon="9.3171352"><ele>213.79999999999998</ele><time>2026-05-03T12:12:26.59Z</time></trkpt><trkpt lat="46.0980085" lon="9.31713"><ele>215.39999999999998</ele><time>2026-05-03T12:12:27.593Z</time></trkpt><trkpt lat="46.0979003" lon="9.3170902"><ele>217.0</ele><time>2026-05-03T12:12:28.59Z</time></trkpt><trkpt lat="46.0977965" lon="9.3170119"><ele>217.0</ele><time>2026-05-03T12:12:29.592Z</time></trkpt><trkpt lat="46.0976949" lon="9.3169149"><ele>217.0</ele><time>2026-05-03T12:12:30.593Z</time></trkpt><trkpt lat="46.097595" lon="9.3168186"><ele>217.0</ele><time>2026-05-03T12:12:31.591Z</time></trkpt><trkpt lat="46.0975074" lon="9.3167227"><ele>217.0</ele><time>2026-05-03T12:12:32.582Z</time></trkpt><trkpt lat="46.0974139" lon="9.3166422"><ele>218.0</ele><time>2026-05-03T12:12:33.603Z</time></trkpt><trkpt lat="46.0973193" lon="9.3165836"><ele>219.0</ele><time>2026-05-03T12:12:34.592Z</time></trkpt><trkpt lat="46.0972158" lon="9.3165516"><ele>220.0</ele><time>2026-05-03T12:12:35.597Z</time></trkpt><trkpt lat="46.0971093" lon="9.3165318"><ele>221.0</ele><time>2026-05-03T12:12:36.594Z</time></trkpt><trkpt lat="46.0969967" lon="9.3165328"><ele>222.0</ele><time>2026-05-03T12:12:37.593Z</time></trkpt><trkpt lat="46.0968795" lon="9.3165563"><ele>222.0</ele><time>2026-05-03T12:12:38.594Z</time></trkpt><trkpt lat="46.0967622" lon="9.3165919"><ele>222.0</ele><time>2026-05-03T12:12:39.591Z</time></trkpt><trkpt lat="46.0966474" lon="9.3166347"><ele>222.0</ele><time>2026-05-03T12:12:40.599Z</time></trkpt><trkpt lat="46.0965387" lon="9.3166662"><ele>222.0</ele><time>2026-05-03T12:12:41.597Z</time></trkpt><trkpt lat="46.0964321" lon="9.3166775"><ele>222.5</ele><time>2026-05-03T12:12:42.588Z</time></trkpt><trkpt lat="46.0963215" lon="9.3166554"><ele>223.0</ele><time>2026-05-03T12:12:43.593Z</time></trkpt><trkpt lat="46.0961998" lon="9.3166173"><ele>223.5</ele><time>2026-05-03T12:12:44.587Z</time></trkpt><trkpt lat="46.0960698" lon="9.316565"><ele>224.0</ele><time>2026-05-03T12:12:45.595Z</time></trkpt><trkpt lat="46.0959379" lon="9.3165131"><ele>224.0</ele><time>2026-05-03T12:12:46.589Z</time></trkpt><trkpt lat="46.0958176" lon="9.3164676"><ele>224.0</ele><time>2026-05-03T12:12:47.59Z</time></trkpt><trkpt lat="46.0957036" lon="9.3164252"><ele>224.0</ele><time>2026-05-03T12:12:48.586Z</time></trkpt><trkpt lat="46.0955921" lon="9.3163816"><ele>224.0</ele><time>2026-05-03T12:12:49.586Z</time></trkpt><trkpt lat="46.095481" lon="9.3163329"><ele>222.5</ele><time>2026-05-03T12:12:50.587Z</time></trkpt><trkpt lat="46.0953576" lon="9.3162804"><ele>221.0</ele><time>2026-05-03T12:12:51.59Z</time></trkpt><trkpt lat="46.0952371" lon="9.316225"><ele>219.5</ele><time>2026-05-03T12:12:52.598Z</time></trkpt><trkpt lat="46.0951153" lon="9.316141"><ele>218.0</ele><time>2026-05-03T12:12:53.597Z</time></trkpt><trkpt lat="46.0950077" lon="9.3160181"><ele>219.75</ele><time>2026-05-03T12:12:54.59Z</time></trkpt><trkpt lat="46.0949097" lon="9.3158785"><ele>221.5</ele><time>2026-05-03T12:12:55.595Z</time></trkpt><trkpt lat="46.094822" lon="9.3157383"><ele>223.25</ele><time>2026-05-03T12:12:56.592Z</time></trkpt><trkpt lat="46.0947383" lon="9.3156064"><ele>225.0</ele><time>2026-05-03T12:12:57.588Z</time></trkpt><trkpt lat="46.0946541" lon="9.3154787"><ele>225.0</ele><time>2026-05-03T12:12:58.598Z</time></trkpt><trkpt lat="46.0945712" lon="9.3153508"><ele>225.0</ele><time>2026-05-03T12:12:59.594Z</time></trkpt><trkpt lat="46.0944881" lon="9.3152311"><ele>225.0</ele><time>2026-05-03T12:13:00.596Z</time></trkpt><trkpt lat="46.0944102" lon="9.3151133"><ele>225.0</ele><time>2026-05-03T12:13:01.589Z</time></trkpt><trkpt lat="46.0943336" lon="9.3149933"><ele>225.0</ele><time>2026-05-03T12:13:02.593Z</time></trkpt><trkpt lat="46.094256" lon="9.3148722"><ele>225.0</ele><time>2026-05-03T12:13:03.591Z</time></trkpt><trkpt lat="46.0941828" lon="9.3147553"><ele>225.0</ele><time>2026-05-03T12:13:04.596Z</time></trkpt><trkpt lat="46.0941078" lon="9.3146433"><ele>225.0</ele><time>2026-05-03T12:13:05.595Z</time></trkpt><trkpt lat="46.0940369" lon="9.3145335"><ele>225.0</ele><time>2026-05-03T12:13:06.594Z</time></trkpt><trkpt lat="46.0939727" lon="9.3144364"><ele>226.33333333333334</ele><time>2026-05-03T12:13:07.594Z</time></trkpt><trkpt lat="46.0939165" lon="9.3143621"><ele>227.66666666666669</ele><time>2026-05-03T12:13:08.594Z</time></trkpt><trkpt lat="46.0938665" lon="9.3142966"><ele>229.0</ele><time>2026-05-03T12:13:09.591Z</time></trkpt><trkpt lat="46.0938138" lon="9.3142282"><ele>230.33333333333334</ele><time>2026-05-03T12:13:10.599Z</time></trkpt><trkpt lat="46.0937505" lon="9.3141578"><ele>231.66666666666669</ele><time>2026-05-03T12:13:11.59Z</time></trkpt><trkpt lat="46.0936724" lon="9.3140796"><ele>233.0</ele><time>2026-05-03T12:13:12.592Z</time></trkpt><trkpt lat="46.0935836" lon="9.3139981"><ele>233.0</ele><time>2026-05-03T12:13:13.593Z</time></trkpt><trkpt lat="46.0934766" lon="9.3139054"><ele>233.0</ele><time>2026-05-03T12:13:14.594Z</time></trkpt><trkpt lat="46.0933668" lon="9.3138092"><ele>233.0</ele><time>2026-05-03T12:13:15.594Z</time></trkpt><trkpt lat="46.0932535" lon="9.3137157"><ele>233.0</ele><time>2026-05-03T12:13:16.594Z</time></trkpt><trkpt lat="46.0931323" lon="9.313619"><ele>231.33333333333334</ele><time>2026-05-03T12:13:17.598Z</time></trkpt><trkpt lat="46.0929732" lon="9.3135047"><ele>229.66666666666669</ele><time>2026-05-03T12:13:18.586Z</time></trkpt><trkpt lat="46.092803" lon="9.3133677"><ele>228.0</ele><time>2026-05-03T12:13:19.595Z</time></trkpt><trkpt lat="46.0926355" lon="9.3132551"><ele>228.0</ele><time>2026-05-03T12:13:20.594Z</time></trkpt><trkpt lat="46.0924985" lon="9.3131522"><ele>228.0</ele><time>2026-05-03T12:13:21.586Z</time></trkpt><trkpt lat="46.092375" lon="9.313042"><ele>228.0</ele><time>2026-05-03T12:13:22.6Z</time></trkpt><trkpt lat="46.0922482" lon="9.312955"><ele>228.0</ele><time>2026-05-03T12:13:23.597Z</time></trkpt><trkpt lat="46.0921347" lon="9.3128705"><ele>227.60000000000002</ele><time>2026-05-03T12:13:24.589Z</time></trkpt><trkpt lat="46.0920341" lon="9.3127962"><ele>227.20000000000002</ele><time>2026-05-03T12:13:25.608Z</time></trkpt><trkpt lat="46.0919526" lon="9.3127486"><ele>226.8</ele><time>2026-05-03T12:13:26.606Z</time></trkpt><trkpt lat="46.0918603" lon="9.3126959"><ele>226.4</ele><time>2026-05-03T12:13:27.605Z</time></trkpt><trkpt lat="46.0917664" lon="9.3126454"><ele>226.0</ele><time>2026-05-03T12:13:28.609Z</time></trkpt><trkpt lat="46.0916807" lon="9.3126138"><ele>226.0</ele><time>2026-05-03T12:13:29.604Z</time></trkpt><trkpt lat="46.0915939" lon="9.3125845"><ele>226.00000000000003</ele><time>2026-05-03T12:13:30.603Z</time></trkpt><trkpt lat="46.0915038" lon="9.3125594"><ele>226.00000000000003</ele><time>2026-05-03T12:13:31.608Z</time></trkpt><trkpt lat="46.0914101" lon="9.3125232"><ele>226.0</ele><time>2026-05-03T12:13:32.607Z</time></trkpt><trkpt lat="46.0913167" lon="9.3124766"><ele>226.0</ele><time>2026-05-03T12:13:33.603Z</time></trkpt><trkpt lat="46.0912294" lon="9.3124166"><ele>225.4</ele><time>2026-05-03T12:13:34.604Z</time></trkpt><trkpt lat="46.0911502" lon="9.3123431"><ele>224.8</ele><time>2026-05-03T12:13:35.604Z</time></trkpt><trkpt lat="46.0910775" lon="9.3122542"><ele>224.20000000000002</ele><time>2026-05-03T12:13:36.602Z</time></trkpt><trkpt lat="46.0909977" lon="9.3121602"><ele>223.60000000000002</ele><time>2026-05-03T12:13:37.608Z</time></trkpt><trkpt lat="46.0909124" lon="9.3120672"><ele>223.0</ele><time>2026-05-03T12:13:38.602Z</time></trkpt><trkpt lat="46.090828" lon="9.3119784"><ele>226.8</ele><time>2026-05-03T12:13:39.608Z</time></trkpt><trkpt lat="46.0907476" lon="9.3119008"><ele>230.60000000000002</ele><time>2026-05-03T12:13:40.603Z</time></trkpt><trkpt lat="46.0906654" lon="9.3118258"><ele>234.39999999999998</ele><time>2026-05-03T12:13:41.603Z</time></trkpt><trkpt lat="46.0905735" lon="9.3117697"><ele>238.2</ele><time>2026-05-03T12:13:42.598Z</time></trkpt><trkpt lat="46.0904788" lon="9.3117228"><ele>242.0</ele><time>2026-05-03T12:13:43.607Z</time></trkpt><trkpt lat="46.0903894" lon="9.3116868"><ele>242.00000000000003</ele><time>2026-05-03T12:13:44.6Z</time></trkpt><trkpt lat="46.0903083" lon="9.311663"><ele>242.0</ele><time>2026-05-03T12:13:45.605Z</time></trkpt><trkpt lat="46.0902407" lon="9.3116363"><ele>242.0</ele><time>2026-05-03T12:13:46.605Z</time></trkpt><trkpt lat="46.0901706" lon="9.3116045"><ele>242.0</ele><time>2026-05-03T12:13:47.598Z</time></trkpt><trkpt lat="46.0901061" lon="9.3115786"><ele>242.00000000000003</ele><time>2026-05-03T12:13:48.599Z</time></trkpt><trkpt lat="46.0900446" lon="9.311559"><ele>242.0</ele><time>2026-05-03T12:13:49.597Z</time></trkpt><trkpt lat="46.0899373" lon="9.3115189"><ele>241.8</ele><time>2026-05-03T12:13:51.592Z</time></trkpt><trkpt lat="46.0898626" lon="9.3114936"><ele>241.6</ele><time>2026-05-03T12:13:53.611Z</time></trkpt><trkpt lat="46.0897703" lon="9.311456"><ele>241.40000000000003</ele><time>2026-05-03T12:13:55.619Z</time></trkpt><trkpt lat="46.0896447" lon="9.3114167"><ele>241.20000000000002</ele><time>2026-05-03T12:13:57.608Z</time></trkpt><trkpt lat="46.0895671" lon="9.3114082"><ele>241.0</ele><time>2026-05-03T12:13:58.606Z</time></trkpt><trkpt lat="46.0894825" lon="9.3113993"><ele>240.99999999999997</ele><time>2026-05-03T12:13:59.606Z</time></trkpt><trkpt lat="46.0893991" lon="9.3114"><ele>241.0</ele><time>2026-05-03T12:14:00.608Z</time></trkpt><trkpt lat="46.089326" lon="9.3114061"><ele>241.0</ele><time>2026-05-03T12:14:01.605Z</time></trkpt><trkpt lat="46.0892501" lon="9.3114187"><ele>241.0</ele><time>2026-05-03T12:14:02.604Z</time></trkpt><trkpt lat="46.0891689" lon="9.3114303"><ele>240.99999999999997</ele><time>2026-05-03T12:14:03.596Z</time></trkpt><trkpt lat="46.0890739" lon="9.3114281"><ele>241.0</ele><time>2026-05-03T12:14:04.59Z</time></trkpt><trkpt lat="46.0889756" lon="9.3114048"><ele>237.25</ele><time>2026-05-03T12:14:05.596Z</time></trkpt><trkpt lat="46.0888651" lon="9.311367"><ele>233.5</ele><time>2026-05-03T12:14:06.589Z</time></trkpt><trkpt lat="46.0887339" lon="9.3112965"><ele>229.75</ele><time>2026-05-03T12:14:07.592Z</time></trkpt><trkpt lat="46.088592" lon="9.3111899"><ele>226.0</ele><time>2026-05-03T12:14:08.604Z</time></trkpt><trkpt lat="46.0884529" lon="9.3110493"><ele>226.0</ele><time>2026-05-03T12:14:09.599Z</time></trkpt><trkpt lat="46.0883162" lon="9.3109301"><ele>226.0</ele><time>2026-05-03T12:14:10.611Z</time></trkpt><trkpt lat="46.088204" lon="9.3108123"><ele>226.0</ele><time>2026-05-03T12:14:11.604Z</time></trkpt><trkpt lat="46.0880944" lon="9.3107192"><ele>226.0</ele><time>2026-05-03T12:14:12.605Z</time></trkpt><trkpt lat="46.0879987" lon="9.3106225"><ele>222.75</ele><time>2026-05-03T12:14:13.6Z</time></trkpt><trkpt lat="46.0879071" lon="9.3105367"><ele>219.5</ele><time>2026-05-03T12:14:14.602Z</time></trkpt><trkpt lat="46.0878125" lon="9.3104587"><ele>216.25</ele><time>2026-05-03T12:14:15.599Z</time></trkpt><trkpt lat="46.0877065" lon="9.3103864"><ele>213.0</ele><time>2026-05-03T12:14:16.597Z</time></trkpt><trkpt lat="46.0876025" lon="9.3103156"><ele>213.0</ele><time>2026-05-03T12:14:17.602Z</time></trkpt><trkpt lat="46.0874999" lon="9.3102377"><ele>213.0</ele><time>2026-05-03T12:14:18.602Z</time></trkpt><trkpt lat="46.0873965" lon="9.3101468"><ele>213.0</ele><time>2026-05-03T12:14:19.6Z</time></trkpt><trkpt lat="46.0872883" lon="9.3100609"><ele>213.0</ele><time>2026-05-03T12:14:20.599Z</time></trkpt><trkpt lat="46.087174" lon="9.3099909"><ele>214.25</ele><time>2026-05-03T12:14:21.616Z</time></trkpt><trkpt lat="46.0870457" lon="9.3099519"><ele>215.5</ele><time>2026-05-03T12:14:22.594Z</time></trkpt><trkpt lat="46.08691" lon="9.3099513"><ele>216.75</ele><time>2026-05-03T12:14:23.604Z</time></trkpt><trkpt lat="46.086781" lon="9.3099732"><ele>218.0</ele><time>2026-05-03T12:14:24.602Z</time></trkpt><trkpt lat="46.0866585" lon="9.3099984"><ele>215.0</ele><time>2026-05-03T12:14:25.609Z</time></trkpt><trkpt lat="46.0865388" lon="9.3100202"><ele>212.0</ele><time>2026-05-03T12:14:26.602Z</time></trkpt><trkpt lat="46.0864078" lon="9.3100436"><ele>209.0</ele><time>2026-05-03T12:14:27.604Z</time></trkpt><trkpt lat="46.0862814" lon="9.3100815"><ele>206.0</ele><time>2026-05-03T12:14:28.612Z</time></trkpt><trkpt lat="46.0861658" lon="9.3101273"><ele>206.0</ele><time>2026-05-03T12:14:29.607Z</time></trkpt><trkpt lat="46.0860469" lon="9.3101728"><ele>206.0</ele><time>2026-05-03T12:14:30.6Z</time></trkpt><trkpt lat="46.0859262" lon="9.3102225"><ele>206.0</ele><time>2026-05-03T12:14:31.615Z</time></trkpt><trkpt lat="46.0857946" lon="9.310273"><ele>206.0</ele><time>2026-05-03T12:14:32.601Z</time></trkpt><trkpt lat="46.0856507" lon="9.3103489"><ele>205.0</ele><time>2026-05-03T12:14:33.607Z</time></trkpt><trkpt lat="46.0854641" lon="9.3104281"><ele>204.0</ele><time>2026-05-03T12:14:34.612Z</time></trkpt><trkpt lat="46.0853081" lon="9.3105025"><ele>203.0</ele><time>2026-05-03T12:14:35.611Z</time></trkpt><trkpt lat="46.0851433" lon="9.3105814"><ele>208.0</ele><time>2026-05-03T12:14:36.604Z</time></trkpt><trkpt lat="46.0849873" lon="9.3106773"><ele>213.0</ele><time>2026-05-03T12:14:37.61Z</time></trkpt><trkpt lat="46.0848308" lon="9.3107557"><ele>218.0</ele><time>2026-05-03T12:14:38.612Z</time></trkpt><trkpt lat="46.0846899" lon="9.3108151"><ele>218.0</ele><time>2026-05-03T12:14:39.613Z</time></trkpt><trkpt lat="46.0845526" lon="9.310861"><ele>218.0</ele><time>2026-05-03T12:14:40.604Z</time></trkpt><trkpt lat="46.0844023" lon="9.310915"><ele>218.0</ele><time>2026-05-03T12:14:41.61Z</time></trkpt><trkpt lat="46.0842724" lon="9.3109517"><ele>218.0</ele><time>2026-05-03T12:14:42.608Z</time></trkpt><trkpt lat="46.0841219" lon="9.3109812"><ele>216.25</ele><time>2026-05-03T12:14:43.611Z</time></trkpt><trkpt lat="46.0839776" lon="9.3110105"><ele>214.5</ele><time>2026-05-03T12:14:44.606Z</time></trkpt><trkpt lat="46.0838329" lon="9.3110376"><ele>212.75</ele><time>2026-05-03T12:14:45.608Z</time></trkpt><trkpt lat="46.0836923" lon="9.3110712"><ele>211.0</ele><time>2026-05-03T12:14:46.601Z</time></trkpt><trkpt lat="46.0835562" lon="9.3111144"><ele>211.0</ele><time>2026-05-03T12:14:47.612Z</time></trkpt><trkpt lat="46.0834292" lon="9.3111518"><ele>211.0</ele><time>2026-05-03T12:14:48.607Z</time></trkpt><trkpt lat="46.083291" lon="9.3111606"><ele>211.0</ele><time>2026-05-03T12:14:49.609Z</time></trkpt><trkpt lat="46.0831597" lon="9.3111884"><ele>211.0</ele><time>2026-05-03T12:14:50.612Z</time></trkpt><trkpt lat="46.083043" lon="9.3112343"><ele>209.75</ele><time>2026-05-03T12:14:51.61Z</time></trkpt><trkpt lat="46.0829297" lon="9.3112657"><ele>208.5</ele><time>2026-05-03T12:14:52.607Z</time></trkpt><trkpt lat="46.0828056" lon="9.311289"><ele>207.25</ele><time>2026-05-03T12:14:53.615Z</time></trkpt><trkpt lat="46.0826818" lon="9.3112883"><ele>206.0</ele><time>2026-05-03T12:14:54.604Z</time></trkpt><trkpt lat="46.0825683" lon="9.311242"><ele>206.0</ele><time>2026-05-03T12:14:55.61Z</time></trkpt><trkpt lat="46.0824552" lon="9.311164"><ele>206.0</ele><time>2026-05-03T12:14:56.606Z</time></trkpt><trkpt lat="46.0823601" lon="9.3110798"><ele>206.0</ele><time>2026-05-03T12:14:57.604Z</time></trkpt><trkpt lat="46.0822715" lon="9.311007"><ele>206.0</ele><time>2026-05-03T12:14:58.603Z</time></trkpt><trkpt lat="46.0821704" lon="9.3109448"><ele>206.0</ele><time>2026-05-03T12:14:59.606Z</time></trkpt><trkpt lat="46.082059" lon="9.3108991"><ele>207.75</ele><time>2026-05-03T12:15:00.602Z</time></trkpt><trkpt lat="46.0819433" lon="9.3108768"><ele>209.5</ele><time>2026-05-03T12:15:01.599Z</time></trkpt><trkpt lat="46.0818223" lon="9.3108696"><ele>211.25</ele><time>2026-05-03T12:15:02.598Z</time></trkpt><trkpt lat="46.0817018" lon="9.3108603"><ele>213.0</ele><time>2026-05-03T12:15:03.6Z</time></trkpt><trkpt lat="46.081578" lon="9.3108342"><ele>215.25</ele><time>2026-05-03T12:15:04.607Z</time></trkpt><trkpt lat="46.081461" lon="9.3108045"><ele>217.5</ele><time>2026-05-03T12:15:05.604Z</time></trkpt><trkpt lat="46.0813477" lon="9.3107617"><ele>219.75</ele><time>2026-05-03T12:15:06.62Z</time></trkpt><trkpt lat="46.0812326" lon="9.3106985"><ele>222.0</ele><time>2026-05-03T12:15:07.629Z</time></trkpt><trkpt lat="46.0811204" lon="9.3106216"><ele>223.0</ele><time>2026-05-03T12:15:08.602Z</time></trkpt><trkpt lat="46.0810102" lon="9.3105364"><ele>224.0</ele><time>2026-05-03T12:15:09.603Z</time></trkpt><trkpt lat="46.0809106" lon="9.3104346"><ele>225.0</ele><time>2026-05-03T12:15:10.601Z</time></trkpt><trkpt lat="46.0808184" lon="9.3103213"><ele>226.0</ele><time>2026-05-03T12:15:11.602Z</time></trkpt><trkpt lat="46.0807299" lon="9.3101988"><ele>226.0</ele><time>2026-05-03T12:15:12.594Z</time></trkpt><trkpt lat="46.0806482" lon="9.3100623"><ele>226.0</ele><time>2026-05-03T12:15:13.607Z</time></trkpt><trkpt lat="46.080574" lon="9.3099113"><ele>226.0</ele><time>2026-05-03T12:15:14.607Z</time></trkpt><trkpt lat="46.0805016" lon="9.3097483"><ele>226.0</ele><time>2026-05-03T12:15:15.603Z</time></trkpt><trkpt lat="46.0804325" lon="9.3095842"><ele>223.0</ele><time>2026-05-03T12:15:16.609Z</time></trkpt><trkpt lat="46.0803545" lon="9.3094216"><ele>220.0</ele><time>2026-05-03T12:15:17.607Z</time></trkpt><trkpt lat="46.0802741" lon="9.3092605"><ele>217.0</ele><time>2026-05-03T12:15:18.609Z</time></trkpt><trkpt lat="46.0802028" lon="9.309113"><ele>214.0</ele><time>2026-05-03T12:15:19.605Z</time></trkpt><trkpt lat="46.0801346" lon="9.3089676"><ele>213.79999999999998</ele><time>2026-05-03T12:15:20.611Z</time></trkpt><trkpt lat="46.0800681" lon="9.3088289"><ele>213.59999999999997</ele><time>2026-05-03T12:15:21.606Z</time></trkpt><trkpt lat="46.0800034" lon="9.3086968"><ele>213.4</ele><time>2026-05-03T12:15:22.608Z</time></trkpt><trkpt lat="46.0799414" lon="9.3085694"><ele>213.2</ele><time>2026-05-03T12:15:23.608Z</time></trkpt><trkpt lat="46.0798803" lon="9.3084428"><ele>213.0</ele><time>2026-05-03T12:15:24.606Z</time></trkpt><trkpt lat="46.0798185" lon="9.3083106"><ele>212.75</ele><time>2026-05-03T12:15:25.62Z</time></trkpt><trkpt lat="46.079755" lon="9.3081773"><ele>212.5</ele><time>2026-05-03T12:15:26.603Z</time></trkpt><trkpt lat="46.0796859" lon="9.3080462"><ele>212.25</ele><time>2026-05-03T12:15:27.604Z</time></trkpt><trkpt lat="46.0796153" lon="9.3079182"><ele>212.0</ele><time>2026-05-03T12:15:28.609Z</time></trkpt><trkpt lat="46.079547" lon="9.307777"><ele>212.0</ele><time>2026-05-03T12:15:29.605Z</time></trkpt><trkpt lat="46.0794791" lon="9.3076354"><ele>212.0</ele><time>2026-05-03T12:15:30.614Z</time></trkpt><trkpt lat="46.0794119" lon="9.3074921"><ele>212.0</ele><time>2026-05-03T12:15:31.607Z</time></trkpt><trkpt lat="46.0793469" lon="9.3073452"><ele>212.0</ele><time>2026-05-03T12:15:32.607Z</time></trkpt><trkpt lat="46.0792772" lon="9.3072025"><ele>212.0</ele><time>2026-05-03T12:15:33.598Z</time></trkpt><trkpt lat="46.0792059" lon="9.3070636"><ele>212.0</ele><time>2026-05-03T12:15:34.601Z</time></trkpt><trkpt lat="46.0791302" lon="9.3069227"><ele>212.0</ele><time>2026-05-03T12:15:35.598Z</time></trkpt><trkpt lat="46.0790559" lon="9.3067753"><ele>212.0</ele><time>2026-05-03T12:15:36.598Z</time></trkpt><trkpt lat="46.0789834" lon="9.306632"><ele>212.25</ele><time>2026-05-03T12:15:37.605Z</time></trkpt><trkpt lat="46.0789126" lon="9.3064916"><ele>212.5</ele><time>2026-05-03T12:15:38.6Z</time></trkpt><trkpt lat="46.0788353" lon="9.3063544"><ele>212.75</ele><time>2026-05-03T12:15:39.602Z</time></trkpt><trkpt lat="46.0787577" lon="9.3062143"><ele>213.0</ele><time>2026-05-03T12:15:40.6Z</time></trkpt><trkpt lat="46.0786839" lon="9.3060711"><ele>213.25</ele><time>2026-05-03T12:15:41.597Z</time></trkpt><trkpt lat="46.0786069" lon="9.3059236"><ele>213.5</ele><time>2026-05-03T12:15:42.603Z</time></trkpt><trkpt lat="46.0785311" lon="9.3057816"><ele>213.75</ele><time>2026-05-03T12:15:43.6Z</time></trkpt><trkpt lat="46.0784489" lon="9.3056387"><ele>214.0</ele><time>2026-05-03T12:15:44.607Z</time></trkpt><trkpt lat="46.0783639" lon="9.3055005"><ele>214.0</ele><time>2026-05-03T12:15:45.598Z</time></trkpt><trkpt lat="46.0782782" lon="9.305378"><ele>214.0</ele><time>2026-05-03T12:15:46.602Z</time></trkpt><trkpt lat="46.0781894" lon="9.3052564"><ele>214.0</ele><time>2026-05-03T12:15:47.603Z</time></trkpt><trkpt lat="46.0780954" lon="9.3051442"><ele>214.0</ele><time>2026-05-03T12:15:48.603Z</time></trkpt><trkpt lat="46.0779884" lon="9.3050409"><ele>213.75</ele><time>2026-05-03T12:15:49.608Z</time></trkpt><trkpt lat="46.0778783" lon="9.3049468"><ele>213.5</ele><time>2026-05-03T12:15:50.6Z</time></trkpt><trkpt lat="46.0777708" lon="9.304872"><ele>213.25</ele><time>2026-05-03T12:15:51.599Z</time></trkpt><trkpt lat="46.0776672" lon="9.3048116"><ele>213.0</ele><time>2026-05-03T12:15:52.606Z</time></trkpt><trkpt lat="46.0775669" lon="9.3047537"><ele>212.60000000000002</ele><time>2026-05-03T12:15:53.599Z</time></trkpt><trkpt lat="46.0774699" lon="9.3047091"><ele>212.20000000000002</ele><time>2026-05-03T12:15:54.612Z</time></trkpt><trkpt lat="46.0773641" lon="9.3046725"><ele>211.8</ele><time>2026-05-03T12:15:55.603Z</time></trkpt><trkpt lat="46.0772509" lon="9.3046374"><ele>211.4</ele><time>2026-05-03T12:15:56.599Z</time></trkpt><trkpt lat="46.0771478" lon="9.3046072"><ele>211.0</ele><time>2026-05-03T12:15:57.599Z</time></trkpt><trkpt lat="46.0770493" lon="9.3045806"><ele>211.0</ele><time>2026-05-03T12:15:58.601Z</time></trkpt><trkpt lat="46.0769554" lon="9.3045605"><ele>211.0</ele><time>2026-05-03T12:15:59.603Z</time></trkpt><trkpt lat="46.0768649" lon="9.3045439"><ele>211.0</ele><time>2026-05-03T12:16:00.599Z</time></trkpt><trkpt lat="46.0767792" lon="9.3045355"><ele>211.0</ele><time>2026-05-03T12:16:01.605Z</time></trkpt><trkpt lat="46.0766873" lon="9.3045187"><ele>211.0</ele><time>2026-05-03T12:16:02.6Z</time></trkpt><trkpt lat="46.0765886" lon="9.3045004"><ele>211.0</ele><time>2026-05-03T12:16:03.609Z</time></trkpt><trkpt lat="46.0764863" lon="9.3044787"><ele>211.0</ele><time>2026-05-03T12:16:04.603Z</time></trkpt><trkpt lat="46.0763874" lon="9.3044617"><ele>211.0</ele><time>2026-05-03T12:16:05.608Z</time></trkpt><trkpt lat="46.0762826" lon="9.304437"><ele>211.0</ele><time>2026-05-03T12:16:06.611Z</time></trkpt><trkpt lat="46.0761643" lon="9.3044136"><ele>211.0</ele><time>2026-05-03T12:16:07.599Z</time></trkpt><trkpt lat="46.0760332" lon="9.3043968"><ele>211.0</ele><time>2026-05-03T12:16:08.6Z</time></trkpt><trkpt lat="46.075893" lon="9.3043783"><ele>211.0</ele><time>2026-05-03T12:16:09.603Z</time></trkpt><trkpt lat="46.0757558" lon="9.3043894"><ele>211.0</ele><time>2026-05-03T12:16:10.596Z</time></trkpt><trkpt lat="46.0756261" lon="9.304398"><ele>211.0</ele><time>2026-05-03T12:16:11.61Z</time></trkpt><trkpt lat="46.0755049" lon="9.304393"><ele>210.5</ele><time>2026-05-03T12:16:12.603Z</time></trkpt><trkpt lat="46.075378" lon="9.3044089"><ele>210.0</ele><time>2026-05-03T12:16:13.603Z</time></trkpt><trkpt lat="46.0752513" lon="9.304428"><ele>209.5</ele><time>2026-05-03T12:16:14.606Z</time></trkpt><trkpt lat="46.0751257" lon="9.3044441"><ele>209.0</ele><time>2026-05-03T12:16:15.601Z</time></trkpt><trkpt lat="46.075001" lon="9.3044887"><ele>208.75</ele><time>2026-05-03T12:16:16.597Z</time></trkpt><trkpt lat="46.0748797" lon="9.3045276"><ele>208.5</ele><time>2026-05-03T12:16:17.604Z</time></trkpt><trkpt lat="46.0747653" lon="9.3045663"><ele>208.25</ele><time>2026-05-03T12:16:18.603Z</time></trkpt><trkpt lat="46.0746582" lon="9.3046098"><ele>208.0</ele><time>2026-05-03T12:16:19.601Z</time></trkpt><trkpt lat="46.074548" lon="9.3046518"><ele>208.0</ele><time>2026-05-03T12:16:20.601Z</time></trkpt><trkpt lat="46.0744459" lon="9.3046994"><ele>208.0</ele><time>2026-05-03T12:16:21.597Z</time></trkpt><trkpt lat="46.0743645" lon="9.3047452"><ele>208.0</ele><time>2026-05-03T12:16:22.598Z</time></trkpt><trkpt lat="46.0742736" lon="9.3048012"><ele>208.0</ele><time>2026-05-03T12:16:24.6Z</time></trkpt><trkpt lat="46.0741559" lon="9.3048854"><ele>208.0</ele><time>2026-05-03T12:16:26.598Z</time></trkpt><trkpt lat="46.0740702" lon="9.3049505"><ele>208.5</ele><time>2026-05-03T12:16:27.599Z</time></trkpt><trkpt lat="46.0739759" lon="9.3050232"><ele>209.0</ele><time>2026-05-03T12:16:28.596Z</time></trkpt><trkpt lat="46.0738808" lon="9.3050972"><ele>209.5</ele><time>2026-05-03T12:16:29.599Z</time></trkpt><trkpt lat="46.0737717" lon="9.3051808"><ele>210.0</ele><time>2026-05-03T12:16:30.596Z</time></trkpt><trkpt lat="46.0736601" lon="9.3052749"><ele>210.0</ele><time>2026-05-03T12:16:31.594Z</time></trkpt><trkpt lat="46.0735485" lon="9.3053715"><ele>210.0</ele><time>2026-05-03T12:16:32.605Z</time></trkpt><trkpt lat="46.073432" lon="9.3054673"><ele>210.0</ele><time>2026-05-03T12:16:33.602Z</time></trkpt><trkpt lat="46.0733022" lon="9.3055741"><ele>210.0</ele><time>2026-05-03T12:16:34.596Z</time></trkpt><trkpt lat="46.0731413" lon="9.3057172"><ele>210.0</ele><time>2026-05-03T12:16:35.6Z</time></trkpt><trkpt lat="46.0729798" lon="9.3058651"><ele>210.0</ele><time>2026-05-03T12:16:36.602Z</time></trkpt><trkpt lat="46.0727972" lon="9.3060201"><ele>210.0</ele><time>2026-05-03T12:16:37.602Z</time></trkpt><trkpt lat="46.0726265" lon="9.306171"><ele>210.0</ele><time>2026-05-03T12:16:38.603Z</time></trkpt><trkpt lat="46.0724524" lon="9.3063021"><ele>210.0</ele><time>2026-05-03T12:16:39.602Z</time></trkpt><trkpt lat="46.0722944" lon="9.3064488"><ele>210.0</ele><time>2026-05-03T12:16:40.599Z</time></trkpt><trkpt lat="46.0721378" lon="9.3065652"><ele>209.0</ele><time>2026-05-03T12:16:41.602Z</time></trkpt><trkpt lat="46.0719999" lon="9.3066832"><ele>208.0</ele><time>2026-05-03T12:16:42.602Z</time></trkpt><trkpt lat="46.0718643" lon="9.3068073"><ele>207.0</ele><time>2026-05-03T12:16:43.597Z</time></trkpt><trkpt lat="46.0717291" lon="9.3069183"><ele>206.75</ele><time>2026-05-03T12:16:44.605Z</time></trkpt><trkpt lat="46.0715904" lon="9.307037"><ele>206.5</ele><time>2026-05-03T12:16:45.604Z</time></trkpt><trkpt lat="46.0714713" lon="9.3071525"><ele>206.25</ele><time>2026-05-03T12:16:46.6Z</time></trkpt><trkpt lat="46.0713612" lon="9.3072737"><ele>206.0</ele><time>2026-05-03T12:16:47.605Z</time></trkpt><trkpt lat="46.0712507" lon="9.30739"><ele>206.0</ele><time>2026-05-03T12:16:48.598Z</time></trkpt><trkpt lat="46.0711378" lon="9.3075045"><ele>206.0</ele><time>2026-05-03T12:16:49.602Z</time></trkpt><trkpt lat="46.0710285" lon="9.307615"><ele>206.0</ele><time>2026-05-03T12:16:50.596Z</time></trkpt><trkpt lat="46.070924" lon="9.3077289"><ele>206.0</ele><time>2026-05-03T12:16:51.603Z</time></trkpt><trkpt lat="46.0708293" lon="9.307829"><ele>205.25</ele><time>2026-05-03T12:16:52.597Z</time></trkpt><trkpt lat="46.070719" lon="9.30791"><ele>204.5</ele><time>2026-05-03T12:16:53.608Z</time></trkpt><trkpt lat="46.0706116" lon="9.3079988"><ele>203.75</ele><time>2026-05-03T12:16:54.599Z</time></trkpt><trkpt lat="46.0704975" lon="9.3080824"><ele>203.0</ele><time>2026-05-03T12:16:55.603Z</time></trkpt><trkpt lat="46.0704005" lon="9.3081825"><ele>203.0</ele><time>2026-05-03T12:16:56.601Z</time></trkpt><trkpt lat="46.0703039" lon="9.3082828"><ele>203.0</ele><time>2026-05-03T12:16:57.596Z</time></trkpt><trkpt lat="46.0702074" lon="9.3083871"><ele>203.0</ele><time>2026-05-03T12:16:58.595Z</time></trkpt><trkpt lat="46.0701077" lon="9.3084878"><ele>203.0</ele><time>2026-05-03T12:16:59.593Z</time></trkpt><trkpt lat="46.0700051" lon="9.3085847"><ele>203.25</ele><time>2026-05-03T12:17:00.588Z</time></trkpt><trkpt lat="46.0698933" lon="9.3086663"><ele>203.5</ele><time>2026-05-03T12:17:01.595Z</time></trkpt><trkpt lat="46.0697911" lon="9.3087365"><ele>203.75</ele><time>2026-05-03T12:17:02.597Z</time></trkpt><trkpt lat="46.0696903" lon="9.3088087"><ele>204.0</ele><time>2026-05-03T12:17:03.591Z</time></trkpt><trkpt lat="46.0695837" lon="9.3088794"><ele>204.5</ele><time>2026-05-03T12:17:04.593Z</time></trkpt><trkpt lat="46.069474" lon="9.3089543"><ele>205.0</ele><time>2026-05-03T12:17:05.589Z</time></trkpt><trkpt lat="46.0693618" lon="9.309031"><ele>205.5</ele><time>2026-05-03T12:17:06.592Z</time></trkpt><trkpt lat="46.0692495" lon="9.3091076"><ele>206.0</ele><time>2026-05-03T12:17:07.592Z</time></trkpt><trkpt lat="46.0691338" lon="9.3091829"><ele>205.75</ele><time>2026-05-03T12:17:08.6Z</time></trkpt><trkpt lat="46.0690205" lon="9.3092609"><ele>205.5</ele><time>2026-05-03T12:17:09.595Z</time></trkpt><trkpt lat="46.0689101" lon="9.3093421"><ele>205.25</ele><time>2026-05-03T12:17:10.598Z</time></trkpt><trkpt lat="46.0688028" lon="9.3094241"><ele>205.0</ele><time>2026-05-03T12:17:11.596Z</time></trkpt><trkpt lat="46.068687" lon="9.3095016"><ele>205.0</ele><time>2026-05-03T12:17:12.594Z</time></trkpt><trkpt lat="46.068577" lon="9.3095788"><ele>205.0</ele><time>2026-05-03T12:17:13.597Z</time></trkpt><trkpt lat="46.0684634" lon="9.3096504"><ele>205.0</ele><time>2026-05-03T12:17:14.597Z</time></trkpt><trkpt lat="46.0683475" lon="9.3097078"><ele>205.0</ele><time>2026-05-03T12:17:15.6Z</time></trkpt><trkpt lat="46.0682191" lon="9.309748"><ele>205.33333333333331</ele><time>2026-05-03T12:17:16.595Z</time></trkpt><trkpt lat="46.068074" lon="9.3097643"><ele>205.66666666666669</ele><time>2026-05-03T12:17:17.6Z</time></trkpt><trkpt lat="46.0678823" lon="9.3096754"><ele>206.0</ele><time>2026-05-03T12:17:18.592Z</time></trkpt><trkpt lat="46.0677047" lon="9.3096324"><ele>206.0</ele><time>2026-05-03T12:17:19.597Z</time></trkpt><trkpt lat="46.0675697" lon="9.3096213"><ele>206.0</ele><time>2026-05-03T12:17:20.604Z</time></trkpt><trkpt lat="46.0674404" lon="9.3095862"><ele>206.0</ele><time>2026-05-03T12:17:21.592Z</time></trkpt><trkpt lat="46.0673166" lon="9.309574"><ele>206.0</ele><time>2026-05-03T12:17:22.604Z</time></trkpt><trkpt lat="46.0672238" lon="9.3095482"><ele>205.33333333333334</ele><time>2026-05-03T12:17:23.601Z</time></trkpt><trkpt lat="46.0671251" lon="9.309512"><ele>204.66666666666669</ele><time>2026-05-03T12:17:24.596Z</time></trkpt><trkpt lat="46.0670277" lon="9.3094977"><ele>204.0</ele><time>2026-05-03T12:17:25.593Z</time></trkpt><trkpt lat="46.0669422" lon="9.3094925"><ele>203.33333333333331</ele><time>2026-05-03T12:17:26.597Z</time></trkpt><trkpt lat="46.0668612" lon="9.3094876"><ele>202.66666666666666</ele><time>2026-05-03T12:17:27.585Z</time></trkpt><trkpt lat="46.0667787" lon="9.3094808"><ele>202.0</ele><time>2026-05-03T12:17:28.586Z</time></trkpt><trkpt lat="46.0667" lon="9.3094778"><ele>202.0</ele><time>2026-05-03T12:17:29.59Z</time></trkpt><trkpt lat="46.0666267" lon="9.3094737"><ele>202.0</ele><time>2026-05-03T12:17:30.586Z</time></trkpt><trkpt lat="46.066563" lon="9.3094721"><ele>202.0</ele><time>2026-05-03T12:17:31.588Z</time></trkpt><trkpt lat="46.0664294" lon="9.3094864"><ele>202.0</ele><time>2026-05-03T12:17:33.582Z</time></trkpt><trkpt lat="46.0663649" lon="9.3095143"><ele>202.0</ele><time>2026-05-03T12:17:34.588Z</time></trkpt><trkpt lat="46.0662499" lon="9.3095772"><ele>202.28571428571428</ele><time>2026-05-03T12:17:36.588Z</time></trkpt><trkpt lat="46.0661935" lon="9.3096194"><ele>202.57142857142856</ele><time>2026-05-03T12:17:37.588Z</time></trkpt><trkpt lat="46.0661378" lon="9.3096696"><ele>202.85714285714286</ele><time>2026-05-03T12:17:38.606Z</time></trkpt><trkpt lat="46.0660787" lon="9.3097186"><ele>203.14285714285714</ele><time>2026-05-03T12:17:39.589Z</time></trkpt><trkpt lat="46.06602" lon="9.3097831"><ele>203.42857142857144</ele><time>2026-05-03T12:17:40.589Z</time></trkpt><trkpt lat="46.0659595" lon="9.3098513"><ele>203.71428571428572</ele><time>2026-05-03T12:17:41.59Z</time></trkpt><trkpt lat="46.0659084" lon="9.3099425"><ele>204.0</ele><time>2026-05-03T12:17:42.585Z</time></trkpt><trkpt lat="46.0658447" lon="9.3100643"><ele>203.0</ele><time>2026-05-03T12:17:43.597Z</time></trkpt><trkpt lat="46.0657697" lon="9.310222"><ele>202.0</ele><time>2026-05-03T12:17:44.594Z</time></trkpt><trkpt lat="46.0657079" lon="9.3103663"><ele>201.0</ele><time>2026-05-03T12:17:45.589Z</time></trkpt><trkpt lat="46.0656512" lon="9.3105012"><ele>200.0</ele><time>2026-05-03T12:17:46.587Z</time></trkpt><trkpt lat="46.0655986" lon="9.3106329"><ele>200.0</ele><time>2026-05-03T12:17:47.572Z</time></trkpt><trkpt lat="46.0655394" lon="9.3107646"><ele>200.0</ele><time>2026-05-03T12:17:48.578Z</time></trkpt><trkpt lat="46.0654821" lon="9.3109028"><ele>200.0</ele><time>2026-05-03T12:17:49.571Z</time></trkpt><trkpt lat="46.065426" lon="9.3110412"><ele>200.0</ele><time>2026-05-03T12:17:50.56Z</time></trkpt><trkpt lat="46.065371" lon="9.3111767"><ele>200.0</ele><time>2026-05-03T12:17:51.538Z</time></trkpt><trkpt lat="46.0623589" lon="9.3116173"><ele>200.0</ele><time>2026-05-03T12:18:12.594Z</time></trkpt><trkpt lat="46.0622346" lon="9.3117404"><ele>200.0</ele><time>2026-05-03T12:18:13.611Z</time></trkpt><trkpt lat="46.0620736" lon="9.311869"><ele>200.0</ele><time>2026-05-03T12:18:14.588Z</time></trkpt><trkpt lat="46.0618956" lon="9.3119814"><ele>200.0</ele><time>2026-05-03T12:18:15.592Z</time></trkpt><trkpt lat="46.0617398" lon="9.3119911"><ele>200.0</ele><time>2026-05-03T12:18:16.584Z</time></trkpt><trkpt lat="46.0615913" lon="9.311967"><ele>200.0</ele><time>2026-05-03T12:18:17.594Z</time></trkpt><trkpt lat="46.0614546" lon="9.3120484"><ele>199.5</ele><time>2026-05-03T12:18:18.591Z</time></trkpt><trkpt lat="46.0613193" lon="9.3121218"><ele>199.0</ele><time>2026-05-03T12:18:19.591Z</time></trkpt><trkpt lat="46.0611903" lon="9.3122068"><ele>198.5</ele><time>2026-05-03T12:18:20.589Z</time></trkpt><trkpt lat="46.0610674" lon="9.3123227"><ele>198.0</ele><time>2026-05-03T12:18:21.597Z</time></trkpt><trkpt lat="46.0609399" lon="9.312414"><ele>203.66666666666669</ele><time>2026-05-03T12:18:22.589Z</time></trkpt><trkpt lat="46.0608176" lon="9.3125187"><ele>209.33333333333334</ele><time>2026-05-03T12:18:23.592Z</time></trkpt><trkpt lat="46.0606682" lon="9.3125405"><ele>215.0</ele><time>2026-05-03T12:18:24.594Z</time></trkpt><trkpt lat="46.0605066" lon="9.3125401"><ele>215.0</ele><time>2026-05-03T12:18:25.588Z</time></trkpt><trkpt lat="46.0603491" lon="9.3125421"><ele>215.0</ele><time>2026-05-03T12:18:26.593Z</time></trkpt><trkpt lat="46.0601922" lon="9.3125488"><ele>215.0</ele><time>2026-05-03T12:18:27.587Z</time></trkpt><trkpt lat="46.0600281" lon="9.3125351"><ele>216.0</ele><time>2026-05-03T12:18:28.587Z</time></trkpt><trkpt lat="46.0598668" lon="9.3125115"><ele>217.0</ele><time>2026-05-03T12:18:29.585Z</time></trkpt><trkpt lat="46.0597166" lon="9.3124822"><ele>218.0</ele><time>2026-05-03T12:18:30.596Z</time></trkpt><trkpt lat="46.0595779" lon="9.3124601"><ele>218.0</ele><time>2026-05-03T12:18:31.592Z</time></trkpt><trkpt lat="46.0594675" lon="9.3124135"><ele>218.0</ele><time>2026-05-03T12:18:32.596Z</time></trkpt><trkpt lat="46.0593723" lon="9.3123877"><ele>218.0</ele><time>2026-05-03T12:18:33.597Z</time></trkpt><trkpt lat="46.0592466" lon="9.3123439"><ele>218.0</ele><time>2026-05-03T12:18:34.596Z</time></trkpt><trkpt lat="46.059124" lon="9.312315"><ele>217.0</ele><time>2026-05-03T12:18:35.597Z</time></trkpt><trkpt lat="46.0589663" lon="9.3123285"><ele>216.0</ele><time>2026-05-03T12:18:36.602Z</time></trkpt><trkpt lat="46.0588205" lon="9.3123543"><ele>215.0</ele><time>2026-05-03T12:18:37.599Z</time></trkpt><trkpt lat="46.0586604" lon="9.312395"><ele>215.0</ele><time>2026-05-03T12:18:38.605Z</time></trkpt><trkpt lat="46.0585045" lon="9.3124321"><ele>215.0</ele><time>2026-05-03T12:18:39.597Z</time></trkpt><trkpt lat="46.0583339" lon="9.3124673"><ele>215.0</ele><time>2026-05-03T12:18:40.603Z</time></trkpt><trkpt lat="46.0581606" lon="9.3125257"><ele>212.66666666666669</ele><time>2026-05-03T12:18:41.594Z</time></trkpt><trkpt lat="46.0579824" lon="9.3125904"><ele>210.33333333333331</ele><time>2026-05-03T12:18:42.589Z</time></trkpt><trkpt lat="46.0578247" lon="9.3126657"><ele>208.0</ele><time>2026-05-03T12:18:43.577Z</time></trkpt><trkpt lat="46.0576689" lon="9.3127738"><ele>208.0</ele><time>2026-05-03T12:18:44.575Z</time></trkpt><trkpt lat="46.0575449" lon="9.3128472"><ele>208.0</ele><time>2026-05-03T12:18:45.575Z</time></trkpt><trkpt lat="46.0573746" lon="9.3129223"><ele>208.0</ele><time>2026-05-03T12:18:46.584Z</time></trkpt><trkpt lat="46.0571852" lon="9.3129959"><ele>206.66666666666666</ele><time>2026-05-03T12:18:47.593Z</time></trkpt><trkpt lat="46.0569958" lon="9.3130394"><ele>205.33333333333331</ele><time>2026-05-03T12:18:48.599Z</time></trkpt><trkpt lat="46.0568471" lon="9.3131304"><ele>204.0</ele><time>2026-05-03T12:18:49.591Z</time></trkpt><trkpt lat="46.0566674" lon="9.3131445"><ele>204.33333333333331</ele><time>2026-05-03T12:18:50.599Z</time></trkpt><trkpt lat="46.0565106" lon="9.3131251"><ele>204.66666666666666</ele><time>2026-05-03T12:18:51.591Z</time></trkpt><trkpt lat="46.0562686" lon="9.3130303"><ele>205.0</ele><time>2026-05-03T12:18:52.598Z</time></trkpt><trkpt lat="46.0560776" lon="9.3129813"><ele>205.0</ele><time>2026-05-03T12:18:53.597Z</time></trkpt><trkpt lat="46.0558974" lon="9.3129447"><ele>205.0</ele><time>2026-05-03T12:18:54.598Z</time></trkpt><trkpt lat="46.0557056" lon="9.3129337"><ele>205.0</ele><time>2026-05-03T12:18:55.594Z</time></trkpt><trkpt lat="46.0555255" lon="9.3129059"><ele>208.33333333333331</ele><time>2026-05-03T12:18:56.604Z</time></trkpt><trkpt lat="46.0553574" lon="9.3128793"><ele>211.66666666666669</ele><time>2026-05-03T12:18:57.593Z</time></trkpt><trkpt lat="46.0551985" lon="9.3128654"><ele>215.0</ele><time>2026-05-03T12:18:58.593Z</time></trkpt><trkpt lat="46.0550435" lon="9.3128138"><ele>215.0</ele><time>2026-05-03T12:18:59.593Z</time></trkpt><trkpt lat="46.0549199" lon="9.3127236"><ele>215.0</ele><time>2026-05-03T12:19:00.596Z</time></trkpt><trkpt lat="46.0548223" lon="9.3126402"><ele>215.0</ele><time>2026-05-03T12:19:01.59Z</time></trkpt><trkpt lat="46.0547383" lon="9.3125881"><ele>215.0</ele><time>2026-05-03T12:19:02.595Z</time></trkpt><trkpt lat="46.0546512" lon="9.3125233"><ele>215.0</ele><time>2026-05-03T12:19:03.588Z</time></trkpt><trkpt lat="46.0545574" lon="9.3124732"><ele>215.0</ele><time>2026-05-03T12:19:04.598Z</time></trkpt><trkpt lat="46.0544326" lon="9.3124396"><ele>215.0</ele><time>2026-05-03T12:19:05.584Z</time></trkpt><trkpt lat="46.054314" lon="9.3124555"><ele>215.0</ele><time>2026-05-03T12:19:06.591Z</time></trkpt><trkpt lat="46.0541975" lon="9.3124638"><ele>215.0</ele><time>2026-05-03T12:19:07.601Z</time></trkpt><trkpt lat="46.0540854" lon="9.312465"><ele>217.25</ele><time>2026-05-03T12:19:08.599Z</time></trkpt><trkpt lat="46.0539582" lon="9.3124547"><ele>219.5</ele><time>2026-05-03T12:19:09.6Z</time></trkpt><trkpt lat="46.0538334" lon="9.312445"><ele>221.75</ele><time>2026-05-03T12:19:10.595Z</time></trkpt><trkpt lat="46.0537058" lon="9.3124317"><ele>224.0</ele><time>2026-05-03T12:19:11.598Z</time></trkpt><trkpt lat="46.0535751" lon="9.312401"><ele>224.0</ele><time>2026-05-03T12:19:12.589Z</time></trkpt><trkpt lat="46.0534481" lon="9.3123389"><ele>224.0</ele><time>2026-05-03T12:19:13.595Z</time></trkpt><trkpt lat="46.0533292" lon="9.3122549"><ele>224.0</ele><time>2026-05-03T12:19:14.594Z</time></trkpt><trkpt lat="46.0532267" lon="9.3121717"><ele>224.0</ele><time>2026-05-03T12:19:15.598Z</time></trkpt><trkpt lat="46.0531244" lon="9.3120775"><ele>221.25</ele><time>2026-05-03T12:19:16.594Z</time></trkpt><trkpt lat="46.0530265" lon="9.3119843"><ele>218.5</ele><time>2026-05-03T12:19:17.593Z</time></trkpt><trkpt lat="46.0529212" lon="9.3118918"><ele>215.75</ele><time>2026-05-03T12:19:18.6Z</time></trkpt><trkpt lat="46.0528099" lon="9.3118022"><ele>213.0</ele><time>2026-05-03T12:19:19.593Z</time></trkpt><trkpt lat="46.0526891" lon="9.3117115"><ele>213.0</ele><time>2026-05-03T12:19:20.601Z</time></trkpt><trkpt lat="46.0525715" lon="9.3116203"><ele>213.0</ele><time>2026-05-03T12:19:21.598Z</time></trkpt><trkpt lat="46.0524546" lon="9.3115354"><ele>213.0</ele><time>2026-05-03T12:19:22.596Z</time></trkpt><trkpt lat="46.0523192" lon="9.3114492"><ele>213.0</ele><time>2026-05-03T12:19:23.591Z</time></trkpt><trkpt lat="46.0521545" lon="9.3113115"><ele>213.33333333333331</ele><time>2026-05-03T12:19:24.585Z</time></trkpt><trkpt lat="46.0519889" lon="9.3111705"><ele>213.66666666666666</ele><time>2026-05-03T12:19:25.592Z</time></trkpt><trkpt lat="46.0518371" lon="9.3110467"><ele>214.0</ele><time>2026-05-03T12:19:26.594Z</time></trkpt><trkpt lat="46.051711" lon="9.3109252"><ele>212.75</ele><time>2026-05-03T12:19:27.586Z</time></trkpt><trkpt lat="46.0515704" lon="9.3108201"><ele>211.5</ele><time>2026-05-03T12:19:28.591Z</time></trkpt><trkpt lat="46.0514423" lon="9.3107154"><ele>210.25</ele><time>2026-05-03T12:19:29.59Z</time></trkpt><trkpt lat="46.0513302" lon="9.3106225"><ele>209.0</ele><time>2026-05-03T12:19:30.589Z</time></trkpt><trkpt lat="46.0511987" lon="9.3105154"><ele>209.0</ele><time>2026-05-03T12:19:31.582Z</time></trkpt><trkpt lat="46.0510781" lon="9.3104084"><ele>209.0</ele><time>2026-05-03T12:19:32.591Z</time></trkpt><trkpt lat="46.0509556" lon="9.3103007"><ele>209.0</ele><time>2026-05-03T12:19:33.588Z</time></trkpt><trkpt lat="46.0508457" lon="9.3101908"><ele>209.0</ele><time>2026-05-03T12:19:34.593Z</time></trkpt><trkpt lat="46.0507452" lon="9.3101012"><ele>210.0</ele><time>2026-05-03T12:19:35.597Z</time></trkpt><trkpt lat="46.0506543" lon="9.3099515"><ele>211.0</ele><time>2026-05-03T12:19:36.597Z</time></trkpt><trkpt lat="46.0505686" lon="9.3097937"><ele>212.0</ele><time>2026-05-03T12:19:37.596Z</time></trkpt><trkpt lat="46.0504798" lon="9.3096325"><ele>213.0</ele><time>2026-05-03T12:19:38.59Z</time></trkpt><trkpt lat="46.050392" lon="9.3094603"><ele>213.0</ele><time>2026-05-03T12:19:39.594Z</time></trkpt><trkpt lat="46.0502965" lon="9.3092959"><ele>213.0</ele><time>2026-05-03T12:19:40.592Z</time></trkpt><trkpt lat="46.0502064" lon="9.3091406"><ele>213.0</ele><time>2026-05-03T12:19:41.594Z</time></trkpt><trkpt lat="46.0501128" lon="9.308981"><ele>213.0</ele><time>2026-05-03T12:19:42.6Z</time></trkpt><trkpt lat="46.0500417" lon="9.3088402"><ele>211.5</ele><time>2026-05-03T12:19:43.598Z</time></trkpt><trkpt lat="46.049962" lon="9.3086942"><ele>210.0</ele><time>2026-05-03T12:19:44.595Z</time></trkpt><trkpt lat="46.0498659" lon="9.3085603"><ele>208.5</ele><time>2026-05-03T12:19:45.597Z</time></trkpt><trkpt lat="46.0497789" lon="9.308412"><ele>207.0</ele><time>2026-05-03T12:19:46.595Z</time></trkpt><trkpt lat="46.0497002" lon="9.3082691"><ele>208.0</ele><time>2026-05-03T12:19:47.598Z</time></trkpt><trkpt lat="46.0496141" lon="9.3081376"><ele>209.0</ele><time>2026-05-03T12:19:48.601Z</time></trkpt><trkpt lat="46.0495329" lon="9.3080005"><ele>210.0</ele><time>2026-05-03T12:19:49.592Z</time></trkpt><trkpt lat="46.0494537" lon="9.3078656"><ele>211.0</ele><time>2026-05-03T12:19:50.602Z</time></trkpt><trkpt lat="46.0493851" lon="9.3077329"><ele>211.0</ele><time>2026-05-03T12:19:51.598Z</time></trkpt><trkpt lat="46.0493075" lon="9.3076106"><ele>211.0</ele><time>2026-05-03T12:19:52.597Z</time></trkpt><trkpt lat="46.0492287" lon="9.3074989"><ele>211.0</ele><time>2026-05-03T12:19:53.598Z</time></trkpt><trkpt lat="46.049139" lon="9.3073927"><ele>211.0</ele><time>2026-05-03T12:19:54.588Z</time></trkpt><trkpt lat="46.0490369" lon="9.3073048"><ele>210.5</ele><time>2026-05-03T12:19:55.602Z</time></trkpt><trkpt lat="46.0489301" lon="9.3072347"><ele>210.0</ele><time>2026-05-03T12:19:56.598Z</time></trkpt><trkpt lat="46.04882" lon="9.3071736"><ele>209.5</ele><time>2026-05-03T12:19:57.593Z</time></trkpt><trkpt lat="46.0487033" lon="9.3071213"><ele>209.0</ele><time>2026-05-03T12:19:58.596Z</time></trkpt><trkpt lat="46.048583" lon="9.3070806"><ele>209.0</ele><time>2026-05-03T12:19:59.589Z</time></trkpt><trkpt lat="46.0484629" lon="9.3070424"><ele>209.0</ele><time>2026-05-03T12:20:00.592Z</time></trkpt><trkpt lat="46.0483428" lon="9.3070009"><ele>209.0</ele><time>2026-05-03T12:20:01.591Z</time></trkpt><trkpt lat="46.0482222" lon="9.3069653"><ele>209.0</ele><time>2026-05-03T12:20:02.59Z</time></trkpt><trkpt lat="46.0481084" lon="9.3069281"><ele>214.5</ele><time>2026-05-03T12:20:03.588Z</time></trkpt><trkpt lat="46.0480012" lon="9.3068746"><ele>220.0</ele><time>2026-05-03T12:20:04.575Z</time></trkpt><trkpt lat="46.0479" lon="9.3067944"><ele>225.5</ele><time>2026-05-03T12:20:05.593Z</time></trkpt><trkpt lat="46.0478126" lon="9.3066832"><ele>231.0</ele><time>2026-05-03T12:20:06.591Z</time></trkpt><trkpt lat="46.047739" lon="9.3065215"><ele>226.5</ele><time>2026-05-03T12:20:07.586Z</time></trkpt><trkpt lat="46.0476701" lon="9.3063482"><ele>222.0</ele><time>2026-05-03T12:20:08.586Z</time></trkpt><trkpt lat="46.0476139" lon="9.3061548"><ele>217.5</ele><time>2026-05-03T12:20:09.592Z</time></trkpt><trkpt lat="46.0475679" lon="9.3059445"><ele>213.0</ele><time>2026-05-03T12:20:10.592Z</time></trkpt><trkpt lat="46.0475178" lon="9.3057755"><ele>213.0</ele><time>2026-05-03T12:20:11.586Z</time></trkpt><trkpt lat="46.0474746" lon="9.3056474"><ele>213.0</ele><time>2026-05-03T12:20:12.595Z</time></trkpt><trkpt lat="46.0474172" lon="9.305538"><ele>213.0</ele><time>2026-05-03T12:20:13.591Z</time></trkpt><trkpt lat="46.0473411" lon="9.3054517"><ele>213.0</ele><time>2026-05-03T12:20:14.596Z</time></trkpt><trkpt lat="46.0472532" lon="9.3053998"><ele>213.0</ele><time>2026-05-03T12:20:15.591Z</time></trkpt><trkpt lat="46.047155" lon="9.3053718"><ele>211.0</ele><time>2026-05-03T12:20:16.592Z</time></trkpt><trkpt lat="46.0470466" lon="9.3053588"><ele>209.0</ele><time>2026-05-03T12:20:17.575Z</time></trkpt><trkpt lat="46.0469349" lon="9.3053706"><ele>207.0</ele><time>2026-05-03T12:20:18.592Z</time></trkpt><trkpt lat="46.0468294" lon="9.3053944"><ele>205.0</ele><time>2026-05-03T12:20:19.579Z</time></trkpt><trkpt lat="46.0467138" lon="9.3054221"><ele>203.0</ele><time>2026-05-03T12:20:20.589Z</time></trkpt><trkpt lat="46.0465913" lon="9.3054435"><ele>203.0</ele><time>2026-05-03T12:20:21.583Z</time></trkpt><trkpt lat="46.0464685" lon="9.3054658"><ele>203.0</ele><time>2026-05-03T12:20:22.594Z</time></trkpt><trkpt lat="46.0463499" lon="9.3055062"><ele>203.0</ele><time>2026-05-03T12:20:23.595Z</time></trkpt><trkpt lat="46.0462361" lon="9.305551"><ele>203.0</ele><time>2026-05-03T12:20:24.595Z</time></trkpt><trkpt lat="46.0461232" lon="9.3055876"><ele>203.0</ele><time>2026-05-03T12:20:25.579Z</time></trkpt><trkpt lat="46.046011" lon="9.3055976"><ele>203.0</ele><time>2026-05-03T12:20:26.592Z</time></trkpt><trkpt lat="46.0458949" lon="9.3055733"><ele>203.0</ele><time>2026-05-03T12:20:27.583Z</time></trkpt><trkpt lat="46.0457759" lon="9.305531"><ele>203.0</ele><time>2026-05-03T12:20:28.587Z</time></trkpt><trkpt lat="46.0456609" lon="9.3054794"><ele>204.75</ele><time>2026-05-03T12:20:29.58Z</time></trkpt><trkpt lat="46.0455518" lon="9.3054132"><ele>206.5</ele><time>2026-05-03T12:20:30.578Z</time></trkpt><trkpt lat="46.0454564" lon="9.3053312"><ele>208.25</ele><time>2026-05-03T12:20:31.581Z</time></trkpt><trkpt lat="46.0453658" lon="9.3052255"><ele>210.0</ele><time>2026-05-03T12:20:32.59Z</time></trkpt><trkpt lat="46.0452918" lon="9.3050904"><ele>210.0</ele><time>2026-05-03T12:20:33.592Z</time></trkpt><trkpt lat="46.0452277" lon="9.304946"><ele>210.0</ele><time>2026-05-03T12:20:34.595Z</time></trkpt><trkpt lat="46.0451805" lon="9.3047963"><ele>210.0</ele><time>2026-05-03T12:20:35.594Z</time></trkpt><trkpt lat="46.0451289" lon="9.3046492"><ele>210.0</ele><time>2026-05-03T12:20:36.602Z</time></trkpt><trkpt lat="46.0450726" lon="9.3045028"><ele>209.6</ele><time>2026-05-03T12:20:37.593Z</time></trkpt><trkpt lat="46.0450083" lon="9.3043657"><ele>209.2</ele><time>2026-05-03T12:20:38.6Z</time></trkpt><trkpt lat="46.0449427" lon="9.3042379"><ele>208.8</ele><time>2026-05-03T12:20:39.598Z</time></trkpt><trkpt lat="46.0448743" lon="9.3041219"><ele>208.4</ele><time>2026-05-03T12:20:40.599Z</time></trkpt><trkpt lat="46.0448068" lon="9.304013"><ele>208.0</ele><time>2026-05-03T12:20:41.596Z</time></trkpt><trkpt lat="46.0447396" lon="9.3039113"><ele>208.0</ele><time>2026-05-03T12:20:42.593Z</time></trkpt><trkpt lat="46.044671" lon="9.303813"><ele>208.0</ele><time>2026-05-03T12:20:43.592Z</time></trkpt><trkpt lat="46.04461" lon="9.3037104"><ele>208.0</ele><time>2026-05-03T12:20:44.601Z</time></trkpt><trkpt lat="46.0445321" lon="9.3036093"><ele>208.0</ele><time>2026-05-03T12:20:45.6Z</time></trkpt><trkpt lat="46.0444527" lon="9.3035146"><ele>208.0</ele><time>2026-05-03T12:20:46.601Z</time></trkpt><trkpt lat="46.0443775" lon="9.3034228"><ele>208.0</ele><time>2026-05-03T12:20:47.599Z</time></trkpt><trkpt lat="46.0443052" lon="9.3033308"><ele>208.0</ele><time>2026-05-03T12:20:48.598Z</time></trkpt><trkpt lat="46.0442276" lon="9.3032426"><ele>208.0</ele><time>2026-05-03T12:20:49.597Z</time></trkpt><trkpt lat="46.0441503" lon="9.3031594"><ele>208.0</ele><time>2026-05-03T12:20:50.598Z</time></trkpt><trkpt lat="46.0440754" lon="9.3030698"><ele>208.0</ele><time>2026-05-03T12:20:51.597Z</time></trkpt><trkpt lat="46.0440049" lon="9.30297"><ele>208.49999999999997</ele><time>2026-05-03T12:20:52.596Z</time></trkpt><trkpt lat="46.0439369" lon="9.3028785"><ele>209.0</ele><time>2026-05-03T12:20:53.606Z</time></trkpt><trkpt lat="46.0438758" lon="9.3027874"><ele>209.5</ele><time>2026-05-03T12:20:54.601Z</time></trkpt><trkpt lat="46.0438154" lon="9.3026981"><ele>210.0</ele><time>2026-05-03T12:20:55.596Z</time></trkpt><trkpt lat="46.0437604" lon="9.3026043"><ele>210.49999999999997</ele><time>2026-05-03T12:20:56.595Z</time></trkpt><trkpt lat="46.0437044" lon="9.3025098"><ele>211.0</ele><time>2026-05-03T12:20:57.597Z</time></trkpt><trkpt lat="46.0436514" lon="9.3024261"><ele>210.99999999999997</ele><time>2026-05-03T12:20:58.595Z</time></trkpt><trkpt lat="46.0435937" lon="9.3023545"><ele>211.0</ele><time>2026-05-03T12:20:59.595Z</time></trkpt><trkpt lat="46.0435147" lon="9.3023069"><ele>211.0</ele><time>2026-05-03T12:21:00.601Z</time></trkpt><trkpt lat="46.0434408" lon="9.3022579"><ele>211.0</ele><time>2026-05-03T12:21:01.59Z</time></trkpt><trkpt lat="46.0433568" lon="9.302216"><ele>210.99999999999997</ele><time>2026-05-03T12:21:02.592Z</time></trkpt><trkpt lat="46.04327" lon="9.3021674"><ele>211.0</ele><time>2026-05-03T12:21:03.595Z</time></trkpt><trkpt lat="46.0431665" lon="9.3021521"><ele>210.25</ele><time>2026-05-03T12:21:04.591Z</time></trkpt><trkpt lat="46.0430543" lon="9.3021653"><ele>209.5</ele><time>2026-05-03T12:21:05.592Z</time></trkpt><trkpt lat="46.0429437" lon="9.302182"><ele>208.75</ele><time>2026-05-03T12:21:06.595Z</time></trkpt><trkpt lat="46.0428243" lon="9.3021931"><ele>208.0</ele><time>2026-05-03T12:21:07.592Z</time></trkpt><trkpt lat="46.0427034" lon="9.3022054"><ele>208.0</ele><time>2026-05-03T12:21:08.604Z</time></trkpt><trkpt lat="46.0425799" lon="9.3022124"><ele>208.0</ele><time>2026-05-03T12:21:09.597Z</time></trkpt><trkpt lat="46.0424579" lon="9.3022132"><ele>208.0</ele><time>2026-05-03T12:21:10.589Z</time></trkpt><trkpt lat="46.0423266" lon="9.3022097"><ele>208.0</ele><time>2026-05-03T12:21:11.594Z</time></trkpt><trkpt lat="46.0421922" lon="9.3022052"><ele>207.8</ele><time>2026-05-03T12:21:12.595Z</time></trkpt><trkpt lat="46.0420659" lon="9.3021926"><ele>207.60000000000002</ele><time>2026-05-03T12:21:13.581Z</time></trkpt><trkpt lat="46.0419584" lon="9.3021959"><ele>207.39999999999998</ele><time>2026-05-03T12:21:14.599Z</time></trkpt><trkpt lat="46.0418646" lon="9.3022039"><ele>207.2</ele><time>2026-05-03T12:21:15.596Z</time></trkpt><trkpt lat="46.0417719" lon="9.3022153"><ele>207.0</ele><time>2026-05-03T12:21:16.59Z</time></trkpt><trkpt lat="46.0416829" lon="9.3022208"><ele>207.0</ele><time>2026-05-03T12:21:17.594Z</time></trkpt><trkpt lat="46.0415982" lon="9.302219"><ele>207.0</ele><time>2026-05-03T12:21:18.588Z</time></trkpt><trkpt lat="46.0415101" lon="9.3022158"><ele>207.0</ele><time>2026-05-03T12:21:19.592Z</time></trkpt><trkpt lat="46.0414344" lon="9.3022232"><ele>207.0</ele><time>2026-05-03T12:21:20.586Z</time></trkpt><trkpt lat="46.0413621" lon="9.3022197"><ele>207.0</ele><time>2026-05-03T12:21:21.578Z</time></trkpt><trkpt lat="46.0412539" lon="9.3022177"><ele>207.0</ele><time>2026-05-03T12:21:23.584Z</time></trkpt><trkpt lat="46.0411281" lon="9.3022173"><ele>207.0</ele><time>2026-05-03T12:21:25.593Z</time></trkpt><trkpt lat="46.0410502" lon="9.3022211"><ele>207.0</ele><time>2026-05-03T12:21:26.591Z</time></trkpt><trkpt lat="46.0409607" lon="9.3022296"><ele>207.0</ele><time>2026-05-03T12:21:27.607Z</time></trkpt><trkpt lat="46.0408552" lon="9.3022369"><ele>207.0</ele><time>2026-05-03T12:21:28.581Z</time></trkpt><trkpt lat="46.0407416" lon="9.3022454"><ele>207.0</ele><time>2026-05-03T12:21:29.586Z</time></trkpt><trkpt lat="46.0406115" lon="9.3022412"><ele>206.75</ele><time>2026-05-03T12:21:30.588Z</time></trkpt><trkpt lat="46.0404805" lon="9.3022283"><ele>206.5</ele><time>2026-05-03T12:21:31.587Z</time></trkpt><trkpt lat="46.0403426" lon="9.3022167"><ele>206.25</ele><time>2026-05-03T12:21:32.59Z</time></trkpt><trkpt lat="46.0401922" lon="9.3021945"><ele>206.0</ele><time>2026-05-03T12:21:33.612Z</time></trkpt><trkpt lat="46.040045" lon="9.3021815"><ele>206.0</ele><time>2026-05-03T12:21:34.589Z</time></trkpt><trkpt lat="46.0398991" lon="9.3021804"><ele>206.0</ele><time>2026-05-03T12:21:35.6Z</time></trkpt><trkpt lat="46.0397354" lon="9.3021913"><ele>206.0</ele><time>2026-05-03T12:21:36.592Z</time></trkpt><trkpt lat="46.0395778" lon="9.3021901"><ele>206.0</ele><time>2026-05-03T12:21:37.577Z</time></trkpt><trkpt lat="46.0394384" lon="9.3021709"><ele>206.0</ele><time>2026-05-03T12:21:38.588Z</time></trkpt><trkpt lat="46.0392823" lon="9.3021336"><ele>206.0</ele><time>2026-05-03T12:21:39.583Z</time></trkpt><trkpt lat="46.0391255" lon="9.3021534"><ele>205.66666666666669</ele><time>2026-05-03T12:21:40.583Z</time></trkpt><trkpt lat="46.0389654" lon="9.3021407"><ele>205.33333333333331</ele><time>2026-05-03T12:21:41.578Z</time></trkpt><trkpt lat="46.0387921" lon="9.3021637"><ele>205.0</ele><time>2026-05-03T12:21:42.583Z</time></trkpt><trkpt lat="46.0386338" lon="9.3021559"><ele>205.0</ele><time>2026-05-03T12:21:43.584Z</time></trkpt><trkpt lat="46.0384965" lon="9.3021685"><ele>205.0</ele><time>2026-05-03T12:21:44.586Z</time></trkpt><trkpt lat="46.0383582" lon="9.3021791"><ele>205.0</ele><time>2026-05-03T12:21:45.584Z</time></trkpt><trkpt lat="46.0382443" lon="9.3021684"><ele>205.0</ele><time>2026-05-03T12:21:46.593Z</time></trkpt><trkpt lat="46.0381291" lon="9.3021715"><ele>214.5</ele><time>2026-05-03T12:21:47.589Z</time></trkpt><trkpt lat="46.0379939" lon="9.3021076"><ele>224.0</ele><time>2026-05-03T12:21:48.591Z</time></trkpt><trkpt lat="46.0378997" lon="9.3020693"><ele>233.5</ele><time>2026-05-03T12:21:49.581Z</time></trkpt><trkpt lat="46.0378258" lon="9.3019333"><ele>243.0</ele><time>2026-05-03T12:21:50.587Z</time></trkpt><trkpt lat="46.0377441" lon="9.3017684"><ele>243.0</ele><time>2026-05-03T12:21:51.586Z</time></trkpt><trkpt lat="46.0376737" lon="9.3016006"><ele>243.0</ele><time>2026-05-03T12:21:52.585Z</time></trkpt><trkpt lat="46.0376078" lon="9.3013955"><ele>243.0</ele><time>2026-05-03T12:21:53.594Z</time></trkpt><trkpt lat="46.0375603" lon="9.3011787"><ele>244.0</ele><time>2026-05-03T12:21:54.583Z</time></trkpt><trkpt lat="46.0375075" lon="9.3010073"><ele>245.0</ele><time>2026-05-03T12:21:55.588Z</time></trkpt><trkpt lat="46.0374609" lon="9.3008051"><ele>246.0</ele><time>2026-05-03T12:21:56.59Z</time></trkpt><trkpt lat="46.0374174" lon="9.3006467"><ele>247.0</ele><time>2026-05-03T12:21:57.607Z</time></trkpt><trkpt lat="46.0373658" lon="9.3005023"><ele>238.75</ele><time>2026-05-03T12:21:58.586Z</time></trkpt><trkpt lat="46.0372397" lon="9.3004002"><ele>230.5</ele><time>2026-05-03T12:21:59.625Z</time></trkpt><trkpt lat="46.0371035" lon="9.3003123"><ele>222.25</ele><time>2026-05-03T12:22:00.585Z</time></trkpt><trkpt lat="46.0369759" lon="9.3002082"><ele>214.0</ele><time>2026-05-03T12:22:01.598Z</time></trkpt><trkpt lat="46.0368527" lon="9.3001164"><ele>214.0</ele><time>2026-05-03T12:22:02.577Z</time></trkpt><trkpt lat="46.03671" lon="9.3000282"><ele>214.0</ele><time>2026-05-03T12:22:03.59Z</time></trkpt><trkpt lat="46.036586" lon="9.2999234"><ele>214.0</ele><time>2026-05-03T12:22:04.607Z</time></trkpt><trkpt lat="46.0364776" lon="9.299802"><ele>214.0</ele><time>2026-05-03T12:22:05.583Z</time></trkpt><trkpt lat="46.0363692" lon="9.2996869"><ele>212.75</ele><time>2026-05-03T12:22:06.595Z</time></trkpt><trkpt lat="46.0362568" lon="9.299582"><ele>211.5</ele><time>2026-05-03T12:22:07.584Z</time></trkpt><trkpt lat="46.0361306" lon="9.299494"><ele>210.25</ele><time>2026-05-03T12:22:08.608Z</time></trkpt><trkpt lat="46.0359924" lon="9.2994605"><ele>209.0</ele><time>2026-05-03T12:22:09.586Z</time></trkpt><trkpt lat="46.0358568" lon="9.2994569"><ele>215.5</ele><time>2026-05-03T12:22:10.577Z</time></trkpt><trkpt lat="46.0357145" lon="9.2994652"><ele>222.0</ele><time>2026-05-03T12:22:11.587Z</time></trkpt><trkpt lat="46.0355953" lon="9.2994771"><ele>228.5</ele><time>2026-05-03T12:22:12.58Z</time></trkpt><trkpt lat="46.0354705" lon="9.2994663"><ele>235.0</ele><time>2026-05-03T12:22:13.587Z</time></trkpt><trkpt lat="46.0353515" lon="9.2994132"><ele>235.0</ele><time>2026-05-03T12:22:14.59Z</time></trkpt><trkpt lat="46.035224" lon="9.2993195"><ele>235.0</ele><time>2026-05-03T12:22:15.582Z</time></trkpt><trkpt lat="46.0351121" lon="9.2992078"><ele>235.0</ele><time>2026-05-03T12:22:16.585Z</time></trkpt><trkpt lat="46.0350236" lon="9.2990818"><ele>235.0</ele><time>2026-05-03T12:22:17.585Z</time></trkpt><trkpt lat="46.0349468" lon="9.2989253"><ele>239.5</ele><time>2026-05-03T12:22:18.601Z</time></trkpt><trkpt lat="46.0348885" lon="9.2987638"><ele>244.0</ele><time>2026-05-03T12:22:19.583Z</time></trkpt><trkpt lat="46.0348331" lon="9.2986039"><ele>248.5</ele><time>2026-05-03T12:22:20.584Z</time></trkpt><trkpt lat="46.0347591" lon="9.2984597"><ele>253.0</ele><time>2026-05-03T12:22:21.578Z</time></trkpt><trkpt lat="46.0346591" lon="9.2983305"><ele>253.0</ele><time>2026-05-03T12:22:22.589Z</time></trkpt><trkpt lat="46.0345464" lon="9.2982149"><ele>253.0</ele><time>2026-05-03T12:22:23.586Z</time></trkpt><trkpt lat="46.0344311" lon="9.2981144"><ele>253.0</ele><time>2026-05-03T12:22:24.581Z</time></trkpt><trkpt lat="46.0343366" lon="9.2979799"><ele>253.0</ele><time>2026-05-03T12:22:25.584Z</time></trkpt><trkpt lat="46.0342549" lon="9.2978304"><ele>252.25</ele><time>2026-05-03T12:22:26.585Z</time></trkpt><trkpt lat="46.0342004" lon="9.2976559"><ele>251.5</ele><time>2026-05-03T12:22:27.582Z</time></trkpt><trkpt lat="46.0341205" lon="9.2974809"><ele>250.75</ele><time>2026-05-03T12:22:28.594Z</time></trkpt><trkpt lat="46.0340297" lon="9.2973271"><ele>250.0</ele><time>2026-05-03T12:22:29.593Z</time></trkpt><trkpt lat="46.0339103" lon="9.2971637"><ele>250.0</ele><time>2026-05-03T12:22:30.581Z</time></trkpt><trkpt lat="46.0337657" lon="9.2969943"><ele>250.0</ele><time>2026-05-03T12:22:31.583Z</time></trkpt><trkpt lat="46.0336213" lon="9.2968066"><ele>250.0</ele><time>2026-05-03T12:22:32.576Z</time></trkpt><trkpt lat="46.033492" lon="9.2966474"><ele>250.0</ele><time>2026-05-03T12:22:33.586Z</time></trkpt><trkpt lat="46.0333802" lon="9.2965004"><ele>250.0</ele><time>2026-05-03T12:22:34.584Z</time></trkpt><trkpt lat="46.0332739" lon="9.2963538"><ele>250.0</ele><time>2026-05-03T12:22:35.58Z</time></trkpt><trkpt lat="46.0331659" lon="9.2962506"><ele>250.0</ele><time>2026-05-03T12:22:36.583Z</time></trkpt><trkpt lat="46.033059" lon="9.2961251"><ele>245.5</ele><time>2026-05-03T12:22:37.581Z</time></trkpt><trkpt lat="46.0329514" lon="9.2959829"><ele>241.0</ele><time>2026-05-03T12:22:38.578Z</time></trkpt><trkpt lat="46.032853" lon="9.2958263"><ele>236.5</ele><time>2026-05-03T12:22:39.58Z</time></trkpt><trkpt lat="46.0327587" lon="9.2956569"><ele>232.0</ele><time>2026-05-03T12:22:40.578Z</time></trkpt><trkpt lat="46.0326698" lon="9.2954704"><ele>232.0</ele><time>2026-05-03T12:22:41.576Z</time></trkpt><trkpt lat="46.0326076" lon="9.2952738"><ele>232.0</ele><time>2026-05-03T12:22:42.563Z</time></trkpt><trkpt lat="46.0325159" lon="9.295106"><ele>232.0</ele><time>2026-05-03T12:22:43.559Z</time></trkpt><trkpt lat="46.0324001" lon="9.2949573"><ele>232.33333333333331</ele><time>2026-05-03T12:22:44.555Z</time></trkpt><trkpt lat="46.0322858" lon="9.2947941"><ele>232.66666666666669</ele><time>2026-05-03T12:22:45.532Z</time></trkpt><trkpt lat="46.0321707" lon="9.2946434"><ele>233.0</ele><time>2026-05-03T12:22:46.565Z</time></trkpt><trkpt lat="46.0319826" lon="9.2944073"><ele>233.0</ele><time>2026-05-03T12:22:47.589Z</time></trkpt><trkpt lat="46.0318881" lon="9.2941812"><ele>233.0</ele><time>2026-05-03T12:22:48.591Z</time></trkpt><trkpt lat="46.0317891" lon="9.2939743"><ele>233.0</ele><time>2026-05-03T12:22:49.598Z</time></trkpt><trkpt lat="46.0316741" lon="9.2937705"><ele>238.66666666666669</ele><time>2026-05-03T12:22:50.592Z</time></trkpt><trkpt lat="46.0315489" lon="9.2936109"><ele>244.33333333333331</ele><time>2026-05-03T12:22:51.598Z</time></trkpt><trkpt lat="46.0314176" lon="9.2934455"><ele>250.0</ele><time>2026-05-03T12:22:52.597Z</time></trkpt><trkpt lat="46.0313017" lon="9.2932761"><ele>250.0</ele><time>2026-05-03T12:22:53.606Z</time></trkpt><trkpt lat="46.0311865" lon="9.2931163"><ele>250.0</ele><time>2026-05-03T12:22:54.597Z</time></trkpt><trkpt lat="46.031084" lon="9.2929564"><ele>250.0</ele><time>2026-05-03T12:22:55.602Z</time></trkpt><trkpt lat="46.0309727" lon="9.2927837"><ele>254.0</ele><time>2026-05-03T12:22:56.59Z</time></trkpt><trkpt lat="46.0308813" lon="9.292599"><ele>258.0</ele><time>2026-05-03T12:22:57.603Z</time></trkpt><trkpt lat="46.0307914" lon="9.2923977"><ele>262.0</ele><time>2026-05-03T12:22:58.598Z</time></trkpt><trkpt lat="46.0307107" lon="9.2922017"><ele>262.0</ele><time>2026-05-03T12:22:59.595Z</time></trkpt><trkpt lat="46.0306229" lon="9.2919964"><ele>262.0</ele><time>2026-05-03T12:23:00.59Z</time></trkpt><trkpt lat="46.0305558" lon="9.2917947"><ele>262.0</ele><time>2026-05-03T12:23:01.59Z</time></trkpt><trkpt lat="46.0305217" lon="9.2915951"><ele>254.66666666666666</ele><time>2026-05-03T12:23:02.595Z</time></trkpt><trkpt lat="46.0305055" lon="9.2913703"><ele>247.33333333333331</ele><time>2026-05-03T12:23:03.591Z</time></trkpt><trkpt lat="46.030515" lon="9.2911262"><ele>240.0</ele><time>2026-05-03T12:23:04.592Z</time></trkpt><trkpt lat="46.0305119" lon="9.2909194"><ele>240.0</ele><time>2026-05-03T12:23:05.593Z</time></trkpt><trkpt lat="46.0304723" lon="9.2906994"><ele>240.0</ele><time>2026-05-03T12:23:06.588Z</time></trkpt><trkpt lat="46.0304069" lon="9.2905096"><ele>240.0</ele><time>2026-05-03T12:23:07.596Z</time></trkpt><trkpt lat="46.0303118" lon="9.2903352"><ele>233.66666666666669</ele><time>2026-05-03T12:23:08.598Z</time></trkpt><trkpt lat="46.0301966" lon="9.2901579"><ele>227.33333333333334</ele><time>2026-05-03T12:23:09.594Z</time></trkpt><trkpt lat="46.0300768" lon="9.2899906"><ele>221.0</ele><time>2026-05-03T12:23:10.594Z</time></trkpt><trkpt lat="46.0299831" lon="9.2898188"><ele>222.0</ele><time>2026-05-03T12:23:11.602Z</time></trkpt><trkpt lat="46.0299176" lon="9.2896615"><ele>223.0</ele><time>2026-05-03T12:23:12.597Z</time></trkpt><trkpt lat="46.0298263" lon="9.2895196"><ele>224.0</ele><time>2026-05-03T12:23:13.594Z</time></trkpt><trkpt lat="46.0297039" lon="9.2893794"><ele>225.0</ele><time>2026-05-03T12:23:14.599Z</time></trkpt><trkpt lat="46.0295604" lon="9.2892729"><ele>225.0</ele><time>2026-05-03T12:23:15.596Z</time></trkpt><trkpt lat="46.0294251" lon="9.2891509"><ele>225.0</ele><time>2026-05-03T12:23:16.597Z</time></trkpt><trkpt lat="46.0293079" lon="9.2889921"><ele>225.0</ele><time>2026-05-03T12:23:17.609Z</time></trkpt><trkpt lat="46.029185" lon="9.2888447"><ele>226.33333333333331</ele><time>2026-05-03T12:23:18.6Z</time></trkpt><trkpt lat="46.0290708" lon="9.2887055"><ele>227.66666666666666</ele><time>2026-05-03T12:23:19.595Z</time></trkpt><trkpt lat="46.0289692" lon="9.2885519"><ele>229.0</ele><time>2026-05-03T12:23:20.608Z</time></trkpt><trkpt lat="46.0288444" lon="9.2883838"><ele>229.0</ele><time>2026-05-03T12:23:21.602Z</time></trkpt><trkpt lat="46.0287077" lon="9.2882411"><ele>229.0</ele><time>2026-05-03T12:23:22.605Z</time></trkpt><trkpt lat="46.0285672" lon="9.2881239"><ele>229.0</ele><time>2026-05-03T12:23:23.603Z</time></trkpt><trkpt lat="46.0284161" lon="9.2880158"><ele>233.75</ele><time>2026-05-03T12:23:24.601Z</time></trkpt><trkpt lat="46.0282803" lon="9.2879089"><ele>238.5</ele><time>2026-05-03T12:23:25.603Z</time></trkpt><trkpt lat="46.0281685" lon="9.2877812"><ele>243.25</ele><time>2026-05-03T12:23:26.605Z</time></trkpt><trkpt lat="46.0280562" lon="9.2876449"><ele>248.0</ele><time>2026-05-03T12:23:27.618Z</time></trkpt><trkpt lat="46.0279935" lon="9.2874769"><ele>248.0</ele><time>2026-05-03T12:23:28.596Z</time></trkpt><trkpt lat="46.0279337" lon="9.2873157"><ele>248.0</ele><time>2026-05-03T12:23:29.6Z</time></trkpt><trkpt lat="46.0278887" lon="9.2871256"><ele>248.0</ele><time>2026-05-03T12:23:30.604Z</time></trkpt><trkpt lat="46.0278551" lon="9.2869357"><ele>248.0</ele><time>2026-05-03T12:23:31.593Z</time></trkpt><trkpt lat="46.0277746" lon="9.2867598"><ele>249.5</ele><time>2026-05-03T12:23:32.603Z</time></trkpt><trkpt lat="46.0277202" lon="9.2865973"><ele>251.0</ele><time>2026-05-03T12:23:33.59Z</time></trkpt><trkpt lat="46.0276388" lon="9.2864244"><ele>252.5</ele><time>2026-05-03T12:23:34.589Z</time></trkpt><trkpt lat="46.0275441" lon="9.2862091"><ele>254.0</ele><time>2026-05-03T12:23:35.591Z</time></trkpt><trkpt lat="46.027408" lon="9.2860258"><ele>254.0</ele><time>2026-05-03T12:23:36.595Z</time></trkpt><trkpt lat="46.027246" lon="9.2858527"><ele>254.0</ele><time>2026-05-03T12:23:37.596Z</time></trkpt><trkpt lat="46.0270911" lon="9.285693"><ele>254.0</ele><time>2026-05-03T12:23:38.596Z</time></trkpt><trkpt lat="46.0269593" lon="9.2855279"><ele>241.33333333333334</ele><time>2026-05-03T12:23:39.595Z</time></trkpt><trkpt lat="46.0268402" lon="9.2853694"><ele>228.66666666666669</ele><time>2026-05-03T12:23:40.599Z</time></trkpt><trkpt lat="46.0267457" lon="9.2851859"><ele>216.0</ele><time>2026-05-03T12:23:41.599Z</time></trkpt><trkpt lat="46.0266719" lon="9.2849777"><ele>214.75</ele><time>2026-05-03T12:23:42.6Z</time></trkpt><trkpt lat="46.0265965" lon="9.2847789"><ele>213.5</ele><time>2026-05-03T12:23:43.598Z</time></trkpt><trkpt lat="46.0265189" lon="9.284593"><ele>212.25</ele><time>2026-05-03T12:23:44.606Z</time></trkpt><trkpt lat="46.0264609" lon="9.2844303"><ele>211.0</ele><time>2026-05-03T12:23:45.596Z</time></trkpt><trkpt lat="46.0264119" lon="9.2842649"><ele>211.0</ele><time>2026-05-03T12:23:46.605Z</time></trkpt><trkpt lat="46.0263368" lon="9.2841481"><ele>211.0</ele><time>2026-05-03T12:23:47.604Z</time></trkpt><trkpt lat="46.026254" lon="9.2840635"><ele>211.0</ele><time>2026-05-03T12:23:48.603Z</time></trkpt><trkpt lat="46.0261642" lon="9.2839916"><ele>211.0</ele><time>2026-05-03T12:23:49.603Z</time></trkpt><trkpt lat="46.02609" lon="9.2839635"><ele>211.0</ele><time>2026-05-03T12:23:50.598Z</time></trkpt><trkpt lat="46.0260109" lon="9.283988"><ele>211.0</ele><time>2026-05-03T12:23:51.596Z</time></trkpt><trkpt lat="46.0258732" lon="9.284042"><ele>211.0</ele><time>2026-05-03T12:23:53.588Z</time></trkpt><trkpt lat="46.0257889" lon="9.284074"><ele>211.0</ele><time>2026-05-03T12:23:54.588Z</time></trkpt><trkpt lat="46.0257072" lon="9.2841088"><ele>211.0</ele><time>2026-05-03T12:23:55.578Z</time></trkpt><trkpt lat="46.0256246" lon="9.2841403"><ele>211.0</ele><time>2026-05-03T12:23:56.573Z</time></trkpt><trkpt lat="46.0255433" lon="9.2841743"><ele>198.0</ele><time>2026-05-03T12:23:57.559Z</time></trkpt><trkpt lat="46.0244459" lon="9.2846341"><ele>198.0</ele><time>2026-05-03T12:24:04.592Z</time></trkpt><trkpt lat="46.0242879" lon="9.284733"><ele>198.0</ele><time>2026-05-03T12:24:05.584Z</time></trkpt><trkpt lat="46.0241509" lon="9.2847964"><ele>198.0</ele><time>2026-05-03T12:24:06.587Z</time></trkpt><trkpt lat="46.0240039" lon="9.2849001"><ele>199.0</ele><time>2026-05-03T12:24:07.587Z</time></trkpt><trkpt lat="46.0238945" lon="9.2850294"><ele>200.0</ele><time>2026-05-03T12:24:08.582Z</time></trkpt><trkpt lat="46.0237734" lon="9.2851667"><ele>201.0</ele><time>2026-05-03T12:24:09.59Z</time></trkpt><trkpt lat="46.0236847" lon="9.2852802"><ele>202.0</ele><time>2026-05-03T12:24:10.581Z</time></trkpt><trkpt lat="46.023554" lon="9.285413"><ele>202.0</ele><time>2026-05-03T12:24:11.578Z</time></trkpt><trkpt lat="46.0234165" lon="9.2855552"><ele>202.0</ele><time>2026-05-03T12:24:12.57Z</time></trkpt><trkpt lat="46.0232972" lon="9.2856932"><ele>202.0</ele><time>2026-05-03T12:24:13.575Z</time></trkpt><trkpt lat="46.0231675" lon="9.2858374"><ele>201.5</ele><time>2026-05-03T12:24:14.568Z</time></trkpt><trkpt lat="46.0230427" lon="9.2859667"><ele>201.0</ele><time>2026-05-03T12:24:15.55Z</time></trkpt><trkpt lat="46.0187021" lon="9.2868348"><ele>201.0</ele><time>2026-05-03T12:24:45.616Z</time></trkpt><trkpt lat="46.0185941" lon="9.2868421"><ele>201.0</ele><time>2026-05-03T12:24:46.606Z</time></trkpt><trkpt lat="46.0185071" lon="9.2868772"><ele>201.0</ele><time>2026-05-03T12:24:47.61Z</time></trkpt><trkpt lat="46.0184188" lon="9.286911"><ele>201.0</ele><time>2026-05-03T12:24:48.59Z</time></trkpt><trkpt lat="46.01835" lon="9.2869534"><ele>201.0</ele><time>2026-05-03T12:24:49.589Z</time></trkpt><trkpt lat="46.0182503" lon="9.2870364"><ele>201.4</ele><time>2026-05-03T12:24:51.592Z</time></trkpt><trkpt lat="46.0181591" lon="9.2870819"><ele>201.8</ele><time>2026-05-03T12:24:53.601Z</time></trkpt><trkpt lat="46.0180475" lon="9.2871017"><ele>202.20000000000002</ele><time>2026-05-03T12:24:55.59Z</time></trkpt><trkpt lat="46.0179784" lon="9.2872293"><ele>202.60000000000002</ele><time>2026-05-03T12:24:57.593Z</time></trkpt><trkpt lat="46.0179421" lon="9.2873048"><ele>203.0</ele><time>2026-05-03T12:24:58.597Z</time></trkpt><trkpt lat="46.0178937" lon="9.2873661"><ele>208.66666666666669</ele><time>2026-05-03T12:24:59.587Z</time></trkpt><trkpt lat="46.0178345" lon="9.2874163"><ele>214.33333333333334</ele><time>2026-05-03T12:25:00.585Z</time></trkpt><trkpt lat="46.0177648" lon="9.2874857"><ele>220.0</ele><time>2026-05-03T12:25:01.578Z</time></trkpt><trkpt lat="46.0176958" lon="9.2875554"><ele>225.66666666666669</ele><time>2026-05-03T12:25:02.576Z</time></trkpt><trkpt lat="46.0176278" lon="9.2876238"><ele>231.33333333333334</ele><time>2026-05-03T12:25:03.568Z</time></trkpt><trkpt lat="46.0175583" lon="9.2876915"><ele>237.0</ele><time>2026-05-03T12:25:04.566Z</time></trkpt><trkpt lat="46.0140422" lon="9.2881667"><ele>265.0</ele><time>2026-05-03T12:25:26.587Z</time></trkpt><trkpt lat="46.013493" lon="9.2881717"><ele>267.0</ele><time>2026-05-03T12:25:27.586Z</time></trkpt><trkpt lat="46.0135527" lon="9.2880707"><ele>269.0</ele><time>2026-05-03T12:25:29.566Z</time></trkpt><trkpt lat="46.0052507" lon="9.2910669"><ele>252.0</ele><time>2026-05-03T12:26:12.591Z</time></trkpt><trkpt lat="46.0050678" lon="9.2911225"><ele>235.0</ele><time>2026-05-03T12:26:13.587Z</time></trkpt><trkpt lat="46.0049313" lon="9.2912539"><ele>218.0</ele><time>2026-05-03T12:26:14.619Z</time></trkpt><trkpt lat="46.004816" lon="9.2913564"><ele>220.25</ele><time>2026-05-03T12:26:15.591Z</time></trkpt><trkpt lat="46.0046531" lon="9.2913969"><ele>222.5</ele><time>2026-05-03T12:26:16.601Z</time></trkpt><trkpt lat="46.0045045" lon="9.2914463"><ele>224.75</ele><time>2026-05-03T12:26:17.594Z</time></trkpt><trkpt lat="46.0043747" lon="9.2914453"><ele>227.0</ele><time>2026-05-03T12:26:18.594Z</time></trkpt><trkpt lat="46.0042156" lon="9.2914793"><ele>222.0</ele><time>2026-05-03T12:26:19.594Z</time></trkpt><trkpt lat="46.004051" lon="9.2915395"><ele>217.0</ele><time>2026-05-03T12:26:20.598Z</time></trkpt><trkpt lat="46.0038678" lon="9.2915742"><ele>212.0</ele><time>2026-05-03T12:26:21.592Z</time></trkpt><trkpt lat="46.0037017" lon="9.291665"><ele>212.0</ele><time>2026-05-03T12:26:22.596Z</time></trkpt><trkpt lat="46.0035212" lon="9.2917238"><ele>212.0</ele><time>2026-05-03T12:26:23.603Z</time></trkpt><trkpt lat="46.0033394" lon="9.2917902"><ele>212.0</ele><time>2026-05-03T12:26:24.601Z</time></trkpt><trkpt lat="46.0031846" lon="9.2918573"><ele>210.0</ele><time>2026-05-03T12:26:25.604Z</time></trkpt><trkpt lat="46.0030403" lon="9.2919388"><ele>208.0</ele><time>2026-05-03T12:26:26.624Z</time></trkpt><trkpt lat="46.0028685" lon="9.2920122"><ele>206.0</ele><time>2026-05-03T12:26:27.605Z</time></trkpt><trkpt lat="46.0026936" lon="9.292056"><ele>206.0</ele><time>2026-05-03T12:26:28.6Z</time></trkpt><trkpt lat="46.0025391" lon="9.2920796"><ele>206.0</ele><time>2026-05-03T12:26:29.612Z</time></trkpt><trkpt lat="46.00237" lon="9.2920816"><ele>206.0</ele><time>2026-05-03T12:26:30.602Z</time></trkpt><trkpt lat="46.0022062" lon="9.2920534"><ele>206.33333333333334</ele><time>2026-05-03T12:26:31.606Z</time></trkpt><trkpt lat="46.0020294" lon="9.2920188"><ele>206.66666666666669</ele><time>2026-05-03T12:26:32.601Z</time></trkpt><trkpt lat="46.0018427" lon="9.2919544"><ele>207.0</ele><time>2026-05-03T12:26:33.612Z</time></trkpt><trkpt lat="46.0017053" lon="9.2919374"><ele>206.0</ele><time>2026-05-03T12:26:34.605Z</time></trkpt><trkpt lat="46.0015755" lon="9.2919337"><ele>205.0</ele><time>2026-05-03T12:26:35.606Z</time></trkpt><trkpt lat="46.0014353" lon="9.2918993"><ele>204.0</ele><time>2026-05-03T12:26:36.606Z</time></trkpt><trkpt lat="46.0013097" lon="9.2918286"><ele>203.0</ele><time>2026-05-03T12:26:37.607Z</time></trkpt><trkpt lat="46.0011875" lon="9.2917517"><ele>203.0</ele><time>2026-05-03T12:26:38.605Z</time></trkpt><trkpt lat="46.0010759" lon="9.291684"><ele>203.0</ele><time>2026-05-03T12:26:39.599Z</time></trkpt><trkpt lat="46.0009564" lon="9.2916236"><ele>203.0</ele><time>2026-05-03T12:26:40.605Z</time></trkpt><trkpt lat="46.0008376" lon="9.2915934"><ele>203.0</ele><time>2026-05-03T12:26:41.601Z</time></trkpt><trkpt lat="46.0007082" lon="9.2915861"><ele>202.75</ele><time>2026-05-03T12:26:42.62Z</time></trkpt><trkpt lat="46.000576" lon="9.2915937"><ele>202.5</ele><time>2026-05-03T12:26:43.626Z</time></trkpt><trkpt lat="46.0004435" lon="9.2916185"><ele>202.25</ele><time>2026-05-03T12:26:44.606Z</time></trkpt><trkpt lat="46.0003303" lon="9.2916544"><ele>202.0</ele><time>2026-05-03T12:26:45.596Z</time></trkpt><trkpt lat="46.0002165" lon="9.2917006"><ele>202.0</ele><time>2026-05-03T12:26:46.622Z</time></trkpt><trkpt lat="46.0000989" lon="9.2917442"><ele>202.0</ele><time>2026-05-03T12:26:47.602Z</time></trkpt><trkpt lat="45.9999772" lon="9.2917947"><ele>202.0</ele><time>2026-05-03T12:26:48.594Z</time></trkpt><trkpt lat="45.9998509" lon="9.2918406"><ele>202.0</ele><time>2026-05-03T12:26:49.595Z</time></trkpt><trkpt lat="45.999729" lon="9.2918863"><ele>202.0</ele><time>2026-05-03T12:26:50.6Z</time></trkpt><trkpt lat="45.9996058" lon="9.2919265"><ele>202.0</ele><time>2026-05-03T12:26:51.596Z</time></trkpt><trkpt lat="45.9994832" lon="9.2919571"><ele>202.0</ele><time>2026-05-03T12:26:52.602Z</time></trkpt><trkpt lat="45.9993625" lon="9.291995"><ele>202.0</ele><time>2026-05-03T12:26:53.603Z</time></trkpt><trkpt lat="45.9992357" lon="9.2920318"><ele>201.33333333333331</ele><time>2026-05-03T12:26:54.603Z</time></trkpt><trkpt lat="45.9990985" lon="9.2920626"><ele>200.66666666666669</ele><time>2026-05-03T12:26:55.599Z</time></trkpt><trkpt lat="45.9989418" lon="9.2920866"><ele>200.0</ele><time>2026-05-03T12:26:56.603Z</time></trkpt><trkpt lat="45.9987747" lon="9.2921392"><ele>200.0</ele><time>2026-05-03T12:26:57.598Z</time></trkpt><trkpt lat="45.9986324" lon="9.2921823"><ele>200.0</ele><time>2026-05-03T12:26:58.602Z</time></trkpt><trkpt lat="45.998509" lon="9.2922382"><ele>200.0</ele><time>2026-05-03T12:26:59.609Z</time></trkpt><trkpt lat="45.9983916" lon="9.2922849"><ele>200.0</ele><time>2026-05-03T12:27:00.599Z</time></trkpt><trkpt lat="45.9982676" lon="9.2923346"><ele>204.75</ele><time>2026-05-03T12:27:01.599Z</time></trkpt><trkpt lat="45.9981564" lon="9.2923523"><ele>209.5</ele><time>2026-05-03T12:27:02.594Z</time></trkpt><trkpt lat="45.9980415" lon="9.2923383"><ele>214.25</ele><time>2026-05-03T12:27:03.597Z</time></trkpt><trkpt lat="45.9979316" lon="9.2923229"><ele>219.0</ele><time>2026-05-03T12:27:04.603Z</time></trkpt><trkpt lat="45.9978049" lon="9.2923081"><ele>219.0</ele><time>2026-05-03T12:27:05.59Z</time></trkpt><trkpt lat="45.9976746" lon="9.2922811"><ele>219.0</ele><time>2026-05-03T12:27:06.6Z</time></trkpt><trkpt lat="45.9975624" lon="9.2922339"><ele>219.0</ele><time>2026-05-03T12:27:07.598Z</time></trkpt><trkpt lat="45.9974432" lon="9.2921531"><ele>219.0</ele><time>2026-05-03T12:27:08.596Z</time></trkpt><trkpt lat="45.9973139" lon="9.2920536"><ele>213.66666666666669</ele><time>2026-05-03T12:27:09.601Z</time></trkpt><trkpt lat="45.9971734" lon="9.2919513"><ele>208.33333333333334</ele><time>2026-05-03T12:27:10.595Z</time></trkpt><trkpt lat="45.9970174" lon="9.2918524"><ele>203.0</ele><time>2026-05-03T12:27:11.596Z</time></trkpt><trkpt lat="45.9968837" lon="9.2917799"><ele>203.0</ele><time>2026-05-03T12:27:12.606Z</time></trkpt><trkpt lat="45.9967573" lon="9.2917002"><ele>203.0</ele><time>2026-05-03T12:27:13.593Z</time></trkpt><trkpt lat="45.996624" lon="9.2916309"><ele>203.0</ele><time>2026-05-03T12:27:14.603Z</time></trkpt><trkpt lat="45.9965014" lon="9.291582"><ele>203.0</ele><time>2026-05-03T12:27:15.6Z</time></trkpt><trkpt lat="45.9963631" lon="9.2915518"><ele>202.75</ele><time>2026-05-03T12:27:16.601Z</time></trkpt><trkpt lat="45.9962226" lon="9.2915346"><ele>202.5</ele><time>2026-05-03T12:27:17.611Z</time></trkpt><trkpt lat="45.9960977" lon="9.291525"><ele>202.25</ele><time>2026-05-03T12:27:18.607Z</time></trkpt><trkpt lat="45.9959721" lon="9.2915152"><ele>202.0</ele><time>2026-05-03T12:27:19.602Z</time></trkpt><trkpt lat="45.995846" lon="9.2914971"><ele>201.0</ele><time>2026-05-03T12:27:20.614Z</time></trkpt><trkpt lat="45.995726" lon="9.291462"><ele>200.0</ele><time>2026-05-03T12:27:21.607Z</time></trkpt><trkpt lat="45.9955976" lon="9.2914281"><ele>199.0</ele><time>2026-05-03T12:27:22.601Z</time></trkpt><trkpt lat="45.9954749" lon="9.2913863"><ele>198.0</ele><time>2026-05-03T12:27:23.61Z</time></trkpt><trkpt lat="45.9953512" lon="9.291345"><ele>198.0</ele><time>2026-05-03T12:27:24.596Z</time></trkpt><trkpt lat="45.9952326" lon="9.2913105"><ele>198.0</ele><time>2026-05-03T12:27:25.607Z</time></trkpt><trkpt lat="45.9951203" lon="9.2912777"><ele>198.0</ele><time>2026-05-03T12:27:26.611Z</time></trkpt><trkpt lat="45.9950057" lon="9.2912402"><ele>198.0</ele><time>2026-05-03T12:27:27.603Z</time></trkpt><trkpt lat="45.9948892" lon="9.2912137"><ele>198.25</ele><time>2026-05-03T12:27:28.605Z</time></trkpt><trkpt lat="45.9947746" lon="9.2911903"><ele>198.5</ele><time>2026-05-03T12:27:29.607Z</time></trkpt><trkpt lat="45.9946566" lon="9.2911595"><ele>198.75</ele><time>2026-05-03T12:27:30.61Z</time></trkpt><trkpt lat="45.994527" lon="9.2911209"><ele>199.0</ele><time>2026-05-03T12:27:31.605Z</time></trkpt><trkpt lat="45.9943855" lon="9.29108"><ele>199.0</ele><time>2026-05-03T12:27:32.611Z</time></trkpt><trkpt lat="45.9942308" lon="9.2910642"><ele>199.0</ele><time>2026-05-03T12:27:33.624Z</time></trkpt><trkpt lat="45.9940842" lon="9.2910915"><ele>199.0</ele><time>2026-05-03T12:27:34.6Z</time></trkpt><trkpt lat="45.9939289" lon="9.2911281"><ele>199.66666666666666</ele><time>2026-05-03T12:27:35.631Z</time></trkpt><trkpt lat="45.9937608" lon="9.2911924"><ele>200.33333333333331</ele><time>2026-05-03T12:27:36.62Z</time></trkpt><trkpt lat="45.9935717" lon="9.2912369"><ele>201.0</ele><time>2026-05-03T12:27:37.595Z</time></trkpt><trkpt lat="45.9933725" lon="9.291275"><ele>201.33333333333331</ele><time>2026-05-03T12:27:38.597Z</time></trkpt><trkpt lat="45.9931725" lon="9.2913271"><ele>201.66666666666666</ele><time>2026-05-03T12:27:39.599Z</time></trkpt><trkpt lat="45.992956" lon="9.2913643"><ele>202.0</ele><time>2026-05-03T12:27:40.595Z</time></trkpt><trkpt lat="45.9927581" lon="9.2914245"><ele>206.33333333333331</ele><time>2026-05-03T12:27:41.593Z</time></trkpt><trkpt lat="45.9925787" lon="9.2914854"><ele>210.66666666666669</ele><time>2026-05-03T12:27:42.592Z</time></trkpt><trkpt lat="45.9923951" lon="9.2915296"><ele>215.0</ele><time>2026-05-03T12:27:43.596Z</time></trkpt><trkpt lat="45.9922189" lon="9.2916012"><ele>215.0</ele><time>2026-05-03T12:27:44.597Z</time></trkpt><trkpt lat="45.9920491" lon="9.2916634"><ele>215.0</ele><time>2026-05-03T12:27:45.595Z</time></trkpt><trkpt lat="45.9918749" lon="9.2917546"><ele>215.0</ele><time>2026-05-03T12:27:46.591Z</time></trkpt><trkpt lat="45.9916987" lon="9.2917967"><ele>211.66666666666669</ele><time>2026-05-03T12:27:47.613Z</time></trkpt><trkpt lat="45.9915229" lon="9.2918456"><ele>208.33333333333331</ele><time>2026-05-03T12:27:48.62Z</time></trkpt><trkpt lat="45.9913451" lon="9.2918916"><ele>205.0</ele><time>2026-05-03T12:27:49.623Z</time></trkpt><trkpt lat="45.9911575" lon="9.2919255"><ele>205.0</ele><time>2026-05-03T12:27:50.594Z</time></trkpt><trkpt lat="45.9909709" lon="9.2919732"><ele>205.0</ele><time>2026-05-03T12:27:51.607Z</time></trkpt><trkpt lat="45.9907865" lon="9.2920296"><ele>205.0</ele><time>2026-05-03T12:27:52.597Z</time></trkpt><trkpt lat="45.9905864" lon="9.2920685"><ele>203.66666666666666</ele><time>2026-05-03T12:27:53.614Z</time></trkpt><trkpt lat="45.9903872" lon="9.292112"><ele>202.33333333333331</ele><time>2026-05-03T12:27:54.601Z</time></trkpt><trkpt lat="45.9902186" lon="9.2921545"><ele>201.0</ele><time>2026-05-03T12:27:55.607Z</time></trkpt><trkpt lat="45.9900505" lon="9.2921708"><ele>200.33333333333331</ele><time>2026-05-03T12:27:56.631Z</time></trkpt><trkpt lat="45.9898775" lon="9.2921657"><ele>199.66666666666666</ele><time>2026-05-03T12:27:57.609Z</time></trkpt><trkpt lat="45.9896979" lon="9.2921618"><ele>199.0</ele><time>2026-05-03T12:27:58.601Z</time></trkpt><trkpt lat="45.9895092" lon="9.2921389"><ele>199.0</ele><time>2026-05-03T12:27:59.604Z</time></trkpt><trkpt lat="45.989329" lon="9.2921186"><ele>199.0</ele><time>2026-05-03T12:28:00.607Z</time></trkpt><trkpt lat="45.9891403" lon="9.292095"><ele>199.0</ele><time>2026-05-03T12:28:01.602Z</time></trkpt><trkpt lat="45.9889704" lon="9.2920838"><ele>198.66666666666666</ele><time>2026-05-03T12:28:02.616Z</time></trkpt><trkpt lat="45.9887998" lon="9.292082"><ele>198.33333333333331</ele><time>2026-05-03T12:28:03.609Z</time></trkpt><trkpt lat="45.9886196" lon="9.2921058"><ele>198.0</ele><time>2026-05-03T12:28:04.605Z</time></trkpt><trkpt lat="45.9884405" lon="9.2921246"><ele>198.0</ele><time>2026-05-03T12:28:05.606Z</time></trkpt><trkpt lat="45.9882555" lon="9.2921436"><ele>198.0</ele><time>2026-05-03T12:28:06.604Z</time></trkpt><trkpt lat="45.9880823" lon="9.2921726"><ele>198.0</ele><time>2026-05-03T12:28:07.608Z</time></trkpt><trkpt lat="45.9879071" lon="9.2921911"><ele>198.0</ele><time>2026-05-03T12:28:08.606Z</time></trkpt><trkpt lat="45.9877269" lon="9.2922044"><ele>198.0</ele><time>2026-05-03T12:28:09.613Z</time></trkpt><trkpt lat="45.9875585" lon="9.2922229"><ele>198.0</ele><time>2026-05-03T12:28:10.604Z</time></trkpt><trkpt lat="45.9873899" lon="9.2922469"><ele>204.75</ele><time>2026-05-03T12:28:11.613Z</time></trkpt><trkpt lat="45.9872449" lon="9.2922573"><ele>211.5</ele><time>2026-05-03T12:28:12.62Z</time></trkpt><trkpt lat="45.9870994" lon="9.2922634"><ele>218.25</ele><time>2026-05-03T12:28:13.603Z</time></trkpt><trkpt lat="45.9869677" lon="9.2922943"><ele>225.0</ele><time>2026-05-03T12:28:14.604Z</time></trkpt><trkpt lat="45.9868404" lon="9.2923553"><ele>225.0</ele><time>2026-05-03T12:28:15.605Z</time></trkpt><trkpt lat="45.986701" lon="9.2924327"><ele>225.0</ele><time>2026-05-03T12:28:16.59Z</time></trkpt><trkpt lat="45.9865576" lon="9.2925538"><ele>225.0</ele><time>2026-05-03T12:28:17.599Z</time></trkpt><trkpt lat="45.9864224" lon="9.292697"><ele>221.66666666666669</ele><time>2026-05-03T12:28:18.594Z</time></trkpt><trkpt lat="45.9862894" lon="9.2928595"><ele>218.33333333333334</ele><time>2026-05-03T12:28:19.596Z</time></trkpt><trkpt lat="45.9861419" lon="9.2929977"><ele>215.0</ele><time>2026-05-03T12:28:20.593Z</time></trkpt><trkpt lat="45.9859932" lon="9.2930984"><ele>214.33333333333334</ele><time>2026-05-03T12:28:21.597Z</time></trkpt><trkpt lat="45.9858413" lon="9.2931922"><ele>213.66666666666669</ele><time>2026-05-03T12:28:22.591Z</time></trkpt><trkpt lat="45.9857131" lon="9.2932939"><ele>213.0</ele><time>2026-05-03T12:28:23.599Z</time></trkpt><trkpt lat="45.9855767" lon="9.2934219"><ele>213.0</ele><time>2026-05-03T12:28:24.591Z</time></trkpt><trkpt lat="45.9854435" lon="9.2935926"><ele>213.0</ele><time>2026-05-03T12:28:25.588Z</time></trkpt><trkpt lat="45.9853305" lon="9.2937911"><ele>213.0</ele><time>2026-05-03T12:28:26.594Z</time></trkpt><trkpt lat="45.9852181" lon="9.2939652"><ele>214.0</ele><time>2026-05-03T12:28:27.591Z</time></trkpt><trkpt lat="45.9851057" lon="9.2941362"><ele>215.0</ele><time>2026-05-03T12:28:28.592Z</time></trkpt><trkpt lat="45.9849964" lon="9.2942936"><ele>216.0</ele><time>2026-05-03T12:28:29.587Z</time></trkpt><trkpt lat="45.9848727" lon="9.294442"><ele>216.0</ele><time>2026-05-03T12:28:30.585Z</time></trkpt><trkpt lat="45.9847124" lon="9.2945507"><ele>216.0</ele><time>2026-05-03T12:28:31.589Z</time></trkpt><trkpt lat="45.9845345" lon="9.2946191"><ele>216.0</ele><time>2026-05-03T12:28:32.576Z</time></trkpt><trkpt lat="45.9843218" lon="9.2946631"><ele>218.33333333333331</ele><time>2026-05-03T12:28:33.59Z</time></trkpt><trkpt lat="45.9841904" lon="9.2948131"><ele>220.66666666666666</ele><time>2026-05-03T12:28:34.604Z</time></trkpt><trkpt lat="45.9840243" lon="9.2948994"><ele>223.0</ele><time>2026-05-03T12:28:35.596Z</time></trkpt><trkpt lat="45.9838447" lon="9.2949325"><ele>223.0</ele><time>2026-05-03T12:28:36.614Z</time></trkpt><trkpt lat="45.983701" lon="9.2949689"><ele>223.0</ele><time>2026-05-03T12:28:37.597Z</time></trkpt><trkpt lat="45.9835753" lon="9.2950066"><ele>223.0</ele><time>2026-05-03T12:28:38.593Z</time></trkpt><trkpt lat="45.9834485" lon="9.2950519"><ele>223.0</ele><time>2026-05-03T12:28:39.597Z</time></trkpt><trkpt lat="45.9833236" lon="9.2951299"><ele>219.66666666666666</ele><time>2026-05-03T12:28:40.587Z</time></trkpt><trkpt lat="45.9831894" lon="9.2952355"><ele>216.33333333333331</ele><time>2026-05-03T12:28:41.593Z</time></trkpt><trkpt lat="45.9830667" lon="9.2953784"><ele>213.0</ele><time>2026-05-03T12:28:42.583Z</time></trkpt><trkpt lat="45.9829496" lon="9.2955409"><ele>225.33333333333331</ele><time>2026-05-03T12:28:43.61Z</time></trkpt><trkpt lat="45.9828223" lon="9.2956831"><ele>237.66666666666666</ele><time>2026-05-03T12:28:44.59Z</time></trkpt><trkpt lat="45.9827063" lon="9.2958387"><ele>250.0</ele><time>2026-05-03T12:28:45.586Z</time></trkpt><trkpt lat="45.982572" lon="9.2959641"><ele>238.33333333333331</ele><time>2026-05-03T12:28:46.593Z</time></trkpt><trkpt lat="45.9824469" lon="9.2960766"><ele>226.66666666666669</ele><time>2026-05-03T12:28:47.593Z</time></trkpt><trkpt lat="45.9823156" lon="9.2961859"><ele>215.0</ele><time>2026-05-03T12:28:48.588Z</time></trkpt><trkpt lat="45.9821768" lon="9.296283"><ele>215.0</ele><time>2026-05-03T12:28:49.589Z</time></trkpt><trkpt lat="45.9820068" lon="9.2963667"><ele>215.0</ele><time>2026-05-03T12:28:50.597Z</time></trkpt><trkpt lat="45.9818399" lon="9.2964615"><ele>215.0</ele><time>2026-05-03T12:28:51.595Z</time></trkpt><trkpt lat="45.9816726" lon="9.296566"><ele>214.33333333333334</ele><time>2026-05-03T12:28:52.597Z</time></trkpt><trkpt lat="45.9815291" lon="9.2966897"><ele>213.66666666666669</ele><time>2026-05-03T12:28:53.597Z</time></trkpt><trkpt lat="45.9813769" lon="9.2968063"><ele>213.0</ele><time>2026-05-03T12:28:54.597Z</time></trkpt><trkpt lat="45.9812273" lon="9.296907"><ele>213.0</ele><time>2026-05-03T12:28:55.599Z</time></trkpt><trkpt lat="45.9810837" lon="9.2970153"><ele>213.0</ele><time>2026-05-03T12:28:56.599Z</time></trkpt><trkpt lat="45.9809295" lon="9.2971121"><ele>213.0</ele><time>2026-05-03T12:28:57.6Z</time></trkpt><trkpt lat="45.9807784" lon="9.2972002"><ele>218.0</ele><time>2026-05-03T12:28:58.599Z</time></trkpt><trkpt lat="45.9806401" lon="9.2972789"><ele>223.0</ele><time>2026-05-03T12:28:59.601Z</time></trkpt><trkpt lat="45.9804946" lon="9.2973298"><ele>228.0</ele><time>2026-05-03T12:29:00.594Z</time></trkpt><trkpt lat="45.9802993" lon="9.2973091"><ele>228.0</ele><time>2026-05-03T12:29:01.605Z</time></trkpt><trkpt lat="45.9801101" lon="9.2972858"><ele>228.0</ele><time>2026-05-03T12:29:02.607Z</time></trkpt><trkpt lat="45.9799178" lon="9.2972591"><ele>228.0</ele><time>2026-05-03T12:29:03.601Z</time></trkpt><trkpt lat="45.979717" lon="9.2972539"><ele>227.0</ele><time>2026-05-03T12:29:04.598Z</time></trkpt><trkpt lat="45.9795091" lon="9.2972607"><ele>226.0</ele><time>2026-05-03T12:29:05.593Z</time></trkpt><trkpt lat="45.9793079" lon="9.2972506"><ele>225.0</ele><time>2026-05-03T12:29:06.599Z</time></trkpt><trkpt lat="45.9791195" lon="9.2972496"><ele>225.0</ele><time>2026-05-03T12:29:07.591Z</time></trkpt><trkpt lat="45.9789319" lon="9.2972518"><ele>225.0</ele><time>2026-05-03T12:29:08.601Z</time></trkpt><trkpt lat="45.9787656" lon="9.2972648"><ele>225.0</ele><time>2026-05-03T12:29:09.597Z</time></trkpt><trkpt lat="45.9786157" lon="9.297262"><ele>219.66666666666669</ele><time>2026-05-03T12:29:10.587Z</time></trkpt><trkpt lat="45.9784824" lon="9.2972414"><ele>214.33333333333334</ele><time>2026-05-03T12:29:11.591Z</time></trkpt><trkpt lat="45.9783339" lon="9.2971718"><ele>209.0</ele><time>2026-05-03T12:29:12.587Z</time></trkpt><trkpt lat="45.9781676" lon="9.2970399"><ele>209.0</ele><time>2026-05-03T12:29:13.586Z</time></trkpt><trkpt lat="45.9780447" lon="9.2968945"><ele>209.0</ele><time>2026-05-03T12:29:14.587Z</time></trkpt><trkpt lat="45.9779752" lon="9.2967965"><ele>209.0</ele><time>2026-05-03T12:29:15.596Z</time></trkpt><trkpt lat="45.9779109" lon="9.2966715"><ele>209.0</ele><time>2026-05-03T12:29:16.598Z</time></trkpt><trkpt lat="45.9778031" lon="9.2965234"><ele>210.66666666666669</ele><time>2026-05-03T12:29:17.595Z</time></trkpt><trkpt lat="45.9776686" lon="9.2963988"><ele>212.33333333333331</ele><time>2026-05-03T12:29:18.598Z</time></trkpt><trkpt lat="45.9775279" lon="9.2962931"><ele>214.0</ele><time>2026-05-03T12:29:19.593Z</time></trkpt><trkpt lat="45.9774136" lon="9.2961823"><ele>214.0</ele><time>2026-05-03T12:29:20.593Z</time></trkpt><trkpt lat="45.9772848" lon="9.2961012"><ele>214.0</ele><time>2026-05-03T12:29:21.598Z</time></trkpt><trkpt lat="45.9771506" lon="9.296036"><ele>214.0</ele><time>2026-05-03T12:29:22.596Z</time></trkpt><trkpt lat="45.9769951" lon="9.2960269"><ele>214.0</ele><time>2026-05-03T12:29:23.608Z</time></trkpt><trkpt lat="45.9768552" lon="9.2960725"><ele>214.0</ele><time>2026-05-03T12:29:24.597Z</time></trkpt><trkpt lat="45.9767056" lon="9.2961463"><ele>214.0</ele><time>2026-05-03T12:29:25.618Z</time></trkpt><trkpt lat="45.9765669" lon="9.2962404"><ele>214.0</ele><time>2026-05-03T12:29:26.592Z</time></trkpt><trkpt lat="45.9764079" lon="9.2963754"><ele>221.0</ele><time>2026-05-03T12:29:27.586Z</time></trkpt><trkpt lat="45.9762469" lon="9.2965402"><ele>228.0</ele><time>2026-05-03T12:29:28.595Z</time></trkpt><trkpt lat="45.9760766" lon="9.2966766"><ele>235.0</ele><time>2026-05-03T12:29:29.595Z</time></trkpt><trkpt lat="45.9758886" lon="9.2968374"><ele>227.0</ele><time>2026-05-03T12:29:30.588Z</time></trkpt><trkpt lat="45.9757211" lon="9.2969509"><ele>219.0</ele><time>2026-05-03T12:29:31.595Z</time></trkpt><trkpt lat="45.9755518" lon="9.2970647"><ele>211.0</ele><time>2026-05-03T12:29:32.589Z</time></trkpt><trkpt lat="45.9753705" lon="9.2971284"><ele>211.0</ele><time>2026-05-03T12:29:33.59Z</time></trkpt><trkpt lat="45.9752072" lon="9.2971829"><ele>211.0</ele><time>2026-05-03T12:29:34.587Z</time></trkpt><trkpt lat="45.975061" lon="9.2972682"><ele>211.0</ele><time>2026-05-03T12:29:35.59Z</time></trkpt><trkpt lat="45.9749229" lon="9.2974007"><ele>212.33333333333331</ele><time>2026-05-03T12:29:36.587Z</time></trkpt><trkpt lat="45.974812" lon="9.2976047"><ele>213.66666666666669</ele><time>2026-05-03T12:29:37.593Z</time></trkpt><trkpt lat="45.9747259" lon="9.2978275"><ele>215.0</ele><time>2026-05-03T12:29:38.596Z</time></trkpt><trkpt lat="45.9746289" lon="9.298054"><ele>221.0</ele><time>2026-05-03T12:29:39.584Z</time></trkpt><trkpt lat="45.9745375" lon="9.2982586"><ele>227.0</ele><time>2026-05-03T12:29:40.598Z</time></trkpt><trkpt lat="45.9744221" lon="9.2984191"><ele>233.0</ele><time>2026-05-03T12:29:41.59Z</time></trkpt><trkpt lat="45.9742607" lon="9.2984938"><ele>224.66666666666669</ele><time>2026-05-03T12:29:42.581Z</time></trkpt><trkpt lat="45.9740641" lon="9.29856"><ele>216.33333333333331</ele><time>2026-05-03T12:29:43.592Z</time></trkpt><trkpt lat="45.9738809" lon="9.2986169"><ele>208.0</ele><time>2026-05-03T12:29:44.594Z</time></trkpt><trkpt lat="45.9737004" lon="9.298692"><ele>208.0</ele><time>2026-05-03T12:29:45.588Z</time></trkpt><trkpt lat="45.9735261" lon="9.2987855"><ele>208.0</ele><time>2026-05-03T12:29:46.59Z</time></trkpt><trkpt lat="45.9733476" lon="9.2988654"><ele>208.0</ele><time>2026-05-03T12:29:47.591Z</time></trkpt><trkpt lat="45.9731585" lon="9.2989332"><ele>211.0</ele><time>2026-05-03T12:29:48.591Z</time></trkpt><trkpt lat="45.9729689" lon="9.2990268"><ele>214.0</ele><time>2026-05-03T12:29:49.594Z</time></trkpt><trkpt lat="45.9727869" lon="9.2991503"><ele>217.0</ele><time>2026-05-03T12:29:50.596Z</time></trkpt><trkpt lat="45.9726013" lon="9.2992846"><ele>212.33333333333331</ele><time>2026-05-03T12:29:51.61Z</time></trkpt><trkpt lat="45.9724199" lon="9.299402"><ele>207.66666666666669</ele><time>2026-05-03T12:29:52.599Z</time></trkpt><trkpt lat="45.9722488" lon="9.2995346"><ele>203.0</ele><time>2026-05-03T12:29:53.622Z</time></trkpt><trkpt lat="45.9720814" lon="9.2996371"><ele>204.66666666666669</ele><time>2026-05-03T12:29:54.592Z</time></trkpt><trkpt lat="45.9719214" lon="9.299767"><ele>206.33333333333331</ele><time>2026-05-03T12:29:55.591Z</time></trkpt><trkpt lat="45.9717488" lon="9.2998919"><ele>208.0</ele><time>2026-05-03T12:29:56.596Z</time></trkpt><trkpt lat="45.9715529" lon="9.2999978"><ele>208.0</ele><time>2026-05-03T12:29:57.589Z</time></trkpt><trkpt lat="45.9713973" lon="9.3001378"><ele>208.0</ele><time>2026-05-03T12:29:58.607Z</time></trkpt><trkpt lat="45.9712538" lon="9.300273"><ele>208.0</ele><time>2026-05-03T12:29:59.597Z</time></trkpt><trkpt lat="45.9711116" lon="9.3004008"><ele>208.0</ele><time>2026-05-03T12:30:00.615Z</time></trkpt><trkpt lat="45.9709633" lon="9.3005049"><ele>208.0</ele><time>2026-05-03T12:30:01.59Z</time></trkpt><trkpt lat="45.9708172" lon="9.3006018"><ele>208.0</ele><time>2026-05-03T12:30:02.587Z</time></trkpt><trkpt lat="45.970682" lon="9.3007133"><ele>209.66666666666666</ele><time>2026-05-03T12:30:03.587Z</time></trkpt><trkpt lat="45.9705429" lon="9.3008113"><ele>211.33333333333331</ele><time>2026-05-03T12:30:04.593Z</time></trkpt><trkpt lat="45.9703848" lon="9.300851"><ele>213.0</ele><time>2026-05-03T12:30:05.59Z</time></trkpt><trkpt lat="45.9702443" lon="9.3009015"><ele>213.0</ele><time>2026-05-03T12:30:06.59Z</time></trkpt><trkpt lat="45.9701186" lon="9.3009569"><ele>213.0</ele><time>2026-05-03T12:30:07.598Z</time></trkpt><trkpt lat="45.9700005" lon="9.3010292"><ele>213.0</ele><time>2026-05-03T12:30:08.588Z</time></trkpt><trkpt lat="45.9698793" lon="9.3011288"><ele>213.0</ele><time>2026-05-03T12:30:09.596Z</time></trkpt><trkpt lat="45.9697423" lon="9.3012856"><ele>215.66666666666669</ele><time>2026-05-03T12:30:10.584Z</time></trkpt><trkpt lat="45.9696199" lon="9.3014772"><ele>218.33333333333334</ele><time>2026-05-03T12:30:11.592Z</time></trkpt><trkpt lat="45.9694736" lon="9.301665"><ele>221.0</ele><time>2026-05-03T12:30:12.591Z</time></trkpt><trkpt lat="45.9693509" lon="9.3018621"><ele>221.0</ele><time>2026-05-03T12:30:13.593Z</time></trkpt><trkpt lat="45.9692192" lon="9.3020274"><ele>221.0</ele><time>2026-05-03T12:30:14.593Z</time></trkpt><trkpt lat="45.9690834" lon="9.3021838"><ele>221.0</ele><time>2026-05-03T12:30:15.592Z</time></trkpt><trkpt lat="45.9689323" lon="9.3023235"><ele>220.33333333333334</ele><time>2026-05-03T12:30:16.59Z</time></trkpt><trkpt lat="45.9687579" lon="9.3024398"><ele>219.66666666666669</ele><time>2026-05-03T12:30:17.607Z</time></trkpt><trkpt lat="45.9685993" lon="9.3025774"><ele>219.0</ele><time>2026-05-03T12:30:18.616Z</time></trkpt><trkpt lat="45.9684434" lon="9.3026819"><ele>214.66666666666669</ele><time>2026-05-03T12:30:19.593Z</time></trkpt><trkpt lat="45.9682933" lon="9.3027945"><ele>210.33333333333334</ele><time>2026-05-03T12:30:20.598Z</time></trkpt><trkpt lat="45.968148" lon="9.3029111"><ele>206.0</ele><time>2026-05-03T12:30:21.588Z</time></trkpt><trkpt lat="45.9679919" lon="9.3030304"><ele>209.66666666666669</ele><time>2026-05-03T12:30:22.597Z</time></trkpt><trkpt lat="45.967832" lon="9.3031706"><ele>213.33333333333331</ele><time>2026-05-03T12:30:23.59Z</time></trkpt><trkpt lat="45.9677017" lon="9.3032978"><ele>217.0</ele><time>2026-05-03T12:30:24.588Z</time></trkpt><trkpt lat="45.9675707" lon="9.3034293"><ele>214.75</ele><time>2026-05-03T12:30:25.591Z</time></trkpt><trkpt lat="45.9674437" lon="9.3035459"><ele>212.5</ele><time>2026-05-03T12:30:26.588Z</time></trkpt><trkpt lat="45.9673098" lon="9.3036482"><ele>210.25</ele><time>2026-05-03T12:30:27.585Z</time></trkpt><trkpt lat="45.9671722" lon="9.3037"><ele>208.0</ele><time>2026-05-03T12:30:28.593Z</time></trkpt><trkpt lat="45.9670434" lon="9.3037312"><ele>208.0</ele><time>2026-05-03T12:30:29.594Z</time></trkpt><trkpt lat="45.9669268" lon="9.3037782"><ele>208.0</ele><time>2026-05-03T12:30:30.598Z</time></trkpt><trkpt lat="45.966835" lon="9.3037854"><ele>208.0</ele><time>2026-05-03T12:30:31.604Z</time></trkpt><trkpt lat="45.9667529" lon="9.3037622"><ele>208.0</ele><time>2026-05-03T12:30:32.597Z</time></trkpt><trkpt lat="45.9666652" lon="9.3037407"><ele>208.0</ele><time>2026-05-03T12:30:33.607Z</time></trkpt><trkpt lat="45.9665791" lon="9.3037163"><ele>207.49999999999997</ele><time>2026-05-03T12:30:34.598Z</time></trkpt><trkpt lat="45.9664898" lon="9.3036794"><ele>207.0</ele><time>2026-05-03T12:30:35.602Z</time></trkpt><trkpt lat="45.9664" lon="9.3036284"><ele>206.5</ele><time>2026-05-03T12:30:36.6Z</time></trkpt><trkpt lat="45.9663255" lon="9.3035725"><ele>206.0</ele><time>2026-05-03T12:30:37.596Z</time></trkpt><trkpt lat="45.966254" lon="9.3035105"><ele>205.49999999999997</ele><time>2026-05-03T12:30:38.602Z</time></trkpt><trkpt lat="45.9661882" lon="9.3034524"><ele>205.0</ele><time>2026-05-03T12:30:39.597Z</time></trkpt><trkpt lat="45.9661243" lon="9.3033989"><ele>204.99999999999997</ele><time>2026-05-03T12:30:40.602Z</time></trkpt><trkpt lat="45.9660588" lon="9.3033481"><ele>205.0</ele><time>2026-05-03T12:30:41.603Z</time></trkpt><trkpt lat="45.9659885" lon="9.3033013"><ele>205.0</ele><time>2026-05-03T12:30:42.599Z</time></trkpt><trkpt lat="45.9659137" lon="9.303244"><ele>205.0</ele><time>2026-05-03T12:30:43.598Z</time></trkpt><trkpt lat="45.9658308" lon="9.3031853"><ele>204.99999999999997</ele><time>2026-05-03T12:30:44.599Z</time></trkpt><trkpt lat="45.965743" lon="9.303123"><ele>205.0</ele><time>2026-05-03T12:30:45.595Z</time></trkpt><trkpt lat="45.9656457" lon="9.3030592"><ele>205.4</ele><time>2026-05-03T12:30:46.628Z</time></trkpt><trkpt lat="45.9655498" lon="9.302987"><ele>205.8</ele><time>2026-05-03T12:30:47.62Z</time></trkpt><trkpt lat="45.9654568" lon="9.3029044"><ele>206.2</ele><time>2026-05-03T12:30:48.593Z</time></trkpt><trkpt lat="45.9653679" lon="9.3028208"><ele>206.6</ele><time>2026-05-03T12:30:49.605Z</time></trkpt><trkpt lat="45.9652858" lon="9.3027462"><ele>207.0</ele><time>2026-05-03T12:30:50.597Z</time></trkpt><trkpt lat="45.9651965" lon="9.3026749"><ele>207.0</ele><time>2026-05-03T12:30:51.605Z</time></trkpt><trkpt lat="45.9651101" lon="9.3025989"><ele>207.0</ele><time>2026-05-03T12:30:52.6Z</time></trkpt><trkpt lat="45.9650239" lon="9.3025245"><ele>207.0</ele><time>2026-05-03T12:30:53.592Z</time></trkpt><trkpt lat="45.9649341" lon="9.3024499"><ele>207.0</ele><time>2026-05-03T12:30:54.598Z</time></trkpt><trkpt lat="45.9648413" lon="9.3023757"><ele>207.0</ele><time>2026-05-03T12:30:55.592Z</time></trkpt><trkpt lat="45.9647357" lon="9.3023112"><ele>206.25</ele><time>2026-05-03T12:30:56.598Z</time></trkpt><trkpt lat="45.9646185" lon="9.3022613"><ele>205.5</ele><time>2026-05-03T12:30:57.616Z</time></trkpt><trkpt lat="45.9645009" lon="9.3022194"><ele>204.75</ele><time>2026-05-03T12:30:58.603Z</time></trkpt><trkpt lat="45.9643842" lon="9.3021792"><ele>204.0</ele><time>2026-05-03T12:30:59.605Z</time></trkpt><trkpt lat="45.9642684" lon="9.3021466"><ele>205.39999999999998</ele><time>2026-05-03T12:31:00.617Z</time></trkpt><trkpt lat="45.9641599" lon="9.3021185"><ele>206.8</ele><time>2026-05-03T12:31:01.588Z</time></trkpt><trkpt lat="45.9640538" lon="9.3020871"><ele>208.2</ele><time>2026-05-03T12:31:02.603Z</time></trkpt><trkpt lat="45.9639476" lon="9.3020508"><ele>209.60000000000002</ele><time>2026-05-03T12:31:03.593Z</time></trkpt><trkpt lat="45.9638454" lon="9.3020075"><ele>211.0</ele><time>2026-05-03T12:31:04.589Z</time></trkpt><trkpt lat="45.9637453" lon="9.3019616"><ele>211.0</ele><time>2026-05-03T12:31:05.59Z</time></trkpt><trkpt lat="45.9636338" lon="9.3019115"><ele>211.0</ele><time>2026-05-03T12:31:06.593Z</time></trkpt><trkpt lat="45.963522" lon="9.3018705"><ele>211.0</ele><time>2026-05-03T12:31:07.589Z</time></trkpt><trkpt lat="45.9634147" lon="9.3018327"><ele>211.0</ele><time>2026-05-03T12:31:08.601Z</time></trkpt><trkpt lat="45.9633053" lon="9.3017948"><ele>213.25</ele><time>2026-05-03T12:31:09.591Z</time></trkpt><trkpt lat="45.9631933" lon="9.3017571"><ele>215.5</ele><time>2026-05-03T12:31:10.598Z</time></trkpt><trkpt lat="45.9630809" lon="9.3017171"><ele>217.75</ele><time>2026-05-03T12:31:11.593Z</time></trkpt><trkpt lat="45.9629688" lon="9.3016712"><ele>220.0</ele><time>2026-05-03T12:31:12.589Z</time></trkpt><trkpt lat="45.9628568" lon="9.3016323"><ele>220.0</ele><time>2026-05-03T12:31:13.598Z</time></trkpt><trkpt lat="45.9627477" lon="9.301599"><ele>220.0</ele><time>2026-05-03T12:31:14.592Z</time></trkpt><trkpt lat="45.9626415" lon="9.3015632"><ele>220.0</ele><time>2026-05-03T12:31:15.6Z</time></trkpt><trkpt lat="45.9625354" lon="9.3015228"><ele>220.0</ele><time>2026-05-03T12:31:16.593Z</time></trkpt><trkpt lat="45.9624368" lon="9.3014802"><ele>220.0</ele><time>2026-05-03T12:31:17.598Z</time></trkpt><trkpt lat="45.9623343" lon="9.3014434"><ele>220.4</ele><time>2026-05-03T12:31:18.595Z</time></trkpt><trkpt lat="45.9622282" lon="9.3014172"><ele>220.8</ele><time>2026-05-03T12:31:19.597Z</time></trkpt><trkpt lat="45.9621188" lon="9.301403"><ele>221.2</ele><time>2026-05-03T12:31:20.597Z</time></trkpt><trkpt lat="45.9620075" lon="9.3014058"><ele>221.6</ele><time>2026-05-03T12:31:21.598Z</time></trkpt><trkpt lat="45.9618954" lon="9.3014208"><ele>222.0</ele><time>2026-05-03T12:31:22.597Z</time></trkpt><trkpt lat="45.9617818" lon="9.30144"><ele>220.5</ele><time>2026-05-03T12:31:23.601Z</time></trkpt><trkpt lat="45.9616684" lon="9.3014679"><ele>219.0</ele><time>2026-05-03T12:31:24.6Z</time></trkpt><trkpt lat="45.9615483" lon="9.3014907"><ele>217.5</ele><time>2026-05-03T12:31:25.593Z</time></trkpt><trkpt lat="45.9614272" lon="9.301511"><ele>216.0</ele><time>2026-05-03T12:31:26.601Z</time></trkpt><trkpt lat="45.961311" lon="9.3015275"><ele>216.0</ele><time>2026-05-03T12:31:27.602Z</time></trkpt><trkpt lat="45.9611863" lon="9.3015429"><ele>216.0</ele><time>2026-05-03T12:31:28.627Z</time></trkpt><trkpt lat="45.9610661" lon="9.3015584"><ele>216.0</ele><time>2026-05-03T12:31:29.604Z</time></trkpt><trkpt lat="45.9609438" lon="9.3015663"><ele>216.0</ele><time>2026-05-03T12:31:30.625Z</time></trkpt><trkpt lat="45.9608266" lon="9.3015845"><ele>215.0</ele><time>2026-05-03T12:31:31.621Z</time></trkpt><trkpt lat="45.9607148" lon="9.3016063"><ele>214.0</ele><time>2026-05-03T12:31:32.62Z</time></trkpt><trkpt lat="45.9606018" lon="9.3016318"><ele>213.0</ele><time>2026-05-03T12:31:33.597Z</time></trkpt><trkpt lat="45.9604756" lon="9.3016488"><ele>212.0</ele><time>2026-05-03T12:31:34.597Z</time></trkpt><trkpt lat="45.9603597" lon="9.3016693"><ele>212.0</ele><time>2026-05-03T12:31:35.601Z</time></trkpt><trkpt lat="45.9602423" lon="9.3016785"><ele>212.0</ele><time>2026-05-03T12:31:36.599Z</time></trkpt><trkpt lat="45.960139" lon="9.3016851"><ele>212.0</ele><time>2026-05-03T12:31:37.592Z</time></trkpt><trkpt lat="45.9600385" lon="9.3016887"><ele>212.0</ele><time>2026-05-03T12:31:38.59Z</time></trkpt><trkpt lat="45.9599498" lon="9.3016798"><ele>212.0</ele><time>2026-05-03T12:31:39.592Z</time></trkpt><trkpt lat="45.9598715" lon="9.3016686"><ele>212.00000000000003</ele><time>2026-05-03T12:31:40.598Z</time></trkpt><trkpt lat="45.9598071" lon="9.3016656"><ele>212.0</ele><time>2026-05-03T12:31:41.592Z</time></trkpt><trkpt lat="45.9597028" lon="9.3016193"><ele>212.0</ele><time>2026-05-03T12:31:43.592Z</time></trkpt><trkpt lat="45.9596741" lon="9.3015294"><ele>212.0</ele><time>2026-05-03T12:31:45.607Z</time></trkpt><trkpt lat="45.959684" lon="9.3014047"><ele>212.00000000000003</ele><time>2026-05-03T12:31:47.61Z</time></trkpt><trkpt lat="45.9596984" lon="9.301289"><ele>212.0</ele><time>2026-05-03T12:31:49.622Z</time></trkpt><trkpt lat="45.959704" lon="9.3011684"><ele>203.0</ele><time>2026-05-03T12:31:52.604Z</time></trkpt></trkseg><trkseg><trkpt lat="45.959694" lon="9.3009248"><ele>203.0</ele><time>2026-05-03T13:06:18.616Z</time></trkpt><trkpt lat="45.9596694" lon="9.3010328"><ele>203.0</ele><time>2026-05-03T13:06:42.58Z</time></trkpt><trkpt lat="45.959663" lon="9.3011519"><ele>203.0</ele><time>2026-05-03T13:06:44.583Z</time></trkpt><trkpt lat="45.9596787" lon="9.3012606"><ele>203.0</ele><time>2026-05-03T13:06:46.587Z</time></trkpt><trkpt lat="45.9596156" lon="9.3013167"><ele>203.0</ele><time>2026-05-03T13:06:55.571Z</time></trkpt><trkpt lat="45.9594837" lon="9.3013679"><ele>203.0</ele><time>2026-05-03T13:06:57.549Z</time></trkpt><trkpt lat="45.9594075" lon="9.3013763"><ele>203.0</ele><time>2026-05-03T13:06:58.556Z</time></trkpt><trkpt lat="45.9593233" lon="9.3013982"><ele>203.0</ele><time>2026-05-03T13:06:59.553Z</time></trkpt><trkpt lat="45.9592324" lon="9.3014216"><ele>203.0</ele><time>2026-05-03T13:07:00.543Z</time></trkpt><trkpt lat="45.9591388" lon="9.3014562"><ele>203.0</ele><time>2026-05-03T13:07:01.556Z</time></trkpt><trkpt lat="45.9590298" lon="9.3014794"><ele>205.25</ele><time>2026-05-03T13:07:02.571Z</time></trkpt><trkpt lat="45.9589175" lon="9.3015102"><ele>207.5</ele><time>2026-05-03T13:07:03.546Z</time></trkpt><trkpt lat="45.9588013" lon="9.3015316"><ele>209.75</ele><time>2026-05-03T13:07:04.548Z</time></trkpt><trkpt lat="45.9586801" lon="9.3015645"><ele>212.0</ele><time>2026-05-03T13:07:05.55Z</time></trkpt><trkpt lat="45.958557" lon="9.3016038"><ele>212.0</ele><time>2026-05-03T13:07:06.55Z</time></trkpt><trkpt lat="45.958429" lon="9.3016385"><ele>212.0</ele><time>2026-05-03T13:07:07.55Z</time></trkpt><trkpt lat="45.9583" lon="9.301675"><ele>212.0</ele><time>2026-05-03T13:07:08.558Z</time></trkpt><trkpt lat="45.958164" lon="9.3017076"><ele>212.0</ele><time>2026-05-03T13:07:09.557Z</time></trkpt><trkpt lat="45.9580284" lon="9.3017321"><ele>210.0</ele><time>2026-05-03T13:07:10.555Z</time></trkpt><trkpt lat="45.9578906" lon="9.3017591"><ele>208.0</ele><time>2026-05-03T13:07:11.54Z</time></trkpt><trkpt lat="45.9577455" lon="9.301783"><ele>206.0</ele><time>2026-05-03T13:07:12.547Z</time></trkpt><trkpt lat="45.957579" lon="9.3017923"><ele>207.33333333333334</ele><time>2026-05-03T13:07:13.549Z</time></trkpt><trkpt lat="45.9573936" lon="9.3018229"><ele>208.66666666666669</ele><time>2026-05-03T13:07:14.54Z</time></trkpt><trkpt lat="45.957231" lon="9.3018193"><ele>210.0</ele><time>2026-05-03T13:07:15.54Z</time></trkpt><trkpt lat="45.9570704" lon="9.3018134"><ele>210.0</ele><time>2026-05-03T13:07:16.541Z</time></trkpt><trkpt lat="45.9569071" lon="9.3018536"><ele>210.0</ele><time>2026-05-03T13:07:17.549Z</time></trkpt><trkpt lat="45.9567424" lon="9.3018278"><ele>210.0</ele><time>2026-05-03T13:07:18.55Z</time></trkpt><trkpt lat="45.9566122" lon="9.3018248"><ele>207.5</ele><time>2026-05-03T13:07:19.55Z</time></trkpt><trkpt lat="45.9564807" lon="9.3018469"><ele>205.0</ele><time>2026-05-03T13:07:20.554Z</time></trkpt><trkpt lat="45.9563417" lon="9.3018709"><ele>202.5</ele><time>2026-05-03T13:07:21.554Z</time></trkpt><trkpt lat="45.9561837" lon="9.3018801"><ele>200.0</ele><time>2026-05-03T13:07:22.552Z</time></trkpt><trkpt lat="45.9560455" lon="9.3018889"><ele>200.0</ele><time>2026-05-03T13:07:23.553Z</time></trkpt><trkpt lat="45.9559054" lon="9.301879"><ele>200.0</ele><time>2026-05-03T13:07:24.561Z</time></trkpt><trkpt lat="45.9557641" lon="9.3018467"><ele>200.0</ele><time>2026-05-03T13:07:25.55Z</time></trkpt><trkpt lat="45.9556165" lon="9.301813"><ele>200.0</ele><time>2026-05-03T13:07:26.548Z</time></trkpt><trkpt lat="45.9554771" lon="9.301797"><ele>200.75</ele><time>2026-05-03T13:07:27.552Z</time></trkpt><trkpt lat="45.9553442" lon="9.3017741"><ele>201.5</ele><time>2026-05-03T13:07:28.551Z</time></trkpt><trkpt lat="45.955213" lon="9.3017649"><ele>202.25</ele><time>2026-05-03T13:07:29.551Z</time></trkpt><trkpt lat="45.9550711" lon="9.3017444"><ele>203.0</ele><time>2026-05-03T13:07:30.55Z</time></trkpt><trkpt lat="45.9549286" lon="9.3017275"><ele>204.33333333333334</ele><time>2026-05-03T13:07:31.553Z</time></trkpt><trkpt lat="45.9547751" lon="9.3017316"><ele>205.66666666666669</ele><time>2026-05-03T13:07:32.553Z</time></trkpt><trkpt lat="45.9546319" lon="9.3017583"><ele>207.0</ele><time>2026-05-03T13:07:33.562Z</time></trkpt><trkpt lat="45.954478" lon="9.30176"><ele>207.0</ele><time>2026-05-03T13:07:34.56Z</time></trkpt><trkpt lat="45.9543318" lon="9.301777"><ele>207.0</ele><time>2026-05-03T13:07:35.56Z</time></trkpt><trkpt lat="45.9541843" lon="9.3017771"><ele>207.0</ele><time>2026-05-03T13:07:36.554Z</time></trkpt><trkpt lat="45.954044" lon="9.3017518"><ele>207.0</ele><time>2026-05-03T13:07:37.559Z</time></trkpt><trkpt lat="45.9539218" lon="9.3016954"><ele>208.5</ele><time>2026-05-03T13:07:38.552Z</time></trkpt><trkpt lat="45.9537964" lon="9.3016374"><ele>210.0</ele><time>2026-05-03T13:07:39.559Z</time></trkpt><trkpt lat="45.95365" lon="9.3015873"><ele>211.5</ele><time>2026-05-03T13:07:40.558Z</time></trkpt><trkpt lat="45.9535112" lon="9.3015184"><ele>213.0</ele><time>2026-05-03T13:07:41.553Z</time></trkpt><trkpt lat="45.9533737" lon="9.3014439"><ele>210.25</ele><time>2026-05-03T13:07:42.558Z</time></trkpt><trkpt lat="45.9532395" lon="9.3013723"><ele>207.5</ele><time>2026-05-03T13:07:43.555Z</time></trkpt><trkpt lat="45.9531096" lon="9.3013121"><ele>204.75</ele><time>2026-05-03T13:07:44.568Z</time></trkpt><trkpt lat="45.952976" lon="9.3012423"><ele>202.0</ele><time>2026-05-03T13:07:45.559Z</time></trkpt><trkpt lat="45.9528408" lon="9.3011724"><ele>202.0</ele><time>2026-05-03T13:07:46.549Z</time></trkpt><trkpt lat="45.9527278" lon="9.3011111"><ele>202.0</ele><time>2026-05-03T13:07:47.56Z</time></trkpt><trkpt lat="45.9526253" lon="9.3010669"><ele>202.0</ele><time>2026-05-03T13:07:48.551Z</time></trkpt><trkpt lat="45.9525286" lon="9.3010369"><ele>202.0</ele><time>2026-05-03T13:07:49.57Z</time></trkpt><trkpt lat="45.9524293" lon="9.3010344"><ele>202.0</ele><time>2026-05-03T13:07:50.556Z</time></trkpt><trkpt lat="45.95233" lon="9.3010411"><ele>202.33333333333331</ele><time>2026-05-03T13:07:51.559Z</time></trkpt><trkpt lat="45.9522357" lon="9.3010514"><ele>202.66666666666666</ele><time>2026-05-03T13:07:52.556Z</time></trkpt><trkpt lat="45.9521415" lon="9.3010712"><ele>203.0</ele><time>2026-05-03T13:07:53.573Z</time></trkpt><trkpt lat="45.9520552" lon="9.3010936"><ele>203.33333333333331</ele><time>2026-05-03T13:07:54.558Z</time></trkpt><trkpt lat="45.9519734" lon="9.3011161"><ele>203.66666666666666</ele><time>2026-05-03T13:07:55.555Z</time></trkpt><trkpt lat="45.9518969" lon="9.3011324"><ele>204.0</ele><time>2026-05-03T13:07:56.562Z</time></trkpt><trkpt lat="45.9518266" lon="9.3011427"><ele>204.0</ele><time>2026-05-03T13:07:57.559Z</time></trkpt><trkpt lat="45.951717" lon="9.3011785"><ele>204.0</ele><time>2026-05-03T13:07:59.56Z</time></trkpt><trkpt lat="45.9516507" lon="9.301196"><ele>204.0</ele><time>2026-05-03T13:08:01.568Z</time></trkpt><trkpt lat="45.9515741" lon="9.3012227"><ele>204.0</ele><time>2026-05-03T13:08:21.57Z</time></trkpt><trkpt lat="45.9514899" lon="9.3012433"><ele>204.0</ele><time>2026-05-03T13:08:23.582Z</time></trkpt><trkpt lat="45.9514207" lon="9.3012631"><ele>204.0</ele><time>2026-05-03T13:08:24.554Z</time></trkpt><trkpt lat="45.9513272" lon="9.3012671"><ele>204.0</ele><time>2026-05-03T13:08:25.556Z</time></trkpt><trkpt lat="45.9512427" lon="9.3012644"><ele>204.0</ele><time>2026-05-03T13:08:26.557Z</time></trkpt><trkpt lat="45.9511744" lon="9.301265"><ele>204.0</ele><time>2026-05-03T13:08:27.543Z</time></trkpt><trkpt lat="45.9511052" lon="9.3012671"><ele>204.0</ele><time>2026-05-03T13:08:28.542Z</time></trkpt><trkpt lat="45.9510282" lon="9.3012679"><ele>204.0</ele><time>2026-05-03T13:08:29.546Z</time></trkpt><trkpt lat="45.9509334" lon="9.3012701"><ele>204.0</ele><time>2026-05-03T13:08:30.548Z</time></trkpt><trkpt lat="45.950837" lon="9.3012777"><ele>203.39999999999998</ele><time>2026-05-03T13:08:31.532Z</time></trkpt><trkpt lat="45.9507434" lon="9.3012946"><ele>202.8</ele><time>2026-05-03T13:08:32.551Z</time></trkpt><trkpt lat="45.9506527" lon="9.3013186"><ele>202.2</ele><time>2026-05-03T13:08:33.546Z</time></trkpt><trkpt lat="45.9505604" lon="9.3013468"><ele>201.60000000000002</ele><time>2026-05-03T13:08:34.553Z</time></trkpt><trkpt lat="45.9504619" lon="9.3013769"><ele>201.0</ele><time>2026-05-03T13:08:35.558Z</time></trkpt><trkpt lat="45.950366" lon="9.3014167"><ele>202.4</ele><time>2026-05-03T13:08:36.557Z</time></trkpt><trkpt lat="45.950274" lon="9.3014689"><ele>203.8</ele><time>2026-05-03T13:08:37.56Z</time></trkpt><trkpt lat="45.9501819" lon="9.301533"><ele>205.20000000000002</ele><time>2026-05-03T13:08:38.555Z</time></trkpt><trkpt lat="45.950081" lon="9.3016104"><ele>206.60000000000002</ele><time>2026-05-03T13:08:39.558Z</time></trkpt><trkpt lat="45.9499749" lon="9.3016905"><ele>208.0</ele><time>2026-05-03T13:08:40.56Z</time></trkpt><trkpt lat="45.9498708" lon="9.3017572"><ele>208.0</ele><time>2026-05-03T13:08:41.558Z</time></trkpt><trkpt lat="45.9497711" lon="9.3018263"><ele>208.0</ele><time>2026-05-03T13:08:42.559Z</time></trkpt><trkpt lat="45.9496751" lon="9.3019018"><ele>208.0</ele><time>2026-05-03T13:08:43.559Z</time></trkpt><trkpt lat="45.9495817" lon="9.3019806"><ele>208.0</ele><time>2026-05-03T13:08:44.558Z</time></trkpt><trkpt lat="45.9494908" lon="9.3020691"><ele>208.0</ele><time>2026-05-03T13:08:45.556Z</time></trkpt><trkpt lat="45.949401" lon="9.3021748"><ele>207.5</ele><time>2026-05-03T13:08:46.559Z</time></trkpt><trkpt lat="45.9493141" lon="9.3022985"><ele>207.0</ele><time>2026-05-03T13:08:47.55Z</time></trkpt><trkpt lat="45.9492284" lon="9.3024277"><ele>206.5</ele><time>2026-05-03T13:08:48.565Z</time></trkpt><trkpt lat="45.949142" lon="9.3025591"><ele>206.0</ele><time>2026-05-03T13:08:49.557Z</time></trkpt><trkpt lat="45.9490499" lon="9.3026863"><ele>206.0</ele><time>2026-05-03T13:08:50.555Z</time></trkpt><trkpt lat="45.9489397" lon="9.3028007"><ele>206.0</ele><time>2026-05-03T13:08:51.553Z</time></trkpt><trkpt lat="45.9488187" lon="9.3029087"><ele>206.0</ele><time>2026-05-03T13:08:52.578Z</time></trkpt><trkpt lat="45.9486593" lon="9.3029875"><ele>206.0</ele><time>2026-05-03T13:08:53.577Z</time></trkpt><trkpt lat="45.9485305" lon="9.3030403"><ele>207.0</ele><time>2026-05-03T13:08:54.548Z</time></trkpt><trkpt lat="45.9484218" lon="9.3031219"><ele>208.0</ele><time>2026-05-03T13:08:55.548Z</time></trkpt><trkpt lat="45.9483224" lon="9.3032289"><ele>209.0</ele><time>2026-05-03T13:08:56.55Z</time></trkpt><trkpt lat="45.9482269" lon="9.3033567"><ele>210.0</ele><time>2026-05-03T13:08:57.544Z</time></trkpt><trkpt lat="45.9481372" lon="9.3035058"><ele>210.0</ele><time>2026-05-03T13:08:58.547Z</time></trkpt><trkpt lat="45.9480416" lon="9.3036415"><ele>210.0</ele><time>2026-05-03T13:08:59.532Z</time></trkpt><trkpt lat="45.9479438" lon="9.3037779"><ele>210.0</ele><time>2026-05-03T13:09:00.533Z</time></trkpt><trkpt lat="45.9478384" lon="9.3039099"><ele>210.0</ele><time>2026-05-03T13:09:01.535Z</time></trkpt><trkpt lat="45.9477407" lon="9.3040272"><ele>215.0</ele><time>2026-05-03T13:09:02.53Z</time></trkpt><trkpt lat="45.9476359" lon="9.3041579"><ele>220.0</ele><time>2026-05-03T13:09:03.529Z</time></trkpt><trkpt lat="45.9475382" lon="9.3042732"><ele>225.0</ele><time>2026-05-03T13:09:04.523Z</time></trkpt><trkpt lat="45.9474442" lon="9.3043918"><ele>230.0</ele><time>2026-05-03T13:09:05.502Z</time></trkpt><trkpt lat="45.947349" lon="9.3045079"><ele>230.0</ele><time>2026-05-03T13:09:06.507Z</time></trkpt><trkpt lat="45.9472553" lon="9.3046258"><ele>230.0</ele><time>2026-05-03T13:09:07.495Z</time></trkpt><trkpt lat="45.9471476" lon="9.3047845"><ele>230.0</ele><time>2026-05-03T13:09:08.5Z</time></trkpt><trkpt lat="45.9470371" lon="9.3049155"><ele>230.0</ele><time>2026-05-03T13:09:09.502Z</time></trkpt><trkpt lat="45.9468849" lon="9.3049993"><ele>229.0</ele><time>2026-05-03T13:09:10.513Z</time></trkpt><trkpt lat="45.9467677" lon="9.3050222"><ele>228.0</ele><time>2026-05-03T13:09:11.52Z</time></trkpt><trkpt lat="45.9466276" lon="9.3050883"><ele>227.0</ele><time>2026-05-03T13:09:12.521Z</time></trkpt><trkpt lat="45.9464857" lon="9.3051716"><ele>226.0</ele><time>2026-05-03T13:09:13.524Z</time></trkpt><trkpt lat="45.9463858" lon="9.3053106"><ele>226.0</ele><time>2026-05-03T13:09:14.507Z</time></trkpt><trkpt lat="45.9462907" lon="9.30545"><ele>226.0</ele><time>2026-05-03T13:09:15.517Z</time></trkpt><trkpt lat="45.9462198" lon="9.3056278"><ele>226.0</ele><time>2026-05-03T13:09:16.526Z</time></trkpt><trkpt lat="45.9461065" lon="9.3057731"><ele>226.0</ele><time>2026-05-03T13:09:17.522Z</time></trkpt><trkpt lat="45.9459933" lon="9.3059738"><ele>227.25</ele><time>2026-05-03T13:09:18.502Z</time></trkpt><trkpt lat="45.945874" lon="9.3061445"><ele>228.5</ele><time>2026-05-03T13:09:19.506Z</time></trkpt><trkpt lat="45.9457925" lon="9.3063101"><ele>229.75</ele><time>2026-05-03T13:09:20.501Z</time></trkpt><trkpt lat="45.945719" lon="9.306475"><ele>231.0</ele><time>2026-05-03T13:09:21.5Z</time></trkpt><trkpt lat="45.9456054" lon="9.3066823"><ele>243.0</ele><time>2026-05-03T13:09:22.515Z</time></trkpt><trkpt lat="45.9455079" lon="9.3068548"><ele>255.0</ele><time>2026-05-03T13:09:23.514Z</time></trkpt><trkpt lat="45.9453284" lon="9.307296"><ele>238.0</ele><time>2026-05-03T13:09:25.507Z</time></trkpt><trkpt lat="45.9450214" lon="9.3082806"><ele>238.0</ele><time>2026-05-03T13:09:26.516Z</time></trkpt><trkpt lat="45.9449517" lon="9.3085414"><ele>238.0</ele><time>2026-05-03T13:09:27.508Z</time></trkpt><trkpt lat="45.945294" lon="9.3085637"><ele>238.0</ele><time>2026-05-03T13:09:28.519Z</time></trkpt><trkpt lat="45.9451941" lon="9.3086484"><ele>238.0</ele><time>2026-05-03T13:09:30.508Z</time></trkpt><trkpt lat="45.94511" lon="9.3087416"><ele>238.0</ele><time>2026-05-03T13:09:31.518Z</time></trkpt><trkpt lat="45.9450403" lon="9.3089027"><ele>238.0</ele><time>2026-05-03T13:09:32.515Z</time></trkpt><trkpt lat="45.9449674" lon="9.3090775"><ele>258.5</ele><time>2026-05-03T13:09:33.509Z</time></trkpt><trkpt lat="45.9448962" lon="9.3092306"><ele>279.0</ele><time>2026-05-03T13:09:34.518Z</time></trkpt><trkpt lat="45.9448246" lon="9.309356"><ele>299.5</ele><time>2026-05-03T13:09:35.504Z</time></trkpt><trkpt lat="45.9447509" lon="9.3094889"><ele>320.0</ele><time>2026-05-03T13:09:36.497Z</time></trkpt><trkpt lat="45.9446416" lon="9.3096235"><ele>320.0</ele><time>2026-05-03T13:09:37.505Z</time></trkpt><trkpt lat="45.9444439" lon="9.3097348"><ele>320.0</ele><time>2026-05-03T13:09:38.52Z</time></trkpt><trkpt lat="45.9442468" lon="9.3097989"><ele>320.0</ele><time>2026-05-03T13:09:39.509Z</time></trkpt><trkpt lat="45.9440375" lon="9.3098546"><ele>312.0</ele><time>2026-05-03T13:09:40.525Z</time></trkpt><trkpt lat="45.9438352" lon="9.3099382"><ele>304.0</ele><time>2026-05-03T13:09:41.516Z</time></trkpt><trkpt lat="45.9436395" lon="9.3100276"><ele>296.0</ele><time>2026-05-03T13:09:42.509Z</time></trkpt><trkpt lat="45.9434441" lon="9.3100858"><ele>270.6666666666667</ele><time>2026-05-03T13:09:43.528Z</time></trkpt><trkpt lat="45.9433219" lon="9.3103068"><ele>245.33333333333331</ele><time>2026-05-03T13:09:44.541Z</time></trkpt><trkpt lat="45.9431693" lon="9.3104543"><ele>220.0</ele><time>2026-05-03T13:09:45.54Z</time></trkpt><trkpt lat="45.9429534" lon="9.3105567"><ele>220.66666666666666</ele><time>2026-05-03T13:09:46.543Z</time></trkpt><trkpt lat="45.9427743" lon="9.3106878"><ele>221.33333333333331</ele><time>2026-05-03T13:09:47.549Z</time></trkpt><trkpt lat="45.9426049" lon="9.310806"><ele>222.0</ele><time>2026-05-03T13:09:48.542Z</time></trkpt><trkpt lat="45.9424326" lon="9.3109192"><ele>222.0</ele><time>2026-05-03T13:09:49.543Z</time></trkpt><trkpt lat="45.9422453" lon="9.3110209"><ele>222.0</ele><time>2026-05-03T13:09:50.549Z</time></trkpt><trkpt lat="45.9420343" lon="9.3111783"><ele>222.0</ele><time>2026-05-03T13:09:51.542Z</time></trkpt><trkpt lat="45.9418539" lon="9.311292"><ele>222.0</ele><time>2026-05-03T13:09:52.55Z</time></trkpt><trkpt lat="45.9416706" lon="9.3114192"><ele>222.0</ele><time>2026-05-03T13:09:53.541Z</time></trkpt><trkpt lat="45.9414798" lon="9.3115311"><ele>222.0</ele><time>2026-05-03T13:09:54.549Z</time></trkpt><trkpt lat="45.9412973" lon="9.3116532"><ele>222.0</ele><time>2026-05-03T13:09:55.544Z</time></trkpt><trkpt lat="45.941119" lon="9.3117895"><ele>222.0</ele><time>2026-05-03T13:09:56.547Z</time></trkpt><trkpt lat="45.9409374" lon="9.3119128"><ele>222.0</ele><time>2026-05-03T13:09:57.544Z</time></trkpt><trkpt lat="45.9407695" lon="9.312037"><ele>222.33333333333331</ele><time>2026-05-03T13:09:58.547Z</time></trkpt><trkpt lat="45.9406199" lon="9.3121743"><ele>222.66666666666666</ele><time>2026-05-03T13:09:59.554Z</time></trkpt><trkpt lat="45.9404804" lon="9.3123234"><ele>223.0</ele><time>2026-05-03T13:10:00.551Z</time></trkpt><trkpt lat="45.9403411" lon="9.312476"><ele>223.0</ele><time>2026-05-03T13:10:01.553Z</time></trkpt><trkpt lat="45.9401896" lon="9.3125799"><ele>223.0</ele><time>2026-05-03T13:10:02.547Z</time></trkpt><trkpt lat="45.9400514" lon="9.3126457"><ele>223.0</ele><time>2026-05-03T13:10:03.545Z</time></trkpt><trkpt lat="45.939916" lon="9.3126657"><ele>216.66666666666666</ele><time>2026-05-03T13:10:04.552Z</time></trkpt><trkpt lat="45.9397667" lon="9.3126026"><ele>210.33333333333331</ele><time>2026-05-03T13:10:05.551Z</time></trkpt><trkpt lat="45.9396245" lon="9.3124846"><ele>204.0</ele><time>2026-05-03T13:10:06.548Z</time></trkpt><trkpt lat="45.9394931" lon="9.3124265"><ele>204.0</ele><time>2026-05-03T13:10:07.552Z</time></trkpt><trkpt lat="45.9393763" lon="9.3124066"><ele>204.0</ele><time>2026-05-03T13:10:08.553Z</time></trkpt><trkpt lat="45.9392554" lon="9.3124133"><ele>204.0</ele><time>2026-05-03T13:10:09.548Z</time></trkpt><trkpt lat="45.9391367" lon="9.312428"><ele>204.0</ele><time>2026-05-03T13:10:10.549Z</time></trkpt><trkpt lat="45.9390266" lon="9.3124175"><ele>204.25</ele><time>2026-05-03T13:10:11.548Z</time></trkpt><trkpt lat="45.9389085" lon="9.3124516"><ele>204.5</ele><time>2026-05-03T13:10:12.553Z</time></trkpt><trkpt lat="45.9387868" lon="9.3124826"><ele>204.75</ele><time>2026-05-03T13:10:13.548Z</time></trkpt><trkpt lat="45.9386677" lon="9.3124958"><ele>205.0</ele><time>2026-05-03T13:10:14.552Z</time></trkpt><trkpt lat="45.9385522" lon="9.3125158"><ele>205.0</ele><time>2026-05-03T13:10:15.545Z</time></trkpt><trkpt lat="45.9384382" lon="9.3125384"><ele>205.0</ele><time>2026-05-03T13:10:16.539Z</time></trkpt><trkpt lat="45.9383377" lon="9.3125697"><ele>205.0</ele><time>2026-05-03T13:10:17.561Z</time></trkpt><trkpt lat="45.9382482" lon="9.3125899"><ele>205.0</ele><time>2026-05-03T13:10:18.556Z</time></trkpt><trkpt lat="45.9381694" lon="9.3126063"><ele>205.0</ele><time>2026-05-03T13:10:19.552Z</time></trkpt><trkpt lat="45.9381033" lon="9.3126144"><ele>204.83333333333331</ele><time>2026-05-03T13:10:20.557Z</time></trkpt><trkpt lat="45.9380027" lon="9.3126156"><ele>204.66666666666666</ele><time>2026-05-03T13:10:22.558Z</time></trkpt><trkpt lat="45.9379344" lon="9.3126204"><ele>204.5</ele><time>2026-05-03T13:10:24.564Z</time></trkpt><trkpt lat="45.9378694" lon="9.3126357"><ele>204.33333333333331</ele><time>2026-05-03T13:10:29.571Z</time></trkpt><trkpt lat="45.9377677" lon="9.3126514"><ele>204.16666666666666</ele><time>2026-05-03T13:10:38.566Z</time></trkpt><trkpt lat="45.9376763" lon="9.3126587"><ele>204.0</ele><time>2026-05-03T13:10:39.56Z</time></trkpt><trkpt lat="45.9375563" lon="9.3126675"><ele>203.25</ele><time>2026-05-03T13:10:40.561Z</time></trkpt><trkpt lat="45.9374281" lon="9.3126779"><ele>202.5</ele><time>2026-05-03T13:10:41.556Z</time></trkpt><trkpt lat="45.9372866" lon="9.3126819"><ele>201.75</ele><time>2026-05-03T13:10:42.561Z</time></trkpt><trkpt lat="45.937139" lon="9.3126889"><ele>201.0</ele><time>2026-05-03T13:10:43.563Z</time></trkpt><trkpt lat="45.9369665" lon="9.3126871"><ele>201.0</ele><time>2026-05-03T13:10:44.567Z</time></trkpt><trkpt lat="45.9368014" lon="9.3127153"><ele>201.0</ele><time>2026-05-03T13:10:45.558Z</time></trkpt><trkpt lat="45.936642" lon="9.3127247"><ele>201.0</ele><time>2026-05-03T13:10:46.561Z</time></trkpt><trkpt lat="45.9364745" lon="9.3127313"><ele>201.0</ele><time>2026-05-03T13:10:47.557Z</time></trkpt><trkpt lat="45.9363201" lon="9.3127522"><ele>201.0</ele><time>2026-05-03T13:10:48.562Z</time></trkpt><trkpt lat="45.9361517" lon="9.3127667"><ele>201.0</ele><time>2026-05-03T13:10:49.558Z</time></trkpt><trkpt lat="45.9360106" lon="9.3127778"><ele>200.75</ele><time>2026-05-03T13:10:50.566Z</time></trkpt><trkpt lat="45.9358624" lon="9.3127896"><ele>200.5</ele><time>2026-05-03T13:10:51.56Z</time></trkpt><trkpt lat="45.9357151" lon="9.3128002"><ele>200.25</ele><time>2026-05-03T13:10:52.56Z</time></trkpt><trkpt lat="45.9355717" lon="9.3127926"><ele>200.0</ele><time>2026-05-03T13:10:53.561Z</time></trkpt><trkpt lat="45.9354113" lon="9.3127731"><ele>200.0</ele><time>2026-05-03T13:10:54.561Z</time></trkpt><trkpt lat="45.9352635" lon="9.3127645"><ele>200.0</ele><time>2026-05-03T13:10:55.553Z</time></trkpt><trkpt lat="45.9351126" lon="9.3127549"><ele>200.0</ele><time>2026-05-03T13:10:56.558Z</time></trkpt><trkpt lat="45.9349458" lon="9.312687"><ele>200.66666666666669</ele><time>2026-05-03T13:10:57.56Z</time></trkpt><trkpt lat="45.9347801" lon="9.3126626"><ele>201.33333333333331</ele><time>2026-05-03T13:10:58.561Z</time></trkpt><trkpt lat="45.9346221" lon="9.3126208"><ele>202.0</ele><time>2026-05-03T13:10:59.562Z</time></trkpt><trkpt lat="45.9344579" lon="9.3125851"><ele>202.0</ele><time>2026-05-03T13:11:00.564Z</time></trkpt><trkpt lat="45.934281" lon="9.3125429"><ele>202.0</ele><time>2026-05-03T13:11:01.561Z</time></trkpt><trkpt lat="45.9341072" lon="9.3124943"><ele>202.0</ele><time>2026-05-03T13:11:02.566Z</time></trkpt><trkpt lat="45.9339299" lon="9.3124496"><ele>204.0</ele><time>2026-05-03T13:11:03.561Z</time></trkpt><trkpt lat="45.9337614" lon="9.3124308"><ele>206.0</ele><time>2026-05-03T13:11:04.559Z</time></trkpt><trkpt lat="45.9335815" lon="9.3124252"><ele>208.0</ele><time>2026-05-03T13:11:05.562Z</time></trkpt><trkpt lat="45.9334031" lon="9.3124282"><ele>208.33333333333331</ele><time>2026-05-03T13:11:06.561Z</time></trkpt><trkpt lat="45.933237" lon="9.3124165"><ele>208.66666666666669</ele><time>2026-05-03T13:11:07.563Z</time></trkpt><trkpt lat="45.9330697" lon="9.3124187"><ele>209.0</ele><time>2026-05-03T13:11:08.561Z</time></trkpt><trkpt lat="45.9328912" lon="9.3124126"><ele>209.0</ele><time>2026-05-03T13:11:09.559Z</time></trkpt><trkpt lat="45.9327307" lon="9.3124082"><ele>209.0</ele><time>2026-05-03T13:11:10.56Z</time></trkpt><trkpt lat="45.9325766" lon="9.3123649"><ele>209.0</ele><time>2026-05-03T13:11:11.552Z</time></trkpt><trkpt lat="45.9324211" lon="9.3123044"><ele>207.0</ele><time>2026-05-03T13:11:12.558Z</time></trkpt><trkpt lat="45.9322737" lon="9.3121979"><ele>205.0</ele><time>2026-05-03T13:11:13.553Z</time></trkpt><trkpt lat="45.9321806" lon="9.3120746"><ele>203.0</ele><time>2026-05-03T13:11:14.558Z</time></trkpt><trkpt lat="45.9320818" lon="9.3119456"><ele>201.0</ele><time>2026-05-03T13:11:15.559Z</time></trkpt><trkpt lat="45.9319719" lon="9.3118226"><ele>201.0</ele><time>2026-05-03T13:11:16.558Z</time></trkpt><trkpt lat="45.9318716" lon="9.3116631"><ele>201.0</ele><time>2026-05-03T13:11:17.553Z</time></trkpt><trkpt lat="45.9317194" lon="9.3115576"><ele>201.0</ele><time>2026-05-03T13:11:18.56Z</time></trkpt><trkpt lat="45.9315624" lon="9.3114853"><ele>204.33333333333331</ele><time>2026-05-03T13:11:19.569Z</time></trkpt><trkpt lat="45.9313998" lon="9.3114905"><ele>207.66666666666666</ele><time>2026-05-03T13:11:20.56Z</time></trkpt><trkpt lat="45.9312353" lon="9.3115191"><ele>211.0</ele><time>2026-05-03T13:11:21.56Z</time></trkpt><trkpt lat="45.9310745" lon="9.3116178"><ele>211.0</ele><time>2026-05-03T13:11:22.557Z</time></trkpt><trkpt lat="45.9309103" lon="9.3117036"><ele>211.0</ele><time>2026-05-03T13:11:23.563Z</time></trkpt><trkpt lat="45.9307538" lon="9.3118014"><ele>211.0</ele><time>2026-05-03T13:11:24.555Z</time></trkpt><trkpt lat="45.9306117" lon="9.311889"><ele>209.33333333333331</ele><time>2026-05-03T13:11:25.554Z</time></trkpt><trkpt lat="45.9304549" lon="9.3119746"><ele>207.66666666666669</ele><time>2026-05-03T13:11:26.554Z</time></trkpt><trkpt lat="45.9303173" lon="9.3120917"><ele>206.0</ele><time>2026-05-03T13:11:27.555Z</time></trkpt><trkpt lat="45.9301705" lon="9.3122281"><ele>208.66666666666669</ele><time>2026-05-03T13:11:28.56Z</time></trkpt><trkpt lat="45.9300389" lon="9.3123617"><ele>211.33333333333331</ele><time>2026-05-03T13:11:29.558Z</time></trkpt><trkpt lat="45.92992" lon="9.3124912"><ele>214.0</ele><time>2026-05-03T13:11:30.55Z</time></trkpt><trkpt lat="45.929775" lon="9.3125934"><ele>214.0</ele><time>2026-05-03T13:11:31.552Z</time></trkpt><trkpt lat="45.9296345" lon="9.3126538"><ele>214.0</ele><time>2026-05-03T13:11:32.554Z</time></trkpt><trkpt lat="45.929492" lon="9.3126697"><ele>214.0</ele><time>2026-05-03T13:11:33.548Z</time></trkpt><trkpt lat="45.9293323" lon="9.3126486"><ele>212.33333333333331</ele><time>2026-05-03T13:11:34.544Z</time></trkpt><trkpt lat="45.929156" lon="9.3126065"><ele>210.66666666666669</ele><time>2026-05-03T13:11:35.551Z</time></trkpt><trkpt lat="45.9290222" lon="9.3125473"><ele>209.0</ele><time>2026-05-03T13:11:36.553Z</time></trkpt><trkpt lat="45.9288976" lon="9.3124859"><ele>209.0</ele><time>2026-05-03T13:11:37.56Z</time></trkpt><trkpt lat="45.928751" lon="9.3124407"><ele>209.0</ele><time>2026-05-03T13:11:38.564Z</time></trkpt><trkpt lat="45.9286" lon="9.312401"><ele>209.0</ele><time>2026-05-03T13:11:39.563Z</time></trkpt><trkpt lat="45.9284383" lon="9.3123463"><ele>210.66666666666669</ele><time>2026-05-03T13:11:40.556Z</time></trkpt><trkpt lat="45.9282876" lon="9.3122941"><ele>212.33333333333331</ele><time>2026-05-03T13:11:41.563Z</time></trkpt><trkpt lat="45.9281279" lon="9.3122446"><ele>214.0</ele><time>2026-05-03T13:11:42.555Z</time></trkpt><trkpt lat="45.9279681" lon="9.3121592"><ele>212.0</ele><time>2026-05-03T13:11:43.563Z</time></trkpt><trkpt lat="45.9278157" lon="9.3120808"><ele>210.0</ele><time>2026-05-03T13:11:44.564Z</time></trkpt><trkpt lat="45.9276602" lon="9.3120234"><ele>208.0</ele><time>2026-05-03T13:11:45.562Z</time></trkpt><trkpt lat="45.9275038" lon="9.3119687"><ele>208.0</ele><time>2026-05-03T13:11:46.569Z</time></trkpt><trkpt lat="45.9273311" lon="9.3119147"><ele>208.0</ele><time>2026-05-03T13:11:47.563Z</time></trkpt><trkpt lat="45.9271589" lon="9.3118812"><ele>208.0</ele><time>2026-05-03T13:11:48.566Z</time></trkpt><trkpt lat="45.9269929" lon="9.311863"><ele>208.0</ele><time>2026-05-03T13:11:49.562Z</time></trkpt><trkpt lat="45.9268172" lon="9.3118784"><ele>208.0</ele><time>2026-05-03T13:11:50.566Z</time></trkpt><trkpt lat="45.926636" lon="9.3118727"><ele>208.0</ele><time>2026-05-03T13:11:51.566Z</time></trkpt><trkpt lat="45.9264579" lon="9.3118567"><ele>209.66666666666666</ele><time>2026-05-03T13:11:52.563Z</time></trkpt><trkpt lat="45.926269" lon="9.3118564"><ele>211.33333333333331</ele><time>2026-05-03T13:11:53.566Z</time></trkpt><trkpt lat="45.926097" lon="9.3118913"><ele>213.0</ele><time>2026-05-03T13:11:54.568Z</time></trkpt><trkpt lat="45.9259211" lon="9.3119088"><ele>214.33333333333331</ele><time>2026-05-03T13:11:55.565Z</time></trkpt><trkpt lat="45.9257542" lon="9.3119459"><ele>215.66666666666666</ele><time>2026-05-03T13:11:56.565Z</time></trkpt><trkpt lat="45.925583" lon="9.3119727"><ele>217.0</ele><time>2026-05-03T13:11:57.561Z</time></trkpt><trkpt lat="45.9254215" lon="9.3120113"><ele>217.0</ele><time>2026-05-03T13:11:58.557Z</time></trkpt><trkpt lat="45.9252557" lon="9.3120437"><ele>217.0</ele><time>2026-05-03T13:11:59.574Z</time></trkpt><trkpt lat="45.9250926" lon="9.3120875"><ele>217.0</ele><time>2026-05-03T13:12:00.565Z</time></trkpt><trkpt lat="45.9249351" lon="9.3121296"><ele>215.66666666666666</ele><time>2026-05-03T13:12:01.565Z</time></trkpt><trkpt lat="45.9247778" lon="9.3121561"><ele>214.33333333333331</ele><time>2026-05-03T13:12:02.569Z</time></trkpt><trkpt lat="45.9246176" lon="9.3121902"><ele>213.0</ele><time>2026-05-03T13:12:03.568Z</time></trkpt><trkpt lat="45.9244617" lon="9.3122267"><ele>215.33333333333331</ele><time>2026-05-03T13:12:04.566Z</time></trkpt><trkpt lat="45.9243042" lon="9.3122786"><ele>217.66666666666666</ele><time>2026-05-03T13:12:05.561Z</time></trkpt><trkpt lat="45.9241545" lon="9.3123275"><ele>220.0</ele><time>2026-05-03T13:12:06.566Z</time></trkpt><trkpt lat="45.924014" lon="9.3123792"><ele>220.0</ele><time>2026-05-03T13:12:07.564Z</time></trkpt><trkpt lat="45.9238713" lon="9.3124232"><ele>220.0</ele><time>2026-05-03T13:12:08.563Z</time></trkpt><trkpt lat="45.9237281" lon="9.312451"><ele>220.0</ele><time>2026-05-03T13:12:09.557Z</time></trkpt><trkpt lat="45.9235927" lon="9.3124838"><ele>220.0</ele><time>2026-05-03T13:12:10.564Z</time></trkpt><trkpt lat="45.9234551" lon="9.3125138"><ele>219.75</ele><time>2026-05-03T13:12:11.561Z</time></trkpt><trkpt lat="45.9233366" lon="9.3125403"><ele>219.5</ele><time>2026-05-03T13:12:12.559Z</time></trkpt><trkpt lat="45.9231946" lon="9.3125752"><ele>219.25</ele><time>2026-05-03T13:12:13.558Z</time></trkpt><trkpt lat="45.9230626" lon="9.3126191"><ele>219.0</ele><time>2026-05-03T13:12:14.56Z</time></trkpt><trkpt lat="45.9229349" lon="9.312638"><ele>219.0</ele><time>2026-05-03T13:12:15.568Z</time></trkpt><trkpt lat="45.9227953" lon="9.3126802"><ele>219.0</ele><time>2026-05-03T13:12:16.563Z</time></trkpt><trkpt lat="45.922667" lon="9.3127153"><ele>219.0</ele><time>2026-05-03T13:12:17.569Z</time></trkpt><trkpt lat="45.9225386" lon="9.3127522"><ele>219.0</ele><time>2026-05-03T13:12:18.568Z</time></trkpt><trkpt lat="45.9223978" lon="9.3127911"><ele>218.5</ele><time>2026-05-03T13:12:19.574Z</time></trkpt><trkpt lat="45.9222753" lon="9.3128406"><ele>218.0</ele><time>2026-05-03T13:12:20.563Z</time></trkpt><trkpt lat="45.9221589" lon="9.3128767"><ele>217.5</ele><time>2026-05-03T13:12:21.571Z</time></trkpt><trkpt lat="45.9220552" lon="9.3129163"><ele>217.0</ele><time>2026-05-03T13:12:22.567Z</time></trkpt><trkpt lat="45.9219531" lon="9.3129529"><ele>217.0</ele><time>2026-05-03T13:12:23.563Z</time></trkpt><trkpt lat="45.9218578" lon="9.3129562"><ele>217.0</ele><time>2026-05-03T13:12:24.563Z</time></trkpt><trkpt lat="45.9217733" lon="9.3129737"><ele>217.0</ele><time>2026-05-03T13:12:25.562Z</time></trkpt><trkpt lat="45.9216812" lon="9.3129988"><ele>217.0</ele><time>2026-05-03T13:12:26.563Z</time></trkpt><trkpt lat="45.9215877" lon="9.3130249"><ele>217.0</ele><time>2026-05-03T13:12:27.568Z</time></trkpt><trkpt lat="45.921503" lon="9.3130588"><ele>217.49999999999997</ele><time>2026-05-03T13:12:28.565Z</time></trkpt><trkpt lat="45.9214181" lon="9.313091"><ele>218.0</ele><time>2026-05-03T13:12:29.565Z</time></trkpt><trkpt lat="45.9213379" lon="9.3131232"><ele>218.5</ele><time>2026-05-03T13:12:30.563Z</time></trkpt><trkpt lat="45.9212624" lon="9.3131647"><ele>219.0</ele><time>2026-05-03T13:12:31.567Z</time></trkpt><trkpt lat="45.9211848" lon="9.3132102"><ele>219.49999999999997</ele><time>2026-05-03T13:12:32.564Z</time></trkpt><trkpt lat="45.9211015" lon="9.3132613"><ele>220.0</ele><time>2026-05-03T13:12:33.56Z</time></trkpt><trkpt lat="45.921029" lon="9.3133134"><ele>220.0</ele><time>2026-05-03T13:12:34.561Z</time></trkpt><trkpt lat="45.9209635" lon="9.3133609"><ele>220.0</ele><time>2026-05-03T13:12:35.565Z</time></trkpt><trkpt lat="45.9209062" lon="9.3134013"><ele>220.0</ele><time>2026-05-03T13:12:36.554Z</time></trkpt><trkpt lat="45.9207987" lon="9.3134809"><ele>220.0</ele><time>2026-05-03T13:12:38.561Z</time></trkpt><trkpt lat="45.920697" lon="9.3135846"><ele>220.0</ele><time>2026-05-03T13:12:40.562Z</time></trkpt><trkpt lat="45.9205992" lon="9.3136996"><ele>220.25</ele><time>2026-05-03T13:12:42.556Z</time></trkpt><trkpt lat="45.9205344" lon="9.3137751"><ele>220.5</ele><time>2026-05-03T13:12:43.548Z</time></trkpt><trkpt lat="45.9204432" lon="9.3138679"><ele>220.75</ele><time>2026-05-03T13:12:44.567Z</time></trkpt><trkpt lat="45.9203257" lon="9.3139654"><ele>221.0</ele><time>2026-05-03T13:12:45.56Z</time></trkpt><trkpt lat="45.920195" lon="9.3140681"><ele>219.0</ele><time>2026-05-03T13:12:46.558Z</time></trkpt><trkpt lat="45.9200192" lon="9.314229"><ele>217.0</ele><time>2026-05-03T13:12:47.565Z</time></trkpt><trkpt lat="45.9198678" lon="9.3144028"><ele>215.0</ele><time>2026-05-03T13:12:48.563Z</time></trkpt><trkpt lat="45.9197374" lon="9.3145435"><ele>215.0</ele><time>2026-05-03T13:12:49.569Z</time></trkpt><trkpt lat="45.9196134" lon="9.3146549"><ele>215.0</ele><time>2026-05-03T13:12:50.567Z</time></trkpt><trkpt lat="45.9195004" lon="9.3147648"><ele>215.0</ele><time>2026-05-03T13:12:51.563Z</time></trkpt><trkpt lat="45.9194032" lon="9.3148581"><ele>215.0</ele><time>2026-05-03T13:12:52.566Z</time></trkpt><trkpt lat="45.9193187" lon="9.3149371"><ele>214.83333333333334</ele><time>2026-05-03T13:12:53.571Z</time></trkpt><trkpt lat="45.9192404" lon="9.3150239"><ele>214.66666666666669</ele><time>2026-05-03T13:12:54.566Z</time></trkpt><trkpt lat="45.9191577" lon="9.3150968"><ele>214.5</ele><time>2026-05-03T13:12:55.566Z</time></trkpt><trkpt lat="45.9190943" lon="9.3151668"><ele>214.33333333333331</ele><time>2026-05-03T13:12:56.566Z</time></trkpt><trkpt lat="45.919016" lon="9.315222"><ele>214.16666666666666</ele><time>2026-05-03T13:12:57.56Z</time></trkpt><trkpt lat="45.9189486" lon="9.3152378"><ele>214.0</ele><time>2026-05-03T13:12:58.561Z</time></trkpt><trkpt lat="45.9188378" lon="9.3152563"><ele>213.99999999999997</ele><time>2026-05-03T13:13:00.564Z</time></trkpt><trkpt lat="45.9187801" lon="9.3153248"><ele>214.0</ele><time>2026-05-03T13:13:02.57Z</time></trkpt><trkpt lat="45.9187362" lon="9.3154735"><ele>214.0</ele><time>2026-05-03T13:13:04.566Z</time></trkpt><trkpt lat="45.9187108" lon="9.3155775"><ele>214.0</ele><time>2026-05-03T13:13:05.558Z</time></trkpt><trkpt lat="45.9186695" lon="9.315683"><ele>213.99999999999997</ele><time>2026-05-03T13:13:06.558Z</time></trkpt><trkpt lat="45.9186131" lon="9.3157796"><ele>214.0</ele><time>2026-05-03T13:13:07.561Z</time></trkpt><trkpt lat="45.9185515" lon="9.3158663"><ele>214.39999999999998</ele><time>2026-05-03T13:13:08.572Z</time></trkpt><trkpt lat="45.9184837" lon="9.3159513"><ele>214.79999999999998</ele><time>2026-05-03T13:13:09.562Z</time></trkpt><trkpt lat="45.9184131" lon="9.316041"><ele>215.20000000000002</ele><time>2026-05-03T13:13:10.563Z</time></trkpt><trkpt lat="45.9183397" lon="9.3161314"><ele>215.60000000000002</ele><time>2026-05-03T13:13:11.563Z</time></trkpt><trkpt lat="45.9182711" lon="9.3162271"><ele>216.0</ele><time>2026-05-03T13:13:12.563Z</time></trkpt><trkpt lat="45.918202" lon="9.3163228"><ele>216.20000000000002</ele><time>2026-05-03T13:13:13.566Z</time></trkpt><trkpt lat="45.9181372" lon="9.3164243"><ele>216.40000000000003</ele><time>2026-05-03T13:13:14.554Z</time></trkpt><trkpt lat="45.9180688" lon="9.3165276"><ele>216.6</ele><time>2026-05-03T13:13:15.56Z</time></trkpt><trkpt lat="45.9180002" lon="9.3166323"><ele>216.8</ele><time>2026-05-03T13:13:16.56Z</time></trkpt><trkpt lat="45.9179293" lon="9.3167396"><ele>217.0</ele><time>2026-05-03T13:13:17.554Z</time></trkpt><trkpt lat="45.9178556" lon="9.3168595"><ele>217.0</ele><time>2026-05-03T13:13:18.569Z</time></trkpt><trkpt lat="45.9177892" lon="9.3169822"><ele>217.0</ele><time>2026-05-03T13:13:19.571Z</time></trkpt><trkpt lat="45.9177243" lon="9.3171067"><ele>217.0</ele><time>2026-05-03T13:13:20.564Z</time></trkpt><trkpt lat="45.9176625" lon="9.3172268"><ele>217.0</ele><time>2026-05-03T13:13:21.565Z</time></trkpt><trkpt lat="45.9176008" lon="9.3173457"><ele>217.0</ele><time>2026-05-03T13:13:22.565Z</time></trkpt><trkpt lat="45.9175382" lon="9.3174639"><ele>216.6</ele><time>2026-05-03T13:13:23.57Z</time></trkpt><trkpt lat="45.9174787" lon="9.317582"><ele>216.2</ele><time>2026-05-03T13:13:24.567Z</time></trkpt><trkpt lat="45.9174202" lon="9.3177016"><ele>215.8</ele><time>2026-05-03T13:13:25.566Z</time></trkpt><trkpt lat="45.9173609" lon="9.3178206"><ele>215.4</ele><time>2026-05-03T13:13:26.566Z</time></trkpt><trkpt lat="45.9172991" lon="9.3179409"><ele>215.0</ele><time>2026-05-03T13:13:27.555Z</time></trkpt><trkpt lat="45.9172349" lon="9.3180582"><ele>215.6</ele><time>2026-05-03T13:13:28.563Z</time></trkpt><trkpt lat="45.9171644" lon="9.3181662"><ele>216.2</ele><time>2026-05-03T13:13:29.564Z</time></trkpt><trkpt lat="45.9170856" lon="9.3182631"><ele>216.8</ele><time>2026-05-03T13:13:30.558Z</time></trkpt><trkpt lat="45.9169996" lon="9.3183581"><ele>217.4</ele><time>2026-05-03T13:13:31.57Z</time></trkpt><trkpt lat="45.9169092" lon="9.3184474"><ele>218.0</ele><time>2026-05-03T13:13:32.559Z</time></trkpt><trkpt lat="45.9168132" lon="9.3185315"><ele>216.8</ele><time>2026-05-03T13:13:33.548Z</time></trkpt><trkpt lat="45.9167183" lon="9.3186065"><ele>215.60000000000002</ele><time>2026-05-03T13:13:34.567Z</time></trkpt><trkpt lat="45.9166209" lon="9.3186762"><ele>214.39999999999998</ele><time>2026-05-03T13:13:35.564Z</time></trkpt><trkpt lat="45.9165222" lon="9.3187397"><ele>213.2</ele><time>2026-05-03T13:13:36.556Z</time></trkpt><trkpt lat="45.9164355" lon="9.3188036"><ele>212.0</ele><time>2026-05-03T13:13:37.561Z</time></trkpt><trkpt lat="45.9163596" lon="9.3188753"><ele>212.6</ele><time>2026-05-03T13:13:38.561Z</time></trkpt><trkpt lat="45.9162915" lon="9.3189574"><ele>213.2</ele><time>2026-05-03T13:13:39.559Z</time></trkpt><trkpt lat="45.9162283" lon="9.3190571"><ele>213.8</ele><time>2026-05-03T13:13:40.569Z</time></trkpt><trkpt lat="45.9161662" lon="9.3191644"><ele>214.4</ele><time>2026-05-03T13:13:41.559Z</time></trkpt><trkpt lat="45.9161104" lon="9.3192939"><ele>215.0</ele><time>2026-05-03T13:13:42.572Z</time></trkpt><trkpt lat="45.9160483" lon="9.3194228"><ele>215.0</ele><time>2026-05-03T13:13:43.567Z</time></trkpt><trkpt lat="45.9159792" lon="9.3195667"><ele>215.0</ele><time>2026-05-03T13:13:44.562Z</time></trkpt><trkpt lat="45.9159015" lon="9.3197246"><ele>215.0</ele><time>2026-05-03T13:13:45.561Z</time></trkpt><trkpt lat="45.9158123" lon="9.3198945"><ele>215.0</ele><time>2026-05-03T13:13:46.56Z</time></trkpt><trkpt lat="45.9157283" lon="9.3200534"><ele>214.6</ele><time>2026-05-03T13:13:47.567Z</time></trkpt><trkpt lat="45.9156444" lon="9.320188"><ele>214.2</ele><time>2026-05-03T13:13:48.565Z</time></trkpt><trkpt lat="45.9155937" lon="9.3203011"><ele>213.8</ele><time>2026-05-03T13:13:49.565Z</time></trkpt><trkpt lat="45.9155302" lon="9.3204308"><ele>213.4</ele><time>2026-05-03T13:13:50.565Z</time></trkpt><trkpt lat="45.9154797" lon="9.320546"><ele>213.0</ele><time>2026-05-03T13:13:51.567Z</time></trkpt><trkpt lat="45.9154459" lon="9.3206551"><ele>213.0</ele><time>2026-05-03T13:13:52.565Z</time></trkpt><trkpt lat="45.9153964" lon="9.320772"><ele>213.0</ele><time>2026-05-03T13:13:53.569Z</time></trkpt><trkpt lat="45.915341" lon="9.3208849"><ele>213.0</ele><time>2026-05-03T13:13:54.556Z</time></trkpt><trkpt lat="45.9152823" lon="9.3209895"><ele>213.0</ele><time>2026-05-03T13:13:55.565Z</time></trkpt><trkpt lat="45.9152309" lon="9.32109"><ele>213.0</ele><time>2026-05-03T13:13:56.566Z</time></trkpt><trkpt lat="45.9151764" lon="9.3211926"><ele>213.0</ele><time>2026-05-03T13:13:57.569Z</time></trkpt><trkpt lat="45.9151167" lon="9.3213029"><ele>213.0</ele><time>2026-05-03T13:13:58.573Z</time></trkpt><trkpt lat="45.9150583" lon="9.3214035"><ele>213.0</ele><time>2026-05-03T13:13:59.569Z</time></trkpt><trkpt lat="45.9150002" lon="9.3215005"><ele>213.0</ele><time>2026-05-03T13:14:00.567Z</time></trkpt><trkpt lat="45.9149418" lon="9.3215978"><ele>213.0</ele><time>2026-05-03T13:14:01.567Z</time></trkpt><trkpt lat="45.9148867" lon="9.3217027"><ele>213.16666666666666</ele><time>2026-05-03T13:14:02.561Z</time></trkpt><trkpt lat="45.9148277" lon="9.3218001"><ele>213.33333333333331</ele><time>2026-05-03T13:14:03.567Z</time></trkpt><trkpt lat="45.9147736" lon="9.3218968"><ele>213.5</ele><time>2026-05-03T13:14:04.561Z</time></trkpt><trkpt lat="45.9147175" lon="9.321991"><ele>213.66666666666666</ele><time>2026-05-03T13:14:05.566Z</time></trkpt><trkpt lat="45.9146706" lon="9.3220778"><ele>213.83333333333331</ele><time>2026-05-03T13:14:06.567Z</time></trkpt><trkpt lat="45.9146243" lon="9.3221626"><ele>214.0</ele><time>2026-05-03T13:14:07.562Z</time></trkpt><trkpt lat="45.9145635" lon="9.3222838"><ele>213.6</ele><time>2026-05-03T13:14:09.564Z</time></trkpt><trkpt lat="45.914523" lon="9.3223987"><ele>213.2</ele><time>2026-05-03T13:14:13.578Z</time></trkpt><trkpt lat="45.9144343" lon="9.3225642"><ele>212.79999999999998</ele><time>2026-05-03T13:14:15.57Z</time></trkpt><trkpt lat="45.9143881" lon="9.3226586"><ele>212.39999999999998</ele><time>2026-05-03T13:14:16.567Z</time></trkpt><trkpt lat="45.914351" lon="9.3227324"><ele>212.0</ele><time>2026-05-03T13:14:17.572Z</time></trkpt><trkpt lat="45.9142879" lon="9.322862"><ele>211.83333333333334</ele><time>2026-05-03T13:14:19.57Z</time></trkpt><trkpt lat="45.9142208" lon="9.3229643"><ele>211.66666666666669</ele><time>2026-05-03T13:14:21.57Z</time></trkpt><trkpt lat="45.914169" lon="9.3230331"><ele>211.5</ele><time>2026-05-03T13:14:22.566Z</time></trkpt><trkpt lat="45.9141006" lon="9.3231042"><ele>211.33333333333331</ele><time>2026-05-03T13:14:23.572Z</time></trkpt><trkpt lat="45.9140241" lon="9.3231639"><ele>211.16666666666666</ele><time>2026-05-03T13:14:24.563Z</time></trkpt><trkpt lat="45.9139436" lon="9.32321"><ele>211.0</ele><time>2026-05-03T13:14:25.573Z</time></trkpt><trkpt lat="45.9138569" lon="9.3232538"><ele>211.0</ele><time>2026-05-03T13:14:26.573Z</time></trkpt><trkpt lat="45.9137642" lon="9.3233053"><ele>211.0</ele><time>2026-05-03T13:14:27.561Z</time></trkpt><trkpt lat="45.91365" lon="9.3233651"><ele>211.0</ele><time>2026-05-03T13:14:28.573Z</time></trkpt><trkpt lat="45.9135217" lon="9.3234303"><ele>211.0</ele><time>2026-05-03T13:14:29.565Z</time></trkpt><trkpt lat="45.9133895" lon="9.3234961"><ele>209.5</ele><time>2026-05-03T13:14:30.569Z</time></trkpt><trkpt lat="45.9132606" lon="9.3235587"><ele>208.0</ele><time>2026-05-03T13:14:31.571Z</time></trkpt><trkpt lat="45.9131294" lon="9.3236245"><ele>206.5</ele><time>2026-05-03T13:14:32.568Z</time></trkpt><trkpt lat="45.9130054" lon="9.323692"><ele>205.0</ele><time>2026-05-03T13:14:33.573Z</time></trkpt><trkpt lat="45.9128705" lon="9.3237686"><ele>205.0</ele><time>2026-05-03T13:14:34.569Z</time></trkpt><trkpt lat="45.9126912" lon="9.3238412"><ele>205.0</ele><time>2026-05-03T13:14:35.572Z</time></trkpt><trkpt lat="45.9125058" lon="9.3239222"><ele>205.0</ele><time>2026-05-03T13:14:36.564Z</time></trkpt><trkpt lat="45.9123276" lon="9.3240355"><ele>205.0</ele><time>2026-05-03T13:14:37.573Z</time></trkpt><trkpt lat="45.9121631" lon="9.3241345"><ele>205.0</ele><time>2026-05-03T13:14:38.57Z</time></trkpt><trkpt lat="45.9120084" lon="9.3242034"><ele>205.0</ele><time>2026-05-03T13:14:39.567Z</time></trkpt><trkpt lat="45.9118795" lon="9.3242533"><ele>205.0</ele><time>2026-05-03T13:14:40.559Z</time></trkpt><trkpt lat="45.9117574" lon="9.3242927"><ele>205.0</ele><time>2026-05-03T13:14:41.567Z</time></trkpt><trkpt lat="45.911637" lon="9.3243458"><ele>205.0</ele><time>2026-05-03T13:14:42.565Z</time></trkpt><trkpt lat="45.9115418" lon="9.3244171"><ele>205.0</ele><time>2026-05-03T13:14:43.56Z</time></trkpt><trkpt lat="45.911463" lon="9.324504"><ele>204.4</ele><time>2026-05-03T13:14:44.561Z</time></trkpt><trkpt lat="45.9113881" lon="9.3245963"><ele>203.8</ele><time>2026-05-03T13:14:45.552Z</time></trkpt><trkpt lat="45.9113171" lon="9.3247146"><ele>203.2</ele><time>2026-05-03T13:14:46.553Z</time></trkpt><trkpt lat="45.9112544" lon="9.3248445"><ele>202.6</ele><time>2026-05-03T13:14:47.551Z</time></trkpt><trkpt lat="45.9112094" lon="9.3249706"><ele>202.0</ele><time>2026-05-03T13:14:48.552Z</time></trkpt><trkpt lat="45.9111652" lon="9.3250952"><ele>203.66666666666666</ele><time>2026-05-03T13:14:49.552Z</time></trkpt><trkpt lat="45.9111238" lon="9.3252197"><ele>205.33333333333331</ele><time>2026-05-03T13:14:50.553Z</time></trkpt><trkpt lat="45.9110853" lon="9.3253324"><ele>207.0</ele><time>2026-05-03T13:14:51.558Z</time></trkpt><trkpt lat="45.9110402" lon="9.3254322"><ele>208.66666666666669</ele><time>2026-05-03T13:14:52.55Z</time></trkpt><trkpt lat="45.9109984" lon="9.3255393"><ele>210.33333333333334</ele><time>2026-05-03T13:14:53.557Z</time></trkpt><trkpt lat="45.9109529" lon="9.3256621"><ele>212.0</ele><time>2026-05-03T13:14:54.554Z</time></trkpt><trkpt lat="45.9108938" lon="9.3257865"><ele>212.0</ele><time>2026-05-03T13:14:55.548Z</time></trkpt><trkpt lat="45.910828" lon="9.325913"><ele>212.0</ele><time>2026-05-03T13:14:56.542Z</time></trkpt><trkpt lat="45.9107525" lon="9.326037"><ele>212.0</ele><time>2026-05-03T13:14:57.544Z</time></trkpt><trkpt lat="45.9106621" lon="9.3261349"><ele>212.0</ele><time>2026-05-03T13:14:58.547Z</time></trkpt><trkpt lat="45.9105514" lon="9.3262231"><ele>212.0</ele><time>2026-05-03T13:14:59.548Z</time></trkpt><trkpt lat="45.9104274" lon="9.3263032"><ele>212.0</ele><time>2026-05-03T13:15:00.556Z</time></trkpt><trkpt lat="45.910295" lon="9.3263504"><ele>212.0</ele><time>2026-05-03T13:15:01.569Z</time></trkpt><trkpt lat="45.9101716" lon="9.326379"><ele>212.0</ele><time>2026-05-03T13:15:02.566Z</time></trkpt><trkpt lat="45.9100525" lon="9.3264009"><ele>211.2</ele><time>2026-05-03T13:15:03.563Z</time></trkpt><trkpt lat="45.9099441" lon="9.3264301"><ele>210.39999999999998</ele><time>2026-05-03T13:15:04.564Z</time></trkpt><trkpt lat="45.9098376" lon="9.3264755"><ele>209.60000000000002</ele><time>2026-05-03T13:15:05.567Z</time></trkpt><trkpt lat="45.9097362" lon="9.3265241"><ele>208.8</ele><time>2026-05-03T13:15:06.562Z</time></trkpt><trkpt lat="45.9096338" lon="9.3265903"><ele>208.0</ele><time>2026-05-03T13:15:07.561Z</time></trkpt><trkpt lat="45.9095338" lon="9.3266774"><ele>208.0</ele><time>2026-05-03T13:15:08.566Z</time></trkpt><trkpt lat="45.9094412" lon="9.3267678"><ele>208.0</ele><time>2026-05-03T13:15:09.576Z</time></trkpt><trkpt lat="45.9093579" lon="9.3268561"><ele>208.0</ele><time>2026-05-03T13:15:10.564Z</time></trkpt><trkpt lat="45.9092815" lon="9.3269375"><ele>208.0</ele><time>2026-05-03T13:15:11.568Z</time></trkpt><trkpt lat="45.9092105" lon="9.327016"><ele>208.0</ele><time>2026-05-03T13:15:12.565Z</time></trkpt><trkpt lat="45.9091326" lon="9.3270981"><ele>208.2</ele><time>2026-05-03T13:15:13.566Z</time></trkpt><trkpt lat="45.9090535" lon="9.3271751"><ele>208.4</ele><time>2026-05-03T13:15:14.563Z</time></trkpt><trkpt lat="45.9089709" lon="9.3272448"><ele>208.6</ele><time>2026-05-03T13:15:15.568Z</time></trkpt><trkpt lat="45.9088853" lon="9.3273039"><ele>208.79999999999998</ele><time>2026-05-03T13:15:16.567Z</time></trkpt><trkpt lat="45.908792" lon="9.3273511"><ele>209.0</ele><time>2026-05-03T13:15:17.574Z</time></trkpt><trkpt lat="45.9086948" lon="9.3273893"><ele>209.00000000000003</ele><time>2026-05-03T13:15:18.575Z</time></trkpt><trkpt lat="45.9085954" lon="9.3274183"><ele>209.0</ele><time>2026-05-03T13:15:19.573Z</time></trkpt><trkpt lat="45.9085027" lon="9.3274367"><ele>209.0</ele><time>2026-05-03T13:15:20.576Z</time></trkpt><trkpt lat="45.9084207" lon="9.3274551"><ele>209.0</ele><time>2026-05-03T13:15:21.568Z</time></trkpt><trkpt lat="45.9083421" lon="9.3274726"><ele>209.00000000000003</ele><time>2026-05-03T13:15:22.569Z</time></trkpt><trkpt lat="45.9082633" lon="9.3274983"><ele>209.0</ele><time>2026-05-03T13:15:23.566Z</time></trkpt><trkpt lat="45.9081825" lon="9.3275307"><ele>208.16666666666669</ele><time>2026-05-03T13:15:24.565Z</time></trkpt><trkpt lat="45.908105" lon="9.327571"><ele>207.33333333333334</ele><time>2026-05-03T13:15:25.566Z</time></trkpt><trkpt lat="45.9080301" lon="9.3276216"><ele>206.5</ele><time>2026-05-03T13:15:26.561Z</time></trkpt><trkpt lat="45.907958" lon="9.3276813"><ele>205.66666666666669</ele><time>2026-05-03T13:15:27.554Z</time></trkpt><trkpt lat="45.9078835" lon="9.3277459"><ele>204.83333333333334</ele><time>2026-05-03T13:15:28.562Z</time></trkpt><trkpt lat="45.907813" lon="9.3278151"><ele>204.0</ele><time>2026-05-03T13:15:29.561Z</time></trkpt><trkpt lat="45.9077429" lon="9.327887"><ele>204.0</ele><time>2026-05-03T13:15:30.564Z</time></trkpt><trkpt lat="45.9076728" lon="9.3279599"><ele>204.0</ele><time>2026-05-03T13:15:31.563Z</time></trkpt><trkpt lat="45.9076035" lon="9.3280235"><ele>204.0</ele><time>2026-05-03T13:15:32.573Z</time></trkpt><trkpt lat="45.907532" lon="9.3280814"><ele>204.0</ele><time>2026-05-03T13:15:33.565Z</time></trkpt><trkpt lat="45.9074589" lon="9.3281385"><ele>204.0</ele><time>2026-05-03T13:15:34.565Z</time></trkpt><trkpt lat="45.9073801" lon="9.3281833"><ele>204.0</ele><time>2026-05-03T13:15:35.564Z</time></trkpt><trkpt lat="45.9073031" lon="9.3282243"><ele>205.5</ele><time>2026-05-03T13:15:36.567Z</time></trkpt><trkpt lat="45.9072235" lon="9.3282648"><ele>207.0</ele><time>2026-05-03T13:15:37.57Z</time></trkpt><trkpt lat="45.907148" lon="9.3282899"><ele>208.5</ele><time>2026-05-03T13:15:38.562Z</time></trkpt><trkpt lat="45.9070665" lon="9.3283193"><ele>210.0</ele><time>2026-05-03T13:15:39.577Z</time></trkpt><trkpt lat="45.9069776" lon="9.3283568"><ele>211.5</ele><time>2026-05-03T13:15:40.573Z</time></trkpt><trkpt lat="45.906879" lon="9.3283975"><ele>213.0</ele><time>2026-05-03T13:15:41.561Z</time></trkpt><trkpt lat="45.9067709" lon="9.3284367"><ele>211.25</ele><time>2026-05-03T13:15:42.574Z</time></trkpt><trkpt lat="45.9066551" lon="9.3284738"><ele>209.5</ele><time>2026-05-03T13:15:43.574Z</time></trkpt><trkpt lat="45.9065374" lon="9.3285116"><ele>207.75</ele><time>2026-05-03T13:15:44.572Z</time></trkpt><trkpt lat="45.9064172" lon="9.3285432"><ele>206.0</ele><time>2026-05-03T13:15:45.566Z</time></trkpt><trkpt lat="45.9063026" lon="9.328582"><ele>206.0</ele><time>2026-05-03T13:15:46.567Z</time></trkpt><trkpt lat="45.906189" lon="9.3286248"><ele>206.0</ele><time>2026-05-03T13:15:47.573Z</time></trkpt><trkpt lat="45.9060804" lon="9.3286696"><ele>206.0</ele><time>2026-05-03T13:15:48.569Z</time></trkpt><trkpt lat="45.9059733" lon="9.3287151"><ele>206.0</ele><time>2026-05-03T13:15:49.563Z</time></trkpt><trkpt lat="45.9058691" lon="9.3287661"><ele>206.75</ele><time>2026-05-03T13:15:50.567Z</time></trkpt><trkpt lat="45.9057584" lon="9.3288179"><ele>207.5</ele><time>2026-05-03T13:15:51.567Z</time></trkpt><trkpt lat="45.9056423" lon="9.3288786"><ele>208.25</ele><time>2026-05-03T13:15:52.564Z</time></trkpt><trkpt lat="45.9055323" lon="9.3289555"><ele>209.0</ele><time>2026-05-03T13:15:53.568Z</time></trkpt><trkpt lat="45.9054222" lon="9.3290463"><ele>209.0</ele><time>2026-05-03T13:15:54.572Z</time></trkpt><trkpt lat="45.9053246" lon="9.329142"><ele>209.0</ele><time>2026-05-03T13:15:55.569Z</time></trkpt><trkpt lat="45.9052376" lon="9.3292362"><ele>209.0</ele><time>2026-05-03T13:15:56.575Z</time></trkpt><trkpt lat="45.9051611" lon="9.3293226"><ele>209.0</ele><time>2026-05-03T13:15:57.565Z</time></trkpt><trkpt lat="45.9050945" lon="9.3294092"><ele>209.0</ele><time>2026-05-03T13:15:58.572Z</time></trkpt><trkpt lat="45.9050273" lon="9.329501"><ele>209.00000000000003</ele><time>2026-05-03T13:15:59.562Z</time></trkpt><trkpt lat="45.9049625" lon="9.329591"><ele>209.0</ele><time>2026-05-03T13:16:00.573Z</time></trkpt><trkpt lat="45.9048995" lon="9.3296861"><ele>209.0</ele><time>2026-05-03T13:16:01.562Z</time></trkpt><trkpt lat="45.9048353" lon="9.3297782"><ele>209.0</ele><time>2026-05-03T13:16:02.56Z</time></trkpt><trkpt lat="45.9047731" lon="9.3298708"><ele>209.00000000000003</ele><time>2026-05-03T13:16:03.575Z</time></trkpt><trkpt lat="45.9047127" lon="9.3299615"><ele>209.0</ele><time>2026-05-03T13:16:04.568Z</time></trkpt><trkpt lat="45.9046469" lon="9.3300514"><ele>209.00000000000003</ele><time>2026-05-03T13:16:05.568Z</time></trkpt><trkpt lat="45.9045812" lon="9.3301407"><ele>209.0</ele><time>2026-05-03T13:16:06.564Z</time></trkpt><trkpt lat="45.9045188" lon="9.3302324"><ele>209.0</ele><time>2026-05-03T13:16:07.573Z</time></trkpt><trkpt lat="45.9044571" lon="9.3303182"><ele>209.0</ele><time>2026-05-03T13:16:08.561Z</time></trkpt><trkpt lat="45.9043882" lon="9.3304061"><ele>209.00000000000003</ele><time>2026-05-03T13:16:09.571Z</time></trkpt><trkpt lat="45.9043246" lon="9.3304969"><ele>209.0</ele><time>2026-05-03T13:16:10.57Z</time></trkpt><trkpt lat="45.9042628" lon="9.3305884"><ele>209.16666666666669</ele><time>2026-05-03T13:16:11.561Z</time></trkpt><trkpt lat="45.9042045" lon="9.3306743"><ele>209.33333333333334</ele><time>2026-05-03T13:16:12.566Z</time></trkpt><trkpt lat="45.9041471" lon="9.3307623"><ele>209.5</ele><time>2026-05-03T13:16:13.565Z</time></trkpt><trkpt lat="45.9040893" lon="9.3308418"><ele>209.66666666666669</ele><time>2026-05-03T13:16:14.56Z</time></trkpt><trkpt lat="45.9040246" lon="9.3309156"><ele>209.83333333333334</ele><time>2026-05-03T13:16:15.561Z</time></trkpt><trkpt lat="45.9039612" lon="9.3309968"><ele>210.0</ele><time>2026-05-03T13:16:16.559Z</time></trkpt><trkpt lat="45.9039028" lon="9.3310824"><ele>210.0</ele><time>2026-05-03T13:16:17.564Z</time></trkpt><trkpt lat="45.903841" lon="9.3311728"><ele>210.0</ele><time>2026-05-03T13:16:18.568Z</time></trkpt><trkpt lat="45.903777" lon="9.3312565"><ele>210.0</ele><time>2026-05-03T13:16:19.565Z</time></trkpt><trkpt lat="45.9037146" lon="9.3313333"><ele>210.0</ele><time>2026-05-03T13:16:20.568Z</time></trkpt><trkpt lat="45.903655" lon="9.3313949"><ele>210.0</ele><time>2026-05-03T13:16:21.561Z</time></trkpt><trkpt lat="45.9035931" lon="9.3314499"><ele>210.0</ele><time>2026-05-03T13:16:22.562Z</time></trkpt><trkpt lat="45.9035303" lon="9.3314953"><ele>209.83333333333334</ele><time>2026-05-03T13:16:23.561Z</time></trkpt><trkpt lat="45.9034631" lon="9.3315365"><ele>209.66666666666669</ele><time>2026-05-03T13:16:24.562Z</time></trkpt><trkpt lat="45.9033955" lon="9.3315719"><ele>209.5</ele><time>2026-05-03T13:16:25.565Z</time></trkpt><trkpt lat="45.903333" lon="9.3316057"><ele>209.33333333333334</ele><time>2026-05-03T13:16:26.572Z</time></trkpt><trkpt lat="45.9032178" lon="9.3316392"><ele>209.16666666666669</ele><time>2026-05-03T13:16:28.573Z</time></trkpt><trkpt lat="45.9031059" lon="9.3316579"><ele>209.0</ele><time>2026-05-03T13:16:30.571Z</time></trkpt><trkpt lat="45.9030117" lon="9.3316779"><ele>209.00000000000003</ele><time>2026-05-03T13:16:32.565Z</time></trkpt><trkpt lat="45.9029379" lon="9.3316884"><ele>209.0</ele><time>2026-05-03T13:16:34.571Z</time></trkpt><trkpt lat="45.9028643" lon="9.3317165"><ele>209.0</ele><time>2026-05-03T13:16:36.578Z</time></trkpt><trkpt lat="45.9027818" lon="9.3317099"><ele>209.0</ele><time>2026-05-03T13:16:39.57Z</time></trkpt><trkpt lat="45.9026996" lon="9.3317259"><ele>209.00000000000003</ele><time>2026-05-03T13:16:41.577Z</time></trkpt><trkpt lat="45.9026359" lon="9.3317609"><ele>209.0</ele><time>2026-05-03T13:16:42.561Z</time></trkpt><trkpt lat="45.9025676" lon="9.3318164"><ele>208.79999999999998</ele><time>2026-05-03T13:16:43.57Z</time></trkpt><trkpt lat="45.9024924" lon="9.3318808"><ele>208.6</ele><time>2026-05-03T13:16:44.563Z</time></trkpt><trkpt lat="45.9024065" lon="9.3319311"><ele>208.4</ele><time>2026-05-03T13:16:45.561Z</time></trkpt><trkpt lat="45.9023144" lon="9.331968"><ele>208.2</ele><time>2026-05-03T13:16:46.565Z</time></trkpt><trkpt lat="45.9022161" lon="9.3320012"><ele>208.0</ele><time>2026-05-03T13:16:47.562Z</time></trkpt><trkpt lat="45.9021164" lon="9.3320292"><ele>208.0</ele><time>2026-05-03T13:16:48.569Z</time></trkpt><trkpt lat="45.9020176" lon="9.3320469"><ele>208.0</ele><time>2026-05-03T13:16:49.56Z</time></trkpt><trkpt lat="45.9019196" lon="9.3320663"><ele>208.0</ele><time>2026-05-03T13:16:50.558Z</time></trkpt><trkpt lat="45.901825" lon="9.3320804"><ele>208.0</ele><time>2026-05-03T13:16:51.566Z</time></trkpt><trkpt lat="45.9017367" lon="9.3320844"><ele>208.0</ele><time>2026-05-03T13:16:52.565Z</time></trkpt><trkpt lat="45.9016493" lon="9.332081"><ele>207.2</ele><time>2026-05-03T13:16:53.568Z</time></trkpt><trkpt lat="45.9015581" lon="9.3320738"><ele>206.4</ele><time>2026-05-03T13:16:54.568Z</time></trkpt><trkpt lat="45.9014651" lon="9.3320598"><ele>205.6</ele><time>2026-05-03T13:16:55.569Z</time></trkpt><trkpt lat="45.9013718" lon="9.3320433"><ele>204.79999999999998</ele><time>2026-05-03T13:16:56.568Z</time></trkpt><trkpt lat="45.9012759" lon="9.3320183"><ele>204.0</ele><time>2026-05-03T13:16:57.561Z</time></trkpt><trkpt lat="45.9011764" lon="9.3319982"><ele>204.0</ele><time>2026-05-03T13:16:58.569Z</time></trkpt><trkpt lat="45.9010766" lon="9.3319772"><ele>204.0</ele><time>2026-05-03T13:16:59.566Z</time></trkpt><trkpt lat="45.9009847" lon="9.3319536"><ele>204.0</ele><time>2026-05-03T13:17:00.565Z</time></trkpt><trkpt lat="45.9008977" lon="9.3319285"><ele>204.0</ele><time>2026-05-03T13:17:01.57Z</time></trkpt><trkpt lat="45.9008106" lon="9.3318986"><ele>204.0</ele><time>2026-05-03T13:17:02.565Z</time></trkpt><trkpt lat="45.9007169" lon="9.331885"><ele>204.16666666666666</ele><time>2026-05-03T13:17:03.568Z</time></trkpt><trkpt lat="45.9006212" lon="9.331877"><ele>204.33333333333331</ele><time>2026-05-03T13:17:04.565Z</time></trkpt><trkpt lat="45.900535" lon="9.3318669"><ele>204.5</ele><time>2026-05-03T13:17:05.561Z</time></trkpt><trkpt lat="45.9004536" lon="9.3318571"><ele>204.66666666666666</ele><time>2026-05-03T13:17:06.556Z</time></trkpt><trkpt lat="45.9003788" lon="9.3318433"><ele>204.83333333333331</ele><time>2026-05-03T13:17:07.568Z</time></trkpt><trkpt lat="45.9003028" lon="9.3318325"><ele>205.0</ele><time>2026-05-03T13:17:08.56Z</time></trkpt><trkpt lat="45.900219" lon="9.3318382"><ele>205.0</ele><time>2026-05-03T13:17:09.556Z</time></trkpt><trkpt lat="45.9001181" lon="9.3318426"><ele>205.0</ele><time>2026-05-03T13:17:10.554Z</time></trkpt><trkpt lat="45.9000074" lon="9.3318658"><ele>205.0</ele><time>2026-05-03T13:17:11.554Z</time></trkpt><trkpt lat="45.8998891" lon="9.3318886"><ele>205.0</ele><time>2026-05-03T13:17:12.564Z</time></trkpt><trkpt lat="45.8997651" lon="9.3319326"><ele>205.0</ele><time>2026-05-03T13:17:13.565Z</time></trkpt><trkpt lat="45.8996484" lon="9.3319779"><ele>205.0</ele><time>2026-05-03T13:17:14.563Z</time></trkpt><trkpt lat="45.899541" lon="9.3320222"><ele>205.0</ele><time>2026-05-03T13:17:15.561Z</time></trkpt><trkpt lat="45.8994478" lon="9.3320656"><ele>205.0</ele><time>2026-05-03T13:17:16.564Z</time></trkpt><trkpt lat="45.8993606" lon="9.3321054"><ele>205.0</ele><time>2026-05-03T13:17:17.56Z</time></trkpt><trkpt lat="45.8992721" lon="9.332138"><ele>204.49999999999997</ele><time>2026-05-03T13:17:18.568Z</time></trkpt><trkpt lat="45.8991892" lon="9.3321742"><ele>204.0</ele><time>2026-05-03T13:17:19.557Z</time></trkpt><trkpt lat="45.8991077" lon="9.3322143"><ele>203.5</ele><time>2026-05-03T13:17:20.558Z</time></trkpt><trkpt lat="45.8990237" lon="9.3322589"><ele>203.0</ele><time>2026-05-03T13:17:21.559Z</time></trkpt><trkpt lat="45.8989374" lon="9.3322933"><ele>202.49999999999997</ele><time>2026-05-03T13:17:22.555Z</time></trkpt><trkpt lat="45.8988456" lon="9.3323309"><ele>202.0</ele><time>2026-05-03T13:17:23.557Z</time></trkpt><trkpt lat="45.8987566" lon="9.3323715"><ele>203.49999999999997</ele><time>2026-05-03T13:17:24.566Z</time></trkpt><trkpt lat="45.898686" lon="9.3323978"><ele>205.0</ele><time>2026-05-03T13:17:25.556Z</time></trkpt><trkpt lat="45.89859" lon="9.3324278"><ele>206.5</ele><time>2026-05-03T13:17:27.563Z</time></trkpt><trkpt lat="45.8984829" lon="9.3324507"><ele>208.0</ele><time>2026-05-03T13:17:29.566Z</time></trkpt><trkpt lat="45.8984142" lon="9.3324722"><ele>209.49999999999997</ele><time>2026-05-03T13:17:30.568Z</time></trkpt><trkpt lat="45.898331" lon="9.3325054"><ele>211.0</ele><time>2026-05-03T13:17:31.567Z</time></trkpt><trkpt lat="45.8982452" lon="9.3325454"><ele>211.0</ele><time>2026-05-03T13:17:32.563Z</time></trkpt><trkpt lat="45.8981402" lon="9.332588"><ele>211.0</ele><time>2026-05-03T13:17:33.562Z</time></trkpt><trkpt lat="45.898025" lon="9.3326266"><ele>211.0</ele><time>2026-05-03T13:17:34.555Z</time></trkpt><trkpt lat="45.8979168" lon="9.3326612"><ele>211.0</ele><time>2026-05-03T13:17:35.552Z</time></trkpt><trkpt lat="45.8978125" lon="9.3326999"><ele>211.0</ele><time>2026-05-03T13:17:36.56Z</time></trkpt><trkpt lat="45.8977114" lon="9.3327307"><ele>210.99999999999997</ele><time>2026-05-03T13:17:37.555Z</time></trkpt><trkpt lat="45.8976127" lon="9.3327565"><ele>211.0</ele><time>2026-05-03T13:17:38.565Z</time></trkpt><trkpt lat="45.8975268" lon="9.3327738"><ele>211.0</ele><time>2026-05-03T13:17:39.55Z</time></trkpt><trkpt lat="45.8974526" lon="9.3327938"><ele>211.0</ele><time>2026-05-03T13:17:40.56Z</time></trkpt><trkpt lat="45.8973718" lon="9.3328263"><ele>210.99999999999997</ele><time>2026-05-03T13:17:41.552Z</time></trkpt><trkpt lat="45.8972743" lon="9.3328689"><ele>211.0</ele><time>2026-05-03T13:17:42.578Z</time></trkpt><trkpt lat="45.8971606" lon="9.3329128"><ele>210.5</ele><time>2026-05-03T13:17:43.571Z</time></trkpt><trkpt lat="45.897042" lon="9.3329602"><ele>210.0</ele><time>2026-05-03T13:17:44.574Z</time></trkpt><trkpt lat="45.8969278" lon="9.3330158"><ele>209.5</ele><time>2026-05-03T13:17:45.575Z</time></trkpt><trkpt lat="45.8968123" lon="9.3330801"><ele>209.0</ele><time>2026-05-03T13:17:46.557Z</time></trkpt><trkpt lat="45.8967122" lon="9.3331586"><ele>209.79999999999998</ele><time>2026-05-03T13:17:47.561Z</time></trkpt><trkpt lat="45.8966173" lon="9.3332354"><ele>210.6</ele><time>2026-05-03T13:17:48.561Z</time></trkpt><trkpt lat="45.8965267" lon="9.3333143"><ele>211.4</ele><time>2026-05-03T13:17:49.557Z</time></trkpt><trkpt lat="45.8964382" lon="9.3333972"><ele>212.2</ele><time>2026-05-03T13:17:50.562Z</time></trkpt><trkpt lat="45.8963401" lon="9.3334825"><ele>213.0</ele><time>2026-05-03T13:17:51.558Z</time></trkpt><trkpt lat="45.8962334" lon="9.3335805"><ele>213.0</ele><time>2026-05-03T13:17:52.559Z</time></trkpt><trkpt lat="45.8961208" lon="9.33369"><ele>213.0</ele><time>2026-05-03T13:17:53.558Z</time></trkpt><trkpt lat="45.896016" lon="9.3337965"><ele>213.0</ele><time>2026-05-03T13:17:54.561Z</time></trkpt><trkpt lat="45.8959189" lon="9.3338887"><ele>213.0</ele><time>2026-05-03T13:17:55.561Z</time></trkpt><trkpt lat="45.8958344" lon="9.3339685"><ele>213.2</ele><time>2026-05-03T13:17:56.563Z</time></trkpt><trkpt lat="45.8957586" lon="9.3340473"><ele>213.4</ele><time>2026-05-03T13:17:57.562Z</time></trkpt><trkpt lat="45.8956777" lon="9.3341329"><ele>213.59999999999997</ele><time>2026-05-03T13:17:58.562Z</time></trkpt><trkpt lat="45.895596" lon="9.3342106"><ele>213.79999999999998</ele><time>2026-05-03T13:17:59.562Z</time></trkpt><trkpt lat="45.8955197" lon="9.3342776"><ele>214.0</ele><time>2026-05-03T13:18:00.563Z</time></trkpt><trkpt lat="45.8954556" lon="9.3343382"><ele>213.99999999999997</ele><time>2026-05-03T13:18:01.565Z</time></trkpt><trkpt lat="45.895398" lon="9.334403"><ele>214.0</ele><time>2026-05-03T13:18:02.563Z</time></trkpt><trkpt lat="45.8953386" lon="9.3344664"><ele>214.0</ele><time>2026-05-03T13:18:03.566Z</time></trkpt><trkpt lat="45.8952852" lon="9.3345443"><ele>214.0</ele><time>2026-05-03T13:18:04.558Z</time></trkpt><trkpt lat="45.8952347" lon="9.3346374"><ele>213.99999999999997</ele><time>2026-05-03T13:18:05.558Z</time></trkpt><trkpt lat="45.8951889" lon="9.3347422"><ele>214.0</ele><time>2026-05-03T13:18:06.56Z</time></trkpt><trkpt lat="45.8951455" lon="9.334849"><ele>214.16666666666666</ele><time>2026-05-03T13:18:07.564Z</time></trkpt><trkpt lat="45.8951102" lon="9.3349584"><ele>214.33333333333331</ele><time>2026-05-03T13:18:08.555Z</time></trkpt><trkpt lat="45.8950781" lon="9.3350783"><ele>214.5</ele><time>2026-05-03T13:18:09.573Z</time></trkpt><trkpt lat="45.895055" lon="9.3352028"><ele>214.66666666666669</ele><time>2026-05-03T13:18:10.565Z</time></trkpt><trkpt lat="45.8950374" lon="9.3353261"><ele>214.83333333333334</ele><time>2026-05-03T13:18:11.561Z</time></trkpt><trkpt lat="45.8950171" lon="9.33545"><ele>215.0</ele><time>2026-05-03T13:18:12.585Z</time></trkpt><trkpt lat="45.8949981" lon="9.3355728"><ele>215.0</ele><time>2026-05-03T13:18:13.587Z</time></trkpt><trkpt lat="45.8949791" lon="9.3357034"><ele>215.0</ele><time>2026-05-03T13:18:14.562Z</time></trkpt><trkpt lat="45.8949607" lon="9.3358465"><ele>215.0</ele><time>2026-05-03T13:18:15.552Z</time></trkpt><trkpt lat="45.8949388" lon="9.3359945"><ele>215.0</ele><time>2026-05-03T13:18:16.554Z</time></trkpt><trkpt lat="45.8949141" lon="9.3361509"><ele>215.0</ele><time>2026-05-03T13:18:17.558Z</time></trkpt><trkpt lat="45.8948916" lon="9.3362969"><ele>214.33333333333334</ele><time>2026-05-03T13:18:18.566Z</time></trkpt><trkpt lat="45.8948686" lon="9.3364286"><ele>213.66666666666669</ele><time>2026-05-03T13:18:19.559Z</time></trkpt><trkpt lat="45.8948473" lon="9.336537"><ele>213.0</ele><time>2026-05-03T13:18:20.56Z</time></trkpt><trkpt lat="45.8948291" lon="9.336632"><ele>212.33333333333331</ele><time>2026-05-03T13:18:21.557Z</time></trkpt><trkpt lat="45.8948074" lon="9.3367231"><ele>211.66666666666666</ele><time>2026-05-03T13:18:22.566Z</time></trkpt><trkpt lat="45.8947821" lon="9.3368161"><ele>211.0</ele><time>2026-05-03T13:18:23.566Z</time></trkpt><trkpt lat="45.8947587" lon="9.3369202"><ele>211.0</ele><time>2026-05-03T13:18:24.556Z</time></trkpt><trkpt lat="45.8947383" lon="9.3370432"><ele>211.0</ele><time>2026-05-03T13:18:25.562Z</time></trkpt><trkpt lat="45.8947188" lon="9.3371691"><ele>211.0</ele><time>2026-05-03T13:18:26.559Z</time></trkpt><trkpt lat="45.8946963" lon="9.3372948"><ele>211.0</ele><time>2026-05-03T13:18:27.566Z</time></trkpt><trkpt lat="45.8946738" lon="9.3374252"><ele>211.0</ele><time>2026-05-03T13:18:28.563Z</time></trkpt><trkpt lat="45.8946511" lon="9.3375634"><ele>211.16666666666666</ele><time>2026-05-03T13:18:29.559Z</time></trkpt><trkpt lat="45.8946275" lon="9.3377011"><ele>211.33333333333331</ele><time>2026-05-03T13:18:30.557Z</time></trkpt><trkpt lat="45.8946024" lon="9.3378229"><ele>211.5</ele><time>2026-05-03T13:18:31.557Z</time></trkpt><trkpt lat="45.8945762" lon="9.337927"><ele>211.66666666666669</ele><time>2026-05-03T13:18:32.558Z</time></trkpt><trkpt lat="45.894552" lon="9.338035"><ele>211.83333333333334</ele><time>2026-05-03T13:18:33.555Z</time></trkpt><trkpt lat="45.8945333" lon="9.3381532"><ele>212.0</ele><time>2026-05-03T13:18:34.566Z</time></trkpt><trkpt lat="45.8945118" lon="9.3382818"><ele>212.00000000000003</ele><time>2026-05-03T13:18:35.557Z</time></trkpt><trkpt lat="45.8944841" lon="9.3384084"><ele>212.0</ele><time>2026-05-03T13:18:36.558Z</time></trkpt><trkpt lat="45.8944597" lon="9.3385333"><ele>212.0</ele><time>2026-05-03T13:18:37.557Z</time></trkpt><trkpt lat="45.8944343" lon="9.3386494"><ele>212.0</ele><time>2026-05-03T13:18:38.562Z</time></trkpt><trkpt lat="45.8944112" lon="9.3387524"><ele>212.00000000000003</ele><time>2026-05-03T13:18:39.548Z</time></trkpt><trkpt lat="45.8943954" lon="9.3388574"><ele>212.0</ele><time>2026-05-03T13:18:40.555Z</time></trkpt><trkpt lat="45.894388" lon="9.3389746"><ele>212.2</ele><time>2026-05-03T13:18:41.563Z</time></trkpt><trkpt lat="45.8943875" lon="9.3391029"><ele>212.39999999999998</ele><time>2026-05-03T13:18:42.557Z</time></trkpt><trkpt lat="45.8943889" lon="9.3392378"><ele>212.60000000000002</ele><time>2026-05-03T13:18:43.56Z</time></trkpt><trkpt lat="45.8943993" lon="9.3393891"><ele>212.8</ele><time>2026-05-03T13:18:44.566Z</time></trkpt><trkpt lat="45.8944182" lon="9.339552"><ele>213.0</ele><time>2026-05-03T13:18:45.555Z</time></trkpt><trkpt lat="45.8944371" lon="9.3397186"><ele>213.16666666666666</ele><time>2026-05-03T13:18:46.562Z</time></trkpt><trkpt lat="45.8944531" lon="9.3398606"><ele>213.33333333333331</ele><time>2026-05-03T13:18:47.557Z</time></trkpt><trkpt lat="45.8944688" lon="9.3399872"><ele>213.5</ele><time>2026-05-03T13:18:48.562Z</time></trkpt><trkpt lat="45.8944854" lon="9.3401086"><ele>213.66666666666666</ele><time>2026-05-03T13:18:49.561Z</time></trkpt><trkpt lat="45.8944999" lon="9.3402284"><ele>213.83333333333331</ele><time>2026-05-03T13:18:50.558Z</time></trkpt><trkpt lat="45.8945208" lon="9.3403494"><ele>214.0</ele><time>2026-05-03T13:18:51.555Z</time></trkpt><trkpt lat="45.8945505" lon="9.3404803"><ele>213.39999999999998</ele><time>2026-05-03T13:18:52.556Z</time></trkpt><trkpt lat="45.8945838" lon="9.340619"><ele>212.79999999999998</ele><time>2026-05-03T13:18:53.556Z</time></trkpt><trkpt lat="45.8946252" lon="9.3407659"><ele>212.2</ele><time>2026-05-03T13:18:54.551Z</time></trkpt><trkpt lat="45.8946657" lon="9.3409092"><ele>211.60000000000002</ele><time>2026-05-03T13:18:55.553Z</time></trkpt><trkpt lat="45.8947125" lon="9.3410425"><ele>211.0</ele><time>2026-05-03T13:18:56.563Z</time></trkpt><trkpt lat="45.8947696" lon="9.3411639"><ele>211.0</ele><time>2026-05-03T13:18:57.554Z</time></trkpt><trkpt lat="45.8948363" lon="9.3412813"><ele>211.0</ele><time>2026-05-03T13:18:58.56Z</time></trkpt><trkpt lat="45.8949086" lon="9.3413979"><ele>211.0</ele><time>2026-05-03T13:18:59.553Z</time></trkpt><trkpt lat="45.8949833" lon="9.3415081"><ele>211.0</ele><time>2026-05-03T13:19:00.56Z</time></trkpt><trkpt lat="45.8950557" lon="9.3416079"><ele>211.0</ele><time>2026-05-03T13:19:01.548Z</time></trkpt><trkpt lat="45.8951219" lon="9.3417003"><ele>210.49999999999997</ele><time>2026-05-03T13:19:02.555Z</time></trkpt><trkpt lat="45.8951769" lon="9.3417868"><ele>210.0</ele><time>2026-05-03T13:19:03.556Z</time></trkpt><trkpt lat="45.895232" lon="9.3418691"><ele>209.5</ele><time>2026-05-03T13:19:04.56Z</time></trkpt><trkpt lat="45.8952864" lon="9.3419521"><ele>209.0</ele><time>2026-05-03T13:19:05.557Z</time></trkpt><trkpt lat="45.8953433" lon="9.3420458"><ele>208.49999999999997</ele><time>2026-05-03T13:19:06.558Z</time></trkpt><trkpt lat="45.8954094" lon="9.342153"><ele>208.0</ele><time>2026-05-03T13:19:07.552Z</time></trkpt><trkpt lat="45.8954849" lon="9.3422643"><ele>208.0</ele><time>2026-05-03T13:19:08.548Z</time></trkpt><trkpt lat="45.895559" lon="9.3423752"><ele>208.0</ele><time>2026-05-03T13:19:09.551Z</time></trkpt><trkpt lat="45.8956373" lon="9.3424885"><ele>208.0</ele><time>2026-05-03T13:19:10.546Z</time></trkpt><trkpt lat="45.8957201" lon="9.3426032"><ele>208.0</ele><time>2026-05-03T13:19:11.551Z</time></trkpt><trkpt lat="45.8958019" lon="9.3427218"><ele>208.0</ele><time>2026-05-03T13:19:12.542Z</time></trkpt><trkpt lat="45.8958804" lon="9.3428422"><ele>221.5</ele><time>2026-05-03T13:19:13.541Z</time></trkpt><trkpt lat="45.8959545" lon="9.3429711"><ele>235.0</ele><time>2026-05-03T13:19:14.531Z</time></trkpt><trkpt lat="45.8960361" lon="9.3430882"><ele>248.5</ele><time>2026-05-03T13:19:15.528Z</time></trkpt><trkpt lat="45.8961154" lon="9.3432067"><ele>262.0</ele><time>2026-05-03T13:19:16.521Z</time></trkpt><trkpt lat="45.8961966" lon="9.3433209"><ele>227.0</ele><time>2026-05-03T13:19:17.511Z</time></trkpt><trkpt lat="45.8951696" lon="9.3473007"><ele>221.66666666666669</ele><time>2026-05-03T13:19:42.559Z</time></trkpt><trkpt lat="45.8950344" lon="9.3476274"><ele>216.33333333333331</ele><time>2026-05-03T13:19:43.544Z</time></trkpt><trkpt lat="45.8949071" lon="9.3478019"><ele>211.0</ele><time>2026-05-03T13:19:44.565Z</time></trkpt><trkpt lat="45.8948019" lon="9.3480743"><ele>211.0</ele><time>2026-05-03T13:19:45.549Z</time></trkpt><trkpt lat="45.8946824" lon="9.348339"><ele>211.0</ele><time>2026-05-03T13:19:46.553Z</time></trkpt><trkpt lat="45.8945673" lon="9.348613"><ele>211.0</ele><time>2026-05-03T13:19:47.55Z</time></trkpt><trkpt lat="45.8944629" lon="9.3489266"><ele>219.0</ele><time>2026-05-03T13:19:48.551Z</time></trkpt><trkpt lat="45.8943644" lon="9.3492539"><ele>227.0</ele><time>2026-05-03T13:19:49.556Z</time></trkpt><trkpt lat="45.8942692" lon="9.349569"><ele>216.5</ele><time>2026-05-03T13:19:50.55Z</time></trkpt><trkpt lat="45.8941755" lon="9.3498964"><ele>206.0</ele><time>2026-05-03T13:19:51.552Z</time></trkpt><trkpt lat="45.894084" lon="9.3502341"><ele>209.5</ele><time>2026-05-03T13:19:52.552Z</time></trkpt><trkpt lat="45.8939821" lon="9.3505566"><ele>213.0</ele><time>2026-05-03T13:19:53.553Z</time></trkpt><trkpt lat="45.8938757" lon="9.3508855"><ele>213.0</ele><time>2026-05-03T13:19:54.551Z</time></trkpt><trkpt lat="45.8937901" lon="9.3512253"><ele>213.0</ele><time>2026-05-03T13:19:55.552Z</time></trkpt><trkpt lat="45.8936968" lon="9.3515733"><ele>223.0</ele><time>2026-05-03T13:19:56.553Z</time></trkpt><trkpt lat="45.8935838" lon="9.3519351"><ele>233.0</ele><time>2026-05-03T13:19:57.555Z</time></trkpt><trkpt lat="45.8934545" lon="9.3522751"><ele>219.0</ele><time>2026-05-03T13:19:58.556Z</time></trkpt><trkpt lat="45.8933125" lon="9.3525925"><ele>205.0</ele><time>2026-05-03T13:19:59.551Z</time></trkpt><trkpt lat="45.8931617" lon="9.3528987"><ele>216.0</ele><time>2026-05-03T13:20:00.552Z</time></trkpt><trkpt lat="45.8929963" lon="9.3531947"><ele>227.0</ele><time>2026-05-03T13:20:01.549Z</time></trkpt><trkpt lat="45.8928137" lon="9.3534844"><ele>227.0</ele><time>2026-05-03T13:20:02.547Z</time></trkpt><trkpt lat="45.8926159" lon="9.3537531"><ele>227.0</ele><time>2026-05-03T13:20:03.545Z</time></trkpt><trkpt lat="45.8923973" lon="9.3539959"><ele>219.0</ele><time>2026-05-03T13:20:04.548Z</time></trkpt><trkpt lat="45.8921631" lon="9.3542318"><ele>211.0</ele><time>2026-05-03T13:20:05.546Z</time></trkpt><trkpt lat="45.8919459" lon="9.3544604"><ele>209.5</ele><time>2026-05-03T13:20:06.554Z</time></trkpt><trkpt lat="45.8917423" lon="9.3546904"><ele>208.0</ele><time>2026-05-03T13:20:07.543Z</time></trkpt><trkpt lat="45.891554" lon="9.3549383"><ele>208.0</ele><time>2026-05-03T13:20:08.545Z</time></trkpt><trkpt lat="45.891396" lon="9.3551985"><ele>208.0</ele><time>2026-05-03T13:20:09.544Z</time></trkpt><trkpt lat="45.8912396" lon="9.3554901"><ele>213.0</ele><time>2026-05-03T13:20:10.546Z</time></trkpt><trkpt lat="45.8910946" lon="9.3558065"><ele>218.0</ele><time>2026-05-03T13:20:11.547Z</time></trkpt><trkpt lat="45.890954" lon="9.3561222"><ele>214.5</ele><time>2026-05-03T13:20:12.551Z</time></trkpt><trkpt lat="45.8907992" lon="9.3564086"><ele>211.0</ele><time>2026-05-03T13:20:13.554Z</time></trkpt><trkpt lat="45.8906589" lon="9.3566875"><ele>211.0</ele><time>2026-05-03T13:20:14.553Z</time></trkpt><trkpt lat="45.8905089" lon="9.3569808"><ele>211.0</ele><time>2026-05-03T13:20:15.553Z</time></trkpt><trkpt lat="45.8903373" lon="9.3572441"><ele>208.5</ele><time>2026-05-03T13:20:16.547Z</time></trkpt><trkpt lat="45.890146" lon="9.3574998"><ele>206.0</ele><time>2026-05-03T13:20:17.552Z</time></trkpt><trkpt lat="45.8899533" lon="9.3577353"><ele>206.0</ele><time>2026-05-03T13:20:18.55Z</time></trkpt><trkpt lat="45.8897495" lon="9.3579353"><ele>206.0</ele><time>2026-05-03T13:20:19.549Z</time></trkpt><trkpt lat="45.88956" lon="9.3581114"><ele>207.33333333333334</ele><time>2026-05-03T13:20:20.553Z</time></trkpt><trkpt lat="45.8893755" lon="9.3582585"><ele>208.66666666666669</ele><time>2026-05-03T13:20:21.546Z</time></trkpt><trkpt lat="45.8892037" lon="9.3583757"><ele>210.0</ele><time>2026-05-03T13:20:22.547Z</time></trkpt><trkpt lat="45.8890314" lon="9.3584675"><ele>210.0</ele><time>2026-05-03T13:20:23.549Z</time></trkpt><trkpt lat="45.8888612" lon="9.3585424"><ele>210.0</ele><time>2026-05-03T13:20:24.55Z</time></trkpt><trkpt lat="45.8886983" lon="9.3586135"><ele>210.0</ele><time>2026-05-03T13:20:25.549Z</time></trkpt><trkpt lat="45.8885342" lon="9.3586861"><ele>206.0</ele><time>2026-05-03T13:20:26.549Z</time></trkpt><trkpt lat="45.8883838" lon="9.3587401"><ele>202.0</ele><time>2026-05-03T13:20:27.559Z</time></trkpt><trkpt lat="45.8882268" lon="9.3588045"><ele>198.0</ele><time>2026-05-03T13:20:28.557Z</time></trkpt><trkpt lat="45.8880834" lon="9.3588772"><ele>200.25</ele><time>2026-05-03T13:20:29.56Z</time></trkpt><trkpt lat="45.887939" lon="9.3589425"><ele>202.5</ele><time>2026-05-03T13:20:30.558Z</time></trkpt><trkpt lat="45.8878164" lon="9.3590096"><ele>204.75</ele><time>2026-05-03T13:20:31.553Z</time></trkpt><trkpt lat="45.88768" lon="9.3590777"><ele>207.0</ele><time>2026-05-03T13:20:32.562Z</time></trkpt><trkpt lat="45.8875532" lon="9.3591492"><ele>207.0</ele><time>2026-05-03T13:20:33.56Z</time></trkpt><trkpt lat="45.8874337" lon="9.3592341"><ele>207.0</ele><time>2026-05-03T13:20:34.561Z</time></trkpt><trkpt lat="45.887311" lon="9.3593309"><ele>207.0</ele><time>2026-05-03T13:20:35.565Z</time></trkpt><trkpt lat="45.8871897" lon="9.359435"><ele>207.0</ele><time>2026-05-03T13:20:36.56Z</time></trkpt><trkpt lat="45.8870681" lon="9.359543"><ele>207.0</ele><time>2026-05-03T13:20:37.569Z</time></trkpt><trkpt lat="45.8869452" lon="9.3596402"><ele>207.0</ele><time>2026-05-03T13:20:38.564Z</time></trkpt><trkpt lat="45.8868188" lon="9.3597352"><ele>207.0</ele><time>2026-05-03T13:20:39.561Z</time></trkpt><trkpt lat="45.8866802" lon="9.3598416"><ele>207.0</ele><time>2026-05-03T13:20:40.564Z</time></trkpt><trkpt lat="45.8865454" lon="9.3599368"><ele>208.5</ele><time>2026-05-03T13:20:41.561Z</time></trkpt><trkpt lat="45.8864134" lon="9.3600281"><ele>210.0</ele><time>2026-05-03T13:20:42.566Z</time></trkpt><trkpt lat="45.8862854" lon="9.360126"><ele>211.5</ele><time>2026-05-03T13:20:43.564Z</time></trkpt><trkpt lat="45.8861555" lon="9.3602072"><ele>213.0</ele><time>2026-05-03T13:20:44.56Z</time></trkpt><trkpt lat="45.8860233" lon="9.3603025"><ele>216.33333333333331</ele><time>2026-05-03T13:20:45.562Z</time></trkpt><trkpt lat="45.8858829" lon="9.3604021"><ele>219.66666666666666</ele><time>2026-05-03T13:20:46.562Z</time></trkpt><trkpt lat="45.8857372" lon="9.3605021"><ele>223.0</ele><time>2026-05-03T13:20:47.563Z</time></trkpt><trkpt lat="45.8855892" lon="9.3605996"><ele>223.0</ele><time>2026-05-03T13:20:48.566Z</time></trkpt><trkpt lat="45.88545" lon="9.3606874"><ele>223.0</ele><time>2026-05-03T13:20:49.561Z</time></trkpt><trkpt lat="45.8853141" lon="9.3607644"><ele>223.0</ele><time>2026-05-03T13:20:50.563Z</time></trkpt><trkpt lat="45.8851932" lon="9.360851"><ele>223.0</ele><time>2026-05-03T13:20:51.557Z</time></trkpt><trkpt lat="45.8850812" lon="9.3609496"><ele>225.5</ele><time>2026-05-03T13:20:52.556Z</time></trkpt><trkpt lat="45.8849606" lon="9.3610551"><ele>228.0</ele><time>2026-05-03T13:20:53.559Z</time></trkpt><trkpt lat="45.8848473" lon="9.3611763"><ele>230.5</ele><time>2026-05-03T13:20:54.557Z</time></trkpt><trkpt lat="45.8847253" lon="9.361321"><ele>233.0</ele><time>2026-05-03T13:20:55.547Z</time></trkpt><trkpt lat="45.8846092" lon="9.3614633"><ele>233.0</ele><time>2026-05-03T13:20:56.556Z</time></trkpt><trkpt lat="45.8844976" lon="9.3616295"><ele>233.0</ele><time>2026-05-03T13:20:57.555Z</time></trkpt><trkpt lat="45.8843709" lon="9.3617973"><ele>233.0</ele><time>2026-05-03T13:20:58.559Z</time></trkpt><trkpt lat="45.8842598" lon="9.361991"><ele>229.66666666666669</ele><time>2026-05-03T13:20:59.552Z</time></trkpt><trkpt lat="45.8841545" lon="9.3621744"><ele>226.33333333333331</ele><time>2026-05-03T13:21:00.549Z</time></trkpt><trkpt lat="45.8840499" lon="9.3623761"><ele>223.0</ele><time>2026-05-03T13:21:01.551Z</time></trkpt><trkpt lat="45.8839262" lon="9.3625677"><ele>223.0</ele><time>2026-05-03T13:21:02.555Z</time></trkpt><trkpt lat="45.8838194" lon="9.3627532"><ele>223.0</ele><time>2026-05-03T13:21:03.548Z</time></trkpt><trkpt lat="45.8837089" lon="9.3629457"><ele>223.0</ele><time>2026-05-03T13:21:04.553Z</time></trkpt><trkpt lat="45.8835756" lon="9.3631121"><ele>219.33333333333331</ele><time>2026-05-03T13:21:05.55Z</time></trkpt><trkpt lat="45.883443" lon="9.3633054"><ele>215.66666666666669</ele><time>2026-05-03T13:21:06.552Z</time></trkpt><trkpt lat="45.8833204" lon="9.3634883"><ele>212.0</ele><time>2026-05-03T13:21:07.549Z</time></trkpt><trkpt lat="45.8831983" lon="9.3636702"><ele>217.66666666666669</ele><time>2026-05-03T13:21:08.541Z</time></trkpt><trkpt lat="45.8831038" lon="9.3638666"><ele>223.33333333333331</ele><time>2026-05-03T13:21:09.539Z</time></trkpt><trkpt lat="45.8830185" lon="9.3641069"><ele>229.0</ele><time>2026-05-03T13:21:10.534Z</time></trkpt><trkpt lat="45.8829603" lon="9.3642886"><ele>229.0</ele><time>2026-05-03T13:21:11.548Z</time></trkpt><trkpt lat="45.8829149" lon="9.3644656"><ele>229.0</ele><time>2026-05-03T13:21:12.552Z</time></trkpt><trkpt lat="45.8828404" lon="9.3646401"><ele>229.0</ele><time>2026-05-03T13:21:13.555Z</time></trkpt><trkpt lat="45.8827689" lon="9.3648144"><ele>229.0</ele><time>2026-05-03T13:21:14.549Z</time></trkpt><trkpt lat="45.8826812" lon="9.3650026"><ele>225.66666666666666</ele><time>2026-05-03T13:21:15.552Z</time></trkpt><trkpt lat="45.8825921" lon="9.3651971"><ele>222.33333333333331</ele><time>2026-05-03T13:21:16.556Z</time></trkpt><trkpt lat="45.8824887" lon="9.3653867"><ele>219.0</ele><time>2026-05-03T13:21:17.563Z</time></trkpt><trkpt lat="45.8823712" lon="9.3655815"><ele>219.0</ele><time>2026-05-03T13:21:18.554Z</time></trkpt><trkpt lat="45.8822723" lon="9.3657725"><ele>219.0</ele><time>2026-05-03T13:21:19.565Z</time></trkpt><trkpt lat="45.8821697" lon="9.3659649"><ele>219.0</ele><time>2026-05-03T13:21:20.558Z</time></trkpt><trkpt lat="45.8820454" lon="9.3661791"><ele>216.33333333333331</ele><time>2026-05-03T13:21:21.559Z</time></trkpt><trkpt lat="45.8819032" lon="9.366407"><ele>213.66666666666666</ele><time>2026-05-03T13:21:22.559Z</time></trkpt><trkpt lat="45.8817527" lon="9.3666382"><ele>211.0</ele><time>2026-05-03T13:21:23.559Z</time></trkpt><trkpt lat="45.8815875" lon="9.3668964"><ele>211.0</ele><time>2026-05-03T13:21:24.552Z</time></trkpt><trkpt lat="45.8814479" lon="9.3671707"><ele>211.0</ele><time>2026-05-03T13:21:25.551Z</time></trkpt><trkpt lat="45.8813172" lon="9.3674505"><ele>214.5</ele><time>2026-05-03T13:21:26.555Z</time></trkpt><trkpt lat="45.8811674" lon="9.367746"><ele>218.0</ele><time>2026-05-03T13:21:27.56Z</time></trkpt><trkpt lat="45.881001" lon="9.3680381"><ele>213.5</ele><time>2026-05-03T13:21:28.567Z</time></trkpt><trkpt lat="45.8808292" lon="9.3683348"><ele>209.0</ele><time>2026-05-03T13:21:29.557Z</time></trkpt><trkpt lat="45.8806638" lon="9.368609"><ele>215.5</ele><time>2026-05-03T13:21:30.564Z</time></trkpt><trkpt lat="45.8805182" lon="9.3689059"><ele>222.0</ele><time>2026-05-03T13:21:31.562Z</time></trkpt><trkpt lat="45.8803785" lon="9.369187"><ele>222.0</ele><time>2026-05-03T13:21:32.563Z</time></trkpt><trkpt lat="45.8802223" lon="9.3694605"><ele>222.0</ele><time>2026-05-03T13:21:33.562Z</time></trkpt><trkpt lat="45.8800733" lon="9.3697509"><ele>217.5</ele><time>2026-05-03T13:21:34.559Z</time></trkpt><trkpt lat="45.8799195" lon="9.3700447"><ele>213.0</ele><time>2026-05-03T13:21:35.559Z</time></trkpt><trkpt lat="45.8797597" lon="9.3703396"><ele>214.5</ele><time>2026-05-03T13:21:36.565Z</time></trkpt><trkpt lat="45.8795766" lon="9.3706286"><ele>216.0</ele><time>2026-05-03T13:21:37.552Z</time></trkpt><trkpt lat="45.8793826" lon="9.3708661"><ele>217.0</ele><time>2026-05-03T13:21:38.564Z</time></trkpt><trkpt lat="45.8792012" lon="9.3710711"><ele>218.0</ele><time>2026-05-03T13:21:39.56Z</time></trkpt><trkpt lat="45.8790229" lon="9.3712315"><ele>219.0</ele><time>2026-05-03T13:21:40.554Z</time></trkpt><trkpt lat="45.8788763" lon="9.3713856"><ele>219.0</ele><time>2026-05-03T13:21:41.548Z</time></trkpt><trkpt lat="45.8787586" lon="9.3715586"><ele>219.0</ele><time>2026-05-03T13:21:42.553Z</time></trkpt><trkpt lat="45.8786613" lon="9.3717485"><ele>219.0</ele><time>2026-05-03T13:21:43.55Z</time></trkpt><trkpt lat="45.878564" lon="9.3719381"><ele>219.0</ele><time>2026-05-03T13:21:44.557Z</time></trkpt><trkpt lat="45.8784995" lon="9.3721451"><ele>219.0</ele><time>2026-05-03T13:21:45.552Z</time></trkpt><trkpt lat="45.8784449" lon="9.3723233"><ele>219.0</ele><time>2026-05-03T13:21:46.558Z</time></trkpt><trkpt lat="45.8784075" lon="9.3724822"><ele>219.0</ele><time>2026-05-03T13:21:47.56Z</time></trkpt><trkpt lat="45.8783671" lon="9.3726424"><ele>219.0</ele><time>2026-05-03T13:21:48.551Z</time></trkpt><trkpt lat="45.8783526" lon="9.3727759"><ele>218.99999999999997</ele><time>2026-05-03T13:21:49.553Z</time></trkpt><trkpt lat="45.8783384" lon="9.3729099"><ele>218.99999999999997</ele><time>2026-05-03T13:21:50.55Z</time></trkpt><trkpt lat="45.8783253" lon="9.373069"><ele>219.0</ele><time>2026-05-03T13:21:51.544Z</time></trkpt><trkpt lat="45.8782982" lon="9.3732176"><ele>219.0</ele><time>2026-05-03T13:21:52.542Z</time></trkpt><trkpt lat="45.8782869" lon="9.3734376"><ele>217.0</ele><time>2026-05-03T13:21:53.537Z</time></trkpt><trkpt lat="45.8782448" lon="9.3736465"><ele>215.0</ele><time>2026-05-03T13:21:55.505Z</time></trkpt><trkpt lat="45.8782219" lon="9.3737835"><ele>213.0</ele><time>2026-05-03T13:21:56.482Z</time></trkpt><trkpt lat="45.8445529" lon="9.4055206"><ele>213.0</ele><time>2026-05-03T13:28:16.571Z</time></trkpt><trkpt lat="45.8444843" lon="9.4055289"><ele>213.0</ele><time>2026-05-03T13:28:17.561Z</time></trkpt><trkpt lat="45.8444216" lon="9.4055207"><ele>213.0</ele><time>2026-05-03T13:28:18.564Z</time></trkpt><trkpt lat="45.8443567" lon="9.4054956"><ele>213.0</ele><time>2026-05-03T13:28:19.566Z</time></trkpt><trkpt lat="45.844291" lon="9.4054941"><ele>213.0</ele><time>2026-05-03T13:28:20.569Z</time></trkpt><trkpt lat="45.8442243" lon="9.4055032"><ele>213.0</ele><time>2026-05-03T13:28:21.566Z</time></trkpt><trkpt lat="45.844099" lon="9.4054989"><ele>212.33333333333334</ele><time>2026-05-03T13:28:23.57Z</time></trkpt><trkpt lat="45.8440193" lon="9.405485"><ele>211.66666666666669</ele><time>2026-05-03T13:28:24.562Z</time></trkpt><trkpt lat="45.8439396" lon="9.4054742"><ele>211.0</ele><time>2026-05-03T13:28:25.572Z</time></trkpt><trkpt lat="45.8438639" lon="9.4054549"><ele>210.33333333333334</ele><time>2026-05-03T13:28:26.565Z</time></trkpt><trkpt lat="45.8437958" lon="9.4054271"><ele>209.66666666666669</ele><time>2026-05-03T13:28:27.571Z</time></trkpt><trkpt lat="45.8437322" lon="9.4053914"><ele>209.0</ele><time>2026-05-03T13:28:28.575Z</time></trkpt><trkpt lat="45.8436114" lon="9.4053233"><ele>209.00000000000003</ele><time>2026-05-03T13:28:30.573Z</time></trkpt><trkpt lat="45.8435379" lon="9.4052795"><ele>209.0</ele><time>2026-05-03T13:28:31.561Z</time></trkpt><trkpt lat="45.8434596" lon="9.4052375"><ele>209.0</ele><time>2026-05-03T13:28:32.56Z</time></trkpt><trkpt lat="45.8433954" lon="9.4052116"><ele>209.0</ele><time>2026-05-03T13:28:33.557Z</time></trkpt><trkpt lat="45.8432981" lon="9.4051791"><ele>209.00000000000003</ele><time>2026-05-03T13:28:35.563Z</time></trkpt><trkpt lat="45.8432205" lon="9.4051662"><ele>209.0</ele><time>2026-05-03T13:28:37.564Z</time></trkpt><trkpt lat="45.8430989" lon="9.405133"><ele>209.0</ele><time>2026-05-03T13:28:39.565Z</time></trkpt><trkpt lat="45.8430046" lon="9.4051131"><ele>209.0</ele><time>2026-05-03T13:28:40.558Z</time></trkpt><trkpt lat="45.8428839" lon="9.4050778"><ele>209.0</ele><time>2026-05-03T13:28:41.566Z</time></trkpt><trkpt lat="45.8427602" lon="9.4050375"><ele>209.0</ele><time>2026-05-03T13:28:42.563Z</time></trkpt><trkpt lat="45.8426608" lon="9.4050018"><ele>209.0</ele><time>2026-05-03T13:28:43.558Z</time></trkpt><trkpt lat="45.8425804" lon="9.4049767"><ele>209.0</ele><time>2026-05-03T13:28:44.564Z</time></trkpt><trkpt lat="45.8425124" lon="9.4049551"><ele>209.0</ele><time>2026-05-03T13:28:45.564Z</time></trkpt><trkpt lat="45.8423852" lon="9.4049419"><ele>209.0</ele><time>2026-05-03T13:28:47.567Z</time></trkpt><trkpt lat="45.8423088" lon="9.4049416"><ele>209.0</ele><time>2026-05-03T13:28:48.566Z</time></trkpt><trkpt lat="45.8422188" lon="9.4049352"><ele>209.0</ele><time>2026-05-03T13:28:49.566Z</time></trkpt><trkpt lat="45.8421163" lon="9.4049292"><ele>209.0</ele><time>2026-05-03T13:28:50.576Z</time></trkpt><trkpt lat="45.8420121" lon="9.4049205"><ele>209.0</ele><time>2026-05-03T13:28:51.565Z</time></trkpt><trkpt lat="45.8419138" lon="9.4049111"><ele>209.0</ele><time>2026-05-03T13:28:52.571Z</time></trkpt><trkpt lat="45.8418168" lon="9.4048975"><ele>209.0</ele><time>2026-05-03T13:28:53.577Z</time></trkpt><trkpt lat="45.8417214" lon="9.4048849"><ele>209.0</ele><time>2026-05-03T13:28:54.57Z</time></trkpt><trkpt lat="45.8416268" lon="9.4048752"><ele>209.0</ele><time>2026-05-03T13:28:55.573Z</time></trkpt><trkpt lat="45.8415328" lon="9.4048659"><ele>209.0</ele><time>2026-05-03T13:28:56.58Z</time></trkpt><trkpt lat="45.8414372" lon="9.4048607"><ele>209.0</ele><time>2026-05-03T13:28:57.569Z</time></trkpt><trkpt lat="45.8413261" lon="9.4048505"><ele>209.0</ele><time>2026-05-03T13:28:58.57Z</time></trkpt><trkpt lat="45.841202" lon="9.4048321"><ele>209.0</ele><time>2026-05-03T13:28:59.566Z</time></trkpt><trkpt lat="45.8410555" lon="9.404813"><ele>208.0</ele><time>2026-05-03T13:29:00.572Z</time></trkpt><trkpt lat="45.840854" lon="9.4047887"><ele>207.0</ele><time>2026-05-03T13:29:01.566Z</time></trkpt><trkpt lat="45.8406689" lon="9.4047521"><ele>206.0</ele><time>2026-05-03T13:29:02.566Z</time></trkpt><trkpt lat="45.8405021" lon="9.4046741"><ele>206.0</ele><time>2026-05-03T13:29:03.566Z</time></trkpt><trkpt lat="45.8403515" lon="9.4045788"><ele>206.0</ele><time>2026-05-03T13:29:04.563Z</time></trkpt><trkpt lat="45.8402091" lon="9.4044651"><ele>206.0</ele><time>2026-05-03T13:29:05.564Z</time></trkpt><trkpt lat="45.8400642" lon="9.4043337"><ele>206.0</ele><time>2026-05-03T13:29:06.562Z</time></trkpt><trkpt lat="45.8399286" lon="9.4041801"><ele>206.0</ele><time>2026-05-03T13:29:07.552Z</time></trkpt><trkpt lat="45.839809" lon="9.4040189"><ele>206.0</ele><time>2026-05-03T13:29:08.557Z</time></trkpt><trkpt lat="45.8397207" lon="9.4038763"><ele>205.60000000000002</ele><time>2026-05-03T13:29:09.555Z</time></trkpt><trkpt lat="45.8396525" lon="9.4037305"><ele>205.2</ele><time>2026-05-03T13:29:10.554Z</time></trkpt><trkpt lat="45.8395846" lon="9.4036048"><ele>204.8</ele><time>2026-05-03T13:29:11.561Z</time></trkpt><trkpt lat="45.8395302" lon="9.403474"><ele>204.39999999999998</ele><time>2026-05-03T13:29:12.555Z</time></trkpt><trkpt lat="45.8394875" lon="9.4033463"><ele>204.0</ele><time>2026-05-03T13:29:13.565Z</time></trkpt><trkpt lat="45.8394515" lon="9.4032318"><ele>204.0</ele><time>2026-05-03T13:29:14.562Z</time></trkpt><trkpt lat="45.8394082" lon="9.4031186"><ele>204.0</ele><time>2026-05-03T13:29:15.558Z</time></trkpt><trkpt lat="45.8393739" lon="9.4030216"><ele>204.0</ele><time>2026-05-03T13:29:16.558Z</time></trkpt><trkpt lat="45.8393438" lon="9.4029096"><ele>204.0</ele><time>2026-05-03T13:29:17.561Z</time></trkpt><trkpt lat="45.8393126" lon="9.4027759"><ele>204.0</ele><time>2026-05-03T13:29:18.556Z</time></trkpt><trkpt lat="45.8392891" lon="9.4026531"><ele>204.0</ele><time>2026-05-03T13:29:19.567Z</time></trkpt><trkpt lat="45.8392708" lon="9.4025494"><ele>203.83333333333334</ele><time>2026-05-03T13:29:20.558Z</time></trkpt><trkpt lat="45.8392503" lon="9.4024029"><ele>203.66666666666669</ele><time>2026-05-03T13:29:22.548Z</time></trkpt><trkpt lat="45.8392343" lon="9.4022908"><ele>203.5</ele><time>2026-05-03T13:29:24.561Z</time></trkpt><trkpt lat="45.8392157" lon="9.4021406"><ele>203.33333333333334</ele><time>2026-05-03T13:29:26.557Z</time></trkpt><trkpt lat="45.839203" lon="9.4020421"><ele>203.16666666666669</ele><time>2026-05-03T13:29:27.554Z</time></trkpt><trkpt lat="45.8391854" lon="9.4019248"><ele>203.0</ele><time>2026-05-03T13:29:28.547Z</time></trkpt><trkpt lat="45.8391708" lon="9.4018016"><ele>202.5</ele><time>2026-05-03T13:29:29.555Z</time></trkpt><trkpt lat="45.8391569" lon="9.4016483"><ele>202.0</ele><time>2026-05-03T13:29:30.554Z</time></trkpt><trkpt lat="45.8391384" lon="9.4014502"><ele>201.5</ele><time>2026-05-03T13:29:31.552Z</time></trkpt><trkpt lat="45.8391093" lon="9.4012284"><ele>201.0</ele><time>2026-05-03T13:29:32.56Z</time></trkpt><trkpt lat="45.8390747" lon="9.4009977"><ele>200.5</ele><time>2026-05-03T13:29:33.556Z</time></trkpt><trkpt lat="45.83905" lon="9.4008009"><ele>200.0</ele><time>2026-05-03T13:29:34.548Z</time></trkpt><trkpt lat="45.8390412" lon="9.40062"><ele>199.5</ele><time>2026-05-03T13:29:35.56Z</time></trkpt><trkpt lat="45.8390308" lon="9.4004382"><ele>199.0</ele><time>2026-05-03T13:29:36.551Z</time></trkpt><trkpt lat="45.8390067" lon="9.400257"><ele>198.75</ele><time>2026-05-03T13:29:37.553Z</time></trkpt><trkpt lat="45.8389895" lon="9.4000977"><ele>198.5</ele><time>2026-05-03T13:29:38.552Z</time></trkpt><trkpt lat="45.8389766" lon="9.3999241"><ele>198.25</ele><time>2026-05-03T13:29:39.563Z</time></trkpt><trkpt lat="45.8389573" lon="9.3997391"><ele>198.0</ele><time>2026-05-03T13:29:40.553Z</time></trkpt><trkpt lat="45.8389386" lon="9.3995604"><ele>198.0</ele><time>2026-05-03T13:29:41.566Z</time></trkpt><trkpt lat="45.8389205" lon="9.3993895"><ele>198.0</ele><time>2026-05-03T13:29:42.56Z</time></trkpt><trkpt lat="45.8389017" lon="9.3992243"><ele>198.0</ele><time>2026-05-03T13:29:43.551Z</time></trkpt><trkpt lat="45.8388807" lon="9.3990619"><ele>198.0</ele><time>2026-05-03T13:29:44.56Z</time></trkpt><trkpt lat="45.8388614" lon="9.398904"><ele>198.0</ele><time>2026-05-03T13:29:45.559Z</time></trkpt><trkpt lat="45.8388408" lon="9.3987496"><ele>198.0</ele><time>2026-05-03T13:29:46.559Z</time></trkpt><trkpt lat="45.8388238" lon="9.3985967"><ele>198.0</ele><time>2026-05-03T13:29:47.561Z</time></trkpt><trkpt lat="45.8388134" lon="9.3984486"><ele>198.0</ele><time>2026-05-03T13:29:48.559Z</time></trkpt><trkpt lat="45.8387989" lon="9.3982991"><ele>198.0</ele><time>2026-05-03T13:29:49.557Z</time></trkpt><trkpt lat="45.838785" lon="9.3981374"><ele>198.5</ele><time>2026-05-03T13:29:50.563Z</time></trkpt><trkpt lat="45.8387721" lon="9.3979687"><ele>199.0</ele><time>2026-05-03T13:29:51.562Z</time></trkpt><trkpt lat="45.8387577" lon="9.3977967"><ele>199.5</ele><time>2026-05-03T13:29:52.558Z</time></trkpt><trkpt lat="45.838744" lon="9.3976206"><ele>200.0</ele><time>2026-05-03T13:29:53.568Z</time></trkpt><trkpt lat="45.8387297" lon="9.3974361"><ele>200.0</ele><time>2026-05-03T13:29:54.564Z</time></trkpt><trkpt lat="45.8387167" lon="9.3972546"><ele>200.0</ele><time>2026-05-03T13:29:55.553Z</time></trkpt><trkpt lat="45.8387074" lon="9.3970823"><ele>200.0</ele><time>2026-05-03T13:29:56.556Z</time></trkpt><trkpt lat="45.8387123" lon="9.396932"><ele>200.0</ele><time>2026-05-03T13:29:57.555Z</time></trkpt><trkpt lat="45.8387351" lon="9.396803"><ele>200.0</ele><time>2026-05-03T13:29:58.554Z</time></trkpt><trkpt lat="45.8387725" lon="9.3966838"><ele>200.0</ele><time>2026-05-03T13:29:59.636Z</time></trkpt><trkpt lat="45.8388391" lon="9.3965924"><ele>200.0</ele><time>2026-05-03T13:30:00.557Z</time></trkpt><trkpt lat="45.8389341" lon="9.3965418"><ele>200.0</ele><time>2026-05-03T13:30:01.724Z</time></trkpt><trkpt lat="45.839149" lon="9.3966165"><ele>200.0</ele><time>2026-05-03T13:30:03.558Z</time></trkpt><trkpt lat="45.8392342" lon="9.3967261"><ele>200.0</ele><time>2026-05-03T13:30:04.562Z</time></trkpt><trkpt lat="45.8392866" lon="9.3968514"><ele>200.0</ele><time>2026-05-03T13:30:05.553Z</time></trkpt><trkpt lat="45.8393203" lon="9.3969898"><ele>200.0</ele><time>2026-05-03T13:30:06.557Z</time></trkpt><trkpt lat="45.8393229" lon="9.3971379"><ele>200.0</ele><time>2026-05-03T13:30:07.56Z</time></trkpt><trkpt lat="45.8392869" lon="9.3972708"><ele>200.0</ele><time>2026-05-03T13:30:08.557Z</time></trkpt><trkpt lat="45.839225" lon="9.3973827"><ele>200.0</ele><time>2026-05-03T13:30:09.549Z</time></trkpt><trkpt lat="45.8391347" lon="9.3974675"><ele>200.0</ele><time>2026-05-03T13:30:10.558Z</time></trkpt><trkpt lat="45.8390297" lon="9.3975011"><ele>200.0</ele><time>2026-05-03T13:30:11.548Z</time></trkpt><trkpt lat="45.8389174" lon="9.397477"><ele>200.0</ele><time>2026-05-03T13:30:12.558Z</time></trkpt><trkpt lat="45.8388108" lon="9.3974284"><ele>200.0</ele><time>2026-05-03T13:30:13.544Z</time></trkpt><trkpt lat="45.8387012" lon="9.3973419"><ele>200.0</ele><time>2026-05-03T13:30:14.554Z</time></trkpt><trkpt lat="45.8386054" lon="9.3972776"><ele>200.0</ele><time>2026-05-03T13:30:15.552Z</time></trkpt><trkpt lat="45.8385072" lon="9.3972197"><ele>200.0</ele><time>2026-05-03T13:30:16.538Z</time></trkpt><trkpt lat="45.8383862" lon="9.3970641"><ele>200.0</ele><time>2026-05-03T13:30:17.544Z</time></trkpt><trkpt lat="45.8382596" lon="9.3969937"><ele>201.0</ele><time>2026-05-03T13:30:18.539Z</time></trkpt><trkpt lat="45.8381492" lon="9.3968471"><ele>202.0</ele><time>2026-05-03T13:30:19.543Z</time></trkpt><trkpt lat="45.8380401" lon="9.3967913"><ele>203.0</ele><time>2026-05-03T13:30:20.554Z</time></trkpt><trkpt lat="45.8378961" lon="9.3967526"><ele>204.0</ele><time>2026-05-03T13:30:21.549Z</time></trkpt><trkpt lat="45.8377462" lon="9.3967339"><ele>203.33333333333331</ele><time>2026-05-03T13:30:22.555Z</time></trkpt><trkpt lat="45.8375457" lon="9.3967025"><ele>202.66666666666666</ele><time>2026-05-03T13:30:23.556Z</time></trkpt><trkpt lat="45.8373442" lon="9.3966521"><ele>202.0</ele><time>2026-05-03T13:30:24.546Z</time></trkpt><trkpt lat="45.8371807" lon="9.3966583"><ele>202.0</ele><time>2026-05-03T13:30:25.555Z</time></trkpt><trkpt lat="45.8370242" lon="9.3965945"><ele>202.0</ele><time>2026-05-03T13:30:26.574Z</time></trkpt><trkpt lat="45.8369057" lon="9.396519"><ele>202.0</ele><time>2026-05-03T13:30:27.549Z</time></trkpt><trkpt lat="45.8368158" lon="9.3964104"><ele>202.0</ele><time>2026-05-03T13:30:28.563Z</time></trkpt><trkpt lat="45.8367308" lon="9.3963307"><ele>202.0</ele><time>2026-05-03T13:30:29.551Z</time></trkpt><trkpt lat="45.8366574" lon="9.3962509"><ele>202.0</ele><time>2026-05-03T13:30:30.561Z</time></trkpt><trkpt lat="45.8365936" lon="9.3961605"><ele>202.0</ele><time>2026-05-03T13:30:31.565Z</time></trkpt><trkpt lat="45.8365232" lon="9.3960429"><ele>202.0</ele><time>2026-05-03T13:30:32.558Z</time></trkpt><trkpt lat="45.8364488" lon="9.3958996"><ele>202.0</ele><time>2026-05-03T13:30:33.564Z</time></trkpt><trkpt lat="45.8363711" lon="9.3957305"><ele>202.0</ele><time>2026-05-03T13:30:34.557Z</time></trkpt><trkpt lat="45.8362899" lon="9.3955472"><ele>202.0</ele><time>2026-05-03T13:30:35.565Z</time></trkpt><trkpt lat="45.8361863" lon="9.3952972"><ele>202.0</ele><time>2026-05-03T13:30:36.58Z</time></trkpt><trkpt lat="45.8361059" lon="9.3951063"><ele>202.25</ele><time>2026-05-03T13:30:37.55Z</time></trkpt><trkpt lat="45.8360473" lon="9.3949221"><ele>202.5</ele><time>2026-05-03T13:30:38.565Z</time></trkpt><trkpt lat="45.8359972" lon="9.3947565"><ele>202.75</ele><time>2026-05-03T13:30:39.56Z</time></trkpt><trkpt lat="45.8359533" lon="9.3946005"><ele>203.0</ele><time>2026-05-03T13:30:40.559Z</time></trkpt><trkpt lat="45.8359169" lon="9.3944746"><ele>203.2</ele><time>2026-05-03T13:30:41.563Z</time></trkpt><trkpt lat="45.835869" lon="9.3943371"><ele>203.4</ele><time>2026-05-03T13:30:42.557Z</time></trkpt><trkpt lat="45.8358182" lon="9.3942087"><ele>203.6</ele><time>2026-05-03T13:30:43.56Z</time></trkpt><trkpt lat="45.835774" lon="9.3940918"><ele>203.79999999999998</ele><time>2026-05-03T13:30:44.556Z</time></trkpt><trkpt lat="45.8357413" lon="9.3939847"><ele>204.0</ele><time>2026-05-03T13:30:45.552Z</time></trkpt><trkpt lat="45.8357167" lon="9.3938336"><ele>205.39999999999998</ele><time>2026-05-03T13:30:47.561Z</time></trkpt><trkpt lat="45.8357564" lon="9.3936911"><ele>206.8</ele><time>2026-05-03T13:30:49.55Z</time></trkpt><trkpt lat="45.8357738" lon="9.3935504"><ele>208.2</ele><time>2026-05-03T13:30:51.557Z</time></trkpt><trkpt lat="45.8356886" lon="9.3934339"><ele>209.60000000000002</ele><time>2026-05-03T13:30:53.551Z</time></trkpt><trkpt lat="45.8356176" lon="9.3933776"><ele>211.0</ele><time>2026-05-03T13:30:54.556Z</time></trkpt><trkpt lat="45.8355352" lon="9.393321"><ele>211.0</ele><time>2026-05-03T13:30:55.547Z</time></trkpt><trkpt lat="45.8354416" lon="9.3932727"><ele>211.0</ele><time>2026-05-03T13:30:56.555Z</time></trkpt><trkpt lat="45.8353452" lon="9.3932458"><ele>211.0</ele><time>2026-05-03T13:30:57.542Z</time></trkpt><trkpt lat="45.8352383" lon="9.3932282"><ele>211.0</ele><time>2026-05-03T13:30:58.554Z</time></trkpt><trkpt lat="45.8351312" lon="9.3932196"><ele>211.0</ele><time>2026-05-03T13:30:59.554Z</time></trkpt><trkpt lat="45.8350248" lon="9.3932137"><ele>210.75</ele><time>2026-05-03T13:31:00.55Z</time></trkpt><trkpt lat="45.8349082" lon="9.3932215"><ele>210.5</ele><time>2026-05-03T13:31:01.545Z</time></trkpt><trkpt lat="45.8347789" lon="9.3932345"><ele>210.25</ele><time>2026-05-03T13:31:02.549Z</time></trkpt><trkpt lat="45.8346573" lon="9.3932604"><ele>210.0</ele><time>2026-05-03T13:31:03.548Z</time></trkpt><trkpt lat="45.834542" lon="9.3932696"><ele>210.0</ele><time>2026-05-03T13:31:04.551Z</time></trkpt><trkpt lat="45.8344415" lon="9.3932779"><ele>210.0</ele><time>2026-05-03T13:31:05.547Z</time></trkpt><trkpt lat="45.8343522" lon="9.3932912"><ele>210.0</ele><time>2026-05-03T13:31:06.559Z</time></trkpt><trkpt lat="45.8342645" lon="9.3933011"><ele>210.0</ele><time>2026-05-03T13:31:07.544Z</time></trkpt><trkpt lat="45.8341788" lon="9.3933132"><ele>210.0</ele><time>2026-05-03T13:31:08.547Z</time></trkpt><trkpt lat="45.8341039" lon="9.3933301"><ele>210.0</ele><time>2026-05-03T13:31:09.543Z</time></trkpt><trkpt lat="45.8340339" lon="9.3933349"><ele>210.0</ele><time>2026-05-03T13:31:10.547Z</time></trkpt><trkpt lat="45.8339667" lon="9.3933418"><ele>210.0</ele><time>2026-05-03T13:31:11.552Z</time></trkpt><trkpt lat="45.833899" lon="9.3933539"><ele>210.0</ele><time>2026-05-03T13:31:12.547Z</time></trkpt><trkpt lat="45.8338332" lon="9.3933628"><ele>210.0</ele><time>2026-05-03T13:31:13.552Z</time></trkpt><trkpt lat="45.8337681" lon="9.3933763"><ele>210.0</ele><time>2026-05-03T13:31:14.553Z</time></trkpt><trkpt lat="45.8337043" lon="9.3933945"><ele>210.0</ele><time>2026-05-03T13:31:15.543Z</time></trkpt><trkpt lat="45.8335829" lon="9.3934256"><ele>210.0</ele><time>2026-05-03T13:31:17.543Z</time></trkpt><trkpt lat="45.833519" lon="9.393429"><ele>210.0</ele><time>2026-05-03T13:31:18.55Z</time></trkpt><trkpt lat="45.8334508" lon="9.3934468"><ele>210.0</ele><time>2026-05-03T13:31:19.537Z</time></trkpt><trkpt lat="45.8333836" lon="9.3934988"><ele>210.0</ele><time>2026-05-03T13:31:20.547Z</time></trkpt><trkpt lat="45.8333248" lon="9.3935985"><ele>210.0</ele><time>2026-05-03T13:31:21.539Z</time></trkpt><trkpt lat="45.8332409" lon="9.3937094"><ele>210.0</ele><time>2026-05-03T13:31:22.541Z</time></trkpt><trkpt lat="45.8331495" lon="9.3938109"><ele>208.75</ele><time>2026-05-03T13:31:23.553Z</time></trkpt><trkpt lat="45.833066" lon="9.393914"><ele>207.5</ele><time>2026-05-03T13:31:24.553Z</time></trkpt><trkpt lat="45.8329813" lon="9.3940135"><ele>206.25</ele><time>2026-05-03T13:31:25.548Z</time></trkpt><trkpt lat="45.8328935" lon="9.3941127"><ele>205.0</ele><time>2026-05-03T13:31:26.56Z</time></trkpt><trkpt lat="45.8327982" lon="9.394223"><ele>205.0</ele><time>2026-05-03T13:31:27.547Z</time></trkpt><trkpt lat="45.8326894" lon="9.3943458"><ele>205.0</ele><time>2026-05-03T13:31:28.543Z</time></trkpt><trkpt lat="45.8325599" lon="9.3944689"><ele>205.0</ele><time>2026-05-03T13:31:29.549Z</time></trkpt><trkpt lat="45.8324128" lon="9.3945768"><ele>205.5</ele><time>2026-05-03T13:31:30.55Z</time></trkpt><trkpt lat="45.8322796" lon="9.3946694"><ele>206.0</ele><time>2026-05-03T13:31:31.55Z</time></trkpt><trkpt lat="45.8321457" lon="9.3947268"><ele>206.5</ele><time>2026-05-03T13:31:32.559Z</time></trkpt><trkpt lat="45.8320129" lon="9.3948038"><ele>207.0</ele><time>2026-05-03T13:31:33.557Z</time></trkpt><trkpt lat="45.8318868" lon="9.3948519"><ele>207.25</ele><time>2026-05-03T13:31:34.553Z</time></trkpt><trkpt lat="45.8317566" lon="9.3948868"><ele>207.5</ele><time>2026-05-03T13:31:35.562Z</time></trkpt><trkpt lat="45.8316141" lon="9.3949125"><ele>207.75</ele><time>2026-05-03T13:31:36.55Z</time></trkpt><trkpt lat="45.8314858" lon="9.3949514"><ele>208.0</ele><time>2026-05-03T13:31:37.551Z</time></trkpt><trkpt lat="45.8313538" lon="9.3949847"><ele>208.0</ele><time>2026-05-03T13:31:38.55Z</time></trkpt><trkpt lat="45.8311991" lon="9.3950083"><ele>208.0</ele><time>2026-05-03T13:31:39.548Z</time></trkpt><trkpt lat="45.8310779" lon="9.3950355"><ele>208.0</ele><time>2026-05-03T13:31:40.548Z</time></trkpt><trkpt lat="45.8309506" lon="9.3950681"><ele>208.0</ele><time>2026-05-03T13:31:41.553Z</time></trkpt><trkpt lat="45.8308242" lon="9.3950919"><ele>207.5</ele><time>2026-05-03T13:31:42.543Z</time></trkpt><trkpt lat="45.8306961" lon="9.3951124"><ele>207.0</ele><time>2026-05-03T13:31:43.561Z</time></trkpt><trkpt lat="45.8305674" lon="9.395133"><ele>206.5</ele><time>2026-05-03T13:31:44.551Z</time></trkpt><trkpt lat="45.8304372" lon="9.3951508"><ele>206.0</ele><time>2026-05-03T13:31:45.543Z</time></trkpt><trkpt lat="45.8303136" lon="9.3951705"><ele>206.0</ele><time>2026-05-03T13:31:46.552Z</time></trkpt><trkpt lat="45.8301953" lon="9.3951916"><ele>206.0</ele><time>2026-05-03T13:31:47.551Z</time></trkpt><trkpt lat="45.8300717" lon="9.3952132"><ele>206.0</ele><time>2026-05-03T13:31:48.548Z</time></trkpt><trkpt lat="45.829946" lon="9.3952377"><ele>206.0</ele><time>2026-05-03T13:31:49.551Z</time></trkpt><trkpt lat="45.8298256" lon="9.395264"><ele>207.75</ele><time>2026-05-03T13:31:50.554Z</time></trkpt><trkpt lat="45.8297063" lon="9.3952858"><ele>209.5</ele><time>2026-05-03T13:31:51.547Z</time></trkpt><trkpt lat="45.8295891" lon="9.3953078"><ele>211.25</ele><time>2026-05-03T13:31:52.555Z</time></trkpt><trkpt lat="45.8294678" lon="9.3953287"><ele>213.0</ele><time>2026-05-03T13:31:53.551Z</time></trkpt><trkpt lat="45.8293486" lon="9.3953454"><ele>213.0</ele><time>2026-05-03T13:31:54.551Z</time></trkpt><trkpt lat="45.8292274" lon="9.3953665"><ele>213.0</ele><time>2026-05-03T13:31:55.545Z</time></trkpt><trkpt lat="45.8290937" lon="9.3953868"><ele>213.0</ele><time>2026-05-03T13:31:56.556Z</time></trkpt><trkpt lat="45.8289386" lon="9.3954192"><ele>213.0</ele><time>2026-05-03T13:31:57.55Z</time></trkpt><trkpt lat="45.828768" lon="9.3954295"><ele>213.0</ele><time>2026-05-03T13:31:58.551Z</time></trkpt><trkpt lat="45.8285904" lon="9.3954236"><ele>213.0</ele><time>2026-05-03T13:31:59.559Z</time></trkpt><trkpt lat="45.8284314" lon="9.3954416"><ele>213.0</ele><time>2026-05-03T13:32:00.547Z</time></trkpt><trkpt lat="45.8282845" lon="9.3954475"><ele>212.25</ele><time>2026-05-03T13:32:01.56Z</time></trkpt><trkpt lat="45.828135" lon="9.3954319"><ele>211.5</ele><time>2026-05-03T13:32:02.547Z</time></trkpt><trkpt lat="45.8279929" lon="9.3953952"><ele>210.75</ele><time>2026-05-03T13:32:03.544Z</time></trkpt><trkpt lat="45.8278757" lon="9.3953939"><ele>210.0</ele><time>2026-05-03T13:32:04.547Z</time></trkpt><trkpt lat="45.827752" lon="9.3953758"><ele>210.25</ele><time>2026-05-03T13:32:05.555Z</time></trkpt><trkpt lat="45.827621" lon="9.3953547"><ele>210.5</ele><time>2026-05-03T13:32:06.544Z</time></trkpt><trkpt lat="45.8274939" lon="9.3953103"><ele>210.75</ele><time>2026-05-03T13:32:07.547Z</time></trkpt><trkpt lat="45.8273571" lon="9.3952903"><ele>211.0</ele><time>2026-05-03T13:32:08.552Z</time></trkpt><trkpt lat="45.8272259" lon="9.3952761"><ele>211.0</ele><time>2026-05-03T13:32:09.552Z</time></trkpt><trkpt lat="45.827084" lon="9.3952714"><ele>211.0</ele><time>2026-05-03T13:32:10.543Z</time></trkpt><trkpt lat="45.8269251" lon="9.3952595"><ele>211.0</ele><time>2026-05-03T13:32:11.557Z</time></trkpt><trkpt lat="45.8267714" lon="9.3952389"><ele>210.5</ele><time>2026-05-03T13:32:12.551Z</time></trkpt><trkpt lat="45.8266585" lon="9.3952196"><ele>210.0</ele><time>2026-05-03T13:32:13.548Z</time></trkpt><trkpt lat="45.8265555" lon="9.3951836"><ele>209.5</ele><time>2026-05-03T13:32:14.557Z</time></trkpt><trkpt lat="45.8264376" lon="9.3951748"><ele>209.0</ele><time>2026-05-03T13:32:15.55Z</time></trkpt><trkpt lat="45.8263245" lon="9.3951479"><ele>209.0</ele><time>2026-05-03T13:32:16.558Z</time></trkpt><trkpt lat="45.8261825" lon="9.3951201"><ele>209.0</ele><time>2026-05-03T13:32:17.556Z</time></trkpt><trkpt lat="45.8260608" lon="9.3950955"><ele>209.0</ele><time>2026-05-03T13:32:18.541Z</time></trkpt><trkpt lat="45.8259444" lon="9.3950729"><ele>209.0</ele><time>2026-05-03T13:32:19.55Z</time></trkpt><trkpt lat="45.8258199" lon="9.3950405"><ele>208.33333333333334</ele><time>2026-05-03T13:32:20.551Z</time></trkpt><trkpt lat="45.8256795" lon="9.3950104"><ele>207.66666666666669</ele><time>2026-05-03T13:32:21.55Z</time></trkpt><trkpt lat="45.8254974" lon="9.3949868"><ele>207.0</ele><time>2026-05-03T13:32:22.538Z</time></trkpt><trkpt lat="45.8253338" lon="9.3949799"><ele>207.0</ele><time>2026-05-03T13:32:23.551Z</time></trkpt><trkpt lat="45.8251914" lon="9.3949601"><ele>207.0</ele><time>2026-05-03T13:32:24.541Z</time></trkpt><trkpt lat="45.8250705" lon="9.3949544"><ele>207.0</ele><time>2026-05-03T13:32:25.547Z</time></trkpt><trkpt lat="45.8249356" lon="9.394925"><ele>207.0</ele><time>2026-05-03T13:32:26.554Z</time></trkpt><trkpt lat="45.8248206" lon="9.394898"><ele>206.5</ele><time>2026-05-03T13:32:27.554Z</time></trkpt><trkpt lat="45.8246981" lon="9.3948723"><ele>206.0</ele><time>2026-05-03T13:32:28.551Z</time></trkpt><trkpt lat="45.8245686" lon="9.394839"><ele>205.5</ele><time>2026-05-03T13:32:29.585Z</time></trkpt><trkpt lat="45.8244371" lon="9.3948045"><ele>205.0</ele><time>2026-05-03T13:32:30.548Z</time></trkpt><trkpt lat="45.8243097" lon="9.3947805"><ele>205.0</ele><time>2026-05-03T13:32:31.549Z</time></trkpt><trkpt lat="45.8241668" lon="9.394753"><ele>205.0</ele><time>2026-05-03T13:32:32.554Z</time></trkpt><trkpt lat="45.8240333" lon="9.3947244"><ele>205.0</ele><time>2026-05-03T13:32:33.545Z</time></trkpt><trkpt lat="45.8239013" lon="9.3946905"><ele>205.0</ele><time>2026-05-03T13:32:34.545Z</time></trkpt><trkpt lat="45.8237552" lon="9.394652"><ele>207.0</ele><time>2026-05-03T13:32:35.553Z</time></trkpt><trkpt lat="45.8236081" lon="9.3946063"><ele>209.0</ele><time>2026-05-03T13:32:36.539Z</time></trkpt><trkpt lat="45.8234686" lon="9.3946124"><ele>211.0</ele><time>2026-05-03T13:32:37.543Z</time></trkpt><trkpt lat="45.8233088" lon="9.3945962"><ele>211.0</ele><time>2026-05-03T13:32:38.549Z</time></trkpt><trkpt lat="45.8231544" lon="9.3946104"><ele>211.0</ele><time>2026-05-03T13:32:39.543Z</time></trkpt><trkpt lat="45.8229872" lon="9.3946292"><ele>211.0</ele><time>2026-05-03T13:32:40.543Z</time></trkpt><trkpt lat="45.8228166" lon="9.3946302"><ele>211.0</ele><time>2026-05-03T13:32:41.624Z</time></trkpt><trkpt lat="45.8226732" lon="9.394648"><ele>211.0</ele><time>2026-05-03T13:32:42.545Z</time></trkpt><trkpt lat="45.8225371" lon="9.3946371"><ele>211.0</ele><time>2026-05-03T13:32:43.546Z</time></trkpt><trkpt lat="45.8223961" lon="9.3946263"><ele>211.0</ele><time>2026-05-03T13:32:44.548Z</time></trkpt><trkpt lat="45.8222596" lon="9.3945837"><ele>211.0</ele><time>2026-05-03T13:32:45.543Z</time></trkpt><trkpt lat="45.8221349" lon="9.3945526"><ele>211.0</ele><time>2026-05-03T13:32:46.544Z</time></trkpt><trkpt lat="45.8219757" lon="9.3945356"><ele>211.0</ele><time>2026-05-03T13:32:47.554Z</time></trkpt><trkpt lat="45.8218243" lon="9.3945152"><ele>211.0</ele><time>2026-05-03T13:32:48.549Z</time></trkpt><trkpt lat="45.8216549" lon="9.3944955"><ele>213.5</ele><time>2026-05-03T13:32:49.546Z</time></trkpt><trkpt lat="45.8215087" lon="9.3944732"><ele>216.0</ele><time>2026-05-03T13:32:50.554Z</time></trkpt><trkpt lat="45.8213667" lon="9.39445"><ele>218.5</ele><time>2026-05-03T13:32:51.55Z</time></trkpt><trkpt lat="45.8212184" lon="9.3944357"><ele>221.0</ele><time>2026-05-03T13:32:52.549Z</time></trkpt><trkpt lat="45.8210688" lon="9.3944392"><ele>223.5</ele><time>2026-05-03T13:32:53.553Z</time></trkpt><trkpt lat="45.8209299" lon="9.3944687"><ele>226.0</ele><time>2026-05-03T13:32:54.548Z</time></trkpt><trkpt lat="45.8208065" lon="9.3945097"><ele>228.5</ele><time>2026-05-03T13:32:55.543Z</time></trkpt><trkpt lat="45.8206878" lon="9.3945734"><ele>231.0</ele><time>2026-05-03T13:32:56.555Z</time></trkpt><trkpt lat="45.8205691" lon="9.3946297"><ele>226.75</ele><time>2026-05-03T13:32:57.546Z</time></trkpt><trkpt lat="45.820447" lon="9.394702"><ele>222.5</ele><time>2026-05-03T13:32:58.552Z</time></trkpt><trkpt lat="45.8203171" lon="9.3947822"><ele>218.25</ele><time>2026-05-03T13:32:59.556Z</time></trkpt><trkpt lat="45.8201938" lon="9.3948416"><ele>214.0</ele><time>2026-05-03T13:33:00.549Z</time></trkpt><trkpt lat="45.8200728" lon="9.3948993"><ele>214.0</ele><time>2026-05-03T13:33:01.548Z</time></trkpt><trkpt lat="45.819959" lon="9.3949489"><ele>214.0</ele><time>2026-05-03T13:33:02.552Z</time></trkpt><trkpt lat="45.8198457" lon="9.395005"><ele>214.0</ele><time>2026-05-03T13:33:03.544Z</time></trkpt><trkpt lat="45.8197372" lon="9.3950644"><ele>214.0</ele><time>2026-05-03T13:33:04.55Z</time></trkpt><trkpt lat="45.8196276" lon="9.3951288"><ele>214.0</ele><time>2026-05-03T13:33:05.554Z</time></trkpt><trkpt lat="45.819514" lon="9.3951889"><ele>214.0</ele><time>2026-05-03T13:33:06.544Z</time></trkpt><trkpt lat="45.819401" lon="9.3952477"><ele>214.0</ele><time>2026-05-03T13:33:07.545Z</time></trkpt><trkpt lat="45.8192779" lon="9.3953114"><ele>214.0</ele><time>2026-05-03T13:33:08.553Z</time></trkpt><trkpt lat="45.8191426" lon="9.3953801"><ele>213.66666666666666</ele><time>2026-05-03T13:33:09.547Z</time></trkpt><trkpt lat="45.8189842" lon="9.3954676"><ele>213.33333333333331</ele><time>2026-05-03T13:33:10.555Z</time></trkpt><trkpt lat="45.818836" lon="9.395545"><ele>213.0</ele><time>2026-05-03T13:33:11.549Z</time></trkpt><trkpt lat="45.818682" lon="9.3956181"><ele>211.0</ele><time>2026-05-03T13:33:12.551Z</time></trkpt><trkpt lat="45.8185299" lon="9.3957023"><ele>209.0</ele><time>2026-05-03T13:33:13.55Z</time></trkpt><trkpt lat="45.8183911" lon="9.3957558"><ele>207.0</ele><time>2026-05-03T13:33:14.552Z</time></trkpt><trkpt lat="45.8182622" lon="9.3958086"><ele>205.0</ele><time>2026-05-03T13:33:15.548Z</time></trkpt><trkpt lat="45.8181395" lon="9.3958558"><ele>205.0</ele><time>2026-05-03T13:33:16.551Z</time></trkpt><trkpt lat="45.8180211" lon="9.3959105"><ele>205.0</ele><time>2026-05-03T13:33:17.556Z</time></trkpt><trkpt lat="45.8179098" lon="9.3959807"><ele>205.0</ele><time>2026-05-03T13:33:18.552Z</time></trkpt><trkpt lat="45.8177995" lon="9.396041"><ele>205.0</ele><time>2026-05-03T13:33:19.552Z</time></trkpt><trkpt lat="45.8176926" lon="9.3960927"><ele>205.0</ele><time>2026-05-03T13:33:20.557Z</time></trkpt><trkpt lat="45.8175715" lon="9.3961467"><ele>205.0</ele><time>2026-05-03T13:33:21.553Z</time></trkpt><trkpt lat="45.8174448" lon="9.396209"><ele>205.0</ele><time>2026-05-03T13:33:22.554Z</time></trkpt><trkpt lat="45.8173213" lon="9.3962759"><ele>205.0</ele><time>2026-05-03T13:33:23.565Z</time></trkpt><trkpt lat="45.8172015" lon="9.3963403"><ele>204.75</ele><time>2026-05-03T13:33:24.557Z</time></trkpt><trkpt lat="45.8170826" lon="9.3964036"><ele>204.5</ele><time>2026-05-03T13:33:25.557Z</time></trkpt><trkpt lat="45.8169637" lon="9.3964688"><ele>204.25</ele><time>2026-05-03T13:33:26.558Z</time></trkpt><trkpt lat="45.8168391" lon="9.3965305"><ele>204.0</ele><time>2026-05-03T13:33:27.553Z</time></trkpt><trkpt lat="45.8167161" lon="9.3965979"><ele>204.0</ele><time>2026-05-03T13:33:28.553Z</time></trkpt><trkpt lat="45.8165988" lon="9.3966547"><ele>204.0</ele><time>2026-05-03T13:33:29.559Z</time></trkpt><trkpt lat="45.8164856" lon="9.3967039"><ele>204.0</ele><time>2026-05-03T13:33:30.552Z</time></trkpt><trkpt lat="45.8163729" lon="9.3967541"><ele>204.0</ele><time>2026-05-03T13:33:31.554Z</time></trkpt><trkpt lat="45.8162604" lon="9.3968024"><ele>204.0</ele><time>2026-05-03T13:33:32.551Z</time></trkpt><trkpt lat="45.8161485" lon="9.396854"><ele>204.0</ele><time>2026-05-03T13:33:33.553Z</time></trkpt><trkpt lat="45.8160377" lon="9.3969088"><ele>204.0</ele><time>2026-05-03T13:33:34.559Z</time></trkpt><trkpt lat="45.8159268" lon="9.3969697"><ele>204.0</ele><time>2026-05-03T13:33:35.562Z</time></trkpt><trkpt lat="45.8158082" lon="9.3970275"><ele>204.5</ele><time>2026-05-03T13:33:36.555Z</time></trkpt><trkpt lat="45.8156962" lon="9.3970818"><ele>205.0</ele><time>2026-05-03T13:33:37.554Z</time></trkpt><trkpt lat="45.8155821" lon="9.3971462"><ele>205.5</ele><time>2026-05-03T13:33:38.557Z</time></trkpt><trkpt lat="45.8154653" lon="9.3972054"><ele>206.0</ele><time>2026-05-03T13:33:39.553Z</time></trkpt><trkpt lat="45.8153536" lon="9.3972617"><ele>206.0</ele><time>2026-05-03T13:33:40.561Z</time></trkpt><trkpt lat="45.8152506" lon="9.3973195"><ele>206.0</ele><time>2026-05-03T13:33:41.557Z</time></trkpt><trkpt lat="45.8151405" lon="9.3973737"><ele>206.0</ele><time>2026-05-03T13:33:42.551Z</time></trkpt><trkpt lat="45.8150257" lon="9.3974335"><ele>206.0</ele><time>2026-05-03T13:33:43.553Z</time></trkpt><trkpt lat="45.814895" lon="9.3975068"><ele>206.66666666666669</ele><time>2026-05-03T13:33:44.556Z</time></trkpt><trkpt lat="45.8147458" lon="9.3975859"><ele>207.33333333333331</ele><time>2026-05-03T13:33:45.555Z</time></trkpt><trkpt lat="45.8145864" lon="9.3976659"><ele>208.0</ele><time>2026-05-03T13:33:46.559Z</time></trkpt><trkpt lat="45.8144518" lon="9.3977177"><ele>208.0</ele><time>2026-05-03T13:33:47.558Z</time></trkpt><trkpt lat="45.8143246" lon="9.397778"><ele>208.0</ele><time>2026-05-03T13:33:48.551Z</time></trkpt><trkpt lat="45.8142099" lon="9.3978393"><ele>208.0</ele><time>2026-05-03T13:33:49.551Z</time></trkpt><trkpt lat="45.8140887" lon="9.3978958"><ele>208.0</ele><time>2026-05-03T13:33:50.565Z</time></trkpt><trkpt lat="45.8139727" lon="9.3979625"><ele>208.0</ele><time>2026-05-03T13:33:51.558Z</time></trkpt><trkpt lat="45.8138676" lon="9.3980229"><ele>208.0</ele><time>2026-05-03T13:33:52.557Z</time></trkpt><trkpt lat="45.8137706" lon="9.398078"><ele>208.0</ele><time>2026-05-03T13:33:53.57Z</time></trkpt><trkpt lat="45.8136763" lon="9.3981288"><ele>208.0</ele><time>2026-05-03T13:33:54.553Z</time></trkpt><trkpt lat="45.8135869" lon="9.3981731"><ele>208.0</ele><time>2026-05-03T13:33:55.566Z</time></trkpt><trkpt lat="45.8135015" lon="9.3982124"><ele>207.99999999999997</ele><time>2026-05-03T13:33:56.558Z</time></trkpt><trkpt lat="45.8134178" lon="9.3982551"><ele>208.0</ele><time>2026-05-03T13:33:57.554Z</time></trkpt><trkpt lat="45.813337" lon="9.3982997"><ele>208.0</ele><time>2026-05-03T13:33:58.561Z</time></trkpt><trkpt lat="45.813268" lon="9.3983386"><ele>208.0</ele><time>2026-05-03T13:33:59.565Z</time></trkpt><trkpt lat="45.8131713" lon="9.3983921"><ele>207.99999999999997</ele><time>2026-05-03T13:34:01.563Z</time></trkpt><trkpt lat="45.8131086" lon="9.3984272"><ele>208.0</ele><time>2026-05-03T13:34:13.575Z</time></trkpt><trkpt lat="45.8130372" lon="9.3984744"><ele>207.99999999999997</ele><time>2026-05-03T13:34:15.569Z</time></trkpt><trkpt lat="45.8129561" lon="9.3985096"><ele>208.0</ele><time>2026-05-03T13:34:16.562Z</time></trkpt><trkpt lat="45.8128718" lon="9.3985453"><ele>208.0</ele><time>2026-05-03T13:34:17.561Z</time></trkpt><trkpt lat="45.8128045" lon="9.3985697"><ele>208.0</ele><time>2026-05-03T13:34:18.56Z</time></trkpt><trkpt lat="45.8127336" lon="9.3985959"><ele>207.99999999999997</ele><time>2026-05-03T13:34:20.583Z</time></trkpt><trkpt lat="45.8126708" lon="9.3986053"><ele>208.0</ele><time>2026-05-03T13:34:22.566Z</time></trkpt><trkpt lat="45.8125897" lon="9.3986053"><ele>207.99999999999997</ele><time>2026-05-03T13:34:25.572Z</time></trkpt><trkpt lat="45.8124995" lon="9.3986093"><ele>208.0</ele><time>2026-05-03T13:34:27.563Z</time></trkpt><trkpt lat="45.8124193" lon="9.3987002"><ele>208.0</ele><time>2026-05-03T13:34:29.652Z</time></trkpt><trkpt lat="45.8123708" lon="9.3987774"><ele>208.0</ele><time>2026-05-03T13:34:30.564Z</time></trkpt><trkpt lat="45.8123113" lon="9.3988594"><ele>207.99999999999997</ele><time>2026-05-03T13:34:31.56Z</time></trkpt><trkpt lat="45.8122319" lon="9.3989334"><ele>208.0</ele><time>2026-05-03T13:34:32.567Z</time></trkpt><trkpt lat="45.8121366" lon="9.3989838"><ele>207.8</ele><time>2026-05-03T13:34:33.56Z</time></trkpt><trkpt lat="45.812037" lon="9.3990293"><ele>207.60000000000002</ele><time>2026-05-03T13:34:34.566Z</time></trkpt><trkpt lat="45.8119471" lon="9.3990752"><ele>207.39999999999998</ele><time>2026-05-03T13:34:35.565Z</time></trkpt><trkpt lat="45.8118701" lon="9.3991206"><ele>207.2</ele><time>2026-05-03T13:34:36.567Z</time></trkpt><trkpt lat="45.8117878" lon="9.3991717"><ele>207.0</ele><time>2026-05-03T13:34:37.56Z</time></trkpt><trkpt lat="45.8116951" lon="9.3992302"><ele>207.0</ele><time>2026-05-03T13:34:38.565Z</time></trkpt><trkpt lat="45.811599" lon="9.3992833"><ele>207.0</ele><time>2026-05-03T13:34:39.564Z</time></trkpt><trkpt lat="45.8115211" lon="9.3993244"><ele>207.0</ele><time>2026-05-03T13:34:40.561Z</time></trkpt><trkpt lat="45.811462" lon="9.399362"><ele>207.0</ele><time>2026-05-03T13:34:41.567Z</time></trkpt><trkpt lat="45.8113502" lon="9.3994258"><ele>207.0</ele><time>2026-05-03T13:34:43.563Z</time></trkpt><trkpt lat="45.8112806" lon="9.3994643"><ele>207.0</ele><time>2026-05-03T13:34:44.565Z</time></trkpt><trkpt lat="45.8111916" lon="9.3995175"><ele>207.0</ele><time>2026-05-03T13:34:45.561Z</time></trkpt><trkpt lat="45.8110906" lon="9.3995724"><ele>207.0</ele><time>2026-05-03T13:34:46.558Z</time></trkpt><trkpt lat="45.81099" lon="9.3996195"><ele>207.0</ele><time>2026-05-03T13:34:47.571Z</time></trkpt><trkpt lat="45.8108933" lon="9.3996651"><ele>207.0</ele><time>2026-05-03T13:34:48.564Z</time></trkpt><trkpt lat="45.8107972" lon="9.3997104"><ele>207.0</ele><time>2026-05-03T13:34:49.565Z</time></trkpt><trkpt lat="45.8106969" lon="9.3997605"><ele>206.0</ele><time>2026-05-03T13:34:50.568Z</time></trkpt><trkpt lat="45.8105925" lon="9.3998215"><ele>205.0</ele><time>2026-05-03T13:34:51.564Z</time></trkpt><trkpt lat="45.8104895" lon="9.3998734"><ele>204.0</ele><time>2026-05-03T13:34:52.563Z</time></trkpt><trkpt lat="45.8103923" lon="9.3999281"><ele>203.0</ele><time>2026-05-03T13:34:53.571Z</time></trkpt><trkpt lat="45.8103008" lon="9.3999819"><ele>202.0</ele><time>2026-05-03T13:34:54.563Z</time></trkpt><trkpt lat="45.810222" lon="9.4000268"><ele>202.0</ele><time>2026-05-03T13:34:55.568Z</time></trkpt><trkpt lat="45.8101522" lon="9.4000693"><ele>202.0</ele><time>2026-05-03T13:34:56.569Z</time></trkpt><trkpt lat="45.8100889" lon="9.4001069"><ele>202.0</ele><time>2026-05-03T13:34:57.567Z</time></trkpt><trkpt lat="45.8100265" lon="9.4001412"><ele>202.0</ele><time>2026-05-03T13:34:58.567Z</time></trkpt><trkpt lat="45.8099606" lon="9.4001847"><ele>202.0</ele><time>2026-05-03T13:34:59.569Z</time></trkpt><trkpt lat="45.809892" lon="9.4002309"><ele>202.0</ele><time>2026-05-03T13:35:00.566Z</time></trkpt><trkpt lat="45.809832" lon="9.4002684"><ele>202.0</ele><time>2026-05-03T13:35:01.574Z</time></trkpt><trkpt lat="45.8097411" lon="9.4003285"><ele>201.99999999999997</ele><time>2026-05-03T13:35:03.566Z</time></trkpt><trkpt lat="45.809664" lon="9.4003724"><ele>202.0</ele><time>2026-05-03T13:35:05.575Z</time></trkpt><trkpt lat="45.8095968" lon="9.4004276"><ele>202.0</ele><time>2026-05-03T13:35:07.564Z</time></trkpt><trkpt lat="45.8095228" lon="9.4004882"><ele>202.0</ele><time>2026-05-03T13:35:09.568Z</time></trkpt><trkpt lat="45.8094247" lon="9.4005573"><ele>201.99999999999997</ele><time>2026-05-03T13:35:11.566Z</time></trkpt><trkpt lat="45.80936" lon="9.4005954"><ele>202.0</ele><time>2026-05-03T13:35:12.562Z</time></trkpt><trkpt lat="45.8092749" lon="9.400641"><ele>202.0</ele><time>2026-05-03T13:35:13.566Z</time></trkpt><trkpt lat="45.8091804" lon="9.4006948"><ele>202.0</ele><time>2026-05-03T13:35:14.569Z</time></trkpt><trkpt lat="45.8090779" lon="9.400753"><ele>202.0</ele><time>2026-05-03T13:35:15.568Z</time></trkpt><trkpt lat="45.8089772" lon="9.4008091"><ele>202.0</ele><time>2026-05-03T13:35:16.568Z</time></trkpt><trkpt lat="45.8088836" lon="9.4008674"><ele>202.0</ele><time>2026-05-03T13:35:17.579Z</time></trkpt><trkpt lat="45.8087888" lon="9.4009292"><ele>202.0</ele><time>2026-05-03T13:35:18.562Z</time></trkpt><trkpt lat="45.8086922" lon="9.4009862"><ele>202.0</ele><time>2026-05-03T13:35:19.563Z</time></trkpt><trkpt lat="45.8085961" lon="9.4010457"><ele>202.0</ele><time>2026-05-03T13:35:20.568Z</time></trkpt><trkpt lat="45.8084983" lon="9.401099"><ele>202.0</ele><time>2026-05-03T13:35:21.561Z</time></trkpt><trkpt lat="45.8084033" lon="9.4011577"><ele>202.0</ele><time>2026-05-03T13:35:22.573Z</time></trkpt><trkpt lat="45.8083099" lon="9.4012239"><ele>201.99999999999997</ele><time>2026-05-03T13:35:23.574Z</time></trkpt><trkpt lat="45.8082288" lon="9.4012896"><ele>202.0</ele><time>2026-05-03T13:35:24.563Z</time></trkpt><trkpt lat="45.8081571" lon="9.4013425"><ele>202.0</ele><time>2026-05-03T13:35:25.567Z</time></trkpt><trkpt lat="45.8080955" lon="9.4013933"><ele>202.0</ele><time>2026-05-03T13:35:26.559Z</time></trkpt><trkpt lat="45.8080448" lon="9.4014482"><ele>201.99999999999997</ele><time>2026-05-03T13:35:27.56Z</time></trkpt><trkpt lat="45.8079937" lon="9.4015042"><ele>202.0</ele><time>2026-05-03T13:35:28.559Z</time></trkpt><trkpt lat="45.8079033" lon="9.4016152"><ele>201.83333333333331</ele><time>2026-05-03T13:35:30.565Z</time></trkpt><trkpt lat="45.8078351" lon="9.4016943"><ele>201.66666666666666</ele><time>2026-05-03T13:35:32.579Z</time></trkpt><trkpt lat="45.8077759" lon="9.4017429"><ele>201.5</ele><time>2026-05-03T13:35:35.571Z</time></trkpt><trkpt lat="45.8077093" lon="9.401813"><ele>201.33333333333331</ele><time>2026-05-03T13:35:37.57Z</time></trkpt><trkpt lat="45.8076353" lon="9.4018864"><ele>201.16666666666666</ele><time>2026-05-03T13:35:39.57Z</time></trkpt><trkpt lat="45.8075748" lon="9.4019341"><ele>201.0</ele><time>2026-05-03T13:35:43.571Z</time></trkpt><trkpt lat="45.8074913" lon="9.4019958"><ele>201.20000000000002</ele><time>2026-05-03T13:35:45.57Z</time></trkpt><trkpt lat="45.8073833" lon="9.4019789"><ele>201.4</ele><time>2026-05-03T13:35:47.579Z</time></trkpt><trkpt lat="45.8073243" lon="9.4020741"><ele>201.6</ele><time>2026-05-03T13:35:49.564Z</time></trkpt><trkpt lat="45.8072892" lon="9.4022457"><ele>201.8</ele><time>2026-05-03T13:35:51.565Z</time></trkpt><trkpt lat="45.807263" lon="9.4023303"><ele>202.0</ele><time>2026-05-03T13:35:52.569Z</time></trkpt><trkpt lat="45.8072242" lon="9.4024031"><ele>201.99999999999997</ele><time>2026-05-03T13:35:53.57Z</time></trkpt><trkpt lat="45.8071689" lon="9.4024738"><ele>202.0</ele><time>2026-05-03T13:35:54.562Z</time></trkpt><trkpt lat="45.8071043" lon="9.4025424"><ele>202.0</ele><time>2026-05-03T13:35:55.569Z</time></trkpt><trkpt lat="45.8070396" lon="9.4026076"><ele>202.0</ele><time>2026-05-03T13:35:56.566Z</time></trkpt><trkpt lat="45.8069766" lon="9.4026749"><ele>201.99999999999997</ele><time>2026-05-03T13:35:57.563Z</time></trkpt><trkpt lat="45.8069146" lon="9.4027381"><ele>202.0</ele><time>2026-05-03T13:35:58.56Z</time></trkpt><trkpt lat="45.8068556" lon="9.402806"><ele>202.0</ele><time>2026-05-03T13:35:59.566Z</time></trkpt><trkpt lat="45.8067845" lon="9.4028842"><ele>202.0</ele><time>2026-05-03T13:36:00.56Z</time></trkpt><trkpt lat="45.8066973" lon="9.4029749"><ele>202.0</ele><time>2026-05-03T13:36:01.562Z</time></trkpt><trkpt lat="45.8066116" lon="9.4030632"><ele>202.0</ele><time>2026-05-03T13:36:02.562Z</time></trkpt><trkpt lat="45.806523" lon="9.4031473"><ele>202.0</ele><time>2026-05-03T13:36:03.563Z</time></trkpt><trkpt lat="45.8064381" lon="9.403231"><ele>202.0</ele><time>2026-05-03T13:36:04.557Z</time></trkpt><trkpt lat="45.806357" lon="9.4033084"><ele>202.0</ele><time>2026-05-03T13:36:05.568Z</time></trkpt><trkpt lat="45.8062823" lon="9.4033883"><ele>202.0</ele><time>2026-05-03T13:36:06.558Z</time></trkpt><trkpt lat="45.8062027" lon="9.4034722"><ele>202.0</ele><time>2026-05-03T13:36:07.559Z</time></trkpt><trkpt lat="45.8061079" lon="9.4035682"><ele>202.0</ele><time>2026-05-03T13:36:08.562Z</time></trkpt><trkpt lat="45.8059891" lon="9.4036865"><ele>202.0</ele><time>2026-05-03T13:36:09.561Z</time></trkpt><trkpt lat="45.8058264" lon="9.4038392"><ele>202.0</ele><time>2026-05-03T13:36:10.561Z</time></trkpt><trkpt lat="45.8056991" lon="9.4039688"><ele>202.0</ele><time>2026-05-03T13:36:11.564Z</time></trkpt><trkpt lat="45.8055789" lon="9.4040886"><ele>202.0</ele><time>2026-05-03T13:36:12.559Z</time></trkpt><trkpt lat="45.8054497" lon="9.4042313"><ele>202.0</ele><time>2026-05-03T13:36:13.563Z</time></trkpt><trkpt lat="45.8052916" lon="9.4043868"><ele>202.0</ele><time>2026-05-03T13:36:14.564Z</time></trkpt><trkpt lat="45.8051317" lon="9.4045416"><ele>201.33333333333331</ele><time>2026-05-03T13:36:15.564Z</time></trkpt><trkpt lat="45.8049781" lon="9.4046986"><ele>200.66666666666669</ele><time>2026-05-03T13:36:16.553Z</time></trkpt><trkpt lat="45.8048417" lon="9.404825"><ele>200.0</ele><time>2026-05-03T13:36:17.571Z</time></trkpt><trkpt lat="45.8047185" lon="9.4049444"><ele>200.0</ele><time>2026-05-03T13:36:18.555Z</time></trkpt><trkpt lat="45.8046115" lon="9.4050681"><ele>200.0</ele><time>2026-05-03T13:36:19.557Z</time></trkpt><trkpt lat="45.804529" lon="9.4051645"><ele>200.0</ele><time>2026-05-03T13:36:20.565Z</time></trkpt><trkpt lat="45.8044524" lon="9.4052505"><ele>200.0</ele><time>2026-05-03T13:36:21.554Z</time></trkpt><trkpt lat="45.8043702" lon="9.4053222"><ele>200.0</ele><time>2026-05-03T13:36:22.561Z</time></trkpt><trkpt lat="45.8042628" lon="9.4054026"><ele>201.0</ele><time>2026-05-03T13:36:23.568Z</time></trkpt><trkpt lat="45.8041393" lon="9.4055076"><ele>202.0</ele><time>2026-05-03T13:36:24.557Z</time></trkpt><trkpt lat="45.8040188" lon="9.4056161"><ele>203.0</ele><time>2026-05-03T13:36:25.566Z</time></trkpt><trkpt lat="45.8038821" lon="9.405757"><ele>203.0</ele><time>2026-05-03T13:36:26.561Z</time></trkpt><trkpt lat="45.8037409" lon="9.4059072"><ele>203.0</ele><time>2026-05-03T13:36:27.558Z</time></trkpt><trkpt lat="45.803578" lon="9.4061053"><ele>203.0</ele><time>2026-05-03T13:36:28.555Z</time></trkpt><trkpt lat="45.8034163" lon="9.4063208"><ele>205.5</ele><time>2026-05-03T13:36:29.562Z</time></trkpt><trkpt lat="45.8032536" lon="9.4065475"><ele>208.0</ele><time>2026-05-03T13:36:30.56Z</time></trkpt><trkpt lat="45.803099" lon="9.4067784"><ele>208.0</ele><time>2026-05-03T13:36:31.566Z</time></trkpt><trkpt lat="45.8029386" lon="9.4070071"><ele>208.0</ele><time>2026-05-03T13:36:32.562Z</time></trkpt><trkpt lat="45.8027872" lon="9.4072256"><ele>208.0</ele><time>2026-05-03T13:36:33.557Z</time></trkpt><trkpt lat="45.8026313" lon="9.4074478"><ele>210.66666666666666</ele><time>2026-05-03T13:36:34.559Z</time></trkpt><trkpt lat="45.8024823" lon="9.4076608"><ele>213.33333333333331</ele><time>2026-05-03T13:36:35.569Z</time></trkpt><trkpt lat="45.8023392" lon="9.4078734"><ele>216.0</ele><time>2026-05-03T13:36:36.555Z</time></trkpt><trkpt lat="45.8022044" lon="9.4080701"><ele>216.0</ele><time>2026-05-03T13:36:37.565Z</time></trkpt><trkpt lat="45.8020713" lon="9.4082396"><ele>216.0</ele><time>2026-05-03T13:36:38.564Z</time></trkpt><trkpt lat="45.8019473" lon="9.4084019"><ele>216.0</ele><time>2026-05-03T13:36:39.565Z</time></trkpt><trkpt lat="45.8018243" lon="9.408565"><ele>216.66666666666669</ele><time>2026-05-03T13:36:40.563Z</time></trkpt><trkpt lat="45.8017083" lon="9.4087156"><ele>217.33333333333334</ele><time>2026-05-03T13:36:41.571Z</time></trkpt><trkpt lat="45.8015974" lon="9.4088711"><ele>218.0</ele><time>2026-05-03T13:36:42.562Z</time></trkpt><trkpt lat="45.801485" lon="9.4090258"><ele>218.0</ele><time>2026-05-03T13:36:43.559Z</time></trkpt><trkpt lat="45.801357" lon="9.4091641"><ele>218.0</ele><time>2026-05-03T13:36:44.565Z</time></trkpt><trkpt lat="45.8012327" lon="9.4092724"><ele>218.0</ele><time>2026-05-03T13:36:45.555Z</time></trkpt><trkpt lat="45.8011119" lon="9.409377"><ele>218.0</ele><time>2026-05-03T13:36:46.57Z</time></trkpt><trkpt lat="45.8010072" lon="9.4094561"><ele>219.4</ele><time>2026-05-03T13:36:47.567Z</time></trkpt><trkpt lat="45.8009211" lon="9.4095105"><ele>220.8</ele><time>2026-05-03T13:36:48.562Z</time></trkpt><trkpt lat="45.8008237" lon="9.4095801"><ele>222.2</ele><time>2026-05-03T13:36:49.561Z</time></trkpt><trkpt lat="45.8007409" lon="9.4096174"><ele>223.6</ele><time>2026-05-03T13:36:50.568Z</time></trkpt><trkpt lat="45.8006562" lon="9.4096315"><ele>225.0</ele><time>2026-05-03T13:36:51.558Z</time></trkpt><trkpt lat="45.800566" lon="9.4096366"><ele>224.75</ele><time>2026-05-03T13:36:52.571Z</time></trkpt><trkpt lat="45.8004719" lon="9.4096769"><ele>224.5</ele><time>2026-05-03T13:36:53.568Z</time></trkpt><trkpt lat="45.8003674" lon="9.4097642"><ele>224.25</ele><time>2026-05-03T13:36:54.554Z</time></trkpt><trkpt lat="45.8002521" lon="9.4098532"><ele>224.0</ele><time>2026-05-03T13:36:55.57Z</time></trkpt><trkpt lat="45.8001327" lon="9.4099136"><ele>224.0</ele><time>2026-05-03T13:36:56.565Z</time></trkpt><trkpt lat="45.8000164" lon="9.4099608"><ele>224.0</ele><time>2026-05-03T13:36:57.568Z</time></trkpt><trkpt lat="45.7998956" lon="9.4100148"><ele>224.0</ele><time>2026-05-03T13:36:58.565Z</time></trkpt><trkpt lat="45.7997748" lon="9.4100671"><ele>224.0</ele><time>2026-05-03T13:36:59.568Z</time></trkpt><trkpt lat="45.7996556" lon="9.4101199"><ele>224.0</ele><time>2026-05-03T13:37:00.559Z</time></trkpt><trkpt lat="45.7995182" lon="9.4101829"><ele>224.0</ele><time>2026-05-03T13:37:01.568Z</time></trkpt><trkpt lat="45.7993501" lon="9.4102375"><ele>224.0</ele><time>2026-05-03T13:37:02.563Z</time></trkpt><trkpt lat="45.799203" lon="9.410312"><ele>223.75</ele><time>2026-05-03T13:37:03.566Z</time></trkpt><trkpt lat="45.7990803" lon="9.4103791"><ele>223.5</ele><time>2026-05-03T13:37:04.567Z</time></trkpt><trkpt lat="45.7989564" lon="9.4104279"><ele>223.25</ele><time>2026-05-03T13:37:05.562Z</time></trkpt><trkpt lat="45.7988357" lon="9.4104872"><ele>223.0</ele><time>2026-05-03T13:37:06.564Z</time></trkpt><trkpt lat="45.7987289" lon="9.4105457"><ele>222.99999999999997</ele><time>2026-05-03T13:37:07.565Z</time></trkpt><trkpt lat="45.7986336" lon="9.4105984"><ele>223.0</ele><time>2026-05-03T13:37:08.563Z</time></trkpt><trkpt lat="45.7985431" lon="9.4106333"><ele>223.0</ele><time>2026-05-03T13:37:09.566Z</time></trkpt><trkpt lat="45.7984592" lon="9.4106377"><ele>223.0</ele><time>2026-05-03T13:37:10.558Z</time></trkpt><trkpt lat="45.7983779" lon="9.4106312"><ele>222.99999999999997</ele><time>2026-05-03T13:37:11.566Z</time></trkpt><trkpt lat="45.7983039" lon="9.4106182"><ele>223.0</ele><time>2026-05-03T13:37:12.556Z</time></trkpt><trkpt lat="45.7982392" lon="9.4106267"><ele>223.8</ele><time>2026-05-03T13:37:13.551Z</time></trkpt><trkpt lat="45.7981815" lon="9.4106818"><ele>224.60000000000002</ele><time>2026-05-03T13:37:14.558Z</time></trkpt><trkpt lat="45.7981146" lon="9.4107689"><ele>225.39999999999998</ele><time>2026-05-03T13:37:15.561Z</time></trkpt><trkpt lat="45.7980335" lon="9.4108562"><ele>226.2</ele><time>2026-05-03T13:37:16.553Z</time></trkpt><trkpt lat="45.7979403" lon="9.4109235"><ele>227.0</ele><time>2026-05-03T13:37:17.579Z</time></trkpt><trkpt lat="45.7978521" lon="9.4109768"><ele>227.0</ele><time>2026-05-03T13:37:18.562Z</time></trkpt><trkpt lat="45.7977506" lon="9.4110224"><ele>227.0</ele><time>2026-05-03T13:37:19.554Z</time></trkpt><trkpt lat="45.7976361" lon="9.4110757"><ele>227.0</ele><time>2026-05-03T13:37:20.568Z</time></trkpt><trkpt lat="45.79751" lon="9.4111359"><ele>227.0</ele><time>2026-05-03T13:37:21.557Z</time></trkpt><trkpt lat="45.7973777" lon="9.4111966"><ele>226.0</ele><time>2026-05-03T13:37:22.563Z</time></trkpt><trkpt lat="45.7972449" lon="9.4112569"><ele>225.0</ele><time>2026-05-03T13:37:23.565Z</time></trkpt><trkpt lat="45.7971118" lon="9.4113173"><ele>224.0</ele><time>2026-05-03T13:37:24.56Z</time></trkpt><trkpt lat="45.7969504" lon="9.411383"><ele>223.0</ele><time>2026-05-03T13:37:25.565Z</time></trkpt><trkpt lat="45.7968011" lon="9.4114354"><ele>222.66666666666666</ele><time>2026-05-03T13:37:26.568Z</time></trkpt><trkpt lat="45.7966532" lon="9.4114879"><ele>222.33333333333331</ele><time>2026-05-03T13:37:27.558Z</time></trkpt><trkpt lat="45.7964942" lon="9.4115836"><ele>222.0</ele><time>2026-05-03T13:37:28.56Z</time></trkpt><trkpt lat="45.796351" lon="9.4116695"><ele>222.0</ele><time>2026-05-03T13:37:29.568Z</time></trkpt><trkpt lat="45.7961905" lon="9.4117459"><ele>222.0</ele><time>2026-05-03T13:37:30.567Z</time></trkpt><trkpt lat="45.7960271" lon="9.411829"><ele>222.0</ele><time>2026-05-03T13:37:31.561Z</time></trkpt><trkpt lat="45.7958793" lon="9.4118999"><ele>221.75</ele><time>2026-05-03T13:37:32.567Z</time></trkpt><trkpt lat="45.7957266" lon="9.4119799"><ele>221.5</ele><time>2026-05-03T13:37:33.562Z</time></trkpt><trkpt lat="45.7955945" lon="9.4120372"><ele>221.25</ele><time>2026-05-03T13:37:34.568Z</time></trkpt><trkpt lat="45.7954651" lon="9.4121082"><ele>221.0</ele><time>2026-05-03T13:37:35.566Z</time></trkpt><trkpt lat="45.7953183" lon="9.4121624"><ele>219.33333333333334</ele><time>2026-05-03T13:37:36.568Z</time></trkpt><trkpt lat="45.7951741" lon="9.4122182"><ele>217.66666666666669</ele><time>2026-05-03T13:37:37.558Z</time></trkpt><trkpt lat="45.7950256" lon="9.4122749"><ele>216.0</ele><time>2026-05-03T13:37:38.567Z</time></trkpt><trkpt lat="45.7948744" lon="9.4123452"><ele>215.33333333333331</ele><time>2026-05-03T13:37:39.565Z</time></trkpt><trkpt lat="45.7947195" lon="9.4124249"><ele>214.66666666666666</ele><time>2026-05-03T13:37:40.561Z</time></trkpt><trkpt lat="45.7945546" lon="9.4125114"><ele>214.0</ele><time>2026-05-03T13:37:41.563Z</time></trkpt><trkpt lat="45.7943992" lon="9.4125848"><ele>213.66666666666666</ele><time>2026-05-03T13:37:42.562Z</time></trkpt><trkpt lat="45.7942404" lon="9.4126463"><ele>213.33333333333331</ele><time>2026-05-03T13:37:43.558Z</time></trkpt><trkpt lat="45.7940886" lon="9.4127201"><ele>213.0</ele><time>2026-05-03T13:37:44.567Z</time></trkpt><trkpt lat="45.7939303" lon="9.4127883"><ele>213.0</ele><time>2026-05-03T13:37:45.556Z</time></trkpt><trkpt lat="45.7937803" lon="9.412858"><ele>213.0</ele><time>2026-05-03T13:37:46.567Z</time></trkpt><trkpt lat="45.7936293" lon="9.4129325"><ele>213.0</ele><time>2026-05-03T13:37:47.565Z</time></trkpt><trkpt lat="45.793486" lon="9.4129984"><ele>212.33333333333331</ele><time>2026-05-03T13:37:48.566Z</time></trkpt><trkpt lat="45.7933452" lon="9.4130913"><ele>211.66666666666666</ele><time>2026-05-03T13:37:49.558Z</time></trkpt><trkpt lat="45.7931755" lon="9.4132352"><ele>211.0</ele><time>2026-05-03T13:37:50.562Z</time></trkpt><trkpt lat="45.7930067" lon="9.4133697"><ele>211.0</ele><time>2026-05-03T13:37:51.557Z</time></trkpt><trkpt lat="45.7928415" lon="9.4135167"><ele>211.0</ele><time>2026-05-03T13:37:52.562Z</time></trkpt><trkpt lat="45.7926907" lon="9.4136487"><ele>211.0</ele><time>2026-05-03T13:37:53.559Z</time></trkpt><trkpt lat="45.7925376" lon="9.413801"><ele>210.0</ele><time>2026-05-03T13:37:54.551Z</time></trkpt><trkpt lat="45.7923975" lon="9.4139342"><ele>209.0</ele><time>2026-05-03T13:37:55.553Z</time></trkpt><trkpt lat="45.792258" lon="9.4140552"><ele>208.0</ele><time>2026-05-03T13:37:56.565Z</time></trkpt><trkpt lat="45.7921299" lon="9.4141774"><ele>208.0</ele><time>2026-05-03T13:37:57.553Z</time></trkpt><trkpt lat="45.7920098" lon="9.4143222"><ele>208.0</ele><time>2026-05-03T13:37:58.569Z</time></trkpt><trkpt lat="45.7919049" lon="9.4144676"><ele>208.0</ele><time>2026-05-03T13:37:59.566Z</time></trkpt><trkpt lat="45.7918126" lon="9.4145944"><ele>208.0</ele><time>2026-05-03T13:38:00.561Z</time></trkpt><trkpt lat="45.7917119" lon="9.414734"><ele>208.33333333333331</ele><time>2026-05-03T13:38:01.562Z</time></trkpt><trkpt lat="45.7916196" lon="9.4148668"><ele>208.66666666666669</ele><time>2026-05-03T13:38:02.566Z</time></trkpt><trkpt lat="45.7915226" lon="9.4150276"><ele>209.0</ele><time>2026-05-03T13:38:03.556Z</time></trkpt><trkpt lat="45.7914087" lon="9.4152242"><ele>209.0</ele><time>2026-05-03T13:38:04.562Z</time></trkpt><trkpt lat="45.7912816" lon="9.4154171"><ele>209.0</ele><time>2026-05-03T13:38:05.566Z</time></trkpt><trkpt lat="45.7911551" lon="9.4156138"><ele>209.0</ele><time>2026-05-03T13:38:06.552Z</time></trkpt><trkpt lat="45.7910365" lon="9.4158058"><ele>209.0</ele><time>2026-05-03T13:38:07.566Z</time></trkpt><trkpt lat="45.7909237" lon="9.4159978"><ele>209.0</ele><time>2026-05-03T13:38:08.565Z</time></trkpt><trkpt lat="45.7908179" lon="9.4161812"><ele>209.0</ele><time>2026-05-03T13:38:09.556Z</time></trkpt><trkpt lat="45.7907107" lon="9.4163658"><ele>209.0</ele><time>2026-05-03T13:38:10.56Z</time></trkpt><trkpt lat="45.7906203" lon="9.4165278"><ele>209.0</ele><time>2026-05-03T13:38:11.563Z</time></trkpt><trkpt lat="45.79053" lon="9.4166852"><ele>209.0</ele><time>2026-05-03T13:38:12.555Z</time></trkpt><trkpt lat="45.7904206" lon="9.4168747"><ele>209.0</ele><time>2026-05-03T13:38:13.573Z</time></trkpt><trkpt lat="45.7903154" lon="9.4170646"><ele>209.0</ele><time>2026-05-03T13:38:14.571Z</time></trkpt><trkpt lat="45.7902048" lon="9.4172502"><ele>209.0</ele><time>2026-05-03T13:38:15.558Z</time></trkpt><trkpt lat="45.7900902" lon="9.417442"><ele>210.0</ele><time>2026-05-03T13:38:16.565Z</time></trkpt><trkpt lat="45.7899789" lon="9.417614"><ele>211.0</ele><time>2026-05-03T13:38:17.566Z</time></trkpt><trkpt lat="45.7898806" lon="9.4177854"><ele>212.0</ele><time>2026-05-03T13:38:18.555Z</time></trkpt><trkpt lat="45.7897958" lon="9.4179542"><ele>211.5</ele><time>2026-05-03T13:38:19.567Z</time></trkpt><trkpt lat="45.7897114" lon="9.4180778"><ele>211.0</ele><time>2026-05-03T13:38:20.568Z</time></trkpt><trkpt lat="45.7896329" lon="9.4182104"><ele>210.5</ele><time>2026-05-03T13:38:21.563Z</time></trkpt><trkpt lat="45.7895528" lon="9.4183441"><ele>210.0</ele><time>2026-05-03T13:38:22.564Z</time></trkpt><trkpt lat="45.7894729" lon="9.4184805"><ele>210.0</ele><time>2026-05-03T13:38:23.646Z</time></trkpt><trkpt lat="45.7893889" lon="9.4186359"><ele>210.0</ele><time>2026-05-03T13:38:24.561Z</time></trkpt><trkpt lat="45.7892794" lon="9.4187887"><ele>210.0</ele><time>2026-05-03T13:38:25.565Z</time></trkpt><trkpt lat="45.7891611" lon="9.4189184"><ele>210.0</ele><time>2026-05-03T13:38:26.564Z</time></trkpt><trkpt lat="45.7890581" lon="9.4190442"><ele>210.5</ele><time>2026-05-03T13:38:27.552Z</time></trkpt><trkpt lat="45.7889648" lon="9.4191526"><ele>211.0</ele><time>2026-05-03T13:38:28.575Z</time></trkpt><trkpt lat="45.7888665" lon="9.4192794"><ele>211.5</ele><time>2026-05-03T13:38:29.572Z</time></trkpt><trkpt lat="45.7887612" lon="9.4194134"><ele>212.0</ele><time>2026-05-03T13:38:30.567Z</time></trkpt><trkpt lat="45.7886345" lon="9.4195595"><ele>212.66666666666669</ele><time>2026-05-03T13:38:31.567Z</time></trkpt><trkpt lat="45.788498" lon="9.4196931"><ele>213.33333333333331</ele><time>2026-05-03T13:38:32.574Z</time></trkpt><trkpt lat="45.788365" lon="9.4198111"><ele>214.0</ele><time>2026-05-03T13:38:33.563Z</time></trkpt><trkpt lat="45.7882194" lon="9.419923"><ele>214.0</ele><time>2026-05-03T13:38:34.574Z</time></trkpt><trkpt lat="45.7880744" lon="9.4200349"><ele>214.0</ele><time>2026-05-03T13:38:35.569Z</time></trkpt><trkpt lat="45.7879249" lon="9.4201614"><ele>214.0</ele><time>2026-05-03T13:38:36.569Z</time></trkpt><trkpt lat="45.787754" lon="9.4202926"><ele>214.0</ele><time>2026-05-03T13:38:37.567Z</time></trkpt><trkpt lat="45.7876021" lon="9.4204476"><ele>214.0</ele><time>2026-05-03T13:38:38.573Z</time></trkpt><trkpt lat="45.7874755" lon="9.4205701"><ele>214.0</ele><time>2026-05-03T13:38:39.562Z</time></trkpt><trkpt lat="45.787337" lon="9.4206816"><ele>214.0</ele><time>2026-05-03T13:38:40.561Z</time></trkpt><trkpt lat="45.7872053" lon="9.4207914"><ele>214.0</ele><time>2026-05-03T13:38:41.561Z</time></trkpt><trkpt lat="45.7870804" lon="9.4209019"><ele>214.0</ele><time>2026-05-03T13:38:42.559Z</time></trkpt><trkpt lat="45.786956" lon="9.4210027"><ele>214.0</ele><time>2026-05-03T13:38:43.56Z</time></trkpt><trkpt lat="45.7868352" lon="9.4210868"><ele>214.25</ele><time>2026-05-03T13:38:44.564Z</time></trkpt><trkpt lat="45.786713" lon="9.4211925"><ele>214.5</ele><time>2026-05-03T13:38:45.554Z</time></trkpt><trkpt lat="45.7866051" lon="9.4212816"><ele>214.75</ele><time>2026-05-03T13:38:46.591Z</time></trkpt><trkpt lat="45.786508" lon="9.4213499"><ele>215.0</ele><time>2026-05-03T13:38:47.567Z</time></trkpt><trkpt lat="45.7864019" lon="9.4214257"><ele>215.0</ele><time>2026-05-03T13:38:48.559Z</time></trkpt><trkpt lat="45.7863014" lon="9.4215044"><ele>215.0</ele><time>2026-05-03T13:38:49.558Z</time></trkpt><trkpt lat="45.7862098" lon="9.4215724"><ele>215.0</ele><time>2026-05-03T13:38:50.569Z</time></trkpt><trkpt lat="45.7861215" lon="9.4216511"><ele>215.0</ele><time>2026-05-03T13:38:51.558Z</time></trkpt><trkpt lat="45.7860284" lon="9.4217321"><ele>215.0</ele><time>2026-05-03T13:38:52.565Z</time></trkpt><trkpt lat="45.7859381" lon="9.4218127"><ele>215.4</ele><time>2026-05-03T13:38:53.567Z</time></trkpt><trkpt lat="45.7858554" lon="9.4218852"><ele>215.8</ele><time>2026-05-03T13:38:54.558Z</time></trkpt><trkpt lat="45.7857774" lon="9.4219561"><ele>216.2</ele><time>2026-05-03T13:38:55.569Z</time></trkpt><trkpt lat="45.7856942" lon="9.4220291"><ele>216.6</ele><time>2026-05-03T13:38:56.561Z</time></trkpt><trkpt lat="45.7856113" lon="9.4221015"><ele>217.0</ele><time>2026-05-03T13:38:57.56Z</time></trkpt><trkpt lat="45.7855316" lon="9.4221682"><ele>216.99999999999997</ele><time>2026-05-03T13:38:58.563Z</time></trkpt><trkpt lat="45.785454" lon="9.4222295"><ele>217.0</ele><time>2026-05-03T13:38:59.563Z</time></trkpt><trkpt lat="45.7853832" lon="9.4222846"><ele>217.0</ele><time>2026-05-03T13:39:00.56Z</time></trkpt><trkpt lat="45.7853163" lon="9.4223414"><ele>217.0</ele><time>2026-05-03T13:39:01.573Z</time></trkpt><trkpt lat="45.7852487" lon="9.4223986"><ele>216.99999999999997</ele><time>2026-05-03T13:39:02.568Z</time></trkpt><trkpt lat="45.7851744" lon="9.4224539"><ele>217.0</ele><time>2026-05-03T13:39:03.581Z</time></trkpt><trkpt lat="45.7851054" lon="9.4225049"><ele>217.66666666666666</ele><time>2026-05-03T13:39:04.564Z</time></trkpt><trkpt lat="45.7850414" lon="9.4225523"><ele>218.33333333333331</ele><time>2026-05-03T13:39:05.56Z</time></trkpt><trkpt lat="45.7849833" lon="9.4225989"><ele>219.0</ele><time>2026-05-03T13:39:06.56Z</time></trkpt><trkpt lat="45.7848888" lon="9.4226772"><ele>219.66666666666669</ele><time>2026-05-03T13:39:08.568Z</time></trkpt><trkpt lat="45.784804" lon="9.422725"><ele>220.33333333333334</ele><time>2026-05-03T13:39:10.572Z</time></trkpt><trkpt lat="45.7847108" lon="9.4227708"><ele>221.0</ele><time>2026-05-03T13:39:12.562Z</time></trkpt><trkpt lat="45.7845963" lon="9.422733"><ele>221.0</ele><time>2026-05-03T13:39:14.557Z</time></trkpt><trkpt lat="45.7845288" lon="9.4227292"><ele>221.00000000000003</ele><time>2026-05-03T13:39:15.563Z</time></trkpt><trkpt lat="45.7844707" lon="9.422781"><ele>221.00000000000003</ele><time>2026-05-03T13:39:16.559Z</time></trkpt><trkpt lat="45.78444" lon="9.4228817"><ele>221.0</ele><time>2026-05-03T13:39:17.724Z</time></trkpt><trkpt lat="45.7843589" lon="9.423073"><ele>221.0</ele><time>2026-05-03T13:39:19.55Z</time></trkpt><trkpt lat="45.7842968" lon="9.4231487"><ele>220.83333333333334</ele><time>2026-05-03T13:39:20.567Z</time></trkpt><trkpt lat="45.7842261" lon="9.4232118"><ele>220.66666666666669</ele><time>2026-05-03T13:39:21.556Z</time></trkpt><trkpt lat="45.7841519" lon="9.4232613"><ele>220.5</ele><time>2026-05-03T13:39:22.57Z</time></trkpt><trkpt lat="45.7840772" lon="9.4233153"><ele>220.33333333333331</ele><time>2026-05-03T13:39:23.563Z</time></trkpt><trkpt lat="45.7839937" lon="9.4233746"><ele>220.16666666666666</ele><time>2026-05-03T13:39:24.562Z</time></trkpt><trkpt lat="45.783901" lon="9.4234381"><ele>220.0</ele><time>2026-05-03T13:39:25.568Z</time></trkpt><trkpt lat="45.7838063" lon="9.4234994"><ele>220.0</ele><time>2026-05-03T13:39:26.56Z</time></trkpt><trkpt lat="45.7837057" lon="9.4235598"><ele>220.0</ele><time>2026-05-03T13:39:27.577Z</time></trkpt><trkpt lat="45.783604" lon="9.4236162"><ele>220.0</ele><time>2026-05-03T13:39:28.561Z</time></trkpt><trkpt lat="45.7835021" lon="9.423673"><ele>220.0</ele><time>2026-05-03T13:39:29.561Z</time></trkpt><trkpt lat="45.7833926" lon="9.4237241"><ele>220.0</ele><time>2026-05-03T13:39:30.562Z</time></trkpt><trkpt lat="45.7832695" lon="9.4237661"><ele>220.66666666666666</ele><time>2026-05-03T13:39:31.564Z</time></trkpt><trkpt lat="45.7831324" lon="9.4238083"><ele>221.33333333333331</ele><time>2026-05-03T13:39:32.56Z</time></trkpt><trkpt lat="45.7829798" lon="9.4238489"><ele>222.0</ele><time>2026-05-03T13:39:33.569Z</time></trkpt><trkpt lat="45.7828182" lon="9.4238586"><ele>222.25</ele><time>2026-05-03T13:39:34.559Z</time></trkpt><trkpt lat="45.7826846" lon="9.423883"><ele>222.5</ele><time>2026-05-03T13:39:35.659Z</time></trkpt><trkpt lat="45.7825685" lon="9.4239071"><ele>222.75</ele><time>2026-05-03T13:39:36.565Z</time></trkpt><trkpt lat="45.7824629" lon="9.4239379"><ele>223.0</ele><time>2026-05-03T13:39:37.564Z</time></trkpt><trkpt lat="45.782367" lon="9.4239624"><ele>223.0</ele><time>2026-05-03T13:39:38.569Z</time></trkpt><trkpt lat="45.7822703" lon="9.4239894"><ele>223.0</ele><time>2026-05-03T13:39:39.564Z</time></trkpt><trkpt lat="45.7821948" lon="9.424021"><ele>223.0</ele><time>2026-05-03T13:39:40.562Z</time></trkpt><trkpt lat="45.7821254" lon="9.4240259"><ele>223.0</ele><time>2026-05-03T13:39:41.568Z</time></trkpt><trkpt lat="45.7820146" lon="9.4240325"><ele>223.0</ele><time>2026-05-03T13:39:43.563Z</time></trkpt><trkpt lat="45.7818838" lon="9.4240256"><ele>222.4</ele><time>2026-05-03T13:39:45.562Z</time></trkpt><trkpt lat="45.7818035" lon="9.4240392"><ele>221.8</ele><time>2026-05-03T13:39:46.551Z</time></trkpt><trkpt lat="45.7817188" lon="9.4240945"><ele>221.2</ele><time>2026-05-03T13:39:47.567Z</time></trkpt><trkpt lat="45.78162" lon="9.4241598"><ele>220.6</ele><time>2026-05-03T13:39:48.589Z</time></trkpt><trkpt lat="45.7815004" lon="9.4242205"><ele>220.0</ele><time>2026-05-03T13:39:49.558Z</time></trkpt><trkpt lat="45.7813713" lon="9.4242721"><ele>220.0</ele><time>2026-05-03T13:39:50.577Z</time></trkpt><trkpt lat="45.7812231" lon="9.4243231"><ele>220.0</ele><time>2026-05-03T13:39:51.562Z</time></trkpt><trkpt lat="45.7810475" lon="9.4243783"><ele>220.0</ele><time>2026-05-03T13:39:52.564Z</time></trkpt><trkpt lat="45.7808631" lon="9.4244209"><ele>220.33333333333331</ele><time>2026-05-03T13:39:53.567Z</time></trkpt><trkpt lat="45.7806941" lon="9.4244516"><ele>220.66666666666669</ele><time>2026-05-03T13:39:54.563Z</time></trkpt><trkpt lat="45.7805388" lon="9.4245087"><ele>221.0</ele><time>2026-05-03T13:39:55.563Z</time></trkpt><trkpt lat="45.7803674" lon="9.4245269"><ele>221.0</ele><time>2026-05-03T13:39:56.565Z</time></trkpt><trkpt lat="45.7801965" lon="9.4245473"><ele>221.0</ele><time>2026-05-03T13:39:57.555Z</time></trkpt><trkpt lat="45.7800456" lon="9.4246008"><ele>221.0</ele><time>2026-05-03T13:39:58.56Z</time></trkpt><trkpt lat="45.7799024" lon="9.424647"><ele>220.33333333333334</ele><time>2026-05-03T13:39:59.563Z</time></trkpt><trkpt lat="45.7797376" lon="9.4246802"><ele>219.66666666666669</ele><time>2026-05-03T13:40:00.561Z</time></trkpt><trkpt lat="45.779574" lon="9.4247193"><ele>219.0</ele><time>2026-05-03T13:40:01.561Z</time></trkpt><trkpt lat="45.7794" lon="9.4247621"><ele>219.66666666666669</ele><time>2026-05-03T13:40:02.548Z</time></trkpt><trkpt lat="45.7792255" lon="9.4248206"><ele>220.33333333333334</ele><time>2026-05-03T13:40:03.544Z</time></trkpt><trkpt lat="45.7790571" lon="9.4248828"><ele>221.0</ele><time>2026-05-03T13:40:04.542Z</time></trkpt><trkpt lat="45.778871" lon="9.4249631"><ele>221.0</ele><time>2026-05-03T13:40:05.545Z</time></trkpt><trkpt lat="45.7786894" lon="9.4250266"><ele>221.0</ele><time>2026-05-03T13:40:06.544Z</time></trkpt><trkpt lat="45.7785109" lon="9.425121"><ele>221.0</ele><time>2026-05-03T13:40:07.546Z</time></trkpt><trkpt lat="45.7783251" lon="9.4252187"><ele>223.66666666666669</ele><time>2026-05-03T13:40:08.547Z</time></trkpt><trkpt lat="45.7781619" lon="9.42529"><ele>226.33333333333331</ele><time>2026-05-03T13:40:09.544Z</time></trkpt><trkpt lat="45.7779733" lon="9.4253539"><ele>229.0</ele><time>2026-05-03T13:40:10.55Z</time></trkpt><trkpt lat="45.7777972" lon="9.4254407"><ele>223.66666666666666</ele><time>2026-05-03T13:40:11.547Z</time></trkpt><trkpt lat="45.7776185" lon="9.4255154"><ele>218.33333333333331</ele><time>2026-05-03T13:40:12.546Z</time></trkpt><trkpt lat="45.7774497" lon="9.4255848"><ele>213.0</ele><time>2026-05-03T13:40:13.551Z</time></trkpt><trkpt lat="45.7772914" lon="9.4256435"><ele>213.0</ele><time>2026-05-03T13:40:14.546Z</time></trkpt><trkpt lat="45.7771507" lon="9.4256911"><ele>213.0</ele><time>2026-05-03T13:40:15.556Z</time></trkpt><trkpt lat="45.7770222" lon="9.425736"><ele>213.0</ele><time>2026-05-03T13:40:16.552Z</time></trkpt><trkpt lat="45.7768974" lon="9.4257685"><ele>213.0</ele><time>2026-05-03T13:40:17.547Z</time></trkpt><trkpt lat="45.7767766" lon="9.4257723"><ele>212.60000000000002</ele><time>2026-05-03T13:40:18.554Z</time></trkpt><trkpt lat="45.7766615" lon="9.4257893"><ele>212.20000000000002</ele><time>2026-05-03T13:40:19.546Z</time></trkpt><trkpt lat="45.7765511" lon="9.4257766"><ele>211.8</ele><time>2026-05-03T13:40:20.552Z</time></trkpt><trkpt lat="45.776449" lon="9.4257709"><ele>211.4</ele><time>2026-05-03T13:40:21.544Z</time></trkpt><trkpt lat="45.7763533" lon="9.4257441"><ele>211.0</ele><time>2026-05-03T13:40:22.551Z</time></trkpt><trkpt lat="45.7762678" lon="9.4257215"><ele>210.99999999999997</ele><time>2026-05-03T13:40:23.556Z</time></trkpt><trkpt lat="45.7761862" lon="9.4256894"><ele>211.0</ele><time>2026-05-03T13:40:24.556Z</time></trkpt><trkpt lat="45.7761192" lon="9.4256406"><ele>211.0</ele><time>2026-05-03T13:40:25.547Z</time></trkpt><trkpt lat="45.7760604" lon="9.4255776"><ele>211.0</ele><time>2026-05-03T13:40:26.548Z</time></trkpt><trkpt lat="45.7760098" lon="9.4254985"><ele>210.99999999999997</ele><time>2026-05-03T13:40:27.553Z</time></trkpt><trkpt lat="45.7759536" lon="9.4254192"><ele>211.0</ele><time>2026-05-03T13:40:28.553Z</time></trkpt><trkpt lat="45.7758702" lon="9.4253708"><ele>211.0</ele><time>2026-05-03T13:40:29.557Z</time></trkpt><trkpt lat="45.775775" lon="9.425373"><ele>211.0</ele><time>2026-05-03T13:40:30.556Z</time></trkpt><trkpt lat="45.7756937" lon="9.42539"><ele>211.0</ele><time>2026-05-03T13:40:31.557Z</time></trkpt><trkpt lat="45.7756125" lon="9.4254029"><ele>211.0</ele><time>2026-05-03T13:40:32.56Z</time></trkpt><trkpt lat="45.7755199" lon="9.4253884"><ele>211.0</ele><time>2026-05-03T13:40:33.56Z</time></trkpt><trkpt lat="45.7754233" lon="9.4253543"><ele>211.0</ele><time>2026-05-03T13:40:34.553Z</time></trkpt><trkpt lat="45.7753263" lon="9.425323"><ele>211.0</ele><time>2026-05-03T13:40:35.561Z</time></trkpt><trkpt lat="45.7752281" lon="9.4252938"><ele>211.0</ele><time>2026-05-03T13:40:36.554Z</time></trkpt><trkpt lat="45.7751244" lon="9.4252657"><ele>211.0</ele><time>2026-05-03T13:40:37.556Z</time></trkpt><trkpt lat="45.7750184" lon="9.4252449"><ele>211.0</ele><time>2026-05-03T13:40:38.562Z</time></trkpt><trkpt lat="45.7749046" lon="9.425235"><ele>210.5</ele><time>2026-05-03T13:40:39.564Z</time></trkpt><trkpt lat="45.7747808" lon="9.425227"><ele>210.0</ele><time>2026-05-03T13:40:40.56Z</time></trkpt><trkpt lat="45.7746452" lon="9.4252187"><ele>209.5</ele><time>2026-05-03T13:40:41.573Z</time></trkpt><trkpt lat="45.7744997" lon="9.4252077"><ele>209.0</ele><time>2026-05-03T13:40:42.56Z</time></trkpt><trkpt lat="45.774322" lon="9.4252017"><ele>208.66666666666669</ele><time>2026-05-03T13:40:43.558Z</time></trkpt><trkpt lat="45.7741513" lon="9.4252146"><ele>208.33333333333331</ele><time>2026-05-03T13:40:44.56Z</time></trkpt><trkpt lat="45.7739871" lon="9.4252003"><ele>208.0</ele><time>2026-05-03T13:40:45.563Z</time></trkpt><trkpt lat="45.7738157" lon="9.4251794"><ele>208.0</ele><time>2026-05-03T13:40:46.559Z</time></trkpt><trkpt lat="45.7736558" lon="9.425145"><ele>208.0</ele><time>2026-05-03T13:40:47.566Z</time></trkpt><trkpt lat="45.7734901" lon="9.4251256"><ele>208.0</ele><time>2026-05-03T13:40:48.558Z</time></trkpt><trkpt lat="45.7733158" lon="9.4250828"><ele>207.0</ele><time>2026-05-03T13:40:49.551Z</time></trkpt><trkpt lat="45.7731646" lon="9.4250619"><ele>206.0</ele><time>2026-05-03T13:40:50.561Z</time></trkpt><trkpt lat="45.7730168" lon="9.4250663"><ele>205.0</ele><time>2026-05-03T13:40:51.559Z</time></trkpt><trkpt lat="45.7728619" lon="9.4250638"><ele>205.0</ele><time>2026-05-03T13:40:52.552Z</time></trkpt><trkpt lat="45.7726954" lon="9.425048"><ele>205.0</ele><time>2026-05-03T13:40:53.575Z</time></trkpt><trkpt lat="45.7725414" lon="9.4250532"><ele>205.0</ele><time>2026-05-03T13:40:54.555Z</time></trkpt><trkpt lat="45.7723636" lon="9.4250672"><ele>205.0</ele><time>2026-05-03T13:40:55.553Z</time></trkpt><trkpt lat="45.7721704" lon="9.425058"><ele>205.0</ele><time>2026-05-03T13:40:56.553Z</time></trkpt><trkpt lat="45.7719806" lon="9.4250521"><ele>205.0</ele><time>2026-05-03T13:40:57.562Z</time></trkpt><trkpt lat="45.7717681" lon="9.4250307"><ele>204.0</ele><time>2026-05-03T13:40:58.56Z</time></trkpt><trkpt lat="45.7715705" lon="9.4250264"><ele>203.0</ele><time>2026-05-03T13:40:59.558Z</time></trkpt><trkpt lat="45.771379" lon="9.4249979"><ele>202.0</ele><time>2026-05-03T13:41:00.56Z</time></trkpt><trkpt lat="45.7712011" lon="9.4249663"><ele>202.0</ele><time>2026-05-03T13:41:01.554Z</time></trkpt><trkpt lat="45.7710381" lon="9.4249513"><ele>202.0</ele><time>2026-05-03T13:41:02.564Z</time></trkpt><trkpt lat="45.7708637" lon="9.4249418"><ele>202.0</ele><time>2026-05-03T13:41:03.555Z</time></trkpt><trkpt lat="45.7707003" lon="9.4249327"><ele>202.25</ele><time>2026-05-03T13:41:04.552Z</time></trkpt><trkpt lat="45.7705471" lon="9.424932"><ele>202.5</ele><time>2026-05-03T13:41:05.56Z</time></trkpt><trkpt lat="45.7704048" lon="9.424924"><ele>202.75</ele><time>2026-05-03T13:41:06.56Z</time></trkpt><trkpt lat="45.7702584" lon="9.4249138"><ele>203.0</ele><time>2026-05-03T13:41:07.548Z</time></trkpt><trkpt lat="45.7701175" lon="9.4248984"><ele>203.0</ele><time>2026-05-03T13:41:08.562Z</time></trkpt><trkpt lat="45.7699754" lon="9.4248821"><ele>203.0</ele><time>2026-05-03T13:41:09.559Z</time></trkpt><trkpt lat="45.7698305" lon="9.4248619"><ele>203.0</ele><time>2026-05-03T13:41:10.551Z</time></trkpt><trkpt lat="45.7696915" lon="9.4248563"><ele>203.0</ele><time>2026-05-03T13:41:11.558Z</time></trkpt><trkpt lat="45.7695411" lon="9.4248314"><ele>203.0</ele><time>2026-05-03T13:41:12.565Z</time></trkpt><trkpt lat="45.7694" lon="9.4248249"><ele>203.0</ele><time>2026-05-03T13:41:13.549Z</time></trkpt><trkpt lat="45.7692529" lon="9.4248119"><ele>203.0</ele><time>2026-05-03T13:41:14.566Z</time></trkpt><trkpt lat="45.76909" lon="9.4247922"><ele>202.66666666666669</ele><time>2026-05-03T13:41:15.565Z</time></trkpt><trkpt lat="45.7689263" lon="9.4247973"><ele>202.33333333333331</ele><time>2026-05-03T13:41:16.551Z</time></trkpt><trkpt lat="45.7687661" lon="9.4247834"><ele>202.0</ele><time>2026-05-03T13:41:17.574Z</time></trkpt><trkpt lat="45.7686097" lon="9.424778"><ele>201.66666666666666</ele><time>2026-05-03T13:41:18.559Z</time></trkpt><trkpt lat="45.7684597" lon="9.4247692"><ele>201.33333333333331</ele><time>2026-05-03T13:41:19.555Z</time></trkpt><trkpt lat="45.7683035" lon="9.4247459"><ele>201.0</ele><time>2026-05-03T13:41:20.559Z</time></trkpt><trkpt lat="45.7681414" lon="9.4247154"><ele>201.0</ele><time>2026-05-03T13:41:21.555Z</time></trkpt><trkpt lat="45.7679743" lon="9.4247373"><ele>201.0</ele><time>2026-05-03T13:41:22.546Z</time></trkpt><trkpt lat="45.7678338" lon="9.4247218"><ele>201.0</ele><time>2026-05-03T13:41:23.553Z</time></trkpt><trkpt lat="45.7676873" lon="9.4247033"><ele>201.66666666666669</ele><time>2026-05-03T13:41:24.558Z</time></trkpt><trkpt lat="45.7675334" lon="9.4247076"><ele>202.33333333333334</ele><time>2026-05-03T13:41:25.544Z</time></trkpt><trkpt lat="45.7673822" lon="9.4247112"><ele>203.0</ele><time>2026-05-03T13:41:26.563Z</time></trkpt><trkpt lat="45.7672344" lon="9.4247341"><ele>203.0</ele><time>2026-05-03T13:41:27.556Z</time></trkpt><trkpt lat="45.767088" lon="9.4247689"><ele>203.0</ele><time>2026-05-03T13:41:28.55Z</time></trkpt><trkpt lat="45.7669356" lon="9.4247924"><ele>203.0</ele><time>2026-05-03T13:41:29.557Z</time></trkpt><trkpt lat="45.7667798" lon="9.4248286"><ele>204.0</ele><time>2026-05-03T13:41:30.554Z</time></trkpt><trkpt lat="45.7666037" lon="9.4248882"><ele>205.0</ele><time>2026-05-03T13:41:31.548Z</time></trkpt><trkpt lat="45.7664188" lon="9.424961"><ele>206.0</ele><time>2026-05-03T13:41:32.548Z</time></trkpt><trkpt lat="45.766231" lon="9.4250603"><ele>206.0</ele><time>2026-05-03T13:41:33.541Z</time></trkpt><trkpt lat="45.7660392" lon="9.4251712"><ele>206.0</ele><time>2026-05-03T13:41:34.549Z</time></trkpt><trkpt lat="45.7658296" lon="9.4252899"><ele>206.0</ele><time>2026-05-03T13:41:35.563Z</time></trkpt><trkpt lat="45.7656038" lon="9.4253365"><ele>205.0</ele><time>2026-05-03T13:41:36.551Z</time></trkpt><trkpt lat="45.7653851" lon="9.4254087"><ele>204.0</ele><time>2026-05-03T13:41:37.549Z</time></trkpt><trkpt lat="45.7651877" lon="9.4254961"><ele>203.0</ele><time>2026-05-03T13:41:38.548Z</time></trkpt><trkpt lat="45.7649974" lon="9.4255525"><ele>203.0</ele><time>2026-05-03T13:41:39.545Z</time></trkpt><trkpt lat="45.7648252" lon="9.4256005"><ele>203.0</ele><time>2026-05-03T13:41:40.545Z</time></trkpt><trkpt lat="45.7646424" lon="9.4256765"><ele>203.0</ele><time>2026-05-03T13:41:41.552Z</time></trkpt><trkpt lat="45.7644499" lon="9.4257857"><ele>206.33333333333334</ele><time>2026-05-03T13:41:42.548Z</time></trkpt><trkpt lat="45.7642425" lon="9.4258837"><ele>209.66666666666669</ele><time>2026-05-03T13:41:43.55Z</time></trkpt><trkpt lat="45.764027" lon="9.4259771"><ele>213.0</ele><time>2026-05-03T13:41:44.55Z</time></trkpt><trkpt lat="45.7638092" lon="9.4260669"><ele>213.0</ele><time>2026-05-03T13:41:45.566Z</time></trkpt><trkpt lat="45.76361" lon="9.4261655"><ele>213.0</ele><time>2026-05-03T13:41:46.543Z</time></trkpt><trkpt lat="45.7634006" lon="9.4262369"><ele>213.0</ele><time>2026-05-03T13:41:47.543Z</time></trkpt><trkpt lat="45.7631988" lon="9.42629"><ele>210.33333333333331</ele><time>2026-05-03T13:41:48.55Z</time></trkpt><trkpt lat="45.763012" lon="9.4263702"><ele>207.66666666666666</ele><time>2026-05-03T13:41:49.539Z</time></trkpt><trkpt lat="45.7628584" lon="9.4264445"><ele>205.0</ele><time>2026-05-03T13:41:50.554Z</time></trkpt><trkpt lat="45.7627183" lon="9.426476"><ele>208.33333333333331</ele><time>2026-05-03T13:41:51.543Z</time></trkpt><trkpt lat="45.7625626" lon="9.4265363"><ele>211.66666666666669</ele><time>2026-05-03T13:41:52.547Z</time></trkpt><trkpt lat="45.7624086" lon="9.4265574"><ele>215.0</ele><time>2026-05-03T13:41:53.541Z</time></trkpt><trkpt lat="45.7622371" lon="9.426549"><ele>215.0</ele><time>2026-05-03T13:41:54.545Z</time></trkpt><trkpt lat="45.7620973" lon="9.4265952"><ele>215.0</ele><time>2026-05-03T13:41:55.539Z</time></trkpt><trkpt lat="45.7619624" lon="9.4266348"><ele>215.0</ele><time>2026-05-03T13:41:56.543Z</time></trkpt><trkpt lat="45.7618438" lon="9.426623"><ele>215.0</ele><time>2026-05-03T13:41:57.536Z</time></trkpt><trkpt lat="45.7617174" lon="9.4265964"><ele>214.2</ele><time>2026-05-03T13:41:58.536Z</time></trkpt><trkpt lat="45.761611" lon="9.4266081"><ele>213.4</ele><time>2026-05-03T13:41:59.62Z</time></trkpt><trkpt lat="45.7615017" lon="9.426605"><ele>212.60000000000002</ele><time>2026-05-03T13:42:00.546Z</time></trkpt><trkpt lat="45.7614007" lon="9.4266051"><ele>211.8</ele><time>2026-05-03T13:42:01.557Z</time></trkpt><trkpt lat="45.7612842" lon="9.4265927"><ele>211.0</ele><time>2026-05-03T13:42:02.553Z</time></trkpt><trkpt lat="45.7611702" lon="9.4265814"><ele>211.0</ele><time>2026-05-03T13:42:03.548Z</time></trkpt><trkpt lat="45.7610663" lon="9.4265657"><ele>211.0</ele><time>2026-05-03T13:42:04.543Z</time></trkpt><trkpt lat="45.7609698" lon="9.426561"><ele>211.0</ele><time>2026-05-03T13:42:05.552Z</time></trkpt><trkpt lat="45.7608742" lon="9.4265495"><ele>211.0</ele><time>2026-05-03T13:42:06.555Z</time></trkpt><trkpt lat="45.7607774" lon="9.42654"><ele>211.0</ele><time>2026-05-03T13:42:07.542Z</time></trkpt><trkpt lat="45.7606805" lon="9.4265421"><ele>210.8</ele><time>2026-05-03T13:42:08.555Z</time></trkpt><trkpt lat="45.7605786" lon="9.4265483"><ele>210.60000000000002</ele><time>2026-05-03T13:42:09.547Z</time></trkpt><trkpt lat="45.7604707" lon="9.4265599"><ele>210.4</ele><time>2026-05-03T13:42:10.548Z</time></trkpt><trkpt lat="45.7603611" lon="9.4265769"><ele>210.2</ele><time>2026-05-03T13:42:11.551Z</time></trkpt><trkpt lat="45.7602448" lon="9.4265892"><ele>210.0</ele><time>2026-05-03T13:42:12.546Z</time></trkpt><trkpt lat="45.7601239" lon="9.4266068"><ele>211.0</ele><time>2026-05-03T13:42:13.549Z</time></trkpt><trkpt lat="45.7599945" lon="9.4266264"><ele>212.0</ele><time>2026-05-03T13:42:14.547Z</time></trkpt><trkpt lat="45.7598495" lon="9.4266496"><ele>213.0</ele><time>2026-05-03T13:42:15.547Z</time></trkpt><trkpt lat="45.7596808" lon="9.4266893"><ele>214.0</ele><time>2026-05-03T13:42:16.543Z</time></trkpt><trkpt lat="45.7595239" lon="9.4267124"><ele>214.0</ele><time>2026-05-03T13:42:17.575Z</time></trkpt><trkpt lat="45.7593727" lon="9.4267338"><ele>214.0</ele><time>2026-05-03T13:42:18.55Z</time></trkpt><trkpt lat="45.7592105" lon="9.4267678"><ele>214.0</ele><time>2026-05-03T13:42:19.547Z</time></trkpt><trkpt lat="45.759067" lon="9.4267569"><ele>216.0</ele><time>2026-05-03T13:42:20.55Z</time></trkpt><trkpt lat="45.7589224" lon="9.4267899"><ele>218.0</ele><time>2026-05-03T13:42:21.549Z</time></trkpt><trkpt lat="45.7588007" lon="9.4268005"><ele>220.0</ele><time>2026-05-03T13:42:22.546Z</time></trkpt><trkpt lat="45.7586789" lon="9.4267978"><ele>222.0</ele><time>2026-05-03T13:42:23.552Z</time></trkpt><trkpt lat="45.7585608" lon="9.4267883"><ele>219.5</ele><time>2026-05-03T13:42:24.555Z</time></trkpt><trkpt lat="45.7584389" lon="9.4267918"><ele>217.0</ele><time>2026-05-03T13:42:25.542Z</time></trkpt><trkpt lat="45.7583073" lon="9.4267811"><ele>214.5</ele><time>2026-05-03T13:42:26.562Z</time></trkpt><trkpt lat="45.7581658" lon="9.4267766"><ele>212.0</ele><time>2026-05-03T13:42:27.55Z</time></trkpt><trkpt lat="45.7580125" lon="9.4267693"><ele>212.0</ele><time>2026-05-03T13:42:28.543Z</time></trkpt><trkpt lat="45.7578718" lon="9.4267492"><ele>212.0</ele><time>2026-05-03T13:42:29.56Z</time></trkpt><trkpt lat="45.7577411" lon="9.4267334"><ele>212.0</ele><time>2026-05-03T13:42:30.56Z</time></trkpt><trkpt lat="45.7576151" lon="9.4267074"><ele>212.0</ele><time>2026-05-03T13:42:31.553Z</time></trkpt><trkpt lat="45.7574938" lon="9.4266962"><ele>212.0</ele><time>2026-05-03T13:42:32.558Z</time></trkpt><trkpt lat="45.7573776" lon="9.4266965"><ele>212.0</ele><time>2026-05-03T13:42:33.552Z</time></trkpt><trkpt lat="45.7572541" lon="9.426695"><ele>212.0</ele><time>2026-05-03T13:42:34.558Z</time></trkpt><trkpt lat="45.7571383" lon="9.4266841"><ele>212.0</ele><time>2026-05-03T13:42:35.562Z</time></trkpt><trkpt lat="45.7570251" lon="9.4266723"><ele>212.0</ele><time>2026-05-03T13:42:36.566Z</time></trkpt><trkpt lat="45.7569114" lon="9.4266633"><ele>212.0</ele><time>2026-05-03T13:42:37.55Z</time></trkpt><trkpt lat="45.756811" lon="9.4266525"><ele>212.0</ele><time>2026-05-03T13:42:38.566Z</time></trkpt><trkpt lat="45.7567201" lon="9.4266475"><ele>212.0</ele><time>2026-05-03T13:42:39.564Z</time></trkpt><trkpt lat="45.7566272" lon="9.4266448"><ele>212.0</ele><time>2026-05-03T13:42:40.569Z</time></trkpt><trkpt lat="45.7565394" lon="9.4266399"><ele>213.2</ele><time>2026-05-03T13:42:41.56Z</time></trkpt><trkpt lat="45.7564568" lon="9.4266351"><ele>214.39999999999998</ele><time>2026-05-03T13:42:42.564Z</time></trkpt><trkpt lat="45.7563847" lon="9.4266317"><ele>215.60000000000002</ele><time>2026-05-03T13:42:43.562Z</time></trkpt><trkpt lat="45.756315" lon="9.4266388"><ele>216.8</ele><time>2026-05-03T13:42:44.561Z</time></trkpt><trkpt lat="45.7561929" lon="9.4266616"><ele>218.0</ele><time>2026-05-03T13:42:46.558Z</time></trkpt><trkpt lat="45.756088" lon="9.4266709"><ele>218.00000000000003</ele><time>2026-05-03T13:42:48.578Z</time></trkpt><trkpt lat="45.7560214" lon="9.4266766"><ele>218.0</ele><time>2026-05-03T13:42:53.578Z</time></trkpt><trkpt lat="45.7559428" lon="9.4266625"><ele>218.0</ele><time>2026-05-03T13:42:56.581Z</time></trkpt><trkpt lat="45.755843" lon="9.4266302"><ele>218.0</ele><time>2026-05-03T13:42:58.554Z</time></trkpt><trkpt lat="45.7557745" lon="9.4266096"><ele>218.00000000000003</ele><time>2026-05-03T13:42:59.566Z</time></trkpt><trkpt lat="45.7557065" lon="9.4266091"><ele>218.0</ele><time>2026-05-03T13:43:00.559Z</time></trkpt><trkpt lat="45.7556432" lon="9.4266207"><ele>218.0</ele><time>2026-05-03T13:43:01.573Z</time></trkpt><trkpt lat="45.755578" lon="9.4266295"><ele>218.0</ele><time>2026-05-03T13:43:02.569Z</time></trkpt><trkpt lat="45.755512" lon="9.4266328"><ele>218.0</ele><time>2026-05-03T13:43:03.564Z</time></trkpt><trkpt lat="45.7554466" lon="9.4266339"><ele>218.0</ele><time>2026-05-03T13:43:04.569Z</time></trkpt><trkpt lat="45.7553834" lon="9.4266308"><ele>218.0</ele><time>2026-05-03T13:43:05.563Z</time></trkpt><trkpt lat="45.7553189" lon="9.4266211"><ele>218.0</ele><time>2026-05-03T13:43:06.573Z</time></trkpt><trkpt lat="45.7552505" lon="9.4266099"><ele>218.0</ele><time>2026-05-03T13:43:07.563Z</time></trkpt><trkpt lat="45.7551748" lon="9.4266128"><ele>218.33333333333334</ele><time>2026-05-03T13:43:08.562Z</time></trkpt><trkpt lat="45.7550835" lon="9.4266178"><ele>218.66666666666669</ele><time>2026-05-03T13:43:10.556Z</time></trkpt><trkpt lat="45.7550068" lon="9.4266453"><ele>219.0</ele><time>2026-05-03T13:43:13.569Z</time></trkpt><trkpt lat="45.7549051" lon="9.4266444"><ele>219.33333333333331</ele><time>2026-05-03T13:43:15.558Z</time></trkpt><trkpt lat="45.7548303" lon="9.4266395"><ele>219.66666666666666</ele><time>2026-05-03T13:43:16.553Z</time></trkpt><trkpt lat="45.7547413" lon="9.4266416"><ele>220.0</ele><time>2026-05-03T13:43:17.563Z</time></trkpt><trkpt lat="45.7546335" lon="9.4266268"><ele>220.0</ele><time>2026-05-03T13:43:18.553Z</time></trkpt><trkpt lat="45.7545141" lon="9.4266097"><ele>220.0</ele><time>2026-05-03T13:43:19.573Z</time></trkpt><trkpt lat="45.754388" lon="9.4266044"><ele>220.0</ele><time>2026-05-03T13:43:20.561Z</time></trkpt><trkpt lat="45.754252" lon="9.4266086"><ele>220.0</ele><time>2026-05-03T13:43:21.555Z</time></trkpt><trkpt lat="45.7541095" lon="9.4266086"><ele>219.33333333333331</ele><time>2026-05-03T13:43:22.569Z</time></trkpt><trkpt lat="45.7539475" lon="9.4266144"><ele>218.66666666666669</ele><time>2026-05-03T13:43:23.566Z</time></trkpt><trkpt lat="45.7537725" lon="9.426607"><ele>218.0</ele><time>2026-05-03T13:43:24.569Z</time></trkpt><trkpt lat="45.7535988" lon="9.4265908"><ele>217.33333333333334</ele><time>2026-05-03T13:43:25.563Z</time></trkpt><trkpt lat="45.7534382" lon="9.4265894"><ele>216.66666666666669</ele><time>2026-05-03T13:43:26.566Z</time></trkpt><trkpt lat="45.7532781" lon="9.4265982"><ele>216.0</ele><time>2026-05-03T13:43:27.568Z</time></trkpt><trkpt lat="45.7531324" lon="9.4265955"><ele>216.0</ele><time>2026-05-03T13:43:28.561Z</time></trkpt><trkpt lat="45.7529717" lon="9.4265822"><ele>216.0</ele><time>2026-05-03T13:43:29.57Z</time></trkpt><trkpt lat="45.7528066" lon="9.4265705"><ele>216.0</ele><time>2026-05-03T13:43:30.564Z</time></trkpt><trkpt lat="45.7526359" lon="9.4265595"><ele>215.33333333333331</ele><time>2026-05-03T13:43:31.569Z</time></trkpt><trkpt lat="45.7524741" lon="9.4265492"><ele>214.66666666666666</ele><time>2026-05-03T13:43:32.564Z</time></trkpt><trkpt lat="45.7522926" lon="9.4265479"><ele>214.0</ele><time>2026-05-03T13:43:33.564Z</time></trkpt><trkpt lat="45.7521293" lon="9.4265421"><ele>214.0</ele><time>2026-05-03T13:43:34.558Z</time></trkpt><trkpt lat="45.7519782" lon="9.4265414"><ele>214.0</ele><time>2026-05-03T13:43:35.572Z</time></trkpt><trkpt lat="45.7518212" lon="9.4265342"><ele>214.0</ele><time>2026-05-03T13:43:36.563Z</time></trkpt><trkpt lat="45.7516524" lon="9.4265148"><ele>213.0</ele><time>2026-05-03T13:43:37.562Z</time></trkpt><trkpt lat="45.7515026" lon="9.4265004"><ele>212.0</ele><time>2026-05-03T13:43:38.576Z</time></trkpt><trkpt lat="45.7513647" lon="9.4264985"><ele>211.0</ele><time>2026-05-03T13:43:39.564Z</time></trkpt><trkpt lat="45.7512366" lon="9.4264847"><ele>210.0</ele><time>2026-05-03T13:43:40.578Z</time></trkpt><trkpt lat="45.7511189" lon="9.4264733"><ele>209.5</ele><time>2026-05-03T13:43:41.57Z</time></trkpt><trkpt lat="45.7509918" lon="9.4264569"><ele>209.0</ele><time>2026-05-03T13:43:42.562Z</time></trkpt><trkpt lat="45.7508756" lon="9.4264444"><ele>208.5</ele><time>2026-05-03T13:43:43.561Z</time></trkpt><trkpt lat="45.750761" lon="9.426443"><ele>208.0</ele><time>2026-05-03T13:43:44.578Z</time></trkpt><trkpt lat="45.7506511" lon="9.4264248"><ele>208.0</ele><time>2026-05-03T13:43:45.575Z</time></trkpt><trkpt lat="45.7505224" lon="9.426393"><ele>208.0</ele><time>2026-05-03T13:43:46.569Z</time></trkpt><trkpt lat="45.7503821" lon="9.4263623"><ele>208.0</ele><time>2026-05-03T13:43:47.574Z</time></trkpt><trkpt lat="45.7502396" lon="9.4263658"><ele>208.0</ele><time>2026-05-03T13:43:48.571Z</time></trkpt><trkpt lat="45.7500854" lon="9.4263931"><ele>208.33333333333331</ele><time>2026-05-03T13:43:49.569Z</time></trkpt><trkpt lat="45.7499312" lon="9.4264045"><ele>208.66666666666669</ele><time>2026-05-03T13:43:50.566Z</time></trkpt><trkpt lat="45.7497835" lon="9.4263919"><ele>209.0</ele><time>2026-05-03T13:43:51.569Z</time></trkpt><trkpt lat="45.7496214" lon="9.4263879"><ele>209.0</ele><time>2026-05-03T13:43:52.57Z</time></trkpt><trkpt lat="45.749435" lon="9.4263873"><ele>209.0</ele><time>2026-05-03T13:43:53.561Z</time></trkpt><trkpt lat="45.7492334" lon="9.4263627"><ele>209.0</ele><time>2026-05-03T13:43:54.58Z</time></trkpt><trkpt lat="45.7490276" lon="9.4263261"><ele>210.66666666666669</ele><time>2026-05-03T13:43:55.559Z</time></trkpt><trkpt lat="45.7488351" lon="9.4262963"><ele>212.33333333333331</ele><time>2026-05-03T13:43:56.565Z</time></trkpt><trkpt lat="45.7486571" lon="9.4262725"><ele>214.0</ele><time>2026-05-03T13:43:57.571Z</time></trkpt><trkpt lat="45.7484763" lon="9.4262591"><ele>214.33333333333331</ele><time>2026-05-03T13:43:58.564Z</time></trkpt><trkpt lat="45.748309" lon="9.4262477"><ele>214.66666666666669</ele><time>2026-05-03T13:43:59.575Z</time></trkpt><trkpt lat="45.7481554" lon="9.4262408"><ele>215.0</ele><time>2026-05-03T13:44:00.573Z</time></trkpt><trkpt lat="45.7480022" lon="9.4262399"><ele>215.0</ele><time>2026-05-03T13:44:01.565Z</time></trkpt><trkpt lat="45.747844" lon="9.4262298"><ele>215.0</ele><time>2026-05-03T13:44:02.566Z</time></trkpt><trkpt lat="45.7476809" lon="9.4262111"><ele>215.0</ele><time>2026-05-03T13:44:03.565Z</time></trkpt><trkpt lat="45.7475195" lon="9.4261844"><ele>216.0</ele><time>2026-05-03T13:44:04.559Z</time></trkpt><trkpt lat="45.7473626" lon="9.4261622"><ele>217.0</ele><time>2026-05-03T13:44:05.576Z</time></trkpt><trkpt lat="45.7472021" lon="9.426163"><ele>218.0</ele><time>2026-05-03T13:44:06.561Z</time></trkpt><trkpt lat="45.7470648" lon="9.4261558"><ele>218.0</ele><time>2026-05-03T13:44:07.563Z</time></trkpt><trkpt lat="45.7469144" lon="9.4261352"><ele>218.0</ele><time>2026-05-03T13:44:08.565Z</time></trkpt><trkpt lat="45.7467768" lon="9.4260957"><ele>218.0</ele><time>2026-05-03T13:44:09.566Z</time></trkpt><trkpt lat="45.7466273" lon="9.4260709"><ele>218.0</ele><time>2026-05-03T13:44:10.558Z</time></trkpt><trkpt lat="45.7464852" lon="9.4260624"><ele>217.5</ele><time>2026-05-03T13:44:11.565Z</time></trkpt><trkpt lat="45.7463433" lon="9.4260404"><ele>217.0</ele><time>2026-05-03T13:44:12.565Z</time></trkpt><trkpt lat="45.7461957" lon="9.426014"><ele>216.5</ele><time>2026-05-03T13:44:13.553Z</time></trkpt><trkpt lat="45.7460528" lon="9.425975"><ele>216.0</ele><time>2026-05-03T13:44:14.569Z</time></trkpt><trkpt lat="45.7459167" lon="9.4259397"><ele>216.0</ele><time>2026-05-03T13:44:15.563Z</time></trkpt><trkpt lat="45.7457745" lon="9.4259107"><ele>216.0</ele><time>2026-05-03T13:44:16.567Z</time></trkpt><trkpt lat="45.745638" lon="9.4258728"><ele>216.0</ele><time>2026-05-03T13:44:17.56Z</time></trkpt><trkpt lat="45.7454833" lon="9.4257933"><ele>216.0</ele><time>2026-05-03T13:44:18.562Z</time></trkpt><trkpt lat="45.7453284" lon="9.4257078"><ele>214.66666666666669</ele><time>2026-05-03T13:44:19.561Z</time></trkpt><trkpt lat="45.7451771" lon="9.4256132"><ele>213.33333333333334</ele><time>2026-05-03T13:44:20.558Z</time></trkpt><trkpt lat="45.7450146" lon="9.4255104"><ele>212.0</ele><time>2026-05-03T13:44:21.561Z</time></trkpt><trkpt lat="45.74484" lon="9.425426"><ele>215.33333333333334</ele><time>2026-05-03T13:44:22.555Z</time></trkpt><trkpt lat="45.744699" lon="9.42533"><ele>218.66666666666669</ele><time>2026-05-03T13:44:23.568Z</time></trkpt><trkpt lat="45.7445575" lon="9.4252647"><ele>222.0</ele><time>2026-05-03T13:44:24.562Z</time></trkpt><trkpt lat="45.744411" lon="9.4251894"><ele>220.66666666666669</ele><time>2026-05-03T13:44:25.548Z</time></trkpt><trkpt lat="45.7442655" lon="9.4251025"><ele>219.33333333333334</ele><time>2026-05-03T13:44:26.553Z</time></trkpt><trkpt lat="45.7441324" lon="9.4250234"><ele>218.0</ele><time>2026-05-03T13:44:27.552Z</time></trkpt><trkpt lat="45.7439854" lon="9.4249382"><ele>218.0</ele><time>2026-05-03T13:44:28.549Z</time></trkpt><trkpt lat="45.7438564" lon="9.4248693"><ele>218.0</ele><time>2026-05-03T13:44:29.565Z</time></trkpt><trkpt lat="45.7437147" lon="9.4248095"><ele>218.0</ele><time>2026-05-03T13:44:30.552Z</time></trkpt><trkpt lat="45.7435793" lon="9.4247364"><ele>218.0</ele><time>2026-05-03T13:44:31.58Z</time></trkpt><trkpt lat="45.7434254" lon="9.4246546"><ele>220.33333333333334</ele><time>2026-05-03T13:44:32.577Z</time></trkpt><trkpt lat="45.7432705" lon="9.4245577"><ele>222.66666666666669</ele><time>2026-05-03T13:44:33.576Z</time></trkpt><trkpt lat="45.7430997" lon="9.4244541"><ele>225.0</ele><time>2026-05-03T13:44:34.55Z</time></trkpt><trkpt lat="45.7429063" lon="9.4243393"><ele>225.0</ele><time>2026-05-03T13:44:35.553Z</time></trkpt><trkpt lat="45.742721" lon="9.4242236"><ele>225.0</ele><time>2026-05-03T13:44:36.553Z</time></trkpt><trkpt lat="45.7425503" lon="9.4241404"><ele>225.0</ele><time>2026-05-03T13:44:37.542Z</time></trkpt><trkpt lat="45.7424066" lon="9.4240694"><ele>223.0</ele><time>2026-05-03T13:44:38.554Z</time></trkpt><trkpt lat="45.742228" lon="9.4239976"><ele>221.0</ele><time>2026-05-03T13:44:39.56Z</time></trkpt><trkpt lat="45.7420588" lon="9.4238861"><ele>219.0</ele><time>2026-05-03T13:44:40.556Z</time></trkpt><trkpt lat="45.74186" lon="9.4237643"><ele>219.0</ele><time>2026-05-03T13:44:41.554Z</time></trkpt><trkpt lat="45.7416853" lon="9.4236322"><ele>219.0</ele><time>2026-05-03T13:44:42.552Z</time></trkpt><trkpt lat="45.7415359" lon="9.4235186"><ele>219.0</ele><time>2026-05-03T13:44:43.545Z</time></trkpt><trkpt lat="45.7414043" lon="9.4233916"><ele>219.0</ele><time>2026-05-03T13:44:44.559Z</time></trkpt><trkpt lat="45.741268" lon="9.4232741"><ele>219.0</ele><time>2026-05-03T13:44:45.552Z</time></trkpt><trkpt lat="45.7411386" lon="9.4231607"><ele>219.0</ele><time>2026-05-03T13:44:46.55Z</time></trkpt><trkpt lat="45.7409909" lon="9.4230572"><ele>220.0</ele><time>2026-05-03T13:44:47.549Z</time></trkpt><trkpt lat="45.7408727" lon="9.4229304"><ele>221.0</ele><time>2026-05-03T13:44:48.564Z</time></trkpt><trkpt lat="45.7407229" lon="9.4228352"><ele>222.0</ele><time>2026-05-03T13:44:49.556Z</time></trkpt><trkpt lat="45.7405692" lon="9.4227685"><ele>222.0</ele><time>2026-05-03T13:44:50.557Z</time></trkpt><trkpt lat="45.7404321" lon="9.4226609"><ele>222.0</ele><time>2026-05-03T13:44:51.561Z</time></trkpt><trkpt lat="45.740297" lon="9.4225416"><ele>222.0</ele><time>2026-05-03T13:44:52.551Z</time></trkpt><trkpt lat="45.7401618" lon="9.4224107"><ele>221.33333333333331</ele><time>2026-05-03T13:44:53.568Z</time></trkpt><trkpt lat="45.7400049" lon="9.4222688"><ele>220.66666666666666</ele><time>2026-05-03T13:44:54.559Z</time></trkpt><trkpt lat="45.739829" lon="9.4221376"><ele>220.0</ele><time>2026-05-03T13:44:55.551Z</time></trkpt><trkpt lat="45.7396677" lon="9.4219953"><ele>220.0</ele><time>2026-05-03T13:44:56.558Z</time></trkpt><trkpt lat="45.739498" lon="9.4218792"><ele>220.0</ele><time>2026-05-03T13:44:57.554Z</time></trkpt><trkpt lat="45.7393245" lon="9.4217504"><ele>220.0</ele><time>2026-05-03T13:44:58.561Z</time></trkpt><trkpt lat="45.7391679" lon="9.4216113"><ele>220.0</ele><time>2026-05-03T13:44:59.563Z</time></trkpt><trkpt lat="45.7389861" lon="9.4214945"><ele>220.0</ele><time>2026-05-03T13:45:00.565Z</time></trkpt><trkpt lat="45.7388054" lon="9.4213655"><ele>220.0</ele><time>2026-05-03T13:45:01.566Z</time></trkpt><trkpt lat="45.7386347" lon="9.4212513"><ele>219.66666666666666</ele><time>2026-05-03T13:45:02.568Z</time></trkpt><trkpt lat="45.7384779" lon="9.4211253"><ele>219.33333333333331</ele><time>2026-05-03T13:45:03.561Z</time></trkpt><trkpt lat="45.7383243" lon="9.4210095"><ele>219.0</ele><time>2026-05-03T13:45:04.558Z</time></trkpt><trkpt lat="45.7381915" lon="9.420907"><ele>219.0</ele><time>2026-05-03T13:45:05.559Z</time></trkpt><trkpt lat="45.7380565" lon="9.4207947"><ele>219.0</ele><time>2026-05-03T13:45:06.558Z</time></trkpt><trkpt lat="45.7379306" lon="9.4206723"><ele>219.0</ele><time>2026-05-03T13:45:07.554Z</time></trkpt><trkpt lat="45.7377753" lon="9.4205673"><ele>219.66666666666669</ele><time>2026-05-03T13:45:08.561Z</time></trkpt><trkpt lat="45.7376198" lon="9.4204524"><ele>220.33333333333334</ele><time>2026-05-03T13:45:09.559Z</time></trkpt><trkpt lat="45.7374633" lon="9.42035"><ele>221.0</ele><time>2026-05-03T13:45:10.553Z</time></trkpt><trkpt lat="45.7373182" lon="9.4202278"><ele>221.0</ele><time>2026-05-03T13:45:11.565Z</time></trkpt><trkpt lat="45.7371606" lon="9.4201077"><ele>221.0</ele><time>2026-05-03T13:45:12.558Z</time></trkpt><trkpt lat="45.7369946" lon="9.4199979"><ele>221.0</ele><time>2026-05-03T13:45:13.563Z</time></trkpt><trkpt lat="45.736861" lon="9.4198764"><ele>220.66666666666669</ele><time>2026-05-03T13:45:14.565Z</time></trkpt><trkpt lat="45.7367323" lon="9.4197573"><ele>220.33333333333331</ele><time>2026-05-03T13:45:15.558Z</time></trkpt><trkpt lat="45.7365856" lon="9.41965"><ele>220.0</ele><time>2026-05-03T13:45:16.562Z</time></trkpt><trkpt lat="45.7364317" lon="9.4195435"><ele>220.0</ele><time>2026-05-03T13:45:17.568Z</time></trkpt><trkpt lat="45.736305" lon="9.4194448"><ele>220.0</ele><time>2026-05-03T13:45:18.558Z</time></trkpt><trkpt lat="45.7361858" lon="9.419339"><ele>220.0</ele><time>2026-05-03T13:45:19.562Z</time></trkpt><trkpt lat="45.7360661" lon="9.4192481"><ele>220.0</ele><time>2026-05-03T13:45:20.582Z</time></trkpt><trkpt lat="45.7359439" lon="9.4191603"><ele>220.0</ele><time>2026-05-03T13:45:21.563Z</time></trkpt><trkpt lat="45.7358393" lon="9.4190731"><ele>220.0</ele><time>2026-05-03T13:45:22.556Z</time></trkpt><trkpt lat="45.735738" lon="9.4189868"><ele>220.0</ele><time>2026-05-03T13:45:23.565Z</time></trkpt><trkpt lat="45.7356306" lon="9.4188947"><ele>220.0</ele><time>2026-05-03T13:45:24.566Z</time></trkpt><trkpt lat="45.7355408" lon="9.4188142"><ele>219.99999999999997</ele><time>2026-05-03T13:45:25.56Z</time></trkpt><trkpt lat="45.7354359" lon="9.4187488"><ele>220.0</ele><time>2026-05-03T13:45:26.567Z</time></trkpt><trkpt lat="45.7353659" lon="9.418686"><ele>220.0</ele><time>2026-05-03T13:45:27.562Z</time></trkpt><trkpt lat="45.7352968" lon="9.4186197"><ele>220.0</ele><time>2026-05-03T13:45:28.562Z</time></trkpt><trkpt lat="45.7352315" lon="9.4185674"><ele>219.99999999999997</ele><time>2026-05-03T13:45:29.558Z</time></trkpt><trkpt lat="45.7351766" lon="9.4185132"><ele>220.0</ele><time>2026-05-03T13:45:30.568Z</time></trkpt><trkpt lat="45.7350882" lon="9.4184296"><ele>220.49999999999997</ele><time>2026-05-03T13:45:32.562Z</time></trkpt><trkpt lat="45.7350389" lon="9.4183575"><ele>221.0</ele><time>2026-05-03T13:45:34.564Z</time></trkpt><trkpt lat="45.7349877" lon="9.4182701"><ele>221.5</ele><time>2026-05-03T13:45:47.588Z</time></trkpt><trkpt lat="45.7349406" lon="9.4181747"><ele>222.0</ele><time>2026-05-03T13:45:49.558Z</time></trkpt><trkpt lat="45.734895" lon="9.4180956"><ele>222.49999999999997</ele><time>2026-05-03T13:45:50.566Z</time></trkpt><trkpt lat="45.7348262" lon="9.4180088"><ele>223.0</ele><time>2026-05-03T13:45:51.564Z</time></trkpt><trkpt lat="45.7347424" lon="9.4179431"><ele>223.0</ele><time>2026-05-03T13:45:52.556Z</time></trkpt><trkpt lat="45.7346532" lon="9.4178868"><ele>223.0</ele><time>2026-05-03T13:45:53.565Z</time></trkpt><trkpt lat="45.7345552" lon="9.4178086"><ele>223.0</ele><time>2026-05-03T13:45:54.558Z</time></trkpt><trkpt lat="45.7344606" lon="9.4177014"><ele>223.0</ele><time>2026-05-03T13:45:55.565Z</time></trkpt><trkpt lat="45.7343482" lon="9.4175626"><ele>224.75</ele><time>2026-05-03T13:45:56.563Z</time></trkpt><trkpt lat="45.7342062" lon="9.4173873"><ele>226.5</ele><time>2026-05-03T13:45:57.559Z</time></trkpt><trkpt lat="45.7340855" lon="9.4172724"><ele>228.25</ele><time>2026-05-03T13:45:58.557Z</time></trkpt><trkpt lat="45.7340004" lon="9.417167"><ele>230.0</ele><time>2026-05-03T13:45:59.561Z</time></trkpt><trkpt lat="45.7339089" lon="9.4170973"><ele>230.0</ele><time>2026-05-03T13:46:00.554Z</time></trkpt><trkpt lat="45.7338002" lon="9.4170566"><ele>230.0</ele><time>2026-05-03T13:46:01.585Z</time></trkpt><trkpt lat="45.7336919" lon="9.4170328"><ele>230.0</ele><time>2026-05-03T13:46:02.566Z</time></trkpt><trkpt lat="45.7335797" lon="9.4170243"><ele>230.0</ele><time>2026-05-03T13:46:03.553Z</time></trkpt><trkpt lat="45.7334621" lon="9.4170297"><ele>231.0</ele><time>2026-05-03T13:46:04.558Z</time></trkpt><trkpt lat="45.7333494" lon="9.4170445"><ele>232.0</ele><time>2026-05-03T13:46:05.561Z</time></trkpt><trkpt lat="45.7332402" lon="9.4170838"><ele>233.0</ele><time>2026-05-03T13:46:06.559Z</time></trkpt><trkpt lat="45.7331375" lon="9.4171397"><ele>234.0</ele><time>2026-05-03T13:46:07.566Z</time></trkpt><trkpt lat="45.733038" lon="9.417222"><ele>236.5</ele><time>2026-05-03T13:46:08.56Z</time></trkpt><trkpt lat="45.7329458" lon="9.417324"><ele>239.0</ele><time>2026-05-03T13:46:09.561Z</time></trkpt><trkpt lat="45.7328607" lon="9.4174405"><ele>241.5</ele><time>2026-05-03T13:46:10.552Z</time></trkpt><trkpt lat="45.7327842" lon="9.4175655"><ele>244.0</ele><time>2026-05-03T13:46:11.644Z</time></trkpt><trkpt lat="45.7327233" lon="9.4177053"><ele>244.5</ele><time>2026-05-03T13:46:12.561Z</time></trkpt><trkpt lat="45.7326833" lon="9.4178625"><ele>245.0</ele><time>2026-05-03T13:46:13.553Z</time></trkpt><trkpt lat="45.7326585" lon="9.4180345"><ele>245.5</ele><time>2026-05-03T13:46:14.565Z</time></trkpt><trkpt lat="45.7326455" lon="9.4182221"><ele>246.0</ele><time>2026-05-03T13:46:15.56Z</time></trkpt><trkpt lat="45.7326335" lon="9.4184202"><ele>246.8</ele><time>2026-05-03T13:46:16.564Z</time></trkpt><trkpt lat="45.7326142" lon="9.4186043"><ele>247.60000000000002</ele><time>2026-05-03T13:46:17.56Z</time></trkpt><trkpt lat="45.7325951" lon="9.4187395"><ele>248.4</ele><time>2026-05-03T13:46:18.581Z</time></trkpt><trkpt lat="45.7325625" lon="9.4188896"><ele>249.2</ele><time>2026-05-03T13:46:19.553Z</time></trkpt><trkpt lat="45.732533" lon="9.4190423"><ele>250.0</ele><time>2026-05-03T13:46:20.563Z</time></trkpt><trkpt lat="45.7324836" lon="9.4191908"><ele>250.6</ele><time>2026-05-03T13:46:21.555Z</time></trkpt><trkpt lat="45.7324373" lon="9.4193319"><ele>251.2</ele><time>2026-05-03T13:46:22.554Z</time></trkpt><trkpt lat="45.7323866" lon="9.4194561"><ele>251.8</ele><time>2026-05-03T13:46:23.588Z</time></trkpt><trkpt lat="45.7323347" lon="9.4195898"><ele>252.4</ele><time>2026-05-03T13:46:24.558Z</time></trkpt><trkpt lat="45.7322741" lon="9.419702"><ele>253.0</ele><time>2026-05-03T13:46:25.565Z</time></trkpt><trkpt lat="45.7322046" lon="9.4197922"><ele>253.2</ele><time>2026-05-03T13:46:26.561Z</time></trkpt><trkpt lat="45.7321209" lon="9.4198624"><ele>253.4</ele><time>2026-05-03T13:46:27.55Z</time></trkpt><trkpt lat="45.7320331" lon="9.4199224"><ele>253.59999999999997</ele><time>2026-05-03T13:46:28.552Z</time></trkpt><trkpt lat="45.7319374" lon="9.4199543"><ele>253.79999999999998</ele><time>2026-05-03T13:46:29.554Z</time></trkpt><trkpt lat="45.7318379" lon="9.4199559"><ele>254.0</ele><time>2026-05-03T13:46:30.557Z</time></trkpt><trkpt lat="45.731731" lon="9.4199412"><ele>253.5</ele><time>2026-05-03T13:46:31.558Z</time></trkpt><trkpt lat="45.7316129" lon="9.4199026"><ele>253.0</ele><time>2026-05-03T13:46:32.556Z</time></trkpt><trkpt lat="45.7314957" lon="9.4198342"><ele>252.5</ele><time>2026-05-03T13:46:33.562Z</time></trkpt><trkpt lat="45.7313842" lon="9.4197387"><ele>252.0</ele><time>2026-05-03T13:46:34.551Z</time></trkpt><trkpt lat="45.7312789" lon="9.4196162"><ele>252.0</ele><time>2026-05-03T13:46:35.553Z</time></trkpt><trkpt lat="45.7311753" lon="9.4194747"><ele>252.0</ele><time>2026-05-03T13:46:36.551Z</time></trkpt><trkpt lat="45.73107" lon="9.4192508"><ele>252.0</ele><time>2026-05-03T13:46:37.555Z</time></trkpt><trkpt lat="45.730948" lon="9.419088"><ele>253.66666666666669</ele><time>2026-05-03T13:46:38.551Z</time></trkpt><trkpt lat="45.7308068" lon="9.4189461"><ele>255.33333333333334</ele><time>2026-05-03T13:46:39.554Z</time></trkpt><trkpt lat="45.7306742" lon="9.4188012"><ele>257.0</ele><time>2026-05-03T13:46:40.563Z</time></trkpt><trkpt lat="45.7305233" lon="9.4186648"><ele>257.0</ele><time>2026-05-03T13:46:41.561Z</time></trkpt><trkpt lat="45.7303589" lon="9.4185159"><ele>257.0</ele><time>2026-05-03T13:46:42.564Z</time></trkpt><trkpt lat="45.7302228" lon="9.4183675"><ele>257.0</ele><time>2026-05-03T13:46:43.564Z</time></trkpt><trkpt lat="45.7300807" lon="9.4182256"><ele>257.33333333333337</ele><time>2026-05-03T13:46:44.557Z</time></trkpt><trkpt lat="45.7299346" lon="9.4180901"><ele>257.6666666666667</ele><time>2026-05-03T13:46:45.564Z</time></trkpt><trkpt lat="45.7297689" lon="9.4179572"><ele>258.0</ele><time>2026-05-03T13:46:46.56Z</time></trkpt><trkpt lat="45.7296087" lon="9.4178102"><ele>258.0</ele><time>2026-05-03T13:46:47.566Z</time></trkpt><trkpt lat="45.7294351" lon="9.4176753"><ele>258.0</ele><time>2026-05-03T13:46:48.555Z</time></trkpt><trkpt lat="45.7292704" lon="9.4175094"><ele>258.0</ele><time>2026-05-03T13:46:49.554Z</time></trkpt><trkpt lat="45.729123" lon="9.4172965"><ele>259.6666666666667</ele><time>2026-05-03T13:46:50.554Z</time></trkpt><trkpt lat="45.7289935" lon="9.4170839"><ele>261.33333333333337</ele><time>2026-05-03T13:46:51.56Z</time></trkpt><trkpt lat="45.7288759" lon="9.4168681"><ele>263.0</ele><time>2026-05-03T13:46:52.556Z</time></trkpt><trkpt lat="45.7287541" lon="9.4166542"><ele>263.0</ele><time>2026-05-03T13:46:53.565Z</time></trkpt><trkpt lat="45.7286081" lon="9.4164555"><ele>263.0</ele><time>2026-05-03T13:46:54.556Z</time></trkpt><trkpt lat="45.728443" lon="9.416284"><ele>263.0</ele><time>2026-05-03T13:46:55.55Z</time></trkpt><trkpt lat="45.728278" lon="9.4161328"><ele>264.33333333333337</ele><time>2026-05-03T13:46:56.56Z</time></trkpt><trkpt lat="45.728113" lon="9.4160091"><ele>265.6666666666667</ele><time>2026-05-03T13:46:57.56Z</time></trkpt><trkpt lat="45.7279385" lon="9.4158926"><ele>267.0</ele><time>2026-05-03T13:46:58.562Z</time></trkpt><trkpt lat="45.7277579" lon="9.4157861"><ele>269.0</ele><time>2026-05-03T13:46:59.574Z</time></trkpt><trkpt lat="45.7275808" lon="9.4156958"><ele>271.0</ele><time>2026-05-03T13:47:00.561Z</time></trkpt><trkpt lat="45.727403" lon="9.4156231"><ele>273.0</ele><time>2026-05-03T13:47:01.564Z</time></trkpt><trkpt lat="45.7272357" lon="9.4155785"><ele>273.0</ele><time>2026-05-03T13:47:02.567Z</time></trkpt><trkpt lat="45.7270834" lon="9.4155365"><ele>273.0</ele><time>2026-05-03T13:47:03.566Z</time></trkpt><trkpt lat="45.7269363" lon="9.415503"><ele>273.0</ele><time>2026-05-03T13:47:04.573Z</time></trkpt><trkpt lat="45.7267995" lon="9.415468"><ele>273.0</ele><time>2026-05-03T13:47:05.571Z</time></trkpt><trkpt lat="45.7266639" lon="9.4154552"><ele>274.5</ele><time>2026-05-03T13:47:06.57Z</time></trkpt><trkpt lat="45.7265245" lon="9.4154407"><ele>276.0</ele><time>2026-05-03T13:47:07.559Z</time></trkpt><trkpt lat="45.7263788" lon="9.4154112"><ele>277.5</ele><time>2026-05-03T13:47:08.562Z</time></trkpt><trkpt lat="45.7262314" lon="9.4154183"><ele>279.0</ele><time>2026-05-03T13:47:09.556Z</time></trkpt><trkpt lat="45.7260873" lon="9.4154346"><ele>279.2</ele><time>2026-05-03T13:47:10.563Z</time></trkpt><trkpt lat="45.7259598" lon="9.4154631"><ele>279.4</ele><time>2026-05-03T13:47:11.565Z</time></trkpt><trkpt lat="45.7258454" lon="9.4154768"><ele>279.6</ele><time>2026-05-03T13:47:12.555Z</time></trkpt><trkpt lat="45.7257396" lon="9.4155161"><ele>279.8</ele><time>2026-05-03T13:47:13.567Z</time></trkpt><trkpt lat="45.7256496" lon="9.4155547"><ele>280.0</ele><time>2026-05-03T13:47:14.57Z</time></trkpt><trkpt lat="45.7255468" lon="9.4155856"><ele>280.0</ele><time>2026-05-03T13:47:15.558Z</time></trkpt><trkpt lat="45.7254495" lon="9.4156383"><ele>280.0</ele><time>2026-05-03T13:47:16.569Z</time></trkpt><trkpt lat="45.7253487" lon="9.4156955"><ele>280.0</ele><time>2026-05-03T13:47:17.569Z</time></trkpt><trkpt lat="45.7252572" lon="9.4157395"><ele>280.0</ele><time>2026-05-03T13:47:18.557Z</time></trkpt><trkpt lat="45.7251794" lon="9.4157782"><ele>280.0</ele><time>2026-05-03T13:47:19.568Z</time></trkpt><trkpt lat="45.7251135" lon="9.4158097"><ele>280.8</ele><time>2026-05-03T13:47:20.561Z</time></trkpt><trkpt lat="45.7250364" lon="9.4158509"><ele>281.6</ele><time>2026-05-03T13:47:22.561Z</time></trkpt><trkpt lat="45.7249398" lon="9.4158551"><ele>282.4</ele><time>2026-05-03T13:47:25.567Z</time></trkpt><trkpt lat="45.7248085" lon="9.4158149"><ele>283.2</ele><time>2026-05-03T13:47:27.573Z</time></trkpt><trkpt lat="45.7247187" lon="9.4158155"><ele>284.0</ele><time>2026-05-03T13:47:28.587Z</time></trkpt><trkpt lat="45.7246081" lon="9.4158076"><ele>284.0</ele><time>2026-05-03T13:47:29.555Z</time></trkpt><trkpt lat="45.7244988" lon="9.415755"><ele>284.0</ele><time>2026-05-03T13:47:30.552Z</time></trkpt><trkpt lat="45.7243956" lon="9.4156784"><ele>284.0</ele><time>2026-05-03T13:47:31.567Z</time></trkpt><trkpt lat="45.724286" lon="9.415579"><ele>284.0</ele><time>2026-05-03T13:47:32.553Z</time></trkpt><trkpt lat="45.7241684" lon="9.4154661"><ele>284.0</ele><time>2026-05-03T13:47:33.559Z</time></trkpt><trkpt lat="45.7240403" lon="9.4153365"><ele>284.0</ele><time>2026-05-03T13:47:34.564Z</time></trkpt><trkpt lat="45.7238947" lon="9.4151651"><ele>284.0</ele><time>2026-05-03T13:47:35.567Z</time></trkpt><trkpt lat="45.7237579" lon="9.4149904"><ele>284.0</ele><time>2026-05-03T13:47:36.569Z</time></trkpt><trkpt lat="45.7236287" lon="9.4148273"><ele>284.0</ele><time>2026-05-03T13:47:37.564Z</time></trkpt><trkpt lat="45.7234891" lon="9.4146593"><ele>284.0</ele><time>2026-05-03T13:47:38.57Z</time></trkpt><trkpt lat="45.7233333" lon="9.4145033"><ele>284.6666666666667</ele><time>2026-05-03T13:47:39.563Z</time></trkpt><trkpt lat="45.7231854" lon="9.4143517"><ele>285.3333333333333</ele><time>2026-05-03T13:47:40.563Z</time></trkpt><trkpt lat="45.723038" lon="9.4141989"><ele>286.0</ele><time>2026-05-03T13:47:41.561Z</time></trkpt><trkpt lat="45.7228979" lon="9.4140445"><ele>286.0</ele><time>2026-05-03T13:47:42.557Z</time></trkpt><trkpt lat="45.7227725" lon="9.4139239"><ele>286.0</ele><time>2026-05-03T13:47:43.554Z</time></trkpt><trkpt lat="45.7226514" lon="9.4137974"><ele>286.0</ele><time>2026-05-03T13:47:44.556Z</time></trkpt><trkpt lat="45.722544" lon="9.4136685"><ele>286.0</ele><time>2026-05-03T13:47:45.553Z</time></trkpt><trkpt lat="45.7224506" lon="9.4135795"><ele>286.40000000000003</ele><time>2026-05-03T13:47:46.558Z</time></trkpt><trkpt lat="45.7223697" lon="9.4134945"><ele>286.8</ele><time>2026-05-03T13:47:47.566Z</time></trkpt><trkpt lat="45.7222902" lon="9.4134033"><ele>287.20000000000005</ele><time>2026-05-03T13:47:48.558Z</time></trkpt><trkpt lat="45.7222249" lon="9.4133146"><ele>287.6</ele><time>2026-05-03T13:47:49.561Z</time></trkpt><trkpt lat="45.7221526" lon="9.4132441"><ele>288.0</ele><time>2026-05-03T13:47:50.567Z</time></trkpt><trkpt lat="45.7220816" lon="9.4131727"><ele>288.0</ele><time>2026-05-03T13:47:51.557Z</time></trkpt><trkpt lat="45.7220108" lon="9.4131057"><ele>288.0</ele><time>2026-05-03T13:47:52.569Z</time></trkpt><trkpt lat="45.7219434" lon="9.4130416"><ele>288.0</ele><time>2026-05-03T13:47:53.57Z</time></trkpt><trkpt lat="45.7218732" lon="9.4129719"><ele>288.0</ele><time>2026-05-03T13:47:54.585Z</time></trkpt><trkpt lat="45.7218012" lon="9.4129"><ele>288.0</ele><time>2026-05-03T13:47:55.562Z</time></trkpt><trkpt lat="45.7217233" lon="9.4128251"><ele>288.0</ele><time>2026-05-03T13:47:56.575Z</time></trkpt><trkpt lat="45.7216401" lon="9.4127443"><ele>288.4</ele><time>2026-05-03T13:47:57.562Z</time></trkpt><trkpt lat="45.7215575" lon="9.4126509"><ele>288.8</ele><time>2026-05-03T13:47:58.566Z</time></trkpt><trkpt lat="45.7214726" lon="9.4125548"><ele>289.2</ele><time>2026-05-03T13:47:59.57Z</time></trkpt><trkpt lat="45.721381" lon="9.4124574"><ele>289.6</ele><time>2026-05-03T13:48:00.557Z</time></trkpt><trkpt lat="45.7212834" lon="9.412353"><ele>290.0</ele><time>2026-05-03T13:48:01.568Z</time></trkpt><trkpt lat="45.7211796" lon="9.4122476"><ele>290.5</ele><time>2026-05-03T13:48:02.568Z</time></trkpt><trkpt lat="45.7210741" lon="9.412141"><ele>291.0</ele><time>2026-05-03T13:48:03.562Z</time></trkpt><trkpt lat="45.7209644" lon="9.4120324"><ele>291.5</ele><time>2026-05-03T13:48:04.562Z</time></trkpt><trkpt lat="45.7208564" lon="9.411927"><ele>292.0</ele><time>2026-05-03T13:48:05.565Z</time></trkpt><trkpt lat="45.720744" lon="9.4118188"><ele>293.3333333333333</ele><time>2026-05-03T13:48:06.563Z</time></trkpt><trkpt lat="45.7206239" lon="9.4116921"><ele>294.6666666666667</ele><time>2026-05-03T13:48:07.561Z</time></trkpt><trkpt lat="45.7204832" lon="9.4115353"><ele>296.0</ele><time>2026-05-03T13:48:08.575Z</time></trkpt><trkpt lat="45.7203486" lon="9.4114038"><ele>296.0</ele><time>2026-05-03T13:48:09.56Z</time></trkpt><trkpt lat="45.7202052" lon="9.4112573"><ele>296.0</ele><time>2026-05-03T13:48:10.558Z</time></trkpt><trkpt lat="45.7200472" lon="9.4110897"><ele>296.0</ele><time>2026-05-03T13:48:11.57Z</time></trkpt><trkpt lat="45.7198993" lon="9.4108899"><ele>296.0</ele><time>2026-05-03T13:48:12.559Z</time></trkpt><trkpt lat="45.719757" lon="9.4107478"><ele>296.0</ele><time>2026-05-03T13:48:13.564Z</time></trkpt><trkpt lat="45.7196222" lon="9.4106116"><ele>296.0</ele><time>2026-05-03T13:48:14.566Z</time></trkpt><trkpt lat="45.7194976" lon="9.4104815"><ele>296.75</ele><time>2026-05-03T13:48:15.562Z</time></trkpt><trkpt lat="45.7193799" lon="9.4103672"><ele>297.5</ele><time>2026-05-03T13:48:16.56Z</time></trkpt><trkpt lat="45.7192648" lon="9.4102574"><ele>298.25</ele><time>2026-05-03T13:48:17.565Z</time></trkpt><trkpt lat="45.7191477" lon="9.410133"><ele>299.0</ele><time>2026-05-03T13:48:18.56Z</time></trkpt><trkpt lat="45.7190398" lon="9.4100088"><ele>299.0</ele><time>2026-05-03T13:48:19.566Z</time></trkpt><trkpt lat="45.7189283" lon="9.4098883"><ele>299.0</ele><time>2026-05-03T13:48:20.567Z</time></trkpt><trkpt lat="45.7188277" lon="9.4097645"><ele>299.0</ele><time>2026-05-03T13:48:21.558Z</time></trkpt><trkpt lat="45.7187249" lon="9.4096641"><ele>299.0</ele><time>2026-05-03T13:48:22.561Z</time></trkpt><trkpt lat="45.7186302" lon="9.4095731"><ele>298.6666666666667</ele><time>2026-05-03T13:48:23.567Z</time></trkpt><trkpt lat="45.7185161" lon="9.4094534"><ele>298.3333333333333</ele><time>2026-05-03T13:48:24.559Z</time></trkpt><trkpt lat="45.7184" lon="9.4093292"><ele>298.0</ele><time>2026-05-03T13:48:25.564Z</time></trkpt><trkpt lat="45.7182499" lon="9.4091927"><ele>298.0</ele><time>2026-05-03T13:48:26.569Z</time></trkpt><trkpt lat="45.7181187" lon="9.4090536"><ele>298.0</ele><time>2026-05-03T13:48:27.56Z</time></trkpt><trkpt lat="45.7179948" lon="9.408929"><ele>298.0</ele><time>2026-05-03T13:48:28.56Z</time></trkpt><trkpt lat="45.7178845" lon="9.4088131"><ele>297.8</ele><time>2026-05-03T13:48:29.573Z</time></trkpt><trkpt lat="45.7177876" lon="9.4087155"><ele>297.6</ele><time>2026-05-03T13:48:30.563Z</time></trkpt><trkpt lat="45.7177159" lon="9.4086335"><ele>297.4</ele><time>2026-05-03T13:48:31.574Z</time></trkpt><trkpt lat="45.7176443" lon="9.4085566"><ele>297.2</ele><time>2026-05-03T13:48:32.565Z</time></trkpt><trkpt lat="45.7175867" lon="9.408471"><ele>297.0</ele><time>2026-05-03T13:48:33.559Z</time></trkpt><trkpt lat="45.7175434" lon="9.4083962"><ele>297.0</ele><time>2026-05-03T13:48:34.557Z</time></trkpt><trkpt lat="45.7175118" lon="9.4082299"><ele>297.0</ele><time>2026-05-03T13:48:36.56Z</time></trkpt><trkpt lat="45.7174815" lon="9.4080694"><ele>297.0</ele><time>2026-05-03T13:48:38.561Z</time></trkpt><trkpt lat="45.7173754" lon="9.4079736"><ele>297.0</ele><time>2026-05-03T13:48:40.559Z</time></trkpt><trkpt lat="45.7173094" lon="9.4079757"><ele>297.0</ele><time>2026-05-03T13:48:41.577Z</time></trkpt><trkpt lat="45.7172455" lon="9.4080287"><ele>297.0</ele><time>2026-05-03T13:48:42.567Z</time></trkpt><trkpt lat="45.717179" lon="9.4081047"><ele>297.0</ele><time>2026-05-03T13:48:43.57Z</time></trkpt><trkpt lat="45.7171136" lon="9.4081451"><ele>297.0</ele><time>2026-05-03T13:48:44.573Z</time></trkpt><trkpt lat="45.717038" lon="9.4081568"><ele>297.0</ele><time>2026-05-03T13:48:45.57Z</time></trkpt><trkpt lat="45.7169391" lon="9.4081432"><ele>297.0</ele><time>2026-05-03T13:48:46.572Z</time></trkpt><trkpt lat="45.7168125" lon="9.4081139"><ele>297.3333333333333</ele><time>2026-05-03T13:48:47.573Z</time></trkpt><trkpt lat="45.716661" lon="9.4080624"><ele>297.66666666666663</ele><time>2026-05-03T13:48:48.565Z</time></trkpt><trkpt lat="45.7164833" lon="9.4079839"><ele>298.0</ele><time>2026-05-03T13:48:49.571Z</time></trkpt><trkpt lat="45.7162561" lon="9.4078791"><ele>298.66666666666663</ele><time>2026-05-03T13:48:50.575Z</time></trkpt><trkpt lat="45.7160585" lon="9.4078183"><ele>299.3333333333333</ele><time>2026-05-03T13:48:51.576Z</time></trkpt><trkpt lat="45.7158681" lon="9.4077592"><ele>300.0</ele><time>2026-05-03T13:48:52.567Z</time></trkpt><trkpt lat="45.715677" lon="9.4076879"><ele>300.0</ele><time>2026-05-03T13:48:53.573Z</time></trkpt><trkpt lat="45.7154934" lon="9.4076169"><ele>300.0</ele><time>2026-05-03T13:48:54.568Z</time></trkpt><trkpt lat="45.7153287" lon="9.4075519"><ele>300.0</ele><time>2026-05-03T13:48:55.561Z</time></trkpt><trkpt lat="45.7151824" lon="9.4074927"><ele>300.3333333333333</ele><time>2026-05-03T13:48:56.573Z</time></trkpt><trkpt lat="45.7150143" lon="9.4074215"><ele>300.66666666666663</ele><time>2026-05-03T13:48:57.569Z</time></trkpt><trkpt lat="45.714859" lon="9.4073581"><ele>301.0</ele><time>2026-05-03T13:48:58.568Z</time></trkpt><trkpt lat="45.7146887" lon="9.4072841"><ele>301.0</ele><time>2026-05-03T13:48:59.57Z</time></trkpt><trkpt lat="45.7144872" lon="9.4071893"><ele>301.0</ele><time>2026-05-03T13:49:00.568Z</time></trkpt><trkpt lat="45.7142741" lon="9.4070858"><ele>301.0</ele><time>2026-05-03T13:49:01.567Z</time></trkpt><trkpt lat="45.7140575" lon="9.4069585"><ele>300.5</ele><time>2026-05-03T13:49:02.569Z</time></trkpt><trkpt lat="45.7138254" lon="9.4068332"><ele>300.0</ele><time>2026-05-03T13:49:03.56Z</time></trkpt><trkpt lat="45.7136187" lon="9.4067394"><ele>301.0</ele><time>2026-05-03T13:49:04.572Z</time></trkpt><trkpt lat="45.7134286" lon="9.406657"><ele>302.0</ele><time>2026-05-03T13:49:05.568Z</time></trkpt><trkpt lat="45.7132418" lon="9.4065761"><ele>303.0</ele><time>2026-05-03T13:49:06.561Z</time></trkpt><trkpt lat="45.7130698" lon="9.4064945"><ele>303.0</ele><time>2026-05-03T13:49:07.567Z</time></trkpt><trkpt lat="45.7129112" lon="9.4063927"><ele>303.0</ele><time>2026-05-03T13:49:08.574Z</time></trkpt><trkpt lat="45.7127483" lon="9.4062977"><ele>303.0</ele><time>2026-05-03T13:49:09.563Z</time></trkpt><trkpt lat="45.7125816" lon="9.4062337"><ele>302.3333333333333</ele><time>2026-05-03T13:49:10.568Z</time></trkpt><trkpt lat="45.7124096" lon="9.4061678"><ele>301.66666666666663</ele><time>2026-05-03T13:49:11.57Z</time></trkpt><trkpt lat="45.7122369" lon="9.4061221"><ele>301.0</ele><time>2026-05-03T13:49:12.56Z</time></trkpt><trkpt lat="45.7120694" lon="9.4061061"><ele>301.0</ele><time>2026-05-03T13:49:13.564Z</time></trkpt><trkpt lat="45.7119185" lon="9.4060961"><ele>301.0</ele><time>2026-05-03T13:49:14.567Z</time></trkpt><trkpt lat="45.711786" lon="9.4060882"><ele>301.0</ele><time>2026-05-03T13:49:15.56Z</time></trkpt><trkpt lat="45.7116714" lon="9.4060969"><ele>301.0</ele><time>2026-05-03T13:49:16.569Z</time></trkpt><trkpt lat="45.7115727" lon="9.4061095"><ele>301.6</ele><time>2026-05-03T13:49:17.575Z</time></trkpt><trkpt lat="45.7114769" lon="9.4061103"><ele>302.20000000000005</ele><time>2026-05-03T13:49:18.563Z</time></trkpt><trkpt lat="45.7114013" lon="9.4061068"><ele>302.79999999999995</ele><time>2026-05-03T13:49:19.574Z</time></trkpt><trkpt lat="45.7113088" lon="9.4060805"><ele>303.4</ele><time>2026-05-03T13:49:20.57Z</time></trkpt><trkpt lat="45.711212" lon="9.4060513"><ele>304.0</ele><time>2026-05-03T13:49:21.557Z</time></trkpt><trkpt lat="45.7111095" lon="9.4060512"><ele>305.25</ele><time>2026-05-03T13:49:22.571Z</time></trkpt><trkpt lat="45.7110136" lon="9.4061196"><ele>306.5</ele><time>2026-05-03T13:49:23.562Z</time></trkpt><trkpt lat="45.7109109" lon="9.4062117"><ele>307.75</ele><time>2026-05-03T13:49:24.558Z</time></trkpt><trkpt lat="45.7107926" lon="9.4063265"><ele>309.0</ele><time>2026-05-03T13:49:25.558Z</time></trkpt><trkpt lat="45.7106712" lon="9.4064312"><ele>309.0</ele><time>2026-05-03T13:49:26.566Z</time></trkpt><trkpt lat="45.7105501" lon="9.4065373"><ele>309.0</ele><time>2026-05-03T13:49:27.558Z</time></trkpt><trkpt lat="45.7104206" lon="9.4066575"><ele>309.0</ele><time>2026-05-03T13:49:28.57Z</time></trkpt><trkpt lat="45.7102878" lon="9.4067497"><ele>309.0</ele><time>2026-05-03T13:49:29.57Z</time></trkpt><trkpt lat="45.7101658" lon="9.4068391"><ele>309.25</ele><time>2026-05-03T13:49:30.562Z</time></trkpt><trkpt lat="45.7100668" lon="9.4069359"><ele>309.5</ele><time>2026-05-03T13:49:31.563Z</time></trkpt><trkpt lat="45.7099467" lon="9.4070371"><ele>309.75</ele><time>2026-05-03T13:49:32.57Z</time></trkpt><trkpt lat="45.7098283" lon="9.4071497"><ele>310.0</ele><time>2026-05-03T13:49:33.558Z</time></trkpt><trkpt lat="45.7097114" lon="9.4072583"><ele>310.0</ele><time>2026-05-03T13:49:34.573Z</time></trkpt><trkpt lat="45.7096037" lon="9.4073354"><ele>310.0</ele><time>2026-05-03T13:49:35.56Z</time></trkpt><trkpt lat="45.709502" lon="9.4074206"><ele>310.0</ele><time>2026-05-03T13:49:36.567Z</time></trkpt><trkpt lat="45.7093932" lon="9.4075123"><ele>310.0</ele><time>2026-05-03T13:49:37.561Z</time></trkpt><trkpt lat="45.7092863" lon="9.4075962"><ele>309.4</ele><time>2026-05-03T13:49:38.568Z</time></trkpt><trkpt lat="45.7091906" lon="9.4076607"><ele>308.8</ele><time>2026-05-03T13:49:39.568Z</time></trkpt><trkpt lat="45.709094" lon="9.4077384"><ele>308.2</ele><time>2026-05-03T13:49:40.563Z</time></trkpt><trkpt lat="45.708986" lon="9.4078234"><ele>307.6</ele><time>2026-05-03T13:49:41.564Z</time></trkpt><trkpt lat="45.7088943" lon="9.4078985"><ele>307.0</ele><time>2026-05-03T13:49:42.564Z</time></trkpt><trkpt lat="45.7088052" lon="9.4079752"><ele>306.75</ele><time>2026-05-03T13:49:43.554Z</time></trkpt><trkpt lat="45.708709" lon="9.4080518"><ele>306.5</ele><time>2026-05-03T13:49:44.567Z</time></trkpt><trkpt lat="45.7086062" lon="9.4081346"><ele>306.25</ele><time>2026-05-03T13:49:45.562Z</time></trkpt><trkpt lat="45.7084906" lon="9.408238"><ele>306.0</ele><time>2026-05-03T13:49:46.57Z</time></trkpt><trkpt lat="45.7083665" lon="9.408344"><ele>305.75</ele><time>2026-05-03T13:49:47.64Z</time></trkpt><trkpt lat="45.7082309" lon="9.4084576"><ele>305.5</ele><time>2026-05-03T13:49:48.572Z</time></trkpt><trkpt lat="45.7081056" lon="9.4085616"><ele>305.25</ele><time>2026-05-03T13:49:49.563Z</time></trkpt><trkpt lat="45.7079782" lon="9.4086663"><ele>305.0</ele><time>2026-05-03T13:49:50.568Z</time></trkpt><trkpt lat="45.7078664" lon="9.4087613"><ele>304.6</ele><time>2026-05-03T13:49:51.566Z</time></trkpt><trkpt lat="45.7077611" lon="9.4088516"><ele>304.2</ele><time>2026-05-03T13:49:52.566Z</time></trkpt><trkpt lat="45.7076608" lon="9.4089412"><ele>303.8</ele><time>2026-05-03T13:49:53.566Z</time></trkpt><trkpt lat="45.7075743" lon="9.409012"><ele>303.4</ele><time>2026-05-03T13:49:54.569Z</time></trkpt><trkpt lat="45.707485" lon="9.4090743"><ele>303.0</ele><time>2026-05-03T13:49:55.559Z</time></trkpt><trkpt lat="45.7073947" lon="9.4091627"><ele>302.5</ele><time>2026-05-03T13:49:56.575Z</time></trkpt><trkpt lat="45.7072953" lon="9.409248"><ele>302.0</ele><time>2026-05-03T13:49:57.566Z</time></trkpt><trkpt lat="45.707172" lon="9.4093303"><ele>301.5</ele><time>2026-05-03T13:49:58.556Z</time></trkpt><trkpt lat="45.7070604" lon="9.4094124"><ele>301.0</ele><time>2026-05-03T13:49:59.564Z</time></trkpt><trkpt lat="45.7069624" lon="9.4094869"><ele>300.66666666666663</ele><time>2026-05-03T13:50:00.561Z</time></trkpt><trkpt lat="45.7068731" lon="9.409557"><ele>300.3333333333333</ele><time>2026-05-03T13:50:01.561Z</time></trkpt><trkpt lat="45.7067959" lon="9.409618"><ele>300.0</ele><time>2026-05-03T13:50:02.567Z</time></trkpt><trkpt lat="45.7067326" lon="9.4096662"><ele>299.6666666666667</ele><time>2026-05-03T13:50:03.561Z</time></trkpt><trkpt lat="45.7066476" lon="9.4097353"><ele>299.33333333333337</ele><time>2026-05-03T13:50:05.559Z</time></trkpt><trkpt lat="45.706578" lon="9.4097954"><ele>299.0</ele><time>2026-05-03T13:50:08.57Z</time></trkpt><trkpt lat="45.7065084" lon="9.4098637"><ele>299.0</ele><time>2026-05-03T13:50:11.57Z</time></trkpt><trkpt lat="45.7063971" lon="9.4099327"><ele>299.0</ele><time>2026-05-03T13:50:13.558Z</time></trkpt><trkpt lat="45.7063285" lon="9.4099676"><ele>299.0</ele><time>2026-05-03T13:50:14.567Z</time></trkpt><trkpt lat="45.7062629" lon="9.4100254"><ele>299.0</ele><time>2026-05-03T13:50:15.565Z</time></trkpt><trkpt lat="45.7061745" lon="9.4101021"><ele>299.0</ele><time>2026-05-03T13:50:16.55Z</time></trkpt><trkpt lat="45.7060719" lon="9.410196"><ele>297.6666666666667</ele><time>2026-05-03T13:50:17.563Z</time></trkpt><trkpt lat="45.7059442" lon="9.4103007"><ele>296.3333333333333</ele><time>2026-05-03T13:50:18.568Z</time></trkpt><trkpt lat="45.7057703" lon="9.4104319"><ele>295.0</ele><time>2026-05-03T13:50:19.553Z</time></trkpt><trkpt lat="45.705582" lon="9.4105913"><ele>295.0</ele><time>2026-05-03T13:50:20.569Z</time></trkpt><trkpt lat="45.7053884" lon="9.4107497"><ele>295.0</ele><time>2026-05-03T13:50:21.555Z</time></trkpt><trkpt lat="45.7051969" lon="9.4108766"><ele>295.0</ele><time>2026-05-03T13:50:22.554Z</time></trkpt><trkpt lat="45.7050324" lon="9.4109959"><ele>295.0</ele><time>2026-05-03T13:50:23.562Z</time></trkpt><trkpt lat="45.704873" lon="9.411129"><ele>295.0</ele><time>2026-05-03T13:50:24.561Z</time></trkpt><trkpt lat="45.7047204" lon="9.4112407"><ele>295.0</ele><time>2026-05-03T13:50:25.556Z</time></trkpt><trkpt lat="45.7045752" lon="9.4113285"><ele>295.0</ele><time>2026-05-03T13:50:26.564Z</time></trkpt><trkpt lat="45.7044299" lon="9.4113971"><ele>295.0</ele><time>2026-05-03T13:50:27.561Z</time></trkpt><trkpt lat="45.7042896" lon="9.4114398"><ele>295.0</ele><time>2026-05-03T13:50:28.569Z</time></trkpt><trkpt lat="45.7041404" lon="9.4114845"><ele>295.0</ele><time>2026-05-03T13:50:29.568Z</time></trkpt><trkpt lat="45.7039921" lon="9.4115067"><ele>293.75</ele><time>2026-05-03T13:50:30.568Z</time></trkpt><trkpt lat="45.7038515" lon="9.4115131"><ele>292.5</ele><time>2026-05-03T13:50:31.559Z</time></trkpt><trkpt lat="45.703713" lon="9.4115268"><ele>291.25</ele><time>2026-05-03T13:50:32.565Z</time></trkpt><trkpt lat="45.7035709" lon="9.4115136"><ele>290.0</ele><time>2026-05-03T13:50:33.566Z</time></trkpt><trkpt lat="45.7034111" lon="9.4114857"><ele>290.0</ele><time>2026-05-03T13:50:34.565Z</time></trkpt><trkpt lat="45.7032363" lon="9.4114406"><ele>290.0</ele><time>2026-05-03T13:50:35.571Z</time></trkpt><trkpt lat="45.7030458" lon="9.4113636"><ele>290.0</ele><time>2026-05-03T13:50:36.557Z</time></trkpt><trkpt lat="45.7028601" lon="9.4112793"><ele>289.33333333333337</ele><time>2026-05-03T13:50:37.554Z</time></trkpt><trkpt lat="45.7026878" lon="9.4111802"><ele>288.6666666666667</ele><time>2026-05-03T13:50:38.564Z</time></trkpt><trkpt lat="45.7025221" lon="9.4110852"><ele>288.0</ele><time>2026-05-03T13:50:39.556Z</time></trkpt><trkpt lat="45.702355" lon="9.411016"><ele>288.0</ele><time>2026-05-03T13:50:40.571Z</time></trkpt><trkpt lat="45.7022046" lon="9.4109342"><ele>288.0</ele><time>2026-05-03T13:50:41.565Z</time></trkpt><trkpt lat="45.7020598" lon="9.4108482"><ele>288.0</ele><time>2026-05-03T13:50:42.564Z</time></trkpt><trkpt lat="45.7019258" lon="9.410759"><ele>288.2</ele><time>2026-05-03T13:50:43.553Z</time></trkpt><trkpt lat="45.7018122" lon="9.4106617"><ele>288.4</ele><time>2026-05-03T13:50:44.562Z</time></trkpt><trkpt lat="45.7017192" lon="9.4105788"><ele>288.59999999999997</ele><time>2026-05-03T13:50:45.559Z</time></trkpt><trkpt lat="45.7016518" lon="9.410517"><ele>288.8</ele><time>2026-05-03T13:50:46.553Z</time></trkpt><trkpt lat="45.701564" lon="9.4104275"><ele>289.0</ele><time>2026-05-03T13:50:47.562Z</time></trkpt><trkpt lat="45.701462" lon="9.4103172"><ele>289.0</ele><time>2026-05-03T13:50:48.559Z</time></trkpt><trkpt lat="45.7013466" lon="9.4101886"><ele>289.0</ele><time>2026-05-03T13:50:49.561Z</time></trkpt><trkpt lat="45.7012419" lon="9.4100636"><ele>289.0</ele><time>2026-05-03T13:50:50.559Z</time></trkpt><trkpt lat="45.701135" lon="9.4099221"><ele>289.0</ele><time>2026-05-03T13:50:51.562Z</time></trkpt><trkpt lat="45.7010076" lon="9.4097718"><ele>287.66666666666663</ele><time>2026-05-03T13:50:52.559Z</time></trkpt><trkpt lat="45.7008915" lon="9.4096277"><ele>286.3333333333333</ele><time>2026-05-03T13:50:53.563Z</time></trkpt><trkpt lat="45.7007708" lon="9.409489"><ele>285.0</ele><time>2026-05-03T13:50:54.56Z</time></trkpt><trkpt lat="45.7006127" lon="9.4093479"><ele>285.0</ele><time>2026-05-03T13:50:55.551Z</time></trkpt><trkpt lat="45.7004923" lon="9.4091929"><ele>285.0</ele><time>2026-05-03T13:50:56.557Z</time></trkpt><trkpt lat="45.700365" lon="9.4090549"><ele>285.0</ele><time>2026-05-03T13:50:57.555Z</time></trkpt><trkpt lat="45.7002579" lon="9.4089303"><ele>285.5</ele><time>2026-05-03T13:50:58.557Z</time></trkpt><trkpt lat="45.7001441" lon="9.4088035"><ele>286.0</ele><time>2026-05-03T13:50:59.556Z</time></trkpt><trkpt lat="45.7000457" lon="9.4086702"><ele>286.5</ele><time>2026-05-03T13:51:00.559Z</time></trkpt><trkpt lat="45.6999503" lon="9.4085463"><ele>287.0</ele><time>2026-05-03T13:51:01.564Z</time></trkpt><trkpt lat="45.6998641" lon="9.4084385"><ele>287.0</ele><time>2026-05-03T13:51:02.553Z</time></trkpt><trkpt lat="45.6997579" lon="9.4083165"><ele>287.0</ele><time>2026-05-03T13:51:03.56Z</time></trkpt><trkpt lat="45.6996655" lon="9.4081983"><ele>287.0</ele><time>2026-05-03T13:51:04.555Z</time></trkpt><trkpt lat="45.6995836" lon="9.4080826"><ele>287.0</ele><time>2026-05-03T13:51:05.553Z</time></trkpt><trkpt lat="45.699502" lon="9.4079774"><ele>286.4</ele><time>2026-05-03T13:51:06.557Z</time></trkpt><trkpt lat="45.699426" lon="9.4078754"><ele>285.79999999999995</ele><time>2026-05-03T13:51:07.549Z</time></trkpt><trkpt lat="45.6993576" lon="9.4077728"><ele>285.2</ele><time>2026-05-03T13:51:08.561Z</time></trkpt><trkpt lat="45.6992859" lon="9.4076704"><ele>284.59999999999997</ele><time>2026-05-03T13:51:09.554Z</time></trkpt><trkpt lat="45.6992265" lon="9.4075828"><ele>284.0</ele><time>2026-05-03T13:51:10.548Z</time></trkpt><trkpt lat="45.6991838" lon="9.4075165"><ele>284.0</ele><time>2026-05-03T13:51:11.564Z</time></trkpt><trkpt lat="45.6991016" lon="9.4073982"><ele>284.0</ele><time>2026-05-03T13:51:13.564Z</time></trkpt><trkpt lat="45.6990459" lon="9.407314"><ele>284.0</ele><time>2026-05-03T13:51:14.562Z</time></trkpt><trkpt lat="45.6989943" lon="9.4072365"><ele>284.0</ele><time>2026-05-03T13:51:15.561Z</time></trkpt><trkpt lat="45.6989433" lon="9.4071638"><ele>284.0</ele><time>2026-05-03T13:51:16.556Z</time></trkpt><trkpt lat="45.6988922" lon="9.407098"><ele>284.0</ele><time>2026-05-03T13:51:17.573Z</time></trkpt><trkpt lat="45.6988429" lon="9.4070408"><ele>283.4</ele><time>2026-05-03T13:51:18.557Z</time></trkpt><trkpt lat="45.6987566" lon="9.4069228"><ele>282.79999999999995</ele><time>2026-05-03T13:51:20.562Z</time></trkpt><trkpt lat="45.6986934" lon="9.4068144"><ele>282.20000000000005</ele><time>2026-05-03T13:51:22.564Z</time></trkpt><trkpt lat="45.6986331" lon="9.4067042"><ele>281.6</ele><time>2026-05-03T13:51:24.557Z</time></trkpt><trkpt lat="45.698579" lon="9.4066153"><ele>281.0</ele><time>2026-05-03T13:51:27.58Z</time></trkpt><trkpt lat="45.6984903" lon="9.4065174"><ele>280.83333333333337</ele><time>2026-05-03T13:51:29.569Z</time></trkpt><trkpt lat="45.6984326" lon="9.4064711"><ele>280.6666666666667</ele><time>2026-05-03T13:51:30.573Z</time></trkpt><trkpt lat="45.6983708" lon="9.4064319"><ele>280.5</ele><time>2026-05-03T13:51:31.573Z</time></trkpt><trkpt lat="45.6982957" lon="9.4063801"><ele>280.3333333333333</ele><time>2026-05-03T13:51:32.562Z</time></trkpt><trkpt lat="45.6982042" lon="9.4063241"><ele>280.16666666666663</ele><time>2026-05-03T13:51:33.564Z</time></trkpt><trkpt lat="45.6980936" lon="9.406247"><ele>280.0</ele><time>2026-05-03T13:51:34.552Z</time></trkpt><trkpt lat="45.6979653" lon="9.4061257"><ele>279.3333333333333</ele><time>2026-05-03T13:51:35.572Z</time></trkpt><trkpt lat="45.6978258" lon="9.405977"><ele>278.6666666666667</ele><time>2026-05-03T13:51:36.559Z</time></trkpt><trkpt lat="45.6976741" lon="9.4058115"><ele>278.0</ele><time>2026-05-03T13:51:37.559Z</time></trkpt><trkpt lat="45.6975562" lon="9.4056813"><ele>277.75</ele><time>2026-05-03T13:51:38.566Z</time></trkpt><trkpt lat="45.6974448" lon="9.4055748"><ele>277.5</ele><time>2026-05-03T13:51:39.559Z</time></trkpt><trkpt lat="45.6973368" lon="9.4054497"><ele>277.25</ele><time>2026-05-03T13:51:40.565Z</time></trkpt><trkpt lat="45.6972414" lon="9.4053233"><ele>277.0</ele><time>2026-05-03T13:51:41.565Z</time></trkpt><trkpt lat="45.6971461" lon="9.4052126"><ele>277.0</ele><time>2026-05-03T13:51:42.564Z</time></trkpt><trkpt lat="45.6970538" lon="9.4051017"><ele>277.0</ele><time>2026-05-03T13:51:43.558Z</time></trkpt><trkpt lat="45.6969559" lon="9.4050072"><ele>277.0</ele><time>2026-05-03T13:51:44.567Z</time></trkpt><trkpt lat="45.6968557" lon="9.4049068"><ele>277.0</ele><time>2026-05-03T13:51:45.561Z</time></trkpt><trkpt lat="45.6967474" lon="9.4048029"><ele>277.0</ele><time>2026-05-03T13:51:46.562Z</time></trkpt><trkpt lat="45.6966446" lon="9.4047069"><ele>277.0</ele><time>2026-05-03T13:51:47.564Z</time></trkpt><trkpt lat="45.6965499" lon="9.4046133"><ele>277.0</ele><time>2026-05-03T13:51:48.561Z</time></trkpt><trkpt lat="45.6964591" lon="9.4045278"><ele>277.0</ele><time>2026-05-03T13:51:49.566Z</time></trkpt><trkpt lat="45.6963716" lon="9.4044532"><ele>277.0</ele><time>2026-05-03T13:51:50.565Z</time></trkpt><trkpt lat="45.6962799" lon="9.4043731"><ele>276.75</ele><time>2026-05-03T13:51:51.56Z</time></trkpt><trkpt lat="45.6961834" lon="9.4042883"><ele>276.5</ele><time>2026-05-03T13:51:52.565Z</time></trkpt><trkpt lat="45.6960931" lon="9.4041968"><ele>276.25</ele><time>2026-05-03T13:51:53.56Z</time></trkpt><trkpt lat="45.6959997" lon="9.4041029"><ele>276.0</ele><time>2026-05-03T13:51:54.563Z</time></trkpt><trkpt lat="45.6959" lon="9.4040049"><ele>275.6</ele><time>2026-05-03T13:51:55.557Z</time></trkpt><trkpt lat="45.6958084" lon="9.40391"><ele>275.20000000000005</ele><time>2026-05-03T13:51:56.565Z</time></trkpt><trkpt lat="45.6957252" lon="9.4038199"><ele>274.79999999999995</ele><time>2026-05-03T13:51:57.555Z</time></trkpt><trkpt lat="45.6956484" lon="9.4037421"><ele>274.4</ele><time>2026-05-03T13:51:58.558Z</time></trkpt><trkpt lat="45.6955744" lon="9.4036758"><ele>274.0</ele><time>2026-05-03T13:51:59.561Z</time></trkpt><trkpt lat="45.6955031" lon="9.4036113"><ele>274.0</ele><time>2026-05-03T13:52:00.555Z</time></trkpt><trkpt lat="45.6954356" lon="9.4035462"><ele>274.0</ele><time>2026-05-03T13:52:01.561Z</time></trkpt><trkpt lat="45.6953689" lon="9.4034783"><ele>274.0</ele><time>2026-05-03T13:52:02.562Z</time></trkpt><trkpt lat="45.695294" lon="9.403401"><ele>274.0</ele><time>2026-05-03T13:52:03.549Z</time></trkpt><trkpt lat="45.6952121" lon="9.403326"><ele>274.0</ele><time>2026-05-03T13:52:04.562Z</time></trkpt><trkpt lat="45.695128" lon="9.4032418"><ele>274.0</ele><time>2026-05-03T13:52:05.559Z</time></trkpt><trkpt lat="45.6950442" lon="9.4031545"><ele>274.0</ele><time>2026-05-03T13:52:06.552Z</time></trkpt><trkpt lat="45.6949461" lon="9.4030529"><ele>274.0</ele><time>2026-05-03T13:52:07.553Z</time></trkpt><trkpt lat="45.6948348" lon="9.4029428"><ele>274.0</ele><time>2026-05-03T13:52:08.558Z</time></trkpt><trkpt lat="45.694705" lon="9.402808"><ele>274.0</ele><time>2026-05-03T13:52:09.551Z</time></trkpt><trkpt lat="45.6945546" lon="9.4026547"><ele>274.0</ele><time>2026-05-03T13:52:10.566Z</time></trkpt><trkpt lat="45.6944241" lon="9.4025042"><ele>274.0</ele><time>2026-05-03T13:52:11.559Z</time></trkpt><trkpt lat="45.6943006" lon="9.4023939"><ele>273.0</ele><time>2026-05-03T13:52:12.558Z</time></trkpt><trkpt lat="45.6941833" lon="9.4022928"><ele>272.0</ele><time>2026-05-03T13:52:13.563Z</time></trkpt><trkpt lat="45.6940753" lon="9.4021899"><ele>271.0</ele><time>2026-05-03T13:52:14.555Z</time></trkpt><trkpt lat="45.6939735" lon="9.4021192"><ele>270.0</ele><time>2026-05-03T13:52:15.563Z</time></trkpt><trkpt lat="45.6938709" lon="9.4020912"><ele>269.8</ele><time>2026-05-03T13:52:16.581Z</time></trkpt><trkpt lat="45.6937628" lon="9.4020824"><ele>269.6</ele><time>2026-05-03T13:52:17.563Z</time></trkpt><trkpt lat="45.6936675" lon="9.4021002"><ele>269.4</ele><time>2026-05-03T13:52:18.565Z</time></trkpt><trkpt lat="45.6935595" lon="9.4021349"><ele>269.2</ele><time>2026-05-03T13:52:19.562Z</time></trkpt><trkpt lat="45.6934431" lon="9.4021548"><ele>269.0</ele><time>2026-05-03T13:52:20.566Z</time></trkpt><trkpt lat="45.6933342" lon="9.4021722"><ele>269.0</ele><time>2026-05-03T13:52:21.56Z</time></trkpt><trkpt lat="45.6932328" lon="9.4021766"><ele>269.0</ele><time>2026-05-03T13:52:22.564Z</time></trkpt><trkpt lat="45.6931322" lon="9.4021817"><ele>269.0</ele><time>2026-05-03T13:52:23.561Z</time></trkpt><trkpt lat="45.6930352" lon="9.4021832"><ele>269.0</ele><time>2026-05-03T13:52:24.559Z</time></trkpt><trkpt lat="45.692939" lon="9.4021773"><ele>269.0</ele><time>2026-05-03T13:52:25.561Z</time></trkpt><trkpt lat="45.6928342" lon="9.4021666"><ele>269.0</ele><time>2026-05-03T13:52:26.56Z</time></trkpt><trkpt lat="45.6927281" lon="9.402142"><ele>269.0</ele><time>2026-05-03T13:52:27.561Z</time></trkpt><trkpt lat="45.6926248" lon="9.4021093"><ele>269.0</ele><time>2026-05-03T13:52:28.554Z</time></trkpt><trkpt lat="45.692528" lon="9.4020644"><ele>269.0</ele><time>2026-05-03T13:52:29.576Z</time></trkpt><trkpt lat="45.6924298" lon="9.4020152"><ele>269.0</ele><time>2026-05-03T13:52:30.564Z</time></trkpt><trkpt lat="45.6923181" lon="9.4019591"><ele>269.0</ele><time>2026-05-03T13:52:31.56Z</time></trkpt><trkpt lat="45.6921887" lon="9.401896"><ele>269.0</ele><time>2026-05-03T13:52:32.561Z</time></trkpt><trkpt lat="45.6920352" lon="9.4018179"><ele>269.0</ele><time>2026-05-03T13:52:33.562Z</time></trkpt><trkpt lat="45.6918475" lon="9.4017149"><ele>268.6666666666667</ele><time>2026-05-03T13:52:34.561Z</time></trkpt><trkpt lat="45.6916752" lon="9.4016064"><ele>268.3333333333333</ele><time>2026-05-03T13:52:35.564Z</time></trkpt><trkpt lat="45.691528" lon="9.4015366"><ele>268.0</ele><time>2026-05-03T13:52:36.564Z</time></trkpt><trkpt lat="45.691377" lon="9.4014876"><ele>268.0</ele><time>2026-05-03T13:52:37.561Z</time></trkpt><trkpt lat="45.6912366" lon="9.401405"><ele>268.0</ele><time>2026-05-03T13:52:38.567Z</time></trkpt><trkpt lat="45.6910889" lon="9.4013214"><ele>268.0</ele><time>2026-05-03T13:52:39.564Z</time></trkpt><trkpt lat="45.6909339" lon="9.4012442"><ele>267.0</ele><time>2026-05-03T13:52:40.561Z</time></trkpt><trkpt lat="45.6908082" lon="9.4011685"><ele>266.0</ele><time>2026-05-03T13:52:41.566Z</time></trkpt><trkpt lat="45.6906635" lon="9.4011016"><ele>265.0</ele><time>2026-05-03T13:52:42.562Z</time></trkpt><trkpt lat="45.6905065" lon="9.4010432"><ele>265.0</ele><time>2026-05-03T13:52:43.558Z</time></trkpt><trkpt lat="45.6903257" lon="9.4009717"><ele>265.0</ele><time>2026-05-03T13:52:44.579Z</time></trkpt><trkpt lat="45.6901492" lon="9.4008742"><ele>265.0</ele><time>2026-05-03T13:52:45.563Z</time></trkpt><trkpt lat="45.6899622" lon="9.4007615"><ele>264.0</ele><time>2026-05-03T13:52:46.56Z</time></trkpt><trkpt lat="45.6898083" lon="9.4006671"><ele>263.0</ele><time>2026-05-03T13:52:47.596Z</time></trkpt><trkpt lat="45.6896575" lon="9.400592"><ele>262.0</ele><time>2026-05-03T13:52:48.57Z</time></trkpt><trkpt lat="45.689504" lon="9.4005406"><ele>262.25</ele><time>2026-05-03T13:52:49.569Z</time></trkpt><trkpt lat="45.6893789" lon="9.4004859"><ele>262.5</ele><time>2026-05-03T13:52:50.571Z</time></trkpt><trkpt lat="45.6892668" lon="9.4004293"><ele>262.75</ele><time>2026-05-03T13:52:51.567Z</time></trkpt><trkpt lat="45.6891509" lon="9.4004107"><ele>263.0</ele><time>2026-05-03T13:52:52.567Z</time></trkpt><trkpt lat="45.68906" lon="9.4003619"><ele>263.0</ele><time>2026-05-03T13:52:53.568Z</time></trkpt><trkpt lat="45.6889791" lon="9.4003219"><ele>263.0</ele><time>2026-05-03T13:52:54.563Z</time></trkpt><trkpt lat="45.6889026" lon="9.4002709"><ele>263.0</ele><time>2026-05-03T13:52:55.558Z</time></trkpt><trkpt lat="45.6888407" lon="9.4002221"><ele>263.0</ele><time>2026-05-03T13:52:56.564Z</time></trkpt><trkpt lat="45.6887434" lon="9.4001514"><ele>263.0</ele><time>2026-05-03T13:52:58.562Z</time></trkpt><trkpt lat="45.6886946" lon="9.400082"><ele>263.0</ele><time>2026-05-03T13:52:59.579Z</time></trkpt><trkpt lat="45.6886392" lon="9.4000107"><ele>262.8</ele><time>2026-05-03T13:53:00.571Z</time></trkpt><trkpt lat="45.6885607" lon="9.3999588"><ele>262.6</ele><time>2026-05-03T13:53:01.568Z</time></trkpt><trkpt lat="45.6884716" lon="9.3999654"><ele>262.4</ele><time>2026-05-03T13:53:02.575Z</time></trkpt><trkpt lat="45.6883714" lon="9.4000159"><ele>262.2</ele><time>2026-05-03T13:53:03.565Z</time></trkpt><trkpt lat="45.6882519" lon="9.4000469"><ele>262.0</ele><time>2026-05-03T13:53:04.587Z</time></trkpt><trkpt lat="45.6881202" lon="9.4000425"><ele>262.0</ele><time>2026-05-03T13:53:05.568Z</time></trkpt><trkpt lat="45.6879692" lon="9.400005"><ele>262.0</ele><time>2026-05-03T13:53:06.563Z</time></trkpt><trkpt lat="45.6877758" lon="9.399936"><ele>262.0</ele><time>2026-05-03T13:53:07.561Z</time></trkpt><trkpt lat="45.6875924" lon="9.3998814"><ele>260.66666666666663</ele><time>2026-05-03T13:53:08.571Z</time></trkpt><trkpt lat="45.6874163" lon="9.3998189"><ele>259.3333333333333</ele><time>2026-05-03T13:53:09.567Z</time></trkpt><trkpt lat="45.6872299" lon="9.3997627"><ele>258.0</ele><time>2026-05-03T13:53:10.561Z</time></trkpt><trkpt lat="45.6870512" lon="9.3996873"><ele>257.6666666666667</ele><time>2026-05-03T13:53:11.571Z</time></trkpt><trkpt lat="45.6868849" lon="9.3996232"><ele>257.33333333333337</ele><time>2026-05-03T13:53:12.571Z</time></trkpt><trkpt lat="45.6867245" lon="9.3995677"><ele>257.0</ele><time>2026-05-03T13:53:13.565Z</time></trkpt><trkpt lat="45.6865616" lon="9.3995034"><ele>257.0</ele><time>2026-05-03T13:53:14.575Z</time></trkpt><trkpt lat="45.6863971" lon="9.399442"><ele>257.0</ele><time>2026-05-03T13:53:15.573Z</time></trkpt><trkpt lat="45.6862329" lon="9.3993857"><ele>257.0</ele><time>2026-05-03T13:53:16.564Z</time></trkpt><trkpt lat="45.6860791" lon="9.3993245"><ele>255.66666666666669</ele><time>2026-05-03T13:53:17.573Z</time></trkpt><trkpt lat="45.6859258" lon="9.3992654"><ele>254.33333333333331</ele><time>2026-05-03T13:53:18.575Z</time></trkpt><trkpt lat="45.6857623" lon="9.3992076"><ele>253.0</ele><time>2026-05-03T13:53:19.567Z</time></trkpt><trkpt lat="45.6856098" lon="9.3991438"><ele>253.0</ele><time>2026-05-03T13:53:20.577Z</time></trkpt><trkpt lat="45.6854721" lon="9.3990989"><ele>253.0</ele><time>2026-05-03T13:53:21.568Z</time></trkpt><trkpt lat="45.6853364" lon="9.3990662"><ele>253.0</ele><time>2026-05-03T13:53:22.565Z</time></trkpt><trkpt lat="45.6852093" lon="9.3990135"><ele>253.0</ele><time>2026-05-03T13:53:23.573Z</time></trkpt><trkpt lat="45.6850789" lon="9.3989615"><ele>253.33333333333331</ele><time>2026-05-03T13:53:24.572Z</time></trkpt><trkpt lat="45.6849064" lon="9.3989187"><ele>253.66666666666669</ele><time>2026-05-03T13:53:25.566Z</time></trkpt><trkpt lat="45.6847414" lon="9.3988479"><ele>254.0</ele><time>2026-05-03T13:53:26.572Z</time></trkpt><trkpt lat="45.6845807" lon="9.3987886"><ele>253.75</ele><time>2026-05-03T13:53:27.565Z</time></trkpt><trkpt lat="45.6844176" lon="9.3987344"><ele>253.5</ele><time>2026-05-03T13:53:28.575Z</time></trkpt><trkpt lat="45.6842816" lon="9.3986792"><ele>253.25</ele><time>2026-05-03T13:53:29.577Z</time></trkpt><trkpt lat="45.6841491" lon="9.3986303"><ele>253.0</ele><time>2026-05-03T13:53:30.577Z</time></trkpt><trkpt lat="45.6840075" lon="9.3985798"><ele>253.0</ele><time>2026-05-03T13:53:31.572Z</time></trkpt><trkpt lat="45.6838638" lon="9.3985231"><ele>253.0</ele><time>2026-05-03T13:53:32.577Z</time></trkpt><trkpt lat="45.6837164" lon="9.3984811"><ele>253.0</ele><time>2026-05-03T13:53:33.575Z</time></trkpt><trkpt lat="45.6835639" lon="9.3984322"><ele>253.0</ele><time>2026-05-03T13:53:34.567Z</time></trkpt><trkpt lat="45.6834264" lon="9.3983822"><ele>253.0</ele><time>2026-05-03T13:53:35.578Z</time></trkpt><trkpt lat="45.6832929" lon="9.3983513"><ele>253.0</ele><time>2026-05-03T13:53:36.572Z</time></trkpt><trkpt lat="45.6831679" lon="9.3983225"><ele>253.0</ele><time>2026-05-03T13:53:37.572Z</time></trkpt><trkpt lat="45.6830603" lon="9.3982884"><ele>253.0</ele><time>2026-05-03T13:53:38.579Z</time></trkpt><trkpt lat="45.6829292" lon="9.3982198"><ele>253.0</ele><time>2026-05-03T13:53:39.564Z</time></trkpt><trkpt lat="45.6827772" lon="9.3981415"><ele>253.0</ele><time>2026-05-03T13:53:40.567Z</time></trkpt><trkpt lat="45.6826053" lon="9.3980674"><ele>254.33333333333331</ele><time>2026-05-03T13:53:41.588Z</time></trkpt><trkpt lat="45.6824244" lon="9.3979963"><ele>255.66666666666669</ele><time>2026-05-03T13:53:42.588Z</time></trkpt><trkpt lat="45.6822233" lon="9.397922"><ele>257.0</ele><time>2026-05-03T13:53:43.563Z</time></trkpt><trkpt lat="45.6820344" lon="9.3978661"><ele>256.33333333333337</ele><time>2026-05-03T13:53:44.58Z</time></trkpt><trkpt lat="45.6818351" lon="9.3978056"><ele>255.66666666666669</ele><time>2026-05-03T13:53:45.565Z</time></trkpt><trkpt lat="45.6816333" lon="9.3977271"><ele>255.0</ele><time>2026-05-03T13:53:46.561Z</time></trkpt><trkpt lat="45.6814477" lon="9.3976689"><ele>255.0</ele><time>2026-05-03T13:53:47.564Z</time></trkpt><trkpt lat="45.6812759" lon="9.3976073"><ele>255.0</ele><time>2026-05-03T13:53:48.572Z</time></trkpt><trkpt lat="45.681103" lon="9.3975203"><ele>255.0</ele><time>2026-05-03T13:53:49.566Z</time></trkpt><trkpt lat="45.6809424" lon="9.397472"><ele>254.75</ele><time>2026-05-03T13:53:50.574Z</time></trkpt><trkpt lat="45.6807881" lon="9.3974392"><ele>254.5</ele><time>2026-05-03T13:53:51.563Z</time></trkpt><trkpt lat="45.6806413" lon="9.3974132"><ele>254.25</ele><time>2026-05-03T13:53:52.561Z</time></trkpt><trkpt lat="45.68051" lon="9.397366"><ele>254.0</ele><time>2026-05-03T13:53:53.571Z</time></trkpt><trkpt lat="45.6803784" lon="9.3973325"><ele>253.5</ele><time>2026-05-03T13:53:54.563Z</time></trkpt><trkpt lat="45.6802492" lon="9.397259"><ele>253.0</ele><time>2026-05-03T13:53:55.568Z</time></trkpt><trkpt lat="45.6801363" lon="9.3971782"><ele>252.5</ele><time>2026-05-03T13:53:56.566Z</time></trkpt><trkpt lat="45.6800405" lon="9.3971173"><ele>252.0</ele><time>2026-05-03T13:53:57.559Z</time></trkpt><trkpt lat="45.6799385" lon="9.3970532"><ele>252.0</ele><time>2026-05-03T13:53:58.563Z</time></trkpt><trkpt lat="45.67986" lon="9.3969816"><ele>252.0</ele><time>2026-05-03T13:53:59.572Z</time></trkpt><trkpt lat="45.6797853" lon="9.3969232"><ele>252.0</ele><time>2026-05-03T13:54:00.566Z</time></trkpt><trkpt lat="45.6797234" lon="9.3968704"><ele>252.0</ele><time>2026-05-03T13:54:01.571Z</time></trkpt><trkpt lat="45.6796538" lon="9.3967998"><ele>252.0</ele><time>2026-05-03T13:54:03.564Z</time></trkpt><trkpt lat="45.6795875" lon="9.3967319"><ele>252.0</ele><time>2026-05-03T13:54:07.567Z</time></trkpt><trkpt lat="45.6795138" lon="9.3966572"><ele>251.6</ele><time>2026-05-03T13:54:09.562Z</time></trkpt><trkpt lat="45.6793878" lon="9.3966521"><ele>251.2</ele><time>2026-05-03T13:54:11.557Z</time></trkpt><trkpt lat="45.6793164" lon="9.3966853"><ele>250.8</ele><time>2026-05-03T13:54:12.561Z</time></trkpt><trkpt lat="45.6792202" lon="9.3967242"><ele>250.4</ele><time>2026-05-03T13:54:13.578Z</time></trkpt><trkpt lat="45.6791045" lon="9.3967482"><ele>250.0</ele><time>2026-05-03T13:54:14.561Z</time></trkpt><trkpt lat="45.6789791" lon="9.396739"><ele>250.0</ele><time>2026-05-03T13:54:15.571Z</time></trkpt><trkpt lat="45.6788431" lon="9.3966994"><ele>250.0</ele><time>2026-05-03T13:54:16.563Z</time></trkpt><trkpt lat="45.6786932" lon="9.3966338"><ele>250.0</ele><time>2026-05-03T13:54:17.575Z</time></trkpt><trkpt lat="45.6785094" lon="9.3965405"><ele>249.66666666666666</ele><time>2026-05-03T13:54:18.568Z</time></trkpt><trkpt lat="45.6783188" lon="9.3964897"><ele>249.33333333333331</ele><time>2026-05-03T13:54:19.562Z</time></trkpt><trkpt lat="45.6781411" lon="9.3964328"><ele>249.0</ele><time>2026-05-03T13:54:20.571Z</time></trkpt><trkpt lat="45.6779769" lon="9.3963576"><ele>249.0</ele><time>2026-05-03T13:54:21.569Z</time></trkpt><trkpt lat="45.6777944" lon="9.3962977"><ele>249.0</ele><time>2026-05-03T13:54:22.566Z</time></trkpt><trkpt lat="45.6775863" lon="9.396237"><ele>249.0</ele><time>2026-05-03T13:54:23.572Z</time></trkpt><trkpt lat="45.6773827" lon="9.3961601"><ele>249.0</ele><time>2026-05-03T13:54:24.566Z</time></trkpt><trkpt lat="45.6771728" lon="9.3960912"><ele>249.0</ele><time>2026-05-03T13:54:25.566Z</time></trkpt><trkpt lat="45.6769805" lon="9.3960188"><ele>249.0</ele><time>2026-05-03T13:54:26.568Z</time></trkpt><trkpt lat="45.6767762" lon="9.3959416"><ele>249.0</ele><time>2026-05-03T13:54:27.565Z</time></trkpt><trkpt lat="45.6765711" lon="9.395866"><ele>249.0</ele><time>2026-05-03T13:54:28.574Z</time></trkpt><trkpt lat="45.6763823" lon="9.3957945"><ele>249.0</ele><time>2026-05-03T13:54:29.567Z</time></trkpt><trkpt lat="45.676174" lon="9.3957332"><ele>248.33333333333331</ele><time>2026-05-03T13:54:30.564Z</time></trkpt><trkpt lat="45.6759712" lon="9.3956521"><ele>247.66666666666666</ele><time>2026-05-03T13:54:31.562Z</time></trkpt><trkpt lat="45.6757712" lon="9.3955461"><ele>247.0</ele><time>2026-05-03T13:54:32.571Z</time></trkpt><trkpt lat="45.6755827" lon="9.3954457"><ele>247.0</ele><time>2026-05-03T13:54:33.564Z</time></trkpt><trkpt lat="45.6753942" lon="9.3953322"><ele>247.0</ele><time>2026-05-03T13:54:34.562Z</time></trkpt><trkpt lat="45.6752263" lon="9.3952013"><ele>247.0</ele><time>2026-05-03T13:54:35.572Z</time></trkpt><trkpt lat="45.6750596" lon="9.3950714"><ele>246.0</ele><time>2026-05-03T13:54:36.572Z</time></trkpt><trkpt lat="45.6748959" lon="9.3949188"><ele>245.0</ele><time>2026-05-03T13:54:37.569Z</time></trkpt><trkpt lat="45.6747376" lon="9.3947792"><ele>244.0</ele><time>2026-05-03T13:54:38.574Z</time></trkpt><trkpt lat="45.6745747" lon="9.3946308"><ele>244.33333333333331</ele><time>2026-05-03T13:54:39.572Z</time></trkpt><trkpt lat="45.6744164" lon="9.3944747"><ele>244.66666666666669</ele><time>2026-05-03T13:54:40.573Z</time></trkpt><trkpt lat="45.6742643" lon="9.3943116"><ele>245.0</ele><time>2026-05-03T13:54:41.573Z</time></trkpt><trkpt lat="45.6741188" lon="9.3941493"><ele>245.0</ele><time>2026-05-03T13:54:42.568Z</time></trkpt><trkpt lat="45.6739766" lon="9.3939814"><ele>245.0</ele><time>2026-05-03T13:54:43.565Z</time></trkpt><trkpt lat="45.6738538" lon="9.3938017"><ele>245.0</ele><time>2026-05-03T13:54:44.569Z</time></trkpt><trkpt lat="45.6737331" lon="9.3936323"><ele>245.0</ele><time>2026-05-03T13:54:45.565Z</time></trkpt><trkpt lat="45.6736164" lon="9.3934653"><ele>245.0</ele><time>2026-05-03T13:54:46.575Z</time></trkpt><trkpt lat="45.6735142" lon="9.3932908"><ele>245.0</ele><time>2026-05-03T13:54:47.583Z</time></trkpt><trkpt lat="45.6733923" lon="9.3931086"><ele>244.66666666666669</ele><time>2026-05-03T13:54:48.571Z</time></trkpt><trkpt lat="45.6732592" lon="9.3929108"><ele>244.33333333333331</ele><time>2026-05-03T13:54:49.577Z</time></trkpt><trkpt lat="45.6731197" lon="9.3927055"><ele>244.0</ele><time>2026-05-03T13:54:50.58Z</time></trkpt><trkpt lat="45.6729867" lon="9.3925006"><ele>244.0</ele><time>2026-05-03T13:54:51.575Z</time></trkpt><trkpt lat="45.6728588" lon="9.3923026"><ele>244.0</ele><time>2026-05-03T13:54:52.574Z</time></trkpt><trkpt lat="45.672746" lon="9.3921169"><ele>244.0</ele><time>2026-05-03T13:54:53.583Z</time></trkpt><trkpt lat="45.6726445" lon="9.3919328"><ele>243.25</ele><time>2026-05-03T13:54:54.574Z</time></trkpt><trkpt lat="45.6725516" lon="9.3917561"><ele>242.5</ele><time>2026-05-03T13:54:55.586Z</time></trkpt><trkpt lat="45.6724542" lon="9.3916017"><ele>241.75</ele><time>2026-05-03T13:54:56.576Z</time></trkpt><trkpt lat="45.6723779" lon="9.3914247"><ele>241.0</ele><time>2026-05-03T13:54:57.571Z</time></trkpt><trkpt lat="45.6722991" lon="9.3912715"><ele>241.0</ele><time>2026-05-03T13:54:58.574Z</time></trkpt><trkpt lat="45.6722072" lon="9.3911211"><ele>241.0</ele><time>2026-05-03T13:54:59.581Z</time></trkpt><trkpt lat="45.672102" lon="9.3909674"><ele>241.0</ele><time>2026-05-03T13:55:00.573Z</time></trkpt><trkpt lat="45.6719975" lon="9.3908338"><ele>241.0</ele><time>2026-05-03T13:55:01.585Z</time></trkpt><trkpt lat="45.6718936" lon="9.390695"><ele>241.0</ele><time>2026-05-03T13:55:02.585Z</time></trkpt><trkpt lat="45.671775" lon="9.3905636"><ele>241.0</ele><time>2026-05-03T13:55:03.576Z</time></trkpt><trkpt lat="45.6716421" lon="9.3904428"><ele>241.0</ele><time>2026-05-03T13:55:04.582Z</time></trkpt><trkpt lat="45.6714884" lon="9.3903263"><ele>240.66666666666666</ele><time>2026-05-03T13:55:05.583Z</time></trkpt><trkpt lat="45.6713225" lon="9.3902022"><ele>240.33333333333331</ele><time>2026-05-03T13:55:06.58Z</time></trkpt><trkpt lat="45.6711459" lon="9.3900865"><ele>240.0</ele><time>2026-05-03T13:55:07.583Z</time></trkpt><trkpt lat="45.670985" lon="9.3899752"><ele>240.0</ele><time>2026-05-03T13:55:08.583Z</time></trkpt><trkpt lat="45.6708363" lon="9.3898745"><ele>240.0</ele><time>2026-05-03T13:55:09.573Z</time></trkpt><trkpt lat="45.6706756" lon="9.3897731"><ele>240.0</ele><time>2026-05-03T13:55:10.583Z</time></trkpt><trkpt lat="45.6705155" lon="9.3896556"><ele>240.0</ele><time>2026-05-03T13:55:11.587Z</time></trkpt><trkpt lat="45.6703356" lon="9.3895448"><ele>240.0</ele><time>2026-05-03T13:55:12.577Z</time></trkpt><trkpt lat="45.6701648" lon="9.3894316"><ele>240.0</ele><time>2026-05-03T13:55:13.581Z</time></trkpt><trkpt lat="45.6699919" lon="9.3893054"><ele>239.66666666666669</ele><time>2026-05-03T13:55:14.587Z</time></trkpt><trkpt lat="45.6698204" lon="9.3891977"><ele>239.33333333333334</ele><time>2026-05-03T13:55:15.563Z</time></trkpt><trkpt lat="45.6696362" lon="9.3890754"><ele>239.0</ele><time>2026-05-03T13:55:16.59Z</time></trkpt><trkpt lat="45.6694519" lon="9.3889876"><ele>238.66666666666669</ele><time>2026-05-03T13:55:17.584Z</time></trkpt><trkpt lat="45.6692554" lon="9.3888702"><ele>238.33333333333331</ele><time>2026-05-03T13:55:18.574Z</time></trkpt><trkpt lat="45.6690462" lon="9.3887713"><ele>238.0</ele><time>2026-05-03T13:55:19.578Z</time></trkpt><trkpt lat="45.6688442" lon="9.388677"><ele>237.0</ele><time>2026-05-03T13:55:20.581Z</time></trkpt><trkpt lat="45.6686261" lon="9.3885641"><ele>236.0</ele><time>2026-05-03T13:55:21.566Z</time></trkpt><trkpt lat="45.6684232" lon="9.3884334"><ele>236.0</ele><time>2026-05-03T13:55:22.582Z</time></trkpt><trkpt lat="45.6682439" lon="9.3883028"><ele>236.0</ele><time>2026-05-03T13:55:23.578Z</time></trkpt><trkpt lat="45.6680707" lon="9.3881742"><ele>236.0</ele><time>2026-05-03T13:55:24.571Z</time></trkpt><trkpt lat="45.6678824" lon="9.388039"><ele>235.33333333333334</ele><time>2026-05-03T13:55:25.578Z</time></trkpt><trkpt lat="45.6677066" lon="9.3879083"><ele>234.66666666666669</ele><time>2026-05-03T13:55:26.575Z</time></trkpt><trkpt lat="45.667529" lon="9.3877663"><ele>234.0</ele><time>2026-05-03T13:55:27.569Z</time></trkpt><trkpt lat="45.6673582" lon="9.3876171"><ele>234.0</ele><time>2026-05-03T13:55:28.581Z</time></trkpt><trkpt lat="45.6671782" lon="9.3874758"><ele>234.0</ele><time>2026-05-03T13:55:29.575Z</time></trkpt><trkpt lat="45.6670049" lon="9.3873264"><ele>234.0</ele><time>2026-05-03T13:55:30.568Z</time></trkpt><trkpt lat="45.6668144" lon="9.3871672"><ele>233.33333333333331</ele><time>2026-05-03T13:55:31.58Z</time></trkpt><trkpt lat="45.6666147" lon="9.387003"><ele>232.66666666666666</ele><time>2026-05-03T13:55:32.585Z</time></trkpt><trkpt lat="45.6664358" lon="9.3868448"><ele>232.0</ele><time>2026-05-03T13:55:33.577Z</time></trkpt><trkpt lat="45.6662478" lon="9.3866766"><ele>232.66666666666666</ele><time>2026-05-03T13:55:34.591Z</time></trkpt><trkpt lat="45.6660668" lon="9.3865344"><ele>233.33333333333331</ele><time>2026-05-03T13:55:35.583Z</time></trkpt><trkpt lat="45.6658941" lon="9.3864081"><ele>234.0</ele><time>2026-05-03T13:55:36.58Z</time></trkpt><trkpt lat="45.6657173" lon="9.3862705"><ele>234.0</ele><time>2026-05-03T13:55:37.576Z</time></trkpt><trkpt lat="45.6655516" lon="9.3861253"><ele>234.0</ele><time>2026-05-03T13:55:38.584Z</time></trkpt><trkpt lat="45.6653967" lon="9.3860065"><ele>234.0</ele><time>2026-05-03T13:55:39.578Z</time></trkpt><trkpt lat="45.6652583" lon="9.385886"><ele>233.25</ele><time>2026-05-03T13:55:40.584Z</time></trkpt><trkpt lat="45.6651315" lon="9.3857688"><ele>232.5</ele><time>2026-05-03T13:55:41.578Z</time></trkpt><trkpt lat="45.6650109" lon="9.385649"><ele>231.75</ele><time>2026-05-03T13:55:42.577Z</time></trkpt><trkpt lat="45.6649026" lon="9.3855392"><ele>231.0</ele><time>2026-05-03T13:55:43.582Z</time></trkpt><trkpt lat="45.6647961" lon="9.3854432"><ele>231.0</ele><time>2026-05-03T13:55:44.583Z</time></trkpt><trkpt lat="45.6646909" lon="9.3853445"><ele>231.00000000000003</ele><time>2026-05-03T13:55:45.566Z</time></trkpt><trkpt lat="45.6646143" lon="9.3852612"><ele>231.00000000000003</ele><time>2026-05-03T13:55:46.58Z</time></trkpt><trkpt lat="45.6645278" lon="9.3851803"><ele>231.0</ele><time>2026-05-03T13:55:47.584Z</time></trkpt><trkpt lat="45.6644473" lon="9.3851"><ele>231.0</ele><time>2026-05-03T13:55:48.576Z</time></trkpt><trkpt lat="45.6643747" lon="9.3850271"><ele>230.8</ele><time>2026-05-03T13:55:49.585Z</time></trkpt><trkpt lat="45.664309" lon="9.3849669"><ele>230.60000000000002</ele><time>2026-05-03T13:55:50.581Z</time></trkpt><trkpt lat="45.6642482" lon="9.3849064"><ele>230.4</ele><time>2026-05-03T13:55:51.576Z</time></trkpt><trkpt lat="45.6641998" lon="9.3848458"><ele>230.2</ele><time>2026-05-03T13:55:52.579Z</time></trkpt><trkpt lat="45.6641436" lon="9.3846914"><ele>230.0</ele><time>2026-05-03T13:55:54.564Z</time></trkpt><trkpt lat="45.6640425" lon="9.3846234"><ele>230.00000000000003</ele><time>2026-05-03T13:55:56.587Z</time></trkpt><trkpt lat="45.6639666" lon="9.3846602"><ele>230.0</ele><time>2026-05-03T13:55:57.567Z</time></trkpt><trkpt lat="45.6638814" lon="9.3846941"><ele>230.0</ele><time>2026-05-03T13:55:58.59Z</time></trkpt><trkpt lat="45.6638087" lon="9.3846893"><ele>230.0</ele><time>2026-05-03T13:55:59.589Z</time></trkpt><trkpt lat="45.6637274" lon="9.3846539"><ele>230.00000000000003</ele><time>2026-05-03T13:56:00.572Z</time></trkpt><trkpt lat="45.6636274" lon="9.3845772"><ele>230.0</ele><time>2026-05-03T13:56:01.591Z</time></trkpt><trkpt lat="45.6635093" lon="9.3844707"><ele>230.25</ele><time>2026-05-03T13:56:02.574Z</time></trkpt><trkpt lat="45.6633863" lon="9.384351"><ele>230.5</ele><time>2026-05-03T13:56:03.581Z</time></trkpt><trkpt lat="45.66326" lon="9.3842371"><ele>230.75</ele><time>2026-05-03T13:56:04.585Z</time></trkpt><trkpt lat="45.6631312" lon="9.384129"><ele>231.0</ele><time>2026-05-03T13:56:05.586Z</time></trkpt><trkpt lat="45.6630198" lon="9.3840361"><ele>231.0</ele><time>2026-05-03T13:56:06.587Z</time></trkpt><trkpt lat="45.6629068" lon="9.3839443"><ele>231.0</ele><time>2026-05-03T13:56:07.584Z</time></trkpt><trkpt lat="45.662803" lon="9.3838374"><ele>231.0</ele><time>2026-05-03T13:56:08.59Z</time></trkpt><trkpt lat="45.6626852" lon="9.3837393"><ele>231.0</ele><time>2026-05-03T13:56:09.586Z</time></trkpt><trkpt lat="45.6625484" lon="9.3836239"><ele>230.5</ele><time>2026-05-03T13:56:10.584Z</time></trkpt><trkpt lat="45.6624375" lon="9.383514"><ele>230.0</ele><time>2026-05-03T13:56:11.588Z</time></trkpt><trkpt lat="45.6623401" lon="9.3834116"><ele>229.5</ele><time>2026-05-03T13:56:12.586Z</time></trkpt><trkpt lat="45.662247" lon="9.3833232"><ele>229.0</ele><time>2026-05-03T13:56:13.591Z</time></trkpt><trkpt lat="45.6621353" lon="9.3832091"><ele>229.0</ele><time>2026-05-03T13:56:14.589Z</time></trkpt><trkpt lat="45.6620218" lon="9.3831034"><ele>229.0</ele><time>2026-05-03T13:56:15.582Z</time></trkpt><trkpt lat="45.6618948" lon="9.3829834"><ele>229.0</ele><time>2026-05-03T13:56:16.584Z</time></trkpt><trkpt lat="45.6617857" lon="9.3828631"><ele>229.0</ele><time>2026-05-03T13:56:17.593Z</time></trkpt><trkpt lat="45.661674" lon="9.3827319"><ele>229.0</ele><time>2026-05-03T13:56:18.578Z</time></trkpt><trkpt lat="45.6615642" lon="9.3826129"><ele>229.0</ele><time>2026-05-03T13:56:19.583Z</time></trkpt><trkpt lat="45.6614583" lon="9.3824985"><ele>229.0</ele><time>2026-05-03T13:56:20.585Z</time></trkpt><trkpt lat="45.6613517" lon="9.3823841"><ele>229.0</ele><time>2026-05-03T13:56:21.582Z</time></trkpt><trkpt lat="45.6612407" lon="9.3822585"><ele>229.5</ele><time>2026-05-03T13:56:22.578Z</time></trkpt><trkpt lat="45.6611224" lon="9.3821336"><ele>230.0</ele><time>2026-05-03T13:56:23.582Z</time></trkpt><trkpt lat="45.6610143" lon="9.3820128"><ele>230.5</ele><time>2026-05-03T13:56:24.583Z</time></trkpt><trkpt lat="45.6609097" lon="9.3818986"><ele>231.0</ele><time>2026-05-03T13:56:25.582Z</time></trkpt><trkpt lat="45.6608051" lon="9.3817867"><ele>232.25</ele><time>2026-05-03T13:56:26.593Z</time></trkpt><trkpt lat="45.6607171" lon="9.3816746"><ele>233.5</ele><time>2026-05-03T13:56:27.578Z</time></trkpt><trkpt lat="45.6606205" lon="9.3815773"><ele>234.75</ele><time>2026-05-03T13:56:28.579Z</time></trkpt><trkpt lat="45.6605344" lon="9.3814686"><ele>236.0</ele><time>2026-05-03T13:56:29.589Z</time></trkpt><trkpt lat="45.6604555" lon="9.3813633"><ele>235.4</ele><time>2026-05-03T13:56:30.579Z</time></trkpt><trkpt lat="45.6603823" lon="9.381263"><ele>234.8</ele><time>2026-05-03T13:56:31.581Z</time></trkpt><trkpt lat="45.660307" lon="9.3811654"><ele>234.20000000000002</ele><time>2026-05-03T13:56:32.576Z</time></trkpt><trkpt lat="45.6602268" lon="9.381063"><ele>233.60000000000002</ele><time>2026-05-03T13:56:33.567Z</time></trkpt><trkpt lat="45.660144" lon="9.3809565"><ele>233.0</ele><time>2026-05-03T13:56:34.572Z</time></trkpt><trkpt lat="45.6600602" lon="9.3808473"><ele>233.0</ele><time>2026-05-03T13:56:35.573Z</time></trkpt><trkpt lat="45.6599743" lon="9.3807307"><ele>233.0</ele><time>2026-05-03T13:56:36.568Z</time></trkpt><trkpt lat="45.659887" lon="9.3806098"><ele>233.0</ele><time>2026-05-03T13:56:37.583Z</time></trkpt><trkpt lat="45.6598006" lon="9.3804803"><ele>233.0</ele><time>2026-05-03T13:56:38.586Z</time></trkpt><trkpt lat="45.6597112" lon="9.3803496"><ele>232.5</ele><time>2026-05-03T13:56:39.57Z</time></trkpt><trkpt lat="45.659617" lon="9.3802237"><ele>232.0</ele><time>2026-05-03T13:56:40.574Z</time></trkpt><trkpt lat="45.659525" lon="9.3800956"><ele>231.5</ele><time>2026-05-03T13:56:41.651Z</time></trkpt><trkpt lat="45.6594355" lon="9.3799628"><ele>231.0</ele><time>2026-05-03T13:56:42.573Z</time></trkpt><trkpt lat="45.6593418" lon="9.3798241"><ele>231.0</ele><time>2026-05-03T13:56:43.578Z</time></trkpt><trkpt lat="45.6592441" lon="9.3796843"><ele>231.0</ele><time>2026-05-03T13:56:44.582Z</time></trkpt><trkpt lat="45.6591497" lon="9.3795385"><ele>231.0</ele><time>2026-05-03T13:56:45.57Z</time></trkpt><trkpt lat="45.6590648" lon="9.3793862"><ele>231.0</ele><time>2026-05-03T13:56:46.573Z</time></trkpt><trkpt lat="45.658967" lon="9.3792355"><ele>231.25</ele><time>2026-05-03T13:56:47.574Z</time></trkpt><trkpt lat="45.6588619" lon="9.3790902"><ele>231.5</ele><time>2026-05-03T13:56:48.573Z</time></trkpt><trkpt lat="45.6587648" lon="9.3789618"><ele>231.75</ele><time>2026-05-03T13:56:49.561Z</time></trkpt><trkpt lat="45.6586525" lon="9.3787875"><ele>232.0</ele><time>2026-05-03T13:56:50.574Z</time></trkpt><trkpt lat="45.6585396" lon="9.3786178"><ele>232.0</ele><time>2026-05-03T13:56:51.577Z</time></trkpt><trkpt lat="45.6584085" lon="9.3784661"><ele>232.0</ele><time>2026-05-03T13:56:52.566Z</time></trkpt><trkpt lat="45.6582948" lon="9.3782941"><ele>232.0</ele><time>2026-05-03T13:56:53.577Z</time></trkpt><trkpt lat="45.6581917" lon="9.3781196"><ele>233.25</ele><time>2026-05-03T13:56:54.568Z</time></trkpt><trkpt lat="45.6581005" lon="9.3779733"><ele>234.5</ele><time>2026-05-03T13:56:55.559Z</time></trkpt><trkpt lat="45.6580213" lon="9.3778102"><ele>235.75</ele><time>2026-05-03T13:56:56.566Z</time></trkpt><trkpt lat="45.6579494" lon="9.3776669"><ele>237.0</ele><time>2026-05-03T13:56:57.566Z</time></trkpt><trkpt lat="45.6578702" lon="9.3775368"><ele>237.0</ele><time>2026-05-03T13:56:58.56Z</time></trkpt><trkpt lat="45.6577866" lon="9.3773934"><ele>237.0</ele><time>2026-05-03T13:56:59.577Z</time></trkpt><trkpt lat="45.6577092" lon="9.3772624"><ele>237.0</ele><time>2026-05-03T13:57:00.573Z</time></trkpt><trkpt lat="45.6576346" lon="9.3771287"><ele>237.0</ele><time>2026-05-03T13:57:01.577Z</time></trkpt><trkpt lat="45.6575587" lon="9.3769845"><ele>234.25</ele><time>2026-05-03T13:57:02.582Z</time></trkpt><trkpt lat="45.6574752" lon="9.3768473"><ele>231.5</ele><time>2026-05-03T13:57:03.58Z</time></trkpt><trkpt lat="45.6573862" lon="9.3766995"><ele>228.75</ele><time>2026-05-03T13:57:04.577Z</time></trkpt><trkpt lat="45.6572928" lon="9.3765433"><ele>226.0</ele><time>2026-05-03T13:57:05.583Z</time></trkpt><trkpt lat="45.6571782" lon="9.3763805"><ele>226.0</ele><time>2026-05-03T13:57:06.58Z</time></trkpt><trkpt lat="45.6570365" lon="9.3762162"><ele>226.0</ele><time>2026-05-03T13:57:07.574Z</time></trkpt><trkpt lat="45.6568945" lon="9.3760445"><ele>226.0</ele><time>2026-05-03T13:57:08.58Z</time></trkpt><trkpt lat="45.6567619" lon="9.3758792"><ele>226.0</ele><time>2026-05-03T13:57:09.581Z</time></trkpt><trkpt lat="45.6566358" lon="9.3757224"><ele>226.0</ele><time>2026-05-03T13:57:10.582Z</time></trkpt><trkpt lat="45.6565477" lon="9.3755458"><ele>226.0</ele><time>2026-05-03T13:57:11.583Z</time></trkpt><trkpt lat="45.6564403" lon="9.3753308"><ele>227.66666666666666</ele><time>2026-05-03T13:57:12.572Z</time></trkpt><trkpt lat="45.6563272" lon="9.3750862"><ele>229.33333333333331</ele><time>2026-05-03T13:57:13.578Z</time></trkpt><trkpt lat="45.6562299" lon="9.3748435"><ele>231.0</ele><time>2026-05-03T13:57:14.578Z</time></trkpt><trkpt lat="45.6561479" lon="9.3746128"><ele>228.66666666666669</ele><time>2026-05-03T13:57:15.578Z</time></trkpt><trkpt lat="45.6560614" lon="9.3744097"><ele>226.33333333333334</ele><time>2026-05-03T13:57:16.568Z</time></trkpt><trkpt lat="45.655977" lon="9.3741828"><ele>224.0</ele><time>2026-05-03T13:57:17.655Z</time></trkpt><trkpt lat="45.6559151" lon="9.3739668"><ele>224.75</ele><time>2026-05-03T13:57:18.572Z</time></trkpt><trkpt lat="45.6558531" lon="9.3737851"><ele>225.5</ele><time>2026-05-03T13:57:19.57Z</time></trkpt><trkpt lat="45.6557873" lon="9.3736201"><ele>226.25</ele><time>2026-05-03T13:57:20.573Z</time></trkpt><trkpt lat="45.6557333" lon="9.3734503"><ele>227.0</ele><time>2026-05-03T13:57:21.576Z</time></trkpt><trkpt lat="45.6556732" lon="9.3733026"><ele>227.0</ele><time>2026-05-03T13:57:22.583Z</time></trkpt><trkpt lat="45.6556043" lon="9.3731227"><ele>227.0</ele><time>2026-05-03T13:57:23.582Z</time></trkpt><trkpt lat="45.6555288" lon="9.3729206"><ele>227.0</ele><time>2026-05-03T13:57:24.575Z</time></trkpt><trkpt lat="45.6554342" lon="9.3727101"><ele>228.33333333333334</ele><time>2026-05-03T13:57:25.579Z</time></trkpt><trkpt lat="45.6553479" lon="9.372486"><ele>229.66666666666669</ele><time>2026-05-03T13:57:26.587Z</time></trkpt><trkpt lat="45.6552631" lon="9.3722291"><ele>231.0</ele><time>2026-05-03T13:57:27.578Z</time></trkpt><trkpt lat="45.6551738" lon="9.3719796"><ele>229.66666666666669</ele><time>2026-05-03T13:57:28.585Z</time></trkpt><trkpt lat="45.6550885" lon="9.3716978"><ele>228.33333333333334</ele><time>2026-05-03T13:57:29.578Z</time></trkpt><trkpt lat="45.654993" lon="9.371454"><ele>227.0</ele><time>2026-05-03T13:57:30.58Z</time></trkpt><trkpt lat="45.6548985" lon="9.3711915"><ele>227.0</ele><time>2026-05-03T13:57:31.581Z</time></trkpt><trkpt lat="45.6548088" lon="9.370899"><ele>227.0</ele><time>2026-05-03T13:57:32.578Z</time></trkpt><trkpt lat="45.6547039" lon="9.3706365"><ele>227.0</ele><time>2026-05-03T13:57:33.579Z</time></trkpt><trkpt lat="45.6545922" lon="9.3703938"><ele>228.66666666666669</ele><time>2026-05-03T13:57:34.567Z</time></trkpt><trkpt lat="45.6544618" lon="9.3701905"><ele>230.33333333333331</ele><time>2026-05-03T13:57:35.572Z</time></trkpt><trkpt lat="45.6543353" lon="9.3700496"><ele>232.0</ele><time>2026-05-03T13:57:36.573Z</time></trkpt><trkpt lat="45.6542019" lon="9.3699241"><ele>229.33333333333331</ele><time>2026-05-03T13:57:37.573Z</time></trkpt><trkpt lat="45.6540431" lon="9.3698235"><ele>226.66666666666669</ele><time>2026-05-03T13:57:38.579Z</time></trkpt><trkpt lat="45.6538716" lon="9.3697416"><ele>224.0</ele><time>2026-05-03T13:57:39.577Z</time></trkpt><trkpt lat="45.6536967" lon="9.3696859"><ele>222.0</ele><time>2026-05-03T13:57:40.585Z</time></trkpt><trkpt lat="45.6535367" lon="9.369612"><ele>220.0</ele><time>2026-05-03T13:57:41.585Z</time></trkpt><trkpt lat="45.6533762" lon="9.3695347"><ele>218.0</ele><time>2026-05-03T13:57:42.584Z</time></trkpt><trkpt lat="45.6531967" lon="9.3694591"><ele>218.0</ele><time>2026-05-03T13:57:43.587Z</time></trkpt><trkpt lat="45.6530094" lon="9.3693704"><ele>218.0</ele><time>2026-05-03T13:57:44.589Z</time></trkpt><trkpt lat="45.6528146" lon="9.3692868"><ele>218.0</ele><time>2026-05-03T13:57:45.586Z</time></trkpt><trkpt lat="45.6526184" lon="9.3692014"><ele>218.66666666666669</ele><time>2026-05-03T13:57:46.584Z</time></trkpt><trkpt lat="45.652413" lon="9.3691248"><ele>219.33333333333331</ele><time>2026-05-03T13:57:47.588Z</time></trkpt><trkpt lat="45.6521989" lon="9.3690419"><ele>220.0</ele><time>2026-05-03T13:57:48.58Z</time></trkpt><trkpt lat="45.6519991" lon="9.3689426"><ele>220.0</ele><time>2026-05-03T13:57:49.581Z</time></trkpt><trkpt lat="45.6518122" lon="9.3688782"><ele>220.0</ele><time>2026-05-03T13:57:50.584Z</time></trkpt><trkpt lat="45.651612" lon="9.3688136"><ele>220.0</ele><time>2026-05-03T13:57:51.577Z</time></trkpt><trkpt lat="45.6514218" lon="9.3687562"><ele>220.0</ele><time>2026-05-03T13:57:52.593Z</time></trkpt><trkpt lat="45.6512237" lon="9.3686965"><ele>220.0</ele><time>2026-05-03T13:57:53.592Z</time></trkpt><trkpt lat="45.6510139" lon="9.3686368"><ele>220.0</ele><time>2026-05-03T13:57:54.597Z</time></trkpt><trkpt lat="45.6508014" lon="9.3685501"><ele>220.0</ele><time>2026-05-03T13:57:55.575Z</time></trkpt><trkpt lat="45.6505916" lon="9.3684603"><ele>220.0</ele><time>2026-05-03T13:57:56.588Z</time></trkpt><trkpt lat="45.6503808" lon="9.3683649"><ele>220.0</ele><time>2026-05-03T13:57:57.579Z</time></trkpt><trkpt lat="45.6501743" lon="9.3682885"><ele>219.0</ele><time>2026-05-03T13:57:58.605Z</time></trkpt><trkpt lat="45.6499661" lon="9.3682122"><ele>218.0</ele><time>2026-05-03T13:57:59.588Z</time></trkpt><trkpt lat="45.6497594" lon="9.3681275"><ele>217.0</ele><time>2026-05-03T13:58:00.58Z</time></trkpt><trkpt lat="45.6495543" lon="9.368054"><ele>216.66666666666666</ele><time>2026-05-03T13:58:01.586Z</time></trkpt><trkpt lat="45.6493593" lon="9.3679703"><ele>216.33333333333331</ele><time>2026-05-03T13:58:02.59Z</time></trkpt><trkpt lat="45.6491583" lon="9.3679052"><ele>216.0</ele><time>2026-05-03T13:58:03.577Z</time></trkpt><trkpt lat="45.6489596" lon="9.3678357"><ele>216.0</ele><time>2026-05-03T13:58:04.589Z</time></trkpt><trkpt lat="45.6487615" lon="9.3677678"><ele>216.0</ele><time>2026-05-03T13:58:05.584Z</time></trkpt><trkpt lat="45.6485637" lon="9.367698"><ele>216.0</ele><time>2026-05-03T13:58:06.583Z</time></trkpt><trkpt lat="45.6483666" lon="9.3676265"><ele>216.66666666666669</ele><time>2026-05-03T13:58:07.582Z</time></trkpt><trkpt lat="45.64817" lon="9.3675614"><ele>217.33333333333334</ele><time>2026-05-03T13:58:08.595Z</time></trkpt><trkpt lat="45.6479631" lon="9.3674872"><ele>218.0</ele><time>2026-05-03T13:58:09.585Z</time></trkpt><trkpt lat="45.6477565" lon="9.3674278"><ele>218.33333333333334</ele><time>2026-05-03T13:58:10.584Z</time></trkpt><trkpt lat="45.6475641" lon="9.3673602"><ele>218.66666666666669</ele><time>2026-05-03T13:58:11.597Z</time></trkpt><trkpt lat="45.6473639" lon="9.3672885"><ele>219.0</ele><time>2026-05-03T13:58:12.585Z</time></trkpt><trkpt lat="45.6471528" lon="9.3672091"><ele>219.33333333333331</ele><time>2026-05-03T13:58:13.595Z</time></trkpt><trkpt lat="45.6469406" lon="9.3671216"><ele>219.66666666666666</ele><time>2026-05-03T13:58:14.59Z</time></trkpt><trkpt lat="45.6467343" lon="9.3670497"><ele>220.0</ele><time>2026-05-03T13:58:15.584Z</time></trkpt><trkpt lat="45.6465268" lon="9.3669828"><ele>220.0</ele><time>2026-05-03T13:58:16.589Z</time></trkpt><trkpt lat="45.646311" lon="9.3669"><ele>220.0</ele><time>2026-05-03T13:58:17.595Z</time></trkpt><trkpt lat="45.6460961" lon="9.3668318"><ele>220.0</ele><time>2026-05-03T13:58:18.578Z</time></trkpt><trkpt lat="45.6458922" lon="9.3667629"><ele>218.33333333333331</ele><time>2026-05-03T13:58:19.592Z</time></trkpt><trkpt lat="45.6457011" lon="9.3666957"><ele>216.66666666666669</ele><time>2026-05-03T13:58:20.592Z</time></trkpt><trkpt lat="45.6455137" lon="9.3666223"><ele>215.0</ele><time>2026-05-03T13:58:21.587Z</time></trkpt><trkpt lat="45.6453177" lon="9.3665635"><ele>214.66666666666669</ele><time>2026-05-03T13:58:22.597Z</time></trkpt><trkpt lat="45.6451119" lon="9.3664874"><ele>214.33333333333331</ele><time>2026-05-03T13:58:23.59Z</time></trkpt><trkpt lat="45.6448903" lon="9.3664187"><ele>214.0</ele><time>2026-05-03T13:58:24.585Z</time></trkpt><trkpt lat="45.6446634" lon="9.3663299"><ele>216.5</ele><time>2026-05-03T13:58:25.59Z</time></trkpt><trkpt lat="45.644431" lon="9.3662434"><ele>219.0</ele><time>2026-05-03T13:58:26.593Z</time></trkpt><trkpt lat="45.6442016" lon="9.3661687"><ele>219.0</ele><time>2026-05-03T13:58:27.578Z</time></trkpt><trkpt lat="45.6439554" lon="9.3660861"><ele>219.0</ele><time>2026-05-03T13:58:28.583Z</time></trkpt><trkpt lat="45.6437189" lon="9.3659952"><ele>217.5</ele><time>2026-05-03T13:58:29.581Z</time></trkpt><trkpt lat="45.6434829" lon="9.365915"><ele>216.0</ele><time>2026-05-03T13:58:30.581Z</time></trkpt><trkpt lat="45.6432482" lon="9.3658158"><ele>216.0</ele><time>2026-05-03T13:58:31.583Z</time></trkpt><trkpt lat="45.6430035" lon="9.365724"><ele>216.0</ele><time>2026-05-03T13:58:32.582Z</time></trkpt><trkpt lat="45.6427733" lon="9.3656395"><ele>216.0</ele><time>2026-05-03T13:58:33.588Z</time></trkpt><trkpt lat="45.642532" lon="9.3655407"><ele>216.0</ele><time>2026-05-03T13:58:34.58Z</time></trkpt><trkpt lat="45.6423028" lon="9.3654569"><ele>216.0</ele><time>2026-05-03T13:58:35.586Z</time></trkpt><trkpt lat="45.6420773" lon="9.3653703"><ele>216.0</ele><time>2026-05-03T13:58:36.58Z</time></trkpt><trkpt lat="45.6418301" lon="9.3652865"><ele>215.5</ele><time>2026-05-03T13:58:37.582Z</time></trkpt><trkpt lat="45.6415989" lon="9.3651853"><ele>215.0</ele><time>2026-05-03T13:58:38.582Z</time></trkpt><trkpt lat="45.6413508" lon="9.3651012"><ele>213.5</ele><time>2026-05-03T13:58:39.585Z</time></trkpt><trkpt lat="45.6411081" lon="9.3650225"><ele>212.0</ele><time>2026-05-03T13:58:40.592Z</time></trkpt><trkpt lat="45.6408695" lon="9.3649399"><ele>212.0</ele><time>2026-05-03T13:58:41.592Z</time></trkpt><trkpt lat="45.6406286" lon="9.3648739"><ele>212.0</ele><time>2026-05-03T13:58:42.583Z</time></trkpt><trkpt lat="45.6403917" lon="9.3647971"><ele>212.0</ele><time>2026-05-03T13:58:43.591Z</time></trkpt><trkpt lat="45.6401553" lon="9.3647054"><ele>212.0</ele><time>2026-05-03T13:58:44.592Z</time></trkpt><trkpt lat="45.6399154" lon="9.3646179"><ele>212.0</ele><time>2026-05-03T13:58:45.583Z</time></trkpt><trkpt lat="45.6396752" lon="9.3645407"><ele>212.0</ele><time>2026-05-03T13:58:46.588Z</time></trkpt><trkpt lat="45.6394442" lon="9.3644388"><ele>211.5</ele><time>2026-05-03T13:58:47.595Z</time></trkpt><trkpt lat="45.6392116" lon="9.3643455"><ele>211.0</ele><time>2026-05-03T13:58:48.574Z</time></trkpt><trkpt lat="45.6389842" lon="9.3642561"><ele>211.0</ele><time>2026-05-03T13:58:49.587Z</time></trkpt><trkpt lat="45.6387461" lon="9.3641693"><ele>211.0</ele><time>2026-05-03T13:58:50.593Z</time></trkpt><trkpt lat="45.6385013" lon="9.3640897"><ele>211.5</ele><time>2026-05-03T13:58:51.584Z</time></trkpt><trkpt lat="45.6382709" lon="9.3640166"><ele>212.0</ele><time>2026-05-03T13:58:52.592Z</time></trkpt><trkpt lat="45.6380308" lon="9.3639462"><ele>212.0</ele><time>2026-05-03T13:58:53.601Z</time></trkpt><trkpt lat="45.6377936" lon="9.3638737"><ele>212.0</ele><time>2026-05-03T13:58:54.595Z</time></trkpt><trkpt lat="45.6375569" lon="9.3638036"><ele>212.0</ele><time>2026-05-03T13:58:55.603Z</time></trkpt><trkpt lat="45.637323" lon="9.3637376"><ele>212.0</ele><time>2026-05-03T13:58:56.601Z</time></trkpt><trkpt lat="45.6370922" lon="9.3636949"><ele>211.5</ele><time>2026-05-03T13:58:57.587Z</time></trkpt><trkpt lat="45.6368656" lon="9.3636307"><ele>211.0</ele><time>2026-05-03T13:58:58.593Z</time></trkpt><trkpt lat="45.6366328" lon="9.3635746"><ele>211.0</ele><time>2026-05-03T13:58:59.601Z</time></trkpt><trkpt lat="45.6363976" lon="9.3635199"><ele>211.0</ele><time>2026-05-03T13:59:00.6Z</time></trkpt><trkpt lat="45.6361586" lon="9.3634645"><ele>211.0</ele><time>2026-05-03T13:59:01.602Z</time></trkpt><trkpt lat="45.6359186" lon="9.3634104"><ele>211.0</ele><time>2026-05-03T13:59:02.604Z</time></trkpt><trkpt lat="45.6356793" lon="9.3633538"><ele>211.0</ele><time>2026-05-03T13:59:03.599Z</time></trkpt><trkpt lat="45.635445" lon="9.363313"><ele>211.0</ele><time>2026-05-03T13:59:04.588Z</time></trkpt><trkpt lat="45.6352058" lon="9.3632646"><ele>211.0</ele><time>2026-05-03T13:59:05.601Z</time></trkpt><trkpt lat="45.6349699" lon="9.3632078"><ele>211.0</ele><time>2026-05-03T13:59:06.589Z</time></trkpt><trkpt lat="45.6347323" lon="9.3631518"><ele>211.0</ele><time>2026-05-03T13:59:07.598Z</time></trkpt><trkpt lat="45.6344959" lon="9.3630864"><ele>211.0</ele><time>2026-05-03T13:59:08.589Z</time></trkpt><trkpt lat="45.6342595" lon="9.3630267"><ele>211.5</ele><time>2026-05-03T13:59:09.579Z</time></trkpt><trkpt lat="45.6340099" lon="9.3629639"><ele>212.0</ele><time>2026-05-03T13:59:10.584Z</time></trkpt><trkpt lat="45.633781" lon="9.3629251"><ele>211.0</ele><time>2026-05-03T13:59:11.58Z</time></trkpt><trkpt lat="45.6335508" lon="9.3628855"><ele>210.0</ele><time>2026-05-03T13:59:12.591Z</time></trkpt><trkpt lat="45.6333116" lon="9.3628425"><ele>210.0</ele><time>2026-05-03T13:59:13.584Z</time></trkpt><trkpt lat="45.6330754" lon="9.3627858"><ele>210.0</ele><time>2026-05-03T13:59:14.587Z</time></trkpt><trkpt lat="45.6328301" lon="9.3627327"><ele>210.0</ele><time>2026-05-03T13:59:15.577Z</time></trkpt><trkpt lat="45.6325905" lon="9.3626878"><ele>210.0</ele><time>2026-05-03T13:59:16.587Z</time></trkpt><trkpt lat="45.6323497" lon="9.3626518"><ele>210.0</ele><time>2026-05-03T13:59:17.576Z</time></trkpt><trkpt lat="45.6321104" lon="9.3626127"><ele>210.0</ele><time>2026-05-03T13:59:18.588Z</time></trkpt><trkpt lat="45.6318605" lon="9.3625911"><ele>209.5</ele><time>2026-05-03T13:59:19.578Z</time></trkpt><trkpt lat="45.6316136" lon="9.3625434"><ele>209.0</ele><time>2026-05-03T13:59:20.581Z</time></trkpt><trkpt lat="45.6313624" lon="9.3625137"><ele>209.0</ele><time>2026-05-03T13:59:21.575Z</time></trkpt><trkpt lat="45.6311287" lon="9.362452"><ele>209.0</ele><time>2026-05-03T13:59:22.581Z</time></trkpt><trkpt lat="45.6308839" lon="9.3623939"><ele>209.0</ele><time>2026-05-03T13:59:23.584Z</time></trkpt><trkpt lat="45.6306351" lon="9.3623364"><ele>209.0</ele><time>2026-05-03T13:59:24.578Z</time></trkpt><trkpt lat="45.6303921" lon="9.3622925"><ele>207.5</ele><time>2026-05-03T13:59:25.588Z</time></trkpt><trkpt lat="45.6301525" lon="9.3622473"><ele>206.0</ele><time>2026-05-03T13:59:26.588Z</time></trkpt><trkpt lat="45.6299129" lon="9.3622102"><ele>207.5</ele><time>2026-05-03T13:59:27.578Z</time></trkpt><trkpt lat="45.6296712" lon="9.3621601"><ele>209.0</ele><time>2026-05-03T13:59:28.592Z</time></trkpt><trkpt lat="45.6294301" lon="9.36211"><ele>209.0</ele><time>2026-05-03T13:59:29.582Z</time></trkpt><trkpt lat="45.6291904" lon="9.3620625"><ele>209.0</ele><time>2026-05-03T13:59:30.584Z</time></trkpt><trkpt lat="45.6289433" lon="9.3620213"><ele>209.0</ele><time>2026-05-03T13:59:31.588Z</time></trkpt><trkpt lat="45.6287042" lon="9.3619751"><ele>209.0</ele><time>2026-05-03T13:59:32.581Z</time></trkpt><trkpt lat="45.6284608" lon="9.3619118"><ele>208.5</ele><time>2026-05-03T13:59:33.595Z</time></trkpt><trkpt lat="45.6282145" lon="9.3618675"><ele>208.0</ele><time>2026-05-03T13:59:34.579Z</time></trkpt><trkpt lat="45.6279591" lon="9.3618251"><ele>207.0</ele><time>2026-05-03T13:59:35.586Z</time></trkpt><trkpt lat="45.6277035" lon="9.3617955"><ele>206.0</ele><time>2026-05-03T13:59:36.578Z</time></trkpt><trkpt lat="45.6274541" lon="9.361755"><ele>206.0</ele><time>2026-05-03T13:59:37.586Z</time></trkpt><trkpt lat="45.6271983" lon="9.3617184"><ele>206.0</ele><time>2026-05-03T13:59:38.576Z</time></trkpt><trkpt lat="45.6269451" lon="9.3616586"><ele>204.5</ele><time>2026-05-03T13:59:39.581Z</time></trkpt><trkpt lat="45.6266833" lon="9.3616136"><ele>203.0</ele><time>2026-05-03T13:59:40.572Z</time></trkpt><trkpt lat="45.6264389" lon="9.3615505"><ele>203.0</ele><time>2026-05-03T13:59:41.58Z</time></trkpt><trkpt lat="45.6261884" lon="9.3615029"><ele>203.0</ele><time>2026-05-03T13:59:42.583Z</time></trkpt><trkpt lat="45.6259406" lon="9.3614526"><ele>203.0</ele><time>2026-05-03T13:59:43.585Z</time></trkpt><trkpt lat="45.6256998" lon="9.3613898"><ele>203.0</ele><time>2026-05-03T13:59:44.584Z</time></trkpt><trkpt lat="45.6254344" lon="9.361316"><ele>202.0</ele><time>2026-05-03T13:59:45.585Z</time></trkpt><trkpt lat="45.6251819" lon="9.3612746"><ele>201.0</ele><time>2026-05-03T13:59:46.582Z</time></trkpt><trkpt lat="45.6249296" lon="9.3612192"><ele>201.0</ele><time>2026-05-03T13:59:47.598Z</time></trkpt><trkpt lat="45.6246892" lon="9.3611622"><ele>201.0</ele><time>2026-05-03T13:59:48.579Z</time></trkpt><trkpt lat="45.6244607" lon="9.3611086"><ele>200.33333333333331</ele><time>2026-05-03T13:59:49.594Z</time></trkpt><trkpt lat="45.6242388" lon="9.361072"><ele>199.66666666666666</ele><time>2026-05-03T13:59:50.585Z</time></trkpt><trkpt lat="45.6240194" lon="9.361038"><ele>199.0</ele><time>2026-05-03T13:59:51.588Z</time></trkpt><trkpt lat="45.6238051" lon="9.3609964"><ele>199.0</ele><time>2026-05-03T13:59:52.583Z</time></trkpt><trkpt lat="45.623592" lon="9.3609573"><ele>199.0</ele><time>2026-05-03T13:59:53.595Z</time></trkpt><trkpt lat="45.6233908" lon="9.3609198"><ele>199.0</ele><time>2026-05-03T13:59:54.584Z</time></trkpt><trkpt lat="45.6231875" lon="9.3608755"><ele>199.0</ele><time>2026-05-03T13:59:55.59Z</time></trkpt><trkpt lat="45.6229732" lon="9.360834"><ele>199.0</ele><time>2026-05-03T13:59:56.588Z</time></trkpt><trkpt lat="45.6227666" lon="9.3607808"><ele>199.0</ele><time>2026-05-03T13:59:57.582Z</time></trkpt><trkpt lat="45.6225668" lon="9.3607384"><ele>198.0</ele><time>2026-05-03T13:59:58.594Z</time></trkpt><trkpt lat="45.6223684" lon="9.3606926"><ele>197.0</ele><time>2026-05-03T13:59:59.588Z</time></trkpt><trkpt lat="45.6221684" lon="9.3606572"><ele>196.0</ele><time>2026-05-03T14:00:00.604Z</time></trkpt><trkpt lat="45.6219667" lon="9.3606148"><ele>196.33333333333331</ele><time>2026-05-03T14:00:01.611Z</time></trkpt><trkpt lat="45.6217721" lon="9.3605703"><ele>196.66666666666669</ele><time>2026-05-03T14:00:02.602Z</time></trkpt><trkpt lat="45.6215676" lon="9.3605433"><ele>197.0</ele><time>2026-05-03T14:00:03.594Z</time></trkpt><trkpt lat="45.6213783" lon="9.3604855"><ele>197.0</ele><time>2026-05-03T14:00:04.602Z</time></trkpt><trkpt lat="45.6211921" lon="9.3604236"><ele>197.0</ele><time>2026-05-03T14:00:05.604Z</time></trkpt><trkpt lat="45.621005" lon="9.3603574"><ele>197.0</ele><time>2026-05-03T14:00:06.592Z</time></trkpt><trkpt lat="45.6208118" lon="9.3603281"><ele>196.0</ele><time>2026-05-03T14:00:07.601Z</time></trkpt><trkpt lat="45.6206338" lon="9.3602655"><ele>195.0</ele><time>2026-05-03T14:00:08.592Z</time></trkpt><trkpt lat="45.6204483" lon="9.3602238"><ele>194.0</ele><time>2026-05-03T14:00:09.596Z</time></trkpt><trkpt lat="45.6202758" lon="9.3601996"><ele>193.0</ele><time>2026-05-03T14:00:10.602Z</time></trkpt><trkpt lat="45.6200991" lon="9.3601662"><ele>192.0</ele><time>2026-05-03T14:00:11.59Z</time></trkpt><trkpt lat="45.6199412" lon="9.3601463"><ele>191.0</ele><time>2026-05-03T14:00:12.596Z</time></trkpt><trkpt lat="45.6197802" lon="9.3601376"><ele>191.0</ele><time>2026-05-03T14:00:13.602Z</time></trkpt><trkpt lat="45.6196183" lon="9.360105"><ele>191.0</ele><time>2026-05-03T14:00:14.597Z</time></trkpt><trkpt lat="45.619464" lon="9.3600587"><ele>191.0</ele><time>2026-05-03T14:00:15.602Z</time></trkpt><trkpt lat="45.6193333" lon="9.3600007"><ele>191.33333333333331</ele><time>2026-05-03T14:00:16.582Z</time></trkpt><trkpt lat="45.6191763" lon="9.3599644"><ele>191.66666666666666</ele><time>2026-05-03T14:00:17.603Z</time></trkpt><trkpt lat="45.6190169" lon="9.3599171"><ele>192.0</ele><time>2026-05-03T14:00:18.595Z</time></trkpt><trkpt lat="45.6188723" lon="9.3598778"><ele>192.0</ele><time>2026-05-03T14:00:19.596Z</time></trkpt><trkpt lat="45.6187229" lon="9.3598517"><ele>192.0</ele><time>2026-05-03T14:00:20.596Z</time></trkpt><trkpt lat="45.6185824" lon="9.3598212"><ele>192.0</ele><time>2026-05-03T14:00:21.596Z</time></trkpt><trkpt lat="45.6184517" lon="9.3598317"><ele>192.0</ele><time>2026-05-03T14:00:22.723Z</time></trkpt><trkpt lat="45.6183218" lon="9.359815"><ele>192.5</ele><time>2026-05-03T14:00:23.596Z</time></trkpt><trkpt lat="45.6182041" lon="9.3597731"><ele>193.0</ele><time>2026-05-03T14:00:24.583Z</time></trkpt><trkpt lat="45.6180972" lon="9.359722"><ele>193.5</ele><time>2026-05-03T14:00:25.729Z</time></trkpt><trkpt lat="45.6179045" lon="9.3596902"><ele>194.0</ele><time>2026-05-03T14:00:27.601Z</time></trkpt><trkpt lat="45.6178231" lon="9.3596814"><ele>193.79999999999998</ele><time>2026-05-03T14:00:28.73Z</time></trkpt><trkpt lat="45.6176833" lon="9.3596652"><ele>193.6</ele><time>2026-05-03T14:00:30.594Z</time></trkpt><trkpt lat="45.6176201" lon="9.359656"><ele>193.4</ele><time>2026-05-03T14:00:31.736Z</time></trkpt><trkpt lat="45.6174913" lon="9.3596331"><ele>193.2</ele><time>2026-05-03T14:00:33.595Z</time></trkpt><trkpt lat="45.6174189" lon="9.3596136"><ele>193.0</ele><time>2026-05-03T14:00:34.603Z</time></trkpt><trkpt lat="45.617347" lon="9.3595942"><ele>192.99999999999997</ele><time>2026-05-03T14:00:35.599Z</time></trkpt><trkpt lat="45.6172723" lon="9.3595865"><ele>193.0</ele><time>2026-05-03T14:00:36.605Z</time></trkpt><trkpt lat="45.6172084" lon="9.3596261"><ele>193.0</ele><time>2026-05-03T14:00:37.575Z</time></trkpt><trkpt lat="45.6171649" lon="9.3597258"><ele>193.0</ele><time>2026-05-03T14:00:38.563Z</time></trkpt><trkpt lat="45.6171412" lon="9.3598422"><ele>192.99999999999997</ele><time>2026-05-03T14:00:39.567Z</time></trkpt><trkpt lat="45.6171542" lon="9.3599814"><ele>193.0</ele><time>2026-05-03T14:00:40.573Z</time></trkpt><trkpt lat="45.6171763" lon="9.3601218"><ele>193.8</ele><time>2026-05-03T14:00:41.56Z</time></trkpt><trkpt lat="45.6171871" lon="9.3602682"><ele>194.60000000000002</ele><time>2026-05-03T14:00:42.594Z</time></trkpt><trkpt lat="45.617195" lon="9.3604212"><ele>195.39999999999998</ele><time>2026-05-03T14:00:43.571Z</time></trkpt><trkpt lat="45.6171986" lon="9.3605605"><ele>196.2</ele><time>2026-05-03T14:00:44.561Z</time></trkpt><trkpt lat="45.6171997" lon="9.3606973"><ele>197.0</ele><time>2026-05-03T14:00:45.567Z</time></trkpt><trkpt lat="45.6171965" lon="9.3608137"><ele>197.0</ele><time>2026-05-03T14:00:46.568Z</time></trkpt><trkpt lat="45.617186" lon="9.3609176"><ele>197.0</ele><time>2026-05-03T14:00:47.57Z</time></trkpt><trkpt lat="45.6171693" lon="9.3610668"><ele>197.0</ele><time>2026-05-03T14:00:49.554Z</time></trkpt><trkpt lat="45.6171209" lon="9.3611278"><ele>197.0</ele><time>2026-05-03T14:00:52.572Z</time></trkpt><trkpt lat="45.617018" lon="9.3610781"><ele>197.0</ele><time>2026-05-03T14:00:54.56Z</time></trkpt><trkpt lat="45.616897" lon="9.3610146"><ele>196.33333333333334</ele><time>2026-05-03T14:00:56.565Z</time></trkpt><trkpt lat="45.6167852" lon="9.3609785"><ele>195.66666666666669</ele><time>2026-05-03T14:00:58.578Z</time></trkpt><trkpt lat="45.6167159" lon="9.3609627"><ele>195.0</ele><time>2026-05-03T14:00:59.57Z</time></trkpt><trkpt lat="45.6166525" lon="9.3609484"><ele>194.33333333333331</ele><time>2026-05-03T14:01:00.569Z</time></trkpt><trkpt lat="45.6165879" lon="9.3609258"><ele>193.66666666666666</ele><time>2026-05-03T14:01:01.576Z</time></trkpt><trkpt lat="45.6165154" lon="9.3609156"><ele>193.0</ele><time>2026-05-03T14:01:02.593Z</time></trkpt><trkpt lat="45.6164437" lon="9.3609047"><ele>192.99999999999997</ele><time>2026-05-03T14:01:03.566Z</time></trkpt><trkpt lat="45.6163658" lon="9.3608869"><ele>193.0</ele><time>2026-05-03T14:01:04.571Z</time></trkpt><trkpt lat="45.616287" lon="9.3608774"><ele>193.0</ele><time>2026-05-03T14:01:05.575Z</time></trkpt><trkpt lat="45.6162107" lon="9.3608656"><ele>193.0</ele><time>2026-05-03T14:01:06.569Z</time></trkpt><trkpt lat="45.6161322" lon="9.3608593"><ele>192.99999999999997</ele><time>2026-05-03T14:01:07.578Z</time></trkpt><trkpt lat="45.6160525" lon="9.3608618"><ele>193.0</ele><time>2026-05-03T14:01:08.577Z</time></trkpt><trkpt lat="45.6159762" lon="9.3608789"><ele>192.66666666666666</ele><time>2026-05-03T14:01:09.572Z</time></trkpt><trkpt lat="45.6159029" lon="9.3608929"><ele>192.33333333333331</ele><time>2026-05-03T14:01:10.579Z</time></trkpt><trkpt lat="45.6158329" lon="9.3609011"><ele>192.0</ele><time>2026-05-03T14:01:11.571Z</time></trkpt><trkpt lat="45.6157571" lon="9.3608826"><ele>191.66666666666666</ele><time>2026-05-03T14:01:12.588Z</time></trkpt><trkpt lat="45.6156888" lon="9.3608587"><ele>191.33333333333331</ele><time>2026-05-03T14:01:13.581Z</time></trkpt><trkpt lat="45.6155754" lon="9.3608477"><ele>191.0</ele><time>2026-05-03T14:01:15.589Z</time></trkpt><trkpt lat="45.6154756" lon="9.3608518"><ele>191.0</ele><time>2026-05-03T14:01:17.585Z</time></trkpt><trkpt lat="45.6153547" lon="9.3608255"><ele>191.0</ele><time>2026-05-03T14:01:19.732Z</time></trkpt><trkpt lat="45.6151858" lon="9.3608138"><ele>191.0</ele><time>2026-05-03T14:01:21.576Z</time></trkpt><trkpt lat="45.6151104" lon="9.3608066"><ele>191.0</ele><time>2026-05-03T14:01:22.578Z</time></trkpt><trkpt lat="45.6149957" lon="9.3607701"><ele>191.0</ele><time>2026-05-03T14:01:24.591Z</time></trkpt><trkpt lat="45.6149095" lon="9.3607816"><ele>191.0</ele><time>2026-05-03T14:01:26.601Z</time></trkpt><trkpt lat="45.6148953" lon="9.3609064"><ele>191.0</ele><time>2026-05-03T14:01:29.742Z</time></trkpt><trkpt lat="45.6149151" lon="9.3610306"><ele>191.0</ele><time>2026-05-03T14:01:31.582Z</time></trkpt><trkpt lat="45.614916" lon="9.3611615"><ele>191.0</ele><time>2026-05-03T14:01:33.558Z</time></trkpt><trkpt lat="45.6149197" lon="9.3612754"><ele>191.0</ele><time>2026-05-03T14:01:35.545Z</time></trkpt><trkpt lat="45.6149282" lon="9.3613829"><ele>190.0</ele><time>2026-05-03T14:01:37.517Z</time></trkpt><trkpt lat="45.6149519" lon="9.3614779"><ele>190.0</ele><time>2026-05-03T14:01:39.518Z</time></trkpt><trkpt lat="45.6149567" lon="9.3617146"><ele>190.0</ele><time>2026-05-03T14:01:43.498Z</time></trkpt></trkseg></trk></gpx>